<?xml version="1.0" encoding="UTF-8" standalone="no" ?>
<gpx xmlns="http://www.topografix.com/GPX/1/1" xmlns:xsi="http://www.w3.org/2001/XMLSchema-instance" xsi:schemaLocation="http://www.topografix.com/GPX/1/1 http://www.topografix.com/GPX/1/1/gpx.xsd" version="1.1" creator="VisuGPX - https://www.visugpx.com">
  <metadata>
    <name>Tour de Vouglans</name>
  </metadata>
  <trk>
    <name><![CDATA[Afternoon Ride]]></name>
    <trkseg>
      <trkpt lat="46.57721" lon="5.74719">
        <ele>535.8</ele>
        <time>2022-02-28T11:27:08Z</time>
      </trkpt>
      <trkpt lat="46.57715" lon="5.74718">
        <ele>536</ele>
        <time>2022-02-28T11:27:09Z</time>
      </trkpt>
      <trkpt lat="46.57708" lon="5.74717">
        <ele>536</ele>
        <time>2022-02-28T11:27:10Z</time>
      </trkpt>
      <trkpt lat="46.57702" lon="5.74716">
        <ele>536.2</ele>
        <time>2022-02-28T11:27:11Z</time>
      </trkpt>
      <trkpt lat="46.57695" lon="5.74716">
        <ele>536.2</ele>
        <time>2022-02-28T11:27:12Z</time>
      </trkpt>
      <trkpt lat="46.57689" lon="5.74715">
        <ele>536.2</ele>
        <time>2022-02-28T11:27:13Z</time>
      </trkpt>
      <trkpt lat="46.57682" lon="5.74714">
        <ele>536.2</ele>
        <time>2022-02-28T11:27:14Z</time>
      </trkpt>
      <trkpt lat="46.57676" lon="5.74713">
        <ele>536.2</ele>
        <time>2022-02-28T11:27:15Z</time>
      </trkpt>
      <trkpt lat="46.5767" lon="5.74712">
        <ele>536.4</ele>
        <time>2022-02-28T11:27:16Z</time>
      </trkpt>
      <trkpt lat="46.57664" lon="5.74711">
        <ele>536.4</ele>
        <time>2022-02-28T11:27:17Z</time>
      </trkpt>
      <trkpt lat="46.57657" lon="5.74711">
        <ele>536.4</ele>
        <time>2022-02-28T11:27:18Z</time>
      </trkpt>
      <trkpt lat="46.57651" lon="5.7471">
        <ele>536.4</ele>
        <time>2022-02-28T11:27:19Z</time>
      </trkpt>
      <trkpt lat="46.57646" lon="5.7471">
        <ele>536.4</ele>
        <time>2022-02-28T11:27:20Z</time>
      </trkpt>
      <trkpt lat="46.5764" lon="5.74709">
        <ele>536.4</ele>
        <time>2022-02-28T11:27:21Z</time>
      </trkpt>
      <trkpt lat="46.57634" lon="5.7471">
        <ele>536.6</ele>
        <time>2022-02-28T11:27:22Z</time>
      </trkpt>
      <trkpt lat="46.57628" lon="5.7471">
        <ele>536.6</ele>
        <time>2022-02-28T11:27:23Z</time>
      </trkpt>
      <trkpt lat="46.57622" lon="5.74711">
        <ele>536.6</ele>
        <time>2022-02-28T11:27:24Z</time>
      </trkpt>
      <trkpt lat="46.57616" lon="5.74712">
        <ele>536.6</ele>
        <time>2022-02-28T11:27:25Z</time>
      </trkpt>
      <trkpt lat="46.57611" lon="5.74713">
        <ele>536.6</ele>
        <time>2022-02-28T11:27:26Z</time>
      </trkpt>
      <trkpt lat="46.57605" lon="5.74714">
        <ele>536.6</ele>
        <time>2022-02-28T11:27:27Z</time>
      </trkpt>
      <trkpt lat="46.57599" lon="5.74716">
        <ele>536.6</ele>
        <time>2022-02-28T11:27:28Z</time>
      </trkpt>
      <trkpt lat="46.57593" lon="5.74717">
        <ele>536.6</ele>
        <time>2022-02-28T11:27:29Z</time>
      </trkpt>
      <trkpt lat="46.57586" lon="5.74719">
        <ele>536.6</ele>
        <time>2022-02-28T11:27:30Z</time>
      </trkpt>
      <trkpt lat="46.5758" lon="5.74721">
        <ele>536.6</ele>
        <time>2022-02-28T11:27:31Z</time>
      </trkpt>
      <trkpt lat="46.57573" lon="5.74722">
        <ele>536.6</ele>
        <time>2022-02-28T11:27:32Z</time>
      </trkpt>
      <trkpt lat="46.57566" lon="5.74723">
        <ele>536.6</ele>
        <time>2022-02-28T11:27:33Z</time>
      </trkpt>
      <trkpt lat="46.57559" lon="5.74725">
        <ele>536.4</ele>
        <time>2022-02-28T11:27:34Z</time>
      </trkpt>
      <trkpt lat="46.57552" lon="5.74727">
        <ele>536.4</ele>
        <time>2022-02-28T11:27:35Z</time>
      </trkpt>
      <trkpt lat="46.57545" lon="5.74729">
        <ele>536</ele>
        <time>2022-02-28T11:27:36Z</time>
      </trkpt>
      <trkpt lat="46.57537" lon="5.74731">
        <ele>535.8</ele>
        <time>2022-02-28T11:27:37Z</time>
      </trkpt>
      <trkpt lat="46.5753" lon="5.74732">
        <ele>535.8</ele>
        <time>2022-02-28T11:27:38Z</time>
      </trkpt>
      <trkpt lat="46.57522" lon="5.74734">
        <ele>535.6</ele>
        <time>2022-02-28T11:27:39Z</time>
      </trkpt>
      <trkpt lat="46.57515" lon="5.74736">
        <ele>535.2</ele>
        <time>2022-02-28T11:27:40Z</time>
      </trkpt>
      <trkpt lat="46.57507" lon="5.74737">
        <ele>534.8</ele>
        <time>2022-02-28T11:27:41Z</time>
      </trkpt>
      <trkpt lat="46.57499" lon="5.74739">
        <ele>534.4</ele>
        <time>2022-02-28T11:27:42Z</time>
      </trkpt>
      <trkpt lat="46.57491" lon="5.7474">
        <ele>534.2</ele>
        <time>2022-02-28T11:27:43Z</time>
      </trkpt>
      <trkpt lat="46.57483" lon="5.74741">
        <ele>533.8</ele>
        <time>2022-02-28T11:27:44Z</time>
      </trkpt>
      <trkpt lat="46.57474" lon="5.74742">
        <ele>533.6</ele>
        <time>2022-02-28T11:27:45Z</time>
      </trkpt>
      <trkpt lat="46.57466" lon="5.74742">
        <ele>533.2</ele>
        <time>2022-02-28T11:27:46Z</time>
      </trkpt>
      <trkpt lat="46.57457" lon="5.74741">
        <ele>533</ele>
        <time>2022-02-28T11:27:47Z</time>
      </trkpt>
      <trkpt lat="46.57449" lon="5.7474">
        <ele>532.8</ele>
        <time>2022-02-28T11:27:48Z</time>
      </trkpt>
      <trkpt lat="46.5744" lon="5.74737">
        <ele>532.4</ele>
        <time>2022-02-28T11:27:49Z</time>
      </trkpt>
      <trkpt lat="46.57432" lon="5.74734">
        <ele>532.2</ele>
        <time>2022-02-28T11:27:50Z</time>
      </trkpt>
      <trkpt lat="46.57424" lon="5.7473">
        <ele>531.8</ele>
        <time>2022-02-28T11:27:51Z</time>
      </trkpt>
      <trkpt lat="46.57415" lon="5.74726">
        <ele>531.6</ele>
        <time>2022-02-28T11:27:52Z</time>
      </trkpt>
      <trkpt lat="46.57407" lon="5.74722">
        <ele>531.2</ele>
        <time>2022-02-28T11:27:53Z</time>
      </trkpt>
      <trkpt lat="46.57399" lon="5.74718">
        <ele>530.8</ele>
        <time>2022-02-28T11:27:54Z</time>
      </trkpt>
      <trkpt lat="46.57391" lon="5.74712">
        <ele>530.8</ele>
        <time>2022-02-28T11:27:55Z</time>
      </trkpt>
      <trkpt lat="46.57391" lon="5.74712">
        <ele>530.4</ele>
        <time>2022-02-28T11:27:56Z</time>
      </trkpt>
      <trkpt lat="46.57384" lon="5.74705">
        <ele>530.2</ele>
        <time>2022-02-28T11:27:57Z</time>
      </trkpt>
      <trkpt lat="46.57377" lon="5.74698">
        <ele>530.2</ele>
        <time>2022-02-28T11:27:58Z</time>
      </trkpt>
      <trkpt lat="46.5737" lon="5.7469">
        <ele>530</ele>
        <time>2022-02-28T11:27:59Z</time>
      </trkpt>
      <trkpt lat="46.57363" lon="5.74683">
        <ele>530</ele>
        <time>2022-02-28T11:28:00Z</time>
      </trkpt>
      <trkpt lat="46.57357" lon="5.74677">
        <ele>529.8</ele>
        <time>2022-02-28T11:28:01Z</time>
      </trkpt>
      <trkpt lat="46.5735" lon="5.7467">
        <ele>529.8</ele>
        <time>2022-02-28T11:28:02Z</time>
      </trkpt>
      <trkpt lat="46.57343" lon="5.74664">
        <ele>529.8</ele>
        <time>2022-02-28T11:28:03Z</time>
      </trkpt>
      <trkpt lat="46.57337" lon="5.74658">
        <ele>529.8</ele>
        <time>2022-02-28T11:28:04Z</time>
      </trkpt>
      <trkpt lat="46.57331" lon="5.74653">
        <ele>529.8</ele>
        <time>2022-02-28T11:28:05Z</time>
      </trkpt>
      <trkpt lat="46.57324" lon="5.74648">
        <ele>529.8</ele>
        <time>2022-02-28T11:28:06Z</time>
      </trkpt>
      <trkpt lat="46.57317" lon="5.74644">
        <ele>529.8</ele>
        <time>2022-02-28T11:28:07Z</time>
      </trkpt>
      <trkpt lat="46.5731" lon="5.7464">
        <ele>529.8</ele>
        <time>2022-02-28T11:28:08Z</time>
      </trkpt>
      <trkpt lat="46.57303" lon="5.74636">
        <ele>529.8</ele>
        <time>2022-02-28T11:28:09Z</time>
      </trkpt>
      <trkpt lat="46.57297" lon="5.74632">
        <ele>530</ele>
        <time>2022-02-28T11:28:10Z</time>
      </trkpt>
      <trkpt lat="46.5729" lon="5.74628">
        <ele>530</ele>
        <time>2022-02-28T11:28:11Z</time>
      </trkpt>
      <trkpt lat="46.57283" lon="5.74625">
        <ele>530</ele>
        <time>2022-02-28T11:28:12Z</time>
      </trkpt>
      <trkpt lat="46.57276" lon="5.74621">
        <ele>530.4</ele>
        <time>2022-02-28T11:28:13Z</time>
      </trkpt>
      <trkpt lat="46.57269" lon="5.74617">
        <ele>530.4</ele>
        <time>2022-02-28T11:28:14Z</time>
      </trkpt>
      <trkpt lat="46.57262" lon="5.74614">
        <ele>530.4</ele>
        <time>2022-02-28T11:28:15Z</time>
      </trkpt>
      <trkpt lat="46.57254" lon="5.7461">
        <ele>530.6</ele>
        <time>2022-02-28T11:28:16Z</time>
      </trkpt>
      <trkpt lat="46.57247" lon="5.74607">
        <ele>530.6</ele>
        <time>2022-02-28T11:28:17Z</time>
      </trkpt>
      <trkpt lat="46.5724" lon="5.74604">
        <ele>530.6</ele>
        <time>2022-02-28T11:28:18Z</time>
      </trkpt>
      <trkpt lat="46.57232" lon="5.74601">
        <ele>530.6</ele>
        <time>2022-02-28T11:28:19Z</time>
      </trkpt>
      <trkpt lat="46.57225" lon="5.74599">
        <ele>530.6</ele>
        <time>2022-02-28T11:28:20Z</time>
      </trkpt>
      <trkpt lat="46.57217" lon="5.74596">
        <ele>530.8</ele>
        <time>2022-02-28T11:28:21Z</time>
      </trkpt>
      <trkpt lat="46.5721" lon="5.74593">
        <ele>530.8</ele>
        <time>2022-02-28T11:28:22Z</time>
      </trkpt>
      <trkpt lat="46.57203" lon="5.74591">
        <ele>530.8</ele>
        <time>2022-02-28T11:28:23Z</time>
      </trkpt>
      <trkpt lat="46.57195" lon="5.74588">
        <ele>530.8</ele>
        <time>2022-02-28T11:28:24Z</time>
      </trkpt>
      <trkpt lat="46.57188" lon="5.74585">
        <ele>530.8</ele>
        <time>2022-02-28T11:28:25Z</time>
      </trkpt>
      <trkpt lat="46.57181" lon="5.74582">
        <ele>530.4</ele>
        <time>2022-02-28T11:28:26Z</time>
      </trkpt>
      <trkpt lat="46.57174" lon="5.74579">
        <ele>530.4</ele>
        <time>2022-02-28T11:28:27Z</time>
      </trkpt>
      <trkpt lat="46.57166" lon="5.74577">
        <ele>530.4</ele>
        <time>2022-02-28T11:28:28Z</time>
      </trkpt>
      <trkpt lat="46.57158" lon="5.74575">
        <ele>530.4</ele>
        <time>2022-02-28T11:28:29Z</time>
      </trkpt>
      <trkpt lat="46.57151" lon="5.74572">
        <ele>530.4</ele>
        <time>2022-02-28T11:28:30Z</time>
      </trkpt>
      <trkpt lat="46.57143" lon="5.74569">
        <ele>530.2</ele>
        <time>2022-02-28T11:28:31Z</time>
      </trkpt>
      <trkpt lat="46.57136" lon="5.74567">
        <ele>530.2</ele>
        <time>2022-02-28T11:28:32Z</time>
      </trkpt>
      <trkpt lat="46.57128" lon="5.74564">
        <ele>530.2</ele>
        <time>2022-02-28T11:28:33Z</time>
      </trkpt>
      <trkpt lat="46.57121" lon="5.74562">
        <ele>530.2</ele>
        <time>2022-02-28T11:28:34Z</time>
      </trkpt>
      <trkpt lat="46.57113" lon="5.74559">
        <ele>530.2</ele>
        <time>2022-02-28T11:28:35Z</time>
      </trkpt>
      <trkpt lat="46.57106" lon="5.74556">
        <ele>530.2</ele>
        <time>2022-02-28T11:28:36Z</time>
      </trkpt>
      <trkpt lat="46.57098" lon="5.74553">
        <ele>530.2</ele>
        <time>2022-02-28T11:28:37Z</time>
      </trkpt>
      <trkpt lat="46.5709" lon="5.74551">
        <ele>530.2</ele>
        <time>2022-02-28T11:28:38Z</time>
      </trkpt>
      <trkpt lat="46.57083" lon="5.74548">
        <ele>530.2</ele>
        <time>2022-02-28T11:28:39Z</time>
      </trkpt>
      <trkpt lat="46.57075" lon="5.74546">
        <ele>530.2</ele>
        <time>2022-02-28T11:28:40Z</time>
      </trkpt>
      <trkpt lat="46.57068" lon="5.74543">
        <ele>530.2</ele>
        <time>2022-02-28T11:28:41Z</time>
      </trkpt>
      <trkpt lat="46.5706" lon="5.74541">
        <ele>530.2</ele>
        <time>2022-02-28T11:28:42Z</time>
      </trkpt>
      <trkpt lat="46.57053" lon="5.74538">
        <ele>530.4</ele>
        <time>2022-02-28T11:28:43Z</time>
      </trkpt>
      <trkpt lat="46.57045" lon="5.74536">
        <ele>530.4</ele>
        <time>2022-02-28T11:28:44Z</time>
      </trkpt>
      <trkpt lat="46.57038" lon="5.74533">
        <ele>530.4</ele>
        <time>2022-02-28T11:28:45Z</time>
      </trkpt>
      <trkpt lat="46.5703" lon="5.74531">
        <ele>530.4</ele>
        <time>2022-02-28T11:28:46Z</time>
      </trkpt>
      <trkpt lat="46.57023" lon="5.74528">
        <ele>530.4</ele>
        <time>2022-02-28T11:28:47Z</time>
      </trkpt>
      <trkpt lat="46.57015" lon="5.74526">
        <ele>530.6</ele>
        <time>2022-02-28T11:28:48Z</time>
      </trkpt>
      <trkpt lat="46.57008" lon="5.74523">
        <ele>530.6</ele>
        <time>2022-02-28T11:28:49Z</time>
      </trkpt>
      <trkpt lat="46.57001" lon="5.74521">
        <ele>530.6</ele>
        <time>2022-02-28T11:28:50Z</time>
      </trkpt>
      <trkpt lat="46.56993" lon="5.74518">
        <ele>530.6</ele>
        <time>2022-02-28T11:28:51Z</time>
      </trkpt>
      <trkpt lat="46.56986" lon="5.74516">
        <ele>530.8</ele>
        <time>2022-02-28T11:28:52Z</time>
      </trkpt>
      <trkpt lat="46.56979" lon="5.74513">
        <ele>530.8</ele>
        <time>2022-02-28T11:28:53Z</time>
      </trkpt>
      <trkpt lat="46.56971" lon="5.74511">
        <ele>530.8</ele>
        <time>2022-02-28T11:28:54Z</time>
      </trkpt>
      <trkpt lat="46.56964" lon="5.74508">
        <ele>531.2</ele>
        <time>2022-02-28T11:28:55Z</time>
      </trkpt>
      <trkpt lat="46.56957" lon="5.74506">
        <ele>531.2</ele>
        <time>2022-02-28T11:28:56Z</time>
      </trkpt>
      <trkpt lat="46.5695" lon="5.74504">
        <ele>531.2</ele>
        <time>2022-02-28T11:28:57Z</time>
      </trkpt>
      <trkpt lat="46.56943" lon="5.74502">
        <ele>531.4</ele>
        <time>2022-02-28T11:28:58Z</time>
      </trkpt>
      <trkpt lat="46.56936" lon="5.74499">
        <ele>531.4</ele>
        <time>2022-02-28T11:28:59Z</time>
      </trkpt>
      <trkpt lat="46.56928" lon="5.74497">
        <ele>531.6</ele>
        <time>2022-02-28T11:29:00Z</time>
      </trkpt>
      <trkpt lat="46.56921" lon="5.74494">
        <ele>531.6</ele>
        <time>2022-02-28T11:29:01Z</time>
      </trkpt>
      <trkpt lat="46.56914" lon="5.74492">
        <ele>531.6</ele>
        <time>2022-02-28T11:29:02Z</time>
      </trkpt>
      <trkpt lat="46.56907" lon="5.7449">
        <ele>531.8</ele>
        <time>2022-02-28T11:29:03Z</time>
      </trkpt>
      <trkpt lat="46.569" lon="5.74488">
        <ele>531.8</ele>
        <time>2022-02-28T11:29:04Z</time>
      </trkpt>
      <trkpt lat="46.56892" lon="5.74485">
        <ele>532</ele>
        <time>2022-02-28T11:29:05Z</time>
      </trkpt>
      <trkpt lat="46.56885" lon="5.74483">
        <ele>532</ele>
        <time>2022-02-28T11:29:06Z</time>
      </trkpt>
      <trkpt lat="46.56878" lon="5.74481">
        <ele>532</ele>
        <time>2022-02-28T11:29:07Z</time>
      </trkpt>
      <trkpt lat="46.56871" lon="5.74479">
        <ele>532.2</ele>
        <time>2022-02-28T11:29:08Z</time>
      </trkpt>
      <trkpt lat="46.56864" lon="5.74477">
        <ele>532.2</ele>
        <time>2022-02-28T11:29:09Z</time>
      </trkpt>
      <trkpt lat="46.56857" lon="5.74475">
        <ele>532.2</ele>
        <time>2022-02-28T11:29:10Z</time>
      </trkpt>
      <trkpt lat="46.5685" lon="5.74473">
        <ele>532.2</ele>
        <time>2022-02-28T11:29:11Z</time>
      </trkpt>
      <trkpt lat="46.56843" lon="5.7447">
        <ele>532.2</ele>
        <time>2022-02-28T11:29:12Z</time>
      </trkpt>
      <trkpt lat="46.56836" lon="5.74468">
        <ele>532.4</ele>
        <time>2022-02-28T11:29:13Z</time>
      </trkpt>
      <trkpt lat="46.56828" lon="5.74466">
        <ele>532.4</ele>
        <time>2022-02-28T11:29:14Z</time>
      </trkpt>
      <trkpt lat="46.56821" lon="5.74464">
        <ele>532.4</ele>
        <time>2022-02-28T11:29:15Z</time>
      </trkpt>
      <trkpt lat="46.56814" lon="5.74462">
        <ele>532.4</ele>
        <time>2022-02-28T11:29:16Z</time>
      </trkpt>
      <trkpt lat="46.56807" lon="5.74459">
        <ele>532.4</ele>
        <time>2022-02-28T11:29:17Z</time>
      </trkpt>
      <trkpt lat="46.568" lon="5.74457">
        <ele>532.8</ele>
        <time>2022-02-28T11:29:18Z</time>
      </trkpt>
      <trkpt lat="46.56792" lon="5.74454">
        <ele>532.8</ele>
        <time>2022-02-28T11:29:19Z</time>
      </trkpt>
      <trkpt lat="46.56785" lon="5.74452">
        <ele>532.8</ele>
        <time>2022-02-28T11:29:20Z</time>
      </trkpt>
      <trkpt lat="46.56777" lon="5.7445">
        <ele>532.8</ele>
        <time>2022-02-28T11:29:21Z</time>
      </trkpt>
      <trkpt lat="46.5677" lon="5.74448">
        <ele>532.8</ele>
        <time>2022-02-28T11:29:22Z</time>
      </trkpt>
      <trkpt lat="46.56762" lon="5.74447">
        <ele>532.8</ele>
        <time>2022-02-28T11:29:23Z</time>
      </trkpt>
      <trkpt lat="46.56755" lon="5.74445">
        <ele>532.8</ele>
        <time>2022-02-28T11:29:24Z</time>
      </trkpt>
      <trkpt lat="46.56748" lon="5.74444">
        <ele>532.8</ele>
        <time>2022-02-28T11:29:25Z</time>
      </trkpt>
      <trkpt lat="46.56741" lon="5.74442">
        <ele>532.8</ele>
        <time>2022-02-28T11:29:26Z</time>
      </trkpt>
      <trkpt lat="46.56734" lon="5.74441">
        <ele>532.8</ele>
        <time>2022-02-28T11:29:27Z</time>
      </trkpt>
      <trkpt lat="46.56726" lon="5.74439">
        <ele>532.8</ele>
        <time>2022-02-28T11:29:28Z</time>
      </trkpt>
      <trkpt lat="46.56719" lon="5.74438">
        <ele>532.8</ele>
        <time>2022-02-28T11:29:29Z</time>
      </trkpt>
      <trkpt lat="46.56712" lon="5.74437">
        <ele>532.8</ele>
        <time>2022-02-28T11:29:30Z</time>
      </trkpt>
      <trkpt lat="46.56705" lon="5.74436">
        <ele>532.8</ele>
        <time>2022-02-28T11:29:31Z</time>
      </trkpt>
      <trkpt lat="46.56698" lon="5.74434">
        <ele>532.8</ele>
        <time>2022-02-28T11:29:32Z</time>
      </trkpt>
      <trkpt lat="46.56691" lon="5.74433">
        <ele>532.8</ele>
        <time>2022-02-28T11:29:33Z</time>
      </trkpt>
      <trkpt lat="46.56684" lon="5.74432">
        <ele>533</ele>
        <time>2022-02-28T11:29:34Z</time>
      </trkpt>
      <trkpt lat="46.56677" lon="5.74431">
        <ele>533</ele>
        <time>2022-02-28T11:29:35Z</time>
      </trkpt>
      <trkpt lat="46.5667" lon="5.7443">
        <ele>533</ele>
        <time>2022-02-28T11:29:36Z</time>
      </trkpt>
      <trkpt lat="46.56663" lon="5.74429">
        <ele>533</ele>
        <time>2022-02-28T11:29:37Z</time>
      </trkpt>
      <trkpt lat="46.56656" lon="5.74428">
        <ele>533</ele>
        <time>2022-02-28T11:29:38Z</time>
      </trkpt>
      <trkpt lat="46.56649" lon="5.74427">
        <ele>533.4</ele>
        <time>2022-02-28T11:29:39Z</time>
      </trkpt>
      <trkpt lat="46.56643" lon="5.74426">
        <ele>533.4</ele>
        <time>2022-02-28T11:29:40Z</time>
      </trkpt>
      <trkpt lat="46.56636" lon="5.74425">
        <ele>533.4</ele>
        <time>2022-02-28T11:29:41Z</time>
      </trkpt>
      <trkpt lat="46.56629" lon="5.74424">
        <ele>533.4</ele>
        <time>2022-02-28T11:29:42Z</time>
      </trkpt>
      <trkpt lat="46.56622" lon="5.74423">
        <ele>533.4</ele>
        <time>2022-02-28T11:29:43Z</time>
      </trkpt>
      <trkpt lat="46.56615" lon="5.74422">
        <ele>533.6</ele>
        <time>2022-02-28T11:29:44Z</time>
      </trkpt>
      <trkpt lat="46.56608" lon="5.7442">
        <ele>533.6</ele>
        <time>2022-02-28T11:29:45Z</time>
      </trkpt>
      <trkpt lat="46.56601" lon="5.74419">
        <ele>533.6</ele>
        <time>2022-02-28T11:29:46Z</time>
      </trkpt>
      <trkpt lat="46.56593" lon="5.74418">
        <ele>533.6</ele>
        <time>2022-02-28T11:29:47Z</time>
      </trkpt>
      <trkpt lat="46.56586" lon="5.74417">
        <ele>533.6</ele>
        <time>2022-02-28T11:29:48Z</time>
      </trkpt>
      <trkpt lat="46.56579" lon="5.74416">
        <ele>533.6</ele>
        <time>2022-02-28T11:29:49Z</time>
      </trkpt>
      <trkpt lat="46.56572" lon="5.74416">
        <ele>533.6</ele>
        <time>2022-02-28T11:29:50Z</time>
      </trkpt>
      <trkpt lat="46.56565" lon="5.74415">
        <ele>533.6</ele>
        <time>2022-02-28T11:29:51Z</time>
      </trkpt>
      <trkpt lat="46.56558" lon="5.74414">
        <ele>533.6</ele>
        <time>2022-02-28T11:29:52Z</time>
      </trkpt>
      <trkpt lat="46.56551" lon="5.74413">
        <ele>533.6</ele>
        <time>2022-02-28T11:29:53Z</time>
      </trkpt>
      <trkpt lat="46.56543" lon="5.74412">
        <ele>533.8</ele>
        <time>2022-02-28T11:29:54Z</time>
      </trkpt>
      <trkpt lat="46.56536" lon="5.74411">
        <ele>533.8</ele>
        <time>2022-02-28T11:29:55Z</time>
      </trkpt>
      <trkpt lat="46.56529" lon="5.7441">
        <ele>533.8</ele>
        <time>2022-02-28T11:29:56Z</time>
      </trkpt>
      <trkpt lat="46.56522" lon="5.74409">
        <ele>533.8</ele>
        <time>2022-02-28T11:29:57Z</time>
      </trkpt>
      <trkpt lat="46.56515" lon="5.74408">
        <ele>534</ele>
        <time>2022-02-28T11:29:58Z</time>
      </trkpt>
      <trkpt lat="46.56508" lon="5.74407">
        <ele>534</ele>
        <time>2022-02-28T11:29:59Z</time>
      </trkpt>
      <trkpt lat="46.56501" lon="5.74406">
        <ele>534</ele>
        <time>2022-02-28T11:30:00Z</time>
      </trkpt>
      <trkpt lat="46.56494" lon="5.74405">
        <ele>534</ele>
        <time>2022-02-28T11:30:01Z</time>
      </trkpt>
      <trkpt lat="46.56487" lon="5.74404">
        <ele>534</ele>
        <time>2022-02-28T11:30:02Z</time>
      </trkpt>
      <trkpt lat="46.5648" lon="5.74403">
        <ele>534.2</ele>
        <time>2022-02-28T11:30:03Z</time>
      </trkpt>
      <trkpt lat="46.56473" lon="5.74402">
        <ele>534.2</ele>
        <time>2022-02-28T11:30:04Z</time>
      </trkpt>
      <trkpt lat="46.56466" lon="5.74401">
        <ele>534.2</ele>
        <time>2022-02-28T11:30:05Z</time>
      </trkpt>
      <trkpt lat="46.56459" lon="5.744">
        <ele>534.2</ele>
        <time>2022-02-28T11:30:06Z</time>
      </trkpt>
      <trkpt lat="46.56453" lon="5.74399">
        <ele>534.2</ele>
        <time>2022-02-28T11:30:07Z</time>
      </trkpt>
      <trkpt lat="46.56446" lon="5.74398">
        <ele>534.2</ele>
        <time>2022-02-28T11:30:08Z</time>
      </trkpt>
      <trkpt lat="46.56439" lon="5.74397">
        <ele>534.2</ele>
        <time>2022-02-28T11:30:09Z</time>
      </trkpt>
      <trkpt lat="46.56432" lon="5.74396">
        <ele>534.4</ele>
        <time>2022-02-28T11:30:10Z</time>
      </trkpt>
      <trkpt lat="46.56426" lon="5.74395">
        <ele>534.4</ele>
        <time>2022-02-28T11:30:11Z</time>
      </trkpt>
      <trkpt lat="46.56419" lon="5.74394">
        <ele>534.8</ele>
        <time>2022-02-28T11:30:12Z</time>
      </trkpt>
      <trkpt lat="46.56413" lon="5.74393">
        <ele>535</ele>
        <time>2022-02-28T11:30:13Z</time>
      </trkpt>
      <trkpt lat="46.56406" lon="5.74392">
        <ele>535</ele>
        <time>2022-02-28T11:30:14Z</time>
      </trkpt>
      <trkpt lat="46.56399" lon="5.74391">
        <ele>535.2</ele>
        <time>2022-02-28T11:30:15Z</time>
      </trkpt>
      <trkpt lat="46.56393" lon="5.74391">
        <ele>535.2</ele>
        <time>2022-02-28T11:30:16Z</time>
      </trkpt>
      <trkpt lat="46.56387" lon="5.7439">
        <ele>535.4</ele>
        <time>2022-02-28T11:30:17Z</time>
      </trkpt>
      <trkpt lat="46.5638" lon="5.74389">
        <ele>535.4</ele>
        <time>2022-02-28T11:30:18Z</time>
      </trkpt>
      <trkpt lat="46.56374" lon="5.74388">
        <ele>535.4</ele>
        <time>2022-02-28T11:30:19Z</time>
      </trkpt>
      <trkpt lat="46.56368" lon="5.74387">
        <ele>535.8</ele>
        <time>2022-02-28T11:30:20Z</time>
      </trkpt>
      <trkpt lat="46.56361" lon="5.74386">
        <ele>535.8</ele>
        <time>2022-02-28T11:30:21Z</time>
      </trkpt>
      <trkpt lat="46.56355" lon="5.74385">
        <ele>536.2</ele>
        <time>2022-02-28T11:30:22Z</time>
      </trkpt>
      <trkpt lat="46.56349" lon="5.74384">
        <ele>536.2</ele>
        <time>2022-02-28T11:30:23Z</time>
      </trkpt>
      <trkpt lat="46.56343" lon="5.74383">
        <ele>536.6</ele>
        <time>2022-02-28T11:30:24Z</time>
      </trkpt>
      <trkpt lat="46.56337" lon="5.74382">
        <ele>536.6</ele>
        <time>2022-02-28T11:30:25Z</time>
      </trkpt>
      <trkpt lat="46.56331" lon="5.74382">
        <ele>536.8</ele>
        <time>2022-02-28T11:30:26Z</time>
      </trkpt>
      <trkpt lat="46.56325" lon="5.74381">
        <ele>536.8</ele>
        <time>2022-02-28T11:30:27Z</time>
      </trkpt>
      <trkpt lat="46.56319" lon="5.7438">
        <ele>537</ele>
        <time>2022-02-28T11:30:28Z</time>
      </trkpt>
      <trkpt lat="46.56313" lon="5.7438">
        <ele>537</ele>
        <time>2022-02-28T11:30:29Z</time>
      </trkpt>
      <trkpt lat="46.56307" lon="5.74379">
        <ele>537</ele>
        <time>2022-02-28T11:30:30Z</time>
      </trkpt>
      <trkpt lat="46.56301" lon="5.74379">
        <ele>537.4</ele>
        <time>2022-02-28T11:30:31Z</time>
      </trkpt>
      <trkpt lat="46.56296" lon="5.74379">
        <ele>537.4</ele>
        <time>2022-02-28T11:30:32Z</time>
      </trkpt>
      <trkpt lat="46.5629" lon="5.74379">
        <ele>537.6</ele>
        <time>2022-02-28T11:30:33Z</time>
      </trkpt>
      <trkpt lat="46.56284" lon="5.74379">
        <ele>537.6</ele>
        <time>2022-02-28T11:30:34Z</time>
      </trkpt>
      <trkpt lat="46.56277" lon="5.7438">
        <ele>538</ele>
        <time>2022-02-28T11:30:35Z</time>
      </trkpt>
      <trkpt lat="46.56271" lon="5.7438">
        <ele>538</ele>
        <time>2022-02-28T11:30:36Z</time>
      </trkpt>
      <trkpt lat="46.56265" lon="5.74381">
        <ele>538.2</ele>
        <time>2022-02-28T11:30:37Z</time>
      </trkpt>
      <trkpt lat="46.56259" lon="5.74382">
        <ele>538.2</ele>
        <time>2022-02-28T11:30:38Z</time>
      </trkpt>
      <trkpt lat="46.56253" lon="5.74383">
        <ele>538.6</ele>
        <time>2022-02-28T11:30:39Z</time>
      </trkpt>
      <trkpt lat="46.56247" lon="5.74384">
        <ele>538.6</ele>
        <time>2022-02-28T11:30:40Z</time>
      </trkpt>
      <trkpt lat="46.56242" lon="5.74385">
        <ele>538.8</ele>
        <time>2022-02-28T11:30:41Z</time>
      </trkpt>
      <trkpt lat="46.56236" lon="5.74387">
        <ele>538.8</ele>
        <time>2022-02-28T11:30:42Z</time>
      </trkpt>
      <trkpt lat="46.56224" lon="5.7439">
        <ele>539</ele>
        <time>2022-02-28T11:30:43Z</time>
      </trkpt>
      <trkpt lat="46.56218" lon="5.74392">
        <ele>539</ele>
        <time>2022-02-28T11:30:44Z</time>
      </trkpt>
      <trkpt lat="46.56212" lon="5.74394">
        <ele>539.2</ele>
        <time>2022-02-28T11:30:45Z</time>
      </trkpt>
      <trkpt lat="46.56206" lon="5.74395">
        <ele>539.2</ele>
        <time>2022-02-28T11:30:46Z</time>
      </trkpt>
      <trkpt lat="46.56201" lon="5.74397">
        <ele>539.6</ele>
        <time>2022-02-28T11:30:47Z</time>
      </trkpt>
      <trkpt lat="46.56195" lon="5.74399">
        <ele>539.6</ele>
        <time>2022-02-28T11:30:48Z</time>
      </trkpt>
      <trkpt lat="46.56189" lon="5.74401">
        <ele>539.8</ele>
        <time>2022-02-28T11:30:49Z</time>
      </trkpt>
      <trkpt lat="46.56183" lon="5.74403">
        <ele>539.8</ele>
        <time>2022-02-28T11:30:50Z</time>
      </trkpt>
      <trkpt lat="46.56178" lon="5.74404">
        <ele>540</ele>
        <time>2022-02-28T11:30:51Z</time>
      </trkpt>
      <trkpt lat="46.56172" lon="5.74406">
        <ele>540</ele>
        <time>2022-02-28T11:30:52Z</time>
      </trkpt>
      <trkpt lat="46.56166" lon="5.74408">
        <ele>540.4</ele>
        <time>2022-02-28T11:30:53Z</time>
      </trkpt>
      <trkpt lat="46.56161" lon="5.7441">
        <ele>540.4</ele>
        <time>2022-02-28T11:30:54Z</time>
      </trkpt>
      <trkpt lat="46.56155" lon="5.74412">
        <ele>540.6</ele>
        <time>2022-02-28T11:30:55Z</time>
      </trkpt>
      <trkpt lat="46.5615" lon="5.74414">
        <ele>540.6</ele>
        <time>2022-02-28T11:30:56Z</time>
      </trkpt>
      <trkpt lat="46.56144" lon="5.74415">
        <ele>540.8</ele>
        <time>2022-02-28T11:30:57Z</time>
      </trkpt>
      <trkpt lat="46.56139" lon="5.74417">
        <ele>540.8</ele>
        <time>2022-02-28T11:30:58Z</time>
      </trkpt>
      <trkpt lat="46.56133" lon="5.74419">
        <ele>541</ele>
        <time>2022-02-28T11:30:59Z</time>
      </trkpt>
      <trkpt lat="46.56128" lon="5.74421">
        <ele>541.2</ele>
        <time>2022-02-28T11:31:00Z</time>
      </trkpt>
      <trkpt lat="46.56123" lon="5.74422">
        <ele>541.2</ele>
        <time>2022-02-28T11:31:01Z</time>
      </trkpt>
      <trkpt lat="46.56117" lon="5.74424">
        <ele>541.4</ele>
        <time>2022-02-28T11:31:02Z</time>
      </trkpt>
      <trkpt lat="46.56112" lon="5.74425">
        <ele>541.4</ele>
        <time>2022-02-28T11:31:03Z</time>
      </trkpt>
      <trkpt lat="46.56106" lon="5.74427">
        <ele>541.8</ele>
        <time>2022-02-28T11:31:04Z</time>
      </trkpt>
      <trkpt lat="46.56101" lon="5.74429">
        <ele>541.8</ele>
        <time>2022-02-28T11:31:05Z</time>
      </trkpt>
      <trkpt lat="46.56095" lon="5.7443">
        <ele>542.2</ele>
        <time>2022-02-28T11:31:06Z</time>
      </trkpt>
      <trkpt lat="46.5609" lon="5.74432">
        <ele>542.2</ele>
        <time>2022-02-28T11:31:07Z</time>
      </trkpt>
      <trkpt lat="46.56085" lon="5.74433">
        <ele>542.4</ele>
        <time>2022-02-28T11:31:08Z</time>
      </trkpt>
      <trkpt lat="46.56079" lon="5.74435">
        <ele>542.4</ele>
        <time>2022-02-28T11:31:09Z</time>
      </trkpt>
      <trkpt lat="46.56074" lon="5.74437">
        <ele>542.8</ele>
        <time>2022-02-28T11:31:10Z</time>
      </trkpt>
      <trkpt lat="46.56068" lon="5.74439">
        <ele>542.8</ele>
        <time>2022-02-28T11:31:11Z</time>
      </trkpt>
      <trkpt lat="46.56063" lon="5.7444">
        <ele>543</ele>
        <time>2022-02-28T11:31:12Z</time>
      </trkpt>
      <trkpt lat="46.56058" lon="5.74442">
        <ele>543</ele>
        <time>2022-02-28T11:31:13Z</time>
      </trkpt>
      <trkpt lat="46.56052" lon="5.74444">
        <ele>543.4</ele>
        <time>2022-02-28T11:31:14Z</time>
      </trkpt>
      <trkpt lat="46.56047" lon="5.74445">
        <ele>543.4</ele>
        <time>2022-02-28T11:31:15Z</time>
      </trkpt>
      <trkpt lat="46.56041" lon="5.74447">
        <ele>543.8</ele>
        <time>2022-02-28T11:31:16Z</time>
      </trkpt>
      <trkpt lat="46.56036" lon="5.74449">
        <ele>543.8</ele>
        <time>2022-02-28T11:31:17Z</time>
      </trkpt>
      <trkpt lat="46.5603" lon="5.7445">
        <ele>544.2</ele>
        <time>2022-02-28T11:31:18Z</time>
      </trkpt>
      <trkpt lat="46.56025" lon="5.74452">
        <ele>544.2</ele>
        <time>2022-02-28T11:31:19Z</time>
      </trkpt>
      <trkpt lat="46.56019" lon="5.74453">
        <ele>544.4</ele>
        <time>2022-02-28T11:31:20Z</time>
      </trkpt>
      <trkpt lat="46.56014" lon="5.74455">
        <ele>544.4</ele>
        <time>2022-02-28T11:31:21Z</time>
      </trkpt>
      <trkpt lat="46.56008" lon="5.74457">
        <ele>544.8</ele>
        <time>2022-02-28T11:31:22Z</time>
      </trkpt>
      <trkpt lat="46.56003" lon="5.74458">
        <ele>544.8</ele>
        <time>2022-02-28T11:31:23Z</time>
      </trkpt>
      <trkpt lat="46.55997" lon="5.7446">
        <ele>545</ele>
        <time>2022-02-28T11:31:24Z</time>
      </trkpt>
      <trkpt lat="46.55991" lon="5.74462">
        <ele>545</ele>
        <time>2022-02-28T11:31:25Z</time>
      </trkpt>
      <trkpt lat="46.55986" lon="5.74463">
        <ele>545.4</ele>
        <time>2022-02-28T11:31:26Z</time>
      </trkpt>
      <trkpt lat="46.5598" lon="5.74465">
        <ele>545.6</ele>
        <time>2022-02-28T11:31:27Z</time>
      </trkpt>
      <trkpt lat="46.55975" lon="5.74466">
        <ele>545.6</ele>
        <time>2022-02-28T11:31:28Z</time>
      </trkpt>
      <trkpt lat="46.55969" lon="5.74468">
        <ele>546</ele>
        <time>2022-02-28T11:31:29Z</time>
      </trkpt>
      <trkpt lat="46.55963" lon="5.7447">
        <ele>546</ele>
        <time>2022-02-28T11:31:30Z</time>
      </trkpt>
      <trkpt lat="46.55958" lon="5.74472">
        <ele>546.2</ele>
        <time>2022-02-28T11:31:31Z</time>
      </trkpt>
      <trkpt lat="46.55952" lon="5.74473">
        <ele>546.4</ele>
        <time>2022-02-28T11:31:32Z</time>
      </trkpt>
      <trkpt lat="46.55947" lon="5.74475">
        <ele>546.6</ele>
        <time>2022-02-28T11:31:33Z</time>
      </trkpt>
      <trkpt lat="46.55942" lon="5.74477">
        <ele>546.6</ele>
        <time>2022-02-28T11:31:34Z</time>
      </trkpt>
      <trkpt lat="46.55936" lon="5.74479">
        <ele>547</ele>
        <time>2022-02-28T11:31:35Z</time>
      </trkpt>
      <trkpt lat="46.5593" lon="5.7448">
        <ele>547</ele>
        <time>2022-02-28T11:31:36Z</time>
      </trkpt>
      <trkpt lat="46.55925" lon="5.74482">
        <ele>547.2</ele>
        <time>2022-02-28T11:31:37Z</time>
      </trkpt>
      <trkpt lat="46.55919" lon="5.74483">
        <ele>547.2</ele>
        <time>2022-02-28T11:31:38Z</time>
      </trkpt>
      <trkpt lat="46.55914" lon="5.74485">
        <ele>547.6</ele>
        <time>2022-02-28T11:31:39Z</time>
      </trkpt>
      <trkpt lat="46.55908" lon="5.74486">
        <ele>547.6</ele>
        <time>2022-02-28T11:31:40Z</time>
      </trkpt>
      <trkpt lat="46.55902" lon="5.74488">
        <ele>547.6</ele>
        <time>2022-02-28T11:31:41Z</time>
      </trkpt>
      <trkpt lat="46.55896" lon="5.74489">
        <ele>548</ele>
        <time>2022-02-28T11:31:42Z</time>
      </trkpt>
      <trkpt lat="46.5589" lon="5.74491">
        <ele>548</ele>
        <time>2022-02-28T11:31:43Z</time>
      </trkpt>
      <trkpt lat="46.55884" lon="5.74493">
        <ele>548</ele>
        <time>2022-02-28T11:31:44Z</time>
      </trkpt>
      <trkpt lat="46.55878" lon="5.74494">
        <ele>548.2</ele>
        <time>2022-02-28T11:31:45Z</time>
      </trkpt>
      <trkpt lat="46.55872" lon="5.74495">
        <ele>548.2</ele>
        <time>2022-02-28T11:31:46Z</time>
      </trkpt>
      <trkpt lat="46.55865" lon="5.74496">
        <ele>548.2</ele>
        <time>2022-02-28T11:31:47Z</time>
      </trkpt>
      <trkpt lat="46.55859" lon="5.74497">
        <ele>548.2</ele>
        <time>2022-02-28T11:31:48Z</time>
      </trkpt>
      <trkpt lat="46.55852" lon="5.74497">
        <ele>548.2</ele>
        <time>2022-02-28T11:31:49Z</time>
      </trkpt>
      <trkpt lat="46.55845" lon="5.74497">
        <ele>548.2</ele>
        <time>2022-02-28T11:31:50Z</time>
      </trkpt>
      <trkpt lat="46.55838" lon="5.74497">
        <ele>548.2</ele>
        <time>2022-02-28T11:31:51Z</time>
      </trkpt>
      <trkpt lat="46.55831" lon="5.74497">
        <ele>548.4</ele>
        <time>2022-02-28T11:31:52Z</time>
      </trkpt>
      <trkpt lat="46.55824" lon="5.74497">
        <ele>548.4</ele>
        <time>2022-02-28T11:31:53Z</time>
      </trkpt>
      <trkpt lat="46.55817" lon="5.74496">
        <ele>548.4</ele>
        <time>2022-02-28T11:31:54Z</time>
      </trkpt>
      <trkpt lat="46.5581" lon="5.74496">
        <ele>548.4</ele>
        <time>2022-02-28T11:31:55Z</time>
      </trkpt>
      <trkpt lat="46.55803" lon="5.74496">
        <ele>548.4</ele>
        <time>2022-02-28T11:31:56Z</time>
      </trkpt>
      <trkpt lat="46.55796" lon="5.74495">
        <ele>548.4</ele>
        <time>2022-02-28T11:31:57Z</time>
      </trkpt>
      <trkpt lat="46.55789" lon="5.74494">
        <ele>548.4</ele>
        <time>2022-02-28T11:31:58Z</time>
      </trkpt>
      <trkpt lat="46.55782" lon="5.74493">
        <ele>548.6</ele>
        <time>2022-02-28T11:31:59Z</time>
      </trkpt>
      <trkpt lat="46.55775" lon="5.74493">
        <ele>548.6</ele>
        <time>2022-02-28T11:32:00Z</time>
      </trkpt>
      <trkpt lat="46.55768" lon="5.74493">
        <ele>548.6</ele>
        <time>2022-02-28T11:32:01Z</time>
      </trkpt>
      <trkpt lat="46.55761" lon="5.74492">
        <ele>548.6</ele>
        <time>2022-02-28T11:32:02Z</time>
      </trkpt>
      <trkpt lat="46.55754" lon="5.74491">
        <ele>548.8</ele>
        <time>2022-02-28T11:32:03Z</time>
      </trkpt>
      <trkpt lat="46.55747" lon="5.74491">
        <ele>548.8</ele>
        <time>2022-02-28T11:32:04Z</time>
      </trkpt>
      <trkpt lat="46.5574" lon="5.7449">
        <ele>548.8</ele>
        <time>2022-02-28T11:32:05Z</time>
      </trkpt>
      <trkpt lat="46.55733" lon="5.7449">
        <ele>548.8</ele>
        <time>2022-02-28T11:32:06Z</time>
      </trkpt>
      <trkpt lat="46.55726" lon="5.74489">
        <ele>548.8</ele>
        <time>2022-02-28T11:32:07Z</time>
      </trkpt>
      <trkpt lat="46.55719" lon="5.74488">
        <ele>549.2</ele>
        <time>2022-02-28T11:32:08Z</time>
      </trkpt>
      <trkpt lat="46.55712" lon="5.74488">
        <ele>549.2</ele>
        <time>2022-02-28T11:32:09Z</time>
      </trkpt>
      <trkpt lat="46.55706" lon="5.74487">
        <ele>549.4</ele>
        <time>2022-02-28T11:32:10Z</time>
      </trkpt>
      <trkpt lat="46.55699" lon="5.74486">
        <ele>549.4</ele>
        <time>2022-02-28T11:32:11Z</time>
      </trkpt>
      <trkpt lat="46.55692" lon="5.74486">
        <ele>549.4</ele>
        <time>2022-02-28T11:32:12Z</time>
      </trkpt>
      <trkpt lat="46.55686" lon="5.74485">
        <ele>549.6</ele>
        <time>2022-02-28T11:32:13Z</time>
      </trkpt>
      <trkpt lat="46.55679" lon="5.74485">
        <ele>549.6</ele>
        <time>2022-02-28T11:32:14Z</time>
      </trkpt>
      <trkpt lat="46.55673" lon="5.74484">
        <ele>549.6</ele>
        <time>2022-02-28T11:32:15Z</time>
      </trkpt>
      <trkpt lat="46.55673" lon="5.74484">
        <ele>549.8</ele>
        <time>2022-02-28T11:32:16Z</time>
      </trkpt>
      <trkpt lat="46.55666" lon="5.74483">
        <ele>549.8</ele>
        <time>2022-02-28T11:32:17Z</time>
      </trkpt>
      <trkpt lat="46.5566" lon="5.74483">
        <ele>550.2</ele>
        <time>2022-02-28T11:32:18Z</time>
      </trkpt>
      <trkpt lat="46.55653" lon="5.74483">
        <ele>550.2</ele>
        <time>2022-02-28T11:32:19Z</time>
      </trkpt>
      <trkpt lat="46.55647" lon="5.74482">
        <ele>550.4</ele>
        <time>2022-02-28T11:32:20Z</time>
      </trkpt>
      <trkpt lat="46.5564" lon="5.74482">
        <ele>550.4</ele>
        <time>2022-02-28T11:32:21Z</time>
      </trkpt>
      <trkpt lat="46.55634" lon="5.74482">
        <ele>550.6</ele>
        <time>2022-02-28T11:32:22Z</time>
      </trkpt>
      <trkpt lat="46.55627" lon="5.74482">
        <ele>550.6</ele>
        <time>2022-02-28T11:32:23Z</time>
      </trkpt>
      <trkpt lat="46.55621" lon="5.74482">
        <ele>551</ele>
        <time>2022-02-28T11:32:24Z</time>
      </trkpt>
      <trkpt lat="46.55615" lon="5.74482">
        <ele>551</ele>
        <time>2022-02-28T11:32:25Z</time>
      </trkpt>
      <trkpt lat="46.55609" lon="5.74483">
        <ele>551.4</ele>
        <time>2022-02-28T11:32:26Z</time>
      </trkpt>
      <trkpt lat="46.55602" lon="5.74484">
        <ele>551.4</ele>
        <time>2022-02-28T11:32:27Z</time>
      </trkpt>
      <trkpt lat="46.55596" lon="5.74485">
        <ele>551.6</ele>
        <time>2022-02-28T11:32:28Z</time>
      </trkpt>
      <trkpt lat="46.5559" lon="5.74486">
        <ele>551.6</ele>
        <time>2022-02-28T11:32:29Z</time>
      </trkpt>
      <trkpt lat="46.55584" lon="5.74487">
        <ele>551.6</ele>
        <time>2022-02-28T11:32:30Z</time>
      </trkpt>
      <trkpt lat="46.55578" lon="5.74489">
        <ele>552</ele>
        <time>2022-02-28T11:32:31Z</time>
      </trkpt>
      <trkpt lat="46.55572" lon="5.7449">
        <ele>552</ele>
        <time>2022-02-28T11:32:32Z</time>
      </trkpt>
      <trkpt lat="46.55566" lon="5.74492">
        <ele>552.2</ele>
        <time>2022-02-28T11:32:33Z</time>
      </trkpt>
      <trkpt lat="46.5556" lon="5.74494">
        <ele>552.2</ele>
        <time>2022-02-28T11:32:34Z</time>
      </trkpt>
      <trkpt lat="46.55554" lon="5.74496">
        <ele>552.4</ele>
        <time>2022-02-28T11:32:35Z</time>
      </trkpt>
      <trkpt lat="46.55548" lon="5.74498">
        <ele>552.4</ele>
        <time>2022-02-28T11:32:36Z</time>
      </trkpt>
      <trkpt lat="46.55542" lon="5.745">
        <ele>552.8</ele>
        <time>2022-02-28T11:32:37Z</time>
      </trkpt>
      <trkpt lat="46.55536" lon="5.74502">
        <ele>552.8</ele>
        <time>2022-02-28T11:32:38Z</time>
      </trkpt>
      <trkpt lat="46.5553" lon="5.74504">
        <ele>553</ele>
        <time>2022-02-28T11:32:39Z</time>
      </trkpt>
      <trkpt lat="46.55524" lon="5.74506">
        <ele>553</ele>
        <time>2022-02-28T11:32:40Z</time>
      </trkpt>
      <trkpt lat="46.55518" lon="5.74509">
        <ele>553.2</ele>
        <time>2022-02-28T11:32:41Z</time>
      </trkpt>
      <trkpt lat="46.55511" lon="5.74511">
        <ele>553.2</ele>
        <time>2022-02-28T11:32:42Z</time>
      </trkpt>
      <trkpt lat="46.55505" lon="5.74513">
        <ele>553.2</ele>
        <time>2022-02-28T11:32:43Z</time>
      </trkpt>
      <trkpt lat="46.55499" lon="5.74515">
        <ele>553.4</ele>
        <time>2022-02-28T11:32:44Z</time>
      </trkpt>
      <trkpt lat="46.55493" lon="5.74517">
        <ele>553.4</ele>
        <time>2022-02-28T11:32:45Z</time>
      </trkpt>
      <trkpt lat="46.55487" lon="5.74519">
        <ele>553.4</ele>
        <time>2022-02-28T11:32:46Z</time>
      </trkpt>
      <trkpt lat="46.55481" lon="5.74521">
        <ele>553.6</ele>
        <time>2022-02-28T11:32:47Z</time>
      </trkpt>
      <trkpt lat="46.55475" lon="5.74523">
        <ele>553.6</ele>
        <time>2022-02-28T11:32:48Z</time>
      </trkpt>
      <trkpt lat="46.5547" lon="5.74525">
        <ele>553.6</ele>
        <time>2022-02-28T11:32:49Z</time>
      </trkpt>
      <trkpt lat="46.55464" lon="5.74526">
        <ele>553.6</ele>
        <time>2022-02-28T11:32:50Z</time>
      </trkpt>
      <trkpt lat="46.55458" lon="5.74527">
        <ele>553.6</ele>
        <time>2022-02-28T11:32:51Z</time>
      </trkpt>
      <trkpt lat="46.55452" lon="5.74529">
        <ele>554</ele>
        <time>2022-02-28T11:32:52Z</time>
      </trkpt>
      <trkpt lat="46.55446" lon="5.7453">
        <ele>554</ele>
        <time>2022-02-28T11:32:53Z</time>
      </trkpt>
      <trkpt lat="46.5544" lon="5.74531">
        <ele>554</ele>
        <time>2022-02-28T11:32:54Z</time>
      </trkpt>
      <trkpt lat="46.55434" lon="5.74532">
        <ele>554.2</ele>
        <time>2022-02-28T11:32:55Z</time>
      </trkpt>
      <trkpt lat="46.55428" lon="5.74533">
        <ele>554.2</ele>
        <time>2022-02-28T11:32:56Z</time>
      </trkpt>
      <trkpt lat="46.55422" lon="5.74534">
        <ele>554.2</ele>
        <time>2022-02-28T11:32:57Z</time>
      </trkpt>
      <trkpt lat="46.55416" lon="5.74534">
        <ele>554.2</ele>
        <time>2022-02-28T11:32:58Z</time>
      </trkpt>
      <trkpt lat="46.5541" lon="5.74534">
        <ele>554.6</ele>
        <time>2022-02-28T11:32:59Z</time>
      </trkpt>
      <trkpt lat="46.55404" lon="5.74535">
        <ele>554.6</ele>
        <time>2022-02-28T11:33:00Z</time>
      </trkpt>
      <trkpt lat="46.55398" lon="5.74536">
        <ele>554.6</ele>
        <time>2022-02-28T11:33:01Z</time>
      </trkpt>
      <trkpt lat="46.55392" lon="5.74536">
        <ele>554.8</ele>
        <time>2022-02-28T11:33:02Z</time>
      </trkpt>
      <trkpt lat="46.55386" lon="5.74536">
        <ele>554.8</ele>
        <time>2022-02-28T11:33:03Z</time>
      </trkpt>
      <trkpt lat="46.5538" lon="5.74536">
        <ele>555</ele>
        <time>2022-02-28T11:33:04Z</time>
      </trkpt>
      <trkpt lat="46.55374" lon="5.74536">
        <ele>555</ele>
        <time>2022-02-28T11:33:05Z</time>
      </trkpt>
      <trkpt lat="46.55368" lon="5.74535">
        <ele>555</ele>
        <time>2022-02-28T11:33:06Z</time>
      </trkpt>
      <trkpt lat="46.55362" lon="5.74534">
        <ele>555</ele>
        <time>2022-02-28T11:33:07Z</time>
      </trkpt>
      <trkpt lat="46.55356" lon="5.74534">
        <ele>555.4</ele>
        <time>2022-02-28T11:33:08Z</time>
      </trkpt>
      <trkpt lat="46.5535" lon="5.74533">
        <ele>555.4</ele>
        <time>2022-02-28T11:33:09Z</time>
      </trkpt>
      <trkpt lat="46.55344" lon="5.74532">
        <ele>555.4</ele>
        <time>2022-02-28T11:33:10Z</time>
      </trkpt>
      <trkpt lat="46.55338" lon="5.74531">
        <ele>555.6</ele>
        <time>2022-02-28T11:33:11Z</time>
      </trkpt>
      <trkpt lat="46.55332" lon="5.7453">
        <ele>555.6</ele>
        <time>2022-02-28T11:33:12Z</time>
      </trkpt>
      <trkpt lat="46.55326" lon="5.74529">
        <ele>555.6</ele>
        <time>2022-02-28T11:33:13Z</time>
      </trkpt>
      <trkpt lat="46.5532" lon="5.74528">
        <ele>555.8</ele>
        <time>2022-02-28T11:33:14Z</time>
      </trkpt>
      <trkpt lat="46.55314" lon="5.74526">
        <ele>555.8</ele>
        <time>2022-02-28T11:33:15Z</time>
      </trkpt>
      <trkpt lat="46.55308" lon="5.74525">
        <ele>555.8</ele>
        <time>2022-02-28T11:33:16Z</time>
      </trkpt>
      <trkpt lat="46.55302" lon="5.74523">
        <ele>556.2</ele>
        <time>2022-02-28T11:33:17Z</time>
      </trkpt>
      <trkpt lat="46.55297" lon="5.74522">
        <ele>556.2</ele>
        <time>2022-02-28T11:33:18Z</time>
      </trkpt>
      <trkpt lat="46.55291" lon="5.7452">
        <ele>556.4</ele>
        <time>2022-02-28T11:33:19Z</time>
      </trkpt>
      <trkpt lat="46.55285" lon="5.74518">
        <ele>556.6</ele>
        <time>2022-02-28T11:33:20Z</time>
      </trkpt>
      <trkpt lat="46.5528" lon="5.74516">
        <ele>556.6</ele>
        <time>2022-02-28T11:33:21Z</time>
      </trkpt>
      <trkpt lat="46.55274" lon="5.74515">
        <ele>557</ele>
        <time>2022-02-28T11:33:22Z</time>
      </trkpt>
      <trkpt lat="46.55269" lon="5.74513">
        <ele>557.2</ele>
        <time>2022-02-28T11:33:23Z</time>
      </trkpt>
      <trkpt lat="46.55264" lon="5.74511">
        <ele>557.2</ele>
        <time>2022-02-28T11:33:24Z</time>
      </trkpt>
      <trkpt lat="46.55258" lon="5.74509">
        <ele>557.4</ele>
        <time>2022-02-28T11:33:25Z</time>
      </trkpt>
      <trkpt lat="46.55253" lon="5.74508">
        <ele>557.4</ele>
        <time>2022-02-28T11:33:26Z</time>
      </trkpt>
      <trkpt lat="46.55248" lon="5.74506">
        <ele>557.6</ele>
        <time>2022-02-28T11:33:27Z</time>
      </trkpt>
      <trkpt lat="46.55243" lon="5.74505">
        <ele>557.6</ele>
        <time>2022-02-28T11:33:28Z</time>
      </trkpt>
      <trkpt lat="46.55238" lon="5.74503">
        <ele>558.2</ele>
        <time>2022-02-28T11:33:29Z</time>
      </trkpt>
      <trkpt lat="46.55233" lon="5.74501">
        <ele>558.2</ele>
        <time>2022-02-28T11:33:30Z</time>
      </trkpt>
      <trkpt lat="46.55227" lon="5.745">
        <ele>558.4</ele>
        <time>2022-02-28T11:33:31Z</time>
      </trkpt>
      <trkpt lat="46.55222" lon="5.74498">
        <ele>558.4</ele>
        <time>2022-02-28T11:33:32Z</time>
      </trkpt>
      <trkpt lat="46.55217" lon="5.74497">
        <ele>558.6</ele>
        <time>2022-02-28T11:33:33Z</time>
      </trkpt>
      <trkpt lat="46.55212" lon="5.74495">
        <ele>558.6</ele>
        <time>2022-02-28T11:33:34Z</time>
      </trkpt>
      <trkpt lat="46.55207" lon="5.74493">
        <ele>559</ele>
        <time>2022-02-28T11:33:35Z</time>
      </trkpt>
      <trkpt lat="46.55202" lon="5.74492">
        <ele>559</ele>
        <time>2022-02-28T11:33:36Z</time>
      </trkpt>
      <trkpt lat="46.55197" lon="5.7449">
        <ele>559.4</ele>
        <time>2022-02-28T11:33:37Z</time>
      </trkpt>
      <trkpt lat="46.55192" lon="5.74489">
        <ele>559.4</ele>
        <time>2022-02-28T11:33:38Z</time>
      </trkpt>
      <trkpt lat="46.55186" lon="5.74487">
        <ele>559.8</ele>
        <time>2022-02-28T11:33:39Z</time>
      </trkpt>
      <trkpt lat="46.55182" lon="5.74485">
        <ele>559.8</ele>
        <time>2022-02-28T11:33:40Z</time>
      </trkpt>
      <trkpt lat="46.55177" lon="5.74484">
        <ele>560</ele>
        <time>2022-02-28T11:33:41Z</time>
      </trkpt>
      <trkpt lat="46.55172" lon="5.74482">
        <ele>560</ele>
        <time>2022-02-28T11:33:42Z</time>
      </trkpt>
      <trkpt lat="46.55168" lon="5.74481">
        <ele>560.4</ele>
        <time>2022-02-28T11:33:43Z</time>
      </trkpt>
      <trkpt lat="46.55163" lon="5.74479">
        <ele>560.6</ele>
        <time>2022-02-28T11:33:44Z</time>
      </trkpt>
      <trkpt lat="46.55158" lon="5.74478">
        <ele>560.8</ele>
        <time>2022-02-28T11:33:45Z</time>
      </trkpt>
      <trkpt lat="46.55154" lon="5.74476">
        <ele>560.8</ele>
        <time>2022-02-28T11:33:46Z</time>
      </trkpt>
      <trkpt lat="46.55149" lon="5.74475">
        <ele>561</ele>
        <time>2022-02-28T11:33:47Z</time>
      </trkpt>
      <trkpt lat="46.55145" lon="5.74474">
        <ele>561</ele>
        <time>2022-02-28T11:33:48Z</time>
      </trkpt>
      <trkpt lat="46.5514" lon="5.74473">
        <ele>561.4</ele>
        <time>2022-02-28T11:33:49Z</time>
      </trkpt>
      <trkpt lat="46.55135" lon="5.74472">
        <ele>561.4</ele>
        <time>2022-02-28T11:33:50Z</time>
      </trkpt>
      <trkpt lat="46.55131" lon="5.74471">
        <ele>561.6</ele>
        <time>2022-02-28T11:33:51Z</time>
      </trkpt>
      <trkpt lat="46.55126" lon="5.7447">
        <ele>561.6</ele>
        <time>2022-02-28T11:33:52Z</time>
      </trkpt>
      <trkpt lat="46.55122" lon="5.74469">
        <ele>562</ele>
        <time>2022-02-28T11:33:53Z</time>
      </trkpt>
      <trkpt lat="46.55117" lon="5.74468">
        <ele>562</ele>
        <time>2022-02-28T11:33:54Z</time>
      </trkpt>
      <trkpt lat="46.55113" lon="5.74467">
        <ele>562.4</ele>
        <time>2022-02-28T11:33:55Z</time>
      </trkpt>
      <trkpt lat="46.55108" lon="5.74467">
        <ele>562.4</ele>
        <time>2022-02-28T11:33:56Z</time>
      </trkpt>
      <trkpt lat="46.55104" lon="5.74466">
        <ele>562.6</ele>
        <time>2022-02-28T11:33:57Z</time>
      </trkpt>
      <trkpt lat="46.55099" lon="5.74466">
        <ele>562.6</ele>
        <time>2022-02-28T11:33:58Z</time>
      </trkpt>
      <trkpt lat="46.55095" lon="5.74466">
        <ele>563</ele>
        <time>2022-02-28T11:33:59Z</time>
      </trkpt>
      <trkpt lat="46.5509" lon="5.74465">
        <ele>563.2</ele>
        <time>2022-02-28T11:34:00Z</time>
      </trkpt>
      <trkpt lat="46.55086" lon="5.74465">
        <ele>563.2</ele>
        <time>2022-02-28T11:34:01Z</time>
      </trkpt>
      <trkpt lat="46.55081" lon="5.74465">
        <ele>563.6</ele>
        <time>2022-02-28T11:34:02Z</time>
      </trkpt>
      <trkpt lat="46.55077" lon="5.74465">
        <ele>563.6</ele>
        <time>2022-02-28T11:34:03Z</time>
      </trkpt>
      <trkpt lat="46.55072" lon="5.74466">
        <ele>564</ele>
        <time>2022-02-28T11:34:04Z</time>
      </trkpt>
      <trkpt lat="46.55068" lon="5.74466">
        <ele>564</ele>
        <time>2022-02-28T11:34:05Z</time>
      </trkpt>
      <trkpt lat="46.55064" lon="5.74467">
        <ele>564.2</ele>
        <time>2022-02-28T11:34:06Z</time>
      </trkpt>
      <trkpt lat="46.5506" lon="5.74468">
        <ele>564.2</ele>
        <time>2022-02-28T11:34:07Z</time>
      </trkpt>
      <trkpt lat="46.55056" lon="5.7447">
        <ele>564.4</ele>
        <time>2022-02-28T11:34:08Z</time>
      </trkpt>
      <trkpt lat="46.55051" lon="5.74472">
        <ele>564.4</ele>
        <time>2022-02-28T11:34:09Z</time>
      </trkpt>
      <trkpt lat="46.55047" lon="5.74474">
        <ele>564.8</ele>
        <time>2022-02-28T11:34:10Z</time>
      </trkpt>
      <trkpt lat="46.55043" lon="5.74476">
        <ele>564.8</ele>
        <time>2022-02-28T11:34:11Z</time>
      </trkpt>
      <trkpt lat="46.55039" lon="5.74478">
        <ele>565.2</ele>
        <time>2022-02-28T11:34:12Z</time>
      </trkpt>
      <trkpt lat="46.55035" lon="5.7448">
        <ele>565.2</ele>
        <time>2022-02-28T11:34:13Z</time>
      </trkpt>
      <trkpt lat="46.55031" lon="5.74482">
        <ele>565.6</ele>
        <time>2022-02-28T11:34:14Z</time>
      </trkpt>
      <trkpt lat="46.55028" lon="5.74485">
        <ele>565.6</ele>
        <time>2022-02-28T11:34:15Z</time>
      </trkpt>
      <trkpt lat="46.55024" lon="5.74488">
        <ele>565.8</ele>
        <time>2022-02-28T11:34:16Z</time>
      </trkpt>
      <trkpt lat="46.5502" lon="5.7449">
        <ele>565.8</ele>
        <time>2022-02-28T11:34:17Z</time>
      </trkpt>
      <trkpt lat="46.55017" lon="5.74493">
        <ele>566.2</ele>
        <time>2022-02-28T11:34:18Z</time>
      </trkpt>
      <trkpt lat="46.55013" lon="5.74496">
        <ele>566.2</ele>
        <time>2022-02-28T11:34:19Z</time>
      </trkpt>
      <trkpt lat="46.5501" lon="5.74499">
        <ele>566.4</ele>
        <time>2022-02-28T11:34:20Z</time>
      </trkpt>
      <trkpt lat="46.55006" lon="5.74502">
        <ele>566.4</ele>
        <time>2022-02-28T11:34:21Z</time>
      </trkpt>
      <trkpt lat="46.55003" lon="5.74504">
        <ele>566.6</ele>
        <time>2022-02-28T11:34:22Z</time>
      </trkpt>
      <trkpt lat="46.55" lon="5.74507">
        <ele>566.6</ele>
        <time>2022-02-28T11:34:23Z</time>
      </trkpt>
      <trkpt lat="46.54996" lon="5.7451">
        <ele>566.8</ele>
        <time>2022-02-28T11:34:24Z</time>
      </trkpt>
      <trkpt lat="46.54993" lon="5.74511">
        <ele>566.8</ele>
        <time>2022-02-28T11:34:25Z</time>
      </trkpt>
      <trkpt lat="46.5499" lon="5.74513">
        <ele>566.8</ele>
        <time>2022-02-28T11:34:26Z</time>
      </trkpt>
      <trkpt lat="46.54988" lon="5.74515">
        <ele>567</ele>
        <time>2022-02-28T11:34:27Z</time>
      </trkpt>
      <trkpt lat="46.54986" lon="5.74516">
        <ele>567</ele>
        <time>2022-02-28T11:34:28Z</time>
      </trkpt>
      <trkpt lat="46.54986" lon="5.74517">
        <ele>567.4</ele>
        <time>2022-02-28T11:34:29Z</time>
      </trkpt>
      <trkpt lat="46.54985" lon="5.74518">
        <ele>567.4</ele>
        <time>2022-02-28T11:34:30Z</time>
      </trkpt>
      <trkpt lat="46.54985" lon="5.74518">
        <ele>567.4</ele>
        <time>2022-02-28T11:34:31Z</time>
      </trkpt>
      <trkpt lat="46.54985" lon="5.74518">
        <ele>567.6</ele>
        <time>2022-02-28T11:34:33Z</time>
      </trkpt>
      <trkpt lat="46.54985" lon="5.74518">
        <ele>567.6</ele>
        <time>2022-02-28T11:34:34Z</time>
      </trkpt>
      <trkpt lat="46.54985" lon="5.74518">
        <ele>567.6</ele>
        <time>2022-02-28T11:34:35Z</time>
      </trkpt>
      <trkpt lat="46.54985" lon="5.74518">
        <ele>567.6</ele>
        <time>2022-02-28T11:34:36Z</time>
      </trkpt>
      <trkpt lat="46.54985" lon="5.74518">
        <ele>567.6</ele>
        <time>2022-02-28T11:34:37Z</time>
      </trkpt>
      <trkpt lat="46.54985" lon="5.74518">
        <ele>567.6</ele>
        <time>2022-02-28T11:34:38Z</time>
      </trkpt>
      <trkpt lat="46.54985" lon="5.74518">
        <ele>568</ele>
        <time>2022-02-28T11:35:30Z</time>
      </trkpt>
      <trkpt lat="46.54985" lon="5.74518">
        <ele>568</ele>
        <time>2022-02-28T11:35:31Z</time>
      </trkpt>
      <trkpt lat="46.54985" lon="5.74518">
        <ele>568</ele>
        <time>2022-02-28T11:35:32Z</time>
      </trkpt>
      <trkpt lat="46.54985" lon="5.74518">
        <ele>568</ele>
        <time>2022-02-28T11:35:33Z</time>
      </trkpt>
      <trkpt lat="46.54984" lon="5.74519">
        <ele>568</ele>
        <time>2022-02-28T11:35:34Z</time>
      </trkpt>
      <trkpt lat="46.54982" lon="5.74521">
        <ele>568.4</ele>
        <time>2022-02-28T11:35:35Z</time>
      </trkpt>
      <trkpt lat="46.54981" lon="5.74523">
        <ele>568.4</ele>
        <time>2022-02-28T11:35:36Z</time>
      </trkpt>
      <trkpt lat="46.54979" lon="5.74525">
        <ele>568.4</ele>
        <time>2022-02-28T11:35:37Z</time>
      </trkpt>
      <trkpt lat="46.54977" lon="5.74527">
        <ele>568.4</ele>
        <time>2022-02-28T11:35:38Z</time>
      </trkpt>
      <trkpt lat="46.54975" lon="5.7453">
        <ele>568.4</ele>
        <time>2022-02-28T11:35:39Z</time>
      </trkpt>
      <trkpt lat="46.54972" lon="5.74533">
        <ele>568.4</ele>
        <time>2022-02-28T11:35:40Z</time>
      </trkpt>
      <trkpt lat="46.54969" lon="5.74536">
        <ele>568.4</ele>
        <time>2022-02-28T11:35:41Z</time>
      </trkpt>
      <trkpt lat="46.54966" lon="5.7454">
        <ele>568.4</ele>
        <time>2022-02-28T11:35:42Z</time>
      </trkpt>
      <trkpt lat="46.54963" lon="5.74543">
        <ele>568.4</ele>
        <time>2022-02-28T11:35:43Z</time>
      </trkpt>
      <trkpt lat="46.54959" lon="5.74547">
        <ele>568.6</ele>
        <time>2022-02-28T11:35:44Z</time>
      </trkpt>
      <trkpt lat="46.54956" lon="5.74551">
        <ele>568.6</ele>
        <time>2022-02-28T11:35:45Z</time>
      </trkpt>
      <trkpt lat="46.54952" lon="5.74555">
        <ele>568.6</ele>
        <time>2022-02-28T11:35:46Z</time>
      </trkpt>
      <trkpt lat="46.54949" lon="5.74559">
        <ele>568.8</ele>
        <time>2022-02-28T11:35:47Z</time>
      </trkpt>
      <trkpt lat="46.54946" lon="5.74563">
        <ele>568.8</ele>
        <time>2022-02-28T11:35:48Z</time>
      </trkpt>
      <trkpt lat="46.54942" lon="5.74567">
        <ele>568.8</ele>
        <time>2022-02-28T11:35:49Z</time>
      </trkpt>
      <trkpt lat="46.54939" lon="5.74571">
        <ele>569</ele>
        <time>2022-02-28T11:35:50Z</time>
      </trkpt>
      <trkpt lat="46.54936" lon="5.74575">
        <ele>569</ele>
        <time>2022-02-28T11:35:51Z</time>
      </trkpt>
      <trkpt lat="46.54932" lon="5.74579">
        <ele>569</ele>
        <time>2022-02-28T11:35:52Z</time>
      </trkpt>
      <trkpt lat="46.54928" lon="5.74583">
        <ele>569</ele>
        <time>2022-02-28T11:35:53Z</time>
      </trkpt>
      <trkpt lat="46.54925" lon="5.74587">
        <ele>569.4</ele>
        <time>2022-02-28T11:35:54Z</time>
      </trkpt>
      <trkpt lat="46.54921" lon="5.74591">
        <ele>569.4</ele>
        <time>2022-02-28T11:35:55Z</time>
      </trkpt>
      <trkpt lat="46.54917" lon="5.74595">
        <ele>569.6</ele>
        <time>2022-02-28T11:35:56Z</time>
      </trkpt>
      <trkpt lat="46.54913" lon="5.74599">
        <ele>569.6</ele>
        <time>2022-02-28T11:35:57Z</time>
      </trkpt>
      <trkpt lat="46.54909" lon="5.74603">
        <ele>569.8</ele>
        <time>2022-02-28T11:35:58Z</time>
      </trkpt>
      <trkpt lat="46.54905" lon="5.74606">
        <ele>569.8</ele>
        <time>2022-02-28T11:35:59Z</time>
      </trkpt>
      <trkpt lat="46.549" lon="5.7461">
        <ele>569.8</ele>
        <time>2022-02-28T11:36:00Z</time>
      </trkpt>
      <trkpt lat="46.54896" lon="5.74614">
        <ele>570.2</ele>
        <time>2022-02-28T11:36:01Z</time>
      </trkpt>
      <trkpt lat="46.54892" lon="5.74617">
        <ele>570.2</ele>
        <time>2022-02-28T11:36:02Z</time>
      </trkpt>
      <trkpt lat="46.54887" lon="5.74621">
        <ele>570.2</ele>
        <time>2022-02-28T11:36:03Z</time>
      </trkpt>
      <trkpt lat="46.54882" lon="5.74624">
        <ele>570.4</ele>
        <time>2022-02-28T11:36:04Z</time>
      </trkpt>
      <trkpt lat="46.54878" lon="5.74627">
        <ele>570.4</ele>
        <time>2022-02-28T11:36:05Z</time>
      </trkpt>
      <trkpt lat="46.54874" lon="5.7463">
        <ele>570.8</ele>
        <time>2022-02-28T11:36:06Z</time>
      </trkpt>
      <trkpt lat="46.54869" lon="5.74633">
        <ele>570.8</ele>
        <time>2022-02-28T11:36:07Z</time>
      </trkpt>
      <trkpt lat="46.54865" lon="5.74636">
        <ele>571</ele>
        <time>2022-02-28T11:36:08Z</time>
      </trkpt>
      <trkpt lat="46.5486" lon="5.74639">
        <ele>571</ele>
        <time>2022-02-28T11:36:09Z</time>
      </trkpt>
      <trkpt lat="46.54855" lon="5.74642">
        <ele>571.4</ele>
        <time>2022-02-28T11:36:10Z</time>
      </trkpt>
      <trkpt lat="46.5485" lon="5.74645">
        <ele>571.6</ele>
        <time>2022-02-28T11:36:11Z</time>
      </trkpt>
      <trkpt lat="46.54846" lon="5.74648">
        <ele>571.6</ele>
        <time>2022-02-28T11:36:12Z</time>
      </trkpt>
      <trkpt lat="46.54841" lon="5.74651">
        <ele>572</ele>
        <time>2022-02-28T11:36:13Z</time>
      </trkpt>
      <trkpt lat="46.54836" lon="5.74654">
        <ele>572</ele>
        <time>2022-02-28T11:36:14Z</time>
      </trkpt>
      <trkpt lat="46.54832" lon="5.74657">
        <ele>572.2</ele>
        <time>2022-02-28T11:36:15Z</time>
      </trkpt>
      <trkpt lat="46.54827" lon="5.7466">
        <ele>572.2</ele>
        <time>2022-02-28T11:36:16Z</time>
      </trkpt>
      <trkpt lat="46.54823" lon="5.74663">
        <ele>572.6</ele>
        <time>2022-02-28T11:36:17Z</time>
      </trkpt>
      <trkpt lat="46.54819" lon="5.74666">
        <ele>572.6</ele>
        <time>2022-02-28T11:36:18Z</time>
      </trkpt>
      <trkpt lat="46.54814" lon="5.74669">
        <ele>573</ele>
        <time>2022-02-28T11:36:19Z</time>
      </trkpt>
      <trkpt lat="46.5481" lon="5.74672">
        <ele>573.2</ele>
        <time>2022-02-28T11:36:20Z</time>
      </trkpt>
      <trkpt lat="46.54806" lon="5.74675">
        <ele>573.4</ele>
        <time>2022-02-28T11:36:21Z</time>
      </trkpt>
      <trkpt lat="46.54801" lon="5.74677">
        <ele>573.4</ele>
        <time>2022-02-28T11:36:22Z</time>
      </trkpt>
      <trkpt lat="46.54797" lon="5.7468">
        <ele>573.6</ele>
        <time>2022-02-28T11:36:23Z</time>
      </trkpt>
      <trkpt lat="46.54792" lon="5.74683">
        <ele>573.6</ele>
        <time>2022-02-28T11:36:24Z</time>
      </trkpt>
      <trkpt lat="46.54788" lon="5.74685">
        <ele>574</ele>
        <time>2022-02-28T11:36:25Z</time>
      </trkpt>
      <trkpt lat="46.54784" lon="5.74688">
        <ele>574</ele>
        <time>2022-02-28T11:36:26Z</time>
      </trkpt>
      <trkpt lat="46.5478" lon="5.74691">
        <ele>574.4</ele>
        <time>2022-02-28T11:36:27Z</time>
      </trkpt>
      <trkpt lat="46.54776" lon="5.74694">
        <ele>574.4</ele>
        <time>2022-02-28T11:36:28Z</time>
      </trkpt>
      <trkpt lat="46.54772" lon="5.74696">
        <ele>574.8</ele>
        <time>2022-02-28T11:36:29Z</time>
      </trkpt>
      <trkpt lat="46.54768" lon="5.74699">
        <ele>574.8</ele>
        <time>2022-02-28T11:36:30Z</time>
      </trkpt>
      <trkpt lat="46.54764" lon="5.74701">
        <ele>575</ele>
        <time>2022-02-28T11:36:31Z</time>
      </trkpt>
      <trkpt lat="46.5476" lon="5.74704">
        <ele>575.2</ele>
        <time>2022-02-28T11:36:32Z</time>
      </trkpt>
      <trkpt lat="46.54757" lon="5.74707">
        <ele>575.2</ele>
        <time>2022-02-28T11:36:33Z</time>
      </trkpt>
      <trkpt lat="46.54753" lon="5.7471">
        <ele>575.6</ele>
        <time>2022-02-28T11:36:34Z</time>
      </trkpt>
      <trkpt lat="46.54749" lon="5.74712">
        <ele>575.8</ele>
        <time>2022-02-28T11:36:35Z</time>
      </trkpt>
      <trkpt lat="46.54745" lon="5.74715">
        <ele>575.8</ele>
        <time>2022-02-28T11:36:36Z</time>
      </trkpt>
      <trkpt lat="46.54742" lon="5.74717">
        <ele>576.2</ele>
        <time>2022-02-28T11:36:37Z</time>
      </trkpt>
      <trkpt lat="46.54738" lon="5.7472">
        <ele>576.2</ele>
        <time>2022-02-28T11:36:38Z</time>
      </trkpt>
      <trkpt lat="46.54734" lon="5.74723">
        <ele>576.4</ele>
        <time>2022-02-28T11:36:39Z</time>
      </trkpt>
      <trkpt lat="46.5473" lon="5.74726">
        <ele>576.4</ele>
        <time>2022-02-28T11:36:40Z</time>
      </trkpt>
      <trkpt lat="46.54727" lon="5.74729">
        <ele>576.8</ele>
        <time>2022-02-28T11:36:41Z</time>
      </trkpt>
      <trkpt lat="46.54723" lon="5.74732">
        <ele>576.8</ele>
        <time>2022-02-28T11:36:42Z</time>
      </trkpt>
      <trkpt lat="46.5472" lon="5.74735">
        <ele>577</ele>
        <time>2022-02-28T11:36:43Z</time>
      </trkpt>
      <trkpt lat="46.54716" lon="5.74738">
        <ele>577</ele>
        <time>2022-02-28T11:36:44Z</time>
      </trkpt>
      <trkpt lat="46.54712" lon="5.74742">
        <ele>577.2</ele>
        <time>2022-02-28T11:36:45Z</time>
      </trkpt>
      <trkpt lat="46.54709" lon="5.74745">
        <ele>577.2</ele>
        <time>2022-02-28T11:36:46Z</time>
      </trkpt>
      <trkpt lat="46.54709" lon="5.74745">
        <ele>577.2</ele>
        <time>2022-02-28T11:36:47Z</time>
      </trkpt>
      <trkpt lat="46.54706" lon="5.74748">
        <ele>577.4</ele>
        <time>2022-02-28T11:36:48Z</time>
      </trkpt>
      <trkpt lat="46.54704" lon="5.74751">
        <ele>577.4</ele>
        <time>2022-02-28T11:36:49Z</time>
      </trkpt>
      <trkpt lat="46.54701" lon="5.74754">
        <ele>577.4</ele>
        <time>2022-02-28T11:36:50Z</time>
      </trkpt>
      <trkpt lat="46.54699" lon="5.74757">
        <ele>577.4</ele>
        <time>2022-02-28T11:36:51Z</time>
      </trkpt>
      <trkpt lat="46.54696" lon="5.74759">
        <ele>577.8</ele>
        <time>2022-02-28T11:36:52Z</time>
      </trkpt>
      <trkpt lat="46.54693" lon="5.74761">
        <ele>577.8</ele>
        <time>2022-02-28T11:36:53Z</time>
      </trkpt>
      <trkpt lat="46.54689" lon="5.74764">
        <ele>578</ele>
        <time>2022-02-28T11:36:54Z</time>
      </trkpt>
      <trkpt lat="46.54686" lon="5.74766">
        <ele>578</ele>
        <time>2022-02-28T11:36:55Z</time>
      </trkpt>
      <trkpt lat="46.54682" lon="5.74769">
        <ele>578.2</ele>
        <time>2022-02-28T11:36:56Z</time>
      </trkpt>
      <trkpt lat="46.54678" lon="5.74773">
        <ele>578.2</ele>
        <time>2022-02-28T11:36:57Z</time>
      </trkpt>
      <trkpt lat="46.54674" lon="5.74777">
        <ele>578.2</ele>
        <time>2022-02-28T11:36:58Z</time>
      </trkpt>
      <trkpt lat="46.5467" lon="5.7478">
        <ele>578.2</ele>
        <time>2022-02-28T11:36:59Z</time>
      </trkpt>
      <trkpt lat="46.54665" lon="5.74784">
        <ele>578.2</ele>
        <time>2022-02-28T11:37:00Z</time>
      </trkpt>
      <trkpt lat="46.54661" lon="5.74788">
        <ele>578.2</ele>
        <time>2022-02-28T11:37:01Z</time>
      </trkpt>
      <trkpt lat="46.54656" lon="5.74792">
        <ele>578.2</ele>
        <time>2022-02-28T11:37:02Z</time>
      </trkpt>
      <trkpt lat="46.54651" lon="5.74796">
        <ele>578.2</ele>
        <time>2022-02-28T11:37:03Z</time>
      </trkpt>
      <trkpt lat="46.54646" lon="5.748">
        <ele>578.2</ele>
        <time>2022-02-28T11:37:04Z</time>
      </trkpt>
      <trkpt lat="46.5464" lon="5.74804">
        <ele>578.2</ele>
        <time>2022-02-28T11:37:05Z</time>
      </trkpt>
      <trkpt lat="46.54635" lon="5.74808">
        <ele>578.2</ele>
        <time>2022-02-28T11:37:06Z</time>
      </trkpt>
      <trkpt lat="46.5463" lon="5.74812">
        <ele>578.2</ele>
        <time>2022-02-28T11:37:07Z</time>
      </trkpt>
      <trkpt lat="46.54624" lon="5.74816">
        <ele>578.2</ele>
        <time>2022-02-28T11:37:08Z</time>
      </trkpt>
      <trkpt lat="46.54619" lon="5.7482">
        <ele>578.2</ele>
        <time>2022-02-28T11:37:09Z</time>
      </trkpt>
      <trkpt lat="46.54613" lon="5.74823">
        <ele>578.4</ele>
        <time>2022-02-28T11:37:10Z</time>
      </trkpt>
      <trkpt lat="46.54607" lon="5.74827">
        <ele>578.4</ele>
        <time>2022-02-28T11:37:11Z</time>
      </trkpt>
      <trkpt lat="46.54602" lon="5.7483">
        <ele>578.4</ele>
        <time>2022-02-28T11:37:12Z</time>
      </trkpt>
      <trkpt lat="46.54596" lon="5.74834">
        <ele>578.4</ele>
        <time>2022-02-28T11:37:13Z</time>
      </trkpt>
      <trkpt lat="46.5459" lon="5.74838">
        <ele>578.4</ele>
        <time>2022-02-28T11:37:14Z</time>
      </trkpt>
      <trkpt lat="46.54584" lon="5.74842">
        <ele>578.8</ele>
        <time>2022-02-28T11:37:15Z</time>
      </trkpt>
      <trkpt lat="46.54579" lon="5.74846">
        <ele>578.8</ele>
        <time>2022-02-28T11:37:16Z</time>
      </trkpt>
      <trkpt lat="46.54573" lon="5.74849">
        <ele>578.8</ele>
        <time>2022-02-28T11:37:17Z</time>
      </trkpt>
      <trkpt lat="46.54567" lon="5.74853">
        <ele>578.8</ele>
        <time>2022-02-28T11:37:18Z</time>
      </trkpt>
      <trkpt lat="46.54561" lon="5.74857">
        <ele>579</ele>
        <time>2022-02-28T11:37:19Z</time>
      </trkpt>
      <trkpt lat="46.54556" lon="5.74861">
        <ele>579</ele>
        <time>2022-02-28T11:37:20Z</time>
      </trkpt>
      <trkpt lat="46.5455" lon="5.74865">
        <ele>579.2</ele>
        <time>2022-02-28T11:37:21Z</time>
      </trkpt>
      <trkpt lat="46.54544" lon="5.74869">
        <ele>579.2</ele>
        <time>2022-02-28T11:37:22Z</time>
      </trkpt>
      <trkpt lat="46.54538" lon="5.74872">
        <ele>579.2</ele>
        <time>2022-02-28T11:37:23Z</time>
      </trkpt>
      <trkpt lat="46.54532" lon="5.74876">
        <ele>579.2</ele>
        <time>2022-02-28T11:37:24Z</time>
      </trkpt>
      <trkpt lat="46.54526" lon="5.7488">
        <ele>579.6</ele>
        <time>2022-02-28T11:37:25Z</time>
      </trkpt>
      <trkpt lat="46.5452" lon="5.74884">
        <ele>579.6</ele>
        <time>2022-02-28T11:37:26Z</time>
      </trkpt>
      <trkpt lat="46.54514" lon="5.74888">
        <ele>579.6</ele>
        <time>2022-02-28T11:37:27Z</time>
      </trkpt>
      <trkpt lat="46.54508" lon="5.74892">
        <ele>579.8</ele>
        <time>2022-02-28T11:37:28Z</time>
      </trkpt>
      <trkpt lat="46.54503" lon="5.74896">
        <ele>579.8</ele>
        <time>2022-02-28T11:37:29Z</time>
      </trkpt>
      <trkpt lat="46.54497" lon="5.749">
        <ele>579.8</ele>
        <time>2022-02-28T11:37:30Z</time>
      </trkpt>
      <trkpt lat="46.54491" lon="5.74904">
        <ele>580.2</ele>
        <time>2022-02-28T11:37:31Z</time>
      </trkpt>
      <trkpt lat="46.54485" lon="5.74907">
        <ele>580.2</ele>
        <time>2022-02-28T11:37:32Z</time>
      </trkpt>
      <trkpt lat="46.54479" lon="5.74911">
        <ele>580.4</ele>
        <time>2022-02-28T11:37:33Z</time>
      </trkpt>
      <trkpt lat="46.54473" lon="5.74915">
        <ele>580.4</ele>
        <time>2022-02-28T11:37:34Z</time>
      </trkpt>
      <trkpt lat="46.54468" lon="5.74919">
        <ele>580.8</ele>
        <time>2022-02-28T11:37:35Z</time>
      </trkpt>
      <trkpt lat="46.54462" lon="5.74922">
        <ele>580.8</ele>
        <time>2022-02-28T11:37:36Z</time>
      </trkpt>
      <trkpt lat="46.54456" lon="5.74926">
        <ele>580.8</ele>
        <time>2022-02-28T11:37:37Z</time>
      </trkpt>
      <trkpt lat="46.5445" lon="5.7493">
        <ele>581.2</ele>
        <time>2022-02-28T11:37:38Z</time>
      </trkpt>
      <trkpt lat="46.54445" lon="5.74934">
        <ele>581.2</ele>
        <time>2022-02-28T11:37:39Z</time>
      </trkpt>
      <trkpt lat="46.54439" lon="5.74938">
        <ele>581.4</ele>
        <time>2022-02-28T11:37:40Z</time>
      </trkpt>
      <trkpt lat="46.54433" lon="5.74941">
        <ele>581.4</ele>
        <time>2022-02-28T11:37:41Z</time>
      </trkpt>
      <trkpt lat="46.54428" lon="5.74945">
        <ele>581.8</ele>
        <time>2022-02-28T11:37:42Z</time>
      </trkpt>
      <trkpt lat="46.54422" lon="5.74949">
        <ele>581.8</ele>
        <time>2022-02-28T11:37:43Z</time>
      </trkpt>
      <trkpt lat="46.54417" lon="5.74952">
        <ele>582</ele>
        <time>2022-02-28T11:37:44Z</time>
      </trkpt>
      <trkpt lat="46.54411" lon="5.74956">
        <ele>582</ele>
        <time>2022-02-28T11:37:45Z</time>
      </trkpt>
      <trkpt lat="46.54406" lon="5.7496">
        <ele>582.4</ele>
        <time>2022-02-28T11:37:46Z</time>
      </trkpt>
      <trkpt lat="46.544" lon="5.74963">
        <ele>582.4</ele>
        <time>2022-02-28T11:37:47Z</time>
      </trkpt>
      <trkpt lat="46.54395" lon="5.74967">
        <ele>582.6</ele>
        <time>2022-02-28T11:37:48Z</time>
      </trkpt>
      <trkpt lat="46.54389" lon="5.7497">
        <ele>582.6</ele>
        <time>2022-02-28T11:37:49Z</time>
      </trkpt>
      <trkpt lat="46.54384" lon="5.74974">
        <ele>582.8</ele>
        <time>2022-02-28T11:37:50Z</time>
      </trkpt>
      <trkpt lat="46.54378" lon="5.74978">
        <ele>582.8</ele>
        <time>2022-02-28T11:37:51Z</time>
      </trkpt>
      <trkpt lat="46.54373" lon="5.74981">
        <ele>583.2</ele>
        <time>2022-02-28T11:37:52Z</time>
      </trkpt>
      <trkpt lat="46.54368" lon="5.74984">
        <ele>583.2</ele>
        <time>2022-02-28T11:37:53Z</time>
      </trkpt>
      <trkpt lat="46.54363" lon="5.74988">
        <ele>583.6</ele>
        <time>2022-02-28T11:37:54Z</time>
      </trkpt>
      <trkpt lat="46.54357" lon="5.74991">
        <ele>583.8</ele>
        <time>2022-02-28T11:37:55Z</time>
      </trkpt>
      <trkpt lat="46.54352" lon="5.74995">
        <ele>583.8</ele>
        <time>2022-02-28T11:37:56Z</time>
      </trkpt>
      <trkpt lat="46.54348" lon="5.74998">
        <ele>584.2</ele>
        <time>2022-02-28T11:37:57Z</time>
      </trkpt>
      <trkpt lat="46.54343" lon="5.75001">
        <ele>584.4</ele>
        <time>2022-02-28T11:37:58Z</time>
      </trkpt>
      <trkpt lat="46.54338" lon="5.75004">
        <ele>584.6</ele>
        <time>2022-02-28T11:37:59Z</time>
      </trkpt>
      <trkpt lat="46.54333" lon="5.75008">
        <ele>584.8</ele>
        <time>2022-02-28T11:38:00Z</time>
      </trkpt>
      <trkpt lat="46.54328" lon="5.7501">
        <ele>584.8</ele>
        <time>2022-02-28T11:38:01Z</time>
      </trkpt>
      <trkpt lat="46.54323" lon="5.75013">
        <ele>585.2</ele>
        <time>2022-02-28T11:38:02Z</time>
      </trkpt>
      <trkpt lat="46.54318" lon="5.75016">
        <ele>585.4</ele>
        <time>2022-02-28T11:38:03Z</time>
      </trkpt>
      <trkpt lat="46.54313" lon="5.7502">
        <ele>585.4</ele>
        <time>2022-02-28T11:38:04Z</time>
      </trkpt>
      <trkpt lat="46.54308" lon="5.75023">
        <ele>585.8</ele>
        <time>2022-02-28T11:38:05Z</time>
      </trkpt>
      <trkpt lat="46.54303" lon="5.75027">
        <ele>586.2</ele>
        <time>2022-02-28T11:38:06Z</time>
      </trkpt>
      <trkpt lat="46.54298" lon="5.75031">
        <ele>586.4</ele>
        <time>2022-02-28T11:38:07Z</time>
      </trkpt>
      <trkpt lat="46.54293" lon="5.75034">
        <ele>586.6</ele>
        <time>2022-02-28T11:38:08Z</time>
      </trkpt>
      <trkpt lat="46.54288" lon="5.75037">
        <ele>586.6</ele>
        <time>2022-02-28T11:38:09Z</time>
      </trkpt>
      <trkpt lat="46.54283" lon="5.7504">
        <ele>586.8</ele>
        <time>2022-02-28T11:38:10Z</time>
      </trkpt>
      <trkpt lat="46.54278" lon="5.75043">
        <ele>586.8</ele>
        <time>2022-02-28T11:38:11Z</time>
      </trkpt>
      <trkpt lat="46.54273" lon="5.75047">
        <ele>587.2</ele>
        <time>2022-02-28T11:38:12Z</time>
      </trkpt>
      <trkpt lat="46.54268" lon="5.7505">
        <ele>587.2</ele>
        <time>2022-02-28T11:38:13Z</time>
      </trkpt>
      <trkpt lat="46.54263" lon="5.75053">
        <ele>587.2</ele>
        <time>2022-02-28T11:38:14Z</time>
      </trkpt>
      <trkpt lat="46.54258" lon="5.75057">
        <ele>587.4</ele>
        <time>2022-02-28T11:38:15Z</time>
      </trkpt>
      <trkpt lat="46.54253" lon="5.7506">
        <ele>587.4</ele>
        <time>2022-02-28T11:38:16Z</time>
      </trkpt>
      <trkpt lat="46.54247" lon="5.75063">
        <ele>587.8</ele>
        <time>2022-02-28T11:38:17Z</time>
      </trkpt>
      <trkpt lat="46.54242" lon="5.75067">
        <ele>587.8</ele>
        <time>2022-02-28T11:38:18Z</time>
      </trkpt>
      <trkpt lat="46.54237" lon="5.75071">
        <ele>588</ele>
        <time>2022-02-28T11:38:19Z</time>
      </trkpt>
      <trkpt lat="46.54231" lon="5.75074">
        <ele>588</ele>
        <time>2022-02-28T11:38:20Z</time>
      </trkpt>
      <trkpt lat="46.54226" lon="5.75078">
        <ele>588</ele>
        <time>2022-02-28T11:38:21Z</time>
      </trkpt>
      <trkpt lat="46.54221" lon="5.75081">
        <ele>588.2</ele>
        <time>2022-02-28T11:38:22Z</time>
      </trkpt>
      <trkpt lat="46.54216" lon="5.75085">
        <ele>588.2</ele>
        <time>2022-02-28T11:38:23Z</time>
      </trkpt>
      <trkpt lat="46.5421" lon="5.75088">
        <ele>588.2</ele>
        <time>2022-02-28T11:38:24Z</time>
      </trkpt>
      <trkpt lat="46.54205" lon="5.75092">
        <ele>588.2</ele>
        <time>2022-02-28T11:38:25Z</time>
      </trkpt>
      <trkpt lat="46.542" lon="5.75095">
        <ele>588.2</ele>
        <time>2022-02-28T11:38:26Z</time>
      </trkpt>
      <trkpt lat="46.54195" lon="5.75099">
        <ele>588.2</ele>
        <time>2022-02-28T11:38:27Z</time>
      </trkpt>
      <trkpt lat="46.5419" lon="5.75103">
        <ele>588.4</ele>
        <time>2022-02-28T11:38:28Z</time>
      </trkpt>
      <trkpt lat="46.54185" lon="5.75107">
        <ele>588.4</ele>
        <time>2022-02-28T11:38:29Z</time>
      </trkpt>
      <trkpt lat="46.5418" lon="5.75111">
        <ele>588.4</ele>
        <time>2022-02-28T11:38:30Z</time>
      </trkpt>
      <trkpt lat="46.54175" lon="5.75115">
        <ele>588.4</ele>
        <time>2022-02-28T11:38:31Z</time>
      </trkpt>
      <trkpt lat="46.5417" lon="5.75119">
        <ele>588.6</ele>
        <time>2022-02-28T11:38:32Z</time>
      </trkpt>
      <trkpt lat="46.54165" lon="5.75124">
        <ele>588.6</ele>
        <time>2022-02-28T11:38:33Z</time>
      </trkpt>
      <trkpt lat="46.54161" lon="5.75129">
        <ele>588.8</ele>
        <time>2022-02-28T11:38:34Z</time>
      </trkpt>
      <trkpt lat="46.54157" lon="5.75134">
        <ele>588.8</ele>
        <time>2022-02-28T11:38:35Z</time>
      </trkpt>
      <trkpt lat="46.54152" lon="5.7514">
        <ele>588.8</ele>
        <time>2022-02-28T11:38:36Z</time>
      </trkpt>
      <trkpt lat="46.54148" lon="5.75146">
        <ele>589</ele>
        <time>2022-02-28T11:38:37Z</time>
      </trkpt>
      <trkpt lat="46.54143" lon="5.75151">
        <ele>589</ele>
        <time>2022-02-28T11:38:38Z</time>
      </trkpt>
      <trkpt lat="46.54139" lon="5.75157">
        <ele>589</ele>
        <time>2022-02-28T11:38:39Z</time>
      </trkpt>
      <trkpt lat="46.54134" lon="5.75162">
        <ele>589.2</ele>
        <time>2022-02-28T11:38:40Z</time>
      </trkpt>
      <trkpt lat="46.5413" lon="5.75167">
        <ele>589.2</ele>
        <time>2022-02-28T11:38:41Z</time>
      </trkpt>
      <trkpt lat="46.54125" lon="5.75172">
        <ele>589.2</ele>
        <time>2022-02-28T11:38:42Z</time>
      </trkpt>
      <trkpt lat="46.5412" lon="5.75175">
        <ele>589.6</ele>
        <time>2022-02-28T11:38:43Z</time>
      </trkpt>
      <trkpt lat="46.54115" lon="5.75178">
        <ele>589.6</ele>
        <time>2022-02-28T11:38:44Z</time>
      </trkpt>
      <trkpt lat="46.5411" lon="5.7518">
        <ele>589.6</ele>
        <time>2022-02-28T11:38:45Z</time>
      </trkpt>
      <trkpt lat="46.54104" lon="5.75183">
        <ele>589.6</ele>
        <time>2022-02-28T11:38:46Z</time>
      </trkpt>
      <trkpt lat="46.54099" lon="5.75185">
        <ele>589.6</ele>
        <time>2022-02-28T11:38:47Z</time>
      </trkpt>
      <trkpt lat="46.54093" lon="5.75187">
        <ele>589.8</ele>
        <time>2022-02-28T11:38:48Z</time>
      </trkpt>
      <trkpt lat="46.54088" lon="5.75189">
        <ele>589.8</ele>
        <time>2022-02-28T11:38:49Z</time>
      </trkpt>
      <trkpt lat="46.54082" lon="5.75192">
        <ele>589.8</ele>
        <time>2022-02-28T11:38:50Z</time>
      </trkpt>
      <trkpt lat="46.54077" lon="5.75194">
        <ele>590</ele>
        <time>2022-02-28T11:38:51Z</time>
      </trkpt>
      <trkpt lat="46.54071" lon="5.75196">
        <ele>590</ele>
        <time>2022-02-28T11:38:52Z</time>
      </trkpt>
      <trkpt lat="46.54066" lon="5.75199">
        <ele>590</ele>
        <time>2022-02-28T11:38:53Z</time>
      </trkpt>
      <trkpt lat="46.5406" lon="5.75202">
        <ele>590</ele>
        <time>2022-02-28T11:38:54Z</time>
      </trkpt>
      <trkpt lat="46.54054" lon="5.75204">
        <ele>590</ele>
        <time>2022-02-28T11:38:55Z</time>
      </trkpt>
      <trkpt lat="46.54048" lon="5.75207">
        <ele>590.2</ele>
        <time>2022-02-28T11:38:56Z</time>
      </trkpt>
      <trkpt lat="46.54042" lon="5.75209">
        <ele>590.2</ele>
        <time>2022-02-28T11:38:57Z</time>
      </trkpt>
      <trkpt lat="46.54036" lon="5.75212">
        <ele>590.2</ele>
        <time>2022-02-28T11:38:58Z</time>
      </trkpt>
      <trkpt lat="46.5403" lon="5.75215">
        <ele>590.2</ele>
        <time>2022-02-28T11:38:59Z</time>
      </trkpt>
      <trkpt lat="46.54024" lon="5.75217">
        <ele>590.2</ele>
        <time>2022-02-28T11:39:00Z</time>
      </trkpt>
      <trkpt lat="46.54018" lon="5.7522">
        <ele>590.2</ele>
        <time>2022-02-28T11:39:01Z</time>
      </trkpt>
      <trkpt lat="46.54011" lon="5.75223">
        <ele>590.2</ele>
        <time>2022-02-28T11:39:02Z</time>
      </trkpt>
      <trkpt lat="46.54005" lon="5.75226">
        <ele>590.2</ele>
        <time>2022-02-28T11:39:03Z</time>
      </trkpt>
      <trkpt lat="46.53998" lon="5.75229">
        <ele>590.2</ele>
        <time>2022-02-28T11:39:04Z</time>
      </trkpt>
      <trkpt lat="46.53992" lon="5.75232">
        <ele>590.2</ele>
        <time>2022-02-28T11:39:05Z</time>
      </trkpt>
      <trkpt lat="46.53985" lon="5.75235">
        <ele>590.2</ele>
        <time>2022-02-28T11:39:06Z</time>
      </trkpt>
      <trkpt lat="46.53979" lon="5.75238">
        <ele>590.2</ele>
        <time>2022-02-28T11:39:07Z</time>
      </trkpt>
      <trkpt lat="46.53972" lon="5.75241">
        <ele>590.2</ele>
        <time>2022-02-28T11:39:08Z</time>
      </trkpt>
      <trkpt lat="46.53966" lon="5.75244">
        <ele>590.2</ele>
        <time>2022-02-28T11:39:09Z</time>
      </trkpt>
      <trkpt lat="46.5396" lon="5.75248">
        <ele>590.2</ele>
        <time>2022-02-28T11:39:10Z</time>
      </trkpt>
      <trkpt lat="46.53953" lon="5.75251">
        <ele>590.2</ele>
        <time>2022-02-28T11:39:11Z</time>
      </trkpt>
      <trkpt lat="46.53947" lon="5.75253">
        <ele>590.2</ele>
        <time>2022-02-28T11:39:12Z</time>
      </trkpt>
      <trkpt lat="46.5394" lon="5.75256">
        <ele>590.2</ele>
        <time>2022-02-28T11:39:13Z</time>
      </trkpt>
      <trkpt lat="46.53933" lon="5.75259">
        <ele>590.2</ele>
        <time>2022-02-28T11:39:14Z</time>
      </trkpt>
      <trkpt lat="46.53926" lon="5.75262">
        <ele>590.2</ele>
        <time>2022-02-28T11:39:15Z</time>
      </trkpt>
      <trkpt lat="46.5392" lon="5.75265">
        <ele>590.2</ele>
        <time>2022-02-28T11:39:16Z</time>
      </trkpt>
      <trkpt lat="46.53906" lon="5.75271">
        <ele>590.2</ele>
        <time>2022-02-28T11:39:17Z</time>
      </trkpt>
      <trkpt lat="46.53899" lon="5.75274">
        <ele>590.2</ele>
        <time>2022-02-28T11:39:18Z</time>
      </trkpt>
      <trkpt lat="46.53892" lon="5.75277">
        <ele>590.6</ele>
        <time>2022-02-28T11:39:19Z</time>
      </trkpt>
      <trkpt lat="46.53886" lon="5.75279">
        <ele>590.6</ele>
        <time>2022-02-28T11:39:20Z</time>
      </trkpt>
      <trkpt lat="46.53879" lon="5.75282">
        <ele>590.6</ele>
        <time>2022-02-28T11:39:21Z</time>
      </trkpt>
      <trkpt lat="46.53872" lon="5.75285">
        <ele>590.6</ele>
        <time>2022-02-28T11:39:22Z</time>
      </trkpt>
      <trkpt lat="46.53865" lon="5.75288">
        <ele>590.4</ele>
        <time>2022-02-28T11:39:23Z</time>
      </trkpt>
      <trkpt lat="46.53857" lon="5.75291">
        <ele>590.4</ele>
        <time>2022-02-28T11:39:24Z</time>
      </trkpt>
      <trkpt lat="46.5385" lon="5.75294">
        <ele>590.4</ele>
        <time>2022-02-28T11:39:25Z</time>
      </trkpt>
      <trkpt lat="46.53844" lon="5.75298">
        <ele>590.4</ele>
        <time>2022-02-28T11:39:26Z</time>
      </trkpt>
      <trkpt lat="46.53837" lon="5.75301">
        <ele>590.4</ele>
        <time>2022-02-28T11:39:27Z</time>
      </trkpt>
      <trkpt lat="46.53829" lon="5.75304">
        <ele>590.2</ele>
        <time>2022-02-28T11:39:28Z</time>
      </trkpt>
      <trkpt lat="46.53822" lon="5.75308">
        <ele>590.2</ele>
        <time>2022-02-28T11:39:29Z</time>
      </trkpt>
      <trkpt lat="46.53815" lon="5.75311">
        <ele>590.2</ele>
        <time>2022-02-28T11:39:30Z</time>
      </trkpt>
      <trkpt lat="46.53808" lon="5.75314">
        <ele>589.8</ele>
        <time>2022-02-28T11:39:31Z</time>
      </trkpt>
      <trkpt lat="46.538" lon="5.75318">
        <ele>589.8</ele>
        <time>2022-02-28T11:39:32Z</time>
      </trkpt>
      <trkpt lat="46.53793" lon="5.75321">
        <ele>589.8</ele>
        <time>2022-02-28T11:39:33Z</time>
      </trkpt>
      <trkpt lat="46.53785" lon="5.75324">
        <ele>589.6</ele>
        <time>2022-02-28T11:39:34Z</time>
      </trkpt>
      <trkpt lat="46.53777" lon="5.75328">
        <ele>589.6</ele>
        <time>2022-02-28T11:39:35Z</time>
      </trkpt>
      <trkpt lat="46.53769" lon="5.75331">
        <ele>589.6</ele>
        <time>2022-02-28T11:39:36Z</time>
      </trkpt>
      <trkpt lat="46.53762" lon="5.75335">
        <ele>589.4</ele>
        <time>2022-02-28T11:39:37Z</time>
      </trkpt>
      <trkpt lat="46.53754" lon="5.75338">
        <ele>589.4</ele>
        <time>2022-02-28T11:39:38Z</time>
      </trkpt>
      <trkpt lat="46.53746" lon="5.75342">
        <ele>589.4</ele>
        <time>2022-02-28T11:39:39Z</time>
      </trkpt>
      <trkpt lat="46.53738" lon="5.75345">
        <ele>589.2</ele>
        <time>2022-02-28T11:39:40Z</time>
      </trkpt>
      <trkpt lat="46.5373" lon="5.75349">
        <ele>589.2</ele>
        <time>2022-02-28T11:39:41Z</time>
      </trkpt>
      <trkpt lat="46.53722" lon="5.75353">
        <ele>589.2</ele>
        <time>2022-02-28T11:39:42Z</time>
      </trkpt>
      <trkpt lat="46.53714" lon="5.75356">
        <ele>588.8</ele>
        <time>2022-02-28T11:39:43Z</time>
      </trkpt>
      <trkpt lat="46.53706" lon="5.7536">
        <ele>588.8</ele>
        <time>2022-02-28T11:39:44Z</time>
      </trkpt>
      <trkpt lat="46.53698" lon="5.75364">
        <ele>588.8</ele>
        <time>2022-02-28T11:39:45Z</time>
      </trkpt>
      <trkpt lat="46.5369" lon="5.75367">
        <ele>588.8</ele>
        <time>2022-02-28T11:39:46Z</time>
      </trkpt>
      <trkpt lat="46.53682" lon="5.75371">
        <ele>588.6</ele>
        <time>2022-02-28T11:39:47Z</time>
      </trkpt>
      <trkpt lat="46.53674" lon="5.75374">
        <ele>588.6</ele>
        <time>2022-02-28T11:39:48Z</time>
      </trkpt>
      <trkpt lat="46.53666" lon="5.75378">
        <ele>588.6</ele>
        <time>2022-02-28T11:39:49Z</time>
      </trkpt>
      <trkpt lat="46.53659" lon="5.75381">
        <ele>588.6</ele>
        <time>2022-02-28T11:39:50Z</time>
      </trkpt>
      <trkpt lat="46.53651" lon="5.75385">
        <ele>588.4</ele>
        <time>2022-02-28T11:39:51Z</time>
      </trkpt>
      <trkpt lat="46.53643" lon="5.75388">
        <ele>588.4</ele>
        <time>2022-02-28T11:39:52Z</time>
      </trkpt>
      <trkpt lat="46.53636" lon="5.75392">
        <ele>588.4</ele>
        <time>2022-02-28T11:39:53Z</time>
      </trkpt>
      <trkpt lat="46.53628" lon="5.75395">
        <ele>588.4</ele>
        <time>2022-02-28T11:39:54Z</time>
      </trkpt>
      <trkpt lat="46.5362" lon="5.75398">
        <ele>588.4</ele>
        <time>2022-02-28T11:39:55Z</time>
      </trkpt>
      <trkpt lat="46.53612" lon="5.75402">
        <ele>588.4</ele>
        <time>2022-02-28T11:39:56Z</time>
      </trkpt>
      <trkpt lat="46.53605" lon="5.75406">
        <ele>588.4</ele>
        <time>2022-02-28T11:39:57Z</time>
      </trkpt>
      <trkpt lat="46.53597" lon="5.75409">
        <ele>588.4</ele>
        <time>2022-02-28T11:39:58Z</time>
      </trkpt>
      <trkpt lat="46.5359" lon="5.75413">
        <ele>588</ele>
        <time>2022-02-28T11:39:59Z</time>
      </trkpt>
      <trkpt lat="46.53582" lon="5.75416">
        <ele>588</ele>
        <time>2022-02-28T11:40:00Z</time>
      </trkpt>
      <trkpt lat="46.53575" lon="5.7542">
        <ele>588</ele>
        <time>2022-02-28T11:40:01Z</time>
      </trkpt>
      <trkpt lat="46.53567" lon="5.75423">
        <ele>588</ele>
        <time>2022-02-28T11:40:02Z</time>
      </trkpt>
      <trkpt lat="46.5356" lon="5.75426">
        <ele>587.8</ele>
        <time>2022-02-28T11:40:03Z</time>
      </trkpt>
      <trkpt lat="46.53552" lon="5.7543">
        <ele>587.8</ele>
        <time>2022-02-28T11:40:04Z</time>
      </trkpt>
      <trkpt lat="46.53544" lon="5.75433">
        <ele>587.8</ele>
        <time>2022-02-28T11:40:05Z</time>
      </trkpt>
      <trkpt lat="46.53537" lon="5.75437">
        <ele>587.4</ele>
        <time>2022-02-28T11:40:06Z</time>
      </trkpt>
      <trkpt lat="46.53529" lon="5.7544">
        <ele>587.4</ele>
        <time>2022-02-28T11:40:07Z</time>
      </trkpt>
      <trkpt lat="46.53522" lon="5.75444">
        <ele>587.4</ele>
        <time>2022-02-28T11:40:08Z</time>
      </trkpt>
      <trkpt lat="46.53514" lon="5.75448">
        <ele>587.2</ele>
        <time>2022-02-28T11:40:09Z</time>
      </trkpt>
      <trkpt lat="46.53506" lon="5.75452">
        <ele>587.2</ele>
        <time>2022-02-28T11:40:10Z</time>
      </trkpt>
      <trkpt lat="46.53498" lon="5.75456">
        <ele>587.2</ele>
        <time>2022-02-28T11:40:11Z</time>
      </trkpt>
      <trkpt lat="46.5349" lon="5.75459">
        <ele>587.2</ele>
        <time>2022-02-28T11:40:12Z</time>
      </trkpt>
      <trkpt lat="46.53482" lon="5.75463">
        <ele>587.2</ele>
        <time>2022-02-28T11:40:13Z</time>
      </trkpt>
      <trkpt lat="46.53474" lon="5.75466">
        <ele>587.2</ele>
        <time>2022-02-28T11:40:14Z</time>
      </trkpt>
      <trkpt lat="46.53466" lon="5.7547">
        <ele>587</ele>
        <time>2022-02-28T11:40:15Z</time>
      </trkpt>
      <trkpt lat="46.53458" lon="5.75473">
        <ele>587</ele>
        <time>2022-02-28T11:40:16Z</time>
      </trkpt>
      <trkpt lat="46.53451" lon="5.75477">
        <ele>587</ele>
        <time>2022-02-28T11:40:17Z</time>
      </trkpt>
      <trkpt lat="46.53443" lon="5.7548">
        <ele>587</ele>
        <time>2022-02-28T11:40:18Z</time>
      </trkpt>
      <trkpt lat="46.53435" lon="5.75484">
        <ele>587</ele>
        <time>2022-02-28T11:40:19Z</time>
      </trkpt>
      <trkpt lat="46.53428" lon="5.75488">
        <ele>587</ele>
        <time>2022-02-28T11:40:20Z</time>
      </trkpt>
      <trkpt lat="46.5342" lon="5.75492">
        <ele>587</ele>
        <time>2022-02-28T11:40:21Z</time>
      </trkpt>
      <trkpt lat="46.53413" lon="5.75495">
        <ele>587</ele>
        <time>2022-02-28T11:40:22Z</time>
      </trkpt>
      <trkpt lat="46.53405" lon="5.75499">
        <ele>587</ele>
        <time>2022-02-28T11:40:23Z</time>
      </trkpt>
      <trkpt lat="46.53398" lon="5.75502">
        <ele>587</ele>
        <time>2022-02-28T11:40:24Z</time>
      </trkpt>
      <trkpt lat="46.5339" lon="5.75506">
        <ele>587</ele>
        <time>2022-02-28T11:40:25Z</time>
      </trkpt>
      <trkpt lat="46.53383" lon="5.75509">
        <ele>587</ele>
        <time>2022-02-28T11:40:26Z</time>
      </trkpt>
      <trkpt lat="46.53376" lon="5.75511">
        <ele>587</ele>
        <time>2022-02-28T11:40:27Z</time>
      </trkpt>
      <trkpt lat="46.53369" lon="5.75514">
        <ele>587</ele>
        <time>2022-02-28T11:40:28Z</time>
      </trkpt>
      <trkpt lat="46.53362" lon="5.75517">
        <ele>587</ele>
        <time>2022-02-28T11:40:29Z</time>
      </trkpt>
      <trkpt lat="46.53355" lon="5.7552">
        <ele>587</ele>
        <time>2022-02-28T11:40:30Z</time>
      </trkpt>
      <trkpt lat="46.53348" lon="5.75523">
        <ele>587</ele>
        <time>2022-02-28T11:40:31Z</time>
      </trkpt>
      <trkpt lat="46.53341" lon="5.75526">
        <ele>587</ele>
        <time>2022-02-28T11:40:32Z</time>
      </trkpt>
      <trkpt lat="46.53334" lon="5.75528">
        <ele>587</ele>
        <time>2022-02-28T11:40:33Z</time>
      </trkpt>
      <trkpt lat="46.53327" lon="5.75531">
        <ele>587</ele>
        <time>2022-02-28T11:40:34Z</time>
      </trkpt>
      <trkpt lat="46.5332" lon="5.75533">
        <ele>587</ele>
        <time>2022-02-28T11:40:35Z</time>
      </trkpt>
      <trkpt lat="46.53314" lon="5.75536">
        <ele>587</ele>
        <time>2022-02-28T11:40:36Z</time>
      </trkpt>
      <trkpt lat="46.53307" lon="5.75539">
        <ele>587</ele>
        <time>2022-02-28T11:40:37Z</time>
      </trkpt>
      <trkpt lat="46.533" lon="5.75541">
        <ele>587</ele>
        <time>2022-02-28T11:40:38Z</time>
      </trkpt>
      <trkpt lat="46.53293" lon="5.75543">
        <ele>587</ele>
        <time>2022-02-28T11:40:39Z</time>
      </trkpt>
      <trkpt lat="46.53286" lon="5.75545">
        <ele>587</ele>
        <time>2022-02-28T11:40:40Z</time>
      </trkpt>
      <trkpt lat="46.5328" lon="5.75547">
        <ele>587</ele>
        <time>2022-02-28T11:40:41Z</time>
      </trkpt>
      <trkpt lat="46.53273" lon="5.75549">
        <ele>587</ele>
        <time>2022-02-28T11:40:42Z</time>
      </trkpt>
      <trkpt lat="46.53266" lon="5.7555">
        <ele>587.2</ele>
        <time>2022-02-28T11:40:43Z</time>
      </trkpt>
      <trkpt lat="46.53259" lon="5.75551">
        <ele>587.2</ele>
        <time>2022-02-28T11:40:44Z</time>
      </trkpt>
      <trkpt lat="46.53252" lon="5.75551">
        <ele>587.2</ele>
        <time>2022-02-28T11:40:45Z</time>
      </trkpt>
      <trkpt lat="46.53245" lon="5.75552">
        <ele>587.2</ele>
        <time>2022-02-28T11:40:46Z</time>
      </trkpt>
      <trkpt lat="46.53238" lon="5.75552">
        <ele>587.4</ele>
        <time>2022-02-28T11:40:47Z</time>
      </trkpt>
      <trkpt lat="46.53231" lon="5.75552">
        <ele>587.4</ele>
        <time>2022-02-28T11:40:48Z</time>
      </trkpt>
      <trkpt lat="46.53224" lon="5.75552">
        <ele>587.4</ele>
        <time>2022-02-28T11:40:49Z</time>
      </trkpt>
      <trkpt lat="46.53218" lon="5.75552">
        <ele>587.4</ele>
        <time>2022-02-28T11:40:50Z</time>
      </trkpt>
      <trkpt lat="46.53211" lon="5.75552">
        <ele>587.4</ele>
        <time>2022-02-28T11:40:51Z</time>
      </trkpt>
      <trkpt lat="46.53204" lon="5.75552">
        <ele>587.4</ele>
        <time>2022-02-28T11:40:52Z</time>
      </trkpt>
      <trkpt lat="46.53197" lon="5.75552">
        <ele>587.4</ele>
        <time>2022-02-28T11:40:53Z</time>
      </trkpt>
      <trkpt lat="46.5319" lon="5.75552">
        <ele>587.4</ele>
        <time>2022-02-28T11:40:54Z</time>
      </trkpt>
      <trkpt lat="46.53183" lon="5.75551">
        <ele>587.4</ele>
        <time>2022-02-28T11:40:55Z</time>
      </trkpt>
      <trkpt lat="46.53176" lon="5.7555">
        <ele>587.4</ele>
        <time>2022-02-28T11:40:56Z</time>
      </trkpt>
      <trkpt lat="46.53169" lon="5.75548">
        <ele>587.4</ele>
        <time>2022-02-28T11:40:57Z</time>
      </trkpt>
      <trkpt lat="46.53162" lon="5.75547">
        <ele>587.4</ele>
        <time>2022-02-28T11:40:58Z</time>
      </trkpt>
      <trkpt lat="46.53155" lon="5.75545">
        <ele>587.4</ele>
        <time>2022-02-28T11:40:59Z</time>
      </trkpt>
      <trkpt lat="46.53148" lon="5.75544">
        <ele>587.4</ele>
        <time>2022-02-28T11:41:00Z</time>
      </trkpt>
      <trkpt lat="46.53141" lon="5.75541">
        <ele>587.4</ele>
        <time>2022-02-28T11:41:01Z</time>
      </trkpt>
      <trkpt lat="46.53134" lon="5.75539">
        <ele>587.4</ele>
        <time>2022-02-28T11:41:02Z</time>
      </trkpt>
      <trkpt lat="46.53127" lon="5.75537">
        <ele>587.4</ele>
        <time>2022-02-28T11:41:03Z</time>
      </trkpt>
      <trkpt lat="46.53119" lon="5.75535">
        <ele>587.4</ele>
        <time>2022-02-28T11:41:04Z</time>
      </trkpt>
      <trkpt lat="46.53112" lon="5.75533">
        <ele>587.2</ele>
        <time>2022-02-28T11:41:05Z</time>
      </trkpt>
      <trkpt lat="46.53105" lon="5.75531">
        <ele>587.2</ele>
        <time>2022-02-28T11:41:06Z</time>
      </trkpt>
      <trkpt lat="46.53098" lon="5.75529">
        <ele>587.2</ele>
        <time>2022-02-28T11:41:07Z</time>
      </trkpt>
      <trkpt lat="46.53098" lon="5.75529">
        <ele>587.2</ele>
        <time>2022-02-28T11:41:08Z</time>
      </trkpt>
      <trkpt lat="46.5309" lon="5.75526">
        <ele>587.2</ele>
        <time>2022-02-28T11:41:09Z</time>
      </trkpt>
      <trkpt lat="46.53083" lon="5.75524">
        <ele>587.2</ele>
        <time>2022-02-28T11:41:10Z</time>
      </trkpt>
      <trkpt lat="46.53076" lon="5.75522">
        <ele>587.2</ele>
        <time>2022-02-28T11:41:11Z</time>
      </trkpt>
      <trkpt lat="46.53068" lon="5.7552">
        <ele>587.2</ele>
        <time>2022-02-28T11:41:12Z</time>
      </trkpt>
      <trkpt lat="46.53061" lon="5.75518">
        <ele>587</ele>
        <time>2022-02-28T11:41:13Z</time>
      </trkpt>
      <trkpt lat="46.53053" lon="5.75516">
        <ele>587</ele>
        <time>2022-02-28T11:41:14Z</time>
      </trkpt>
      <trkpt lat="46.53046" lon="5.75513">
        <ele>587</ele>
        <time>2022-02-28T11:41:15Z</time>
      </trkpt>
      <trkpt lat="46.53038" lon="5.75511">
        <ele>587</ele>
        <time>2022-02-28T11:41:16Z</time>
      </trkpt>
      <trkpt lat="46.53031" lon="5.75509">
        <ele>587</ele>
        <time>2022-02-28T11:41:17Z</time>
      </trkpt>
      <trkpt lat="46.53023" lon="5.75507">
        <ele>587</ele>
        <time>2022-02-28T11:41:18Z</time>
      </trkpt>
      <trkpt lat="46.53015" lon="5.75505">
        <ele>587</ele>
        <time>2022-02-28T11:41:19Z</time>
      </trkpt>
      <trkpt lat="46.53008" lon="5.75502">
        <ele>586.6</ele>
        <time>2022-02-28T11:41:20Z</time>
      </trkpt>
      <trkpt lat="46.53" lon="5.755">
        <ele>586.6</ele>
        <time>2022-02-28T11:41:21Z</time>
      </trkpt>
      <trkpt lat="46.52993" lon="5.75498">
        <ele>586.6</ele>
        <time>2022-02-28T11:41:22Z</time>
      </trkpt>
      <trkpt lat="46.52985" lon="5.75496">
        <ele>586.6</ele>
        <time>2022-02-28T11:41:23Z</time>
      </trkpt>
      <trkpt lat="46.52977" lon="5.75494">
        <ele>586.4</ele>
        <time>2022-02-28T11:41:24Z</time>
      </trkpt>
      <trkpt lat="46.52969" lon="5.75492">
        <ele>586.4</ele>
        <time>2022-02-28T11:41:25Z</time>
      </trkpt>
      <trkpt lat="46.52962" lon="5.75489">
        <ele>586</ele>
        <time>2022-02-28T11:41:26Z</time>
      </trkpt>
      <trkpt lat="46.52954" lon="5.75487">
        <ele>585.8</ele>
        <time>2022-02-28T11:41:27Z</time>
      </trkpt>
      <trkpt lat="46.52946" lon="5.75485">
        <ele>585.8</ele>
        <time>2022-02-28T11:41:28Z</time>
      </trkpt>
      <trkpt lat="46.52938" lon="5.75482">
        <ele>585.6</ele>
        <time>2022-02-28T11:41:29Z</time>
      </trkpt>
      <trkpt lat="46.5293" lon="5.7548">
        <ele>585.6</ele>
        <time>2022-02-28T11:41:30Z</time>
      </trkpt>
      <trkpt lat="46.52922" lon="5.75478">
        <ele>585.2</ele>
        <time>2022-02-28T11:41:31Z</time>
      </trkpt>
      <trkpt lat="46.52914" lon="5.75476">
        <ele>585.2</ele>
        <time>2022-02-28T11:41:32Z</time>
      </trkpt>
      <trkpt lat="46.52906" lon="5.75474">
        <ele>585.2</ele>
        <time>2022-02-28T11:41:33Z</time>
      </trkpt>
      <trkpt lat="46.52898" lon="5.75471">
        <ele>585</ele>
        <time>2022-02-28T11:41:34Z</time>
      </trkpt>
      <trkpt lat="46.52891" lon="5.75469">
        <ele>585</ele>
        <time>2022-02-28T11:41:35Z</time>
      </trkpt>
      <trkpt lat="46.52883" lon="5.75467">
        <ele>585</ele>
        <time>2022-02-28T11:41:36Z</time>
      </trkpt>
      <trkpt lat="46.52875" lon="5.75465">
        <ele>585</ele>
        <time>2022-02-28T11:41:37Z</time>
      </trkpt>
      <trkpt lat="46.52867" lon="5.75463">
        <ele>585</ele>
        <time>2022-02-28T11:41:38Z</time>
      </trkpt>
      <trkpt lat="46.52859" lon="5.75461">
        <ele>585</ele>
        <time>2022-02-28T11:41:39Z</time>
      </trkpt>
      <trkpt lat="46.52852" lon="5.75459">
        <ele>585</ele>
        <time>2022-02-28T11:41:40Z</time>
      </trkpt>
      <trkpt lat="46.52844" lon="5.75457">
        <ele>585</ele>
        <time>2022-02-28T11:41:41Z</time>
      </trkpt>
      <trkpt lat="46.52836" lon="5.75454">
        <ele>585</ele>
        <time>2022-02-28T11:41:42Z</time>
      </trkpt>
      <trkpt lat="46.52828" lon="5.75452">
        <ele>585</ele>
        <time>2022-02-28T11:41:43Z</time>
      </trkpt>
      <trkpt lat="46.52821" lon="5.7545">
        <ele>585</ele>
        <time>2022-02-28T11:41:44Z</time>
      </trkpt>
      <trkpt lat="46.52813" lon="5.75448">
        <ele>584.8</ele>
        <time>2022-02-28T11:41:45Z</time>
      </trkpt>
      <trkpt lat="46.52805" lon="5.75446">
        <ele>584.8</ele>
        <time>2022-02-28T11:41:46Z</time>
      </trkpt>
      <trkpt lat="46.52798" lon="5.75444">
        <ele>584.8</ele>
        <time>2022-02-28T11:41:47Z</time>
      </trkpt>
      <trkpt lat="46.5279" lon="5.75442">
        <ele>584.8</ele>
        <time>2022-02-28T11:41:48Z</time>
      </trkpt>
      <trkpt lat="46.52783" lon="5.7544">
        <ele>584.8</ele>
        <time>2022-02-28T11:41:49Z</time>
      </trkpt>
      <trkpt lat="46.52775" lon="5.75438">
        <ele>584.8</ele>
        <time>2022-02-28T11:41:50Z</time>
      </trkpt>
      <trkpt lat="46.52768" lon="5.75435">
        <ele>584.8</ele>
        <time>2022-02-28T11:41:51Z</time>
      </trkpt>
      <trkpt lat="46.5276" lon="5.75433">
        <ele>584.6</ele>
        <time>2022-02-28T11:41:52Z</time>
      </trkpt>
      <trkpt lat="46.52752" lon="5.75431">
        <ele>584.6</ele>
        <time>2022-02-28T11:41:53Z</time>
      </trkpt>
      <trkpt lat="46.52745" lon="5.75428">
        <ele>584.6</ele>
        <time>2022-02-28T11:41:54Z</time>
      </trkpt>
      <trkpt lat="46.52737" lon="5.75426">
        <ele>584.2</ele>
        <time>2022-02-28T11:41:55Z</time>
      </trkpt>
      <trkpt lat="46.52729" lon="5.75423">
        <ele>584.2</ele>
        <time>2022-02-28T11:41:56Z</time>
      </trkpt>
      <trkpt lat="46.52721" lon="5.75421">
        <ele>583.6</ele>
        <time>2022-02-28T11:41:57Z</time>
      </trkpt>
      <trkpt lat="46.52713" lon="5.75418">
        <ele>583.6</ele>
        <time>2022-02-28T11:41:58Z</time>
      </trkpt>
      <trkpt lat="46.52704" lon="5.75415">
        <ele>583.6</ele>
        <time>2022-02-28T11:41:59Z</time>
      </trkpt>
      <trkpt lat="46.52696" lon="5.75413">
        <ele>583.4</ele>
        <time>2022-02-28T11:42:00Z</time>
      </trkpt>
      <trkpt lat="46.52688" lon="5.7541">
        <ele>583.4</ele>
        <time>2022-02-28T11:42:01Z</time>
      </trkpt>
      <trkpt lat="46.52679" lon="5.75408">
        <ele>583.2</ele>
        <time>2022-02-28T11:42:02Z</time>
      </trkpt>
      <trkpt lat="46.52671" lon="5.75405">
        <ele>583.2</ele>
        <time>2022-02-28T11:42:03Z</time>
      </trkpt>
      <trkpt lat="46.52663" lon="5.75402">
        <ele>583</ele>
        <time>2022-02-28T11:42:04Z</time>
      </trkpt>
      <trkpt lat="46.52655" lon="5.754">
        <ele>582.8</ele>
        <time>2022-02-28T11:42:05Z</time>
      </trkpt>
      <trkpt lat="46.52646" lon="5.75398">
        <ele>582.8</ele>
        <time>2022-02-28T11:42:06Z</time>
      </trkpt>
      <trkpt lat="46.52638" lon="5.75395">
        <ele>582.4</ele>
        <time>2022-02-28T11:42:07Z</time>
      </trkpt>
      <trkpt lat="46.5263" lon="5.75393">
        <ele>582.4</ele>
        <time>2022-02-28T11:42:08Z</time>
      </trkpt>
      <trkpt lat="46.52621" lon="5.7539">
        <ele>582.2</ele>
        <time>2022-02-28T11:42:09Z</time>
      </trkpt>
      <trkpt lat="46.52613" lon="5.75387">
        <ele>582.2</ele>
        <time>2022-02-28T11:42:10Z</time>
      </trkpt>
      <trkpt lat="46.52605" lon="5.75383">
        <ele>582</ele>
        <time>2022-02-28T11:42:11Z</time>
      </trkpt>
      <trkpt lat="46.52597" lon="5.7538">
        <ele>582</ele>
        <time>2022-02-28T11:42:12Z</time>
      </trkpt>
      <trkpt lat="46.52589" lon="5.75377">
        <ele>581.6</ele>
        <time>2022-02-28T11:42:13Z</time>
      </trkpt>
      <trkpt lat="46.5258" lon="5.75373">
        <ele>581.6</ele>
        <time>2022-02-28T11:42:14Z</time>
      </trkpt>
      <trkpt lat="46.52573" lon="5.75369">
        <ele>581.6</ele>
        <time>2022-02-28T11:42:15Z</time>
      </trkpt>
      <trkpt lat="46.52565" lon="5.75365">
        <ele>581.4</ele>
        <time>2022-02-28T11:42:16Z</time>
      </trkpt>
      <trkpt lat="46.52557" lon="5.75361">
        <ele>581.4</ele>
        <time>2022-02-28T11:42:17Z</time>
      </trkpt>
      <trkpt lat="46.52549" lon="5.75357">
        <ele>581.4</ele>
        <time>2022-02-28T11:42:18Z</time>
      </trkpt>
      <trkpt lat="46.52541" lon="5.75353">
        <ele>581.4</ele>
        <time>2022-02-28T11:42:19Z</time>
      </trkpt>
      <trkpt lat="46.52534" lon="5.75349">
        <ele>581</ele>
        <time>2022-02-28T11:42:20Z</time>
      </trkpt>
      <trkpt lat="46.52526" lon="5.75345">
        <ele>581.2</ele>
        <time>2022-02-28T11:42:21Z</time>
      </trkpt>
      <trkpt lat="46.52519" lon="5.75342">
        <ele>581.2</ele>
        <time>2022-02-28T11:42:22Z</time>
      </trkpt>
      <trkpt lat="46.52511" lon="5.75338">
        <ele>581.2</ele>
        <time>2022-02-28T11:42:23Z</time>
      </trkpt>
      <trkpt lat="46.52503" lon="5.75334">
        <ele>581.2</ele>
        <time>2022-02-28T11:42:24Z</time>
      </trkpt>
      <trkpt lat="46.52495" lon="5.75331">
        <ele>581.2</ele>
        <time>2022-02-28T11:42:25Z</time>
      </trkpt>
      <trkpt lat="46.52488" lon="5.75327">
        <ele>581</ele>
        <time>2022-02-28T11:42:26Z</time>
      </trkpt>
      <trkpt lat="46.52481" lon="5.75324">
        <ele>581</ele>
        <time>2022-02-28T11:42:27Z</time>
      </trkpt>
      <trkpt lat="46.52473" lon="5.7532">
        <ele>581</ele>
        <time>2022-02-28T11:42:28Z</time>
      </trkpt>
      <trkpt lat="46.52465" lon="5.75316">
        <ele>581</ele>
        <time>2022-02-28T11:42:29Z</time>
      </trkpt>
      <trkpt lat="46.52458" lon="5.75312">
        <ele>581</ele>
        <time>2022-02-28T11:42:30Z</time>
      </trkpt>
      <trkpt lat="46.5245" lon="5.75308">
        <ele>581</ele>
        <time>2022-02-28T11:42:31Z</time>
      </trkpt>
      <trkpt lat="46.52443" lon="5.75304">
        <ele>581</ele>
        <time>2022-02-28T11:42:32Z</time>
      </trkpt>
      <trkpt lat="46.52435" lon="5.753">
        <ele>581</ele>
        <time>2022-02-28T11:42:33Z</time>
      </trkpt>
      <trkpt lat="46.52427" lon="5.75296">
        <ele>581</ele>
        <time>2022-02-28T11:42:34Z</time>
      </trkpt>
      <trkpt lat="46.52419" lon="5.75292">
        <ele>581</ele>
        <time>2022-02-28T11:42:35Z</time>
      </trkpt>
      <trkpt lat="46.52412" lon="5.75288">
        <ele>581</ele>
        <time>2022-02-28T11:42:36Z</time>
      </trkpt>
      <trkpt lat="46.52404" lon="5.75284">
        <ele>581</ele>
        <time>2022-02-28T11:42:37Z</time>
      </trkpt>
      <trkpt lat="46.52396" lon="5.75279">
        <ele>581</ele>
        <time>2022-02-28T11:42:38Z</time>
      </trkpt>
      <trkpt lat="46.52389" lon="5.75275">
        <ele>581</ele>
        <time>2022-02-28T11:42:39Z</time>
      </trkpt>
      <trkpt lat="46.52381" lon="5.75271">
        <ele>580.6</ele>
        <time>2022-02-28T11:42:40Z</time>
      </trkpt>
      <trkpt lat="46.52373" lon="5.75266">
        <ele>580.6</ele>
        <time>2022-02-28T11:42:41Z</time>
      </trkpt>
      <trkpt lat="46.52365" lon="5.75262">
        <ele>580.2</ele>
        <time>2022-02-28T11:42:42Z</time>
      </trkpt>
      <trkpt lat="46.52357" lon="5.75257">
        <ele>580</ele>
        <time>2022-02-28T11:42:43Z</time>
      </trkpt>
      <trkpt lat="46.5235" lon="5.75252">
        <ele>580</ele>
        <time>2022-02-28T11:42:44Z</time>
      </trkpt>
      <trkpt lat="46.52342" lon="5.75247">
        <ele>579.6</ele>
        <time>2022-02-28T11:42:45Z</time>
      </trkpt>
      <trkpt lat="46.52334" lon="5.75242">
        <ele>579.6</ele>
        <time>2022-02-28T11:42:46Z</time>
      </trkpt>
      <trkpt lat="46.52327" lon="5.75237">
        <ele>579.2</ele>
        <time>2022-02-28T11:42:47Z</time>
      </trkpt>
      <trkpt lat="46.52319" lon="5.75232">
        <ele>579.2</ele>
        <time>2022-02-28T11:42:48Z</time>
      </trkpt>
      <trkpt lat="46.52311" lon="5.75227">
        <ele>579</ele>
        <time>2022-02-28T11:42:49Z</time>
      </trkpt>
      <trkpt lat="46.52304" lon="5.75222">
        <ele>579</ele>
        <time>2022-02-28T11:42:50Z</time>
      </trkpt>
      <trkpt lat="46.52296" lon="5.75216">
        <ele>579</ele>
        <time>2022-02-28T11:42:51Z</time>
      </trkpt>
      <trkpt lat="46.52289" lon="5.75209">
        <ele>578.6</ele>
        <time>2022-02-28T11:42:52Z</time>
      </trkpt>
      <trkpt lat="46.52282" lon="5.75203">
        <ele>578.6</ele>
        <time>2022-02-28T11:42:53Z</time>
      </trkpt>
      <trkpt lat="46.52275" lon="5.75196">
        <ele>578.6</ele>
        <time>2022-02-28T11:42:54Z</time>
      </trkpt>
      <trkpt lat="46.52267" lon="5.75189">
        <ele>578.4</ele>
        <time>2022-02-28T11:42:55Z</time>
      </trkpt>
      <trkpt lat="46.5226" lon="5.75182">
        <ele>578.4</ele>
        <time>2022-02-28T11:42:56Z</time>
      </trkpt>
      <trkpt lat="46.52253" lon="5.75175">
        <ele>578</ele>
        <time>2022-02-28T11:42:57Z</time>
      </trkpt>
      <trkpt lat="46.52245" lon="5.75168">
        <ele>578</ele>
        <time>2022-02-28T11:42:58Z</time>
      </trkpt>
      <trkpt lat="46.52237" lon="5.75162">
        <ele>577.6</ele>
        <time>2022-02-28T11:42:59Z</time>
      </trkpt>
      <trkpt lat="46.52229" lon="5.75156">
        <ele>577.6</ele>
        <time>2022-02-28T11:43:00Z</time>
      </trkpt>
      <trkpt lat="46.52221" lon="5.75151">
        <ele>577.4</ele>
        <time>2022-02-28T11:43:01Z</time>
      </trkpt>
      <trkpt lat="46.52213" lon="5.75146">
        <ele>577.4</ele>
        <time>2022-02-28T11:43:02Z</time>
      </trkpt>
      <trkpt lat="46.52205" lon="5.75141">
        <ele>577.2</ele>
        <time>2022-02-28T11:43:03Z</time>
      </trkpt>
      <trkpt lat="46.52196" lon="5.75137">
        <ele>576.8</ele>
        <time>2022-02-28T11:43:04Z</time>
      </trkpt>
      <trkpt lat="46.52188" lon="5.75133">
        <ele>576.6</ele>
        <time>2022-02-28T11:43:05Z</time>
      </trkpt>
      <trkpt lat="46.52179" lon="5.75129">
        <ele>576.6</ele>
        <time>2022-02-28T11:43:06Z</time>
      </trkpt>
      <trkpt lat="46.5217" lon="5.75126">
        <ele>576.4</ele>
        <time>2022-02-28T11:43:07Z</time>
      </trkpt>
      <trkpt lat="46.52162" lon="5.75122">
        <ele>576.4</ele>
        <time>2022-02-28T11:43:08Z</time>
      </trkpt>
      <trkpt lat="46.52153" lon="5.75117">
        <ele>576</ele>
        <time>2022-02-28T11:43:09Z</time>
      </trkpt>
      <trkpt lat="46.52145" lon="5.75112">
        <ele>576</ele>
        <time>2022-02-28T11:43:10Z</time>
      </trkpt>
      <trkpt lat="46.52137" lon="5.75107">
        <ele>575.6</ele>
        <time>2022-02-28T11:43:11Z</time>
      </trkpt>
      <trkpt lat="46.52128" lon="5.75102">
        <ele>575.4</ele>
        <time>2022-02-28T11:43:12Z</time>
      </trkpt>
      <trkpt lat="46.5212" lon="5.75096">
        <ele>575</ele>
        <time>2022-02-28T11:43:13Z</time>
      </trkpt>
      <trkpt lat="46.52112" lon="5.75089">
        <ele>574.8</ele>
        <time>2022-02-28T11:43:14Z</time>
      </trkpt>
      <trkpt lat="46.52104" lon="5.75082">
        <ele>574.6</ele>
        <time>2022-02-28T11:43:15Z</time>
      </trkpt>
      <trkpt lat="46.52097" lon="5.75074">
        <ele>574.4</ele>
        <time>2022-02-28T11:43:16Z</time>
      </trkpt>
      <trkpt lat="46.52089" lon="5.75066">
        <ele>574.2</ele>
        <time>2022-02-28T11:43:17Z</time>
      </trkpt>
      <trkpt lat="46.52082" lon="5.75057">
        <ele>574.2</ele>
        <time>2022-02-28T11:43:18Z</time>
      </trkpt>
      <trkpt lat="46.52074" lon="5.75049">
        <ele>573.8</ele>
        <time>2022-02-28T11:43:19Z</time>
      </trkpt>
      <trkpt lat="46.52068" lon="5.7504">
        <ele>573.8</ele>
        <time>2022-02-28T11:43:20Z</time>
      </trkpt>
      <trkpt lat="46.52061" lon="5.75031">
        <ele>573.4</ele>
        <time>2022-02-28T11:43:21Z</time>
      </trkpt>
      <trkpt lat="46.52054" lon="5.75023">
        <ele>573.4</ele>
        <time>2022-02-28T11:43:22Z</time>
      </trkpt>
      <trkpt lat="46.52047" lon="5.75014">
        <ele>573.2</ele>
        <time>2022-02-28T11:43:23Z</time>
      </trkpt>
      <trkpt lat="46.52039" lon="5.75007">
        <ele>573.2</ele>
        <time>2022-02-28T11:43:24Z</time>
      </trkpt>
      <trkpt lat="46.52031" lon="5.74999">
        <ele>572.8</ele>
        <time>2022-02-28T11:43:25Z</time>
      </trkpt>
      <trkpt lat="46.52023" lon="5.74993">
        <ele>572.8</ele>
        <time>2022-02-28T11:43:26Z</time>
      </trkpt>
      <trkpt lat="46.52016" lon="5.74986">
        <ele>572.6</ele>
        <time>2022-02-28T11:43:27Z</time>
      </trkpt>
      <trkpt lat="46.52008" lon="5.74979">
        <ele>572.6</ele>
        <time>2022-02-28T11:43:28Z</time>
      </trkpt>
      <trkpt lat="46.51999" lon="5.74974">
        <ele>572.4</ele>
        <time>2022-02-28T11:43:29Z</time>
      </trkpt>
      <trkpt lat="46.51991" lon="5.74968">
        <ele>572.4</ele>
        <time>2022-02-28T11:43:30Z</time>
      </trkpt>
      <trkpt lat="46.51983" lon="5.74964">
        <ele>572.4</ele>
        <time>2022-02-28T11:43:31Z</time>
      </trkpt>
      <trkpt lat="46.51974" lon="5.74959">
        <ele>572</ele>
        <time>2022-02-28T11:43:32Z</time>
      </trkpt>
      <trkpt lat="46.51966" lon="5.74956">
        <ele>572</ele>
        <time>2022-02-28T11:43:33Z</time>
      </trkpt>
      <trkpt lat="46.51958" lon="5.74952">
        <ele>571.6</ele>
        <time>2022-02-28T11:43:34Z</time>
      </trkpt>
      <trkpt lat="46.51949" lon="5.74949">
        <ele>571.6</ele>
        <time>2022-02-28T11:43:35Z</time>
      </trkpt>
      <trkpt lat="46.51941" lon="5.74946">
        <ele>571.6</ele>
        <time>2022-02-28T11:43:36Z</time>
      </trkpt>
      <trkpt lat="46.51933" lon="5.74943">
        <ele>571.4</ele>
        <time>2022-02-28T11:43:37Z</time>
      </trkpt>
      <trkpt lat="46.51925" lon="5.7494">
        <ele>571.4</ele>
        <time>2022-02-28T11:43:38Z</time>
      </trkpt>
      <trkpt lat="46.51917" lon="5.74937">
        <ele>571.4</ele>
        <time>2022-02-28T11:43:39Z</time>
      </trkpt>
      <trkpt lat="46.51909" lon="5.74934">
        <ele>571.4</ele>
        <time>2022-02-28T11:43:40Z</time>
      </trkpt>
      <trkpt lat="46.51894" lon="5.74929">
        <ele>571.4</ele>
        <time>2022-02-28T11:43:41Z</time>
      </trkpt>
      <trkpt lat="46.51886" lon="5.74926">
        <ele>571.4</ele>
        <time>2022-02-28T11:43:42Z</time>
      </trkpt>
      <trkpt lat="46.51878" lon="5.74923">
        <ele>571.4</ele>
        <time>2022-02-28T11:43:43Z</time>
      </trkpt>
      <trkpt lat="46.51871" lon="5.7492">
        <ele>571.4</ele>
        <time>2022-02-28T11:43:44Z</time>
      </trkpt>
      <trkpt lat="46.51863" lon="5.74918">
        <ele>571.4</ele>
        <time>2022-02-28T11:43:45Z</time>
      </trkpt>
      <trkpt lat="46.51856" lon="5.74915">
        <ele>571.4</ele>
        <time>2022-02-28T11:43:46Z</time>
      </trkpt>
      <trkpt lat="46.51848" lon="5.74913">
        <ele>571.4</ele>
        <time>2022-02-28T11:43:47Z</time>
      </trkpt>
      <trkpt lat="46.51841" lon="5.7491">
        <ele>571.4</ele>
        <time>2022-02-28T11:43:48Z</time>
      </trkpt>
      <trkpt lat="46.51834" lon="5.74908">
        <ele>571.6</ele>
        <time>2022-02-28T11:43:49Z</time>
      </trkpt>
      <trkpt lat="46.51827" lon="5.74906">
        <ele>571.6</ele>
        <time>2022-02-28T11:43:50Z</time>
      </trkpt>
      <trkpt lat="46.5182" lon="5.74903">
        <ele>571.6</ele>
        <time>2022-02-28T11:43:51Z</time>
      </trkpt>
      <trkpt lat="46.51814" lon="5.74901">
        <ele>571.8</ele>
        <time>2022-02-28T11:43:52Z</time>
      </trkpt>
      <trkpt lat="46.51807" lon="5.74899">
        <ele>571.8</ele>
        <time>2022-02-28T11:43:53Z</time>
      </trkpt>
      <trkpt lat="46.51801" lon="5.74898">
        <ele>572.2</ele>
        <time>2022-02-28T11:43:54Z</time>
      </trkpt>
      <trkpt lat="46.51794" lon="5.74896">
        <ele>572.2</ele>
        <time>2022-02-28T11:43:55Z</time>
      </trkpt>
      <trkpt lat="46.51788" lon="5.74894">
        <ele>572.4</ele>
        <time>2022-02-28T11:43:56Z</time>
      </trkpt>
      <trkpt lat="46.51781" lon="5.74892">
        <ele>572.4</ele>
        <time>2022-02-28T11:43:57Z</time>
      </trkpt>
      <trkpt lat="46.51775" lon="5.7489">
        <ele>572.8</ele>
        <time>2022-02-28T11:43:58Z</time>
      </trkpt>
      <trkpt lat="46.51768" lon="5.74889">
        <ele>572.8</ele>
        <time>2022-02-28T11:43:59Z</time>
      </trkpt>
      <trkpt lat="46.51762" lon="5.74888">
        <ele>573.2</ele>
        <time>2022-02-28T11:44:00Z</time>
      </trkpt>
      <trkpt lat="46.51755" lon="5.74887">
        <ele>573.4</ele>
        <time>2022-02-28T11:44:01Z</time>
      </trkpt>
      <trkpt lat="46.51749" lon="5.74886">
        <ele>573.6</ele>
        <time>2022-02-28T11:44:02Z</time>
      </trkpt>
      <trkpt lat="46.51742" lon="5.74885">
        <ele>573.8</ele>
        <time>2022-02-28T11:44:03Z</time>
      </trkpt>
      <trkpt lat="46.51736" lon="5.74885">
        <ele>573.8</ele>
        <time>2022-02-28T11:44:04Z</time>
      </trkpt>
      <trkpt lat="46.5173" lon="5.74884">
        <ele>574.2</ele>
        <time>2022-02-28T11:44:05Z</time>
      </trkpt>
      <trkpt lat="46.51724" lon="5.74884">
        <ele>574.2</ele>
        <time>2022-02-28T11:44:06Z</time>
      </trkpt>
      <trkpt lat="46.51717" lon="5.74883">
        <ele>574.6</ele>
        <time>2022-02-28T11:44:07Z</time>
      </trkpt>
      <trkpt lat="46.51711" lon="5.74883">
        <ele>574.6</ele>
        <time>2022-02-28T11:44:08Z</time>
      </trkpt>
      <trkpt lat="46.51705" lon="5.74883">
        <ele>574.8</ele>
        <time>2022-02-28T11:44:09Z</time>
      </trkpt>
      <trkpt lat="46.51699" lon="5.74883">
        <ele>574.8</ele>
        <time>2022-02-28T11:44:10Z</time>
      </trkpt>
      <trkpt lat="46.51693" lon="5.74883">
        <ele>575.2</ele>
        <time>2022-02-28T11:44:11Z</time>
      </trkpt>
      <trkpt lat="46.51687" lon="5.74883">
        <ele>575.4</ele>
        <time>2022-02-28T11:44:12Z</time>
      </trkpt>
      <trkpt lat="46.51681" lon="5.74883">
        <ele>575.4</ele>
        <time>2022-02-28T11:44:13Z</time>
      </trkpt>
      <trkpt lat="46.51675" lon="5.74884">
        <ele>575.6</ele>
        <time>2022-02-28T11:44:14Z</time>
      </trkpt>
      <trkpt lat="46.51669" lon="5.74884">
        <ele>575.6</ele>
        <time>2022-02-28T11:44:15Z</time>
      </trkpt>
      <trkpt lat="46.51663" lon="5.74884">
        <ele>576</ele>
        <time>2022-02-28T11:44:16Z</time>
      </trkpt>
      <trkpt lat="46.51657" lon="5.74885">
        <ele>576</ele>
        <time>2022-02-28T11:44:17Z</time>
      </trkpt>
      <trkpt lat="46.51651" lon="5.74885">
        <ele>576.2</ele>
        <time>2022-02-28T11:44:18Z</time>
      </trkpt>
      <trkpt lat="46.51645" lon="5.74885">
        <ele>576.2</ele>
        <time>2022-02-28T11:44:19Z</time>
      </trkpt>
      <trkpt lat="46.5164" lon="5.74886">
        <ele>576.6</ele>
        <time>2022-02-28T11:44:20Z</time>
      </trkpt>
      <trkpt lat="46.51634" lon="5.74886">
        <ele>576.6</ele>
        <time>2022-02-28T11:44:21Z</time>
      </trkpt>
      <trkpt lat="46.51629" lon="5.74887">
        <ele>576.8</ele>
        <time>2022-02-28T11:44:22Z</time>
      </trkpt>
      <trkpt lat="46.51624" lon="5.74889">
        <ele>576.8</ele>
        <time>2022-02-28T11:44:23Z</time>
      </trkpt>
      <trkpt lat="46.51618" lon="5.7489">
        <ele>577</ele>
        <time>2022-02-28T11:44:24Z</time>
      </trkpt>
      <trkpt lat="46.51613" lon="5.74892">
        <ele>577</ele>
        <time>2022-02-28T11:44:25Z</time>
      </trkpt>
      <trkpt lat="46.51607" lon="5.74893">
        <ele>577</ele>
        <time>2022-02-28T11:44:26Z</time>
      </trkpt>
      <trkpt lat="46.51602" lon="5.74894">
        <ele>577.2</ele>
        <time>2022-02-28T11:44:27Z</time>
      </trkpt>
      <trkpt lat="46.51596" lon="5.74895">
        <ele>577.2</ele>
        <time>2022-02-28T11:44:28Z</time>
      </trkpt>
      <trkpt lat="46.51591" lon="5.74896">
        <ele>577.2</ele>
        <time>2022-02-28T11:44:29Z</time>
      </trkpt>
      <trkpt lat="46.51585" lon="5.74898">
        <ele>577.6</ele>
        <time>2022-02-28T11:44:30Z</time>
      </trkpt>
      <trkpt lat="46.5158" lon="5.749">
        <ele>577.6</ele>
        <time>2022-02-28T11:44:31Z</time>
      </trkpt>
      <trkpt lat="46.51574" lon="5.74903">
        <ele>577.6</ele>
        <time>2022-02-28T11:44:32Z</time>
      </trkpt>
      <trkpt lat="46.51568" lon="5.74905">
        <ele>577.6</ele>
        <time>2022-02-28T11:44:33Z</time>
      </trkpt>
      <trkpt lat="46.51562" lon="5.74907">
        <ele>577.6</ele>
        <time>2022-02-28T11:44:34Z</time>
      </trkpt>
      <trkpt lat="46.51556" lon="5.74908">
        <ele>577.8</ele>
        <time>2022-02-28T11:44:35Z</time>
      </trkpt>
      <trkpt lat="46.5155" lon="5.7491">
        <ele>577.8</ele>
        <time>2022-02-28T11:44:36Z</time>
      </trkpt>
      <trkpt lat="46.51544" lon="5.74913">
        <ele>577.8</ele>
        <time>2022-02-28T11:44:37Z</time>
      </trkpt>
      <trkpt lat="46.51537" lon="5.74915">
        <ele>577.8</ele>
        <time>2022-02-28T11:44:38Z</time>
      </trkpt>
      <trkpt lat="46.51531" lon="5.74917">
        <ele>577.8</ele>
        <time>2022-02-28T11:44:39Z</time>
      </trkpt>
      <trkpt lat="46.51525" lon="5.74919">
        <ele>577.8</ele>
        <time>2022-02-28T11:44:40Z</time>
      </trkpt>
      <trkpt lat="46.51519" lon="5.74921">
        <ele>578</ele>
        <time>2022-02-28T11:44:41Z</time>
      </trkpt>
      <trkpt lat="46.51513" lon="5.74923">
        <ele>578</ele>
        <time>2022-02-28T11:44:42Z</time>
      </trkpt>
      <trkpt lat="46.51507" lon="5.74924">
        <ele>578</ele>
        <time>2022-02-28T11:44:43Z</time>
      </trkpt>
      <trkpt lat="46.515" lon="5.74927">
        <ele>578</ele>
        <time>2022-02-28T11:44:44Z</time>
      </trkpt>
      <trkpt lat="46.51494" lon="5.74928">
        <ele>578</ele>
        <time>2022-02-28T11:44:45Z</time>
      </trkpt>
      <trkpt lat="46.51488" lon="5.7493">
        <ele>578</ele>
        <time>2022-02-28T11:44:46Z</time>
      </trkpt>
      <trkpt lat="46.51482" lon="5.74932">
        <ele>578</ele>
        <time>2022-02-28T11:44:47Z</time>
      </trkpt>
      <trkpt lat="46.51475" lon="5.74934">
        <ele>578</ele>
        <time>2022-02-28T11:44:48Z</time>
      </trkpt>
      <trkpt lat="46.51469" lon="5.74935">
        <ele>578</ele>
        <time>2022-02-28T11:44:49Z</time>
      </trkpt>
      <trkpt lat="46.51463" lon="5.74937">
        <ele>578</ele>
        <time>2022-02-28T11:44:50Z</time>
      </trkpt>
      <trkpt lat="46.51456" lon="5.74939">
        <ele>578</ele>
        <time>2022-02-28T11:44:51Z</time>
      </trkpt>
      <trkpt lat="46.5145" lon="5.74941">
        <ele>578</ele>
        <time>2022-02-28T11:44:52Z</time>
      </trkpt>
      <trkpt lat="46.51444" lon="5.74942">
        <ele>578</ele>
        <time>2022-02-28T11:44:53Z</time>
      </trkpt>
      <trkpt lat="46.51437" lon="5.74944">
        <ele>578.2</ele>
        <time>2022-02-28T11:44:54Z</time>
      </trkpt>
      <trkpt lat="46.51437" lon="5.74944">
        <ele>578.2</ele>
        <time>2022-02-28T11:44:55Z</time>
      </trkpt>
      <trkpt lat="46.51431" lon="5.74946">
        <ele>578.2</ele>
        <time>2022-02-28T11:44:56Z</time>
      </trkpt>
      <trkpt lat="46.51424" lon="5.74947">
        <ele>578.2</ele>
        <time>2022-02-28T11:44:57Z</time>
      </trkpt>
      <trkpt lat="46.51418" lon="5.74949">
        <ele>578.2</ele>
        <time>2022-02-28T11:44:58Z</time>
      </trkpt>
      <trkpt lat="46.51412" lon="5.7495">
        <ele>578.2</ele>
        <time>2022-02-28T11:44:59Z</time>
      </trkpt>
      <trkpt lat="46.51405" lon="5.7495">
        <ele>578.2</ele>
        <time>2022-02-28T11:45:00Z</time>
      </trkpt>
      <trkpt lat="46.51398" lon="5.74949">
        <ele>578.2</ele>
        <time>2022-02-28T11:45:01Z</time>
      </trkpt>
      <trkpt lat="46.51392" lon="5.74947">
        <ele>578.2</ele>
        <time>2022-02-28T11:45:02Z</time>
      </trkpt>
      <trkpt lat="46.51385" lon="5.74945">
        <ele>578.2</ele>
        <time>2022-02-28T11:45:03Z</time>
      </trkpt>
      <trkpt lat="46.51379" lon="5.74942">
        <ele>578.2</ele>
        <time>2022-02-28T11:45:04Z</time>
      </trkpt>
      <trkpt lat="46.51372" lon="5.74939">
        <ele>578</ele>
        <time>2022-02-28T11:45:05Z</time>
      </trkpt>
      <trkpt lat="46.51366" lon="5.74936">
        <ele>578</ele>
        <time>2022-02-28T11:45:06Z</time>
      </trkpt>
      <trkpt lat="46.51359" lon="5.74933">
        <ele>578</ele>
        <time>2022-02-28T11:45:07Z</time>
      </trkpt>
      <trkpt lat="46.51353" lon="5.7493">
        <ele>578</ele>
        <time>2022-02-28T11:45:08Z</time>
      </trkpt>
      <trkpt lat="46.51346" lon="5.74927">
        <ele>577.8</ele>
        <time>2022-02-28T11:45:09Z</time>
      </trkpt>
      <trkpt lat="46.5134" lon="5.74924">
        <ele>577.8</ele>
        <time>2022-02-28T11:45:10Z</time>
      </trkpt>
      <trkpt lat="46.51333" lon="5.7492">
        <ele>577.8</ele>
        <time>2022-02-28T11:45:11Z</time>
      </trkpt>
      <trkpt lat="46.51327" lon="5.74917">
        <ele>577.8</ele>
        <time>2022-02-28T11:45:12Z</time>
      </trkpt>
      <trkpt lat="46.5132" lon="5.74914">
        <ele>577.8</ele>
        <time>2022-02-28T11:45:13Z</time>
      </trkpt>
      <trkpt lat="46.51313" lon="5.74912">
        <ele>577.8</ele>
        <time>2022-02-28T11:45:14Z</time>
      </trkpt>
      <trkpt lat="46.51307" lon="5.7491">
        <ele>577.4</ele>
        <time>2022-02-28T11:45:15Z</time>
      </trkpt>
      <trkpt lat="46.51299" lon="5.74909">
        <ele>577.4</ele>
        <time>2022-02-28T11:45:16Z</time>
      </trkpt>
      <trkpt lat="46.51292" lon="5.74908">
        <ele>577.2</ele>
        <time>2022-02-28T11:45:17Z</time>
      </trkpt>
      <trkpt lat="46.51285" lon="5.74908">
        <ele>577.2</ele>
        <time>2022-02-28T11:45:18Z</time>
      </trkpt>
      <trkpt lat="46.51278" lon="5.7491">
        <ele>577.2</ele>
        <time>2022-02-28T11:45:19Z</time>
      </trkpt>
      <trkpt lat="46.51271" lon="5.74912">
        <ele>577</ele>
        <time>2022-02-28T11:45:20Z</time>
      </trkpt>
      <trkpt lat="46.51264" lon="5.74914">
        <ele>577</ele>
        <time>2022-02-28T11:45:21Z</time>
      </trkpt>
      <trkpt lat="46.51257" lon="5.74917">
        <ele>576.6</ele>
        <time>2022-02-28T11:45:22Z</time>
      </trkpt>
      <trkpt lat="46.5125" lon="5.7492">
        <ele>576.6</ele>
        <time>2022-02-28T11:45:23Z</time>
      </trkpt>
      <trkpt lat="46.51243" lon="5.74923">
        <ele>576.4</ele>
        <time>2022-02-28T11:45:24Z</time>
      </trkpt>
      <trkpt lat="46.51236" lon="5.74925">
        <ele>576.4</ele>
        <time>2022-02-28T11:45:25Z</time>
      </trkpt>
      <trkpt lat="46.51229" lon="5.74927">
        <ele>576</ele>
        <time>2022-02-28T11:45:26Z</time>
      </trkpt>
      <trkpt lat="46.51221" lon="5.74928">
        <ele>576</ele>
        <time>2022-02-28T11:45:27Z</time>
      </trkpt>
      <trkpt lat="46.51214" lon="5.74929">
        <ele>575.8</ele>
        <time>2022-02-28T11:45:28Z</time>
      </trkpt>
      <trkpt lat="46.51206" lon="5.7493">
        <ele>575.8</ele>
        <time>2022-02-28T11:45:29Z</time>
      </trkpt>
      <trkpt lat="46.51198" lon="5.7493">
        <ele>575.6</ele>
        <time>2022-02-28T11:45:30Z</time>
      </trkpt>
      <trkpt lat="46.51191" lon="5.74931">
        <ele>575.6</ele>
        <time>2022-02-28T11:45:31Z</time>
      </trkpt>
      <trkpt lat="46.51183" lon="5.74932">
        <ele>575.6</ele>
        <time>2022-02-28T11:45:32Z</time>
      </trkpt>
      <trkpt lat="46.51176" lon="5.74932">
        <ele>575.2</ele>
        <time>2022-02-28T11:45:33Z</time>
      </trkpt>
      <trkpt lat="46.51168" lon="5.74932">
        <ele>575.2</ele>
        <time>2022-02-28T11:45:34Z</time>
      </trkpt>
      <trkpt lat="46.51161" lon="5.74932">
        <ele>574.8</ele>
        <time>2022-02-28T11:45:35Z</time>
      </trkpt>
      <trkpt lat="46.51153" lon="5.74932">
        <ele>574.6</ele>
        <time>2022-02-28T11:45:36Z</time>
      </trkpt>
      <trkpt lat="46.51144" lon="5.74931">
        <ele>574.6</ele>
        <time>2022-02-28T11:45:37Z</time>
      </trkpt>
      <trkpt lat="46.51136" lon="5.7493">
        <ele>574.4</ele>
        <time>2022-02-28T11:45:38Z</time>
      </trkpt>
      <trkpt lat="46.51128" lon="5.74928">
        <ele>574.2</ele>
        <time>2022-02-28T11:45:39Z</time>
      </trkpt>
      <trkpt lat="46.51119" lon="5.74925">
        <ele>574</ele>
        <time>2022-02-28T11:45:40Z</time>
      </trkpt>
      <trkpt lat="46.51111" lon="5.74921">
        <ele>573.8</ele>
        <time>2022-02-28T11:45:41Z</time>
      </trkpt>
      <trkpt lat="46.51103" lon="5.74916">
        <ele>573.8</ele>
        <time>2022-02-28T11:45:42Z</time>
      </trkpt>
      <trkpt lat="46.51095" lon="5.7491">
        <ele>573.4</ele>
        <time>2022-02-28T11:45:43Z</time>
      </trkpt>
      <trkpt lat="46.51087" lon="5.74905">
        <ele>573.4</ele>
        <time>2022-02-28T11:45:44Z</time>
      </trkpt>
      <trkpt lat="46.51078" lon="5.749">
        <ele>573</ele>
        <time>2022-02-28T11:45:45Z</time>
      </trkpt>
      <trkpt lat="46.5107" lon="5.74894">
        <ele>572.8</ele>
        <time>2022-02-28T11:45:46Z</time>
      </trkpt>
      <trkpt lat="46.51062" lon="5.74889">
        <ele>572.6</ele>
        <time>2022-02-28T11:45:47Z</time>
      </trkpt>
      <trkpt lat="46.51054" lon="5.74884">
        <ele>572.2</ele>
        <time>2022-02-28T11:45:48Z</time>
      </trkpt>
      <trkpt lat="46.51045" lon="5.74879">
        <ele>572</ele>
        <time>2022-02-28T11:45:49Z</time>
      </trkpt>
      <trkpt lat="46.51037" lon="5.74874">
        <ele>571.6</ele>
        <time>2022-02-28T11:45:50Z</time>
      </trkpt>
      <trkpt lat="46.51028" lon="5.7487">
        <ele>571.4</ele>
        <time>2022-02-28T11:45:51Z</time>
      </trkpt>
      <trkpt lat="46.51019" lon="5.74865">
        <ele>571</ele>
        <time>2022-02-28T11:45:52Z</time>
      </trkpt>
      <trkpt lat="46.5101" lon="5.74861">
        <ele>570.8</ele>
        <time>2022-02-28T11:45:53Z</time>
      </trkpt>
      <trkpt lat="46.51002" lon="5.74856">
        <ele>570.8</ele>
        <time>2022-02-28T11:45:54Z</time>
      </trkpt>
      <trkpt lat="46.50993" lon="5.74852">
        <ele>570.6</ele>
        <time>2022-02-28T11:45:55Z</time>
      </trkpt>
      <trkpt lat="46.50984" lon="5.74848">
        <ele>570.6</ele>
        <time>2022-02-28T11:45:56Z</time>
      </trkpt>
      <trkpt lat="46.50975" lon="5.74843">
        <ele>570.2</ele>
        <time>2022-02-28T11:45:57Z</time>
      </trkpt>
      <trkpt lat="46.50967" lon="5.74838">
        <ele>570.2</ele>
        <time>2022-02-28T11:45:58Z</time>
      </trkpt>
      <trkpt lat="46.50959" lon="5.74833">
        <ele>570.2</ele>
        <time>2022-02-28T11:45:59Z</time>
      </trkpt>
      <trkpt lat="46.50951" lon="5.74829">
        <ele>570.2</ele>
        <time>2022-02-28T11:46:00Z</time>
      </trkpt>
      <trkpt lat="46.50943" lon="5.74823">
        <ele>570.2</ele>
        <time>2022-02-28T11:46:01Z</time>
      </trkpt>
      <trkpt lat="46.50935" lon="5.74817">
        <ele>570.2</ele>
        <time>2022-02-28T11:46:02Z</time>
      </trkpt>
      <trkpt lat="46.50929" lon="5.74811">
        <ele>570.2</ele>
        <time>2022-02-28T11:46:03Z</time>
      </trkpt>
      <trkpt lat="46.50922" lon="5.74805">
        <ele>570.2</ele>
        <time>2022-02-28T11:46:04Z</time>
      </trkpt>
      <trkpt lat="46.50916" lon="5.74799">
        <ele>570.6</ele>
        <time>2022-02-28T11:46:05Z</time>
      </trkpt>
      <trkpt lat="46.5091" lon="5.74792">
        <ele>570.8</ele>
        <time>2022-02-28T11:46:06Z</time>
      </trkpt>
      <trkpt lat="46.50904" lon="5.74786">
        <ele>571</ele>
        <time>2022-02-28T11:46:07Z</time>
      </trkpt>
      <trkpt lat="46.50899" lon="5.7478">
        <ele>571</ele>
        <time>2022-02-28T11:46:08Z</time>
      </trkpt>
      <trkpt lat="46.50893" lon="5.74774">
        <ele>571.2</ele>
        <time>2022-02-28T11:46:09Z</time>
      </trkpt>
      <trkpt lat="46.50888" lon="5.74768">
        <ele>571.2</ele>
        <time>2022-02-28T11:46:10Z</time>
      </trkpt>
      <trkpt lat="46.50882" lon="5.74762">
        <ele>571.2</ele>
        <time>2022-02-28T11:46:11Z</time>
      </trkpt>
      <trkpt lat="46.50877" lon="5.74757">
        <ele>571.6</ele>
        <time>2022-02-28T11:46:12Z</time>
      </trkpt>
      <trkpt lat="46.50871" lon="5.7475">
        <ele>571.6</ele>
        <time>2022-02-28T11:46:13Z</time>
      </trkpt>
      <trkpt lat="46.50866" lon="5.74744">
        <ele>572</ele>
        <time>2022-02-28T11:46:14Z</time>
      </trkpt>
      <trkpt lat="46.50861" lon="5.74738">
        <ele>572.2</ele>
        <time>2022-02-28T11:46:15Z</time>
      </trkpt>
      <trkpt lat="46.50856" lon="5.74732">
        <ele>572.2</ele>
        <time>2022-02-28T11:46:16Z</time>
      </trkpt>
      <trkpt lat="46.50851" lon="5.74726">
        <ele>572.6</ele>
        <time>2022-02-28T11:46:17Z</time>
      </trkpt>
      <trkpt lat="46.50845" lon="5.74719">
        <ele>572.6</ele>
        <time>2022-02-28T11:46:18Z</time>
      </trkpt>
      <trkpt lat="46.50841" lon="5.74713">
        <ele>572.6</ele>
        <time>2022-02-28T11:46:19Z</time>
      </trkpt>
      <trkpt lat="46.50837" lon="5.74706">
        <ele>572.6</ele>
        <time>2022-02-28T11:46:20Z</time>
      </trkpt>
      <trkpt lat="46.50833" lon="5.74699">
        <ele>572.6</ele>
        <time>2022-02-28T11:46:21Z</time>
      </trkpt>
      <trkpt lat="46.5083" lon="5.74692">
        <ele>572.6</ele>
        <time>2022-02-28T11:46:22Z</time>
      </trkpt>
      <trkpt lat="46.50827" lon="5.74684">
        <ele>572.6</ele>
        <time>2022-02-28T11:46:23Z</time>
      </trkpt>
      <trkpt lat="46.50824" lon="5.74676">
        <ele>572.6</ele>
        <time>2022-02-28T11:46:24Z</time>
      </trkpt>
      <trkpt lat="46.50821" lon="5.74667">
        <ele>572.6</ele>
        <time>2022-02-28T11:46:25Z</time>
      </trkpt>
      <trkpt lat="46.50818" lon="5.74658">
        <ele>572.6</ele>
        <time>2022-02-28T11:46:26Z</time>
      </trkpt>
      <trkpt lat="46.50815" lon="5.74648">
        <ele>572.6</ele>
        <time>2022-02-28T11:46:27Z</time>
      </trkpt>
      <trkpt lat="46.50811" lon="5.74638">
        <ele>572.6</ele>
        <time>2022-02-28T11:46:28Z</time>
      </trkpt>
      <trkpt lat="46.50807" lon="5.74628">
        <ele>572.2</ele>
        <time>2022-02-28T11:46:29Z</time>
      </trkpt>
      <trkpt lat="46.50803" lon="5.74618">
        <ele>572</ele>
        <time>2022-02-28T11:46:30Z</time>
      </trkpt>
      <trkpt lat="46.50799" lon="5.74607">
        <ele>571.6</ele>
        <time>2022-02-28T11:46:31Z</time>
      </trkpt>
      <trkpt lat="46.50795" lon="5.74596">
        <ele>571.4</ele>
        <time>2022-02-28T11:46:32Z</time>
      </trkpt>
      <trkpt lat="46.5079" lon="5.74585">
        <ele>571.2</ele>
        <time>2022-02-28T11:46:33Z</time>
      </trkpt>
      <trkpt lat="46.50786" lon="5.74574">
        <ele>570.8</ele>
        <time>2022-02-28T11:46:34Z</time>
      </trkpt>
      <trkpt lat="46.50782" lon="5.74562">
        <ele>570.6</ele>
        <time>2022-02-28T11:46:35Z</time>
      </trkpt>
      <trkpt lat="46.50777" lon="5.7455">
        <ele>570.2</ele>
        <time>2022-02-28T11:46:36Z</time>
      </trkpt>
      <trkpt lat="46.50773" lon="5.74539">
        <ele>570</ele>
        <time>2022-02-28T11:46:37Z</time>
      </trkpt>
      <trkpt lat="46.50769" lon="5.74527">
        <ele>569.6</ele>
        <time>2022-02-28T11:46:38Z</time>
      </trkpt>
      <trkpt lat="46.50765" lon="5.74515">
        <ele>569.4</ele>
        <time>2022-02-28T11:46:39Z</time>
      </trkpt>
      <trkpt lat="46.5076" lon="5.74503">
        <ele>569</ele>
        <time>2022-02-28T11:46:40Z</time>
      </trkpt>
      <trkpt lat="46.50755" lon="5.7449">
        <ele>568.6</ele>
        <time>2022-02-28T11:46:41Z</time>
      </trkpt>
      <trkpt lat="46.5075" lon="5.74477">
        <ele>568.2</ele>
        <time>2022-02-28T11:46:42Z</time>
      </trkpt>
      <trkpt lat="46.50746" lon="5.74465">
        <ele>567.8</ele>
        <time>2022-02-28T11:46:43Z</time>
      </trkpt>
      <trkpt lat="46.50741" lon="5.74452">
        <ele>567.4</ele>
        <time>2022-02-28T11:46:44Z</time>
      </trkpt>
      <trkpt lat="46.50737" lon="5.7444">
        <ele>567</ele>
        <time>2022-02-28T11:46:45Z</time>
      </trkpt>
      <trkpt lat="46.50732" lon="5.74427">
        <ele>566.4</ele>
        <time>2022-02-28T11:46:46Z</time>
      </trkpt>
      <trkpt lat="46.50727" lon="5.74414">
        <ele>566</ele>
        <time>2022-02-28T11:46:47Z</time>
      </trkpt>
      <trkpt lat="46.50723" lon="5.74401">
        <ele>565.6</ele>
        <time>2022-02-28T11:46:48Z</time>
      </trkpt>
      <trkpt lat="46.50718" lon="5.74389">
        <ele>565.2</ele>
        <time>2022-02-28T11:46:49Z</time>
      </trkpt>
      <trkpt lat="46.50713" lon="5.74377">
        <ele>564.8</ele>
        <time>2022-02-28T11:46:50Z</time>
      </trkpt>
      <trkpt lat="46.50707" lon="5.74364">
        <ele>564.4</ele>
        <time>2022-02-28T11:46:51Z</time>
      </trkpt>
      <trkpt lat="46.50701" lon="5.74353">
        <ele>564</ele>
        <time>2022-02-28T11:46:52Z</time>
      </trkpt>
      <trkpt lat="46.50693" lon="5.74343">
        <ele>563.6</ele>
        <time>2022-02-28T11:46:53Z</time>
      </trkpt>
      <trkpt lat="46.50685" lon="5.74335">
        <ele>563.2</ele>
        <time>2022-02-28T11:46:54Z</time>
      </trkpt>
      <trkpt lat="46.50676" lon="5.74328">
        <ele>562.8</ele>
        <time>2022-02-28T11:46:55Z</time>
      </trkpt>
      <trkpt lat="46.50666" lon="5.74323">
        <ele>562.6</ele>
        <time>2022-02-28T11:46:56Z</time>
      </trkpt>
      <trkpt lat="46.50655" lon="5.74319">
        <ele>562.2</ele>
        <time>2022-02-28T11:46:57Z</time>
      </trkpt>
      <trkpt lat="46.50645" lon="5.74316">
        <ele>562</ele>
        <time>2022-02-28T11:46:58Z</time>
      </trkpt>
      <trkpt lat="46.50634" lon="5.74314">
        <ele>561.6</ele>
        <time>2022-02-28T11:46:59Z</time>
      </trkpt>
      <trkpt lat="46.50623" lon="5.74312">
        <ele>561.2</ele>
        <time>2022-02-28T11:47:00Z</time>
      </trkpt>
      <trkpt lat="46.50612" lon="5.7431">
        <ele>560.8</ele>
        <time>2022-02-28T11:47:01Z</time>
      </trkpt>
      <trkpt lat="46.50602" lon="5.74308">
        <ele>560.2</ele>
        <time>2022-02-28T11:47:02Z</time>
      </trkpt>
      <trkpt lat="46.50591" lon="5.74306">
        <ele>559.8</ele>
        <time>2022-02-28T11:47:03Z</time>
      </trkpt>
      <trkpt lat="46.5058" lon="5.74304">
        <ele>559.6</ele>
        <time>2022-02-28T11:47:04Z</time>
      </trkpt>
      <trkpt lat="46.5057" lon="5.74301">
        <ele>559.2</ele>
        <time>2022-02-28T11:47:05Z</time>
      </trkpt>
      <trkpt lat="46.50559" lon="5.74298">
        <ele>558.8</ele>
        <time>2022-02-28T11:47:06Z</time>
      </trkpt>
      <trkpt lat="46.50549" lon="5.74294">
        <ele>558.2</ele>
        <time>2022-02-28T11:47:07Z</time>
      </trkpt>
      <trkpt lat="46.50539" lon="5.74288">
        <ele>557.8</ele>
        <time>2022-02-28T11:47:08Z</time>
      </trkpt>
      <trkpt lat="46.50529" lon="5.74282">
        <ele>557.6</ele>
        <time>2022-02-28T11:47:09Z</time>
      </trkpt>
      <trkpt lat="46.50519" lon="5.74275">
        <ele>557.4</ele>
        <time>2022-02-28T11:47:10Z</time>
      </trkpt>
      <trkpt lat="46.5051" lon="5.74267">
        <ele>557.4</ele>
        <time>2022-02-28T11:47:11Z</time>
      </trkpt>
      <trkpt lat="46.50501" lon="5.74257">
        <ele>557</ele>
        <time>2022-02-28T11:47:12Z</time>
      </trkpt>
      <trkpt lat="46.50493" lon="5.74246">
        <ele>557</ele>
        <time>2022-02-28T11:47:13Z</time>
      </trkpt>
      <trkpt lat="46.50486" lon="5.74235">
        <ele>556.6</ele>
        <time>2022-02-28T11:47:14Z</time>
      </trkpt>
      <trkpt lat="46.5048" lon="5.74223">
        <ele>556.6</ele>
        <time>2022-02-28T11:47:15Z</time>
      </trkpt>
      <trkpt lat="46.50474" lon="5.7421">
        <ele>556.6</ele>
        <time>2022-02-28T11:47:16Z</time>
      </trkpt>
      <trkpt lat="46.50469" lon="5.74197">
        <ele>556.4</ele>
        <time>2022-02-28T11:47:17Z</time>
      </trkpt>
      <trkpt lat="46.50465" lon="5.74184">
        <ele>556.4</ele>
        <time>2022-02-28T11:47:18Z</time>
      </trkpt>
      <trkpt lat="46.50461" lon="5.7417">
        <ele>556.4</ele>
        <time>2022-02-28T11:47:19Z</time>
      </trkpt>
      <trkpt lat="46.50453" lon="5.74144">
        <ele>556.4</ele>
        <time>2022-02-28T11:47:20Z</time>
      </trkpt>
      <trkpt lat="46.50449" lon="5.74131">
        <ele>556</ele>
        <time>2022-02-28T11:47:21Z</time>
      </trkpt>
      <trkpt lat="46.50445" lon="5.74119">
        <ele>555.8</ele>
        <time>2022-02-28T11:47:22Z</time>
      </trkpt>
      <trkpt lat="46.50441" lon="5.74106">
        <ele>555.8</ele>
        <time>2022-02-28T11:47:23Z</time>
      </trkpt>
      <trkpt lat="46.50437" lon="5.74093">
        <ele>555.4</ele>
        <time>2022-02-28T11:47:24Z</time>
      </trkpt>
      <trkpt lat="46.50433" lon="5.74081">
        <ele>555.4</ele>
        <time>2022-02-28T11:47:25Z</time>
      </trkpt>
      <trkpt lat="46.50429" lon="5.74068">
        <ele>555.2</ele>
        <time>2022-02-28T11:47:26Z</time>
      </trkpt>
      <trkpt lat="46.50426" lon="5.74056">
        <ele>555.2</ele>
        <time>2022-02-28T11:47:27Z</time>
      </trkpt>
      <trkpt lat="46.50422" lon="5.74043">
        <ele>555</ele>
        <time>2022-02-28T11:47:28Z</time>
      </trkpt>
      <trkpt lat="46.50418" lon="5.74031">
        <ele>555</ele>
        <time>2022-02-28T11:47:29Z</time>
      </trkpt>
      <trkpt lat="46.50415" lon="5.74018">
        <ele>554.6</ele>
        <time>2022-02-28T11:47:30Z</time>
      </trkpt>
      <trkpt lat="46.50411" lon="5.74006">
        <ele>554.6</ele>
        <time>2022-02-28T11:47:31Z</time>
      </trkpt>
      <trkpt lat="46.50407" lon="5.73994">
        <ele>554.6</ele>
        <time>2022-02-28T11:47:32Z</time>
      </trkpt>
      <trkpt lat="46.50404" lon="5.73982">
        <ele>554.4</ele>
        <time>2022-02-28T11:47:33Z</time>
      </trkpt>
      <trkpt lat="46.504" lon="5.7397">
        <ele>554.2</ele>
        <time>2022-02-28T11:47:34Z</time>
      </trkpt>
      <trkpt lat="46.50396" lon="5.73958">
        <ele>554.2</ele>
        <time>2022-02-28T11:47:35Z</time>
      </trkpt>
      <trkpt lat="46.50393" lon="5.73946">
        <ele>553.8</ele>
        <time>2022-02-28T11:47:36Z</time>
      </trkpt>
      <trkpt lat="46.50389" lon="5.73935">
        <ele>553.8</ele>
        <time>2022-02-28T11:47:37Z</time>
      </trkpt>
      <trkpt lat="46.50385" lon="5.73923">
        <ele>553.6</ele>
        <time>2022-02-28T11:47:38Z</time>
      </trkpt>
      <trkpt lat="46.50381" lon="5.73911">
        <ele>553.6</ele>
        <time>2022-02-28T11:47:39Z</time>
      </trkpt>
      <trkpt lat="46.50378" lon="5.739">
        <ele>553.6</ele>
        <time>2022-02-28T11:47:40Z</time>
      </trkpt>
      <trkpt lat="46.50374" lon="5.73889">
        <ele>553.6</ele>
        <time>2022-02-28T11:47:41Z</time>
      </trkpt>
      <trkpt lat="46.50371" lon="5.73878">
        <ele>553.6</ele>
        <time>2022-02-28T11:47:42Z</time>
      </trkpt>
      <trkpt lat="46.50368" lon="5.73867">
        <ele>553.6</ele>
        <time>2022-02-28T11:47:43Z</time>
      </trkpt>
      <trkpt lat="46.50365" lon="5.73856">
        <ele>553.6</ele>
        <time>2022-02-28T11:47:44Z</time>
      </trkpt>
      <trkpt lat="46.50362" lon="5.73846">
        <ele>553.6</ele>
        <time>2022-02-28T11:47:45Z</time>
      </trkpt>
      <trkpt lat="46.5036" lon="5.73835">
        <ele>553.6</ele>
        <time>2022-02-28T11:47:46Z</time>
      </trkpt>
      <trkpt lat="46.50357" lon="5.73825">
        <ele>553.8</ele>
        <time>2022-02-28T11:47:47Z</time>
      </trkpt>
      <trkpt lat="46.50354" lon="5.73815">
        <ele>553.8</ele>
        <time>2022-02-28T11:47:48Z</time>
      </trkpt>
      <trkpt lat="46.50352" lon="5.73805">
        <ele>553.8</ele>
        <time>2022-02-28T11:47:49Z</time>
      </trkpt>
      <trkpt lat="46.5035" lon="5.73796">
        <ele>554.2</ele>
        <time>2022-02-28T11:47:50Z</time>
      </trkpt>
      <trkpt lat="46.50347" lon="5.73786">
        <ele>554.2</ele>
        <time>2022-02-28T11:47:51Z</time>
      </trkpt>
      <trkpt lat="46.50345" lon="5.73776">
        <ele>554.4</ele>
        <time>2022-02-28T11:47:52Z</time>
      </trkpt>
      <trkpt lat="46.50342" lon="5.73767">
        <ele>554.4</ele>
        <time>2022-02-28T11:47:53Z</time>
      </trkpt>
      <trkpt lat="46.5034" lon="5.73757">
        <ele>554.8</ele>
        <time>2022-02-28T11:47:54Z</time>
      </trkpt>
      <trkpt lat="46.50338" lon="5.73748">
        <ele>554.8</ele>
        <time>2022-02-28T11:47:55Z</time>
      </trkpt>
      <trkpt lat="46.50335" lon="5.73739">
        <ele>555</ele>
        <time>2022-02-28T11:47:56Z</time>
      </trkpt>
      <trkpt lat="46.50333" lon="5.7373">
        <ele>555</ele>
        <time>2022-02-28T11:47:57Z</time>
      </trkpt>
      <trkpt lat="46.50331" lon="5.73721">
        <ele>555</ele>
        <time>2022-02-28T11:47:58Z</time>
      </trkpt>
      <trkpt lat="46.50329" lon="5.73712">
        <ele>555.4</ele>
        <time>2022-02-28T11:47:59Z</time>
      </trkpt>
      <trkpt lat="46.50326" lon="5.73703">
        <ele>555.4</ele>
        <time>2022-02-28T11:48:00Z</time>
      </trkpt>
      <trkpt lat="46.50324" lon="5.73695">
        <ele>555.8</ele>
        <time>2022-02-28T11:48:01Z</time>
      </trkpt>
      <trkpt lat="46.50322" lon="5.73686">
        <ele>556</ele>
        <time>2022-02-28T11:48:02Z</time>
      </trkpt>
      <trkpt lat="46.5032" lon="5.73678">
        <ele>556.2</ele>
        <time>2022-02-28T11:48:03Z</time>
      </trkpt>
      <trkpt lat="46.50318" lon="5.73669">
        <ele>556.2</ele>
        <time>2022-02-28T11:48:04Z</time>
      </trkpt>
      <trkpt lat="46.50315" lon="5.73661">
        <ele>556.6</ele>
        <time>2022-02-28T11:48:05Z</time>
      </trkpt>
      <trkpt lat="46.50314" lon="5.73652">
        <ele>556.6</ele>
        <time>2022-02-28T11:48:06Z</time>
      </trkpt>
      <trkpt lat="46.50312" lon="5.73644">
        <ele>556.8</ele>
        <time>2022-02-28T11:48:07Z</time>
      </trkpt>
      <trkpt lat="46.5031" lon="5.73636">
        <ele>556.8</ele>
        <time>2022-02-28T11:48:08Z</time>
      </trkpt>
      <trkpt lat="46.50307" lon="5.73628">
        <ele>557</ele>
        <time>2022-02-28T11:48:09Z</time>
      </trkpt>
      <trkpt lat="46.50306" lon="5.73621">
        <ele>557</ele>
        <time>2022-02-28T11:48:10Z</time>
      </trkpt>
      <trkpt lat="46.50303" lon="5.73613">
        <ele>557</ele>
        <time>2022-02-28T11:48:11Z</time>
      </trkpt>
      <trkpt lat="46.50301" lon="5.73605">
        <ele>557</ele>
        <time>2022-02-28T11:48:12Z</time>
      </trkpt>
      <trkpt lat="46.50299" lon="5.73598">
        <ele>557.2</ele>
        <time>2022-02-28T11:48:13Z</time>
      </trkpt>
      <trkpt lat="46.50297" lon="5.7359">
        <ele>557.2</ele>
        <time>2022-02-28T11:48:14Z</time>
      </trkpt>
      <trkpt lat="46.50295" lon="5.73582">
        <ele>557.2</ele>
        <time>2022-02-28T11:48:15Z</time>
      </trkpt>
      <trkpt lat="46.50293" lon="5.73575">
        <ele>557.4</ele>
        <time>2022-02-28T11:48:16Z</time>
      </trkpt>
      <trkpt lat="46.50291" lon="5.73568">
        <ele>557.4</ele>
        <time>2022-02-28T11:48:17Z</time>
      </trkpt>
      <trkpt lat="46.50289" lon="5.7356">
        <ele>557.4</ele>
        <time>2022-02-28T11:48:18Z</time>
      </trkpt>
      <trkpt lat="46.50287" lon="5.73553">
        <ele>557.6</ele>
        <time>2022-02-28T11:48:19Z</time>
      </trkpt>
      <trkpt lat="46.50284" lon="5.73546">
        <ele>557.6</ele>
        <time>2022-02-28T11:48:20Z</time>
      </trkpt>
      <trkpt lat="46.50282" lon="5.73539">
        <ele>558</ele>
        <time>2022-02-28T11:48:21Z</time>
      </trkpt>
      <trkpt lat="46.5028" lon="5.73532">
        <ele>558.2</ele>
        <time>2022-02-28T11:48:22Z</time>
      </trkpt>
      <trkpt lat="46.50278" lon="5.73526">
        <ele>558.6</ele>
        <time>2022-02-28T11:48:23Z</time>
      </trkpt>
      <trkpt lat="46.50276" lon="5.73519">
        <ele>558.8</ele>
        <time>2022-02-28T11:48:24Z</time>
      </trkpt>
      <trkpt lat="46.50274" lon="5.73512">
        <ele>559</ele>
        <time>2022-02-28T11:48:25Z</time>
      </trkpt>
      <trkpt lat="46.50272" lon="5.73506">
        <ele>559.2</ele>
        <time>2022-02-28T11:48:26Z</time>
      </trkpt>
      <trkpt lat="46.50271" lon="5.735">
        <ele>559.6</ele>
        <time>2022-02-28T11:48:27Z</time>
      </trkpt>
      <trkpt lat="46.50269" lon="5.73495">
        <ele>559.8</ele>
        <time>2022-02-28T11:48:28Z</time>
      </trkpt>
      <trkpt lat="46.50268" lon="5.73489">
        <ele>560</ele>
        <time>2022-02-28T11:48:29Z</time>
      </trkpt>
      <trkpt lat="46.50266" lon="5.73484">
        <ele>560.2</ele>
        <time>2022-02-28T11:48:30Z</time>
      </trkpt>
      <trkpt lat="46.50265" lon="5.73479">
        <ele>560.4</ele>
        <time>2022-02-28T11:48:31Z</time>
      </trkpt>
      <trkpt lat="46.50263" lon="5.73473">
        <ele>560.6</ele>
        <time>2022-02-28T11:48:32Z</time>
      </trkpt>
      <trkpt lat="46.50262" lon="5.73468">
        <ele>560.8</ele>
        <time>2022-02-28T11:48:33Z</time>
      </trkpt>
      <trkpt lat="46.5026" lon="5.73463">
        <ele>561.2</ele>
        <time>2022-02-28T11:48:34Z</time>
      </trkpt>
      <trkpt lat="46.50258" lon="5.73459">
        <ele>561.2</ele>
        <time>2022-02-28T11:48:35Z</time>
      </trkpt>
      <trkpt lat="46.50257" lon="5.73454">
        <ele>561.6</ele>
        <time>2022-02-28T11:48:36Z</time>
      </trkpt>
      <trkpt lat="46.50256" lon="5.7345">
        <ele>561.6</ele>
        <time>2022-02-28T11:48:37Z</time>
      </trkpt>
      <trkpt lat="46.50255" lon="5.73445">
        <ele>561.8</ele>
        <time>2022-02-28T11:48:38Z</time>
      </trkpt>
      <trkpt lat="46.50253" lon="5.7344">
        <ele>562.2</ele>
        <time>2022-02-28T11:48:39Z</time>
      </trkpt>
      <trkpt lat="46.50252" lon="5.73435">
        <ele>562.2</ele>
        <time>2022-02-28T11:48:40Z</time>
      </trkpt>
      <trkpt lat="46.5025" lon="5.7343">
        <ele>562.6</ele>
        <time>2022-02-28T11:48:41Z</time>
      </trkpt>
      <trkpt lat="46.50249" lon="5.73425">
        <ele>562.8</ele>
        <time>2022-02-28T11:48:42Z</time>
      </trkpt>
      <trkpt lat="46.50247" lon="5.7342">
        <ele>562.8</ele>
        <time>2022-02-28T11:48:43Z</time>
      </trkpt>
      <trkpt lat="46.50246" lon="5.73415">
        <ele>563.2</ele>
        <time>2022-02-28T11:48:44Z</time>
      </trkpt>
      <trkpt lat="46.50245" lon="5.73411">
        <ele>563.4</ele>
        <time>2022-02-28T11:48:45Z</time>
      </trkpt>
      <trkpt lat="46.50245" lon="5.73407">
        <ele>563.4</ele>
        <time>2022-02-28T11:48:46Z</time>
      </trkpt>
      <trkpt lat="46.50243" lon="5.73403">
        <ele>563.8</ele>
        <time>2022-02-28T11:48:47Z</time>
      </trkpt>
      <trkpt lat="46.50242" lon="5.73399">
        <ele>563.8</ele>
        <time>2022-02-28T11:48:48Z</time>
      </trkpt>
      <trkpt lat="46.50242" lon="5.73394">
        <ele>564</ele>
        <time>2022-02-28T11:48:49Z</time>
      </trkpt>
      <trkpt lat="46.50241" lon="5.7339">
        <ele>564.4</ele>
        <time>2022-02-28T11:48:50Z</time>
      </trkpt>
      <trkpt lat="46.5024" lon="5.73385">
        <ele>564.4</ele>
        <time>2022-02-28T11:48:51Z</time>
      </trkpt>
      <trkpt lat="46.5024" lon="5.73381">
        <ele>564.6</ele>
        <time>2022-02-28T11:48:52Z</time>
      </trkpt>
      <trkpt lat="46.50239" lon="5.73376">
        <ele>564.6</ele>
        <time>2022-02-28T11:48:53Z</time>
      </trkpt>
      <trkpt lat="46.50238" lon="5.73371">
        <ele>565</ele>
        <time>2022-02-28T11:48:54Z</time>
      </trkpt>
      <trkpt lat="46.50237" lon="5.73367">
        <ele>565.2</ele>
        <time>2022-02-28T11:48:55Z</time>
      </trkpt>
      <trkpt lat="46.50237" lon="5.73362">
        <ele>565.2</ele>
        <time>2022-02-28T11:48:56Z</time>
      </trkpt>
      <trkpt lat="46.50236" lon="5.73358">
        <ele>565.4</ele>
        <time>2022-02-28T11:48:57Z</time>
      </trkpt>
      <trkpt lat="46.50235" lon="5.73353">
        <ele>565.8</ele>
        <time>2022-02-28T11:48:58Z</time>
      </trkpt>
      <trkpt lat="46.50235" lon="5.73349">
        <ele>566</ele>
        <time>2022-02-28T11:48:59Z</time>
      </trkpt>
      <trkpt lat="46.50234" lon="5.73344">
        <ele>566</ele>
        <time>2022-02-28T11:49:00Z</time>
      </trkpt>
      <trkpt lat="46.50234" lon="5.73339">
        <ele>566.4</ele>
        <time>2022-02-28T11:49:01Z</time>
      </trkpt>
      <trkpt lat="46.50234" lon="5.73335">
        <ele>566.4</ele>
        <time>2022-02-28T11:49:02Z</time>
      </trkpt>
      <trkpt lat="46.50233" lon="5.7333">
        <ele>566.6</ele>
        <time>2022-02-28T11:49:03Z</time>
      </trkpt>
      <trkpt lat="46.50233" lon="5.73325">
        <ele>566.8</ele>
        <time>2022-02-28T11:49:04Z</time>
      </trkpt>
      <trkpt lat="46.50232" lon="5.7332">
        <ele>567.2</ele>
        <time>2022-02-28T11:49:05Z</time>
      </trkpt>
      <trkpt lat="46.50232" lon="5.73315">
        <ele>567.4</ele>
        <time>2022-02-28T11:49:06Z</time>
      </trkpt>
      <trkpt lat="46.50232" lon="5.7331">
        <ele>567.6</ele>
        <time>2022-02-28T11:49:07Z</time>
      </trkpt>
      <trkpt lat="46.50231" lon="5.73305">
        <ele>567.8</ele>
        <time>2022-02-28T11:49:08Z</time>
      </trkpt>
      <trkpt lat="46.50231" lon="5.733">
        <ele>568.2</ele>
        <time>2022-02-28T11:49:09Z</time>
      </trkpt>
      <trkpt lat="46.5023" lon="5.73296">
        <ele>568.4</ele>
        <time>2022-02-28T11:49:10Z</time>
      </trkpt>
      <trkpt lat="46.5023" lon="5.73291">
        <ele>568.6</ele>
        <time>2022-02-28T11:49:11Z</time>
      </trkpt>
      <trkpt lat="46.5023" lon="5.73287">
        <ele>568.8</ele>
        <time>2022-02-28T11:49:12Z</time>
      </trkpt>
      <trkpt lat="46.50229" lon="5.73282">
        <ele>569.2</ele>
        <time>2022-02-28T11:49:13Z</time>
      </trkpt>
      <trkpt lat="46.50229" lon="5.73277">
        <ele>569.4</ele>
        <time>2022-02-28T11:49:14Z</time>
      </trkpt>
      <trkpt lat="46.50229" lon="5.73272">
        <ele>569.6</ele>
        <time>2022-02-28T11:49:15Z</time>
      </trkpt>
      <trkpt lat="46.50229" lon="5.73268">
        <ele>569.8</ele>
        <time>2022-02-28T11:49:16Z</time>
      </trkpt>
      <trkpt lat="46.50228" lon="5.73263">
        <ele>570</ele>
        <time>2022-02-28T11:49:17Z</time>
      </trkpt>
      <trkpt lat="46.50228" lon="5.73259">
        <ele>570.2</ele>
        <time>2022-02-28T11:49:18Z</time>
      </trkpt>
      <trkpt lat="46.50228" lon="5.73254">
        <ele>570.4</ele>
        <time>2022-02-28T11:49:19Z</time>
      </trkpt>
      <trkpt lat="46.50228" lon="5.73249">
        <ele>570.6</ele>
        <time>2022-02-28T11:49:20Z</time>
      </trkpt>
      <trkpt lat="46.50228" lon="5.73244">
        <ele>570.6</ele>
        <time>2022-02-28T11:49:21Z</time>
      </trkpt>
      <trkpt lat="46.50228" lon="5.7324">
        <ele>571</ele>
        <time>2022-02-28T11:49:22Z</time>
      </trkpt>
      <trkpt lat="46.50228" lon="5.73235">
        <ele>571.2</ele>
        <time>2022-02-28T11:49:23Z</time>
      </trkpt>
      <trkpt lat="46.50227" lon="5.7323">
        <ele>571.2</ele>
        <time>2022-02-28T11:49:24Z</time>
      </trkpt>
      <trkpt lat="46.50227" lon="5.73226">
        <ele>571.6</ele>
        <time>2022-02-28T11:49:25Z</time>
      </trkpt>
      <trkpt lat="46.50227" lon="5.73221">
        <ele>571.8</ele>
        <time>2022-02-28T11:49:26Z</time>
      </trkpt>
      <trkpt lat="46.50226" lon="5.73216">
        <ele>572</ele>
        <time>2022-02-28T11:49:27Z</time>
      </trkpt>
      <trkpt lat="46.50226" lon="5.73212">
        <ele>572.4</ele>
        <time>2022-02-28T11:49:28Z</time>
      </trkpt>
      <trkpt lat="46.50226" lon="5.73207">
        <ele>572.6</ele>
        <time>2022-02-28T11:49:29Z</time>
      </trkpt>
      <trkpt lat="46.50226" lon="5.73202">
        <ele>572.8</ele>
        <time>2022-02-28T11:49:30Z</time>
      </trkpt>
      <trkpt lat="46.50226" lon="5.73198">
        <ele>572.8</ele>
        <time>2022-02-28T11:49:31Z</time>
      </trkpt>
      <trkpt lat="46.50226" lon="5.73198">
        <ele>573.2</ele>
        <time>2022-02-28T11:49:32Z</time>
      </trkpt>
      <trkpt lat="46.50225" lon="5.73193">
        <ele>573.4</ele>
        <time>2022-02-28T11:49:33Z</time>
      </trkpt>
      <trkpt lat="46.50225" lon="5.73188">
        <ele>573.4</ele>
        <time>2022-02-28T11:49:34Z</time>
      </trkpt>
      <trkpt lat="46.50225" lon="5.73183">
        <ele>573.6</ele>
        <time>2022-02-28T11:49:35Z</time>
      </trkpt>
      <trkpt lat="46.50225" lon="5.73179">
        <ele>574</ele>
        <time>2022-02-28T11:49:36Z</time>
      </trkpt>
      <trkpt lat="46.50225" lon="5.73174">
        <ele>574.2</ele>
        <time>2022-02-28T11:49:37Z</time>
      </trkpt>
      <trkpt lat="46.50224" lon="5.73169">
        <ele>574.4</ele>
        <time>2022-02-28T11:49:38Z</time>
      </trkpt>
      <trkpt lat="46.50224" lon="5.73165">
        <ele>574.4</ele>
        <time>2022-02-28T11:49:39Z</time>
      </trkpt>
      <trkpt lat="46.50223" lon="5.7316">
        <ele>574.8</ele>
        <time>2022-02-28T11:49:40Z</time>
      </trkpt>
      <trkpt lat="46.50223" lon="5.73155">
        <ele>574.8</ele>
        <time>2022-02-28T11:49:41Z</time>
      </trkpt>
      <trkpt lat="46.50223" lon="5.73151">
        <ele>575</ele>
        <time>2022-02-28T11:49:42Z</time>
      </trkpt>
      <trkpt lat="46.50222" lon="5.73147">
        <ele>575.2</ele>
        <time>2022-02-28T11:49:43Z</time>
      </trkpt>
      <trkpt lat="46.50222" lon="5.73142">
        <ele>575.2</ele>
        <time>2022-02-28T11:49:44Z</time>
      </trkpt>
      <trkpt lat="46.50221" lon="5.73138">
        <ele>575.6</ele>
        <time>2022-02-28T11:49:45Z</time>
      </trkpt>
      <trkpt lat="46.50221" lon="5.73133">
        <ele>575.6</ele>
        <time>2022-02-28T11:49:46Z</time>
      </trkpt>
      <trkpt lat="46.5022" lon="5.73128">
        <ele>575.8</ele>
        <time>2022-02-28T11:49:47Z</time>
      </trkpt>
      <trkpt lat="46.50219" lon="5.73123">
        <ele>575.8</ele>
        <time>2022-02-28T11:49:48Z</time>
      </trkpt>
      <trkpt lat="46.50218" lon="5.73118">
        <ele>576.2</ele>
        <time>2022-02-28T11:49:49Z</time>
      </trkpt>
      <trkpt lat="46.50217" lon="5.73113">
        <ele>576.2</ele>
        <time>2022-02-28T11:49:50Z</time>
      </trkpt>
      <trkpt lat="46.50216" lon="5.73108">
        <ele>576.2</ele>
        <time>2022-02-28T11:49:51Z</time>
      </trkpt>
      <trkpt lat="46.50214" lon="5.73103">
        <ele>576.4</ele>
        <time>2022-02-28T11:49:52Z</time>
      </trkpt>
      <trkpt lat="46.50213" lon="5.73097">
        <ele>576.4</ele>
        <time>2022-02-28T11:49:53Z</time>
      </trkpt>
      <trkpt lat="46.50212" lon="5.73092">
        <ele>576.8</ele>
        <time>2022-02-28T11:49:54Z</time>
      </trkpt>
      <trkpt lat="46.5021" lon="5.73087">
        <ele>576.8</ele>
        <time>2022-02-28T11:49:55Z</time>
      </trkpt>
      <trkpt lat="46.50209" lon="5.73082">
        <ele>576.8</ele>
        <time>2022-02-28T11:49:56Z</time>
      </trkpt>
      <trkpt lat="46.50207" lon="5.73077">
        <ele>577.2</ele>
        <time>2022-02-28T11:49:57Z</time>
      </trkpt>
      <trkpt lat="46.50205" lon="5.73072">
        <ele>577.2</ele>
        <time>2022-02-28T11:49:58Z</time>
      </trkpt>
      <trkpt lat="46.50203" lon="5.73068">
        <ele>577.4</ele>
        <time>2022-02-28T11:49:59Z</time>
      </trkpt>
      <trkpt lat="46.50201" lon="5.73063">
        <ele>577.4</ele>
        <time>2022-02-28T11:50:00Z</time>
      </trkpt>
      <trkpt lat="46.50199" lon="5.73058">
        <ele>577.8</ele>
        <time>2022-02-28T11:50:01Z</time>
      </trkpt>
      <trkpt lat="46.50197" lon="5.73054">
        <ele>577.8</ele>
        <time>2022-02-28T11:50:02Z</time>
      </trkpt>
      <trkpt lat="46.50195" lon="5.73049">
        <ele>577.8</ele>
        <time>2022-02-28T11:50:03Z</time>
      </trkpt>
      <trkpt lat="46.50194" lon="5.73046">
        <ele>578</ele>
        <time>2022-02-28T11:50:04Z</time>
      </trkpt>
      <trkpt lat="46.50192" lon="5.73042">
        <ele>578</ele>
        <time>2022-02-28T11:50:05Z</time>
      </trkpt>
      <trkpt lat="46.50191" lon="5.73039">
        <ele>578</ele>
        <time>2022-02-28T11:50:06Z</time>
      </trkpt>
      <trkpt lat="46.5019" lon="5.73037">
        <ele>578.2</ele>
        <time>2022-02-28T11:50:07Z</time>
      </trkpt>
      <trkpt lat="46.50189" lon="5.73034">
        <ele>578.2</ele>
        <time>2022-02-28T11:50:08Z</time>
      </trkpt>
      <trkpt lat="46.50188" lon="5.73033">
        <ele>578.2</ele>
        <time>2022-02-28T11:50:09Z</time>
      </trkpt>
      <trkpt lat="46.50188" lon="5.73032">
        <ele>578.4</ele>
        <time>2022-02-28T11:50:10Z</time>
      </trkpt>
      <trkpt lat="46.50188" lon="5.73031">
        <ele>578.4</ele>
        <time>2022-02-28T11:50:11Z</time>
      </trkpt>
      <trkpt lat="46.50188" lon="5.73031">
        <ele>578.4</ele>
        <time>2022-02-28T11:50:13Z</time>
      </trkpt>
      <trkpt lat="46.50188" lon="5.73031">
        <ele>578.4</ele>
        <time>2022-02-28T11:50:14Z</time>
      </trkpt>
      <trkpt lat="46.50188" lon="5.73031">
        <ele>578.4</ele>
        <time>2022-02-28T11:50:15Z</time>
      </trkpt>
      <trkpt lat="46.50188" lon="5.73031">
        <ele>578.4</ele>
        <time>2022-02-28T11:50:16Z</time>
      </trkpt>
      <trkpt lat="46.50188" lon="5.73031">
        <ele>578.4</ele>
        <time>2022-02-28T11:50:17Z</time>
      </trkpt>
      <trkpt lat="46.50188" lon="5.73031">
        <ele>578.4</ele>
        <time>2022-02-28T11:50:18Z</time>
      </trkpt>
      <trkpt lat="46.50188" lon="5.73031">
        <ele>578.4</ele>
        <time>2022-02-28T11:50:19Z</time>
      </trkpt>
      <trkpt lat="46.50188" lon="5.73031">
        <ele>578.6</ele>
        <time>2022-02-28T11:50:31Z</time>
      </trkpt>
      <trkpt lat="46.50188" lon="5.73031">
        <ele>578.6</ele>
        <time>2022-02-28T11:50:32Z</time>
      </trkpt>
      <trkpt lat="46.50188" lon="5.73031">
        <ele>578.6</ele>
        <time>2022-02-28T11:50:34Z</time>
      </trkpt>
      <trkpt lat="46.50188" lon="5.73031">
        <ele>578.6</ele>
        <time>2022-02-28T11:50:35Z</time>
      </trkpt>
      <trkpt lat="46.50188" lon="5.73031">
        <ele>578.6</ele>
        <time>2022-02-28T11:50:39Z</time>
      </trkpt>
      <trkpt lat="46.50188" lon="5.73031">
        <ele>578.6</ele>
        <time>2022-02-28T11:50:40Z</time>
      </trkpt>
      <trkpt lat="46.50188" lon="5.73031">
        <ele>578.6</ele>
        <time>2022-02-28T11:50:45Z</time>
      </trkpt>
      <trkpt lat="46.50186" lon="5.73028">
        <ele>578.6</ele>
        <time>2022-02-28T11:50:46Z</time>
      </trkpt>
      <trkpt lat="46.50185" lon="5.73027">
        <ele>578.6</ele>
        <time>2022-02-28T11:50:47Z</time>
      </trkpt>
      <trkpt lat="46.50183" lon="5.73025">
        <ele>578.6</ele>
        <time>2022-02-28T11:50:48Z</time>
      </trkpt>
      <trkpt lat="46.50181" lon="5.73022">
        <ele>578.6</ele>
        <time>2022-02-28T11:50:49Z</time>
      </trkpt>
      <trkpt lat="46.5018" lon="5.7302">
        <ele>578.6</ele>
        <time>2022-02-28T11:50:50Z</time>
      </trkpt>
      <trkpt lat="46.50178" lon="5.73017">
        <ele>579</ele>
        <time>2022-02-28T11:50:51Z</time>
      </trkpt>
      <trkpt lat="46.50177" lon="5.73013">
        <ele>579</ele>
        <time>2022-02-28T11:50:52Z</time>
      </trkpt>
      <trkpt lat="46.50175" lon="5.7301">
        <ele>579</ele>
        <time>2022-02-28T11:50:53Z</time>
      </trkpt>
      <trkpt lat="46.50172" lon="5.73007">
        <ele>579</ele>
        <time>2022-02-28T11:50:54Z</time>
      </trkpt>
      <trkpt lat="46.5017" lon="5.73003">
        <ele>579</ele>
        <time>2022-02-28T11:50:55Z</time>
      </trkpt>
      <trkpt lat="46.50167" lon="5.73">
        <ele>579.2</ele>
        <time>2022-02-28T11:50:56Z</time>
      </trkpt>
      <trkpt lat="46.50165" lon="5.72996">
        <ele>579.2</ele>
        <time>2022-02-28T11:50:57Z</time>
      </trkpt>
      <trkpt lat="46.50162" lon="5.72992">
        <ele>579.2</ele>
        <time>2022-02-28T11:50:58Z</time>
      </trkpt>
      <trkpt lat="46.50159" lon="5.72989">
        <ele>579.2</ele>
        <time>2022-02-28T11:50:59Z</time>
      </trkpt>
      <trkpt lat="46.50156" lon="5.72985">
        <ele>579.2</ele>
        <time>2022-02-28T11:51:00Z</time>
      </trkpt>
      <trkpt lat="46.50153" lon="5.72981">
        <ele>579.2</ele>
        <time>2022-02-28T11:51:01Z</time>
      </trkpt>
      <trkpt lat="46.5015" lon="5.72977">
        <ele>579.2</ele>
        <time>2022-02-28T11:51:02Z</time>
      </trkpt>
      <trkpt lat="46.50147" lon="5.72973">
        <ele>579.4</ele>
        <time>2022-02-28T11:51:03Z</time>
      </trkpt>
      <trkpt lat="46.50143" lon="5.72969">
        <ele>579.4</ele>
        <time>2022-02-28T11:51:04Z</time>
      </trkpt>
      <trkpt lat="46.5014" lon="5.72965">
        <ele>579.4</ele>
        <time>2022-02-28T11:51:05Z</time>
      </trkpt>
      <trkpt lat="46.50137" lon="5.7296">
        <ele>579.8</ele>
        <time>2022-02-28T11:51:06Z</time>
      </trkpt>
      <trkpt lat="46.50133" lon="5.72956">
        <ele>579.8</ele>
        <time>2022-02-28T11:51:07Z</time>
      </trkpt>
      <trkpt lat="46.5013" lon="5.72951">
        <ele>579.8</ele>
        <time>2022-02-28T11:51:08Z</time>
      </trkpt>
      <trkpt lat="46.50126" lon="5.72947">
        <ele>579.8</ele>
        <time>2022-02-28T11:51:09Z</time>
      </trkpt>
      <trkpt lat="46.50123" lon="5.72943">
        <ele>580</ele>
        <time>2022-02-28T11:51:10Z</time>
      </trkpt>
      <trkpt lat="46.50119" lon="5.72938">
        <ele>580</ele>
        <time>2022-02-28T11:51:11Z</time>
      </trkpt>
      <trkpt lat="46.50116" lon="5.72934">
        <ele>580.2</ele>
        <time>2022-02-28T11:51:12Z</time>
      </trkpt>
      <trkpt lat="46.50112" lon="5.72929">
        <ele>580.2</ele>
        <time>2022-02-28T11:51:13Z</time>
      </trkpt>
      <trkpt lat="46.50109" lon="5.72925">
        <ele>580.6</ele>
        <time>2022-02-28T11:51:14Z</time>
      </trkpt>
      <trkpt lat="46.50105" lon="5.7292">
        <ele>580.6</ele>
        <time>2022-02-28T11:51:15Z</time>
      </trkpt>
      <trkpt lat="46.50102" lon="5.72916">
        <ele>580.8</ele>
        <time>2022-02-28T11:51:16Z</time>
      </trkpt>
      <trkpt lat="46.50098" lon="5.72912">
        <ele>580.8</ele>
        <time>2022-02-28T11:51:17Z</time>
      </trkpt>
      <trkpt lat="46.50095" lon="5.72907">
        <ele>580.8</ele>
        <time>2022-02-28T11:51:18Z</time>
      </trkpt>
      <trkpt lat="46.50091" lon="5.72903">
        <ele>581</ele>
        <time>2022-02-28T11:51:19Z</time>
      </trkpt>
      <trkpt lat="46.50088" lon="5.72898">
        <ele>581</ele>
        <time>2022-02-28T11:51:20Z</time>
      </trkpt>
      <trkpt lat="46.50084" lon="5.72894">
        <ele>581</ele>
        <time>2022-02-28T11:51:21Z</time>
      </trkpt>
      <trkpt lat="46.50081" lon="5.7289">
        <ele>581.2</ele>
        <time>2022-02-28T11:51:22Z</time>
      </trkpt>
      <trkpt lat="46.50078" lon="5.72885">
        <ele>581.2</ele>
        <time>2022-02-28T11:51:23Z</time>
      </trkpt>
      <trkpt lat="46.50074" lon="5.72881">
        <ele>581.6</ele>
        <time>2022-02-28T11:51:24Z</time>
      </trkpt>
      <trkpt lat="46.5007" lon="5.72877">
        <ele>581.6</ele>
        <time>2022-02-28T11:51:25Z</time>
      </trkpt>
      <trkpt lat="46.50067" lon="5.72872">
        <ele>581.8</ele>
        <time>2022-02-28T11:51:26Z</time>
      </trkpt>
      <trkpt lat="46.50063" lon="5.72868">
        <ele>581.8</ele>
        <time>2022-02-28T11:51:27Z</time>
      </trkpt>
      <trkpt lat="46.50059" lon="5.72863">
        <ele>582.2</ele>
        <time>2022-02-28T11:51:28Z</time>
      </trkpt>
      <trkpt lat="46.50056" lon="5.72858">
        <ele>582.2</ele>
        <time>2022-02-28T11:51:29Z</time>
      </trkpt>
      <trkpt lat="46.50052" lon="5.72854">
        <ele>582.2</ele>
        <time>2022-02-28T11:51:30Z</time>
      </trkpt>
      <trkpt lat="46.50048" lon="5.72849">
        <ele>582.6</ele>
        <time>2022-02-28T11:51:31Z</time>
      </trkpt>
      <trkpt lat="46.50044" lon="5.72845">
        <ele>582.6</ele>
        <time>2022-02-28T11:51:32Z</time>
      </trkpt>
      <trkpt lat="46.50041" lon="5.7284">
        <ele>582.8</ele>
        <time>2022-02-28T11:51:33Z</time>
      </trkpt>
      <trkpt lat="46.50037" lon="5.72835">
        <ele>582.8</ele>
        <time>2022-02-28T11:51:34Z</time>
      </trkpt>
      <trkpt lat="46.50033" lon="5.72831">
        <ele>583</ele>
        <time>2022-02-28T11:51:35Z</time>
      </trkpt>
      <trkpt lat="46.50029" lon="5.72826">
        <ele>583</ele>
        <time>2022-02-28T11:51:36Z</time>
      </trkpt>
      <trkpt lat="46.50025" lon="5.72821">
        <ele>583.2</ele>
        <time>2022-02-28T11:51:37Z</time>
      </trkpt>
      <trkpt lat="46.50021" lon="5.72816">
        <ele>583.2</ele>
        <time>2022-02-28T11:51:38Z</time>
      </trkpt>
      <trkpt lat="46.50017" lon="5.72811">
        <ele>583.2</ele>
        <time>2022-02-28T11:51:39Z</time>
      </trkpt>
      <trkpt lat="46.50013" lon="5.72806">
        <ele>583.4</ele>
        <time>2022-02-28T11:51:40Z</time>
      </trkpt>
      <trkpt lat="46.50009" lon="5.72801">
        <ele>583.4</ele>
        <time>2022-02-28T11:51:41Z</time>
      </trkpt>
      <trkpt lat="46.50005" lon="5.72796">
        <ele>583.4</ele>
        <time>2022-02-28T11:51:42Z</time>
      </trkpt>
      <trkpt lat="46.50001" lon="5.72791">
        <ele>583.4</ele>
        <time>2022-02-28T11:51:43Z</time>
      </trkpt>
      <trkpt lat="46.49998" lon="5.72786">
        <ele>583.4</ele>
        <time>2022-02-28T11:51:44Z</time>
      </trkpt>
      <trkpt lat="46.49994" lon="5.72781">
        <ele>583.4</ele>
        <time>2022-02-28T11:51:45Z</time>
      </trkpt>
      <trkpt lat="46.4999" lon="5.72776">
        <ele>583.4</ele>
        <time>2022-02-28T11:51:46Z</time>
      </trkpt>
      <trkpt lat="46.49986" lon="5.72772">
        <ele>583.6</ele>
        <time>2022-02-28T11:51:47Z</time>
      </trkpt>
      <trkpt lat="46.49982" lon="5.72767">
        <ele>583.6</ele>
        <time>2022-02-28T11:51:48Z</time>
      </trkpt>
      <trkpt lat="46.49978" lon="5.72763">
        <ele>583.6</ele>
        <time>2022-02-28T11:51:49Z</time>
      </trkpt>
      <trkpt lat="46.49974" lon="5.72758">
        <ele>584</ele>
        <time>2022-02-28T11:51:50Z</time>
      </trkpt>
      <trkpt lat="46.4997" lon="5.72753">
        <ele>584</ele>
        <time>2022-02-28T11:51:51Z</time>
      </trkpt>
      <trkpt lat="46.49966" lon="5.72748">
        <ele>584.2</ele>
        <time>2022-02-28T11:51:52Z</time>
      </trkpt>
      <trkpt lat="46.49963" lon="5.72743">
        <ele>584.2</ele>
        <time>2022-02-28T11:51:53Z</time>
      </trkpt>
      <trkpt lat="46.49959" lon="5.72739">
        <ele>584.2</ele>
        <time>2022-02-28T11:51:54Z</time>
      </trkpt>
      <trkpt lat="46.49955" lon="5.72734">
        <ele>584.4</ele>
        <time>2022-02-28T11:51:55Z</time>
      </trkpt>
      <trkpt lat="46.49951" lon="5.7273">
        <ele>584.4</ele>
        <time>2022-02-28T11:51:56Z</time>
      </trkpt>
      <trkpt lat="46.49948" lon="5.72725">
        <ele>584.4</ele>
        <time>2022-02-28T11:51:57Z</time>
      </trkpt>
      <trkpt lat="46.49944" lon="5.72721">
        <ele>584.6</ele>
        <time>2022-02-28T11:51:58Z</time>
      </trkpt>
      <trkpt lat="46.4994" lon="5.72717">
        <ele>584.6</ele>
        <time>2022-02-28T11:51:59Z</time>
      </trkpt>
      <trkpt lat="46.49937" lon="5.72712">
        <ele>584.6</ele>
        <time>2022-02-28T11:52:00Z</time>
      </trkpt>
      <trkpt lat="46.49933" lon="5.72708">
        <ele>584.6</ele>
        <time>2022-02-28T11:52:01Z</time>
      </trkpt>
      <trkpt lat="46.4993" lon="5.72704">
        <ele>585</ele>
        <time>2022-02-28T11:52:02Z</time>
      </trkpt>
      <trkpt lat="46.49926" lon="5.727">
        <ele>585</ele>
        <time>2022-02-28T11:52:03Z</time>
      </trkpt>
      <trkpt lat="46.49923" lon="5.72696">
        <ele>585</ele>
        <time>2022-02-28T11:52:04Z</time>
      </trkpt>
      <trkpt lat="46.49919" lon="5.72692">
        <ele>585.2</ele>
        <time>2022-02-28T11:52:05Z</time>
      </trkpt>
      <trkpt lat="46.49916" lon="5.72689">
        <ele>585.2</ele>
        <time>2022-02-28T11:52:06Z</time>
      </trkpt>
      <trkpt lat="46.49912" lon="5.72685">
        <ele>585.4</ele>
        <time>2022-02-28T11:52:07Z</time>
      </trkpt>
      <trkpt lat="46.49908" lon="5.72682">
        <ele>585.4</ele>
        <time>2022-02-28T11:52:08Z</time>
      </trkpt>
      <trkpt lat="46.49905" lon="5.7268">
        <ele>585.4</ele>
        <time>2022-02-28T11:52:09Z</time>
      </trkpt>
      <trkpt lat="46.49901" lon="5.72677">
        <ele>585.8</ele>
        <time>2022-02-28T11:52:10Z</time>
      </trkpt>
      <trkpt lat="46.49898" lon="5.72674">
        <ele>585.8</ele>
        <time>2022-02-28T11:52:11Z</time>
      </trkpt>
      <trkpt lat="46.49895" lon="5.72672">
        <ele>586</ele>
        <time>2022-02-28T11:52:12Z</time>
      </trkpt>
      <trkpt lat="46.49892" lon="5.72669">
        <ele>586</ele>
        <time>2022-02-28T11:52:13Z</time>
      </trkpt>
      <trkpt lat="46.4989" lon="5.72667">
        <ele>586</ele>
        <time>2022-02-28T11:52:14Z</time>
      </trkpt>
      <trkpt lat="46.49888" lon="5.72664">
        <ele>586.4</ele>
        <time>2022-02-28T11:52:15Z</time>
      </trkpt>
      <trkpt lat="46.49887" lon="5.7266">
        <ele>586.4</ele>
        <time>2022-02-28T11:52:16Z</time>
      </trkpt>
      <trkpt lat="46.49887" lon="5.72656">
        <ele>586.4</ele>
        <time>2022-02-28T11:52:17Z</time>
      </trkpt>
      <trkpt lat="46.49888" lon="5.72652">
        <ele>586.6</ele>
        <time>2022-02-28T11:52:18Z</time>
      </trkpt>
      <trkpt lat="46.49889" lon="5.72648">
        <ele>586.6</ele>
        <time>2022-02-28T11:52:19Z</time>
      </trkpt>
      <trkpt lat="46.49889" lon="5.72644">
        <ele>586.6</ele>
        <time>2022-02-28T11:52:20Z</time>
      </trkpt>
      <trkpt lat="46.49888" lon="5.7264">
        <ele>586.6</ele>
        <time>2022-02-28T11:52:21Z</time>
      </trkpt>
      <trkpt lat="46.49887" lon="5.72638">
        <ele>586.6</ele>
        <time>2022-02-28T11:52:22Z</time>
      </trkpt>
      <trkpt lat="46.49884" lon="5.72636">
        <ele>586.6</ele>
        <time>2022-02-28T11:52:23Z</time>
      </trkpt>
      <trkpt lat="46.49881" lon="5.72635">
        <ele>586.6</ele>
        <time>2022-02-28T11:52:24Z</time>
      </trkpt>
      <trkpt lat="46.49878" lon="5.72633">
        <ele>586.6</ele>
        <time>2022-02-28T11:52:25Z</time>
      </trkpt>
      <trkpt lat="46.49875" lon="5.72631">
        <ele>586.6</ele>
        <time>2022-02-28T11:52:26Z</time>
      </trkpt>
      <trkpt lat="46.49872" lon="5.72628">
        <ele>586.6</ele>
        <time>2022-02-28T11:52:27Z</time>
      </trkpt>
      <trkpt lat="46.49868" lon="5.72624">
        <ele>586.6</ele>
        <time>2022-02-28T11:52:28Z</time>
      </trkpt>
      <trkpt lat="46.49864" lon="5.7262">
        <ele>586.6</ele>
        <time>2022-02-28T11:52:29Z</time>
      </trkpt>
      <trkpt lat="46.49861" lon="5.72617">
        <ele>586.6</ele>
        <time>2022-02-28T11:52:30Z</time>
      </trkpt>
      <trkpt lat="46.49857" lon="5.72612">
        <ele>586.6</ele>
        <time>2022-02-28T11:52:31Z</time>
      </trkpt>
      <trkpt lat="46.49853" lon="5.72608">
        <ele>586.4</ele>
        <time>2022-02-28T11:52:32Z</time>
      </trkpt>
      <trkpt lat="46.49848" lon="5.72603">
        <ele>586.4</ele>
        <time>2022-02-28T11:52:33Z</time>
      </trkpt>
      <trkpt lat="46.49844" lon="5.72598">
        <ele>586.4</ele>
        <time>2022-02-28T11:52:34Z</time>
      </trkpt>
      <trkpt lat="46.4984" lon="5.72593">
        <ele>586</ele>
        <time>2022-02-28T11:52:35Z</time>
      </trkpt>
      <trkpt lat="46.49835" lon="5.72588">
        <ele>586</ele>
        <time>2022-02-28T11:52:36Z</time>
      </trkpt>
      <trkpt lat="46.49831" lon="5.72582">
        <ele>586</ele>
        <time>2022-02-28T11:52:37Z</time>
      </trkpt>
      <trkpt lat="46.49826" lon="5.72577">
        <ele>585.8</ele>
        <time>2022-02-28T11:52:38Z</time>
      </trkpt>
      <trkpt lat="46.49821" lon="5.72571">
        <ele>585.8</ele>
        <time>2022-02-28T11:52:39Z</time>
      </trkpt>
      <trkpt lat="46.49817" lon="5.72566">
        <ele>585.8</ele>
        <time>2022-02-28T11:52:40Z</time>
      </trkpt>
      <trkpt lat="46.49812" lon="5.7256">
        <ele>585.6</ele>
        <time>2022-02-28T11:52:41Z</time>
      </trkpt>
      <trkpt lat="46.49808" lon="5.72554">
        <ele>585.6</ele>
        <time>2022-02-28T11:52:42Z</time>
      </trkpt>
      <trkpt lat="46.49803" lon="5.72548">
        <ele>585.6</ele>
        <time>2022-02-28T11:52:43Z</time>
      </trkpt>
      <trkpt lat="46.49799" lon="5.72543">
        <ele>585.6</ele>
        <time>2022-02-28T11:52:44Z</time>
      </trkpt>
      <trkpt lat="46.49794" lon="5.72537">
        <ele>585.6</ele>
        <time>2022-02-28T11:52:45Z</time>
      </trkpt>
      <trkpt lat="46.49789" lon="5.72532">
        <ele>585.4</ele>
        <time>2022-02-28T11:52:46Z</time>
      </trkpt>
      <trkpt lat="46.49785" lon="5.72526">
        <ele>585.4</ele>
        <time>2022-02-28T11:52:47Z</time>
      </trkpt>
      <trkpt lat="46.4978" lon="5.72521">
        <ele>585.4</ele>
        <time>2022-02-28T11:52:48Z</time>
      </trkpt>
      <trkpt lat="46.49776" lon="5.72515">
        <ele>585.4</ele>
        <time>2022-02-28T11:52:49Z</time>
      </trkpt>
      <trkpt lat="46.49771" lon="5.72509">
        <ele>585.4</ele>
        <time>2022-02-28T11:52:50Z</time>
      </trkpt>
      <trkpt lat="46.49766" lon="5.72504">
        <ele>585.4</ele>
        <time>2022-02-28T11:52:51Z</time>
      </trkpt>
      <trkpt lat="46.49762" lon="5.72499">
        <ele>585.4</ele>
        <time>2022-02-28T11:52:52Z</time>
      </trkpt>
      <trkpt lat="46.49757" lon="5.72493">
        <ele>585.4</ele>
        <time>2022-02-28T11:52:53Z</time>
      </trkpt>
      <trkpt lat="46.49753" lon="5.72488">
        <ele>585.4</ele>
        <time>2022-02-28T11:52:54Z</time>
      </trkpt>
      <trkpt lat="46.49748" lon="5.72482">
        <ele>585.6</ele>
        <time>2022-02-28T11:52:55Z</time>
      </trkpt>
      <trkpt lat="46.49744" lon="5.72477">
        <ele>585.6</ele>
        <time>2022-02-28T11:52:56Z</time>
      </trkpt>
      <trkpt lat="46.4974" lon="5.72471">
        <ele>585.6</ele>
        <time>2022-02-28T11:52:57Z</time>
      </trkpt>
      <trkpt lat="46.49735" lon="5.72466">
        <ele>585.6</ele>
        <time>2022-02-28T11:52:58Z</time>
      </trkpt>
      <trkpt lat="46.49731" lon="5.72461">
        <ele>585.6</ele>
        <time>2022-02-28T11:52:59Z</time>
      </trkpt>
      <trkpt lat="46.49727" lon="5.72456">
        <ele>585.8</ele>
        <time>2022-02-28T11:53:00Z</time>
      </trkpt>
      <trkpt lat="46.49724" lon="5.72451">
        <ele>585.8</ele>
        <time>2022-02-28T11:53:01Z</time>
      </trkpt>
      <trkpt lat="46.4972" lon="5.72446">
        <ele>586</ele>
        <time>2022-02-28T11:53:02Z</time>
      </trkpt>
      <trkpt lat="46.49716" lon="5.72441">
        <ele>586</ele>
        <time>2022-02-28T11:53:03Z</time>
      </trkpt>
      <trkpt lat="46.49712" lon="5.72437">
        <ele>586.4</ele>
        <time>2022-02-28T11:53:04Z</time>
      </trkpt>
      <trkpt lat="46.49708" lon="5.72432">
        <ele>586.4</ele>
        <time>2022-02-28T11:53:05Z</time>
      </trkpt>
      <trkpt lat="46.49705" lon="5.72428">
        <ele>586.8</ele>
        <time>2022-02-28T11:53:06Z</time>
      </trkpt>
      <trkpt lat="46.49705" lon="5.72428">
        <ele>586.8</ele>
        <time>2022-02-28T11:53:07Z</time>
      </trkpt>
      <trkpt lat="46.49701" lon="5.72424">
        <ele>587</ele>
        <time>2022-02-28T11:53:08Z</time>
      </trkpt>
      <trkpt lat="46.49698" lon="5.72419">
        <ele>587</ele>
        <time>2022-02-28T11:53:09Z</time>
      </trkpt>
      <trkpt lat="46.49694" lon="5.72415">
        <ele>587.4</ele>
        <time>2022-02-28T11:53:10Z</time>
      </trkpt>
      <trkpt lat="46.49691" lon="5.72411">
        <ele>587.4</ele>
        <time>2022-02-28T11:53:11Z</time>
      </trkpt>
      <trkpt lat="46.49687" lon="5.72406">
        <ele>587.8</ele>
        <time>2022-02-28T11:53:12Z</time>
      </trkpt>
      <trkpt lat="46.49684" lon="5.72402">
        <ele>588</ele>
        <time>2022-02-28T11:53:13Z</time>
      </trkpt>
      <trkpt lat="46.4968" lon="5.72398">
        <ele>588.2</ele>
        <time>2022-02-28T11:53:14Z</time>
      </trkpt>
      <trkpt lat="46.49677" lon="5.72393">
        <ele>588.6</ele>
        <time>2022-02-28T11:53:15Z</time>
      </trkpt>
      <trkpt lat="46.49673" lon="5.72389">
        <ele>588.8</ele>
        <time>2022-02-28T11:53:16Z</time>
      </trkpt>
      <trkpt lat="46.4967" lon="5.72385">
        <ele>589</ele>
        <time>2022-02-28T11:53:17Z</time>
      </trkpt>
      <trkpt lat="46.49666" lon="5.72381">
        <ele>589.2</ele>
        <time>2022-02-28T11:53:18Z</time>
      </trkpt>
      <trkpt lat="46.49663" lon="5.72378">
        <ele>589.4</ele>
        <time>2022-02-28T11:53:19Z</time>
      </trkpt>
      <trkpt lat="46.4966" lon="5.72374">
        <ele>589.4</ele>
        <time>2022-02-28T11:53:20Z</time>
      </trkpt>
      <trkpt lat="46.49656" lon="5.7237">
        <ele>589.8</ele>
        <time>2022-02-28T11:53:21Z</time>
      </trkpt>
      <trkpt lat="46.49653" lon="5.72366">
        <ele>589.8</ele>
        <time>2022-02-28T11:53:22Z</time>
      </trkpt>
      <trkpt lat="46.49649" lon="5.72363">
        <ele>590.2</ele>
        <time>2022-02-28T11:53:23Z</time>
      </trkpt>
      <trkpt lat="46.49645" lon="5.7236">
        <ele>590.4</ele>
        <time>2022-02-28T11:53:24Z</time>
      </trkpt>
      <trkpt lat="46.49642" lon="5.72356">
        <ele>590.6</ele>
        <time>2022-02-28T11:53:25Z</time>
      </trkpt>
      <trkpt lat="46.49638" lon="5.72353">
        <ele>590.8</ele>
        <time>2022-02-28T11:53:26Z</time>
      </trkpt>
      <trkpt lat="46.49635" lon="5.7235">
        <ele>590.8</ele>
        <time>2022-02-28T11:53:27Z</time>
      </trkpt>
      <trkpt lat="46.49631" lon="5.72347">
        <ele>591.2</ele>
        <time>2022-02-28T11:53:28Z</time>
      </trkpt>
      <trkpt lat="46.49627" lon="5.72345">
        <ele>591.4</ele>
        <time>2022-02-28T11:53:29Z</time>
      </trkpt>
      <trkpt lat="46.49624" lon="5.72343">
        <ele>591.6</ele>
        <time>2022-02-28T11:53:30Z</time>
      </trkpt>
      <trkpt lat="46.4962" lon="5.72341">
        <ele>591.6</ele>
        <time>2022-02-28T11:53:31Z</time>
      </trkpt>
      <trkpt lat="46.49616" lon="5.72339">
        <ele>592</ele>
        <time>2022-02-28T11:53:32Z</time>
      </trkpt>
      <trkpt lat="46.49612" lon="5.72338">
        <ele>592</ele>
        <time>2022-02-28T11:53:33Z</time>
      </trkpt>
      <trkpt lat="46.49608" lon="5.72337">
        <ele>592.4</ele>
        <time>2022-02-28T11:53:34Z</time>
      </trkpt>
      <trkpt lat="46.49604" lon="5.72337">
        <ele>592.4</ele>
        <time>2022-02-28T11:53:35Z</time>
      </trkpt>
      <trkpt lat="46.49599" lon="5.72336">
        <ele>592.8</ele>
        <time>2022-02-28T11:53:36Z</time>
      </trkpt>
      <trkpt lat="46.49595" lon="5.72336">
        <ele>593</ele>
        <time>2022-02-28T11:53:37Z</time>
      </trkpt>
      <trkpt lat="46.49591" lon="5.72337">
        <ele>593</ele>
        <time>2022-02-28T11:53:38Z</time>
      </trkpt>
      <trkpt lat="46.49587" lon="5.72337">
        <ele>593.2</ele>
        <time>2022-02-28T11:53:39Z</time>
      </trkpt>
      <trkpt lat="46.49583" lon="5.72338">
        <ele>593.4</ele>
        <time>2022-02-28T11:53:40Z</time>
      </trkpt>
      <trkpt lat="46.49579" lon="5.72339">
        <ele>593.4</ele>
        <time>2022-02-28T11:53:41Z</time>
      </trkpt>
      <trkpt lat="46.49575" lon="5.7234">
        <ele>593.8</ele>
        <time>2022-02-28T11:53:42Z</time>
      </trkpt>
      <trkpt lat="46.49571" lon="5.72342">
        <ele>593.8</ele>
        <time>2022-02-28T11:53:43Z</time>
      </trkpt>
      <trkpt lat="46.49566" lon="5.72343">
        <ele>594</ele>
        <time>2022-02-28T11:53:44Z</time>
      </trkpt>
      <trkpt lat="46.49562" lon="5.72344">
        <ele>594</ele>
        <time>2022-02-28T11:53:45Z</time>
      </trkpt>
      <trkpt lat="46.49558" lon="5.72345">
        <ele>594.4</ele>
        <time>2022-02-28T11:53:46Z</time>
      </trkpt>
      <trkpt lat="46.49555" lon="5.72346">
        <ele>594.6</ele>
        <time>2022-02-28T11:53:47Z</time>
      </trkpt>
      <trkpt lat="46.49551" lon="5.72347">
        <ele>594.6</ele>
        <time>2022-02-28T11:53:48Z</time>
      </trkpt>
      <trkpt lat="46.49547" lon="5.72348">
        <ele>594.8</ele>
        <time>2022-02-28T11:53:49Z</time>
      </trkpt>
      <trkpt lat="46.49543" lon="5.72349">
        <ele>594.8</ele>
        <time>2022-02-28T11:53:50Z</time>
      </trkpt>
      <trkpt lat="46.49539" lon="5.72349">
        <ele>594.8</ele>
        <time>2022-02-28T11:53:51Z</time>
      </trkpt>
      <trkpt lat="46.49535" lon="5.72349">
        <ele>595.2</ele>
        <time>2022-02-28T11:53:52Z</time>
      </trkpt>
      <trkpt lat="46.49531" lon="5.72349">
        <ele>595.2</ele>
        <time>2022-02-28T11:53:53Z</time>
      </trkpt>
      <trkpt lat="46.49528" lon="5.72348">
        <ele>595.6</ele>
        <time>2022-02-28T11:53:54Z</time>
      </trkpt>
      <trkpt lat="46.49524" lon="5.72348">
        <ele>595.6</ele>
        <time>2022-02-28T11:53:55Z</time>
      </trkpt>
      <trkpt lat="46.4952" lon="5.72347">
        <ele>595.8</ele>
        <time>2022-02-28T11:53:56Z</time>
      </trkpt>
      <trkpt lat="46.49516" lon="5.72346">
        <ele>596</ele>
        <time>2022-02-28T11:53:57Z</time>
      </trkpt>
      <trkpt lat="46.49512" lon="5.72346">
        <ele>596</ele>
        <time>2022-02-28T11:53:58Z</time>
      </trkpt>
      <trkpt lat="46.49508" lon="5.72345">
        <ele>596.4</ele>
        <time>2022-02-28T11:53:59Z</time>
      </trkpt>
      <trkpt lat="46.49504" lon="5.72343">
        <ele>596.6</ele>
        <time>2022-02-28T11:54:00Z</time>
      </trkpt>
      <trkpt lat="46.49501" lon="5.72342">
        <ele>596.8</ele>
        <time>2022-02-28T11:54:01Z</time>
      </trkpt>
      <trkpt lat="46.49497" lon="5.7234">
        <ele>596.8</ele>
        <time>2022-02-28T11:54:02Z</time>
      </trkpt>
      <trkpt lat="46.49494" lon="5.72337">
        <ele>597.2</ele>
        <time>2022-02-28T11:54:03Z</time>
      </trkpt>
      <trkpt lat="46.49491" lon="5.72334">
        <ele>597.4</ele>
        <time>2022-02-28T11:54:04Z</time>
      </trkpt>
      <trkpt lat="46.49488" lon="5.72331">
        <ele>597.6</ele>
        <time>2022-02-28T11:54:05Z</time>
      </trkpt>
      <trkpt lat="46.49484" lon="5.72329">
        <ele>597.6</ele>
        <time>2022-02-28T11:54:06Z</time>
      </trkpt>
      <trkpt lat="46.49481" lon="5.72326">
        <ele>598</ele>
        <time>2022-02-28T11:54:07Z</time>
      </trkpt>
      <trkpt lat="46.49478" lon="5.72323">
        <ele>598</ele>
        <time>2022-02-28T11:54:08Z</time>
      </trkpt>
      <trkpt lat="46.49475" lon="5.72321">
        <ele>598.2</ele>
        <time>2022-02-28T11:54:09Z</time>
      </trkpt>
      <trkpt lat="46.49472" lon="5.72318">
        <ele>598.4</ele>
        <time>2022-02-28T11:54:10Z</time>
      </trkpt>
      <trkpt lat="46.49469" lon="5.72315">
        <ele>598.6</ele>
        <time>2022-02-28T11:54:11Z</time>
      </trkpt>
      <trkpt lat="46.49465" lon="5.72312">
        <ele>598.6</ele>
        <time>2022-02-28T11:54:12Z</time>
      </trkpt>
      <trkpt lat="46.49462" lon="5.72308">
        <ele>599</ele>
        <time>2022-02-28T11:54:13Z</time>
      </trkpt>
      <trkpt lat="46.49459" lon="5.72304">
        <ele>599</ele>
        <time>2022-02-28T11:54:14Z</time>
      </trkpt>
      <trkpt lat="46.49456" lon="5.72299">
        <ele>599.2</ele>
        <time>2022-02-28T11:54:15Z</time>
      </trkpt>
      <trkpt lat="46.49452" lon="5.72295">
        <ele>599.2</ele>
        <time>2022-02-28T11:54:16Z</time>
      </trkpt>
      <trkpt lat="46.4945" lon="5.7229">
        <ele>599.6</ele>
        <time>2022-02-28T11:54:17Z</time>
      </trkpt>
      <trkpt lat="46.49447" lon="5.72286">
        <ele>599.6</ele>
        <time>2022-02-28T11:54:18Z</time>
      </trkpt>
      <trkpt lat="46.49446" lon="5.72282">
        <ele>599.6</ele>
        <time>2022-02-28T11:54:19Z</time>
      </trkpt>
      <trkpt lat="46.49446" lon="5.72277">
        <ele>599.6</ele>
        <time>2022-02-28T11:54:20Z</time>
      </trkpt>
      <trkpt lat="46.49447" lon="5.72273">
        <ele>599.8</ele>
        <time>2022-02-28T11:54:21Z</time>
      </trkpt>
      <trkpt lat="46.49449" lon="5.72269">
        <ele>599.8</ele>
        <time>2022-02-28T11:54:22Z</time>
      </trkpt>
      <trkpt lat="46.49452" lon="5.72265">
        <ele>600</ele>
        <time>2022-02-28T11:54:23Z</time>
      </trkpt>
      <trkpt lat="46.49455" lon="5.72262">
        <ele>600</ele>
        <time>2022-02-28T11:54:24Z</time>
      </trkpt>
      <trkpt lat="46.49458" lon="5.72259">
        <ele>600.4</ele>
        <time>2022-02-28T11:54:25Z</time>
      </trkpt>
      <trkpt lat="46.49462" lon="5.72256">
        <ele>600.4</ele>
        <time>2022-02-28T11:54:26Z</time>
      </trkpt>
      <trkpt lat="46.49466" lon="5.72253">
        <ele>600.6</ele>
        <time>2022-02-28T11:54:27Z</time>
      </trkpt>
      <trkpt lat="46.4947" lon="5.72249">
        <ele>600.6</ele>
        <time>2022-02-28T11:54:28Z</time>
      </trkpt>
      <trkpt lat="46.49474" lon="5.72246">
        <ele>600.8</ele>
        <time>2022-02-28T11:54:29Z</time>
      </trkpt>
      <trkpt lat="46.49478" lon="5.72242">
        <ele>600.8</ele>
        <time>2022-02-28T11:54:30Z</time>
      </trkpt>
      <trkpt lat="46.49482" lon="5.72239">
        <ele>600.8</ele>
        <time>2022-02-28T11:54:31Z</time>
      </trkpt>
      <trkpt lat="46.49486" lon="5.72236">
        <ele>601</ele>
        <time>2022-02-28T11:54:32Z</time>
      </trkpt>
      <trkpt lat="46.4949" lon="5.72233">
        <ele>601</ele>
        <time>2022-02-28T11:54:33Z</time>
      </trkpt>
      <trkpt lat="46.49495" lon="5.7223">
        <ele>601.2</ele>
        <time>2022-02-28T11:54:34Z</time>
      </trkpt>
      <trkpt lat="46.49499" lon="5.72227">
        <ele>601.2</ele>
        <time>2022-02-28T11:54:35Z</time>
      </trkpt>
      <trkpt lat="46.49503" lon="5.72223">
        <ele>601.2</ele>
        <time>2022-02-28T11:54:36Z</time>
      </trkpt>
      <trkpt lat="46.49507" lon="5.7222">
        <ele>601.4</ele>
        <time>2022-02-28T11:54:37Z</time>
      </trkpt>
      <trkpt lat="46.49512" lon="5.72217">
        <ele>601.4</ele>
        <time>2022-02-28T11:54:38Z</time>
      </trkpt>
      <trkpt lat="46.49516" lon="5.72214">
        <ele>601.8</ele>
        <time>2022-02-28T11:54:39Z</time>
      </trkpt>
      <trkpt lat="46.49521" lon="5.72211">
        <ele>601.8</ele>
        <time>2022-02-28T11:54:40Z</time>
      </trkpt>
      <trkpt lat="46.49525" lon="5.72208">
        <ele>601.8</ele>
        <time>2022-02-28T11:54:41Z</time>
      </trkpt>
      <trkpt lat="46.49529" lon="5.72204">
        <ele>602</ele>
        <time>2022-02-28T11:54:42Z</time>
      </trkpt>
      <trkpt lat="46.49534" lon="5.72201">
        <ele>602</ele>
        <time>2022-02-28T11:54:43Z</time>
      </trkpt>
      <trkpt lat="46.49538" lon="5.72198">
        <ele>602</ele>
        <time>2022-02-28T11:54:44Z</time>
      </trkpt>
      <trkpt lat="46.49543" lon="5.72194">
        <ele>602</ele>
        <time>2022-02-28T11:54:45Z</time>
      </trkpt>
      <trkpt lat="46.49547" lon="5.72191">
        <ele>602</ele>
        <time>2022-02-28T11:54:46Z</time>
      </trkpt>
      <trkpt lat="46.49552" lon="5.72188">
        <ele>602</ele>
        <time>2022-02-28T11:54:47Z</time>
      </trkpt>
      <trkpt lat="46.49557" lon="5.72184">
        <ele>602</ele>
        <time>2022-02-28T11:54:48Z</time>
      </trkpt>
      <trkpt lat="46.49561" lon="5.7218">
        <ele>602.2</ele>
        <time>2022-02-28T11:54:49Z</time>
      </trkpt>
      <trkpt lat="46.49566" lon="5.72176">
        <ele>602.2</ele>
        <time>2022-02-28T11:54:50Z</time>
      </trkpt>
      <trkpt lat="46.49571" lon="5.72173">
        <ele>602.2</ele>
        <time>2022-02-28T11:54:51Z</time>
      </trkpt>
      <trkpt lat="46.49575" lon="5.7217">
        <ele>602.2</ele>
        <time>2022-02-28T11:54:52Z</time>
      </trkpt>
      <trkpt lat="46.4958" lon="5.72166">
        <ele>602.2</ele>
        <time>2022-02-28T11:54:53Z</time>
      </trkpt>
      <trkpt lat="46.49588" lon="5.7216">
        <ele>602.2</ele>
        <time>2022-02-28T11:54:54Z</time>
      </trkpt>
      <trkpt lat="46.49591" lon="5.72158">
        <ele>602.2</ele>
        <time>2022-02-28T11:54:55Z</time>
      </trkpt>
      <trkpt lat="46.49596" lon="5.72154">
        <ele>602.2</ele>
        <time>2022-02-28T11:54:56Z</time>
      </trkpt>
      <trkpt lat="46.49601" lon="5.7215">
        <ele>602.2</ele>
        <time>2022-02-28T11:54:57Z</time>
      </trkpt>
      <trkpt lat="46.49606" lon="5.72146">
        <ele>602.2</ele>
        <time>2022-02-28T11:54:58Z</time>
      </trkpt>
      <trkpt lat="46.49612" lon="5.72142">
        <ele>602</ele>
        <time>2022-02-28T11:54:59Z</time>
      </trkpt>
      <trkpt lat="46.49617" lon="5.72138">
        <ele>602</ele>
        <time>2022-02-28T11:55:00Z</time>
      </trkpt>
      <trkpt lat="46.49622" lon="5.72134">
        <ele>602</ele>
        <time>2022-02-28T11:55:01Z</time>
      </trkpt>
      <trkpt lat="46.49628" lon="5.7213">
        <ele>602</ele>
        <time>2022-02-28T11:55:02Z</time>
      </trkpt>
      <trkpt lat="46.49633" lon="5.72126">
        <ele>601.8</ele>
        <time>2022-02-28T11:55:03Z</time>
      </trkpt>
      <trkpt lat="46.49639" lon="5.72122">
        <ele>601.8</ele>
        <time>2022-02-28T11:55:04Z</time>
      </trkpt>
      <trkpt lat="46.49644" lon="5.72118">
        <ele>601.8</ele>
        <time>2022-02-28T11:55:05Z</time>
      </trkpt>
      <trkpt lat="46.4965" lon="5.72114">
        <ele>601.8</ele>
        <time>2022-02-28T11:55:06Z</time>
      </trkpt>
      <trkpt lat="46.49656" lon="5.72109">
        <ele>601.8</ele>
        <time>2022-02-28T11:55:07Z</time>
      </trkpt>
      <trkpt lat="46.49662" lon="5.72105">
        <ele>601.8</ele>
        <time>2022-02-28T11:55:08Z</time>
      </trkpt>
      <trkpt lat="46.49669" lon="5.72101">
        <ele>601.4</ele>
        <time>2022-02-28T11:55:09Z</time>
      </trkpt>
      <trkpt lat="46.49675" lon="5.72096">
        <ele>601.4</ele>
        <time>2022-02-28T11:55:10Z</time>
      </trkpt>
      <trkpt lat="46.49682" lon="5.72092">
        <ele>601.2</ele>
        <time>2022-02-28T11:55:11Z</time>
      </trkpt>
      <trkpt lat="46.49688" lon="5.72088">
        <ele>601.2</ele>
        <time>2022-02-28T11:55:12Z</time>
      </trkpt>
      <trkpt lat="46.49695" lon="5.72083">
        <ele>600.8</ele>
        <time>2022-02-28T11:55:13Z</time>
      </trkpt>
      <trkpt lat="46.49702" lon="5.72079">
        <ele>600.6</ele>
        <time>2022-02-28T11:55:14Z</time>
      </trkpt>
      <trkpt lat="46.49709" lon="5.72074">
        <ele>600.6</ele>
        <time>2022-02-28T11:55:15Z</time>
      </trkpt>
      <trkpt lat="46.49717" lon="5.7207">
        <ele>600.2</ele>
        <time>2022-02-28T11:55:16Z</time>
      </trkpt>
      <trkpt lat="46.49724" lon="5.72065">
        <ele>600.2</ele>
        <time>2022-02-28T11:55:17Z</time>
      </trkpt>
      <trkpt lat="46.49737" lon="5.72056">
        <ele>599.8</ele>
        <time>2022-02-28T11:55:18Z</time>
      </trkpt>
      <trkpt lat="46.49743" lon="5.72052">
        <ele>599.4</ele>
        <time>2022-02-28T11:55:19Z</time>
      </trkpt>
      <trkpt lat="46.49754" lon="5.72044">
        <ele>599.2</ele>
        <time>2022-02-28T11:55:20Z</time>
      </trkpt>
      <trkpt lat="46.49762" lon="5.72039">
        <ele>598.8</ele>
        <time>2022-02-28T11:55:21Z</time>
      </trkpt>
      <trkpt lat="46.4977" lon="5.72034">
        <ele>598.6</ele>
        <time>2022-02-28T11:55:22Z</time>
      </trkpt>
      <trkpt lat="46.49779" lon="5.72029">
        <ele>598.2</ele>
        <time>2022-02-28T11:55:23Z</time>
      </trkpt>
      <trkpt lat="46.49788" lon="5.72022">
        <ele>598</ele>
        <time>2022-02-28T11:55:24Z</time>
      </trkpt>
      <trkpt lat="46.49798" lon="5.72017">
        <ele>597.8</ele>
        <time>2022-02-28T11:55:25Z</time>
      </trkpt>
      <trkpt lat="46.49807" lon="5.72012">
        <ele>597.4</ele>
        <time>2022-02-28T11:55:26Z</time>
      </trkpt>
      <trkpt lat="46.4982" lon="5.72003">
        <ele>597.2</ele>
        <time>2022-02-28T11:55:27Z</time>
      </trkpt>
      <trkpt lat="46.49825" lon="5.72">
        <ele>596.8</ele>
        <time>2022-02-28T11:55:28Z</time>
      </trkpt>
      <trkpt lat="46.49834" lon="5.71994">
        <ele>596.2</ele>
        <time>2022-02-28T11:55:29Z</time>
      </trkpt>
      <trkpt lat="46.49843" lon="5.71988">
        <ele>595.6</ele>
        <time>2022-02-28T11:55:30Z</time>
      </trkpt>
      <trkpt lat="46.49852" lon="5.71982">
        <ele>596</ele>
        <time>2022-02-28T11:55:31Z</time>
      </trkpt>
      <trkpt lat="46.49861" lon="5.71976">
        <ele>595.6</ele>
        <time>2022-02-28T11:55:32Z</time>
      </trkpt>
      <trkpt lat="46.49869" lon="5.71971">
        <ele>595.6</ele>
        <time>2022-02-28T11:55:33Z</time>
      </trkpt>
      <trkpt lat="46.49869" lon="5.71971">
        <ele>594.8</ele>
        <time>2022-02-28T11:55:34Z</time>
      </trkpt>
      <trkpt lat="46.49879" lon="5.71965">
        <ele>594.4</ele>
        <time>2022-02-28T11:55:35Z</time>
      </trkpt>
      <trkpt lat="46.49888" lon="5.7196">
        <ele>594</ele>
        <time>2022-02-28T11:55:36Z</time>
      </trkpt>
      <trkpt lat="46.49897" lon="5.71953">
        <ele>593.4</ele>
        <time>2022-02-28T11:55:37Z</time>
      </trkpt>
      <trkpt lat="46.49907" lon="5.71947">
        <ele>593.2</ele>
        <time>2022-02-28T11:55:38Z</time>
      </trkpt>
      <trkpt lat="46.49917" lon="5.71941">
        <ele>592.8</ele>
        <time>2022-02-28T11:55:39Z</time>
      </trkpt>
      <trkpt lat="46.49926" lon="5.71934">
        <ele>592.8</ele>
        <time>2022-02-28T11:55:40Z</time>
      </trkpt>
      <trkpt lat="46.49936" lon="5.71928">
        <ele>592.4</ele>
        <time>2022-02-28T11:55:41Z</time>
      </trkpt>
      <trkpt lat="46.49945" lon="5.71922">
        <ele>592</ele>
        <time>2022-02-28T11:55:42Z</time>
      </trkpt>
      <trkpt lat="46.49955" lon="5.71917">
        <ele>591.6</ele>
        <time>2022-02-28T11:55:43Z</time>
      </trkpt>
      <trkpt lat="46.49965" lon="5.7191">
        <ele>591.2</ele>
        <time>2022-02-28T11:55:44Z</time>
      </trkpt>
      <trkpt lat="46.4998" lon="5.719">
        <ele>590.8</ele>
        <time>2022-02-28T11:55:45Z</time>
      </trkpt>
      <trkpt lat="46.49985" lon="5.71897">
        <ele>590.4</ele>
        <time>2022-02-28T11:55:46Z</time>
      </trkpt>
      <trkpt lat="46.49995" lon="5.71891">
        <ele>590</ele>
        <time>2022-02-28T11:55:47Z</time>
      </trkpt>
      <trkpt lat="46.50006" lon="5.71884">
        <ele>589.6</ele>
        <time>2022-02-28T11:55:48Z</time>
      </trkpt>
      <trkpt lat="46.50016" lon="5.71876">
        <ele>589.2</ele>
        <time>2022-02-28T11:55:49Z</time>
      </trkpt>
      <trkpt lat="46.50027" lon="5.7187">
        <ele>588.8</ele>
        <time>2022-02-28T11:55:50Z</time>
      </trkpt>
      <trkpt lat="46.50038" lon="5.71863">
        <ele>588.2</ele>
        <time>2022-02-28T11:55:51Z</time>
      </trkpt>
      <trkpt lat="46.50048" lon="5.71856">
        <ele>587.8</ele>
        <time>2022-02-28T11:55:52Z</time>
      </trkpt>
      <trkpt lat="46.50059" lon="5.71849">
        <ele>587.2</ele>
        <time>2022-02-28T11:55:53Z</time>
      </trkpt>
      <trkpt lat="46.5007" lon="5.71842">
        <ele>586.6</ele>
        <time>2022-02-28T11:55:54Z</time>
      </trkpt>
      <trkpt lat="46.50081" lon="5.71834">
        <ele>586</ele>
        <time>2022-02-28T11:55:55Z</time>
      </trkpt>
      <trkpt lat="46.50093" lon="5.71826">
        <ele>585.2</ele>
        <time>2022-02-28T11:55:56Z</time>
      </trkpt>
      <trkpt lat="46.50105" lon="5.71817">
        <ele>584.4</ele>
        <time>2022-02-28T11:55:57Z</time>
      </trkpt>
      <trkpt lat="46.50117" lon="5.71808">
        <ele>583.2</ele>
        <time>2022-02-28T11:55:58Z</time>
      </trkpt>
      <trkpt lat="46.50128" lon="5.71798">
        <ele>582.8</ele>
        <time>2022-02-28T11:55:59Z</time>
      </trkpt>
      <trkpt lat="46.50139" lon="5.71787">
        <ele>582.4</ele>
        <time>2022-02-28T11:56:00Z</time>
      </trkpt>
      <trkpt lat="46.5015" lon="5.71777">
        <ele>581.6</ele>
        <time>2022-02-28T11:56:01Z</time>
      </trkpt>
      <trkpt lat="46.50161" lon="5.71765">
        <ele>580.8</ele>
        <time>2022-02-28T11:56:02Z</time>
      </trkpt>
      <trkpt lat="46.50171" lon="5.71753">
        <ele>580</ele>
        <time>2022-02-28T11:56:03Z</time>
      </trkpt>
      <trkpt lat="46.50182" lon="5.71739">
        <ele>578.8</ele>
        <time>2022-02-28T11:56:04Z</time>
      </trkpt>
      <trkpt lat="46.50192" lon="5.71727">
        <ele>578</ele>
        <time>2022-02-28T11:56:05Z</time>
      </trkpt>
      <trkpt lat="46.50203" lon="5.71713">
        <ele>576.2</ele>
        <time>2022-02-28T11:56:06Z</time>
      </trkpt>
      <trkpt lat="46.50213" lon="5.71698">
        <ele>575.8</ele>
        <time>2022-02-28T11:56:07Z</time>
      </trkpt>
      <trkpt lat="46.50228" lon="5.71677">
        <ele>575</ele>
        <time>2022-02-28T11:56:08Z</time>
      </trkpt>
      <trkpt lat="46.50233" lon="5.7167">
        <ele>573.6</ele>
        <time>2022-02-28T11:56:09Z</time>
      </trkpt>
      <trkpt lat="46.50242" lon="5.71657">
        <ele>572.6</ele>
        <time>2022-02-28T11:56:10Z</time>
      </trkpt>
      <trkpt lat="46.50253" lon="5.71643">
        <ele>571.6</ele>
        <time>2022-02-28T11:56:11Z</time>
      </trkpt>
      <trkpt lat="46.50264" lon="5.71629">
        <ele>570.6</ele>
        <time>2022-02-28T11:56:12Z</time>
      </trkpt>
      <trkpt lat="46.50275" lon="5.71615">
        <ele>569.6</ele>
        <time>2022-02-28T11:56:13Z</time>
      </trkpt>
      <trkpt lat="46.50285" lon="5.71601">
        <ele>568.8</ele>
        <time>2022-02-28T11:56:14Z</time>
      </trkpt>
      <trkpt lat="46.50296" lon="5.71587">
        <ele>567.8</ele>
        <time>2022-02-28T11:56:15Z</time>
      </trkpt>
      <trkpt lat="46.50306" lon="5.71572">
        <ele>567</ele>
        <time>2022-02-28T11:56:16Z</time>
      </trkpt>
      <trkpt lat="46.50317" lon="5.71558">
        <ele>566</ele>
        <time>2022-02-28T11:56:17Z</time>
      </trkpt>
      <trkpt lat="46.50327" lon="5.71544">
        <ele>565.2</ele>
        <time>2022-02-28T11:56:18Z</time>
      </trkpt>
      <trkpt lat="46.50338" lon="5.7153">
        <ele>564.6</ele>
        <time>2022-02-28T11:56:19Z</time>
      </trkpt>
      <trkpt lat="46.50348" lon="5.71516">
        <ele>564</ele>
        <time>2022-02-28T11:56:20Z</time>
      </trkpt>
      <trkpt lat="46.50358" lon="5.71503">
        <ele>563.4</ele>
        <time>2022-02-28T11:56:21Z</time>
      </trkpt>
      <trkpt lat="46.50368" lon="5.7149">
        <ele>562.8</ele>
        <time>2022-02-28T11:56:22Z</time>
      </trkpt>
      <trkpt lat="46.50377" lon="5.71476">
        <ele>562.2</ele>
        <time>2022-02-28T11:56:23Z</time>
      </trkpt>
      <trkpt lat="46.50386" lon="5.71464">
        <ele>561.6</ele>
        <time>2022-02-28T11:56:24Z</time>
      </trkpt>
      <trkpt lat="46.50395" lon="5.71451">
        <ele>561.2</ele>
        <time>2022-02-28T11:56:25Z</time>
      </trkpt>
      <trkpt lat="46.50404" lon="5.71439">
        <ele>560.8</ele>
        <time>2022-02-28T11:56:26Z</time>
      </trkpt>
      <trkpt lat="46.50413" lon="5.71426">
        <ele>560.2</ele>
        <time>2022-02-28T11:56:27Z</time>
      </trkpt>
      <trkpt lat="46.50421" lon="5.71413">
        <ele>560</ele>
        <time>2022-02-28T11:56:28Z</time>
      </trkpt>
      <trkpt lat="46.50428" lon="5.714">
        <ele>559.6</ele>
        <time>2022-02-28T11:56:29Z</time>
      </trkpt>
      <trkpt lat="46.50436" lon="5.71387">
        <ele>559.2</ele>
        <time>2022-02-28T11:56:30Z</time>
      </trkpt>
      <trkpt lat="46.50444" lon="5.71374">
        <ele>559</ele>
        <time>2022-02-28T11:56:31Z</time>
      </trkpt>
      <trkpt lat="46.50451" lon="5.7136">
        <ele>558.6</ele>
        <time>2022-02-28T11:56:32Z</time>
      </trkpt>
      <trkpt lat="46.50458" lon="5.71346">
        <ele>558.2</ele>
        <time>2022-02-28T11:56:33Z</time>
      </trkpt>
      <trkpt lat="46.50464" lon="5.71332">
        <ele>557.8</ele>
        <time>2022-02-28T11:56:34Z</time>
      </trkpt>
      <trkpt lat="46.50471" lon="5.71318">
        <ele>557.4</ele>
        <time>2022-02-28T11:56:35Z</time>
      </trkpt>
      <trkpt lat="46.50477" lon="5.71304">
        <ele>557</ele>
        <time>2022-02-28T11:56:36Z</time>
      </trkpt>
      <trkpt lat="46.50483" lon="5.7129">
        <ele>556.6</ele>
        <time>2022-02-28T11:56:37Z</time>
      </trkpt>
      <trkpt lat="46.50489" lon="5.71276">
        <ele>556</ele>
        <time>2022-02-28T11:56:38Z</time>
      </trkpt>
      <trkpt lat="46.50494" lon="5.71261">
        <ele>555.6</ele>
        <time>2022-02-28T11:56:39Z</time>
      </trkpt>
      <trkpt lat="46.505" lon="5.71247">
        <ele>555.2</ele>
        <time>2022-02-28T11:56:40Z</time>
      </trkpt>
      <trkpt lat="46.50506" lon="5.71232">
        <ele>554.6</ele>
        <time>2022-02-28T11:56:41Z</time>
      </trkpt>
      <trkpt lat="46.50513" lon="5.71218">
        <ele>554.2</ele>
        <time>2022-02-28T11:56:42Z</time>
      </trkpt>
      <trkpt lat="46.50519" lon="5.71204">
        <ele>553.6</ele>
        <time>2022-02-28T11:56:43Z</time>
      </trkpt>
      <trkpt lat="46.50525" lon="5.71191">
        <ele>553</ele>
        <time>2022-02-28T11:56:44Z</time>
      </trkpt>
      <trkpt lat="46.50531" lon="5.71177">
        <ele>552.4</ele>
        <time>2022-02-28T11:56:45Z</time>
      </trkpt>
      <trkpt lat="46.50538" lon="5.71162">
        <ele>551.8</ele>
        <time>2022-02-28T11:56:46Z</time>
      </trkpt>
      <trkpt lat="46.50544" lon="5.71147">
        <ele>551.4</ele>
        <time>2022-02-28T11:56:47Z</time>
      </trkpt>
      <trkpt lat="46.50551" lon="5.71132">
        <ele>550.8</ele>
        <time>2022-02-28T11:56:48Z</time>
      </trkpt>
      <trkpt lat="46.50557" lon="5.71118">
        <ele>550.4</ele>
        <time>2022-02-28T11:56:49Z</time>
      </trkpt>
      <trkpt lat="46.50563" lon="5.71104">
        <ele>549.8</ele>
        <time>2022-02-28T11:56:50Z</time>
      </trkpt>
      <trkpt lat="46.5057" lon="5.7109">
        <ele>549.4</ele>
        <time>2022-02-28T11:56:51Z</time>
      </trkpt>
      <trkpt lat="46.50575" lon="5.71075">
        <ele>549</ele>
        <time>2022-02-28T11:56:52Z</time>
      </trkpt>
      <trkpt lat="46.50582" lon="5.71061">
        <ele>548.6</ele>
        <time>2022-02-28T11:56:53Z</time>
      </trkpt>
      <trkpt lat="46.50588" lon="5.71047">
        <ele>548.4</ele>
        <time>2022-02-28T11:56:54Z</time>
      </trkpt>
      <trkpt lat="46.50594" lon="5.71034">
        <ele>548</ele>
        <time>2022-02-28T11:56:55Z</time>
      </trkpt>
      <trkpt lat="46.506" lon="5.71021">
        <ele>548</ele>
        <time>2022-02-28T11:56:56Z</time>
      </trkpt>
      <trkpt lat="46.50605" lon="5.71008">
        <ele>547.8</ele>
        <time>2022-02-28T11:56:57Z</time>
      </trkpt>
      <trkpt lat="46.50612" lon="5.70995">
        <ele>547.4</ele>
        <time>2022-02-28T11:56:58Z</time>
      </trkpt>
      <trkpt lat="46.50618" lon="5.70983">
        <ele>547.4</ele>
        <time>2022-02-28T11:56:59Z</time>
      </trkpt>
      <trkpt lat="46.50628" lon="5.70965">
        <ele>547.2</ele>
        <time>2022-02-28T11:57:00Z</time>
      </trkpt>
      <trkpt lat="46.50631" lon="5.70959">
        <ele>547</ele>
        <time>2022-02-28T11:57:01Z</time>
      </trkpt>
      <trkpt lat="46.50641" lon="5.70943">
        <ele>547</ele>
        <time>2022-02-28T11:57:02Z</time>
      </trkpt>
      <trkpt lat="46.50644" lon="5.70937">
        <ele>546.8</ele>
        <time>2022-02-28T11:57:03Z</time>
      </trkpt>
      <trkpt lat="46.50651" lon="5.70927">
        <ele>546.4</ele>
        <time>2022-02-28T11:57:04Z</time>
      </trkpt>
      <trkpt lat="46.50658" lon="5.70916">
        <ele>546.2</ele>
        <time>2022-02-28T11:57:05Z</time>
      </trkpt>
      <trkpt lat="46.50669" lon="5.709">
        <ele>546.2</ele>
        <time>2022-02-28T11:57:06Z</time>
      </trkpt>
      <trkpt lat="46.50672" lon="5.70895">
        <ele>545.8</ele>
        <time>2022-02-28T11:57:07Z</time>
      </trkpt>
      <trkpt lat="46.50679" lon="5.70884">
        <ele>545.8</ele>
        <time>2022-02-28T11:57:08Z</time>
      </trkpt>
      <trkpt lat="46.50685" lon="5.70873">
        <ele>545.4</ele>
        <time>2022-02-28T11:57:09Z</time>
      </trkpt>
      <trkpt lat="46.50692" lon="5.70863">
        <ele>545</ele>
        <time>2022-02-28T11:57:10Z</time>
      </trkpt>
      <trkpt lat="46.50698" lon="5.70852">
        <ele>545</ele>
        <time>2022-02-28T11:57:11Z</time>
      </trkpt>
      <trkpt lat="46.50705" lon="5.70841">
        <ele>544.8</ele>
        <time>2022-02-28T11:57:12Z</time>
      </trkpt>
      <trkpt lat="46.50712" lon="5.7083">
        <ele>544.8</ele>
        <time>2022-02-28T11:57:13Z</time>
      </trkpt>
      <trkpt lat="46.50718" lon="5.70819">
        <ele>544.4</ele>
        <time>2022-02-28T11:57:14Z</time>
      </trkpt>
      <trkpt lat="46.50725" lon="5.70808">
        <ele>544.4</ele>
        <time>2022-02-28T11:57:15Z</time>
      </trkpt>
      <trkpt lat="46.50732" lon="5.70798">
        <ele>544</ele>
        <time>2022-02-28T11:57:16Z</time>
      </trkpt>
      <trkpt lat="46.50739" lon="5.70788">
        <ele>544</ele>
        <time>2022-02-28T11:57:17Z</time>
      </trkpt>
      <trkpt lat="46.50745" lon="5.70777">
        <ele>543.6</ele>
        <time>2022-02-28T11:57:18Z</time>
      </trkpt>
      <trkpt lat="46.50751" lon="5.70767">
        <ele>543.2</ele>
        <time>2022-02-28T11:57:19Z</time>
      </trkpt>
      <trkpt lat="46.50757" lon="5.70758">
        <ele>543.2</ele>
        <time>2022-02-28T11:57:20Z</time>
      </trkpt>
      <trkpt lat="46.50764" lon="5.70748">
        <ele>543</ele>
        <time>2022-02-28T11:57:21Z</time>
      </trkpt>
      <trkpt lat="46.5077" lon="5.70738">
        <ele>543</ele>
        <time>2022-02-28T11:57:22Z</time>
      </trkpt>
      <trkpt lat="46.50775" lon="5.70728">
        <ele>542.6</ele>
        <time>2022-02-28T11:57:23Z</time>
      </trkpt>
      <trkpt lat="46.50782" lon="5.70718">
        <ele>542.4</ele>
        <time>2022-02-28T11:57:24Z</time>
      </trkpt>
      <trkpt lat="46.50788" lon="5.70708">
        <ele>542.2</ele>
        <time>2022-02-28T11:57:25Z</time>
      </trkpt>
      <trkpt lat="46.50794" lon="5.70698">
        <ele>542.2</ele>
        <time>2022-02-28T11:57:26Z</time>
      </trkpt>
      <trkpt lat="46.50801" lon="5.70688">
        <ele>541.8</ele>
        <time>2022-02-28T11:57:27Z</time>
      </trkpt>
      <trkpt lat="46.50808" lon="5.70679">
        <ele>541.8</ele>
        <time>2022-02-28T11:57:28Z</time>
      </trkpt>
      <trkpt lat="46.50813" lon="5.70669">
        <ele>541.6</ele>
        <time>2022-02-28T11:57:29Z</time>
      </trkpt>
      <trkpt lat="46.50819" lon="5.70659">
        <ele>541.6</ele>
        <time>2022-02-28T11:57:30Z</time>
      </trkpt>
      <trkpt lat="46.50825" lon="5.7065">
        <ele>541.2</ele>
        <time>2022-02-28T11:57:31Z</time>
      </trkpt>
      <trkpt lat="46.50831" lon="5.7064">
        <ele>541.2</ele>
        <time>2022-02-28T11:57:32Z</time>
      </trkpt>
      <trkpt lat="46.50837" lon="5.70631">
        <ele>540.8</ele>
        <time>2022-02-28T11:57:33Z</time>
      </trkpt>
      <trkpt lat="46.50843" lon="5.70622">
        <ele>540.6</ele>
        <time>2022-02-28T11:57:34Z</time>
      </trkpt>
      <trkpt lat="46.50852" lon="5.70608">
        <ele>540.4</ele>
        <time>2022-02-28T11:57:35Z</time>
      </trkpt>
      <trkpt lat="46.50855" lon="5.70603">
        <ele>540.4</ele>
        <time>2022-02-28T11:57:36Z</time>
      </trkpt>
      <trkpt lat="46.50861" lon="5.70594">
        <ele>540</ele>
        <time>2022-02-28T11:57:37Z</time>
      </trkpt>
      <trkpt lat="46.50867" lon="5.70585">
        <ele>539.8</ele>
        <time>2022-02-28T11:57:38Z</time>
      </trkpt>
      <trkpt lat="46.50873" lon="5.70576">
        <ele>539.8</ele>
        <time>2022-02-28T11:57:39Z</time>
      </trkpt>
      <trkpt lat="46.50879" lon="5.70567">
        <ele>539.6</ele>
        <time>2022-02-28T11:57:40Z</time>
      </trkpt>
      <trkpt lat="46.50884" lon="5.70557">
        <ele>539.6</ele>
        <time>2022-02-28T11:57:41Z</time>
      </trkpt>
      <trkpt lat="46.5089" lon="5.70548">
        <ele>539.2</ele>
        <time>2022-02-28T11:57:42Z</time>
      </trkpt>
      <trkpt lat="46.50896" lon="5.70539">
        <ele>539</ele>
        <time>2022-02-28T11:57:43Z</time>
      </trkpt>
      <trkpt lat="46.50901" lon="5.7053">
        <ele>538.8</ele>
        <time>2022-02-28T11:57:44Z</time>
      </trkpt>
      <trkpt lat="46.50907" lon="5.70521">
        <ele>538.4</ele>
        <time>2022-02-28T11:57:45Z</time>
      </trkpt>
      <trkpt lat="46.50912" lon="5.70512">
        <ele>538.2</ele>
        <time>2022-02-28T11:57:46Z</time>
      </trkpt>
      <trkpt lat="46.50918" lon="5.70503">
        <ele>538</ele>
        <time>2022-02-28T11:57:47Z</time>
      </trkpt>
      <trkpt lat="46.50924" lon="5.70494">
        <ele>537.8</ele>
        <time>2022-02-28T11:57:48Z</time>
      </trkpt>
      <trkpt lat="46.50929" lon="5.70485">
        <ele>537.8</ele>
        <time>2022-02-28T11:57:49Z</time>
      </trkpt>
      <trkpt lat="46.50935" lon="5.70476">
        <ele>537.4</ele>
        <time>2022-02-28T11:57:50Z</time>
      </trkpt>
      <trkpt lat="46.50941" lon="5.70467">
        <ele>537.4</ele>
        <time>2022-02-28T11:57:51Z</time>
      </trkpt>
      <trkpt lat="46.50946" lon="5.70458">
        <ele>537.2</ele>
        <time>2022-02-28T11:57:52Z</time>
      </trkpt>
      <trkpt lat="46.50952" lon="5.70449">
        <ele>536.8</ele>
        <time>2022-02-28T11:57:53Z</time>
      </trkpt>
      <trkpt lat="46.50958" lon="5.7044">
        <ele>536.6</ele>
        <time>2022-02-28T11:57:54Z</time>
      </trkpt>
      <trkpt lat="46.50964" lon="5.70431">
        <ele>536.4</ele>
        <time>2022-02-28T11:57:55Z</time>
      </trkpt>
      <trkpt lat="46.50969" lon="5.70422">
        <ele>536.4</ele>
        <time>2022-02-28T11:57:56Z</time>
      </trkpt>
      <trkpt lat="46.50975" lon="5.70412">
        <ele>536</ele>
        <time>2022-02-28T11:57:57Z</time>
      </trkpt>
      <trkpt lat="46.50981" lon="5.70403">
        <ele>535.8</ele>
        <time>2022-02-28T11:57:58Z</time>
      </trkpt>
      <trkpt lat="46.50987" lon="5.70394">
        <ele>535.8</ele>
        <time>2022-02-28T11:57:59Z</time>
      </trkpt>
      <trkpt lat="46.50992" lon="5.70385">
        <ele>535.6</ele>
        <time>2022-02-28T11:58:00Z</time>
      </trkpt>
      <trkpt lat="46.50998" lon="5.70376">
        <ele>535.6</ele>
        <time>2022-02-28T11:58:01Z</time>
      </trkpt>
      <trkpt lat="46.51004" lon="5.70367">
        <ele>535.6</ele>
        <time>2022-02-28T11:58:02Z</time>
      </trkpt>
      <trkpt lat="46.51009" lon="5.70358">
        <ele>535.2</ele>
        <time>2022-02-28T11:58:03Z</time>
      </trkpt>
      <trkpt lat="46.51015" lon="5.7035">
        <ele>535.2</ele>
        <time>2022-02-28T11:58:04Z</time>
      </trkpt>
      <trkpt lat="46.5102" lon="5.70341">
        <ele>535.2</ele>
        <time>2022-02-28T11:58:05Z</time>
      </trkpt>
      <trkpt lat="46.51025" lon="5.70332">
        <ele>535.2</ele>
        <time>2022-02-28T11:58:06Z</time>
      </trkpt>
      <trkpt lat="46.51029" lon="5.70323">
        <ele>535.2</ele>
        <time>2022-02-28T11:58:07Z</time>
      </trkpt>
      <trkpt lat="46.51034" lon="5.70314">
        <ele>535.2</ele>
        <time>2022-02-28T11:58:08Z</time>
      </trkpt>
      <trkpt lat="46.51039" lon="5.70305">
        <ele>535.2</ele>
        <time>2022-02-28T11:58:09Z</time>
      </trkpt>
      <trkpt lat="46.51043" lon="5.70297">
        <ele>535.2</ele>
        <time>2022-02-28T11:58:10Z</time>
      </trkpt>
      <trkpt lat="46.51047" lon="5.70288">
        <ele>535.2</ele>
        <time>2022-02-28T11:58:11Z</time>
      </trkpt>
      <trkpt lat="46.51052" lon="5.70279">
        <ele>535.2</ele>
        <time>2022-02-28T11:58:12Z</time>
      </trkpt>
      <trkpt lat="46.51055" lon="5.70269">
        <ele>535.2</ele>
        <time>2022-02-28T11:58:13Z</time>
      </trkpt>
      <trkpt lat="46.51059" lon="5.7026">
        <ele>535</ele>
        <time>2022-02-28T11:58:14Z</time>
      </trkpt>
      <trkpt lat="46.51063" lon="5.7025">
        <ele>535</ele>
        <time>2022-02-28T11:58:15Z</time>
      </trkpt>
      <trkpt lat="46.51067" lon="5.70241">
        <ele>535</ele>
        <time>2022-02-28T11:58:16Z</time>
      </trkpt>
      <trkpt lat="46.51071" lon="5.70231">
        <ele>535</ele>
        <time>2022-02-28T11:58:17Z</time>
      </trkpt>
      <trkpt lat="46.51075" lon="5.70221">
        <ele>534.8</ele>
        <time>2022-02-28T11:58:18Z</time>
      </trkpt>
      <trkpt lat="46.51079" lon="5.70211">
        <ele>534.8</ele>
        <time>2022-02-28T11:58:19Z</time>
      </trkpt>
      <trkpt lat="46.51082" lon="5.702">
        <ele>534.6</ele>
        <time>2022-02-28T11:58:20Z</time>
      </trkpt>
      <trkpt lat="46.51086" lon="5.70189">
        <ele>534.4</ele>
        <time>2022-02-28T11:58:21Z</time>
      </trkpt>
      <trkpt lat="46.5109" lon="5.70179">
        <ele>534.4</ele>
        <time>2022-02-28T11:58:22Z</time>
      </trkpt>
      <trkpt lat="46.51094" lon="5.70168">
        <ele>534</ele>
        <time>2022-02-28T11:58:23Z</time>
      </trkpt>
      <trkpt lat="46.51098" lon="5.70157">
        <ele>533.8</ele>
        <time>2022-02-28T11:58:24Z</time>
      </trkpt>
      <trkpt lat="46.51103" lon="5.70145">
        <ele>533.6</ele>
        <time>2022-02-28T11:58:25Z</time>
      </trkpt>
      <trkpt lat="46.51107" lon="5.70134">
        <ele>533.2</ele>
        <time>2022-02-28T11:58:26Z</time>
      </trkpt>
      <trkpt lat="46.51111" lon="5.70123">
        <ele>533</ele>
        <time>2022-02-28T11:58:27Z</time>
      </trkpt>
      <trkpt lat="46.51115" lon="5.70111">
        <ele>532.8</ele>
        <time>2022-02-28T11:58:28Z</time>
      </trkpt>
      <trkpt lat="46.5112" lon="5.701">
        <ele>532.2</ele>
        <time>2022-02-28T11:58:29Z</time>
      </trkpt>
      <trkpt lat="46.51125" lon="5.70087">
        <ele>533</ele>
        <time>2022-02-28T11:58:30Z</time>
      </trkpt>
      <trkpt lat="46.5113" lon="5.70076">
        <ele>533</ele>
        <time>2022-02-28T11:58:31Z</time>
      </trkpt>
      <trkpt lat="46.51134" lon="5.70064">
        <ele>532.4</ele>
        <time>2022-02-28T11:58:32Z</time>
      </trkpt>
      <trkpt lat="46.51137" lon="5.70053">
        <ele>532.2</ele>
        <time>2022-02-28T11:58:33Z</time>
      </trkpt>
      <trkpt lat="46.51141" lon="5.70041">
        <ele>531.8</ele>
        <time>2022-02-28T11:58:34Z</time>
      </trkpt>
      <trkpt lat="46.51145" lon="5.70029">
        <ele>531.6</ele>
        <time>2022-02-28T11:58:35Z</time>
      </trkpt>
      <trkpt lat="46.5115" lon="5.70017">
        <ele>531.2</ele>
        <time>2022-02-28T11:58:36Z</time>
      </trkpt>
      <trkpt lat="46.51155" lon="5.70006">
        <ele>531</ele>
        <time>2022-02-28T11:58:37Z</time>
      </trkpt>
      <trkpt lat="46.51159" lon="5.69993">
        <ele>530.8</ele>
        <time>2022-02-28T11:58:38Z</time>
      </trkpt>
      <trkpt lat="46.51164" lon="5.69981">
        <ele>530.6</ele>
        <time>2022-02-28T11:58:39Z</time>
      </trkpt>
      <trkpt lat="46.51168" lon="5.69968">
        <ele>530.2</ele>
        <time>2022-02-28T11:58:40Z</time>
      </trkpt>
      <trkpt lat="46.51173" lon="5.69956">
        <ele>529.8</ele>
        <time>2022-02-28T11:58:41Z</time>
      </trkpt>
      <trkpt lat="46.51178" lon="5.69943">
        <ele>529.6</ele>
        <time>2022-02-28T11:58:42Z</time>
      </trkpt>
      <trkpt lat="46.51181" lon="5.6993">
        <ele>529.6</ele>
        <time>2022-02-28T11:58:43Z</time>
      </trkpt>
      <trkpt lat="46.51185" lon="5.69917">
        <ele>529.2</ele>
        <time>2022-02-28T11:58:44Z</time>
      </trkpt>
      <trkpt lat="46.5119" lon="5.69904">
        <ele>529</ele>
        <time>2022-02-28T11:58:45Z</time>
      </trkpt>
      <trkpt lat="46.51194" lon="5.69892">
        <ele>528.6</ele>
        <time>2022-02-28T11:58:46Z</time>
      </trkpt>
      <trkpt lat="46.51197" lon="5.69878">
        <ele>528.4</ele>
        <time>2022-02-28T11:58:47Z</time>
      </trkpt>
      <trkpt lat="46.512" lon="5.69865">
        <ele>528</ele>
        <time>2022-02-28T11:58:48Z</time>
      </trkpt>
      <trkpt lat="46.51204" lon="5.69851">
        <ele>527.8</ele>
        <time>2022-02-28T11:58:49Z</time>
      </trkpt>
      <trkpt lat="46.51208" lon="5.69838">
        <ele>527.6</ele>
        <time>2022-02-28T11:58:50Z</time>
      </trkpt>
      <trkpt lat="46.51212" lon="5.69824">
        <ele>527.6</ele>
        <time>2022-02-28T11:58:51Z</time>
      </trkpt>
      <trkpt lat="46.51216" lon="5.6981">
        <ele>527.2</ele>
        <time>2022-02-28T11:58:52Z</time>
      </trkpt>
      <trkpt lat="46.51219" lon="5.69796">
        <ele>527</ele>
        <time>2022-02-28T11:58:53Z</time>
      </trkpt>
      <trkpt lat="46.51221" lon="5.69782">
        <ele>526.6</ele>
        <time>2022-02-28T11:58:54Z</time>
      </trkpt>
      <trkpt lat="46.51223" lon="5.69768">
        <ele>526.4</ele>
        <time>2022-02-28T11:58:55Z</time>
      </trkpt>
      <trkpt lat="46.51225" lon="5.69754">
        <ele>526.2</ele>
        <time>2022-02-28T11:58:56Z</time>
      </trkpt>
      <trkpt lat="46.51227" lon="5.6974">
        <ele>525.8</ele>
        <time>2022-02-28T11:58:57Z</time>
      </trkpt>
      <trkpt lat="46.51229" lon="5.69725">
        <ele>525.6</ele>
        <time>2022-02-28T11:58:58Z</time>
      </trkpt>
      <trkpt lat="46.51231" lon="5.6971">
        <ele>525.6</ele>
        <time>2022-02-28T11:58:59Z</time>
      </trkpt>
      <trkpt lat="46.51232" lon="5.69695">
        <ele>525</ele>
        <time>2022-02-28T11:59:00Z</time>
      </trkpt>
      <trkpt lat="46.51232" lon="5.6968">
        <ele>524.8</ele>
        <time>2022-02-28T11:59:01Z</time>
      </trkpt>
      <trkpt lat="46.51233" lon="5.69666">
        <ele>524.4</ele>
        <time>2022-02-28T11:59:02Z</time>
      </trkpt>
      <trkpt lat="46.51234" lon="5.69651">
        <ele>524.2</ele>
        <time>2022-02-28T11:59:03Z</time>
      </trkpt>
      <trkpt lat="46.51235" lon="5.69637">
        <ele>524</ele>
        <time>2022-02-28T11:59:04Z</time>
      </trkpt>
      <trkpt lat="46.51234" lon="5.69621">
        <ele>523.6</ele>
        <time>2022-02-28T11:59:05Z</time>
      </trkpt>
      <trkpt lat="46.51234" lon="5.69606">
        <ele>523.4</ele>
        <time>2022-02-28T11:59:06Z</time>
      </trkpt>
      <trkpt lat="46.51233" lon="5.69592">
        <ele>523</ele>
        <time>2022-02-28T11:59:07Z</time>
      </trkpt>
      <trkpt lat="46.51232" lon="5.69569">
        <ele>522.6</ele>
        <time>2022-02-28T11:59:08Z</time>
      </trkpt>
      <trkpt lat="46.51232" lon="5.69562">
        <ele>522.4</ele>
        <time>2022-02-28T11:59:09Z</time>
      </trkpt>
      <trkpt lat="46.51231" lon="5.69547">
        <ele>522</ele>
        <time>2022-02-28T11:59:10Z</time>
      </trkpt>
      <trkpt lat="46.51231" lon="5.69532">
        <ele>521.8</ele>
        <time>2022-02-28T11:59:11Z</time>
      </trkpt>
      <trkpt lat="46.51229" lon="5.69517">
        <ele>521.4</ele>
        <time>2022-02-28T11:59:12Z</time>
      </trkpt>
      <trkpt lat="46.51227" lon="5.69503">
        <ele>521</ele>
        <time>2022-02-28T11:59:13Z</time>
      </trkpt>
      <trkpt lat="46.51226" lon="5.69489">
        <ele>520.6</ele>
        <time>2022-02-28T11:59:14Z</time>
      </trkpt>
      <trkpt lat="46.51224" lon="5.69475">
        <ele>520.2</ele>
        <time>2022-02-28T11:59:15Z</time>
      </trkpt>
      <trkpt lat="46.5122" lon="5.69454">
        <ele>519.8</ele>
        <time>2022-02-28T11:59:16Z</time>
      </trkpt>
      <trkpt lat="46.51219" lon="5.69448">
        <ele>519.2</ele>
        <time>2022-02-28T11:59:17Z</time>
      </trkpt>
      <trkpt lat="46.51217" lon="5.69434">
        <ele>518.6</ele>
        <time>2022-02-28T11:59:18Z</time>
      </trkpt>
      <trkpt lat="46.51214" lon="5.6942">
        <ele>518.2</ele>
        <time>2022-02-28T11:59:19Z</time>
      </trkpt>
      <trkpt lat="46.51211" lon="5.69406">
        <ele>517.6</ele>
        <time>2022-02-28T11:59:20Z</time>
      </trkpt>
      <trkpt lat="46.51208" lon="5.69392">
        <ele>517.2</ele>
        <time>2022-02-28T11:59:21Z</time>
      </trkpt>
      <trkpt lat="46.51205" lon="5.69377">
        <ele>516.6</ele>
        <time>2022-02-28T11:59:22Z</time>
      </trkpt>
      <trkpt lat="46.51202" lon="5.69364">
        <ele>516</ele>
        <time>2022-02-28T11:59:23Z</time>
      </trkpt>
      <trkpt lat="46.51199" lon="5.69349">
        <ele>515.4</ele>
        <time>2022-02-28T11:59:24Z</time>
      </trkpt>
      <trkpt lat="46.51196" lon="5.69334">
        <ele>514.6</ele>
        <time>2022-02-28T11:59:25Z</time>
      </trkpt>
      <trkpt lat="46.51192" lon="5.69318">
        <ele>514</ele>
        <time>2022-02-28T11:59:26Z</time>
      </trkpt>
      <trkpt lat="46.5119" lon="5.69302">
        <ele>513.2</ele>
        <time>2022-02-28T11:59:27Z</time>
      </trkpt>
      <trkpt lat="46.51187" lon="5.69285">
        <ele>512.4</ele>
        <time>2022-02-28T11:59:28Z</time>
      </trkpt>
      <trkpt lat="46.51185" lon="5.69267">
        <ele>511.6</ele>
        <time>2022-02-28T11:59:29Z</time>
      </trkpt>
      <trkpt lat="46.51184" lon="5.6925">
        <ele>510.6</ele>
        <time>2022-02-28T11:59:30Z</time>
      </trkpt>
      <trkpt lat="46.51183" lon="5.69231">
        <ele>509.6</ele>
        <time>2022-02-28T11:59:31Z</time>
      </trkpt>
      <trkpt lat="46.51183" lon="5.69213">
        <ele>508.8</ele>
        <time>2022-02-28T11:59:32Z</time>
      </trkpt>
      <trkpt lat="46.51184" lon="5.69195">
        <ele>507.8</ele>
        <time>2022-02-28T11:59:33Z</time>
      </trkpt>
      <trkpt lat="46.51186" lon="5.69176">
        <ele>506.8</ele>
        <time>2022-02-28T11:59:34Z</time>
      </trkpt>
      <trkpt lat="46.51188" lon="5.69157">
        <ele>505.6</ele>
        <time>2022-02-28T11:59:35Z</time>
      </trkpt>
      <trkpt lat="46.5119" lon="5.69138">
        <ele>504.4</ele>
        <time>2022-02-28T11:59:36Z</time>
      </trkpt>
      <trkpt lat="46.51193" lon="5.69119">
        <ele>503.4</ele>
        <time>2022-02-28T11:59:37Z</time>
      </trkpt>
      <trkpt lat="46.51196" lon="5.69101">
        <ele>502.2</ele>
        <time>2022-02-28T11:59:38Z</time>
      </trkpt>
      <trkpt lat="46.512" lon="5.69082">
        <ele>501.2</ele>
        <time>2022-02-28T11:59:39Z</time>
      </trkpt>
      <trkpt lat="46.51205" lon="5.69064">
        <ele>500.2</ele>
        <time>2022-02-28T11:59:40Z</time>
      </trkpt>
      <trkpt lat="46.5121" lon="5.69046">
        <ele>499.2</ele>
        <time>2022-02-28T11:59:41Z</time>
      </trkpt>
      <trkpt lat="46.51215" lon="5.69028">
        <ele>498.2</ele>
        <time>2022-02-28T11:59:42Z</time>
      </trkpt>
      <trkpt lat="46.51221" lon="5.6901">
        <ele>497.2</ele>
        <time>2022-02-28T11:59:43Z</time>
      </trkpt>
      <trkpt lat="46.51227" lon="5.68991">
        <ele>496</ele>
        <time>2022-02-28T11:59:44Z</time>
      </trkpt>
      <trkpt lat="46.51232" lon="5.68973">
        <ele>495.2</ele>
        <time>2022-02-28T11:59:45Z</time>
      </trkpt>
      <trkpt lat="46.51237" lon="5.68955">
        <ele>494</ele>
        <time>2022-02-28T11:59:46Z</time>
      </trkpt>
      <trkpt lat="46.51244" lon="5.68927">
        <ele>493</ele>
        <time>2022-02-28T11:59:47Z</time>
      </trkpt>
      <trkpt lat="46.51246" lon="5.68917">
        <ele>491.8</ele>
        <time>2022-02-28T11:59:48Z</time>
      </trkpt>
      <trkpt lat="46.5125" lon="5.68898">
        <ele>490.8</ele>
        <time>2022-02-28T11:59:49Z</time>
      </trkpt>
      <trkpt lat="46.51253" lon="5.68879">
        <ele>489.8</ele>
        <time>2022-02-28T11:59:50Z</time>
      </trkpt>
      <trkpt lat="46.51255" lon="5.68859">
        <ele>488.6</ele>
        <time>2022-02-28T11:59:51Z</time>
      </trkpt>
      <trkpt lat="46.51258" lon="5.6884">
        <ele>487.8</ele>
        <time>2022-02-28T11:59:52Z</time>
      </trkpt>
      <trkpt lat="46.51259" lon="5.6882">
        <ele>486.8</ele>
        <time>2022-02-28T11:59:53Z</time>
      </trkpt>
      <trkpt lat="46.51261" lon="5.68801">
        <ele>485.8</ele>
        <time>2022-02-28T11:59:54Z</time>
      </trkpt>
      <trkpt lat="46.51264" lon="5.68782">
        <ele>484.8</ele>
        <time>2022-02-28T11:59:55Z</time>
      </trkpt>
      <trkpt lat="46.51266" lon="5.68763">
        <ele>484</ele>
        <time>2022-02-28T11:59:56Z</time>
      </trkpt>
      <trkpt lat="46.51268" lon="5.68744">
        <ele>483.2</ele>
        <time>2022-02-28T11:59:57Z</time>
      </trkpt>
      <trkpt lat="46.51271" lon="5.68724">
        <ele>482.2</ele>
        <time>2022-02-28T11:59:58Z</time>
      </trkpt>
      <trkpt lat="46.51274" lon="5.68704">
        <ele>481.2</ele>
        <time>2022-02-28T11:59:59Z</time>
      </trkpt>
      <trkpt lat="46.51278" lon="5.68684">
        <ele>480.2</ele>
        <time>2022-02-28T12:00:00Z</time>
      </trkpt>
      <trkpt lat="46.51281" lon="5.68665">
        <ele>479.2</ele>
        <time>2022-02-28T12:00:01Z</time>
      </trkpt>
      <trkpt lat="46.51288" lon="5.68627">
        <ele>478.4</ele>
        <time>2022-02-28T12:00:02Z</time>
      </trkpt>
      <trkpt lat="46.51292" lon="5.68608">
        <ele>477.4</ele>
        <time>2022-02-28T12:00:03Z</time>
      </trkpt>
      <trkpt lat="46.51296" lon="5.68589">
        <ele>476.8</ele>
        <time>2022-02-28T12:00:04Z</time>
      </trkpt>
      <trkpt lat="46.513" lon="5.6857">
        <ele>476</ele>
        <time>2022-02-28T12:00:05Z</time>
      </trkpt>
      <trkpt lat="46.51304" lon="5.6855">
        <ele>475</ele>
        <time>2022-02-28T12:00:06Z</time>
      </trkpt>
      <trkpt lat="46.51307" lon="5.6853">
        <ele>474.2</ele>
        <time>2022-02-28T12:00:07Z</time>
      </trkpt>
      <trkpt lat="46.51311" lon="5.6851">
        <ele>473</ele>
        <time>2022-02-28T12:00:08Z</time>
      </trkpt>
      <trkpt lat="46.51316" lon="5.6849">
        <ele>472</ele>
        <time>2022-02-28T12:00:09Z</time>
      </trkpt>
      <trkpt lat="46.51321" lon="5.68472">
        <ele>471.2</ele>
        <time>2022-02-28T12:00:10Z</time>
      </trkpt>
      <trkpt lat="46.51328" lon="5.68453">
        <ele>470.2</ele>
        <time>2022-02-28T12:00:11Z</time>
      </trkpt>
      <trkpt lat="46.51333" lon="5.68433">
        <ele>469.2</ele>
        <time>2022-02-28T12:00:12Z</time>
      </trkpt>
      <trkpt lat="46.51339" lon="5.68413">
        <ele>468.2</ele>
        <time>2022-02-28T12:00:13Z</time>
      </trkpt>
      <trkpt lat="46.51344" lon="5.68393">
        <ele>467.4</ele>
        <time>2022-02-28T12:00:14Z</time>
      </trkpt>
      <trkpt lat="46.51344" lon="5.68393">
        <ele>466.4</ele>
        <time>2022-02-28T12:00:15Z</time>
      </trkpt>
      <trkpt lat="46.51349" lon="5.68373">
        <ele>465.6</ele>
        <time>2022-02-28T12:00:16Z</time>
      </trkpt>
      <trkpt lat="46.51354" lon="5.68353">
        <ele>464.8</ele>
        <time>2022-02-28T12:00:17Z</time>
      </trkpt>
      <trkpt lat="46.5136" lon="5.68333">
        <ele>463.8</ele>
        <time>2022-02-28T12:00:18Z</time>
      </trkpt>
      <trkpt lat="46.51365" lon="5.68314">
        <ele>463</ele>
        <time>2022-02-28T12:00:19Z</time>
      </trkpt>
      <trkpt lat="46.51371" lon="5.68294">
        <ele>462.2</ele>
        <time>2022-02-28T12:00:20Z</time>
      </trkpt>
      <trkpt lat="46.51375" lon="5.68274">
        <ele>461.6</ele>
        <time>2022-02-28T12:00:21Z</time>
      </trkpt>
      <trkpt lat="46.51381" lon="5.68255">
        <ele>460.8</ele>
        <time>2022-02-28T12:00:22Z</time>
      </trkpt>
      <trkpt lat="46.51386" lon="5.68236">
        <ele>460.4</ele>
        <time>2022-02-28T12:00:23Z</time>
      </trkpt>
      <trkpt lat="46.5139" lon="5.68217">
        <ele>460</ele>
        <time>2022-02-28T12:00:24Z</time>
      </trkpt>
      <trkpt lat="46.51395" lon="5.68199">
        <ele>459.8</ele>
        <time>2022-02-28T12:00:25Z</time>
      </trkpt>
      <trkpt lat="46.51398" lon="5.68181">
        <ele>459.4</ele>
        <time>2022-02-28T12:00:26Z</time>
      </trkpt>
      <trkpt lat="46.51402" lon="5.68164">
        <ele>459.2</ele>
        <time>2022-02-28T12:00:27Z</time>
      </trkpt>
      <trkpt lat="46.51404" lon="5.68147">
        <ele>458.8</ele>
        <time>2022-02-28T12:00:28Z</time>
      </trkpt>
      <trkpt lat="46.51406" lon="5.68129">
        <ele>458.8</ele>
        <time>2022-02-28T12:00:29Z</time>
      </trkpt>
      <trkpt lat="46.51409" lon="5.68105">
        <ele>458.6</ele>
        <time>2022-02-28T12:00:30Z</time>
      </trkpt>
      <trkpt lat="46.5141" lon="5.68097">
        <ele>458.6</ele>
        <time>2022-02-28T12:00:31Z</time>
      </trkpt>
      <trkpt lat="46.51413" lon="5.68081">
        <ele>458.2</ele>
        <time>2022-02-28T12:00:32Z</time>
      </trkpt>
      <trkpt lat="46.51414" lon="5.68066">
        <ele>458.2</ele>
        <time>2022-02-28T12:00:33Z</time>
      </trkpt>
      <trkpt lat="46.51416" lon="5.6805">
        <ele>457.8</ele>
        <time>2022-02-28T12:00:34Z</time>
      </trkpt>
      <trkpt lat="46.51418" lon="5.68035">
        <ele>457.8</ele>
        <time>2022-02-28T12:00:35Z</time>
      </trkpt>
      <trkpt lat="46.51419" lon="5.68019">
        <ele>457.4</ele>
        <time>2022-02-28T12:00:36Z</time>
      </trkpt>
      <trkpt lat="46.5142" lon="5.68004">
        <ele>457.4</ele>
        <time>2022-02-28T12:00:37Z</time>
      </trkpt>
      <trkpt lat="46.51422" lon="5.6799">
        <ele>457</ele>
        <time>2022-02-28T12:00:38Z</time>
      </trkpt>
      <trkpt lat="46.51423" lon="5.67976">
        <ele>457</ele>
        <time>2022-02-28T12:00:39Z</time>
      </trkpt>
      <trkpt lat="46.51425" lon="5.67962">
        <ele>457</ele>
        <time>2022-02-28T12:00:40Z</time>
      </trkpt>
      <trkpt lat="46.51428" lon="5.67948">
        <ele>457</ele>
        <time>2022-02-28T12:00:41Z</time>
      </trkpt>
      <trkpt lat="46.51431" lon="5.67934">
        <ele>456.8</ele>
        <time>2022-02-28T12:00:42Z</time>
      </trkpt>
      <trkpt lat="46.51434" lon="5.6792">
        <ele>456.8</ele>
        <time>2022-02-28T12:00:43Z</time>
      </trkpt>
      <trkpt lat="46.51438" lon="5.67907">
        <ele>456.4</ele>
        <time>2022-02-28T12:00:44Z</time>
      </trkpt>
      <trkpt lat="46.51442" lon="5.67895">
        <ele>456.4</ele>
        <time>2022-02-28T12:00:45Z</time>
      </trkpt>
      <trkpt lat="46.51446" lon="5.67884">
        <ele>456.4</ele>
        <time>2022-02-28T12:00:46Z</time>
      </trkpt>
      <trkpt lat="46.51449" lon="5.67872">
        <ele>456.4</ele>
        <time>2022-02-28T12:00:47Z</time>
      </trkpt>
      <trkpt lat="46.51456" lon="5.67855">
        <ele>456.2</ele>
        <time>2022-02-28T12:00:48Z</time>
      </trkpt>
      <trkpt lat="46.51459" lon="5.6785">
        <ele>456.6</ele>
        <time>2022-02-28T12:00:49Z</time>
      </trkpt>
      <trkpt lat="46.51464" lon="5.67839">
        <ele>456.6</ele>
        <time>2022-02-28T12:00:50Z</time>
      </trkpt>
      <trkpt lat="46.51469" lon="5.67829">
        <ele>456.4</ele>
        <time>2022-02-28T12:00:51Z</time>
      </trkpt>
      <trkpt lat="46.51474" lon="5.67818">
        <ele>456.4</ele>
        <time>2022-02-28T12:00:52Z</time>
      </trkpt>
      <trkpt lat="46.51478" lon="5.67808">
        <ele>456</ele>
        <time>2022-02-28T12:00:53Z</time>
      </trkpt>
      <trkpt lat="46.51483" lon="5.67798">
        <ele>456</ele>
        <time>2022-02-28T12:00:54Z</time>
      </trkpt>
      <trkpt lat="46.51487" lon="5.67787">
        <ele>455.8</ele>
        <time>2022-02-28T12:00:55Z</time>
      </trkpt>
      <trkpt lat="46.51491" lon="5.67777">
        <ele>455.8</ele>
        <time>2022-02-28T12:00:56Z</time>
      </trkpt>
      <trkpt lat="46.51495" lon="5.67767">
        <ele>455.4</ele>
        <time>2022-02-28T12:00:57Z</time>
      </trkpt>
      <trkpt lat="46.51499" lon="5.67758">
        <ele>455.4</ele>
        <time>2022-02-28T12:00:58Z</time>
      </trkpt>
      <trkpt lat="46.51503" lon="5.67748">
        <ele>455.2</ele>
        <time>2022-02-28T12:00:59Z</time>
      </trkpt>
      <trkpt lat="46.51509" lon="5.67733">
        <ele>455.2</ele>
        <time>2022-02-28T12:01:00Z</time>
      </trkpt>
      <trkpt lat="46.51511" lon="5.67728">
        <ele>455.2</ele>
        <time>2022-02-28T12:01:01Z</time>
      </trkpt>
      <trkpt lat="46.51515" lon="5.67718">
        <ele>455</ele>
        <time>2022-02-28T12:01:02Z</time>
      </trkpt>
      <trkpt lat="46.51519" lon="5.67709">
        <ele>455</ele>
        <time>2022-02-28T12:01:03Z</time>
      </trkpt>
      <trkpt lat="46.51524" lon="5.67699">
        <ele>454.6</ele>
        <time>2022-02-28T12:01:04Z</time>
      </trkpt>
      <trkpt lat="46.51528" lon="5.67689">
        <ele>454.6</ele>
        <time>2022-02-28T12:01:05Z</time>
      </trkpt>
      <trkpt lat="46.51532" lon="5.67679">
        <ele>454.6</ele>
        <time>2022-02-28T12:01:06Z</time>
      </trkpt>
      <trkpt lat="46.51536" lon="5.6767">
        <ele>454.4</ele>
        <time>2022-02-28T12:01:07Z</time>
      </trkpt>
      <trkpt lat="46.5154" lon="5.6766">
        <ele>454.4</ele>
        <time>2022-02-28T12:01:08Z</time>
      </trkpt>
      <trkpt lat="46.51544" lon="5.6765">
        <ele>454.2</ele>
        <time>2022-02-28T12:01:09Z</time>
      </trkpt>
      <trkpt lat="46.51548" lon="5.6764">
        <ele>454.2</ele>
        <time>2022-02-28T12:01:10Z</time>
      </trkpt>
      <trkpt lat="46.51553" lon="5.6763">
        <ele>454.2</ele>
        <time>2022-02-28T12:01:11Z</time>
      </trkpt>
      <trkpt lat="46.51557" lon="5.67621">
        <ele>454</ele>
        <time>2022-02-28T12:01:12Z</time>
      </trkpt>
      <trkpt lat="46.51561" lon="5.67611">
        <ele>454</ele>
        <time>2022-02-28T12:01:13Z</time>
      </trkpt>
      <trkpt lat="46.51566" lon="5.67602">
        <ele>454</ele>
        <time>2022-02-28T12:01:14Z</time>
      </trkpt>
      <trkpt lat="46.5157" lon="5.67592">
        <ele>453.8</ele>
        <time>2022-02-28T12:01:15Z</time>
      </trkpt>
      <trkpt lat="46.51574" lon="5.67582">
        <ele>453.8</ele>
        <time>2022-02-28T12:01:16Z</time>
      </trkpt>
      <trkpt lat="46.51578" lon="5.67572">
        <ele>453.8</ele>
        <time>2022-02-28T12:01:17Z</time>
      </trkpt>
      <trkpt lat="46.51582" lon="5.67562">
        <ele>453.4</ele>
        <time>2022-02-28T12:01:18Z</time>
      </trkpt>
      <trkpt lat="46.51587" lon="5.67552">
        <ele>453.4</ele>
        <time>2022-02-28T12:01:19Z</time>
      </trkpt>
      <trkpt lat="46.51591" lon="5.67543">
        <ele>453.4</ele>
        <time>2022-02-28T12:01:20Z</time>
      </trkpt>
      <trkpt lat="46.51595" lon="5.67533">
        <ele>453.2</ele>
        <time>2022-02-28T12:01:21Z</time>
      </trkpt>
      <trkpt lat="46.516" lon="5.67523">
        <ele>453.2</ele>
        <time>2022-02-28T12:01:22Z</time>
      </trkpt>
      <trkpt lat="46.51604" lon="5.67513">
        <ele>453</ele>
        <time>2022-02-28T12:01:23Z</time>
      </trkpt>
      <trkpt lat="46.51608" lon="5.67503">
        <ele>453</ele>
        <time>2022-02-28T12:01:24Z</time>
      </trkpt>
      <trkpt lat="46.51612" lon="5.67493">
        <ele>453</ele>
        <time>2022-02-28T12:01:25Z</time>
      </trkpt>
      <trkpt lat="46.51617" lon="5.67483">
        <ele>453</ele>
        <time>2022-02-28T12:01:26Z</time>
      </trkpt>
      <trkpt lat="46.51621" lon="5.67472">
        <ele>453</ele>
        <time>2022-02-28T12:01:27Z</time>
      </trkpt>
      <trkpt lat="46.51625" lon="5.67462">
        <ele>452.6</ele>
        <time>2022-02-28T12:01:28Z</time>
      </trkpt>
      <trkpt lat="46.5163" lon="5.67452">
        <ele>452.6</ele>
        <time>2022-02-28T12:01:29Z</time>
      </trkpt>
      <trkpt lat="46.51634" lon="5.67442">
        <ele>452.4</ele>
        <time>2022-02-28T12:01:30Z</time>
      </trkpt>
      <trkpt lat="46.51641" lon="5.67427">
        <ele>452.4</ele>
        <time>2022-02-28T12:01:31Z</time>
      </trkpt>
      <trkpt lat="46.51643" lon="5.67422">
        <ele>452.4</ele>
        <time>2022-02-28T12:01:32Z</time>
      </trkpt>
      <trkpt lat="46.51647" lon="5.67412">
        <ele>452.2</ele>
        <time>2022-02-28T12:01:33Z</time>
      </trkpt>
      <trkpt lat="46.51652" lon="5.67402">
        <ele>452.2</ele>
        <time>2022-02-28T12:01:34Z</time>
      </trkpt>
      <trkpt lat="46.51656" lon="5.67392">
        <ele>452</ele>
        <time>2022-02-28T12:01:35Z</time>
      </trkpt>
      <trkpt lat="46.51661" lon="5.67382">
        <ele>452</ele>
        <time>2022-02-28T12:01:36Z</time>
      </trkpt>
      <trkpt lat="46.51666" lon="5.67372">
        <ele>451.8</ele>
        <time>2022-02-28T12:01:37Z</time>
      </trkpt>
      <trkpt lat="46.51671" lon="5.67363">
        <ele>451.8</ele>
        <time>2022-02-28T12:01:38Z</time>
      </trkpt>
      <trkpt lat="46.51677" lon="5.67355">
        <ele>451.8</ele>
        <time>2022-02-28T12:01:39Z</time>
      </trkpt>
      <trkpt lat="46.51687" lon="5.67345">
        <ele>451.8</ele>
        <time>2022-02-28T12:01:40Z</time>
      </trkpt>
      <trkpt lat="46.5169" lon="5.67342">
        <ele>451.8</ele>
        <time>2022-02-28T12:01:41Z</time>
      </trkpt>
      <trkpt lat="46.51698" lon="5.67336">
        <ele>451.6</ele>
        <time>2022-02-28T12:01:42Z</time>
      </trkpt>
      <trkpt lat="46.51705" lon="5.6733">
        <ele>451.6</ele>
        <time>2022-02-28T12:01:43Z</time>
      </trkpt>
      <trkpt lat="46.51712" lon="5.67325">
        <ele>451.6</ele>
        <time>2022-02-28T12:01:44Z</time>
      </trkpt>
      <trkpt lat="46.51719" lon="5.67321">
        <ele>451.2</ele>
        <time>2022-02-28T12:01:45Z</time>
      </trkpt>
      <trkpt lat="46.51726" lon="5.67316">
        <ele>451.2</ele>
        <time>2022-02-28T12:01:46Z</time>
      </trkpt>
      <trkpt lat="46.51733" lon="5.67311">
        <ele>451.2</ele>
        <time>2022-02-28T12:01:47Z</time>
      </trkpt>
      <trkpt lat="46.5174" lon="5.67306">
        <ele>451.2</ele>
        <time>2022-02-28T12:01:48Z</time>
      </trkpt>
      <trkpt lat="46.51747" lon="5.67301">
        <ele>451</ele>
        <time>2022-02-28T12:01:49Z</time>
      </trkpt>
      <trkpt lat="46.51754" lon="5.67296">
        <ele>451</ele>
        <time>2022-02-28T12:01:50Z</time>
      </trkpt>
      <trkpt lat="46.51761" lon="5.6729">
        <ele>451</ele>
        <time>2022-02-28T12:01:51Z</time>
      </trkpt>
      <trkpt lat="46.51768" lon="5.67285">
        <ele>450.8</ele>
        <time>2022-02-28T12:01:52Z</time>
      </trkpt>
      <trkpt lat="46.51775" lon="5.67279">
        <ele>450.8</ele>
        <time>2022-02-28T12:01:53Z</time>
      </trkpt>
      <trkpt lat="46.51782" lon="5.67273">
        <ele>450.8</ele>
        <time>2022-02-28T12:01:54Z</time>
      </trkpt>
      <trkpt lat="46.51789" lon="5.67268">
        <ele>450.4</ele>
        <time>2022-02-28T12:01:55Z</time>
      </trkpt>
      <trkpt lat="46.51796" lon="5.67262">
        <ele>450.4</ele>
        <time>2022-02-28T12:01:56Z</time>
      </trkpt>
      <trkpt lat="46.51803" lon="5.67256">
        <ele>450.4</ele>
        <time>2022-02-28T12:01:57Z</time>
      </trkpt>
      <trkpt lat="46.5181" lon="5.6725">
        <ele>450.4</ele>
        <time>2022-02-28T12:01:58Z</time>
      </trkpt>
      <trkpt lat="46.51816" lon="5.67244">
        <ele>450.2</ele>
        <time>2022-02-28T12:01:59Z</time>
      </trkpt>
      <trkpt lat="46.51823" lon="5.67238">
        <ele>450.2</ele>
        <time>2022-02-28T12:02:00Z</time>
      </trkpt>
      <trkpt lat="46.5183" lon="5.67231">
        <ele>450</ele>
        <time>2022-02-28T12:02:01Z</time>
      </trkpt>
      <trkpt lat="46.51837" lon="5.67224">
        <ele>450</ele>
        <time>2022-02-28T12:02:02Z</time>
      </trkpt>
      <trkpt lat="46.51843" lon="5.67218">
        <ele>450</ele>
        <time>2022-02-28T12:02:03Z</time>
      </trkpt>
      <trkpt lat="46.5185" lon="5.67211">
        <ele>449.6</ele>
        <time>2022-02-28T12:02:04Z</time>
      </trkpt>
      <trkpt lat="46.51857" lon="5.67204">
        <ele>449.6</ele>
        <time>2022-02-28T12:02:05Z</time>
      </trkpt>
      <trkpt lat="46.51863" lon="5.67197">
        <ele>449.6</ele>
        <time>2022-02-28T12:02:06Z</time>
      </trkpt>
      <trkpt lat="46.5187" lon="5.6719">
        <ele>449.4</ele>
        <time>2022-02-28T12:02:07Z</time>
      </trkpt>
      <trkpt lat="46.51876" lon="5.67183">
        <ele>449.4</ele>
        <time>2022-02-28T12:02:08Z</time>
      </trkpt>
      <trkpt lat="46.51883" lon="5.67177">
        <ele>449.4</ele>
        <time>2022-02-28T12:02:09Z</time>
      </trkpt>
      <trkpt lat="46.51889" lon="5.67171">
        <ele>449.6</ele>
        <time>2022-02-28T12:02:10Z</time>
      </trkpt>
      <trkpt lat="46.51895" lon="5.67165">
        <ele>449.6</ele>
        <time>2022-02-28T12:02:11Z</time>
      </trkpt>
      <trkpt lat="46.519" lon="5.67159">
        <ele>450</ele>
        <time>2022-02-28T12:02:12Z</time>
      </trkpt>
      <trkpt lat="46.51905" lon="5.67154">
        <ele>450.4</ele>
        <time>2022-02-28T12:02:13Z</time>
      </trkpt>
      <trkpt lat="46.5191" lon="5.67148">
        <ele>450.6</ele>
        <time>2022-02-28T12:02:14Z</time>
      </trkpt>
      <trkpt lat="46.51915" lon="5.67143">
        <ele>451</ele>
        <time>2022-02-28T12:02:15Z</time>
      </trkpt>
      <trkpt lat="46.51919" lon="5.67137">
        <ele>451.2</ele>
        <time>2022-02-28T12:02:16Z</time>
      </trkpt>
      <trkpt lat="46.51924" lon="5.67132">
        <ele>451.6</ele>
        <time>2022-02-28T12:02:17Z</time>
      </trkpt>
      <trkpt lat="46.51928" lon="5.67127">
        <ele>452.2</ele>
        <time>2022-02-28T12:02:18Z</time>
      </trkpt>
      <trkpt lat="46.51933" lon="5.67119">
        <ele>452.6</ele>
        <time>2022-02-28T12:02:19Z</time>
      </trkpt>
      <trkpt lat="46.51935" lon="5.67117">
        <ele>452.8</ele>
        <time>2022-02-28T12:02:20Z</time>
      </trkpt>
      <trkpt lat="46.51938" lon="5.67112">
        <ele>453</ele>
        <time>2022-02-28T12:02:21Z</time>
      </trkpt>
      <trkpt lat="46.51942" lon="5.67107">
        <ele>453.4</ele>
        <time>2022-02-28T12:02:22Z</time>
      </trkpt>
      <trkpt lat="46.51945" lon="5.67102">
        <ele>453.6</ele>
        <time>2022-02-28T12:02:23Z</time>
      </trkpt>
      <trkpt lat="46.51948" lon="5.67097">
        <ele>454</ele>
        <time>2022-02-28T12:02:24Z</time>
      </trkpt>
      <trkpt lat="46.5195" lon="5.67092">
        <ele>454.4</ele>
        <time>2022-02-28T12:02:25Z</time>
      </trkpt>
      <trkpt lat="46.51953" lon="5.67087">
        <ele>454.8</ele>
        <time>2022-02-28T12:02:26Z</time>
      </trkpt>
      <trkpt lat="46.51955" lon="5.67082">
        <ele>455.2</ele>
        <time>2022-02-28T12:02:27Z</time>
      </trkpt>
      <trkpt lat="46.51958" lon="5.67077">
        <ele>455.4</ele>
        <time>2022-02-28T12:02:28Z</time>
      </trkpt>
      <trkpt lat="46.5196" lon="5.67072">
        <ele>455.6</ele>
        <time>2022-02-28T12:02:29Z</time>
      </trkpt>
      <trkpt lat="46.51963" lon="5.67067">
        <ele>456</ele>
        <time>2022-02-28T12:02:30Z</time>
      </trkpt>
      <trkpt lat="46.51965" lon="5.67061">
        <ele>456.4</ele>
        <time>2022-02-28T12:02:31Z</time>
      </trkpt>
      <trkpt lat="46.51967" lon="5.67056">
        <ele>456.6</ele>
        <time>2022-02-28T12:02:32Z</time>
      </trkpt>
      <trkpt lat="46.51969" lon="5.6705">
        <ele>456.8</ele>
        <time>2022-02-28T12:02:33Z</time>
      </trkpt>
      <trkpt lat="46.51971" lon="5.67044">
        <ele>457</ele>
        <time>2022-02-28T12:02:34Z</time>
      </trkpt>
      <trkpt lat="46.51972" lon="5.67038">
        <ele>457.4</ele>
        <time>2022-02-28T12:02:35Z</time>
      </trkpt>
      <trkpt lat="46.51973" lon="5.67032">
        <ele>457.6</ele>
        <time>2022-02-28T12:02:36Z</time>
      </trkpt>
      <trkpt lat="46.51975" lon="5.67026">
        <ele>457.8</ele>
        <time>2022-02-28T12:02:37Z</time>
      </trkpt>
      <trkpt lat="46.51976" lon="5.67017">
        <ele>458.2</ele>
        <time>2022-02-28T12:02:38Z</time>
      </trkpt>
      <trkpt lat="46.51976" lon="5.67014">
        <ele>458.4</ele>
        <time>2022-02-28T12:02:39Z</time>
      </trkpt>
      <trkpt lat="46.51977" lon="5.67009">
        <ele>458.4</ele>
        <time>2022-02-28T12:02:40Z</time>
      </trkpt>
      <trkpt lat="46.51978" lon="5.67002">
        <ele>459</ele>
        <time>2022-02-28T12:02:41Z</time>
      </trkpt>
      <trkpt lat="46.51979" lon="5.66996">
        <ele>459.2</ele>
        <time>2022-02-28T12:02:42Z</time>
      </trkpt>
      <trkpt lat="46.51979" lon="5.66991">
        <ele>459.4</ele>
        <time>2022-02-28T12:02:43Z</time>
      </trkpt>
      <trkpt lat="46.51981" lon="5.66985">
        <ele>459.8</ele>
        <time>2022-02-28T12:02:44Z</time>
      </trkpt>
      <trkpt lat="46.51982" lon="5.66979">
        <ele>460</ele>
        <time>2022-02-28T12:02:45Z</time>
      </trkpt>
      <trkpt lat="46.51983" lon="5.66973">
        <ele>460.4</ele>
        <time>2022-02-28T12:02:46Z</time>
      </trkpt>
      <trkpt lat="46.51984" lon="5.66967">
        <ele>460.8</ele>
        <time>2022-02-28T12:02:47Z</time>
      </trkpt>
      <trkpt lat="46.51986" lon="5.66957">
        <ele>461</ele>
        <time>2022-02-28T12:02:48Z</time>
      </trkpt>
      <trkpt lat="46.51986" lon="5.66954">
        <ele>461.2</ele>
        <time>2022-02-28T12:02:49Z</time>
      </trkpt>
      <trkpt lat="46.51987" lon="5.66948">
        <ele>461.4</ele>
        <time>2022-02-28T12:02:50Z</time>
      </trkpt>
      <trkpt lat="46.51988" lon="5.66941">
        <ele>461.6</ele>
        <time>2022-02-28T12:02:51Z</time>
      </trkpt>
      <trkpt lat="46.5199" lon="5.66935">
        <ele>462</ele>
        <time>2022-02-28T12:02:52Z</time>
      </trkpt>
      <trkpt lat="46.51991" lon="5.66929">
        <ele>462.2</ele>
        <time>2022-02-28T12:02:53Z</time>
      </trkpt>
      <trkpt lat="46.51993" lon="5.66923">
        <ele>462.4</ele>
        <time>2022-02-28T12:02:54Z</time>
      </trkpt>
      <trkpt lat="46.51994" lon="5.66917">
        <ele>462.4</ele>
        <time>2022-02-28T12:02:55Z</time>
      </trkpt>
      <trkpt lat="46.51995" lon="5.66912">
        <ele>462.8</ele>
        <time>2022-02-28T12:02:56Z</time>
      </trkpt>
      <trkpt lat="46.51997" lon="5.66906">
        <ele>462.8</ele>
        <time>2022-02-28T12:02:57Z</time>
      </trkpt>
      <trkpt lat="46.51999" lon="5.66901">
        <ele>463.2</ele>
        <time>2022-02-28T12:02:58Z</time>
      </trkpt>
      <trkpt lat="46.52001" lon="5.66895">
        <ele>463.2</ele>
        <time>2022-02-28T12:02:59Z</time>
      </trkpt>
      <trkpt lat="46.52003" lon="5.66889">
        <ele>463.6</ele>
        <time>2022-02-28T12:03:00Z</time>
      </trkpt>
      <trkpt lat="46.52005" lon="5.66884">
        <ele>463.6</ele>
        <time>2022-02-28T12:03:01Z</time>
      </trkpt>
      <trkpt lat="46.52008" lon="5.66875">
        <ele>463.6</ele>
        <time>2022-02-28T12:03:02Z</time>
      </trkpt>
      <trkpt lat="46.52009" lon="5.66872">
        <ele>463.8</ele>
        <time>2022-02-28T12:03:03Z</time>
      </trkpt>
      <trkpt lat="46.52012" lon="5.66866">
        <ele>463.8</ele>
        <time>2022-02-28T12:03:04Z</time>
      </trkpt>
      <trkpt lat="46.52014" lon="5.6686">
        <ele>463.8</ele>
        <time>2022-02-28T12:03:05Z</time>
      </trkpt>
      <trkpt lat="46.52017" lon="5.66854">
        <ele>463.8</ele>
        <time>2022-02-28T12:03:06Z</time>
      </trkpt>
      <trkpt lat="46.5202" lon="5.66848">
        <ele>464.2</ele>
        <time>2022-02-28T12:03:07Z</time>
      </trkpt>
      <trkpt lat="46.52023" lon="5.66843">
        <ele>464.2</ele>
        <time>2022-02-28T12:03:08Z</time>
      </trkpt>
      <trkpt lat="46.52026" lon="5.66837">
        <ele>464.4</ele>
        <time>2022-02-28T12:03:09Z</time>
      </trkpt>
      <trkpt lat="46.52029" lon="5.66832">
        <ele>464.4</ele>
        <time>2022-02-28T12:03:10Z</time>
      </trkpt>
      <trkpt lat="46.52032" lon="5.66826">
        <ele>464.4</ele>
        <time>2022-02-28T12:03:11Z</time>
      </trkpt>
      <trkpt lat="46.52036" lon="5.6682">
        <ele>464.4</ele>
        <time>2022-02-28T12:03:12Z</time>
      </trkpt>
      <trkpt lat="46.5204" lon="5.66814">
        <ele>464.4</ele>
        <time>2022-02-28T12:03:13Z</time>
      </trkpt>
      <trkpt lat="46.52044" lon="5.66809">
        <ele>464.4</ele>
        <time>2022-02-28T12:03:14Z</time>
      </trkpt>
      <trkpt lat="46.52048" lon="5.66804">
        <ele>464.6</ele>
        <time>2022-02-28T12:03:15Z</time>
      </trkpt>
      <trkpt lat="46.52052" lon="5.66799">
        <ele>464.6</ele>
        <time>2022-02-28T12:03:16Z</time>
      </trkpt>
      <trkpt lat="46.52059" lon="5.6679">
        <ele>464.6</ele>
        <time>2022-02-28T12:03:17Z</time>
      </trkpt>
      <trkpt lat="46.52062" lon="5.66787">
        <ele>464.6</ele>
        <time>2022-02-28T12:03:18Z</time>
      </trkpt>
      <trkpt lat="46.52066" lon="5.66781">
        <ele>464.4</ele>
        <time>2022-02-28T12:03:19Z</time>
      </trkpt>
      <trkpt lat="46.52072" lon="5.66776">
        <ele>464.2</ele>
        <time>2022-02-28T12:03:20Z</time>
      </trkpt>
      <trkpt lat="46.52077" lon="5.66769">
        <ele>464.2</ele>
        <time>2022-02-28T12:03:21Z</time>
      </trkpt>
      <trkpt lat="46.52082" lon="5.66762">
        <ele>463.8</ele>
        <time>2022-02-28T12:03:22Z</time>
      </trkpt>
      <trkpt lat="46.52087" lon="5.66756">
        <ele>463.6</ele>
        <time>2022-02-28T12:03:23Z</time>
      </trkpt>
      <trkpt lat="46.52093" lon="5.66749">
        <ele>463.2</ele>
        <time>2022-02-28T12:03:24Z</time>
      </trkpt>
      <trkpt lat="46.52099" lon="5.66742">
        <ele>463</ele>
        <time>2022-02-28T12:03:25Z</time>
      </trkpt>
      <trkpt lat="46.52105" lon="5.66734">
        <ele>462.8</ele>
        <time>2022-02-28T12:03:26Z</time>
      </trkpt>
      <trkpt lat="46.52112" lon="5.66727">
        <ele>462.4</ele>
        <time>2022-02-28T12:03:27Z</time>
      </trkpt>
      <trkpt lat="46.52119" lon="5.66719">
        <ele>462.2</ele>
        <time>2022-02-28T12:03:28Z</time>
      </trkpt>
      <trkpt lat="46.52125" lon="5.66711">
        <ele>461.8</ele>
        <time>2022-02-28T12:03:29Z</time>
      </trkpt>
      <trkpt lat="46.52132" lon="5.66703">
        <ele>461.4</ele>
        <time>2022-02-28T12:03:30Z</time>
      </trkpt>
      <trkpt lat="46.52139" lon="5.66695">
        <ele>461</ele>
        <time>2022-02-28T12:03:31Z</time>
      </trkpt>
      <trkpt lat="46.52146" lon="5.66687">
        <ele>460.6</ele>
        <time>2022-02-28T12:03:32Z</time>
      </trkpt>
      <trkpt lat="46.52153" lon="5.66678">
        <ele>460.4</ele>
        <time>2022-02-28T12:03:33Z</time>
      </trkpt>
      <trkpt lat="46.5216" lon="5.6667">
        <ele>460</ele>
        <time>2022-02-28T12:03:34Z</time>
      </trkpt>
      <trkpt lat="46.52167" lon="5.66661">
        <ele>459.8</ele>
        <time>2022-02-28T12:03:35Z</time>
      </trkpt>
      <trkpt lat="46.52177" lon="5.66648">
        <ele>459.4</ele>
        <time>2022-02-28T12:03:36Z</time>
      </trkpt>
      <trkpt lat="46.52181" lon="5.66644">
        <ele>459.2</ele>
        <time>2022-02-28T12:03:37Z</time>
      </trkpt>
      <trkpt lat="46.52188" lon="5.66635">
        <ele>459.2</ele>
        <time>2022-02-28T12:03:38Z</time>
      </trkpt>
      <trkpt lat="46.52195" lon="5.66626">
        <ele>459</ele>
        <time>2022-02-28T12:03:39Z</time>
      </trkpt>
      <trkpt lat="46.52201" lon="5.66618">
        <ele>459</ele>
        <time>2022-02-28T12:03:40Z</time>
      </trkpt>
      <trkpt lat="46.52208" lon="5.6661">
        <ele>458.8</ele>
        <time>2022-02-28T12:03:41Z</time>
      </trkpt>
      <trkpt lat="46.52213" lon="5.66601">
        <ele>458.8</ele>
        <time>2022-02-28T12:03:42Z</time>
      </trkpt>
      <trkpt lat="46.52218" lon="5.66592">
        <ele>458.8</ele>
        <time>2022-02-28T12:03:43Z</time>
      </trkpt>
      <trkpt lat="46.52222" lon="5.66584">
        <ele>459</ele>
        <time>2022-02-28T12:03:44Z</time>
      </trkpt>
      <trkpt lat="46.52226" lon="5.66575">
        <ele>459</ele>
        <time>2022-02-28T12:03:45Z</time>
      </trkpt>
      <trkpt lat="46.5223" lon="5.66568">
        <ele>459.4</ele>
        <time>2022-02-28T12:03:46Z</time>
      </trkpt>
      <trkpt lat="46.52235" lon="5.66562">
        <ele>459.4</ele>
        <time>2022-02-28T12:03:47Z</time>
      </trkpt>
      <trkpt lat="46.52242" lon="5.66553">
        <ele>459.6</ele>
        <time>2022-02-28T12:03:48Z</time>
      </trkpt>
      <trkpt lat="46.52244" lon="5.66551">
        <ele>460</ele>
        <time>2022-02-28T12:03:49Z</time>
      </trkpt>
      <trkpt lat="46.52248" lon="5.66545">
        <ele>460.2</ele>
        <time>2022-02-28T12:03:50Z</time>
      </trkpt>
      <trkpt lat="46.52252" lon="5.6654">
        <ele>460.6</ele>
        <time>2022-02-28T12:03:51Z</time>
      </trkpt>
      <trkpt lat="46.52255" lon="5.66534">
        <ele>460.8</ele>
        <time>2022-02-28T12:03:52Z</time>
      </trkpt>
      <trkpt lat="46.52257" lon="5.66528">
        <ele>461</ele>
        <time>2022-02-28T12:03:53Z</time>
      </trkpt>
      <trkpt lat="46.52257" lon="5.66521">
        <ele>461.2</ele>
        <time>2022-02-28T12:03:54Z</time>
      </trkpt>
      <trkpt lat="46.52255" lon="5.66515">
        <ele>461.2</ele>
        <time>2022-02-28T12:03:55Z</time>
      </trkpt>
      <trkpt lat="46.52253" lon="5.66509">
        <ele>461.2</ele>
        <time>2022-02-28T12:03:56Z</time>
      </trkpt>
      <trkpt lat="46.5225" lon="5.66503">
        <ele>461.2</ele>
        <time>2022-02-28T12:03:57Z</time>
      </trkpt>
      <trkpt lat="46.52246" lon="5.66497">
        <ele>461.2</ele>
        <time>2022-02-28T12:03:58Z</time>
      </trkpt>
      <trkpt lat="46.52241" lon="5.66492">
        <ele>460.8</ele>
        <time>2022-02-28T12:03:59Z</time>
      </trkpt>
      <trkpt lat="46.52234" lon="5.66488">
        <ele>460.4</ele>
        <time>2022-02-28T12:04:00Z</time>
      </trkpt>
      <trkpt lat="46.52228" lon="5.66486">
        <ele>460</ele>
        <time>2022-02-28T12:04:01Z</time>
      </trkpt>
      <trkpt lat="46.5222" lon="5.66485">
        <ele>459.8</ele>
        <time>2022-02-28T12:04:02Z</time>
      </trkpt>
      <trkpt lat="46.52212" lon="5.66485">
        <ele>459.2</ele>
        <time>2022-02-28T12:04:03Z</time>
      </trkpt>
      <trkpt lat="46.52203" lon="5.66485">
        <ele>458.8</ele>
        <time>2022-02-28T12:04:04Z</time>
      </trkpt>
      <trkpt lat="46.52194" lon="5.66485">
        <ele>458.2</ele>
        <time>2022-02-28T12:04:05Z</time>
      </trkpt>
      <trkpt lat="46.52184" lon="5.66486">
        <ele>457.6</ele>
        <time>2022-02-28T12:04:06Z</time>
      </trkpt>
      <trkpt lat="46.52173" lon="5.66487">
        <ele>457.2</ele>
        <time>2022-02-28T12:04:07Z</time>
      </trkpt>
      <trkpt lat="46.52163" lon="5.66487">
        <ele>456.8</ele>
        <time>2022-02-28T12:04:08Z</time>
      </trkpt>
      <trkpt lat="46.52154" lon="5.66488">
        <ele>456.6</ele>
        <time>2022-02-28T12:04:09Z</time>
      </trkpt>
      <trkpt lat="46.52145" lon="5.66489">
        <ele>456.2</ele>
        <time>2022-02-28T12:04:10Z</time>
      </trkpt>
      <trkpt lat="46.52137" lon="5.66489">
        <ele>456.2</ele>
        <time>2022-02-28T12:04:11Z</time>
      </trkpt>
      <trkpt lat="46.52128" lon="5.66489">
        <ele>455.8</ele>
        <time>2022-02-28T12:04:12Z</time>
      </trkpt>
      <trkpt lat="46.5212" lon="5.66489">
        <ele>455.4</ele>
        <time>2022-02-28T12:04:13Z</time>
      </trkpt>
      <trkpt lat="46.52111" lon="5.66489">
        <ele>455.4</ele>
        <time>2022-02-28T12:04:14Z</time>
      </trkpt>
      <trkpt lat="46.52103" lon="5.66488">
        <ele>455.2</ele>
        <time>2022-02-28T12:04:15Z</time>
      </trkpt>
      <trkpt lat="46.52095" lon="5.66486">
        <ele>455.2</ele>
        <time>2022-02-28T12:04:16Z</time>
      </trkpt>
      <trkpt lat="46.52087" lon="5.66483">
        <ele>455.2</ele>
        <time>2022-02-28T12:04:17Z</time>
      </trkpt>
      <trkpt lat="46.52079" lon="5.66481">
        <ele>454.8</ele>
        <time>2022-02-28T12:04:18Z</time>
      </trkpt>
      <trkpt lat="46.52072" lon="5.66478">
        <ele>454.8</ele>
        <time>2022-02-28T12:04:19Z</time>
      </trkpt>
      <trkpt lat="46.52064" lon="5.66474">
        <ele>454.8</ele>
        <time>2022-02-28T12:04:20Z</time>
      </trkpt>
      <trkpt lat="46.52058" lon="5.6647">
        <ele>454.8</ele>
        <time>2022-02-28T12:04:21Z</time>
      </trkpt>
      <trkpt lat="46.52051" lon="5.66465">
        <ele>454.8</ele>
        <time>2022-02-28T12:04:22Z</time>
      </trkpt>
      <trkpt lat="46.52044" lon="5.66461">
        <ele>454.8</ele>
        <time>2022-02-28T12:04:23Z</time>
      </trkpt>
      <trkpt lat="46.52038" lon="5.66457">
        <ele>454.8</ele>
        <time>2022-02-28T12:04:24Z</time>
      </trkpt>
      <trkpt lat="46.52031" lon="5.66453">
        <ele>454.8</ele>
        <time>2022-02-28T12:04:25Z</time>
      </trkpt>
      <trkpt lat="46.52025" lon="5.66449">
        <ele>454.8</ele>
        <time>2022-02-28T12:04:26Z</time>
      </trkpt>
      <trkpt lat="46.52018" lon="5.66446">
        <ele>454.8</ele>
        <time>2022-02-28T12:04:27Z</time>
      </trkpt>
      <trkpt lat="46.52012" lon="5.66442">
        <ele>454.8</ele>
        <time>2022-02-28T12:04:28Z</time>
      </trkpt>
      <trkpt lat="46.52007" lon="5.66438">
        <ele>454.8</ele>
        <time>2022-02-28T12:04:29Z</time>
      </trkpt>
      <trkpt lat="46.51998" lon="5.66432">
        <ele>455</ele>
        <time>2022-02-28T12:04:30Z</time>
      </trkpt>
      <trkpt lat="46.51995" lon="5.66429">
        <ele>455</ele>
        <time>2022-02-28T12:04:31Z</time>
      </trkpt>
      <trkpt lat="46.5199" lon="5.66425">
        <ele>455.4</ele>
        <time>2022-02-28T12:04:32Z</time>
      </trkpt>
      <trkpt lat="46.51985" lon="5.66421">
        <ele>455.4</ele>
        <time>2022-02-28T12:04:33Z</time>
      </trkpt>
      <trkpt lat="46.5198" lon="5.66417">
        <ele>455.6</ele>
        <time>2022-02-28T12:04:34Z</time>
      </trkpt>
      <trkpt lat="46.51969" lon="5.66408">
        <ele>455.6</ele>
        <time>2022-02-28T12:04:35Z</time>
      </trkpt>
      <trkpt lat="46.51964" lon="5.66403">
        <ele>455.6</ele>
        <time>2022-02-28T12:04:36Z</time>
      </trkpt>
      <trkpt lat="46.51959" lon="5.66398">
        <ele>455.6</ele>
        <time>2022-02-28T12:04:37Z</time>
      </trkpt>
      <trkpt lat="46.51953" lon="5.66393">
        <ele>455.6</ele>
        <time>2022-02-28T12:04:38Z</time>
      </trkpt>
      <trkpt lat="46.51948" lon="5.66389">
        <ele>455.6</ele>
        <time>2022-02-28T12:04:39Z</time>
      </trkpt>
      <trkpt lat="46.51939" lon="5.66382">
        <ele>455.6</ele>
        <time>2022-02-28T12:04:40Z</time>
      </trkpt>
      <trkpt lat="46.51937" lon="5.66379">
        <ele>455.6</ele>
        <time>2022-02-28T12:04:41Z</time>
      </trkpt>
      <trkpt lat="46.51931" lon="5.66374">
        <ele>455.6</ele>
        <time>2022-02-28T12:04:42Z</time>
      </trkpt>
      <trkpt lat="46.51931" lon="5.66374">
        <ele>455.4</ele>
        <time>2022-02-28T12:04:43Z</time>
      </trkpt>
      <trkpt lat="46.51925" lon="5.6637">
        <ele>455.4</ele>
        <time>2022-02-28T12:04:44Z</time>
      </trkpt>
      <trkpt lat="46.51919" lon="5.66365">
        <ele>455</ele>
        <time>2022-02-28T12:04:45Z</time>
      </trkpt>
      <trkpt lat="46.51913" lon="5.6636">
        <ele>454.8</ele>
        <time>2022-02-28T12:04:46Z</time>
      </trkpt>
      <trkpt lat="46.51907" lon="5.66355">
        <ele>454.8</ele>
        <time>2022-02-28T12:04:47Z</time>
      </trkpt>
      <trkpt lat="46.51901" lon="5.6635">
        <ele>454.4</ele>
        <time>2022-02-28T12:04:48Z</time>
      </trkpt>
      <trkpt lat="46.51895" lon="5.66345">
        <ele>454.4</ele>
        <time>2022-02-28T12:04:49Z</time>
      </trkpt>
      <trkpt lat="46.51889" lon="5.66339">
        <ele>454.2</ele>
        <time>2022-02-28T12:04:50Z</time>
      </trkpt>
      <trkpt lat="46.51883" lon="5.66334">
        <ele>454.2</ele>
        <time>2022-02-28T12:04:51Z</time>
      </trkpt>
      <trkpt lat="46.51877" lon="5.66329">
        <ele>454</ele>
        <time>2022-02-28T12:04:52Z</time>
      </trkpt>
      <trkpt lat="46.5187" lon="5.66324">
        <ele>454</ele>
        <time>2022-02-28T12:04:53Z</time>
      </trkpt>
      <trkpt lat="46.51864" lon="5.66319">
        <ele>453.8</ele>
        <time>2022-02-28T12:04:54Z</time>
      </trkpt>
      <trkpt lat="46.51858" lon="5.66314">
        <ele>453.8</ele>
        <time>2022-02-28T12:04:55Z</time>
      </trkpt>
      <trkpt lat="46.51851" lon="5.6631">
        <ele>453.8</ele>
        <time>2022-02-28T12:04:56Z</time>
      </trkpt>
      <trkpt lat="46.51845" lon="5.66306">
        <ele>453.4</ele>
        <time>2022-02-28T12:04:57Z</time>
      </trkpt>
      <trkpt lat="46.51838" lon="5.66302">
        <ele>453.4</ele>
        <time>2022-02-28T12:04:58Z</time>
      </trkpt>
      <trkpt lat="46.51831" lon="5.66298">
        <ele>453.4</ele>
        <time>2022-02-28T12:04:59Z</time>
      </trkpt>
      <trkpt lat="46.51824" lon="5.66295">
        <ele>453.2</ele>
        <time>2022-02-28T12:05:00Z</time>
      </trkpt>
      <trkpt lat="46.51817" lon="5.66291">
        <ele>453.2</ele>
        <time>2022-02-28T12:05:01Z</time>
      </trkpt>
      <trkpt lat="46.5181" lon="5.66288">
        <ele>453</ele>
        <time>2022-02-28T12:05:02Z</time>
      </trkpt>
      <trkpt lat="46.51802" lon="5.66284">
        <ele>453</ele>
        <time>2022-02-28T12:05:03Z</time>
      </trkpt>
      <trkpt lat="46.51795" lon="5.6628">
        <ele>452.6</ele>
        <time>2022-02-28T12:05:04Z</time>
      </trkpt>
      <trkpt lat="46.51787" lon="5.66275">
        <ele>452.6</ele>
        <time>2022-02-28T12:05:05Z</time>
      </trkpt>
      <trkpt lat="46.5178" lon="5.6627">
        <ele>452.4</ele>
        <time>2022-02-28T12:05:06Z</time>
      </trkpt>
      <trkpt lat="46.51773" lon="5.66265">
        <ele>452.4</ele>
        <time>2022-02-28T12:05:07Z</time>
      </trkpt>
      <trkpt lat="46.51766" lon="5.6626">
        <ele>452.4</ele>
        <time>2022-02-28T12:05:08Z</time>
      </trkpt>
      <trkpt lat="46.51758" lon="5.66255">
        <ele>452.2</ele>
        <time>2022-02-28T12:05:09Z</time>
      </trkpt>
      <trkpt lat="46.51752" lon="5.6625">
        <ele>452.2</ele>
        <time>2022-02-28T12:05:10Z</time>
      </trkpt>
      <trkpt lat="46.51745" lon="5.66244">
        <ele>452.2</ele>
        <time>2022-02-28T12:05:11Z</time>
      </trkpt>
      <trkpt lat="46.51738" lon="5.66238">
        <ele>452.2</ele>
        <time>2022-02-28T12:05:12Z</time>
      </trkpt>
      <trkpt lat="46.51731" lon="5.66233">
        <ele>452.2</ele>
        <time>2022-02-28T12:05:13Z</time>
      </trkpt>
      <trkpt lat="46.51725" lon="5.66228">
        <ele>452.2</ele>
        <time>2022-02-28T12:05:14Z</time>
      </trkpt>
      <trkpt lat="46.51718" lon="5.66223">
        <ele>451.8</ele>
        <time>2022-02-28T12:05:15Z</time>
      </trkpt>
      <trkpt lat="46.51711" lon="5.66219">
        <ele>451.8</ele>
        <time>2022-02-28T12:05:16Z</time>
      </trkpt>
      <trkpt lat="46.51704" lon="5.66213">
        <ele>451.6</ele>
        <time>2022-02-28T12:05:17Z</time>
      </trkpt>
      <trkpt lat="46.51697" lon="5.66208">
        <ele>451.6</ele>
        <time>2022-02-28T12:05:18Z</time>
      </trkpt>
      <trkpt lat="46.51691" lon="5.66201">
        <ele>451.4</ele>
        <time>2022-02-28T12:05:19Z</time>
      </trkpt>
      <trkpt lat="46.51685" lon="5.66194">
        <ele>451.4</ele>
        <time>2022-02-28T12:05:20Z</time>
      </trkpt>
      <trkpt lat="46.5168" lon="5.66187">
        <ele>451.4</ele>
        <time>2022-02-28T12:05:21Z</time>
      </trkpt>
      <trkpt lat="46.51675" lon="5.6618">
        <ele>451.4</ele>
        <time>2022-02-28T12:05:22Z</time>
      </trkpt>
      <trkpt lat="46.5167" lon="5.66174">
        <ele>451.4</ele>
        <time>2022-02-28T12:05:23Z</time>
      </trkpt>
      <trkpt lat="46.51665" lon="5.66167">
        <ele>451.4</ele>
        <time>2022-02-28T12:05:24Z</time>
      </trkpt>
      <trkpt lat="46.5166" lon="5.66161">
        <ele>451.6</ele>
        <time>2022-02-28T12:05:25Z</time>
      </trkpt>
      <trkpt lat="46.51654" lon="5.66155">
        <ele>451.6</ele>
        <time>2022-02-28T12:05:26Z</time>
      </trkpt>
      <trkpt lat="46.51649" lon="5.66148">
        <ele>451.6</ele>
        <time>2022-02-28T12:05:27Z</time>
      </trkpt>
      <trkpt lat="46.51643" lon="5.66141">
        <ele>451.6</ele>
        <time>2022-02-28T12:05:28Z</time>
      </trkpt>
      <trkpt lat="46.51637" lon="5.66135">
        <ele>451.2</ele>
        <time>2022-02-28T12:05:29Z</time>
      </trkpt>
      <trkpt lat="46.51632" lon="5.66129">
        <ele>451.2</ele>
        <time>2022-02-28T12:05:30Z</time>
      </trkpt>
      <trkpt lat="46.51626" lon="5.66122">
        <ele>451.2</ele>
        <time>2022-02-28T12:05:31Z</time>
      </trkpt>
      <trkpt lat="46.51619" lon="5.66117">
        <ele>451.2</ele>
        <time>2022-02-28T12:05:32Z</time>
      </trkpt>
      <trkpt lat="46.51613" lon="5.66111">
        <ele>451</ele>
        <time>2022-02-28T12:05:33Z</time>
      </trkpt>
      <trkpt lat="46.51607" lon="5.66105">
        <ele>451</ele>
        <time>2022-02-28T12:05:34Z</time>
      </trkpt>
      <trkpt lat="46.516" lon="5.661">
        <ele>450.8</ele>
        <time>2022-02-28T12:05:35Z</time>
      </trkpt>
      <trkpt lat="46.51594" lon="5.66094">
        <ele>450.8</ele>
        <time>2022-02-28T12:05:36Z</time>
      </trkpt>
      <trkpt lat="46.51588" lon="5.66089">
        <ele>450.4</ele>
        <time>2022-02-28T12:05:37Z</time>
      </trkpt>
      <trkpt lat="46.51581" lon="5.66083">
        <ele>450.4</ele>
        <time>2022-02-28T12:05:38Z</time>
      </trkpt>
      <trkpt lat="46.51575" lon="5.66077">
        <ele>450.2</ele>
        <time>2022-02-28T12:05:39Z</time>
      </trkpt>
      <trkpt lat="46.51568" lon="5.66071">
        <ele>450.2</ele>
        <time>2022-02-28T12:05:40Z</time>
      </trkpt>
      <trkpt lat="46.51562" lon="5.66066">
        <ele>450.2</ele>
        <time>2022-02-28T12:05:41Z</time>
      </trkpt>
      <trkpt lat="46.51555" lon="5.6606">
        <ele>449.8</ele>
        <time>2022-02-28T12:05:42Z</time>
      </trkpt>
      <trkpt lat="46.51549" lon="5.66053">
        <ele>449.8</ele>
        <time>2022-02-28T12:05:43Z</time>
      </trkpt>
      <trkpt lat="46.51542" lon="5.66047">
        <ele>449.6</ele>
        <time>2022-02-28T12:05:44Z</time>
      </trkpt>
      <trkpt lat="46.51535" lon="5.66042">
        <ele>449.6</ele>
        <time>2022-02-28T12:05:45Z</time>
      </trkpt>
      <trkpt lat="46.51529" lon="5.66037">
        <ele>449.2</ele>
        <time>2022-02-28T12:05:46Z</time>
      </trkpt>
      <trkpt lat="46.51522" lon="5.66032">
        <ele>449.2</ele>
        <time>2022-02-28T12:05:47Z</time>
      </trkpt>
      <trkpt lat="46.51515" lon="5.66028">
        <ele>449</ele>
        <time>2022-02-28T12:05:48Z</time>
      </trkpt>
      <trkpt lat="46.51504" lon="5.66021">
        <ele>449</ele>
        <time>2022-02-28T12:05:49Z</time>
      </trkpt>
      <trkpt lat="46.515" lon="5.66019">
        <ele>449</ele>
        <time>2022-02-28T12:05:50Z</time>
      </trkpt>
      <trkpt lat="46.51493" lon="5.66015">
        <ele>449</ele>
        <time>2022-02-28T12:05:51Z</time>
      </trkpt>
      <trkpt lat="46.51485" lon="5.6601">
        <ele>448.8</ele>
        <time>2022-02-28T12:05:52Z</time>
      </trkpt>
      <trkpt lat="46.51478" lon="5.66006">
        <ele>448.8</ele>
        <time>2022-02-28T12:05:53Z</time>
      </trkpt>
      <trkpt lat="46.51471" lon="5.66002">
        <ele>448.8</ele>
        <time>2022-02-28T12:05:54Z</time>
      </trkpt>
      <trkpt lat="46.51464" lon="5.65999">
        <ele>448.8</ele>
        <time>2022-02-28T12:05:55Z</time>
      </trkpt>
      <trkpt lat="46.51458" lon="5.65995">
        <ele>448.8</ele>
        <time>2022-02-28T12:05:56Z</time>
      </trkpt>
      <trkpt lat="46.51451" lon="5.65992">
        <ele>449</ele>
        <time>2022-02-28T12:05:57Z</time>
      </trkpt>
      <trkpt lat="46.51444" lon="5.65989">
        <ele>449</ele>
        <time>2022-02-28T12:05:58Z</time>
      </trkpt>
      <trkpt lat="46.51437" lon="5.65987">
        <ele>449</ele>
        <time>2022-02-28T12:05:59Z</time>
      </trkpt>
      <trkpt lat="46.51429" lon="5.65984">
        <ele>449</ele>
        <time>2022-02-28T12:06:00Z</time>
      </trkpt>
      <trkpt lat="46.51422" lon="5.65982">
        <ele>449</ele>
        <time>2022-02-28T12:06:01Z</time>
      </trkpt>
      <trkpt lat="46.51415" lon="5.65979">
        <ele>449</ele>
        <time>2022-02-28T12:06:02Z</time>
      </trkpt>
      <trkpt lat="46.51405" lon="5.65975">
        <ele>449</ele>
        <time>2022-02-28T12:06:03Z</time>
      </trkpt>
      <trkpt lat="46.51401" lon="5.65974">
        <ele>449.2</ele>
        <time>2022-02-28T12:06:04Z</time>
      </trkpt>
      <trkpt lat="46.51395" lon="5.65971">
        <ele>449.2</ele>
        <time>2022-02-28T12:06:05Z</time>
      </trkpt>
      <trkpt lat="46.51388" lon="5.65967">
        <ele>449.4</ele>
        <time>2022-02-28T12:06:06Z</time>
      </trkpt>
      <trkpt lat="46.51381" lon="5.65965">
        <ele>449.4</ele>
        <time>2022-02-28T12:06:07Z</time>
      </trkpt>
      <trkpt lat="46.51375" lon="5.65962">
        <ele>449.6</ele>
        <time>2022-02-28T12:06:08Z</time>
      </trkpt>
      <trkpt lat="46.51369" lon="5.65959">
        <ele>449.6</ele>
        <time>2022-02-28T12:06:09Z</time>
      </trkpt>
      <trkpt lat="46.51362" lon="5.65956">
        <ele>449.6</ele>
        <time>2022-02-28T12:06:10Z</time>
      </trkpt>
      <trkpt lat="46.51355" lon="5.65953">
        <ele>449.6</ele>
        <time>2022-02-28T12:06:11Z</time>
      </trkpt>
      <trkpt lat="46.51348" lon="5.65949">
        <ele>449.6</ele>
        <time>2022-02-28T12:06:12Z</time>
      </trkpt>
      <trkpt lat="46.51341" lon="5.65945">
        <ele>449.4</ele>
        <time>2022-02-28T12:06:13Z</time>
      </trkpt>
      <trkpt lat="46.51331" lon="5.65937">
        <ele>449.4</ele>
        <time>2022-02-28T12:06:14Z</time>
      </trkpt>
      <trkpt lat="46.51327" lon="5.65934">
        <ele>449.4</ele>
        <time>2022-02-28T12:06:15Z</time>
      </trkpt>
      <trkpt lat="46.5132" lon="5.65928">
        <ele>449</ele>
        <time>2022-02-28T12:06:16Z</time>
      </trkpt>
      <trkpt lat="46.51314" lon="5.65922">
        <ele>449</ele>
        <time>2022-02-28T12:06:17Z</time>
      </trkpt>
      <trkpt lat="46.51307" lon="5.65917">
        <ele>448.8</ele>
        <time>2022-02-28T12:06:18Z</time>
      </trkpt>
      <trkpt lat="46.513" lon="5.65911">
        <ele>448.6</ele>
        <time>2022-02-28T12:06:19Z</time>
      </trkpt>
      <trkpt lat="46.51294" lon="5.65906">
        <ele>448.6</ele>
        <time>2022-02-28T12:06:20Z</time>
      </trkpt>
      <trkpt lat="46.51287" lon="5.659">
        <ele>448.2</ele>
        <time>2022-02-28T12:06:21Z</time>
      </trkpt>
      <trkpt lat="46.5128" lon="5.65893">
        <ele>448.2</ele>
        <time>2022-02-28T12:06:22Z</time>
      </trkpt>
      <trkpt lat="46.51273" lon="5.65887">
        <ele>448.2</ele>
        <time>2022-02-28T12:06:23Z</time>
      </trkpt>
      <trkpt lat="46.51266" lon="5.6588">
        <ele>447.8</ele>
        <time>2022-02-28T12:06:24Z</time>
      </trkpt>
      <trkpt lat="46.5126" lon="5.65872">
        <ele>447.8</ele>
        <time>2022-02-28T12:06:25Z</time>
      </trkpt>
      <trkpt lat="46.51253" lon="5.65865">
        <ele>447.6</ele>
        <time>2022-02-28T12:06:26Z</time>
      </trkpt>
      <trkpt lat="46.51247" lon="5.65858">
        <ele>447.6</ele>
        <time>2022-02-28T12:06:27Z</time>
      </trkpt>
      <trkpt lat="46.5124" lon="5.65851">
        <ele>447.6</ele>
        <time>2022-02-28T12:06:28Z</time>
      </trkpt>
      <trkpt lat="46.51234" lon="5.65843">
        <ele>447.4</ele>
        <time>2022-02-28T12:06:29Z</time>
      </trkpt>
      <trkpt lat="46.51228" lon="5.65836">
        <ele>447.4</ele>
        <time>2022-02-28T12:06:30Z</time>
      </trkpt>
      <trkpt lat="46.51221" lon="5.65829">
        <ele>447.4</ele>
        <time>2022-02-28T12:06:31Z</time>
      </trkpt>
      <trkpt lat="46.51215" lon="5.65823">
        <ele>447.4</ele>
        <time>2022-02-28T12:06:32Z</time>
      </trkpt>
      <trkpt lat="46.51209" lon="5.65816">
        <ele>447.4</ele>
        <time>2022-02-28T12:06:33Z</time>
      </trkpt>
      <trkpt lat="46.51202" lon="5.65811">
        <ele>447.4</ele>
        <time>2022-02-28T12:06:34Z</time>
      </trkpt>
      <trkpt lat="46.51196" lon="5.65806">
        <ele>447.4</ele>
        <time>2022-02-28T12:06:35Z</time>
      </trkpt>
      <trkpt lat="46.51189" lon="5.65802">
        <ele>447.4</ele>
        <time>2022-02-28T12:06:36Z</time>
      </trkpt>
      <trkpt lat="46.51182" lon="5.65799">
        <ele>447.4</ele>
        <time>2022-02-28T12:06:37Z</time>
      </trkpt>
      <trkpt lat="46.51175" lon="5.65796">
        <ele>447.4</ele>
        <time>2022-02-28T12:06:38Z</time>
      </trkpt>
      <trkpt lat="46.51167" lon="5.65794">
        <ele>447.4</ele>
        <time>2022-02-28T12:06:39Z</time>
      </trkpt>
      <trkpt lat="46.5116" lon="5.65793">
        <ele>447.4</ele>
        <time>2022-02-28T12:06:40Z</time>
      </trkpt>
      <trkpt lat="46.51152" lon="5.65792">
        <ele>447.4</ele>
        <time>2022-02-28T12:06:41Z</time>
      </trkpt>
      <trkpt lat="46.51145" lon="5.65791">
        <ele>447.4</ele>
        <time>2022-02-28T12:06:42Z</time>
      </trkpt>
      <trkpt lat="46.51137" lon="5.6579">
        <ele>447.4</ele>
        <time>2022-02-28T12:06:43Z</time>
      </trkpt>
      <trkpt lat="46.5113" lon="5.65789">
        <ele>447.4</ele>
        <time>2022-02-28T12:06:44Z</time>
      </trkpt>
      <trkpt lat="46.51122" lon="5.65789">
        <ele>447.4</ele>
        <time>2022-02-28T12:06:45Z</time>
      </trkpt>
      <trkpt lat="46.51115" lon="5.65789">
        <ele>447.4</ele>
        <time>2022-02-28T12:06:46Z</time>
      </trkpt>
      <trkpt lat="46.51107" lon="5.65788">
        <ele>447.4</ele>
        <time>2022-02-28T12:06:47Z</time>
      </trkpt>
      <trkpt lat="46.51099" lon="5.65787">
        <ele>447.2</ele>
        <time>2022-02-28T12:06:48Z</time>
      </trkpt>
      <trkpt lat="46.51092" lon="5.65786">
        <ele>447.2</ele>
        <time>2022-02-28T12:06:49Z</time>
      </trkpt>
      <trkpt lat="46.51084" lon="5.65785">
        <ele>447.2</ele>
        <time>2022-02-28T12:06:50Z</time>
      </trkpt>
      <trkpt lat="46.51077" lon="5.65783">
        <ele>447.2</ele>
        <time>2022-02-28T12:06:51Z</time>
      </trkpt>
      <trkpt lat="46.51069" lon="5.65782">
        <ele>447.2</ele>
        <time>2022-02-28T12:06:52Z</time>
      </trkpt>
      <trkpt lat="46.51062" lon="5.6578">
        <ele>447.2</ele>
        <time>2022-02-28T12:06:53Z</time>
      </trkpt>
      <trkpt lat="46.51054" lon="5.65779">
        <ele>447.2</ele>
        <time>2022-02-28T12:06:54Z</time>
      </trkpt>
      <trkpt lat="46.51046" lon="5.65777">
        <ele>447.2</ele>
        <time>2022-02-28T12:06:55Z</time>
      </trkpt>
      <trkpt lat="46.51039" lon="5.65775">
        <ele>447.2</ele>
        <time>2022-02-28T12:06:56Z</time>
      </trkpt>
      <trkpt lat="46.51032" lon="5.65773">
        <ele>447.2</ele>
        <time>2022-02-28T12:06:57Z</time>
      </trkpt>
      <trkpt lat="46.51024" lon="5.65772">
        <ele>447.2</ele>
        <time>2022-02-28T12:06:58Z</time>
      </trkpt>
      <trkpt lat="46.51017" lon="5.6577">
        <ele>447.4</ele>
        <time>2022-02-28T12:06:59Z</time>
      </trkpt>
      <trkpt lat="46.5101" lon="5.65768">
        <ele>447.4</ele>
        <time>2022-02-28T12:07:00Z</time>
      </trkpt>
      <trkpt lat="46.51003" lon="5.65765">
        <ele>447.4</ele>
        <time>2022-02-28T12:07:01Z</time>
      </trkpt>
      <trkpt lat="46.50996" lon="5.65763">
        <ele>447.4</ele>
        <time>2022-02-28T12:07:02Z</time>
      </trkpt>
      <trkpt lat="46.50989" lon="5.65761">
        <ele>447.4</ele>
        <time>2022-02-28T12:07:03Z</time>
      </trkpt>
      <trkpt lat="46.50982" lon="5.65759">
        <ele>447.4</ele>
        <time>2022-02-28T12:07:04Z</time>
      </trkpt>
      <trkpt lat="46.50975" lon="5.65758">
        <ele>447.4</ele>
        <time>2022-02-28T12:07:05Z</time>
      </trkpt>
      <trkpt lat="46.50968" lon="5.65757">
        <ele>447.4</ele>
        <time>2022-02-28T12:07:06Z</time>
      </trkpt>
      <trkpt lat="46.50961" lon="5.65756">
        <ele>447.4</ele>
        <time>2022-02-28T12:07:07Z</time>
      </trkpt>
      <trkpt lat="46.50954" lon="5.65755">
        <ele>447.4</ele>
        <time>2022-02-28T12:07:08Z</time>
      </trkpt>
      <trkpt lat="46.50947" lon="5.65754">
        <ele>447.4</ele>
        <time>2022-02-28T12:07:09Z</time>
      </trkpt>
      <trkpt lat="46.5094" lon="5.65753">
        <ele>447.6</ele>
        <time>2022-02-28T12:07:10Z</time>
      </trkpt>
      <trkpt lat="46.50933" lon="5.65753">
        <ele>447.6</ele>
        <time>2022-02-28T12:07:11Z</time>
      </trkpt>
      <trkpt lat="46.50927" lon="5.65753">
        <ele>447.6</ele>
        <time>2022-02-28T12:07:12Z</time>
      </trkpt>
      <trkpt lat="46.5092" lon="5.65752">
        <ele>447.6</ele>
        <time>2022-02-28T12:07:13Z</time>
      </trkpt>
      <trkpt lat="46.50913" lon="5.65751">
        <ele>447.6</ele>
        <time>2022-02-28T12:07:14Z</time>
      </trkpt>
      <trkpt lat="46.50906" lon="5.65749">
        <ele>447.6</ele>
        <time>2022-02-28T12:07:15Z</time>
      </trkpt>
      <trkpt lat="46.50899" lon="5.65746">
        <ele>447.6</ele>
        <time>2022-02-28T12:07:16Z</time>
      </trkpt>
      <trkpt lat="46.50892" lon="5.65743">
        <ele>447.6</ele>
        <time>2022-02-28T12:07:17Z</time>
      </trkpt>
      <trkpt lat="46.50885" lon="5.6574">
        <ele>447.6</ele>
        <time>2022-02-28T12:07:18Z</time>
      </trkpt>
      <trkpt lat="46.50878" lon="5.65737">
        <ele>447.6</ele>
        <time>2022-02-28T12:07:19Z</time>
      </trkpt>
      <trkpt lat="46.50871" lon="5.65733">
        <ele>447.6</ele>
        <time>2022-02-28T12:07:20Z</time>
      </trkpt>
      <trkpt lat="46.50865" lon="5.65729">
        <ele>447.6</ele>
        <time>2022-02-28T12:07:21Z</time>
      </trkpt>
      <trkpt lat="46.50858" lon="5.65724">
        <ele>447.6</ele>
        <time>2022-02-28T12:07:22Z</time>
      </trkpt>
      <trkpt lat="46.50852" lon="5.6572">
        <ele>447.6</ele>
        <time>2022-02-28T12:07:23Z</time>
      </trkpt>
      <trkpt lat="46.50845" lon="5.65716">
        <ele>447.6</ele>
        <time>2022-02-28T12:07:24Z</time>
      </trkpt>
      <trkpt lat="46.50839" lon="5.65713">
        <ele>448</ele>
        <time>2022-02-28T12:07:25Z</time>
      </trkpt>
      <trkpt lat="46.50832" lon="5.65709">
        <ele>448</ele>
        <time>2022-02-28T12:07:26Z</time>
      </trkpt>
      <trkpt lat="46.50826" lon="5.65705">
        <ele>448</ele>
        <time>2022-02-28T12:07:27Z</time>
      </trkpt>
      <trkpt lat="46.50819" lon="5.65701">
        <ele>448</ele>
        <time>2022-02-28T12:07:28Z</time>
      </trkpt>
      <trkpt lat="46.50813" lon="5.65696">
        <ele>448</ele>
        <time>2022-02-28T12:07:29Z</time>
      </trkpt>
      <trkpt lat="46.50806" lon="5.6569">
        <ele>448</ele>
        <time>2022-02-28T12:07:30Z</time>
      </trkpt>
      <trkpt lat="46.508" lon="5.65684">
        <ele>448</ele>
        <time>2022-02-28T12:07:31Z</time>
      </trkpt>
      <trkpt lat="46.50795" lon="5.65677">
        <ele>448</ele>
        <time>2022-02-28T12:07:32Z</time>
      </trkpt>
      <trkpt lat="46.50789" lon="5.65671">
        <ele>448</ele>
        <time>2022-02-28T12:07:33Z</time>
      </trkpt>
      <trkpt lat="46.50782" lon="5.65666">
        <ele>448</ele>
        <time>2022-02-28T12:07:34Z</time>
      </trkpt>
      <trkpt lat="46.50776" lon="5.65661">
        <ele>448</ele>
        <time>2022-02-28T12:07:35Z</time>
      </trkpt>
      <trkpt lat="46.50769" lon="5.65657">
        <ele>448</ele>
        <time>2022-02-28T12:07:36Z</time>
      </trkpt>
      <trkpt lat="46.50763" lon="5.65654">
        <ele>448</ele>
        <time>2022-02-28T12:07:37Z</time>
      </trkpt>
      <trkpt lat="46.50756" lon="5.65651">
        <ele>448</ele>
        <time>2022-02-28T12:07:38Z</time>
      </trkpt>
      <trkpt lat="46.50749" lon="5.65648">
        <ele>448</ele>
        <time>2022-02-28T12:07:39Z</time>
      </trkpt>
      <trkpt lat="46.50743" lon="5.65645">
        <ele>448</ele>
        <time>2022-02-28T12:07:40Z</time>
      </trkpt>
      <trkpt lat="46.50736" lon="5.65642">
        <ele>448</ele>
        <time>2022-02-28T12:07:41Z</time>
      </trkpt>
      <trkpt lat="46.50729" lon="5.65639">
        <ele>448</ele>
        <time>2022-02-28T12:07:42Z</time>
      </trkpt>
      <trkpt lat="46.50723" lon="5.65636">
        <ele>448.2</ele>
        <time>2022-02-28T12:07:43Z</time>
      </trkpt>
      <trkpt lat="46.50716" lon="5.65633">
        <ele>448.2</ele>
        <time>2022-02-28T12:07:44Z</time>
      </trkpt>
      <trkpt lat="46.5071" lon="5.65631">
        <ele>448.2</ele>
        <time>2022-02-28T12:07:45Z</time>
      </trkpt>
      <trkpt lat="46.50703" lon="5.65628">
        <ele>448.4</ele>
        <time>2022-02-28T12:07:46Z</time>
      </trkpt>
      <trkpt lat="46.50694" lon="5.65624">
        <ele>448.4</ele>
        <time>2022-02-28T12:07:47Z</time>
      </trkpt>
      <trkpt lat="46.50691" lon="5.65623">
        <ele>448.4</ele>
        <time>2022-02-28T12:07:48Z</time>
      </trkpt>
      <trkpt lat="46.50684" lon="5.6562">
        <ele>448.6</ele>
        <time>2022-02-28T12:07:49Z</time>
      </trkpt>
      <trkpt lat="46.50678" lon="5.65618">
        <ele>448.6</ele>
        <time>2022-02-28T12:07:50Z</time>
      </trkpt>
      <trkpt lat="46.50672" lon="5.65615">
        <ele>448.6</ele>
        <time>2022-02-28T12:07:51Z</time>
      </trkpt>
      <trkpt lat="46.50665" lon="5.65614">
        <ele>448.6</ele>
        <time>2022-02-28T12:07:52Z</time>
      </trkpt>
      <trkpt lat="46.50659" lon="5.65612">
        <ele>449</ele>
        <time>2022-02-28T12:07:53Z</time>
      </trkpt>
      <trkpt lat="46.50653" lon="5.6561">
        <ele>449</ele>
        <time>2022-02-28T12:07:54Z</time>
      </trkpt>
      <trkpt lat="46.50647" lon="5.65609">
        <ele>449.2</ele>
        <time>2022-02-28T12:07:55Z</time>
      </trkpt>
      <trkpt lat="46.5064" lon="5.65607">
        <ele>449.2</ele>
        <time>2022-02-28T12:07:56Z</time>
      </trkpt>
      <trkpt lat="46.50634" lon="5.65606">
        <ele>449.4</ele>
        <time>2022-02-28T12:07:57Z</time>
      </trkpt>
      <trkpt lat="46.50628" lon="5.65604">
        <ele>449.4</ele>
        <time>2022-02-28T12:07:58Z</time>
      </trkpt>
      <trkpt lat="46.50622" lon="5.65603">
        <ele>449.6</ele>
        <time>2022-02-28T12:07:59Z</time>
      </trkpt>
      <trkpt lat="46.50616" lon="5.65603">
        <ele>449.6</ele>
        <time>2022-02-28T12:08:00Z</time>
      </trkpt>
      <trkpt lat="46.5061" lon="5.65602">
        <ele>450</ele>
        <time>2022-02-28T12:08:01Z</time>
      </trkpt>
      <trkpt lat="46.50604" lon="5.65601">
        <ele>450</ele>
        <time>2022-02-28T12:08:02Z</time>
      </trkpt>
      <trkpt lat="46.50598" lon="5.656">
        <ele>450</ele>
        <time>2022-02-28T12:08:03Z</time>
      </trkpt>
      <trkpt lat="46.50592" lon="5.656">
        <ele>450</ele>
        <time>2022-02-28T12:08:04Z</time>
      </trkpt>
      <trkpt lat="46.50587" lon="5.65599">
        <ele>450.2</ele>
        <time>2022-02-28T12:08:05Z</time>
      </trkpt>
      <trkpt lat="46.50581" lon="5.65599">
        <ele>450.2</ele>
        <time>2022-02-28T12:08:06Z</time>
      </trkpt>
      <trkpt lat="46.50575" lon="5.65598">
        <ele>450.6</ele>
        <time>2022-02-28T12:08:07Z</time>
      </trkpt>
      <trkpt lat="46.50569" lon="5.65598">
        <ele>450.6</ele>
        <time>2022-02-28T12:08:08Z</time>
      </trkpt>
      <trkpt lat="46.50563" lon="5.65597">
        <ele>450.6</ele>
        <time>2022-02-28T12:08:09Z</time>
      </trkpt>
      <trkpt lat="46.50555" lon="5.65597">
        <ele>450.8</ele>
        <time>2022-02-28T12:08:10Z</time>
      </trkpt>
      <trkpt lat="46.50552" lon="5.65597">
        <ele>450.8</ele>
        <time>2022-02-28T12:08:11Z</time>
      </trkpt>
      <trkpt lat="46.50546" lon="5.65596">
        <ele>450.8</ele>
        <time>2022-02-28T12:08:12Z</time>
      </trkpt>
      <trkpt lat="46.50541" lon="5.65596">
        <ele>451</ele>
        <time>2022-02-28T12:08:13Z</time>
      </trkpt>
      <trkpt lat="46.50535" lon="5.65595">
        <ele>451</ele>
        <time>2022-02-28T12:08:14Z</time>
      </trkpt>
      <trkpt lat="46.5053" lon="5.65595">
        <ele>451</ele>
        <time>2022-02-28T12:08:15Z</time>
      </trkpt>
      <trkpt lat="46.50521" lon="5.65594">
        <ele>451.2</ele>
        <time>2022-02-28T12:08:16Z</time>
      </trkpt>
      <trkpt lat="46.50518" lon="5.65593">
        <ele>451.2</ele>
        <time>2022-02-28T12:08:17Z</time>
      </trkpt>
      <trkpt lat="46.50513" lon="5.65593">
        <ele>451.2</ele>
        <time>2022-02-28T12:08:18Z</time>
      </trkpt>
      <trkpt lat="46.50507" lon="5.65592">
        <ele>451.4</ele>
        <time>2022-02-28T12:08:19Z</time>
      </trkpt>
      <trkpt lat="46.50502" lon="5.65592">
        <ele>451.4</ele>
        <time>2022-02-28T12:08:20Z</time>
      </trkpt>
      <trkpt lat="46.50497" lon="5.65592">
        <ele>451.6</ele>
        <time>2022-02-28T12:08:21Z</time>
      </trkpt>
      <trkpt lat="46.50492" lon="5.65591">
        <ele>451.6</ele>
        <time>2022-02-28T12:08:22Z</time>
      </trkpt>
      <trkpt lat="46.50486" lon="5.65591">
        <ele>451.6</ele>
        <time>2022-02-28T12:08:23Z</time>
      </trkpt>
      <trkpt lat="46.50481" lon="5.6559">
        <ele>452</ele>
        <time>2022-02-28T12:08:24Z</time>
      </trkpt>
      <trkpt lat="46.50476" lon="5.65589">
        <ele>452</ele>
        <time>2022-02-28T12:08:25Z</time>
      </trkpt>
      <trkpt lat="46.50471" lon="5.65589">
        <ele>452.2</ele>
        <time>2022-02-28T12:08:26Z</time>
      </trkpt>
      <trkpt lat="46.50466" lon="5.65588">
        <ele>452.2</ele>
        <time>2022-02-28T12:08:27Z</time>
      </trkpt>
      <trkpt lat="46.50461" lon="5.65588">
        <ele>452.2</ele>
        <time>2022-02-28T12:08:28Z</time>
      </trkpt>
      <trkpt lat="46.50456" lon="5.65587">
        <ele>452.6</ele>
        <time>2022-02-28T12:08:29Z</time>
      </trkpt>
      <trkpt lat="46.50451" lon="5.65586">
        <ele>452.6</ele>
        <time>2022-02-28T12:08:30Z</time>
      </trkpt>
      <trkpt lat="46.50445" lon="5.65587">
        <ele>452.8</ele>
        <time>2022-02-28T12:08:31Z</time>
      </trkpt>
      <trkpt lat="46.5044" lon="5.65588">
        <ele>452.8</ele>
        <time>2022-02-28T12:08:32Z</time>
      </trkpt>
      <trkpt lat="46.50436" lon="5.65591">
        <ele>453</ele>
        <time>2022-02-28T12:08:33Z</time>
      </trkpt>
      <trkpt lat="46.50432" lon="5.65596">
        <ele>453</ele>
        <time>2022-02-28T12:08:34Z</time>
      </trkpt>
      <trkpt lat="46.50428" lon="5.65601">
        <ele>453</ele>
        <time>2022-02-28T12:08:35Z</time>
      </trkpt>
      <trkpt lat="46.50424" lon="5.65607">
        <ele>453.4</ele>
        <time>2022-02-28T12:08:36Z</time>
      </trkpt>
      <trkpt lat="46.5042" lon="5.65612">
        <ele>453.4</ele>
        <time>2022-02-28T12:08:37Z</time>
      </trkpt>
      <trkpt lat="46.50416" lon="5.65617">
        <ele>453.6</ele>
        <time>2022-02-28T12:08:38Z</time>
      </trkpt>
      <trkpt lat="46.50412" lon="5.65622">
        <ele>453.6</ele>
        <time>2022-02-28T12:08:39Z</time>
      </trkpt>
      <trkpt lat="46.50407" lon="5.65627">
        <ele>453.8</ele>
        <time>2022-02-28T12:08:40Z</time>
      </trkpt>
      <trkpt lat="46.50403" lon="5.65632">
        <ele>453.8</ele>
        <time>2022-02-28T12:08:41Z</time>
      </trkpt>
      <trkpt lat="46.50398" lon="5.65636">
        <ele>454</ele>
        <time>2022-02-28T12:08:42Z</time>
      </trkpt>
      <trkpt lat="46.50393" lon="5.6564">
        <ele>454</ele>
        <time>2022-02-28T12:08:43Z</time>
      </trkpt>
      <trkpt lat="46.50388" lon="5.65643">
        <ele>454</ele>
        <time>2022-02-28T12:08:44Z</time>
      </trkpt>
      <trkpt lat="46.50382" lon="5.65644">
        <ele>454.4</ele>
        <time>2022-02-28T12:08:45Z</time>
      </trkpt>
      <trkpt lat="46.50377" lon="5.65645">
        <ele>454.4</ele>
        <time>2022-02-28T12:08:46Z</time>
      </trkpt>
      <trkpt lat="46.50371" lon="5.65645">
        <ele>454.4</ele>
        <time>2022-02-28T12:08:47Z</time>
      </trkpt>
      <trkpt lat="46.50366" lon="5.65644">
        <ele>454.4</ele>
        <time>2022-02-28T12:08:48Z</time>
      </trkpt>
      <trkpt lat="46.50358" lon="5.65642">
        <ele>454.8</ele>
        <time>2022-02-28T12:08:49Z</time>
      </trkpt>
      <trkpt lat="46.50356" lon="5.6564">
        <ele>454.8</ele>
        <time>2022-02-28T12:08:50Z</time>
      </trkpt>
      <trkpt lat="46.50347" lon="5.65635">
        <ele>455</ele>
        <time>2022-02-28T12:08:51Z</time>
      </trkpt>
      <trkpt lat="46.50343" lon="5.65633">
        <ele>455</ele>
        <time>2022-02-28T12:08:52Z</time>
      </trkpt>
      <trkpt lat="46.50339" lon="5.6563">
        <ele>455.4</ele>
        <time>2022-02-28T12:08:53Z</time>
      </trkpt>
      <trkpt lat="46.50335" lon="5.65627">
        <ele>455.4</ele>
        <time>2022-02-28T12:08:54Z</time>
      </trkpt>
      <trkpt lat="46.50331" lon="5.65624">
        <ele>455.6</ele>
        <time>2022-02-28T12:08:55Z</time>
      </trkpt>
      <trkpt lat="46.50328" lon="5.65621">
        <ele>456</ele>
        <time>2022-02-28T12:08:56Z</time>
      </trkpt>
      <trkpt lat="46.50324" lon="5.65619">
        <ele>456.2</ele>
        <time>2022-02-28T12:08:57Z</time>
      </trkpt>
      <trkpt lat="46.50321" lon="5.65616">
        <ele>456.2</ele>
        <time>2022-02-28T12:08:58Z</time>
      </trkpt>
      <trkpt lat="46.50321" lon="5.65616">
        <ele>456.8</ele>
        <time>2022-02-28T12:08:59Z</time>
      </trkpt>
      <trkpt lat="46.50317" lon="5.65614">
        <ele>456.8</ele>
        <time>2022-02-28T12:09:00Z</time>
      </trkpt>
      <trkpt lat="46.50314" lon="5.65611">
        <ele>457.2</ele>
        <time>2022-02-28T12:09:01Z</time>
      </trkpt>
      <trkpt lat="46.5031" lon="5.65609">
        <ele>457.2</ele>
        <time>2022-02-28T12:09:02Z</time>
      </trkpt>
      <trkpt lat="46.50307" lon="5.65606">
        <ele>457.4</ele>
        <time>2022-02-28T12:09:03Z</time>
      </trkpt>
      <trkpt lat="46.50304" lon="5.65602">
        <ele>457.4</ele>
        <time>2022-02-28T12:09:04Z</time>
      </trkpt>
      <trkpt lat="46.503" lon="5.65599">
        <ele>458</ele>
        <time>2022-02-28T12:09:05Z</time>
      </trkpt>
      <trkpt lat="46.50297" lon="5.65596">
        <ele>458.2</ele>
        <time>2022-02-28T12:09:06Z</time>
      </trkpt>
      <trkpt lat="46.50292" lon="5.65591">
        <ele>458.4</ele>
        <time>2022-02-28T12:09:07Z</time>
      </trkpt>
      <trkpt lat="46.50291" lon="5.65589">
        <ele>458.6</ele>
        <time>2022-02-28T12:09:08Z</time>
      </trkpt>
      <trkpt lat="46.50287" lon="5.65584">
        <ele>458.8</ele>
        <time>2022-02-28T12:09:09Z</time>
      </trkpt>
      <trkpt lat="46.50286" lon="5.65582">
        <ele>459.2</ele>
        <time>2022-02-28T12:09:10Z</time>
      </trkpt>
      <trkpt lat="46.50283" lon="5.65579">
        <ele>459.4</ele>
        <time>2022-02-28T12:09:11Z</time>
      </trkpt>
      <trkpt lat="46.5028" lon="5.65576">
        <ele>459.4</ele>
        <time>2022-02-28T12:09:12Z</time>
      </trkpt>
      <trkpt lat="46.50277" lon="5.65573">
        <ele>459.8</ele>
        <time>2022-02-28T12:09:13Z</time>
      </trkpt>
      <trkpt lat="46.50274" lon="5.6557">
        <ele>460</ele>
        <time>2022-02-28T12:09:14Z</time>
      </trkpt>
      <trkpt lat="46.50271" lon="5.65567">
        <ele>460.2</ele>
        <time>2022-02-28T12:09:15Z</time>
      </trkpt>
      <trkpt lat="46.50268" lon="5.65565">
        <ele>460.4</ele>
        <time>2022-02-28T12:09:16Z</time>
      </trkpt>
      <trkpt lat="46.50265" lon="5.65563">
        <ele>460.8</ele>
        <time>2022-02-28T12:09:17Z</time>
      </trkpt>
      <trkpt lat="46.50262" lon="5.6556">
        <ele>460.8</ele>
        <time>2022-02-28T12:09:18Z</time>
      </trkpt>
      <trkpt lat="46.50259" lon="5.65559">
        <ele>461</ele>
        <time>2022-02-28T12:09:19Z</time>
      </trkpt>
      <trkpt lat="46.50256" lon="5.65557">
        <ele>461.2</ele>
        <time>2022-02-28T12:09:20Z</time>
      </trkpt>
      <trkpt lat="46.50252" lon="5.65557">
        <ele>461.4</ele>
        <time>2022-02-28T12:09:21Z</time>
      </trkpt>
      <trkpt lat="46.50249" lon="5.65556">
        <ele>461.8</ele>
        <time>2022-02-28T12:09:22Z</time>
      </trkpt>
      <trkpt lat="46.50246" lon="5.65556">
        <ele>462</ele>
        <time>2022-02-28T12:09:23Z</time>
      </trkpt>
      <trkpt lat="46.50243" lon="5.65557">
        <ele>462.2</ele>
        <time>2022-02-28T12:09:24Z</time>
      </trkpt>
      <trkpt lat="46.5024" lon="5.65557">
        <ele>462.2</ele>
        <time>2022-02-28T12:09:25Z</time>
      </trkpt>
      <trkpt lat="46.50237" lon="5.65558">
        <ele>462.6</ele>
        <time>2022-02-28T12:09:26Z</time>
      </trkpt>
      <trkpt lat="46.50233" lon="5.65558">
        <ele>463</ele>
        <time>2022-02-28T12:09:27Z</time>
      </trkpt>
      <trkpt lat="46.5023" lon="5.65559">
        <ele>463</ele>
        <time>2022-02-28T12:09:28Z</time>
      </trkpt>
      <trkpt lat="46.50226" lon="5.65559">
        <ele>463.2</ele>
        <time>2022-02-28T12:09:29Z</time>
      </trkpt>
      <trkpt lat="46.50223" lon="5.6556">
        <ele>463.2</ele>
        <time>2022-02-28T12:09:30Z</time>
      </trkpt>
      <trkpt lat="46.50219" lon="5.6556">
        <ele>463.6</ele>
        <time>2022-02-28T12:09:31Z</time>
      </trkpt>
      <trkpt lat="46.50216" lon="5.65559">
        <ele>463.6</ele>
        <time>2022-02-28T12:09:32Z</time>
      </trkpt>
      <trkpt lat="46.50212" lon="5.65559">
        <ele>463.6</ele>
        <time>2022-02-28T12:09:33Z</time>
      </trkpt>
      <trkpt lat="46.50209" lon="5.65559">
        <ele>463.8</ele>
        <time>2022-02-28T12:09:34Z</time>
      </trkpt>
      <trkpt lat="46.50205" lon="5.65558">
        <ele>463.8</ele>
        <time>2022-02-28T12:09:35Z</time>
      </trkpt>
      <trkpt lat="46.50202" lon="5.65557">
        <ele>464.2</ele>
        <time>2022-02-28T12:09:36Z</time>
      </trkpt>
      <trkpt lat="46.502" lon="5.65556">
        <ele>464.4</ele>
        <time>2022-02-28T12:09:37Z</time>
      </trkpt>
      <trkpt lat="46.50197" lon="5.65554">
        <ele>464.4</ele>
        <time>2022-02-28T12:09:38Z</time>
      </trkpt>
      <trkpt lat="46.50194" lon="5.65553">
        <ele>464.8</ele>
        <time>2022-02-28T12:09:39Z</time>
      </trkpt>
      <trkpt lat="46.50191" lon="5.6555">
        <ele>465</ele>
        <time>2022-02-28T12:09:40Z</time>
      </trkpt>
      <trkpt lat="46.50187" lon="5.65548">
        <ele>465.4</ele>
        <time>2022-02-28T12:09:41Z</time>
      </trkpt>
      <trkpt lat="46.50184" lon="5.65545">
        <ele>465.6</ele>
        <time>2022-02-28T12:09:42Z</time>
      </trkpt>
      <trkpt lat="46.50181" lon="5.65543">
        <ele>465.8</ele>
        <time>2022-02-28T12:09:43Z</time>
      </trkpt>
      <trkpt lat="46.50177" lon="5.6554">
        <ele>465.8</ele>
        <time>2022-02-28T12:09:44Z</time>
      </trkpt>
      <trkpt lat="46.50174" lon="5.65538">
        <ele>466.2</ele>
        <time>2022-02-28T12:09:45Z</time>
      </trkpt>
      <trkpt lat="46.50171" lon="5.65535">
        <ele>466.2</ele>
        <time>2022-02-28T12:09:46Z</time>
      </trkpt>
      <trkpt lat="46.50168" lon="5.65533">
        <ele>466.6</ele>
        <time>2022-02-28T12:09:47Z</time>
      </trkpt>
      <trkpt lat="46.50165" lon="5.65531">
        <ele>467</ele>
        <time>2022-02-28T12:09:48Z</time>
      </trkpt>
      <trkpt lat="46.50162" lon="5.65529">
        <ele>467.2</ele>
        <time>2022-02-28T12:09:49Z</time>
      </trkpt>
      <trkpt lat="46.50158" lon="5.65527">
        <ele>467.2</ele>
        <time>2022-02-28T12:09:50Z</time>
      </trkpt>
      <trkpt lat="46.50155" lon="5.65524">
        <ele>467.4</ele>
        <time>2022-02-28T12:09:51Z</time>
      </trkpt>
      <trkpt lat="46.50152" lon="5.65522">
        <ele>467.6</ele>
        <time>2022-02-28T12:09:52Z</time>
      </trkpt>
      <trkpt lat="46.50149" lon="5.6552">
        <ele>467.6</ele>
        <time>2022-02-28T12:09:53Z</time>
      </trkpt>
      <trkpt lat="46.50145" lon="5.65518">
        <ele>468</ele>
        <time>2022-02-28T12:09:54Z</time>
      </trkpt>
      <trkpt lat="46.50142" lon="5.65516">
        <ele>468</ele>
        <time>2022-02-28T12:09:55Z</time>
      </trkpt>
      <trkpt lat="46.50139" lon="5.65514">
        <ele>468.4</ele>
        <time>2022-02-28T12:09:56Z</time>
      </trkpt>
      <trkpt lat="46.50135" lon="5.65512">
        <ele>468.6</ele>
        <time>2022-02-28T12:09:57Z</time>
      </trkpt>
      <trkpt lat="46.50132" lon="5.6551">
        <ele>468.6</ele>
        <time>2022-02-28T12:09:58Z</time>
      </trkpt>
      <trkpt lat="46.50128" lon="5.65508">
        <ele>469</ele>
        <time>2022-02-28T12:09:59Z</time>
      </trkpt>
      <trkpt lat="46.50125" lon="5.65505">
        <ele>469</ele>
        <time>2022-02-28T12:10:00Z</time>
      </trkpt>
      <trkpt lat="46.50122" lon="5.65503">
        <ele>469.4</ele>
        <time>2022-02-28T12:10:01Z</time>
      </trkpt>
      <trkpt lat="46.50119" lon="5.655">
        <ele>469.6</ele>
        <time>2022-02-28T12:10:02Z</time>
      </trkpt>
      <trkpt lat="46.50115" lon="5.65497">
        <ele>469.6</ele>
        <time>2022-02-28T12:10:03Z</time>
      </trkpt>
      <trkpt lat="46.50112" lon="5.65495">
        <ele>470</ele>
        <time>2022-02-28T12:10:04Z</time>
      </trkpt>
      <trkpt lat="46.50108" lon="5.65494">
        <ele>470</ele>
        <time>2022-02-28T12:10:05Z</time>
      </trkpt>
      <trkpt lat="46.50105" lon="5.65492">
        <ele>470.4</ele>
        <time>2022-02-28T12:10:06Z</time>
      </trkpt>
      <trkpt lat="46.50101" lon="5.6549">
        <ele>470.6</ele>
        <time>2022-02-28T12:10:07Z</time>
      </trkpt>
      <trkpt lat="46.50097" lon="5.65488">
        <ele>470.8</ele>
        <time>2022-02-28T12:10:08Z</time>
      </trkpt>
      <trkpt lat="46.50094" lon="5.65486">
        <ele>471</ele>
        <time>2022-02-28T12:10:09Z</time>
      </trkpt>
      <trkpt lat="46.5009" lon="5.65484">
        <ele>471.2</ele>
        <time>2022-02-28T12:10:10Z</time>
      </trkpt>
      <trkpt lat="46.50087" lon="5.65482">
        <ele>471.6</ele>
        <time>2022-02-28T12:10:11Z</time>
      </trkpt>
      <trkpt lat="46.50083" lon="5.65481">
        <ele>471.8</ele>
        <time>2022-02-28T12:10:12Z</time>
      </trkpt>
      <trkpt lat="46.50078" lon="5.65479">
        <ele>472</ele>
        <time>2022-02-28T12:10:13Z</time>
      </trkpt>
      <trkpt lat="46.50076" lon="5.65479">
        <ele>472</ele>
        <time>2022-02-28T12:10:14Z</time>
      </trkpt>
      <trkpt lat="46.50073" lon="5.65478">
        <ele>472.4</ele>
        <time>2022-02-28T12:10:15Z</time>
      </trkpt>
      <trkpt lat="46.50069" lon="5.65476">
        <ele>472.4</ele>
        <time>2022-02-28T12:10:16Z</time>
      </trkpt>
      <trkpt lat="46.50066" lon="5.65475">
        <ele>472.8</ele>
        <time>2022-02-28T12:10:17Z</time>
      </trkpt>
      <trkpt lat="46.50063" lon="5.65474">
        <ele>472.8</ele>
        <time>2022-02-28T12:10:18Z</time>
      </trkpt>
      <trkpt lat="46.5006" lon="5.65473">
        <ele>473</ele>
        <time>2022-02-28T12:10:19Z</time>
      </trkpt>
      <trkpt lat="46.50056" lon="5.65472">
        <ele>473</ele>
        <time>2022-02-28T12:10:20Z</time>
      </trkpt>
      <trkpt lat="46.50053" lon="5.65469">
        <ele>473.4</ele>
        <time>2022-02-28T12:10:21Z</time>
      </trkpt>
      <trkpt lat="46.5005" lon="5.65467">
        <ele>473.4</ele>
        <time>2022-02-28T12:10:22Z</time>
      </trkpt>
      <trkpt lat="46.50046" lon="5.65465">
        <ele>473.8</ele>
        <time>2022-02-28T12:10:23Z</time>
      </trkpt>
      <trkpt lat="46.50042" lon="5.65461">
        <ele>474</ele>
        <time>2022-02-28T12:10:24Z</time>
      </trkpt>
      <trkpt lat="46.5004" lon="5.6546">
        <ele>474</ele>
        <time>2022-02-28T12:10:25Z</time>
      </trkpt>
      <trkpt lat="46.50037" lon="5.65457">
        <ele>474.4</ele>
        <time>2022-02-28T12:10:26Z</time>
      </trkpt>
      <trkpt lat="46.50034" lon="5.65454">
        <ele>474.6</ele>
        <time>2022-02-28T12:10:27Z</time>
      </trkpt>
      <trkpt lat="46.50031" lon="5.65451">
        <ele>474.6</ele>
        <time>2022-02-28T12:10:28Z</time>
      </trkpt>
      <trkpt lat="46.50027" lon="5.65448">
        <ele>475</ele>
        <time>2022-02-28T12:10:29Z</time>
      </trkpt>
      <trkpt lat="46.50024" lon="5.65444">
        <ele>475.2</ele>
        <time>2022-02-28T12:10:30Z</time>
      </trkpt>
      <trkpt lat="46.50021" lon="5.6544">
        <ele>475.4</ele>
        <time>2022-02-28T12:10:31Z</time>
      </trkpt>
      <trkpt lat="46.50018" lon="5.65437">
        <ele>475.6</ele>
        <time>2022-02-28T12:10:32Z</time>
      </trkpt>
      <trkpt lat="46.50014" lon="5.65434">
        <ele>475.8</ele>
        <time>2022-02-28T12:10:33Z</time>
      </trkpt>
      <trkpt lat="46.5001" lon="5.65431">
        <ele>475.8</ele>
        <time>2022-02-28T12:10:34Z</time>
      </trkpt>
      <trkpt lat="46.50007" lon="5.65428">
        <ele>476.2</ele>
        <time>2022-02-28T12:10:35Z</time>
      </trkpt>
      <trkpt lat="46.50003" lon="5.65426">
        <ele>476.2</ele>
        <time>2022-02-28T12:10:36Z</time>
      </trkpt>
      <trkpt lat="46.5" lon="5.65423">
        <ele>476.6</ele>
        <time>2022-02-28T12:10:37Z</time>
      </trkpt>
      <trkpt lat="46.49996" lon="5.65421">
        <ele>476.6</ele>
        <time>2022-02-28T12:10:38Z</time>
      </trkpt>
      <trkpt lat="46.49992" lon="5.65418">
        <ele>477.2</ele>
        <time>2022-02-28T12:10:39Z</time>
      </trkpt>
      <trkpt lat="46.49989" lon="5.65416">
        <ele>477.4</ele>
        <time>2022-02-28T12:10:40Z</time>
      </trkpt>
      <trkpt lat="46.49985" lon="5.65414">
        <ele>477.6</ele>
        <time>2022-02-28T12:10:41Z</time>
      </trkpt>
      <trkpt lat="46.49981" lon="5.65412">
        <ele>477.8</ele>
        <time>2022-02-28T12:10:42Z</time>
      </trkpt>
      <trkpt lat="46.49977" lon="5.65411">
        <ele>478.2</ele>
        <time>2022-02-28T12:10:43Z</time>
      </trkpt>
      <trkpt lat="46.49973" lon="5.6541">
        <ele>478.2</ele>
        <time>2022-02-28T12:10:44Z</time>
      </trkpt>
      <trkpt lat="46.4997" lon="5.65408">
        <ele>478.6</ele>
        <time>2022-02-28T12:10:45Z</time>
      </trkpt>
      <trkpt lat="46.49966" lon="5.65407">
        <ele>478.8</ele>
        <time>2022-02-28T12:10:46Z</time>
      </trkpt>
      <trkpt lat="46.49962" lon="5.65406">
        <ele>479</ele>
        <time>2022-02-28T12:10:47Z</time>
      </trkpt>
      <trkpt lat="46.49958" lon="5.65405">
        <ele>479</ele>
        <time>2022-02-28T12:10:48Z</time>
      </trkpt>
      <trkpt lat="46.49952" lon="5.65403">
        <ele>479.4</ele>
        <time>2022-02-28T12:10:49Z</time>
      </trkpt>
      <trkpt lat="46.49951" lon="5.65402">
        <ele>479.6</ele>
        <time>2022-02-28T12:10:50Z</time>
      </trkpt>
      <trkpt lat="46.49947" lon="5.65401">
        <ele>479.8</ele>
        <time>2022-02-28T12:10:51Z</time>
      </trkpt>
      <trkpt lat="46.49943" lon="5.654">
        <ele>479.8</ele>
        <time>2022-02-28T12:10:52Z</time>
      </trkpt>
      <trkpt lat="46.49939" lon="5.654">
        <ele>480.2</ele>
        <time>2022-02-28T12:10:53Z</time>
      </trkpt>
      <trkpt lat="46.49936" lon="5.65398">
        <ele>480.2</ele>
        <time>2022-02-28T12:10:54Z</time>
      </trkpt>
      <trkpt lat="46.49932" lon="5.65397">
        <ele>480.6</ele>
        <time>2022-02-28T12:10:55Z</time>
      </trkpt>
      <trkpt lat="46.49929" lon="5.65397">
        <ele>480.8</ele>
        <time>2022-02-28T12:10:56Z</time>
      </trkpt>
      <trkpt lat="46.49925" lon="5.65396">
        <ele>481.2</ele>
        <time>2022-02-28T12:10:57Z</time>
      </trkpt>
      <trkpt lat="46.49921" lon="5.65395">
        <ele>481.4</ele>
        <time>2022-02-28T12:10:58Z</time>
      </trkpt>
      <trkpt lat="46.49917" lon="5.65394">
        <ele>481.8</ele>
        <time>2022-02-28T12:10:59Z</time>
      </trkpt>
      <trkpt lat="46.49914" lon="5.65393">
        <ele>481.8</ele>
        <time>2022-02-28T12:11:00Z</time>
      </trkpt>
      <trkpt lat="46.4991" lon="5.65392">
        <ele>482</ele>
        <time>2022-02-28T12:11:01Z</time>
      </trkpt>
      <trkpt lat="46.49906" lon="5.65391">
        <ele>482.4</ele>
        <time>2022-02-28T12:11:02Z</time>
      </trkpt>
      <trkpt lat="46.49902" lon="5.65391">
        <ele>482.4</ele>
        <time>2022-02-28T12:11:03Z</time>
      </trkpt>
      <trkpt lat="46.49899" lon="5.65391">
        <ele>482.8</ele>
        <time>2022-02-28T12:11:04Z</time>
      </trkpt>
      <trkpt lat="46.49893" lon="5.65393">
        <ele>483</ele>
        <time>2022-02-28T12:11:05Z</time>
      </trkpt>
      <trkpt lat="46.49891" lon="5.65393">
        <ele>483</ele>
        <time>2022-02-28T12:11:06Z</time>
      </trkpt>
      <trkpt lat="46.49888" lon="5.65394">
        <ele>483.4</ele>
        <time>2022-02-28T12:11:07Z</time>
      </trkpt>
      <trkpt lat="46.49884" lon="5.65395">
        <ele>483.6</ele>
        <time>2022-02-28T12:11:08Z</time>
      </trkpt>
      <trkpt lat="46.4988" lon="5.65395">
        <ele>483.8</ele>
        <time>2022-02-28T12:11:09Z</time>
      </trkpt>
      <trkpt lat="46.49876" lon="5.65395">
        <ele>484</ele>
        <time>2022-02-28T12:11:10Z</time>
      </trkpt>
      <trkpt lat="46.49873" lon="5.65394">
        <ele>484.2</ele>
        <time>2022-02-28T12:11:11Z</time>
      </trkpt>
      <trkpt lat="46.49869" lon="5.65393">
        <ele>484.6</ele>
        <time>2022-02-28T12:11:12Z</time>
      </trkpt>
      <trkpt lat="46.49865" lon="5.65392">
        <ele>484.8</ele>
        <time>2022-02-28T12:11:13Z</time>
      </trkpt>
      <trkpt lat="46.49862" lon="5.6539">
        <ele>485</ele>
        <time>2022-02-28T12:11:14Z</time>
      </trkpt>
      <trkpt lat="46.49858" lon="5.65388">
        <ele>485.2</ele>
        <time>2022-02-28T12:11:15Z</time>
      </trkpt>
      <trkpt lat="46.49855" lon="5.65385">
        <ele>485.4</ele>
        <time>2022-02-28T12:11:16Z</time>
      </trkpt>
      <trkpt lat="46.49851" lon="5.65384">
        <ele>485.8</ele>
        <time>2022-02-28T12:11:17Z</time>
      </trkpt>
      <trkpt lat="46.49848" lon="5.65382">
        <ele>486</ele>
        <time>2022-02-28T12:11:18Z</time>
      </trkpt>
      <trkpt lat="46.49844" lon="5.6538">
        <ele>486.2</ele>
        <time>2022-02-28T12:11:19Z</time>
      </trkpt>
      <trkpt lat="46.4984" lon="5.65379">
        <ele>486.4</ele>
        <time>2022-02-28T12:11:20Z</time>
      </trkpt>
      <trkpt lat="46.49836" lon="5.65379">
        <ele>486.4</ele>
        <time>2022-02-28T12:11:21Z</time>
      </trkpt>
      <trkpt lat="46.4983" lon="5.65381">
        <ele>486.8</ele>
        <time>2022-02-28T12:11:22Z</time>
      </trkpt>
      <trkpt lat="46.49829" lon="5.65381">
        <ele>486.8</ele>
        <time>2022-02-28T12:11:23Z</time>
      </trkpt>
      <trkpt lat="46.49825" lon="5.65382">
        <ele>487</ele>
        <time>2022-02-28T12:11:24Z</time>
      </trkpt>
      <trkpt lat="46.49821" lon="5.65384">
        <ele>487</ele>
        <time>2022-02-28T12:11:25Z</time>
      </trkpt>
      <trkpt lat="46.49818" lon="5.65386">
        <ele>487.6</ele>
        <time>2022-02-28T12:11:26Z</time>
      </trkpt>
      <trkpt lat="46.49814" lon="5.65387">
        <ele>487.6</ele>
        <time>2022-02-28T12:11:27Z</time>
      </trkpt>
      <trkpt lat="46.49811" lon="5.6539">
        <ele>487.8</ele>
        <time>2022-02-28T12:11:28Z</time>
      </trkpt>
      <trkpt lat="46.49808" lon="5.65392">
        <ele>488</ele>
        <time>2022-02-28T12:11:29Z</time>
      </trkpt>
      <trkpt lat="46.49805" lon="5.65394">
        <ele>488.2</ele>
        <time>2022-02-28T12:11:30Z</time>
      </trkpt>
      <trkpt lat="46.49802" lon="5.65396">
        <ele>488.2</ele>
        <time>2022-02-28T12:11:31Z</time>
      </trkpt>
      <trkpt lat="46.49799" lon="5.65399">
        <ele>488.6</ele>
        <time>2022-02-28T12:11:32Z</time>
      </trkpt>
      <trkpt lat="46.49796" lon="5.65401">
        <ele>489</ele>
        <time>2022-02-28T12:11:33Z</time>
      </trkpt>
      <trkpt lat="46.49793" lon="5.65403">
        <ele>489.2</ele>
        <time>2022-02-28T12:11:34Z</time>
      </trkpt>
      <trkpt lat="46.49791" lon="5.65406">
        <ele>489.2</ele>
        <time>2022-02-28T12:11:35Z</time>
      </trkpt>
      <trkpt lat="46.49788" lon="5.65408">
        <ele>489.4</ele>
        <time>2022-02-28T12:11:36Z</time>
      </trkpt>
      <trkpt lat="46.49785" lon="5.65409">
        <ele>489.4</ele>
        <time>2022-02-28T12:11:37Z</time>
      </trkpt>
      <trkpt lat="46.49782" lon="5.65411">
        <ele>489.8</ele>
        <time>2022-02-28T12:11:38Z</time>
      </trkpt>
      <trkpt lat="46.49779" lon="5.65412">
        <ele>489.8</ele>
        <time>2022-02-28T12:11:39Z</time>
      </trkpt>
      <trkpt lat="46.49776" lon="5.65412">
        <ele>490.2</ele>
        <time>2022-02-28T12:11:40Z</time>
      </trkpt>
      <trkpt lat="46.49773" lon="5.65412">
        <ele>490.4</ele>
        <time>2022-02-28T12:11:41Z</time>
      </trkpt>
      <trkpt lat="46.4977" lon="5.65412">
        <ele>490.8</ele>
        <time>2022-02-28T12:11:42Z</time>
      </trkpt>
      <trkpt lat="46.49767" lon="5.65412">
        <ele>490.8</ele>
        <time>2022-02-28T12:11:43Z</time>
      </trkpt>
      <trkpt lat="46.49763" lon="5.65412">
        <ele>491</ele>
        <time>2022-02-28T12:11:44Z</time>
      </trkpt>
      <trkpt lat="46.4976" lon="5.65412">
        <ele>491</ele>
        <time>2022-02-28T12:11:45Z</time>
      </trkpt>
      <trkpt lat="46.49757" lon="5.65412">
        <ele>491.4</ele>
        <time>2022-02-28T12:11:46Z</time>
      </trkpt>
      <trkpt lat="46.49753" lon="5.65411">
        <ele>491.4</ele>
        <time>2022-02-28T12:11:47Z</time>
      </trkpt>
      <trkpt lat="46.4975" lon="5.65411">
        <ele>491.8</ele>
        <time>2022-02-28T12:11:48Z</time>
      </trkpt>
      <trkpt lat="46.49747" lon="5.65411">
        <ele>492</ele>
        <time>2022-02-28T12:11:49Z</time>
      </trkpt>
      <trkpt lat="46.49744" lon="5.65411">
        <ele>492.2</ele>
        <time>2022-02-28T12:11:50Z</time>
      </trkpt>
      <trkpt lat="46.4974" lon="5.65411">
        <ele>492.4</ele>
        <time>2022-02-28T12:11:51Z</time>
      </trkpt>
      <trkpt lat="46.49737" lon="5.65412">
        <ele>492.4</ele>
        <time>2022-02-28T12:11:52Z</time>
      </trkpt>
      <trkpt lat="46.49734" lon="5.65413">
        <ele>492.8</ele>
        <time>2022-02-28T12:11:53Z</time>
      </trkpt>
      <trkpt lat="46.49731" lon="5.65414">
        <ele>492.8</ele>
        <time>2022-02-28T12:11:54Z</time>
      </trkpt>
      <trkpt lat="46.49726" lon="5.65416">
        <ele>493.2</ele>
        <time>2022-02-28T12:11:55Z</time>
      </trkpt>
      <trkpt lat="46.49725" lon="5.65417">
        <ele>493.4</ele>
        <time>2022-02-28T12:11:56Z</time>
      </trkpt>
      <trkpt lat="46.49722" lon="5.65419">
        <ele>493.4</ele>
        <time>2022-02-28T12:11:57Z</time>
      </trkpt>
      <trkpt lat="46.49719" lon="5.65421">
        <ele>493.8</ele>
        <time>2022-02-28T12:11:58Z</time>
      </trkpt>
      <trkpt lat="46.49716" lon="5.65423">
        <ele>493.8</ele>
        <time>2022-02-28T12:11:59Z</time>
      </trkpt>
      <trkpt lat="46.49713" lon="5.65425">
        <ele>494.2</ele>
        <time>2022-02-28T12:12:00Z</time>
      </trkpt>
      <trkpt lat="46.4971" lon="5.65427">
        <ele>494.2</ele>
        <time>2022-02-28T12:12:01Z</time>
      </trkpt>
      <trkpt lat="46.49707" lon="5.65429">
        <ele>494.4</ele>
        <time>2022-02-28T12:12:02Z</time>
      </trkpt>
      <trkpt lat="46.49704" lon="5.6543">
        <ele>494.4</ele>
        <time>2022-02-28T12:12:03Z</time>
      </trkpt>
      <trkpt lat="46.49701" lon="5.65431">
        <ele>494.8</ele>
        <time>2022-02-28T12:12:04Z</time>
      </trkpt>
      <trkpt lat="46.49698" lon="5.65432">
        <ele>494.8</ele>
        <time>2022-02-28T12:12:05Z</time>
      </trkpt>
      <trkpt lat="46.49695" lon="5.65432">
        <ele>495.2</ele>
        <time>2022-02-28T12:12:06Z</time>
      </trkpt>
      <trkpt lat="46.49692" lon="5.65433">
        <ele>495.2</ele>
        <time>2022-02-28T12:12:07Z</time>
      </trkpt>
      <trkpt lat="46.49689" lon="5.65433">
        <ele>495.4</ele>
        <time>2022-02-28T12:12:08Z</time>
      </trkpt>
      <trkpt lat="46.49686" lon="5.65433">
        <ele>495.4</ele>
        <time>2022-02-28T12:12:09Z</time>
      </trkpt>
      <trkpt lat="46.49683" lon="5.65433">
        <ele>495.8</ele>
        <time>2022-02-28T12:12:10Z</time>
      </trkpt>
      <trkpt lat="46.4968" lon="5.65432">
        <ele>495.8</ele>
        <time>2022-02-28T12:12:11Z</time>
      </trkpt>
      <trkpt lat="46.49677" lon="5.65432">
        <ele>496.2</ele>
        <time>2022-02-28T12:12:12Z</time>
      </trkpt>
      <trkpt lat="46.49674" lon="5.65432">
        <ele>496.4</ele>
        <time>2022-02-28T12:12:13Z</time>
      </trkpt>
      <trkpt lat="46.49671" lon="5.65432">
        <ele>496.8</ele>
        <time>2022-02-28T12:12:14Z</time>
      </trkpt>
      <trkpt lat="46.49668" lon="5.65431">
        <ele>497</ele>
        <time>2022-02-28T12:12:15Z</time>
      </trkpt>
      <trkpt lat="46.49664" lon="5.6543">
        <ele>497</ele>
        <time>2022-02-28T12:12:16Z</time>
      </trkpt>
      <trkpt lat="46.49661" lon="5.6543">
        <ele>497.4</ele>
        <time>2022-02-28T12:12:17Z</time>
      </trkpt>
      <trkpt lat="46.49658" lon="5.65429">
        <ele>497.4</ele>
        <time>2022-02-28T12:12:18Z</time>
      </trkpt>
      <trkpt lat="46.49655" lon="5.65428">
        <ele>497.6</ele>
        <time>2022-02-28T12:12:19Z</time>
      </trkpt>
      <trkpt lat="46.49652" lon="5.65429">
        <ele>497.6</ele>
        <time>2022-02-28T12:12:20Z</time>
      </trkpt>
      <trkpt lat="46.49649" lon="5.65429">
        <ele>497.8</ele>
        <time>2022-02-28T12:12:21Z</time>
      </trkpt>
      <trkpt lat="46.49646" lon="5.65429">
        <ele>498</ele>
        <time>2022-02-28T12:12:22Z</time>
      </trkpt>
      <trkpt lat="46.49643" lon="5.65429">
        <ele>498.4</ele>
        <time>2022-02-28T12:12:23Z</time>
      </trkpt>
      <trkpt lat="46.4964" lon="5.6543">
        <ele>498.4</ele>
        <time>2022-02-28T12:12:24Z</time>
      </trkpt>
      <trkpt lat="46.49637" lon="5.6543">
        <ele>498.6</ele>
        <time>2022-02-28T12:12:25Z</time>
      </trkpt>
      <trkpt lat="46.49634" lon="5.65431">
        <ele>498.6</ele>
        <time>2022-02-28T12:12:26Z</time>
      </trkpt>
      <trkpt lat="46.49631" lon="5.65431">
        <ele>499</ele>
        <time>2022-02-28T12:12:27Z</time>
      </trkpt>
      <trkpt lat="46.49628" lon="5.65432">
        <ele>499</ele>
        <time>2022-02-28T12:12:28Z</time>
      </trkpt>
      <trkpt lat="46.49625" lon="5.65432">
        <ele>499.2</ele>
        <time>2022-02-28T12:12:29Z</time>
      </trkpt>
      <trkpt lat="46.49622" lon="5.65433">
        <ele>499.2</ele>
        <time>2022-02-28T12:12:30Z</time>
      </trkpt>
      <trkpt lat="46.4962" lon="5.65435">
        <ele>499.4</ele>
        <time>2022-02-28T12:12:31Z</time>
      </trkpt>
      <trkpt lat="46.49617" lon="5.65436">
        <ele>499.4</ele>
        <time>2022-02-28T12:12:32Z</time>
      </trkpt>
      <trkpt lat="46.49614" lon="5.65437">
        <ele>499.8</ele>
        <time>2022-02-28T12:12:33Z</time>
      </trkpt>
      <trkpt lat="46.49612" lon="5.65438">
        <ele>499.8</ele>
        <time>2022-02-28T12:12:34Z</time>
      </trkpt>
      <trkpt lat="46.49609" lon="5.65439">
        <ele>500</ele>
        <time>2022-02-28T12:12:35Z</time>
      </trkpt>
      <trkpt lat="46.49606" lon="5.65439">
        <ele>500</ele>
        <time>2022-02-28T12:12:36Z</time>
      </trkpt>
      <trkpt lat="46.49601" lon="5.65439">
        <ele>500.4</ele>
        <time>2022-02-28T12:12:37Z</time>
      </trkpt>
      <trkpt lat="46.496" lon="5.65439">
        <ele>500.4</ele>
        <time>2022-02-28T12:12:38Z</time>
      </trkpt>
      <trkpt lat="46.49597" lon="5.6544">
        <ele>500.8</ele>
        <time>2022-02-28T12:12:39Z</time>
      </trkpt>
      <trkpt lat="46.49594" lon="5.65441">
        <ele>500.8</ele>
        <time>2022-02-28T12:12:40Z</time>
      </trkpt>
      <trkpt lat="46.4959" lon="5.65442">
        <ele>501.2</ele>
        <time>2022-02-28T12:12:41Z</time>
      </trkpt>
      <trkpt lat="46.49588" lon="5.65443">
        <ele>501.4</ele>
        <time>2022-02-28T12:12:42Z</time>
      </trkpt>
      <trkpt lat="46.49584" lon="5.65445">
        <ele>501.4</ele>
        <time>2022-02-28T12:12:43Z</time>
      </trkpt>
      <trkpt lat="46.49581" lon="5.65446">
        <ele>501.4</ele>
        <time>2022-02-28T12:12:44Z</time>
      </trkpt>
      <trkpt lat="46.49578" lon="5.65447">
        <ele>501.8</ele>
        <time>2022-02-28T12:12:45Z</time>
      </trkpt>
      <trkpt lat="46.49574" lon="5.65448">
        <ele>501.8</ele>
        <time>2022-02-28T12:12:46Z</time>
      </trkpt>
      <trkpt lat="46.49571" lon="5.65449">
        <ele>502.2</ele>
        <time>2022-02-28T12:12:47Z</time>
      </trkpt>
      <trkpt lat="46.49567" lon="5.6545">
        <ele>502.2</ele>
        <time>2022-02-28T12:12:48Z</time>
      </trkpt>
      <trkpt lat="46.49564" lon="5.65451">
        <ele>502.4</ele>
        <time>2022-02-28T12:12:49Z</time>
      </trkpt>
      <trkpt lat="46.49561" lon="5.65452">
        <ele>502.8</ele>
        <time>2022-02-28T12:12:50Z</time>
      </trkpt>
      <trkpt lat="46.49557" lon="5.65452">
        <ele>503</ele>
        <time>2022-02-28T12:12:51Z</time>
      </trkpt>
      <trkpt lat="46.49554" lon="5.65453">
        <ele>503</ele>
        <time>2022-02-28T12:12:52Z</time>
      </trkpt>
      <trkpt lat="46.4955" lon="5.65453">
        <ele>503.2</ele>
        <time>2022-02-28T12:12:53Z</time>
      </trkpt>
      <trkpt lat="46.49547" lon="5.65453">
        <ele>503.2</ele>
        <time>2022-02-28T12:12:54Z</time>
      </trkpt>
      <trkpt lat="46.49543" lon="5.65454">
        <ele>503.6</ele>
        <time>2022-02-28T12:12:55Z</time>
      </trkpt>
      <trkpt lat="46.49539" lon="5.65454">
        <ele>503.6</ele>
        <time>2022-02-28T12:12:56Z</time>
      </trkpt>
      <trkpt lat="46.49536" lon="5.65455">
        <ele>504</ele>
        <time>2022-02-28T12:12:57Z</time>
      </trkpt>
      <trkpt lat="46.49533" lon="5.65455">
        <ele>504.2</ele>
        <time>2022-02-28T12:12:58Z</time>
      </trkpt>
      <trkpt lat="46.49526" lon="5.65455">
        <ele>504.2</ele>
        <time>2022-02-28T12:12:59Z</time>
      </trkpt>
      <trkpt lat="46.49522" lon="5.65455">
        <ele>504.6</ele>
        <time>2022-02-28T12:13:00Z</time>
      </trkpt>
      <trkpt lat="46.49519" lon="5.65456">
        <ele>504.6</ele>
        <time>2022-02-28T12:13:01Z</time>
      </trkpt>
      <trkpt lat="46.49516" lon="5.65456">
        <ele>504.8</ele>
        <time>2022-02-28T12:13:02Z</time>
      </trkpt>
      <trkpt lat="46.49512" lon="5.65455">
        <ele>505</ele>
        <time>2022-02-28T12:13:03Z</time>
      </trkpt>
      <trkpt lat="46.49512" lon="5.65455">
        <ele>505</ele>
        <time>2022-02-28T12:13:04Z</time>
      </trkpt>
      <trkpt lat="46.49509" lon="5.65455">
        <ele>505.4</ele>
        <time>2022-02-28T12:13:05Z</time>
      </trkpt>
      <trkpt lat="46.49504" lon="5.65454">
        <ele>505.4</ele>
        <time>2022-02-28T12:13:06Z</time>
      </trkpt>
      <trkpt lat="46.49502" lon="5.65454">
        <ele>505.8</ele>
        <time>2022-02-28T12:13:07Z</time>
      </trkpt>
      <trkpt lat="46.49499" lon="5.65454">
        <ele>505.8</ele>
        <time>2022-02-28T12:13:08Z</time>
      </trkpt>
      <trkpt lat="46.49496" lon="5.65453">
        <ele>506.2</ele>
        <time>2022-02-28T12:13:09Z</time>
      </trkpt>
      <trkpt lat="46.49492" lon="5.65453">
        <ele>506.4</ele>
        <time>2022-02-28T12:13:10Z</time>
      </trkpt>
      <trkpt lat="46.49489" lon="5.65453">
        <ele>506.4</ele>
        <time>2022-02-28T12:13:11Z</time>
      </trkpt>
      <trkpt lat="46.49486" lon="5.65452">
        <ele>506.8</ele>
        <time>2022-02-28T12:13:12Z</time>
      </trkpt>
      <trkpt lat="46.49483" lon="5.65452">
        <ele>506.8</ele>
        <time>2022-02-28T12:13:13Z</time>
      </trkpt>
      <trkpt lat="46.49479" lon="5.65453">
        <ele>507.2</ele>
        <time>2022-02-28T12:13:14Z</time>
      </trkpt>
      <trkpt lat="46.49476" lon="5.65453">
        <ele>507.2</ele>
        <time>2022-02-28T12:13:15Z</time>
      </trkpt>
      <trkpt lat="46.49473" lon="5.65454">
        <ele>507.4</ele>
        <time>2022-02-28T12:13:16Z</time>
      </trkpt>
      <trkpt lat="46.4947" lon="5.65456">
        <ele>507.4</ele>
        <time>2022-02-28T12:13:17Z</time>
      </trkpt>
      <trkpt lat="46.49467" lon="5.65457">
        <ele>507.6</ele>
        <time>2022-02-28T12:13:18Z</time>
      </trkpt>
      <trkpt lat="46.49463" lon="5.6546">
        <ele>507.6</ele>
        <time>2022-02-28T12:13:19Z</time>
      </trkpt>
      <trkpt lat="46.49461" lon="5.65461">
        <ele>508</ele>
        <time>2022-02-28T12:13:20Z</time>
      </trkpt>
      <trkpt lat="46.49458" lon="5.65463">
        <ele>508</ele>
        <time>2022-02-28T12:13:21Z</time>
      </trkpt>
      <trkpt lat="46.49455" lon="5.65465">
        <ele>508.4</ele>
        <time>2022-02-28T12:13:22Z</time>
      </trkpt>
      <trkpt lat="46.49452" lon="5.65467">
        <ele>508.4</ele>
        <time>2022-02-28T12:13:23Z</time>
      </trkpt>
      <trkpt lat="46.49449" lon="5.65469">
        <ele>508.6</ele>
        <time>2022-02-28T12:13:24Z</time>
      </trkpt>
      <trkpt lat="46.49446" lon="5.65472">
        <ele>509</ele>
        <time>2022-02-28T12:13:25Z</time>
      </trkpt>
      <trkpt lat="46.49443" lon="5.65475">
        <ele>509.2</ele>
        <time>2022-02-28T12:13:26Z</time>
      </trkpt>
      <trkpt lat="46.49441" lon="5.65479">
        <ele>509.2</ele>
        <time>2022-02-28T12:13:27Z</time>
      </trkpt>
      <trkpt lat="46.49437" lon="5.65483">
        <ele>509.6</ele>
        <time>2022-02-28T12:13:28Z</time>
      </trkpt>
      <trkpt lat="46.49436" lon="5.65484">
        <ele>509.6</ele>
        <time>2022-02-28T12:13:29Z</time>
      </trkpt>
      <trkpt lat="46.49433" lon="5.65487">
        <ele>509.8</ele>
        <time>2022-02-28T12:13:30Z</time>
      </trkpt>
      <trkpt lat="46.49429" lon="5.65492">
        <ele>509.8</ele>
        <time>2022-02-28T12:13:31Z</time>
      </trkpt>
      <trkpt lat="46.49428" lon="5.65494">
        <ele>510.2</ele>
        <time>2022-02-28T12:13:32Z</time>
      </trkpt>
      <trkpt lat="46.49426" lon="5.65498">
        <ele>510.2</ele>
        <time>2022-02-28T12:13:33Z</time>
      </trkpt>
      <trkpt lat="46.49423" lon="5.65502">
        <ele>510.4</ele>
        <time>2022-02-28T12:13:34Z</time>
      </trkpt>
      <trkpt lat="46.4942" lon="5.65505">
        <ele>510.6</ele>
        <time>2022-02-28T12:13:35Z</time>
      </trkpt>
      <trkpt lat="46.49416" lon="5.65511">
        <ele>511</ele>
        <time>2022-02-28T12:13:36Z</time>
      </trkpt>
      <trkpt lat="46.49415" lon="5.65513">
        <ele>511.2</ele>
        <time>2022-02-28T12:13:37Z</time>
      </trkpt>
      <trkpt lat="46.49413" lon="5.65517">
        <ele>511.6</ele>
        <time>2022-02-28T12:13:38Z</time>
      </trkpt>
      <trkpt lat="46.4941" lon="5.6552">
        <ele>511.8</ele>
        <time>2022-02-28T12:13:39Z</time>
      </trkpt>
      <trkpt lat="46.49407" lon="5.65523">
        <ele>512</ele>
        <time>2022-02-28T12:13:40Z</time>
      </trkpt>
      <trkpt lat="46.49404" lon="5.65527">
        <ele>512</ele>
        <time>2022-02-28T12:13:41Z</time>
      </trkpt>
      <trkpt lat="46.49401" lon="5.6553">
        <ele>512.6</ele>
        <time>2022-02-28T12:13:42Z</time>
      </trkpt>
      <trkpt lat="46.49398" lon="5.65533">
        <ele>512.6</ele>
        <time>2022-02-28T12:13:43Z</time>
      </trkpt>
      <trkpt lat="46.49395" lon="5.65537">
        <ele>513</ele>
        <time>2022-02-28T12:13:44Z</time>
      </trkpt>
      <trkpt lat="46.49392" lon="5.6554">
        <ele>513.2</ele>
        <time>2022-02-28T12:13:45Z</time>
      </trkpt>
      <trkpt lat="46.49389" lon="5.65543">
        <ele>513.4</ele>
        <time>2022-02-28T12:13:46Z</time>
      </trkpt>
      <trkpt lat="46.49386" lon="5.65546">
        <ele>513.4</ele>
        <time>2022-02-28T12:13:47Z</time>
      </trkpt>
      <trkpt lat="46.49383" lon="5.65549">
        <ele>513.8</ele>
        <time>2022-02-28T12:13:48Z</time>
      </trkpt>
      <trkpt lat="46.4938" lon="5.65552">
        <ele>513.8</ele>
        <time>2022-02-28T12:13:49Z</time>
      </trkpt>
      <trkpt lat="46.49377" lon="5.65554">
        <ele>514.2</ele>
        <time>2022-02-28T12:13:50Z</time>
      </trkpt>
      <trkpt lat="46.49374" lon="5.65557">
        <ele>514.2</ele>
        <time>2022-02-28T12:13:51Z</time>
      </trkpt>
      <trkpt lat="46.49371" lon="5.65559">
        <ele>514.6</ele>
        <time>2022-02-28T12:13:52Z</time>
      </trkpt>
      <trkpt lat="46.49368" lon="5.65561">
        <ele>514.6</ele>
        <time>2022-02-28T12:13:53Z</time>
      </trkpt>
      <trkpt lat="46.49365" lon="5.65564">
        <ele>515</ele>
        <time>2022-02-28T12:13:54Z</time>
      </trkpt>
      <trkpt lat="46.49362" lon="5.65566">
        <ele>515</ele>
        <time>2022-02-28T12:13:55Z</time>
      </trkpt>
      <trkpt lat="46.49359" lon="5.65568">
        <ele>515.4</ele>
        <time>2022-02-28T12:13:56Z</time>
      </trkpt>
      <trkpt lat="46.49355" lon="5.6557">
        <ele>515.4</ele>
        <time>2022-02-28T12:13:57Z</time>
      </trkpt>
      <trkpt lat="46.49352" lon="5.65572">
        <ele>515.6</ele>
        <time>2022-02-28T12:13:58Z</time>
      </trkpt>
      <trkpt lat="46.49349" lon="5.65575">
        <ele>515.8</ele>
        <time>2022-02-28T12:13:59Z</time>
      </trkpt>
      <trkpt lat="46.49346" lon="5.65576">
        <ele>516.2</ele>
        <time>2022-02-28T12:14:00Z</time>
      </trkpt>
      <trkpt lat="46.49343" lon="5.65579">
        <ele>516.4</ele>
        <time>2022-02-28T12:14:01Z</time>
      </trkpt>
      <trkpt lat="46.4934" lon="5.65581">
        <ele>516.4</ele>
        <time>2022-02-28T12:14:02Z</time>
      </trkpt>
      <trkpt lat="46.49337" lon="5.65584">
        <ele>516.6</ele>
        <time>2022-02-28T12:14:03Z</time>
      </trkpt>
      <trkpt lat="46.49334" lon="5.65586">
        <ele>516.6</ele>
        <time>2022-02-28T12:14:04Z</time>
      </trkpt>
      <trkpt lat="46.49331" lon="5.65589">
        <ele>517</ele>
        <time>2022-02-28T12:14:05Z</time>
      </trkpt>
      <trkpt lat="46.49328" lon="5.65591">
        <ele>517</ele>
        <time>2022-02-28T12:14:06Z</time>
      </trkpt>
      <trkpt lat="46.49325" lon="5.65594">
        <ele>517.4</ele>
        <time>2022-02-28T12:14:07Z</time>
      </trkpt>
      <trkpt lat="46.49323" lon="5.65597">
        <ele>517.4</ele>
        <time>2022-02-28T12:14:08Z</time>
      </trkpt>
      <trkpt lat="46.4932" lon="5.656">
        <ele>517.8</ele>
        <time>2022-02-28T12:14:09Z</time>
      </trkpt>
      <trkpt lat="46.49317" lon="5.65602">
        <ele>517.8</ele>
        <time>2022-02-28T12:14:10Z</time>
      </trkpt>
      <trkpt lat="46.49315" lon="5.65605">
        <ele>518.2</ele>
        <time>2022-02-28T12:14:11Z</time>
      </trkpt>
      <trkpt lat="46.49313" lon="5.65608">
        <ele>518.4</ele>
        <time>2022-02-28T12:14:12Z</time>
      </trkpt>
      <trkpt lat="46.4931" lon="5.65611">
        <ele>518.4</ele>
        <time>2022-02-28T12:14:13Z</time>
      </trkpt>
      <trkpt lat="46.49308" lon="5.65614">
        <ele>518.8</ele>
        <time>2022-02-28T12:14:14Z</time>
      </trkpt>
      <trkpt lat="46.49305" lon="5.65617">
        <ele>518.8</ele>
        <time>2022-02-28T12:14:15Z</time>
      </trkpt>
      <trkpt lat="46.49302" lon="5.65621">
        <ele>519</ele>
        <time>2022-02-28T12:14:16Z</time>
      </trkpt>
      <trkpt lat="46.493" lon="5.65624">
        <ele>519.2</ele>
        <time>2022-02-28T12:14:17Z</time>
      </trkpt>
      <trkpt lat="46.49297" lon="5.65627">
        <ele>519.2</ele>
        <time>2022-02-28T12:14:18Z</time>
      </trkpt>
      <trkpt lat="46.49294" lon="5.6563">
        <ele>519.6</ele>
        <time>2022-02-28T12:14:19Z</time>
      </trkpt>
      <trkpt lat="46.4929" lon="5.65634">
        <ele>519.8</ele>
        <time>2022-02-28T12:14:20Z</time>
      </trkpt>
      <trkpt lat="46.49288" lon="5.65636">
        <ele>519.8</ele>
        <time>2022-02-28T12:14:21Z</time>
      </trkpt>
      <trkpt lat="46.49285" lon="5.65638">
        <ele>520.2</ele>
        <time>2022-02-28T12:14:22Z</time>
      </trkpt>
      <trkpt lat="46.4928" lon="5.65641">
        <ele>520.2</ele>
        <time>2022-02-28T12:14:23Z</time>
      </trkpt>
      <trkpt lat="46.49279" lon="5.65643">
        <ele>520.6</ele>
        <time>2022-02-28T12:14:24Z</time>
      </trkpt>
      <trkpt lat="46.49276" lon="5.65645">
        <ele>520.6</ele>
        <time>2022-02-28T12:14:25Z</time>
      </trkpt>
      <trkpt lat="46.49273" lon="5.65647">
        <ele>521</ele>
        <time>2022-02-28T12:14:26Z</time>
      </trkpt>
      <trkpt lat="46.4927" lon="5.65649">
        <ele>521</ele>
        <time>2022-02-28T12:14:27Z</time>
      </trkpt>
      <trkpt lat="46.49267" lon="5.65651">
        <ele>521.2</ele>
        <time>2022-02-28T12:14:28Z</time>
      </trkpt>
      <trkpt lat="46.49264" lon="5.65653">
        <ele>521.4</ele>
        <time>2022-02-28T12:14:29Z</time>
      </trkpt>
      <trkpt lat="46.49262" lon="5.65655">
        <ele>521.6</ele>
        <time>2022-02-28T12:14:30Z</time>
      </trkpt>
      <trkpt lat="46.49259" lon="5.65658">
        <ele>521.6</ele>
        <time>2022-02-28T12:14:31Z</time>
      </trkpt>
      <trkpt lat="46.49257" lon="5.6566">
        <ele>522</ele>
        <time>2022-02-28T12:14:32Z</time>
      </trkpt>
      <trkpt lat="46.49254" lon="5.65662">
        <ele>522</ele>
        <time>2022-02-28T12:14:33Z</time>
      </trkpt>
      <trkpt lat="46.49252" lon="5.65665">
        <ele>522.4</ele>
        <time>2022-02-28T12:14:34Z</time>
      </trkpt>
      <trkpt lat="46.49249" lon="5.65667">
        <ele>522.4</ele>
        <time>2022-02-28T12:14:35Z</time>
      </trkpt>
      <trkpt lat="46.49245" lon="5.65669">
        <ele>522.8</ele>
        <time>2022-02-28T12:14:36Z</time>
      </trkpt>
      <trkpt lat="46.49242" lon="5.65671">
        <ele>523.2</ele>
        <time>2022-02-28T12:14:37Z</time>
      </trkpt>
      <trkpt lat="46.49239" lon="5.65674">
        <ele>523.2</ele>
        <time>2022-02-28T12:14:38Z</time>
      </trkpt>
      <trkpt lat="46.49236" lon="5.65676">
        <ele>523.4</ele>
        <time>2022-02-28T12:14:39Z</time>
      </trkpt>
      <trkpt lat="46.49233" lon="5.65679">
        <ele>523.4</ele>
        <time>2022-02-28T12:14:40Z</time>
      </trkpt>
      <trkpt lat="46.49231" lon="5.65682">
        <ele>523.6</ele>
        <time>2022-02-28T12:14:41Z</time>
      </trkpt>
      <trkpt lat="46.49228" lon="5.65685">
        <ele>523.6</ele>
        <time>2022-02-28T12:14:42Z</time>
      </trkpt>
      <trkpt lat="46.49225" lon="5.65688">
        <ele>524</ele>
        <time>2022-02-28T12:14:43Z</time>
      </trkpt>
      <trkpt lat="46.49223" lon="5.65691">
        <ele>524</ele>
        <time>2022-02-28T12:14:44Z</time>
      </trkpt>
      <trkpt lat="46.4922" lon="5.65695">
        <ele>524.4</ele>
        <time>2022-02-28T12:14:45Z</time>
      </trkpt>
      <trkpt lat="46.49217" lon="5.65698">
        <ele>524.4</ele>
        <time>2022-02-28T12:14:46Z</time>
      </trkpt>
      <trkpt lat="46.49215" lon="5.65702">
        <ele>524.8</ele>
        <time>2022-02-28T12:14:47Z</time>
      </trkpt>
      <trkpt lat="46.49212" lon="5.65705">
        <ele>525</ele>
        <time>2022-02-28T12:14:48Z</time>
      </trkpt>
      <trkpt lat="46.49209" lon="5.65708">
        <ele>525.2</ele>
        <time>2022-02-28T12:14:49Z</time>
      </trkpt>
      <trkpt lat="46.49207" lon="5.65712">
        <ele>525.2</ele>
        <time>2022-02-28T12:14:50Z</time>
      </trkpt>
      <trkpt lat="46.49205" lon="5.65715">
        <ele>525.6</ele>
        <time>2022-02-28T12:14:51Z</time>
      </trkpt>
      <trkpt lat="46.49202" lon="5.65718">
        <ele>525.6</ele>
        <time>2022-02-28T12:14:52Z</time>
      </trkpt>
      <trkpt lat="46.492" lon="5.65722">
        <ele>525.8</ele>
        <time>2022-02-28T12:14:53Z</time>
      </trkpt>
      <trkpt lat="46.49198" lon="5.65726">
        <ele>525.8</ele>
        <time>2022-02-28T12:14:54Z</time>
      </trkpt>
      <trkpt lat="46.49196" lon="5.6573">
        <ele>526.2</ele>
        <time>2022-02-28T12:14:55Z</time>
      </trkpt>
      <trkpt lat="46.49195" lon="5.65735">
        <ele>526.2</ele>
        <time>2022-02-28T12:14:56Z</time>
      </trkpt>
      <trkpt lat="46.49193" lon="5.65739">
        <ele>526.4</ele>
        <time>2022-02-28T12:14:57Z</time>
      </trkpt>
      <trkpt lat="46.49191" lon="5.65744">
        <ele>526.4</ele>
        <time>2022-02-28T12:14:58Z</time>
      </trkpt>
      <trkpt lat="46.4919" lon="5.65748">
        <ele>526.8</ele>
        <time>2022-02-28T12:14:59Z</time>
      </trkpt>
      <trkpt lat="46.49188" lon="5.65753">
        <ele>526.8</ele>
        <time>2022-02-28T12:15:00Z</time>
      </trkpt>
      <trkpt lat="46.49187" lon="5.65758">
        <ele>526.8</ele>
        <time>2022-02-28T12:15:01Z</time>
      </trkpt>
      <trkpt lat="46.49187" lon="5.65763">
        <ele>526.8</ele>
        <time>2022-02-28T12:15:02Z</time>
      </trkpt>
      <trkpt lat="46.49186" lon="5.65769">
        <ele>526.8</ele>
        <time>2022-02-28T12:15:03Z</time>
      </trkpt>
      <trkpt lat="46.49185" lon="5.65775">
        <ele>526.8</ele>
        <time>2022-02-28T12:15:04Z</time>
      </trkpt>
      <trkpt lat="46.49184" lon="5.65781">
        <ele>526.8</ele>
        <time>2022-02-28T12:15:05Z</time>
      </trkpt>
      <trkpt lat="46.49183" lon="5.65787">
        <ele>526.4</ele>
        <time>2022-02-28T12:15:06Z</time>
      </trkpt>
      <trkpt lat="46.4918" lon="5.65797">
        <ele>526.4</ele>
        <time>2022-02-28T12:15:07Z</time>
      </trkpt>
      <trkpt lat="46.49179" lon="5.65801">
        <ele>526</ele>
        <time>2022-02-28T12:15:08Z</time>
      </trkpt>
      <trkpt lat="46.49176" lon="5.65807">
        <ele>526</ele>
        <time>2022-02-28T12:15:09Z</time>
      </trkpt>
      <trkpt lat="46.49173" lon="5.65815">
        <ele>525.6</ele>
        <time>2022-02-28T12:15:10Z</time>
      </trkpt>
      <trkpt lat="46.4917" lon="5.65823">
        <ele>525.4</ele>
        <time>2022-02-28T12:15:11Z</time>
      </trkpt>
      <trkpt lat="46.49166" lon="5.65831">
        <ele>525.2</ele>
        <time>2022-02-28T12:15:12Z</time>
      </trkpt>
      <trkpt lat="46.49162" lon="5.65839">
        <ele>525</ele>
        <time>2022-02-28T12:15:13Z</time>
      </trkpt>
      <trkpt lat="46.49158" lon="5.65847">
        <ele>524.6</ele>
        <time>2022-02-28T12:15:14Z</time>
      </trkpt>
      <trkpt lat="46.49153" lon="5.65856">
        <ele>524.4</ele>
        <time>2022-02-28T12:15:15Z</time>
      </trkpt>
      <trkpt lat="46.49149" lon="5.65865">
        <ele>524</ele>
        <time>2022-02-28T12:15:16Z</time>
      </trkpt>
      <trkpt lat="46.49144" lon="5.65874">
        <ele>523.8</ele>
        <time>2022-02-28T12:15:17Z</time>
      </trkpt>
      <trkpt lat="46.49139" lon="5.65884">
        <ele>523.2</ele>
        <time>2022-02-28T12:15:18Z</time>
      </trkpt>
      <trkpt lat="46.49134" lon="5.65894">
        <ele>522.8</ele>
        <time>2022-02-28T12:15:19Z</time>
      </trkpt>
      <trkpt lat="46.49129" lon="5.65904">
        <ele>522.4</ele>
        <time>2022-02-28T12:15:20Z</time>
      </trkpt>
      <trkpt lat="46.49124" lon="5.65914">
        <ele>521.8</ele>
        <time>2022-02-28T12:15:21Z</time>
      </trkpt>
      <trkpt lat="46.49119" lon="5.65925">
        <ele>521.4</ele>
        <time>2022-02-28T12:15:22Z</time>
      </trkpt>
      <trkpt lat="46.49114" lon="5.65936">
        <ele>520.8</ele>
        <time>2022-02-28T12:15:23Z</time>
      </trkpt>
      <trkpt lat="46.49108" lon="5.65949">
        <ele>520.4</ele>
        <time>2022-02-28T12:15:24Z</time>
      </trkpt>
      <trkpt lat="46.49102" lon="5.65961">
        <ele>519.8</ele>
        <time>2022-02-28T12:15:25Z</time>
      </trkpt>
      <trkpt lat="46.49094" lon="5.65972">
        <ele>519.2</ele>
        <time>2022-02-28T12:15:26Z</time>
      </trkpt>
      <trkpt lat="46.49086" lon="5.65983">
        <ele>518.8</ele>
        <time>2022-02-28T12:15:27Z</time>
      </trkpt>
      <trkpt lat="46.49078" lon="5.65992">
        <ele>518.2</ele>
        <time>2022-02-28T12:15:28Z</time>
      </trkpt>
      <trkpt lat="46.49069" lon="5.65999">
        <ele>517.6</ele>
        <time>2022-02-28T12:15:29Z</time>
      </trkpt>
      <trkpt lat="46.49056" lon="5.66009">
        <ele>517.2</ele>
        <time>2022-02-28T12:15:30Z</time>
      </trkpt>
      <trkpt lat="46.49051" lon="5.66012">
        <ele>516.6</ele>
        <time>2022-02-28T12:15:31Z</time>
      </trkpt>
      <trkpt lat="46.49042" lon="5.6602">
        <ele>516</ele>
        <time>2022-02-28T12:15:32Z</time>
      </trkpt>
      <trkpt lat="46.49034" lon="5.66025">
        <ele>515.6</ele>
        <time>2022-02-28T12:15:33Z</time>
      </trkpt>
      <trkpt lat="46.49026" lon="5.66032">
        <ele>515.2</ele>
        <time>2022-02-28T12:15:34Z</time>
      </trkpt>
      <trkpt lat="46.49016" lon="5.6604">
        <ele>514.8</ele>
        <time>2022-02-28T12:15:35Z</time>
      </trkpt>
      <trkpt lat="46.49006" lon="5.66047">
        <ele>514.2</ele>
        <time>2022-02-28T12:15:36Z</time>
      </trkpt>
      <trkpt lat="46.48997" lon="5.66055">
        <ele>513.6</ele>
        <time>2022-02-28T12:15:37Z</time>
      </trkpt>
      <trkpt lat="46.48988" lon="5.66061">
        <ele>513.2</ele>
        <time>2022-02-28T12:15:38Z</time>
      </trkpt>
      <trkpt lat="46.4898" lon="5.66069">
        <ele>513</ele>
        <time>2022-02-28T12:15:39Z</time>
      </trkpt>
      <trkpt lat="46.48971" lon="5.66075">
        <ele>512.6</ele>
        <time>2022-02-28T12:15:40Z</time>
      </trkpt>
      <trkpt lat="46.48962" lon="5.66082">
        <ele>512.2</ele>
        <time>2022-02-28T12:15:41Z</time>
      </trkpt>
      <trkpt lat="46.48953" lon="5.66091">
        <ele>512</ele>
        <time>2022-02-28T12:15:42Z</time>
      </trkpt>
      <trkpt lat="46.48945" lon="5.66099">
        <ele>511.6</ele>
        <time>2022-02-28T12:15:43Z</time>
      </trkpt>
      <trkpt lat="46.48938" lon="5.66106">
        <ele>511.4</ele>
        <time>2022-02-28T12:15:44Z</time>
      </trkpt>
      <trkpt lat="46.48929" lon="5.66112">
        <ele>511.4</ele>
        <time>2022-02-28T12:15:45Z</time>
      </trkpt>
      <trkpt lat="46.4892" lon="5.66118">
        <ele>511.2</ele>
        <time>2022-02-28T12:15:46Z</time>
      </trkpt>
      <trkpt lat="46.48912" lon="5.66124">
        <ele>511</ele>
        <time>2022-02-28T12:15:47Z</time>
      </trkpt>
      <trkpt lat="46.48904" lon="5.66132">
        <ele>510.8</ele>
        <time>2022-02-28T12:15:48Z</time>
      </trkpt>
      <trkpt lat="46.48897" lon="5.66142">
        <ele>510.4</ele>
        <time>2022-02-28T12:15:49Z</time>
      </trkpt>
      <trkpt lat="46.48892" lon="5.66153">
        <ele>510.2</ele>
        <time>2022-02-28T12:15:50Z</time>
      </trkpt>
      <trkpt lat="46.48887" lon="5.66164">
        <ele>510</ele>
        <time>2022-02-28T12:15:51Z</time>
      </trkpt>
      <trkpt lat="46.48885" lon="5.66177">
        <ele>510</ele>
        <time>2022-02-28T12:15:52Z</time>
      </trkpt>
      <trkpt lat="46.48885" lon="5.6619">
        <ele>509.8</ele>
        <time>2022-02-28T12:15:53Z</time>
      </trkpt>
      <trkpt lat="46.48886" lon="5.66204">
        <ele>509.6</ele>
        <time>2022-02-28T12:15:54Z</time>
      </trkpt>
      <trkpt lat="46.48888" lon="5.66217">
        <ele>509.6</ele>
        <time>2022-02-28T12:15:55Z</time>
      </trkpt>
      <trkpt lat="46.48891" lon="5.6623">
        <ele>509.2</ele>
        <time>2022-02-28T12:15:56Z</time>
      </trkpt>
      <trkpt lat="46.48893" lon="5.66243">
        <ele>509</ele>
        <time>2022-02-28T12:15:57Z</time>
      </trkpt>
      <trkpt lat="46.48896" lon="5.66255">
        <ele>509</ele>
        <time>2022-02-28T12:15:58Z</time>
      </trkpt>
      <trkpt lat="46.48898" lon="5.66268">
        <ele>508.6</ele>
        <time>2022-02-28T12:15:59Z</time>
      </trkpt>
      <trkpt lat="46.48899" lon="5.6628">
        <ele>508.4</ele>
        <time>2022-02-28T12:16:00Z</time>
      </trkpt>
      <trkpt lat="46.48901" lon="5.66293">
        <ele>508.4</ele>
        <time>2022-02-28T12:16:01Z</time>
      </trkpt>
      <trkpt lat="46.48902" lon="5.66305">
        <ele>507.8</ele>
        <time>2022-02-28T12:16:02Z</time>
      </trkpt>
      <trkpt lat="46.48901" lon="5.66317">
        <ele>507.8</ele>
        <time>2022-02-28T12:16:03Z</time>
      </trkpt>
      <trkpt lat="46.48899" lon="5.66329">
        <ele>507.6</ele>
        <time>2022-02-28T12:16:04Z</time>
      </trkpt>
      <trkpt lat="46.48897" lon="5.6634">
        <ele>507.6</ele>
        <time>2022-02-28T12:16:05Z</time>
      </trkpt>
      <trkpt lat="46.48894" lon="5.66352">
        <ele>507.2</ele>
        <time>2022-02-28T12:16:06Z</time>
      </trkpt>
      <trkpt lat="46.48891" lon="5.66363">
        <ele>507.2</ele>
        <time>2022-02-28T12:16:07Z</time>
      </trkpt>
      <trkpt lat="46.48888" lon="5.66374">
        <ele>506.8</ele>
        <time>2022-02-28T12:16:08Z</time>
      </trkpt>
      <trkpt lat="46.48886" lon="5.66386">
        <ele>506.8</ele>
        <time>2022-02-28T12:16:09Z</time>
      </trkpt>
      <trkpt lat="46.48883" lon="5.66397">
        <ele>506.8</ele>
        <time>2022-02-28T12:16:10Z</time>
      </trkpt>
      <trkpt lat="46.48881" lon="5.66409">
        <ele>506.6</ele>
        <time>2022-02-28T12:16:11Z</time>
      </trkpt>
      <trkpt lat="46.48878" lon="5.6642">
        <ele>506.6</ele>
        <time>2022-02-28T12:16:12Z</time>
      </trkpt>
      <trkpt lat="46.48876" lon="5.66431">
        <ele>506.4</ele>
        <time>2022-02-28T12:16:13Z</time>
      </trkpt>
      <trkpt lat="46.48873" lon="5.66443">
        <ele>506.4</ele>
        <time>2022-02-28T12:16:14Z</time>
      </trkpt>
      <trkpt lat="46.48871" lon="5.66454">
        <ele>506</ele>
        <time>2022-02-28T12:16:15Z</time>
      </trkpt>
      <trkpt lat="46.48868" lon="5.66465">
        <ele>506</ele>
        <time>2022-02-28T12:16:16Z</time>
      </trkpt>
      <trkpt lat="46.48865" lon="5.66476">
        <ele>505.8</ele>
        <time>2022-02-28T12:16:17Z</time>
      </trkpt>
      <trkpt lat="46.48863" lon="5.66487">
        <ele>505.8</ele>
        <time>2022-02-28T12:16:18Z</time>
      </trkpt>
      <trkpt lat="46.48861" lon="5.66498">
        <ele>505.4</ele>
        <time>2022-02-28T12:16:19Z</time>
      </trkpt>
      <trkpt lat="46.48858" lon="5.66509">
        <ele>505.4</ele>
        <time>2022-02-28T12:16:20Z</time>
      </trkpt>
      <trkpt lat="46.48856" lon="5.6652">
        <ele>505.2</ele>
        <time>2022-02-28T12:16:21Z</time>
      </trkpt>
      <trkpt lat="46.48853" lon="5.66531">
        <ele>505</ele>
        <time>2022-02-28T12:16:22Z</time>
      </trkpt>
      <trkpt lat="46.48851" lon="5.66542">
        <ele>505</ele>
        <time>2022-02-28T12:16:23Z</time>
      </trkpt>
      <trkpt lat="46.48847" lon="5.66558">
        <ele>504.6</ele>
        <time>2022-02-28T12:16:24Z</time>
      </trkpt>
      <trkpt lat="46.48845" lon="5.66563">
        <ele>504.6</ele>
        <time>2022-02-28T12:16:25Z</time>
      </trkpt>
      <trkpt lat="46.48842" lon="5.66574">
        <ele>504.4</ele>
        <time>2022-02-28T12:16:26Z</time>
      </trkpt>
      <trkpt lat="46.48839" lon="5.66584">
        <ele>504.4</ele>
        <time>2022-02-28T12:16:27Z</time>
      </trkpt>
      <trkpt lat="46.48835" lon="5.66594">
        <ele>504.4</ele>
        <time>2022-02-28T12:16:28Z</time>
      </trkpt>
      <trkpt lat="46.48831" lon="5.66604">
        <ele>504.4</ele>
        <time>2022-02-28T12:16:29Z</time>
      </trkpt>
      <trkpt lat="46.48827" lon="5.66613">
        <ele>504.2</ele>
        <time>2022-02-28T12:16:30Z</time>
      </trkpt>
      <trkpt lat="46.48822" lon="5.66622">
        <ele>504.2</ele>
        <time>2022-02-28T12:16:31Z</time>
      </trkpt>
      <trkpt lat="46.48818" lon="5.6663">
        <ele>504.2</ele>
        <time>2022-02-28T12:16:32Z</time>
      </trkpt>
      <trkpt lat="46.48814" lon="5.66639">
        <ele>504.2</ele>
        <time>2022-02-28T12:16:33Z</time>
      </trkpt>
      <trkpt lat="46.48807" lon="5.66652">
        <ele>504.2</ele>
        <time>2022-02-28T12:16:34Z</time>
      </trkpt>
      <trkpt lat="46.48804" lon="5.66656">
        <ele>504.2</ele>
        <time>2022-02-28T12:16:35Z</time>
      </trkpt>
      <trkpt lat="46.488" lon="5.66665">
        <ele>504.2</ele>
        <time>2022-02-28T12:16:36Z</time>
      </trkpt>
      <trkpt lat="46.48795" lon="5.66674">
        <ele>504.2</ele>
        <time>2022-02-28T12:16:37Z</time>
      </trkpt>
      <trkpt lat="46.48791" lon="5.66682">
        <ele>504.2</ele>
        <time>2022-02-28T12:16:38Z</time>
      </trkpt>
      <trkpt lat="46.48787" lon="5.66691">
        <ele>504.2</ele>
        <time>2022-02-28T12:16:39Z</time>
      </trkpt>
      <trkpt lat="46.48783" lon="5.66699">
        <ele>504.2</ele>
        <time>2022-02-28T12:16:40Z</time>
      </trkpt>
      <trkpt lat="46.48779" lon="5.66708">
        <ele>504.2</ele>
        <time>2022-02-28T12:16:41Z</time>
      </trkpt>
      <trkpt lat="46.48775" lon="5.66716">
        <ele>504.2</ele>
        <time>2022-02-28T12:16:42Z</time>
      </trkpt>
      <trkpt lat="46.4877" lon="5.66725">
        <ele>504.2</ele>
        <time>2022-02-28T12:16:43Z</time>
      </trkpt>
      <trkpt lat="46.48766" lon="5.66733">
        <ele>504.2</ele>
        <time>2022-02-28T12:16:44Z</time>
      </trkpt>
      <trkpt lat="46.48762" lon="5.66741">
        <ele>504.2</ele>
        <time>2022-02-28T12:16:45Z</time>
      </trkpt>
      <trkpt lat="46.48758" lon="5.6675">
        <ele>504.2</ele>
        <time>2022-02-28T12:16:46Z</time>
      </trkpt>
      <trkpt lat="46.48754" lon="5.66758">
        <ele>504</ele>
        <time>2022-02-28T12:16:47Z</time>
      </trkpt>
      <trkpt lat="46.4875" lon="5.66766">
        <ele>504</ele>
        <time>2022-02-28T12:16:48Z</time>
      </trkpt>
      <trkpt lat="46.48746" lon="5.66774">
        <ele>504</ele>
        <time>2022-02-28T12:16:49Z</time>
      </trkpt>
      <trkpt lat="46.48742" lon="5.66782">
        <ele>504</ele>
        <time>2022-02-28T12:16:50Z</time>
      </trkpt>
      <trkpt lat="46.48738" lon="5.6679">
        <ele>504</ele>
        <time>2022-02-28T12:16:51Z</time>
      </trkpt>
      <trkpt lat="46.48734" lon="5.66798">
        <ele>504.2</ele>
        <time>2022-02-28T12:16:52Z</time>
      </trkpt>
      <trkpt lat="46.4873" lon="5.66806">
        <ele>504.2</ele>
        <time>2022-02-28T12:16:53Z</time>
      </trkpt>
      <trkpt lat="46.48726" lon="5.66813">
        <ele>504.2</ele>
        <time>2022-02-28T12:16:54Z</time>
      </trkpt>
      <trkpt lat="46.48723" lon="5.66821">
        <ele>504.2</ele>
        <time>2022-02-28T12:16:55Z</time>
      </trkpt>
      <trkpt lat="46.48719" lon="5.66829">
        <ele>504.2</ele>
        <time>2022-02-28T12:16:56Z</time>
      </trkpt>
      <trkpt lat="46.48715" lon="5.66836">
        <ele>504.2</ele>
        <time>2022-02-28T12:16:57Z</time>
      </trkpt>
      <trkpt lat="46.48711" lon="5.66844">
        <ele>504.2</ele>
        <time>2022-02-28T12:16:58Z</time>
      </trkpt>
      <trkpt lat="46.48707" lon="5.66852">
        <ele>504.2</ele>
        <time>2022-02-28T12:16:59Z</time>
      </trkpt>
      <trkpt lat="46.48704" lon="5.66859">
        <ele>504.2</ele>
        <time>2022-02-28T12:17:00Z</time>
      </trkpt>
      <trkpt lat="46.487" lon="5.66867">
        <ele>504.2</ele>
        <time>2022-02-28T12:17:01Z</time>
      </trkpt>
      <trkpt lat="46.48696" lon="5.66874">
        <ele>504.2</ele>
        <time>2022-02-28T12:17:02Z</time>
      </trkpt>
      <trkpt lat="46.4869" lon="5.66886">
        <ele>504.2</ele>
        <time>2022-02-28T12:17:03Z</time>
      </trkpt>
      <trkpt lat="46.48688" lon="5.6689">
        <ele>504.2</ele>
        <time>2022-02-28T12:17:04Z</time>
      </trkpt>
      <trkpt lat="46.48685" lon="5.66898">
        <ele>504.2</ele>
        <time>2022-02-28T12:17:05Z</time>
      </trkpt>
      <trkpt lat="46.48681" lon="5.66905">
        <ele>504.2</ele>
        <time>2022-02-28T12:17:06Z</time>
      </trkpt>
      <trkpt lat="46.48677" lon="5.66913">
        <ele>504.2</ele>
        <time>2022-02-28T12:17:07Z</time>
      </trkpt>
      <trkpt lat="46.48674" lon="5.66921">
        <ele>504.2</ele>
        <time>2022-02-28T12:17:08Z</time>
      </trkpt>
      <trkpt lat="46.4867" lon="5.66928">
        <ele>504</ele>
        <time>2022-02-28T12:17:09Z</time>
      </trkpt>
      <trkpt lat="46.48666" lon="5.66936">
        <ele>504</ele>
        <time>2022-02-28T12:17:10Z</time>
      </trkpt>
      <trkpt lat="46.48662" lon="5.66943">
        <ele>503.6</ele>
        <time>2022-02-28T12:17:11Z</time>
      </trkpt>
      <trkpt lat="46.48658" lon="5.66951">
        <ele>503.6</ele>
        <time>2022-02-28T12:17:12Z</time>
      </trkpt>
      <trkpt lat="46.48654" lon="5.66959">
        <ele>503.4</ele>
        <time>2022-02-28T12:17:13Z</time>
      </trkpt>
      <trkpt lat="46.48649" lon="5.66966">
        <ele>503.4</ele>
        <time>2022-02-28T12:17:14Z</time>
      </trkpt>
      <trkpt lat="46.48644" lon="5.66973">
        <ele>502.8</ele>
        <time>2022-02-28T12:17:15Z</time>
      </trkpt>
      <trkpt lat="46.48639" lon="5.66978">
        <ele>502.4</ele>
        <time>2022-02-28T12:17:16Z</time>
      </trkpt>
      <trkpt lat="46.48633" lon="5.66981">
        <ele>502.2</ele>
        <time>2022-02-28T12:17:17Z</time>
      </trkpt>
      <trkpt lat="46.48628" lon="5.66984">
        <ele>502.2</ele>
        <time>2022-02-28T12:17:18Z</time>
      </trkpt>
      <trkpt lat="46.48624" lon="5.66985">
        <ele>501.8</ele>
        <time>2022-02-28T12:17:19Z</time>
      </trkpt>
      <trkpt lat="46.4862" lon="5.66987">
        <ele>501.8</ele>
        <time>2022-02-28T12:17:20Z</time>
      </trkpt>
      <trkpt lat="46.48617" lon="5.66989">
        <ele>501.4</ele>
        <time>2022-02-28T12:17:21Z</time>
      </trkpt>
      <trkpt lat="46.48615" lon="5.66991">
        <ele>501.4</ele>
        <time>2022-02-28T12:17:22Z</time>
      </trkpt>
      <trkpt lat="46.48613" lon="5.66991">
        <ele>501</ele>
        <time>2022-02-28T12:17:23Z</time>
      </trkpt>
      <trkpt lat="46.4861" lon="5.66991">
        <ele>501</ele>
        <time>2022-02-28T12:17:24Z</time>
      </trkpt>
      <trkpt lat="46.48608" lon="5.6699">
        <ele>500.6</ele>
        <time>2022-02-28T12:17:25Z</time>
      </trkpt>
      <trkpt lat="46.48606" lon="5.6699">
        <ele>500.6</ele>
        <time>2022-02-28T12:17:26Z</time>
      </trkpt>
      <trkpt lat="46.48604" lon="5.6699">
        <ele>500.4</ele>
        <time>2022-02-28T12:17:27Z</time>
      </trkpt>
      <trkpt lat="46.48604" lon="5.6699">
        <ele>500</ele>
        <time>2022-02-28T12:17:28Z</time>
      </trkpt>
      <trkpt lat="46.48604" lon="5.66989">
        <ele>500</ele>
        <time>2022-02-28T12:17:29Z</time>
      </trkpt>
      <trkpt lat="46.48604" lon="5.66989">
        <ele>500</ele>
        <time>2022-02-28T12:17:30Z</time>
      </trkpt>
      <trkpt lat="46.48604" lon="5.66989">
        <ele>500</ele>
        <time>2022-02-28T12:17:31Z</time>
      </trkpt>
      <trkpt lat="46.48604" lon="5.66989">
        <ele>500</ele>
        <time>2022-02-28T12:17:32Z</time>
      </trkpt>
      <trkpt lat="46.48604" lon="5.66989">
        <ele>500</ele>
        <time>2022-02-28T12:17:33Z</time>
      </trkpt>
      <trkpt lat="46.48604" lon="5.66989">
        <ele>499.8</ele>
        <time>2022-02-28T12:17:34Z</time>
      </trkpt>
      <trkpt lat="46.48604" lon="5.66989">
        <ele>499.8</ele>
        <time>2022-02-28T12:17:35Z</time>
      </trkpt>
      <trkpt lat="46.48604" lon="5.66989">
        <ele>499.8</ele>
        <time>2022-02-28T12:17:36Z</time>
      </trkpt>
      <trkpt lat="46.48604" lon="5.66989">
        <ele>499.8</ele>
        <time>2022-02-28T12:17:37Z</time>
      </trkpt>
      <trkpt lat="46.48604" lon="5.66989">
        <ele>499.8</ele>
        <time>2022-02-28T12:18:10Z</time>
      </trkpt>
      <trkpt lat="46.48601" lon="5.66986">
        <ele>499.8</ele>
        <time>2022-02-28T12:18:11Z</time>
      </trkpt>
      <trkpt lat="46.48599" lon="5.66985">
        <ele>499.8</ele>
        <time>2022-02-28T12:18:12Z</time>
      </trkpt>
      <trkpt lat="46.48596" lon="5.66983">
        <ele>499.6</ele>
        <time>2022-02-28T12:18:13Z</time>
      </trkpt>
      <trkpt lat="46.48593" lon="5.66981">
        <ele>499.6</ele>
        <time>2022-02-28T12:18:14Z</time>
      </trkpt>
      <trkpt lat="46.4859" lon="5.66979">
        <ele>499.4</ele>
        <time>2022-02-28T12:18:15Z</time>
      </trkpt>
      <trkpt lat="46.4859" lon="5.66979">
        <ele>499.4</ele>
        <time>2022-02-28T12:18:16Z</time>
      </trkpt>
      <trkpt lat="46.48586" lon="5.66977">
        <ele>499</ele>
        <time>2022-02-28T12:18:17Z</time>
      </trkpt>
      <trkpt lat="46.48581" lon="5.66975">
        <ele>498.6</ele>
        <time>2022-02-28T12:18:18Z</time>
      </trkpt>
      <trkpt lat="46.48576" lon="5.66974">
        <ele>498.4</ele>
        <time>2022-02-28T12:18:19Z</time>
      </trkpt>
      <trkpt lat="46.48571" lon="5.66972">
        <ele>498.2</ele>
        <time>2022-02-28T12:18:20Z</time>
      </trkpt>
      <trkpt lat="46.48565" lon="5.6697">
        <ele>497.8</ele>
        <time>2022-02-28T12:18:21Z</time>
      </trkpt>
      <trkpt lat="46.48558" lon="5.66968">
        <ele>497.4</ele>
        <time>2022-02-28T12:18:22Z</time>
      </trkpt>
      <trkpt lat="46.48552" lon="5.66966">
        <ele>497.2</ele>
        <time>2022-02-28T12:18:23Z</time>
      </trkpt>
      <trkpt lat="46.48545" lon="5.66964">
        <ele>496.8</ele>
        <time>2022-02-28T12:18:24Z</time>
      </trkpt>
      <trkpt lat="46.48537" lon="5.66962">
        <ele>496.2</ele>
        <time>2022-02-28T12:18:25Z</time>
      </trkpt>
      <trkpt lat="46.48529" lon="5.66959">
        <ele>495.8</ele>
        <time>2022-02-28T12:18:26Z</time>
      </trkpt>
      <trkpt lat="46.48521" lon="5.66956">
        <ele>495.4</ele>
        <time>2022-02-28T12:18:27Z</time>
      </trkpt>
      <trkpt lat="46.48513" lon="5.66953">
        <ele>494.8</ele>
        <time>2022-02-28T12:18:28Z</time>
      </trkpt>
      <trkpt lat="46.48504" lon="5.6695">
        <ele>494.2</ele>
        <time>2022-02-28T12:18:29Z</time>
      </trkpt>
      <trkpt lat="46.48495" lon="5.66948">
        <ele>493.8</ele>
        <time>2022-02-28T12:18:30Z</time>
      </trkpt>
      <trkpt lat="46.48485" lon="5.66945">
        <ele>493.2</ele>
        <time>2022-02-28T12:18:31Z</time>
      </trkpt>
      <trkpt lat="46.48475" lon="5.66942">
        <ele>492.6</ele>
        <time>2022-02-28T12:18:32Z</time>
      </trkpt>
      <trkpt lat="46.48464" lon="5.66938">
        <ele>492</ele>
        <time>2022-02-28T12:18:33Z</time>
      </trkpt>
      <trkpt lat="46.48454" lon="5.66935">
        <ele>491.4</ele>
        <time>2022-02-28T12:18:34Z</time>
      </trkpt>
      <trkpt lat="46.48443" lon="5.66932">
        <ele>490.8</ele>
        <time>2022-02-28T12:18:35Z</time>
      </trkpt>
      <trkpt lat="46.48432" lon="5.66929">
        <ele>490</ele>
        <time>2022-02-28T12:18:36Z</time>
      </trkpt>
      <trkpt lat="46.48421" lon="5.66926">
        <ele>489.4</ele>
        <time>2022-02-28T12:18:37Z</time>
      </trkpt>
      <trkpt lat="46.4841" lon="5.66922">
        <ele>489.4</ele>
        <time>2022-02-28T12:18:38Z</time>
      </trkpt>
      <trkpt lat="46.48399" lon="5.66918">
        <ele>488.6</ele>
        <time>2022-02-28T12:18:39Z</time>
      </trkpt>
      <trkpt lat="46.48388" lon="5.66913">
        <ele>487.8</ele>
        <time>2022-02-28T12:18:40Z</time>
      </trkpt>
      <trkpt lat="46.48378" lon="5.66908">
        <ele>487.2</ele>
        <time>2022-02-28T12:18:41Z</time>
      </trkpt>
      <trkpt lat="46.48367" lon="5.66902">
        <ele>486.6</ele>
        <time>2022-02-28T12:18:42Z</time>
      </trkpt>
      <trkpt lat="46.48357" lon="5.66895">
        <ele>486</ele>
        <time>2022-02-28T12:18:43Z</time>
      </trkpt>
      <trkpt lat="46.48345" lon="5.66891">
        <ele>485.4</ele>
        <time>2022-02-28T12:18:44Z</time>
      </trkpt>
      <trkpt lat="46.48335" lon="5.66887">
        <ele>485</ele>
        <time>2022-02-28T12:18:45Z</time>
      </trkpt>
      <trkpt lat="46.48324" lon="5.66883">
        <ele>485</ele>
        <time>2022-02-28T12:18:46Z</time>
      </trkpt>
      <trkpt lat="46.48315" lon="5.66878">
        <ele>484.8</ele>
        <time>2022-02-28T12:18:47Z</time>
      </trkpt>
      <trkpt lat="46.48306" lon="5.66872">
        <ele>484.8</ele>
        <time>2022-02-28T12:18:48Z</time>
      </trkpt>
      <trkpt lat="46.48298" lon="5.66864">
        <ele>484.8</ele>
        <time>2022-02-28T12:18:49Z</time>
      </trkpt>
      <trkpt lat="46.48292" lon="5.66855">
        <ele>484.8</ele>
        <time>2022-02-28T12:18:50Z</time>
      </trkpt>
      <trkpt lat="46.48287" lon="5.66846">
        <ele>485</ele>
        <time>2022-02-28T12:18:51Z</time>
      </trkpt>
      <trkpt lat="46.48282" lon="5.66838">
        <ele>485.2</ele>
        <time>2022-02-28T12:18:52Z</time>
      </trkpt>
      <trkpt lat="46.48277" lon="5.66831">
        <ele>485.4</ele>
        <time>2022-02-28T12:18:53Z</time>
      </trkpt>
      <trkpt lat="46.48274" lon="5.66823">
        <ele>485.8</ele>
        <time>2022-02-28T12:18:54Z</time>
      </trkpt>
      <trkpt lat="46.4827" lon="5.66815">
        <ele>486</ele>
        <time>2022-02-28T12:18:55Z</time>
      </trkpt>
      <trkpt lat="46.48268" lon="5.66806">
        <ele>486.4</ele>
        <time>2022-02-28T12:18:56Z</time>
      </trkpt>
      <trkpt lat="46.48266" lon="5.66798">
        <ele>486.8</ele>
        <time>2022-02-28T12:18:57Z</time>
      </trkpt>
      <trkpt lat="46.48264" lon="5.6679">
        <ele>487.2</ele>
        <time>2022-02-28T12:18:58Z</time>
      </trkpt>
      <trkpt lat="46.48263" lon="5.66783">
        <ele>487.6</ele>
        <time>2022-02-28T12:18:59Z</time>
      </trkpt>
      <trkpt lat="46.48262" lon="5.66775">
        <ele>488</ele>
        <time>2022-02-28T12:19:00Z</time>
      </trkpt>
      <trkpt lat="46.48262" lon="5.66768">
        <ele>488.2</ele>
        <time>2022-02-28T12:19:01Z</time>
      </trkpt>
      <trkpt lat="46.4826" lon="5.6676">
        <ele>488.4</ele>
        <time>2022-02-28T12:19:02Z</time>
      </trkpt>
      <trkpt lat="46.48259" lon="5.66753">
        <ele>488.8</ele>
        <time>2022-02-28T12:19:03Z</time>
      </trkpt>
      <trkpt lat="46.48257" lon="5.66746">
        <ele>489</ele>
        <time>2022-02-28T12:19:04Z</time>
      </trkpt>
      <trkpt lat="46.48254" lon="5.66741">
        <ele>489.4</ele>
        <time>2022-02-28T12:19:05Z</time>
      </trkpt>
      <trkpt lat="46.48252" lon="5.66735">
        <ele>489.8</ele>
        <time>2022-02-28T12:19:06Z</time>
      </trkpt>
      <trkpt lat="46.48249" lon="5.6673">
        <ele>490.2</ele>
        <time>2022-02-28T12:19:07Z</time>
      </trkpt>
      <trkpt lat="46.48246" lon="5.66726">
        <ele>490.4</ele>
        <time>2022-02-28T12:19:08Z</time>
      </trkpt>
      <trkpt lat="46.48243" lon="5.66722">
        <ele>490.6</ele>
        <time>2022-02-28T12:19:09Z</time>
      </trkpt>
      <trkpt lat="46.48239" lon="5.66718">
        <ele>491</ele>
        <time>2022-02-28T12:19:10Z</time>
      </trkpt>
      <trkpt lat="46.48235" lon="5.66715">
        <ele>491.2</ele>
        <time>2022-02-28T12:19:11Z</time>
      </trkpt>
      <trkpt lat="46.48231" lon="5.66711">
        <ele>491.4</ele>
        <time>2022-02-28T12:19:12Z</time>
      </trkpt>
      <trkpt lat="46.48228" lon="5.66708">
        <ele>491.8</ele>
        <time>2022-02-28T12:19:13Z</time>
      </trkpt>
      <trkpt lat="46.48224" lon="5.66705">
        <ele>492</ele>
        <time>2022-02-28T12:19:14Z</time>
      </trkpt>
      <trkpt lat="46.4822" lon="5.66703">
        <ele>492.2</ele>
        <time>2022-02-28T12:19:15Z</time>
      </trkpt>
      <trkpt lat="46.48216" lon="5.667">
        <ele>492.8</ele>
        <time>2022-02-28T12:19:16Z</time>
      </trkpt>
      <trkpt lat="46.48212" lon="5.66698">
        <ele>493</ele>
        <time>2022-02-28T12:19:17Z</time>
      </trkpt>
      <trkpt lat="46.48208" lon="5.66696">
        <ele>493.4</ele>
        <time>2022-02-28T12:19:18Z</time>
      </trkpt>
      <trkpt lat="46.48204" lon="5.66694">
        <ele>493.6</ele>
        <time>2022-02-28T12:19:19Z</time>
      </trkpt>
      <trkpt lat="46.48201" lon="5.66692">
        <ele>493.8</ele>
        <time>2022-02-28T12:19:20Z</time>
      </trkpt>
      <trkpt lat="46.48198" lon="5.66689">
        <ele>494</ele>
        <time>2022-02-28T12:19:21Z</time>
      </trkpt>
      <trkpt lat="46.48195" lon="5.66686">
        <ele>494.4</ele>
        <time>2022-02-28T12:19:22Z</time>
      </trkpt>
      <trkpt lat="46.48191" lon="5.66684">
        <ele>494.6</ele>
        <time>2022-02-28T12:19:23Z</time>
      </trkpt>
      <trkpt lat="46.48188" lon="5.66681">
        <ele>494.8</ele>
        <time>2022-02-28T12:19:24Z</time>
      </trkpt>
      <trkpt lat="46.48185" lon="5.66679">
        <ele>495</ele>
        <time>2022-02-28T12:19:25Z</time>
      </trkpt>
      <trkpt lat="46.48182" lon="5.66676">
        <ele>495</ele>
        <time>2022-02-28T12:19:26Z</time>
      </trkpt>
      <trkpt lat="46.4818" lon="5.66673">
        <ele>495.4</ele>
        <time>2022-02-28T12:19:27Z</time>
      </trkpt>
      <trkpt lat="46.48177" lon="5.6667">
        <ele>495.4</ele>
        <time>2022-02-28T12:19:28Z</time>
      </trkpt>
      <trkpt lat="46.48174" lon="5.66667">
        <ele>495.6</ele>
        <time>2022-02-28T12:19:29Z</time>
      </trkpt>
      <trkpt lat="46.48171" lon="5.66664">
        <ele>495.6</ele>
        <time>2022-02-28T12:19:30Z</time>
      </trkpt>
      <trkpt lat="46.48169" lon="5.6666">
        <ele>496</ele>
        <time>2022-02-28T12:19:31Z</time>
      </trkpt>
      <trkpt lat="46.48167" lon="5.66656">
        <ele>496</ele>
        <time>2022-02-28T12:19:32Z</time>
      </trkpt>
      <trkpt lat="46.48165" lon="5.66651">
        <ele>496.4</ele>
        <time>2022-02-28T12:19:33Z</time>
      </trkpt>
      <trkpt lat="46.48164" lon="5.66646">
        <ele>496.4</ele>
        <time>2022-02-28T12:19:34Z</time>
      </trkpt>
      <trkpt lat="46.48164" lon="5.66641">
        <ele>496.8</ele>
        <time>2022-02-28T12:19:35Z</time>
      </trkpt>
      <trkpt lat="46.48165" lon="5.66636">
        <ele>497</ele>
        <time>2022-02-28T12:19:36Z</time>
      </trkpt>
      <trkpt lat="46.48166" lon="5.66632">
        <ele>497.2</ele>
        <time>2022-02-28T12:19:37Z</time>
      </trkpt>
      <trkpt lat="46.48168" lon="5.66627">
        <ele>497.2</ele>
        <time>2022-02-28T12:19:38Z</time>
      </trkpt>
      <trkpt lat="46.48171" lon="5.6662">
        <ele>497.6</ele>
        <time>2022-02-28T12:19:39Z</time>
      </trkpt>
      <trkpt lat="46.48172" lon="5.66618">
        <ele>497.6</ele>
        <time>2022-02-28T12:19:40Z</time>
      </trkpt>
      <trkpt lat="46.48174" lon="5.66614">
        <ele>498</ele>
        <time>2022-02-28T12:19:41Z</time>
      </trkpt>
      <trkpt lat="46.48175" lon="5.66609">
        <ele>498</ele>
        <time>2022-02-28T12:19:42Z</time>
      </trkpt>
      <trkpt lat="46.48177" lon="5.66604">
        <ele>498.4</ele>
        <time>2022-02-28T12:19:43Z</time>
      </trkpt>
      <trkpt lat="46.48179" lon="5.666">
        <ele>498.6</ele>
        <time>2022-02-28T12:19:44Z</time>
      </trkpt>
      <trkpt lat="46.48182" lon="5.66594">
        <ele>498.6</ele>
        <time>2022-02-28T12:19:45Z</time>
      </trkpt>
      <trkpt lat="46.48183" lon="5.66592">
        <ele>499</ele>
        <time>2022-02-28T12:19:46Z</time>
      </trkpt>
      <trkpt lat="46.48185" lon="5.66588">
        <ele>499.2</ele>
        <time>2022-02-28T12:19:47Z</time>
      </trkpt>
      <trkpt lat="46.48187" lon="5.66584">
        <ele>499.4</ele>
        <time>2022-02-28T12:19:48Z</time>
      </trkpt>
      <trkpt lat="46.4819" lon="5.66579">
        <ele>499.6</ele>
        <time>2022-02-28T12:19:49Z</time>
      </trkpt>
      <trkpt lat="46.48191" lon="5.66577">
        <ele>499.8</ele>
        <time>2022-02-28T12:19:50Z</time>
      </trkpt>
      <trkpt lat="46.48193" lon="5.66574">
        <ele>499.8</ele>
        <time>2022-02-28T12:19:51Z</time>
      </trkpt>
      <trkpt lat="46.48195" lon="5.6657">
        <ele>500.2</ele>
        <time>2022-02-28T12:19:52Z</time>
      </trkpt>
      <trkpt lat="46.48198" lon="5.66567">
        <ele>500.4</ele>
        <time>2022-02-28T12:19:53Z</time>
      </trkpt>
      <trkpt lat="46.482" lon="5.66563">
        <ele>500.4</ele>
        <time>2022-02-28T12:19:54Z</time>
      </trkpt>
      <trkpt lat="46.48202" lon="5.6656">
        <ele>500.8</ele>
        <time>2022-02-28T12:19:55Z</time>
      </trkpt>
      <trkpt lat="46.48204" lon="5.66556">
        <ele>500.8</ele>
        <time>2022-02-28T12:19:56Z</time>
      </trkpt>
      <trkpt lat="46.48205" lon="5.66553">
        <ele>501</ele>
        <time>2022-02-28T12:19:57Z</time>
      </trkpt>
      <trkpt lat="46.48207" lon="5.66549">
        <ele>501</ele>
        <time>2022-02-28T12:19:58Z</time>
      </trkpt>
      <trkpt lat="46.48209" lon="5.66545">
        <ele>501.4</ele>
        <time>2022-02-28T12:19:59Z</time>
      </trkpt>
      <trkpt lat="46.4821" lon="5.66541">
        <ele>501.4</ele>
        <time>2022-02-28T12:20:00Z</time>
      </trkpt>
      <trkpt lat="46.48212" lon="5.66537">
        <ele>501.6</ele>
        <time>2022-02-28T12:20:01Z</time>
      </trkpt>
      <trkpt lat="46.48213" lon="5.66533">
        <ele>501.6</ele>
        <time>2022-02-28T12:20:02Z</time>
      </trkpt>
      <trkpt lat="46.48213" lon="5.66528">
        <ele>502</ele>
        <time>2022-02-28T12:20:03Z</time>
      </trkpt>
      <trkpt lat="46.48213" lon="5.66524">
        <ele>502</ele>
        <time>2022-02-28T12:20:04Z</time>
      </trkpt>
      <trkpt lat="46.48212" lon="5.6652">
        <ele>502.4</ele>
        <time>2022-02-28T12:20:05Z</time>
      </trkpt>
      <trkpt lat="46.48211" lon="5.66516">
        <ele>502.6</ele>
        <time>2022-02-28T12:20:06Z</time>
      </trkpt>
      <trkpt lat="46.4821" lon="5.66512">
        <ele>502.6</ele>
        <time>2022-02-28T12:20:07Z</time>
      </trkpt>
      <trkpt lat="46.48208" lon="5.66506">
        <ele>503</ele>
        <time>2022-02-28T12:20:08Z</time>
      </trkpt>
      <trkpt lat="46.48207" lon="5.66505">
        <ele>503</ele>
        <time>2022-02-28T12:20:09Z</time>
      </trkpt>
      <trkpt lat="46.48205" lon="5.66502">
        <ele>503.2</ele>
        <time>2022-02-28T12:20:10Z</time>
      </trkpt>
      <trkpt lat="46.48202" lon="5.66498">
        <ele>503.2</ele>
        <time>2022-02-28T12:20:11Z</time>
      </trkpt>
      <trkpt lat="46.48201" lon="5.66497">
        <ele>503.6</ele>
        <time>2022-02-28T12:20:12Z</time>
      </trkpt>
      <trkpt lat="46.48199" lon="5.66494">
        <ele>503.6</ele>
        <time>2022-02-28T12:20:13Z</time>
      </trkpt>
      <trkpt lat="46.48196" lon="5.66492">
        <ele>503.8</ele>
        <time>2022-02-28T12:20:14Z</time>
      </trkpt>
      <trkpt lat="46.48193" lon="5.66489">
        <ele>503.8</ele>
        <time>2022-02-28T12:20:15Z</time>
      </trkpt>
      <trkpt lat="46.48191" lon="5.66486">
        <ele>504.2</ele>
        <time>2022-02-28T12:20:16Z</time>
      </trkpt>
      <trkpt lat="46.48188" lon="5.66483">
        <ele>504.2</ele>
        <time>2022-02-28T12:20:17Z</time>
      </trkpt>
      <trkpt lat="46.48185" lon="5.66481">
        <ele>504.4</ele>
        <time>2022-02-28T12:20:18Z</time>
      </trkpt>
      <trkpt lat="46.48182" lon="5.66479">
        <ele>504.8</ele>
        <time>2022-02-28T12:20:19Z</time>
      </trkpt>
      <trkpt lat="46.4818" lon="5.66477">
        <ele>504.8</ele>
        <time>2022-02-28T12:20:20Z</time>
      </trkpt>
      <trkpt lat="46.48177" lon="5.66474">
        <ele>505</ele>
        <time>2022-02-28T12:20:21Z</time>
      </trkpt>
      <trkpt lat="46.48175" lon="5.66472">
        <ele>505</ele>
        <time>2022-02-28T12:20:22Z</time>
      </trkpt>
      <trkpt lat="46.48172" lon="5.6647">
        <ele>505.4</ele>
        <time>2022-02-28T12:20:23Z</time>
      </trkpt>
      <trkpt lat="46.48169" lon="5.66468">
        <ele>505.4</ele>
        <time>2022-02-28T12:20:24Z</time>
      </trkpt>
      <trkpt lat="46.48164" lon="5.66465">
        <ele>505.6</ele>
        <time>2022-02-28T12:20:25Z</time>
      </trkpt>
      <trkpt lat="46.48163" lon="5.66464">
        <ele>506</ele>
        <time>2022-02-28T12:20:26Z</time>
      </trkpt>
      <trkpt lat="46.48159" lon="5.66463">
        <ele>506</ele>
        <time>2022-02-28T12:20:27Z</time>
      </trkpt>
      <trkpt lat="46.48156" lon="5.66464">
        <ele>506.2</ele>
        <time>2022-02-28T12:20:28Z</time>
      </trkpt>
      <trkpt lat="46.48153" lon="5.66465">
        <ele>506.2</ele>
        <time>2022-02-28T12:20:29Z</time>
      </trkpt>
      <trkpt lat="46.4815" lon="5.66465">
        <ele>506.4</ele>
        <time>2022-02-28T12:20:30Z</time>
      </trkpt>
      <trkpt lat="46.48147" lon="5.66467">
        <ele>506.4</ele>
        <time>2022-02-28T12:20:31Z</time>
      </trkpt>
      <trkpt lat="46.48144" lon="5.66468">
        <ele>506.8</ele>
        <time>2022-02-28T12:20:32Z</time>
      </trkpt>
      <trkpt lat="46.48142" lon="5.66469">
        <ele>506.8</ele>
        <time>2022-02-28T12:20:33Z</time>
      </trkpt>
      <trkpt lat="46.48139" lon="5.6647">
        <ele>507.2</ele>
        <time>2022-02-28T12:20:34Z</time>
      </trkpt>
      <trkpt lat="46.48137" lon="5.66471">
        <ele>507.2</ele>
        <time>2022-02-28T12:20:35Z</time>
      </trkpt>
      <trkpt lat="46.48134" lon="5.66473">
        <ele>507.4</ele>
        <time>2022-02-28T12:20:36Z</time>
      </trkpt>
      <trkpt lat="46.48132" lon="5.66474">
        <ele>507.4</ele>
        <time>2022-02-28T12:20:37Z</time>
      </trkpt>
      <trkpt lat="46.4813" lon="5.66475">
        <ele>507.8</ele>
        <time>2022-02-28T12:20:38Z</time>
      </trkpt>
      <trkpt lat="46.48127" lon="5.66477">
        <ele>507.8</ele>
        <time>2022-02-28T12:20:39Z</time>
      </trkpt>
      <trkpt lat="46.48124" lon="5.66478">
        <ele>508.2</ele>
        <time>2022-02-28T12:20:40Z</time>
      </trkpt>
      <trkpt lat="46.48121" lon="5.66479">
        <ele>508.2</ele>
        <time>2022-02-28T12:20:41Z</time>
      </trkpt>
      <trkpt lat="46.48118" lon="5.66479">
        <ele>508.6</ele>
        <time>2022-02-28T12:20:42Z</time>
      </trkpt>
      <trkpt lat="46.48115" lon="5.6648">
        <ele>508.6</ele>
        <time>2022-02-28T12:20:43Z</time>
      </trkpt>
      <trkpt lat="46.48112" lon="5.6648">
        <ele>509</ele>
        <time>2022-02-28T12:20:44Z</time>
      </trkpt>
      <trkpt lat="46.48109" lon="5.66481">
        <ele>509.2</ele>
        <time>2022-02-28T12:20:45Z</time>
      </trkpt>
      <trkpt lat="46.48106" lon="5.66481">
        <ele>509.4</ele>
        <time>2022-02-28T12:20:46Z</time>
      </trkpt>
      <trkpt lat="46.48102" lon="5.66482">
        <ele>509.4</ele>
        <time>2022-02-28T12:20:47Z</time>
      </trkpt>
      <trkpt lat="46.48099" lon="5.66482">
        <ele>509.8</ele>
        <time>2022-02-28T12:20:48Z</time>
      </trkpt>
      <trkpt lat="46.48094" lon="5.66482">
        <ele>510</ele>
        <time>2022-02-28T12:20:49Z</time>
      </trkpt>
      <trkpt lat="46.48093" lon="5.66482">
        <ele>510</ele>
        <time>2022-02-28T12:20:50Z</time>
      </trkpt>
      <trkpt lat="46.48089" lon="5.66482">
        <ele>510.2</ele>
        <time>2022-02-28T12:20:51Z</time>
      </trkpt>
      <trkpt lat="46.48086" lon="5.66481">
        <ele>510.2</ele>
        <time>2022-02-28T12:20:52Z</time>
      </trkpt>
      <trkpt lat="46.48081" lon="5.6648">
        <ele>510.6</ele>
        <time>2022-02-28T12:20:53Z</time>
      </trkpt>
      <trkpt lat="46.48079" lon="5.6648">
        <ele>510.6</ele>
        <time>2022-02-28T12:20:54Z</time>
      </trkpt>
      <trkpt lat="46.48074" lon="5.66479">
        <ele>511</ele>
        <time>2022-02-28T12:20:55Z</time>
      </trkpt>
      <trkpt lat="46.48072" lon="5.66479">
        <ele>511</ele>
        <time>2022-02-28T12:20:56Z</time>
      </trkpt>
      <trkpt lat="46.48068" lon="5.66479">
        <ele>511.4</ele>
        <time>2022-02-28T12:20:57Z</time>
      </trkpt>
      <trkpt lat="46.48063" lon="5.66479">
        <ele>511.4</ele>
        <time>2022-02-28T12:20:58Z</time>
      </trkpt>
      <trkpt lat="46.48062" lon="5.66479">
        <ele>511.6</ele>
        <time>2022-02-28T12:20:59Z</time>
      </trkpt>
      <trkpt lat="46.48058" lon="5.66479">
        <ele>511.6</ele>
        <time>2022-02-28T12:21:00Z</time>
      </trkpt>
      <trkpt lat="46.48055" lon="5.66479">
        <ele>512</ele>
        <time>2022-02-28T12:21:01Z</time>
      </trkpt>
      <trkpt lat="46.48052" lon="5.66479">
        <ele>512.2</ele>
        <time>2022-02-28T12:21:02Z</time>
      </trkpt>
      <trkpt lat="46.48049" lon="5.66479">
        <ele>512.4</ele>
        <time>2022-02-28T12:21:03Z</time>
      </trkpt>
      <trkpt lat="46.48045" lon="5.66479">
        <ele>512.6</ele>
        <time>2022-02-28T12:21:04Z</time>
      </trkpt>
      <trkpt lat="46.48042" lon="5.66479">
        <ele>512.8</ele>
        <time>2022-02-28T12:21:05Z</time>
      </trkpt>
      <trkpt lat="46.48039" lon="5.6648">
        <ele>513</ele>
        <time>2022-02-28T12:21:06Z</time>
      </trkpt>
      <trkpt lat="46.48035" lon="5.6648">
        <ele>513</ele>
        <time>2022-02-28T12:21:07Z</time>
      </trkpt>
      <trkpt lat="46.48032" lon="5.66481">
        <ele>513.4</ele>
        <time>2022-02-28T12:21:08Z</time>
      </trkpt>
      <trkpt lat="46.48029" lon="5.66482">
        <ele>513.6</ele>
        <time>2022-02-28T12:21:09Z</time>
      </trkpt>
      <trkpt lat="46.48026" lon="5.66483">
        <ele>513.8</ele>
        <time>2022-02-28T12:21:10Z</time>
      </trkpt>
      <trkpt lat="46.48023" lon="5.66483">
        <ele>513.8</ele>
        <time>2022-02-28T12:21:11Z</time>
      </trkpt>
      <trkpt lat="46.4802" lon="5.66483">
        <ele>514.2</ele>
        <time>2022-02-28T12:21:12Z</time>
      </trkpt>
      <trkpt lat="46.48017" lon="5.66484">
        <ele>514.4</ele>
        <time>2022-02-28T12:21:13Z</time>
      </trkpt>
      <trkpt lat="46.48014" lon="5.66484">
        <ele>514.6</ele>
        <time>2022-02-28T12:21:14Z</time>
      </trkpt>
      <trkpt lat="46.48011" lon="5.66485">
        <ele>514.6</ele>
        <time>2022-02-28T12:21:15Z</time>
      </trkpt>
      <trkpt lat="46.48007" lon="5.66486">
        <ele>515</ele>
        <time>2022-02-28T12:21:16Z</time>
      </trkpt>
      <trkpt lat="46.48004" lon="5.66486">
        <ele>515</ele>
        <time>2022-02-28T12:21:17Z</time>
      </trkpt>
      <trkpt lat="46.48001" lon="5.66486">
        <ele>515.2</ele>
        <time>2022-02-28T12:21:18Z</time>
      </trkpt>
      <trkpt lat="46.47998" lon="5.66487">
        <ele>515.2</ele>
        <time>2022-02-28T12:21:19Z</time>
      </trkpt>
      <trkpt lat="46.47994" lon="5.66487">
        <ele>515.6</ele>
        <time>2022-02-28T12:21:20Z</time>
      </trkpt>
      <trkpt lat="46.47991" lon="5.66487">
        <ele>515.8</ele>
        <time>2022-02-28T12:21:21Z</time>
      </trkpt>
      <trkpt lat="46.47987" lon="5.66487">
        <ele>515.8</ele>
        <time>2022-02-28T12:21:22Z</time>
      </trkpt>
      <trkpt lat="46.47984" lon="5.66487">
        <ele>516.2</ele>
        <time>2022-02-28T12:21:23Z</time>
      </trkpt>
      <trkpt lat="46.47981" lon="5.66488">
        <ele>516.4</ele>
        <time>2022-02-28T12:21:24Z</time>
      </trkpt>
      <trkpt lat="46.47978" lon="5.66488">
        <ele>516.6</ele>
        <time>2022-02-28T12:21:25Z</time>
      </trkpt>
      <trkpt lat="46.47975" lon="5.66489">
        <ele>516.6</ele>
        <time>2022-02-28T12:21:26Z</time>
      </trkpt>
      <trkpt lat="46.47972" lon="5.66489">
        <ele>517</ele>
        <time>2022-02-28T12:21:27Z</time>
      </trkpt>
      <trkpt lat="46.47968" lon="5.6649">
        <ele>517</ele>
        <time>2022-02-28T12:21:28Z</time>
      </trkpt>
      <trkpt lat="46.47965" lon="5.66491">
        <ele>517.4</ele>
        <time>2022-02-28T12:21:29Z</time>
      </trkpt>
      <trkpt lat="46.47961" lon="5.66492">
        <ele>517.4</ele>
        <time>2022-02-28T12:21:30Z</time>
      </trkpt>
      <trkpt lat="46.47958" lon="5.66493">
        <ele>517.8</ele>
        <time>2022-02-28T12:21:31Z</time>
      </trkpt>
      <trkpt lat="46.47954" lon="5.66494">
        <ele>517.8</ele>
        <time>2022-02-28T12:21:32Z</time>
      </trkpt>
      <trkpt lat="46.47951" lon="5.66495">
        <ele>518.2</ele>
        <time>2022-02-28T12:21:33Z</time>
      </trkpt>
      <trkpt lat="46.47948" lon="5.66496">
        <ele>518.2</ele>
        <time>2022-02-28T12:21:34Z</time>
      </trkpt>
      <trkpt lat="46.47944" lon="5.66497">
        <ele>518.6</ele>
        <time>2022-02-28T12:21:35Z</time>
      </trkpt>
      <trkpt lat="46.47941" lon="5.66498">
        <ele>518.6</ele>
        <time>2022-02-28T12:21:36Z</time>
      </trkpt>
      <trkpt lat="46.47937" lon="5.66499">
        <ele>519</ele>
        <time>2022-02-28T12:21:37Z</time>
      </trkpt>
      <trkpt lat="46.47934" lon="5.66499">
        <ele>519</ele>
        <time>2022-02-28T12:21:38Z</time>
      </trkpt>
      <trkpt lat="46.47931" lon="5.66501">
        <ele>519.2</ele>
        <time>2022-02-28T12:21:39Z</time>
      </trkpt>
      <trkpt lat="46.47927" lon="5.66502">
        <ele>519.2</ele>
        <time>2022-02-28T12:21:40Z</time>
      </trkpt>
      <trkpt lat="46.47924" lon="5.66503">
        <ele>519.6</ele>
        <time>2022-02-28T12:21:41Z</time>
      </trkpt>
      <trkpt lat="46.47921" lon="5.66503">
        <ele>519.6</ele>
        <time>2022-02-28T12:21:42Z</time>
      </trkpt>
      <trkpt lat="46.47917" lon="5.66503">
        <ele>519.8</ele>
        <time>2022-02-28T12:21:43Z</time>
      </trkpt>
      <trkpt lat="46.47914" lon="5.66504">
        <ele>520</ele>
        <time>2022-02-28T12:21:44Z</time>
      </trkpt>
      <trkpt lat="46.47911" lon="5.66504">
        <ele>520</ele>
        <time>2022-02-28T12:21:45Z</time>
      </trkpt>
      <trkpt lat="46.47909" lon="5.66505">
        <ele>520.4</ele>
        <time>2022-02-28T12:21:46Z</time>
      </trkpt>
      <trkpt lat="46.47907" lon="5.66505">
        <ele>520.4</ele>
        <time>2022-02-28T12:21:47Z</time>
      </trkpt>
      <trkpt lat="46.47906" lon="5.66506">
        <ele>520.6</ele>
        <time>2022-02-28T12:21:48Z</time>
      </trkpt>
      <trkpt lat="46.47905" lon="5.66506">
        <ele>520.6</ele>
        <time>2022-02-28T12:21:49Z</time>
      </trkpt>
      <trkpt lat="46.47905" lon="5.66506">
        <ele>520.6</ele>
        <time>2022-02-28T12:21:50Z</time>
      </trkpt>
      <trkpt lat="46.47905" lon="5.66507">
        <ele>520.6</ele>
        <time>2022-02-28T12:21:51Z</time>
      </trkpt>
      <trkpt lat="46.47905" lon="5.66507">
        <ele>520.6</ele>
        <time>2022-02-28T12:21:55Z</time>
      </trkpt>
      <trkpt lat="46.47905" lon="5.66507">
        <ele>520.6</ele>
        <time>2022-02-28T12:21:56Z</time>
      </trkpt>
      <trkpt lat="46.47905" lon="5.66507">
        <ele>520.4</ele>
        <time>2022-02-28T12:22:05Z</time>
      </trkpt>
      <trkpt lat="46.47905" lon="5.66507">
        <ele>520.4</ele>
        <time>2022-02-28T12:22:06Z</time>
      </trkpt>
      <trkpt lat="46.47905" lon="5.66507">
        <ele>520.4</ele>
        <time>2022-02-28T12:22:07Z</time>
      </trkpt>
      <trkpt lat="46.47905" lon="5.66507">
        <ele>520.4</ele>
        <time>2022-02-28T12:22:08Z</time>
      </trkpt>
      <trkpt lat="46.47905" lon="5.66507">
        <ele>520.4</ele>
        <time>2022-02-28T12:22:09Z</time>
      </trkpt>
      <trkpt lat="46.47905" lon="5.66507">
        <ele>520.4</ele>
        <time>2022-02-28T12:22:10Z</time>
      </trkpt>
      <trkpt lat="46.47905" lon="5.66507">
        <ele>520.4</ele>
        <time>2022-02-28T12:22:11Z</time>
      </trkpt>
      <trkpt lat="46.47905" lon="5.66507">
        <ele>520.2</ele>
        <time>2022-02-28T12:22:12Z</time>
      </trkpt>
      <trkpt lat="46.47905" lon="5.66507">
        <ele>520.2</ele>
        <time>2022-02-28T12:22:13Z</time>
      </trkpt>
      <trkpt lat="46.47905" lon="5.66507">
        <ele>520.2</ele>
        <time>2022-02-28T12:22:14Z</time>
      </trkpt>
      <trkpt lat="46.47905" lon="5.66507">
        <ele>520.2</ele>
        <time>2022-02-28T12:22:15Z</time>
      </trkpt>
      <trkpt lat="46.47905" lon="5.66507">
        <ele>520.2</ele>
        <time>2022-02-28T12:22:19Z</time>
      </trkpt>
      <trkpt lat="46.47905" lon="5.66507">
        <ele>520.2</ele>
        <time>2022-02-28T12:22:20Z</time>
      </trkpt>
      <trkpt lat="46.47905" lon="5.66507">
        <ele>520.2</ele>
        <time>2022-02-28T12:22:21Z</time>
      </trkpt>
      <trkpt lat="46.47905" lon="5.66507">
        <ele>520.2</ele>
        <time>2022-02-28T12:22:22Z</time>
      </trkpt>
      <trkpt lat="46.47905" lon="5.66507">
        <ele>520.2</ele>
        <time>2022-02-28T12:22:23Z</time>
      </trkpt>
      <trkpt lat="46.47905" lon="5.66507">
        <ele>520.2</ele>
        <time>2022-02-28T12:22:25Z</time>
      </trkpt>
      <trkpt lat="46.47905" lon="5.66507">
        <ele>520.2</ele>
        <time>2022-02-28T12:22:26Z</time>
      </trkpt>
      <trkpt lat="46.47905" lon="5.66507">
        <ele>520.4</ele>
        <time>2022-02-28T12:22:30Z</time>
      </trkpt>
      <trkpt lat="46.47905" lon="5.66507">
        <ele>520.4</ele>
        <time>2022-02-28T12:22:31Z</time>
      </trkpt>
      <trkpt lat="46.47905" lon="5.66507">
        <ele>520.4</ele>
        <time>2022-02-28T12:22:36Z</time>
      </trkpt>
      <trkpt lat="46.47905" lon="5.66507">
        <ele>520.4</ele>
        <time>2022-02-28T12:22:37Z</time>
      </trkpt>
      <trkpt lat="46.47905" lon="5.66507">
        <ele>520.4</ele>
        <time>2022-02-28T12:22:43Z</time>
      </trkpt>
      <trkpt lat="46.47905" lon="5.66507">
        <ele>520.8</ele>
        <time>2022-02-28T12:22:44Z</time>
      </trkpt>
      <trkpt lat="46.47905" lon="5.66507">
        <ele>520.8</ele>
        <time>2022-02-28T12:22:45Z</time>
      </trkpt>
      <trkpt lat="46.47905" lon="5.66507">
        <ele>520.8</ele>
        <time>2022-02-28T12:22:46Z</time>
      </trkpt>
      <trkpt lat="46.47905" lon="5.66507">
        <ele>520.8</ele>
        <time>2022-02-28T12:22:47Z</time>
      </trkpt>
      <trkpt lat="46.47905" lon="5.66507">
        <ele>520.8</ele>
        <time>2022-02-28T12:22:48Z</time>
      </trkpt>
      <trkpt lat="46.47905" lon="5.66507">
        <ele>520.8</ele>
        <time>2022-02-28T12:22:49Z</time>
      </trkpt>
      <trkpt lat="46.47905" lon="5.66507">
        <ele>520.8</ele>
        <time>2022-02-28T12:22:50Z</time>
      </trkpt>
      <trkpt lat="46.47905" lon="5.66507">
        <ele>520.8</ele>
        <time>2022-02-28T12:22:51Z</time>
      </trkpt>
      <trkpt lat="46.47905" lon="5.66507">
        <ele>520.8</ele>
        <time>2022-02-28T12:22:53Z</time>
      </trkpt>
      <trkpt lat="46.47905" lon="5.66507">
        <ele>520.8</ele>
        <time>2022-02-28T12:22:54Z</time>
      </trkpt>
      <trkpt lat="46.47905" lon="5.66507">
        <ele>520.8</ele>
        <time>2022-02-28T12:22:55Z</time>
      </trkpt>
      <trkpt lat="46.47905" lon="5.66507">
        <ele>520.8</ele>
        <time>2022-02-28T12:22:56Z</time>
      </trkpt>
      <trkpt lat="46.47905" lon="5.66508">
        <ele>520.8</ele>
        <time>2022-02-28T12:22:57Z</time>
      </trkpt>
      <trkpt lat="46.47904" lon="5.66508">
        <ele>521</ele>
        <time>2022-02-28T12:22:58Z</time>
      </trkpt>
      <trkpt lat="46.47902" lon="5.66509">
        <ele>521</ele>
        <time>2022-02-28T12:22:59Z</time>
      </trkpt>
      <trkpt lat="46.479" lon="5.66509">
        <ele>521</ele>
        <time>2022-02-28T12:23:00Z</time>
      </trkpt>
      <trkpt lat="46.47899" lon="5.6651">
        <ele>521.2</ele>
        <time>2022-02-28T12:23:01Z</time>
      </trkpt>
      <trkpt lat="46.47897" lon="5.6651">
        <ele>521.2</ele>
        <time>2022-02-28T12:23:02Z</time>
      </trkpt>
      <trkpt lat="46.47895" lon="5.66509">
        <ele>521.4</ele>
        <time>2022-02-28T12:23:03Z</time>
      </trkpt>
      <trkpt lat="46.47893" lon="5.66509">
        <ele>521.4</ele>
        <time>2022-02-28T12:23:04Z</time>
      </trkpt>
      <trkpt lat="46.47891" lon="5.66509">
        <ele>521.8</ele>
        <time>2022-02-28T12:23:05Z</time>
      </trkpt>
      <trkpt lat="46.47888" lon="5.66509">
        <ele>521.8</ele>
        <time>2022-02-28T12:23:06Z</time>
      </trkpt>
      <trkpt lat="46.47886" lon="5.6651">
        <ele>522</ele>
        <time>2022-02-28T12:23:07Z</time>
      </trkpt>
      <trkpt lat="46.47884" lon="5.66511">
        <ele>522</ele>
        <time>2022-02-28T12:23:08Z</time>
      </trkpt>
      <trkpt lat="46.47881" lon="5.66511">
        <ele>522</ele>
        <time>2022-02-28T12:23:09Z</time>
      </trkpt>
      <trkpt lat="46.47878" lon="5.66511">
        <ele>522.2</ele>
        <time>2022-02-28T12:23:10Z</time>
      </trkpt>
      <trkpt lat="46.47878" lon="5.66511">
        <ele>522.2</ele>
        <time>2022-02-28T12:23:11Z</time>
      </trkpt>
      <trkpt lat="46.47876" lon="5.66511">
        <ele>522.6</ele>
        <time>2022-02-28T12:23:12Z</time>
      </trkpt>
      <trkpt lat="46.47872" lon="5.66511">
        <ele>522.6</ele>
        <time>2022-02-28T12:23:13Z</time>
      </trkpt>
      <trkpt lat="46.4787" lon="5.66511">
        <ele>522.8</ele>
        <time>2022-02-28T12:23:14Z</time>
      </trkpt>
      <trkpt lat="46.47868" lon="5.6651">
        <ele>523</ele>
        <time>2022-02-28T12:23:15Z</time>
      </trkpt>
      <trkpt lat="46.47864" lon="5.6651">
        <ele>523</ele>
        <time>2022-02-28T12:23:16Z</time>
      </trkpt>
      <trkpt lat="46.47861" lon="5.66509">
        <ele>523.2</ele>
        <time>2022-02-28T12:23:17Z</time>
      </trkpt>
      <trkpt lat="46.47858" lon="5.6651">
        <ele>523.2</ele>
        <time>2022-02-28T12:23:18Z</time>
      </trkpt>
      <trkpt lat="46.47855" lon="5.66509">
        <ele>523.6</ele>
        <time>2022-02-28T12:23:19Z</time>
      </trkpt>
      <trkpt lat="46.47852" lon="5.6651">
        <ele>523.6</ele>
        <time>2022-02-28T12:23:20Z</time>
      </trkpt>
      <trkpt lat="46.47849" lon="5.66509">
        <ele>524</ele>
        <time>2022-02-28T12:23:21Z</time>
      </trkpt>
      <trkpt lat="46.47846" lon="5.66508">
        <ele>524</ele>
        <time>2022-02-28T12:23:22Z</time>
      </trkpt>
      <trkpt lat="46.47844" lon="5.66507">
        <ele>524.4</ele>
        <time>2022-02-28T12:23:23Z</time>
      </trkpt>
      <trkpt lat="46.47841" lon="5.66507">
        <ele>524.6</ele>
        <time>2022-02-28T12:23:24Z</time>
      </trkpt>
      <trkpt lat="46.47838" lon="5.66505">
        <ele>524.6</ele>
        <time>2022-02-28T12:23:25Z</time>
      </trkpt>
      <trkpt lat="46.47836" lon="5.66504">
        <ele>524.8</ele>
        <time>2022-02-28T12:23:26Z</time>
      </trkpt>
      <trkpt lat="46.47834" lon="5.66502">
        <ele>525.2</ele>
        <time>2022-02-28T12:23:27Z</time>
      </trkpt>
      <trkpt lat="46.47831" lon="5.665">
        <ele>525.2</ele>
        <time>2022-02-28T12:23:28Z</time>
      </trkpt>
      <trkpt lat="46.47828" lon="5.66499">
        <ele>525.4</ele>
        <time>2022-02-28T12:23:29Z</time>
      </trkpt>
      <trkpt lat="46.47826" lon="5.66499">
        <ele>525.4</ele>
        <time>2022-02-28T12:23:30Z</time>
      </trkpt>
      <trkpt lat="46.47823" lon="5.66498">
        <ele>525.8</ele>
        <time>2022-02-28T12:23:31Z</time>
      </trkpt>
      <trkpt lat="46.4782" lon="5.66497">
        <ele>525.8</ele>
        <time>2022-02-28T12:23:32Z</time>
      </trkpt>
      <trkpt lat="46.47817" lon="5.66496">
        <ele>526.2</ele>
        <time>2022-02-28T12:23:33Z</time>
      </trkpt>
      <trkpt lat="46.47814" lon="5.66494">
        <ele>526.4</ele>
        <time>2022-02-28T12:23:34Z</time>
      </trkpt>
      <trkpt lat="46.47811" lon="5.66493">
        <ele>526.4</ele>
        <time>2022-02-28T12:23:35Z</time>
      </trkpt>
      <trkpt lat="46.47807" lon="5.66492">
        <ele>526.8</ele>
        <time>2022-02-28T12:23:36Z</time>
      </trkpt>
      <trkpt lat="46.47805" lon="5.66492">
        <ele>527</ele>
        <time>2022-02-28T12:23:37Z</time>
      </trkpt>
      <trkpt lat="46.47803" lon="5.66491">
        <ele>527</ele>
        <time>2022-02-28T12:23:38Z</time>
      </trkpt>
      <trkpt lat="46.478" lon="5.66491">
        <ele>527.4</ele>
        <time>2022-02-28T12:23:39Z</time>
      </trkpt>
      <trkpt lat="46.47797" lon="5.6649">
        <ele>527.6</ele>
        <time>2022-02-28T12:23:40Z</time>
      </trkpt>
      <trkpt lat="46.47794" lon="5.6649">
        <ele>527.6</ele>
        <time>2022-02-28T12:23:41Z</time>
      </trkpt>
      <trkpt lat="46.47791" lon="5.6649">
        <ele>527.8</ele>
        <time>2022-02-28T12:23:42Z</time>
      </trkpt>
      <trkpt lat="46.47789" lon="5.6649">
        <ele>528</ele>
        <time>2022-02-28T12:23:43Z</time>
      </trkpt>
      <trkpt lat="46.47786" lon="5.66489">
        <ele>528</ele>
        <time>2022-02-28T12:23:44Z</time>
      </trkpt>
      <trkpt lat="46.47784" lon="5.66488">
        <ele>528.4</ele>
        <time>2022-02-28T12:23:45Z</time>
      </trkpt>
      <trkpt lat="46.47781" lon="5.66487">
        <ele>528.4</ele>
        <time>2022-02-28T12:23:46Z</time>
      </trkpt>
      <trkpt lat="46.47778" lon="5.66487">
        <ele>528.6</ele>
        <time>2022-02-28T12:23:47Z</time>
      </trkpt>
      <trkpt lat="46.47776" lon="5.66486">
        <ele>528.6</ele>
        <time>2022-02-28T12:23:48Z</time>
      </trkpt>
      <trkpt lat="46.47773" lon="5.66486">
        <ele>529.2</ele>
        <time>2022-02-28T12:23:49Z</time>
      </trkpt>
      <trkpt lat="46.4777" lon="5.66485">
        <ele>529.4</ele>
        <time>2022-02-28T12:23:50Z</time>
      </trkpt>
      <trkpt lat="46.47768" lon="5.66484">
        <ele>529.4</ele>
        <time>2022-02-28T12:23:51Z</time>
      </trkpt>
      <trkpt lat="46.47765" lon="5.66483">
        <ele>529.6</ele>
        <time>2022-02-28T12:23:52Z</time>
      </trkpt>
      <trkpt lat="46.47763" lon="5.66482">
        <ele>529.6</ele>
        <time>2022-02-28T12:23:53Z</time>
      </trkpt>
      <trkpt lat="46.4776" lon="5.66481">
        <ele>530</ele>
        <time>2022-02-28T12:23:54Z</time>
      </trkpt>
      <trkpt lat="46.47758" lon="5.6648">
        <ele>530</ele>
        <time>2022-02-28T12:23:55Z</time>
      </trkpt>
      <trkpt lat="46.47755" lon="5.66479">
        <ele>530.2</ele>
        <time>2022-02-28T12:23:56Z</time>
      </trkpt>
      <trkpt lat="46.47752" lon="5.66477">
        <ele>530.2</ele>
        <time>2022-02-28T12:23:57Z</time>
      </trkpt>
      <trkpt lat="46.4775" lon="5.66476">
        <ele>530.6</ele>
        <time>2022-02-28T12:23:58Z</time>
      </trkpt>
      <trkpt lat="46.47747" lon="5.66474">
        <ele>530.6</ele>
        <time>2022-02-28T12:23:59Z</time>
      </trkpt>
      <trkpt lat="46.47745" lon="5.66473">
        <ele>530.8</ele>
        <time>2022-02-28T12:24:00Z</time>
      </trkpt>
      <trkpt lat="46.47742" lon="5.66471">
        <ele>531</ele>
        <time>2022-02-28T12:24:01Z</time>
      </trkpt>
      <trkpt lat="46.47739" lon="5.6647">
        <ele>531.4</ele>
        <time>2022-02-28T12:24:02Z</time>
      </trkpt>
      <trkpt lat="46.47737" lon="5.66468">
        <ele>531.6</ele>
        <time>2022-02-28T12:24:03Z</time>
      </trkpt>
      <trkpt lat="46.47734" lon="5.66466">
        <ele>531.6</ele>
        <time>2022-02-28T12:24:04Z</time>
      </trkpt>
      <trkpt lat="46.47731" lon="5.66464">
        <ele>531.8</ele>
        <time>2022-02-28T12:24:05Z</time>
      </trkpt>
      <trkpt lat="46.47728" lon="5.66462">
        <ele>532</ele>
        <time>2022-02-28T12:24:06Z</time>
      </trkpt>
      <trkpt lat="46.47725" lon="5.66459">
        <ele>532.4</ele>
        <time>2022-02-28T12:24:07Z</time>
      </trkpt>
      <trkpt lat="46.47722" lon="5.66457">
        <ele>532.4</ele>
        <time>2022-02-28T12:24:08Z</time>
      </trkpt>
      <trkpt lat="46.4772" lon="5.66454">
        <ele>532.8</ele>
        <time>2022-02-28T12:24:09Z</time>
      </trkpt>
      <trkpt lat="46.47717" lon="5.66451">
        <ele>533</ele>
        <time>2022-02-28T12:24:10Z</time>
      </trkpt>
      <trkpt lat="46.47715" lon="5.66449">
        <ele>533.2</ele>
        <time>2022-02-28T12:24:11Z</time>
      </trkpt>
      <trkpt lat="46.47712" lon="5.66447">
        <ele>533.4</ele>
        <time>2022-02-28T12:24:12Z</time>
      </trkpt>
      <trkpt lat="46.4771" lon="5.66444">
        <ele>533.4</ele>
        <time>2022-02-28T12:24:13Z</time>
      </trkpt>
      <trkpt lat="46.47707" lon="5.66441">
        <ele>533.6</ele>
        <time>2022-02-28T12:24:14Z</time>
      </trkpt>
      <trkpt lat="46.47705" lon="5.66439">
        <ele>533.6</ele>
        <time>2022-02-28T12:24:15Z</time>
      </trkpt>
      <trkpt lat="46.47702" lon="5.66437">
        <ele>534</ele>
        <time>2022-02-28T12:24:16Z</time>
      </trkpt>
      <trkpt lat="46.477" lon="5.66434">
        <ele>534</ele>
        <time>2022-02-28T12:24:17Z</time>
      </trkpt>
      <trkpt lat="46.47697" lon="5.66432">
        <ele>534.4</ele>
        <time>2022-02-28T12:24:18Z</time>
      </trkpt>
      <trkpt lat="46.47695" lon="5.6643">
        <ele>534.4</ele>
        <time>2022-02-28T12:24:19Z</time>
      </trkpt>
      <trkpt lat="46.47692" lon="5.66428">
        <ele>534.8</ele>
        <time>2022-02-28T12:24:20Z</time>
      </trkpt>
      <trkpt lat="46.47689" lon="5.66426">
        <ele>535</ele>
        <time>2022-02-28T12:24:21Z</time>
      </trkpt>
      <trkpt lat="46.47686" lon="5.66424">
        <ele>535</ele>
        <time>2022-02-28T12:24:22Z</time>
      </trkpt>
      <trkpt lat="46.47684" lon="5.66422">
        <ele>535.2</ele>
        <time>2022-02-28T12:24:23Z</time>
      </trkpt>
      <trkpt lat="46.47681" lon="5.6642">
        <ele>535.2</ele>
        <time>2022-02-28T12:24:24Z</time>
      </trkpt>
      <trkpt lat="46.47678" lon="5.66417">
        <ele>535.6</ele>
        <time>2022-02-28T12:24:25Z</time>
      </trkpt>
      <trkpt lat="46.47676" lon="5.66415">
        <ele>535.6</ele>
        <time>2022-02-28T12:24:26Z</time>
      </trkpt>
      <trkpt lat="46.47673" lon="5.66413">
        <ele>535.8</ele>
        <time>2022-02-28T12:24:27Z</time>
      </trkpt>
      <trkpt lat="46.4767" lon="5.66411">
        <ele>535.8</ele>
        <time>2022-02-28T12:24:28Z</time>
      </trkpt>
      <trkpt lat="46.47667" lon="5.66409">
        <ele>536.2</ele>
        <time>2022-02-28T12:24:29Z</time>
      </trkpt>
      <trkpt lat="46.47665" lon="5.66406">
        <ele>536.4</ele>
        <time>2022-02-28T12:24:30Z</time>
      </trkpt>
      <trkpt lat="46.47662" lon="5.66405">
        <ele>536.6</ele>
        <time>2022-02-28T12:24:31Z</time>
      </trkpt>
      <trkpt lat="46.47659" lon="5.66402">
        <ele>536.6</ele>
        <time>2022-02-28T12:24:32Z</time>
      </trkpt>
      <trkpt lat="46.47656" lon="5.664">
        <ele>536.8</ele>
        <time>2022-02-28T12:24:33Z</time>
      </trkpt>
      <trkpt lat="46.47653" lon="5.66398">
        <ele>536.8</ele>
        <time>2022-02-28T12:24:34Z</time>
      </trkpt>
      <trkpt lat="46.47651" lon="5.66396">
        <ele>537.2</ele>
        <time>2022-02-28T12:24:35Z</time>
      </trkpt>
      <trkpt lat="46.47648" lon="5.66394">
        <ele>537.2</ele>
        <time>2022-02-28T12:24:36Z</time>
      </trkpt>
      <trkpt lat="46.47646" lon="5.66392">
        <ele>537.6</ele>
        <time>2022-02-28T12:24:37Z</time>
      </trkpt>
      <trkpt lat="46.47643" lon="5.66389">
        <ele>537.6</ele>
        <time>2022-02-28T12:24:38Z</time>
      </trkpt>
      <trkpt lat="46.47641" lon="5.66387">
        <ele>538</ele>
        <time>2022-02-28T12:24:39Z</time>
      </trkpt>
      <trkpt lat="46.47638" lon="5.66385">
        <ele>538</ele>
        <time>2022-02-28T12:24:40Z</time>
      </trkpt>
      <trkpt lat="46.47636" lon="5.66382">
        <ele>538.4</ele>
        <time>2022-02-28T12:24:41Z</time>
      </trkpt>
      <trkpt lat="46.47634" lon="5.6638">
        <ele>538.4</ele>
        <time>2022-02-28T12:24:42Z</time>
      </trkpt>
      <trkpt lat="46.47632" lon="5.66377">
        <ele>538.8</ele>
        <time>2022-02-28T12:24:43Z</time>
      </trkpt>
      <trkpt lat="46.47629" lon="5.66374">
        <ele>538.8</ele>
        <time>2022-02-28T12:24:44Z</time>
      </trkpt>
      <trkpt lat="46.47627" lon="5.66371">
        <ele>539</ele>
        <time>2022-02-28T12:24:45Z</time>
      </trkpt>
      <trkpt lat="46.47625" lon="5.66369">
        <ele>539</ele>
        <time>2022-02-28T12:24:46Z</time>
      </trkpt>
      <trkpt lat="46.47622" lon="5.66366">
        <ele>539.4</ele>
        <time>2022-02-28T12:24:47Z</time>
      </trkpt>
      <trkpt lat="46.4762" lon="5.66363">
        <ele>539.4</ele>
        <time>2022-02-28T12:24:48Z</time>
      </trkpt>
      <trkpt lat="46.47617" lon="5.66357">
        <ele>539.8</ele>
        <time>2022-02-28T12:24:49Z</time>
      </trkpt>
      <trkpt lat="46.47616" lon="5.66356">
        <ele>540</ele>
        <time>2022-02-28T12:24:50Z</time>
      </trkpt>
      <trkpt lat="46.47614" lon="5.66352">
        <ele>540.6</ele>
        <time>2022-02-28T12:24:51Z</time>
      </trkpt>
      <trkpt lat="46.47612" lon="5.66349">
        <ele>540.6</ele>
        <time>2022-02-28T12:24:52Z</time>
      </trkpt>
      <trkpt lat="46.47609" lon="5.66345">
        <ele>540.8</ele>
        <time>2022-02-28T12:24:53Z</time>
      </trkpt>
      <trkpt lat="46.47607" lon="5.66342">
        <ele>540.8</ele>
        <time>2022-02-28T12:24:54Z</time>
      </trkpt>
      <trkpt lat="46.47604" lon="5.66339">
        <ele>541.2</ele>
        <time>2022-02-28T12:24:55Z</time>
      </trkpt>
      <trkpt lat="46.47602" lon="5.66337">
        <ele>541.4</ele>
        <time>2022-02-28T12:24:56Z</time>
      </trkpt>
      <trkpt lat="46.47599" lon="5.66333">
        <ele>541.4</ele>
        <time>2022-02-28T12:24:57Z</time>
      </trkpt>
      <trkpt lat="46.47597" lon="5.66329">
        <ele>541.8</ele>
        <time>2022-02-28T12:24:58Z</time>
      </trkpt>
      <trkpt lat="46.47594" lon="5.66325">
        <ele>542</ele>
        <time>2022-02-28T12:24:59Z</time>
      </trkpt>
      <trkpt lat="46.47591" lon="5.66322">
        <ele>542.2</ele>
        <time>2022-02-28T12:25:00Z</time>
      </trkpt>
      <trkpt lat="46.47589" lon="5.66318">
        <ele>542.4</ele>
        <time>2022-02-28T12:25:01Z</time>
      </trkpt>
      <trkpt lat="46.47586" lon="5.66316">
        <ele>542.4</ele>
        <time>2022-02-28T12:25:02Z</time>
      </trkpt>
      <trkpt lat="46.47584" lon="5.66313">
        <ele>542.8</ele>
        <time>2022-02-28T12:25:03Z</time>
      </trkpt>
      <trkpt lat="46.47581" lon="5.66309">
        <ele>542.8</ele>
        <time>2022-02-28T12:25:04Z</time>
      </trkpt>
      <trkpt lat="46.47579" lon="5.66307">
        <ele>543.2</ele>
        <time>2022-02-28T12:25:05Z</time>
      </trkpt>
      <trkpt lat="46.47576" lon="5.66303">
        <ele>543.4</ele>
        <time>2022-02-28T12:25:06Z</time>
      </trkpt>
      <trkpt lat="46.47573" lon="5.663">
        <ele>543.4</ele>
        <time>2022-02-28T12:25:07Z</time>
      </trkpt>
      <trkpt lat="46.47571" lon="5.66296">
        <ele>543.6</ele>
        <time>2022-02-28T12:25:08Z</time>
      </trkpt>
      <trkpt lat="46.47568" lon="5.66293">
        <ele>543.6</ele>
        <time>2022-02-28T12:25:09Z</time>
      </trkpt>
      <trkpt lat="46.47565" lon="5.6629">
        <ele>544</ele>
        <time>2022-02-28T12:25:10Z</time>
      </trkpt>
      <trkpt lat="46.47563" lon="5.66286">
        <ele>544</ele>
        <time>2022-02-28T12:25:11Z</time>
      </trkpt>
      <trkpt lat="46.4756" lon="5.66282">
        <ele>544.4</ele>
        <time>2022-02-28T12:25:12Z</time>
      </trkpt>
      <trkpt lat="46.47558" lon="5.66278">
        <ele>544.4</ele>
        <time>2022-02-28T12:25:13Z</time>
      </trkpt>
      <trkpt lat="46.47555" lon="5.66275">
        <ele>544.6</ele>
        <time>2022-02-28T12:25:14Z</time>
      </trkpt>
      <trkpt lat="46.47553" lon="5.66271">
        <ele>544.8</ele>
        <time>2022-02-28T12:25:15Z</time>
      </trkpt>
      <trkpt lat="46.47551" lon="5.66266">
        <ele>545.2</ele>
        <time>2022-02-28T12:25:16Z</time>
      </trkpt>
      <trkpt lat="46.47548" lon="5.6626">
        <ele>545.2</ele>
        <time>2022-02-28T12:25:17Z</time>
      </trkpt>
      <trkpt lat="46.47548" lon="5.66257">
        <ele>545.6</ele>
        <time>2022-02-28T12:25:18Z</time>
      </trkpt>
      <trkpt lat="46.47546" lon="5.66253">
        <ele>545.6</ele>
        <time>2022-02-28T12:25:19Z</time>
      </trkpt>
      <trkpt lat="46.47544" lon="5.66249">
        <ele>546</ele>
        <time>2022-02-28T12:25:20Z</time>
      </trkpt>
      <trkpt lat="46.47542" lon="5.66245">
        <ele>546</ele>
        <time>2022-02-28T12:25:21Z</time>
      </trkpt>
      <trkpt lat="46.47541" lon="5.66241">
        <ele>546.4</ele>
        <time>2022-02-28T12:25:22Z</time>
      </trkpt>
      <trkpt lat="46.47539" lon="5.66237">
        <ele>546.6</ele>
        <time>2022-02-28T12:25:23Z</time>
      </trkpt>
      <trkpt lat="46.47539" lon="5.66233">
        <ele>546.6</ele>
        <time>2022-02-28T12:25:24Z</time>
      </trkpt>
      <trkpt lat="46.47539" lon="5.66229">
        <ele>546.8</ele>
        <time>2022-02-28T12:25:25Z</time>
      </trkpt>
      <trkpt lat="46.47539" lon="5.66224">
        <ele>546.8</ele>
        <time>2022-02-28T12:25:26Z</time>
      </trkpt>
      <trkpt lat="46.4754" lon="5.66219">
        <ele>547.4</ele>
        <time>2022-02-28T12:25:27Z</time>
      </trkpt>
      <trkpt lat="46.47541" lon="5.66215">
        <ele>547.6</ele>
        <time>2022-02-28T12:25:28Z</time>
      </trkpt>
      <trkpt lat="46.47542" lon="5.6621">
        <ele>547.6</ele>
        <time>2022-02-28T12:25:29Z</time>
      </trkpt>
      <trkpt lat="46.47544" lon="5.66207">
        <ele>548</ele>
        <time>2022-02-28T12:25:30Z</time>
      </trkpt>
      <trkpt lat="46.47546" lon="5.66203">
        <ele>548</ele>
        <time>2022-02-28T12:25:31Z</time>
      </trkpt>
      <trkpt lat="46.47549" lon="5.662">
        <ele>548.4</ele>
        <time>2022-02-28T12:25:32Z</time>
      </trkpt>
      <trkpt lat="46.47551" lon="5.66196">
        <ele>548.4</ele>
        <time>2022-02-28T12:25:33Z</time>
      </trkpt>
      <trkpt lat="46.47552" lon="5.66192">
        <ele>548.6</ele>
        <time>2022-02-28T12:25:34Z</time>
      </trkpt>
      <trkpt lat="46.47554" lon="5.66188">
        <ele>548.6</ele>
        <time>2022-02-28T12:25:35Z</time>
      </trkpt>
      <trkpt lat="46.47555" lon="5.66183">
        <ele>549</ele>
        <time>2022-02-28T12:25:36Z</time>
      </trkpt>
      <trkpt lat="46.47555" lon="5.66178">
        <ele>549</ele>
        <time>2022-02-28T12:25:37Z</time>
      </trkpt>
      <trkpt lat="46.47554" lon="5.66173">
        <ele>549.2</ele>
        <time>2022-02-28T12:25:38Z</time>
      </trkpt>
      <trkpt lat="46.47553" lon="5.66168">
        <ele>549.2</ele>
        <time>2022-02-28T12:25:39Z</time>
      </trkpt>
      <trkpt lat="46.47551" lon="5.66164">
        <ele>549.6</ele>
        <time>2022-02-28T12:25:40Z</time>
      </trkpt>
      <trkpt lat="46.47548" lon="5.66161">
        <ele>549.6</ele>
        <time>2022-02-28T12:25:41Z</time>
      </trkpt>
      <trkpt lat="46.47546" lon="5.66158">
        <ele>550</ele>
        <time>2022-02-28T12:25:42Z</time>
      </trkpt>
      <trkpt lat="46.47544" lon="5.66156">
        <ele>550.2</ele>
        <time>2022-02-28T12:25:43Z</time>
      </trkpt>
      <trkpt lat="46.47542" lon="5.66154">
        <ele>550.4</ele>
        <time>2022-02-28T12:25:44Z</time>
      </trkpt>
      <trkpt lat="46.47539" lon="5.66152">
        <ele>550.6</ele>
        <time>2022-02-28T12:25:45Z</time>
      </trkpt>
      <trkpt lat="46.47537" lon="5.6615">
        <ele>550.6</ele>
        <time>2022-02-28T12:25:46Z</time>
      </trkpt>
      <trkpt lat="46.47534" lon="5.66149">
        <ele>551</ele>
        <time>2022-02-28T12:25:47Z</time>
      </trkpt>
      <trkpt lat="46.47531" lon="5.66147">
        <ele>551.2</ele>
        <time>2022-02-28T12:25:48Z</time>
      </trkpt>
      <trkpt lat="46.47527" lon="5.66144">
        <ele>551.6</ele>
        <time>2022-02-28T12:25:49Z</time>
      </trkpt>
      <trkpt lat="46.47524" lon="5.66142">
        <ele>551.8</ele>
        <time>2022-02-28T12:25:50Z</time>
      </trkpt>
      <trkpt lat="46.47521" lon="5.6614">
        <ele>552</ele>
        <time>2022-02-28T12:25:51Z</time>
      </trkpt>
      <trkpt lat="46.47518" lon="5.66138">
        <ele>552.4</ele>
        <time>2022-02-28T12:25:52Z</time>
      </trkpt>
      <trkpt lat="46.47514" lon="5.66136">
        <ele>552.6</ele>
        <time>2022-02-28T12:25:53Z</time>
      </trkpt>
      <trkpt lat="46.47511" lon="5.66135">
        <ele>552.6</ele>
        <time>2022-02-28T12:25:54Z</time>
      </trkpt>
      <trkpt lat="46.47508" lon="5.66134">
        <ele>553</ele>
        <time>2022-02-28T12:25:55Z</time>
      </trkpt>
      <trkpt lat="46.47505" lon="5.66133">
        <ele>553.2</ele>
        <time>2022-02-28T12:25:56Z</time>
      </trkpt>
      <trkpt lat="46.47502" lon="5.66131">
        <ele>553.4</ele>
        <time>2022-02-28T12:25:57Z</time>
      </trkpt>
      <trkpt lat="46.47499" lon="5.6613">
        <ele>553.4</ele>
        <time>2022-02-28T12:25:58Z</time>
      </trkpt>
      <trkpt lat="46.47496" lon="5.66129">
        <ele>553.8</ele>
        <time>2022-02-28T12:25:59Z</time>
      </trkpt>
      <trkpt lat="46.47493" lon="5.66127">
        <ele>553.8</ele>
        <time>2022-02-28T12:26:00Z</time>
      </trkpt>
      <trkpt lat="46.4749" lon="5.66125">
        <ele>554.2</ele>
        <time>2022-02-28T12:26:01Z</time>
      </trkpt>
      <trkpt lat="46.47487" lon="5.66123">
        <ele>554.4</ele>
        <time>2022-02-28T12:26:02Z</time>
      </trkpt>
      <trkpt lat="46.47484" lon="5.6612">
        <ele>554.6</ele>
        <time>2022-02-28T12:26:03Z</time>
      </trkpt>
      <trkpt lat="46.47482" lon="5.66117">
        <ele>554.8</ele>
        <time>2022-02-28T12:26:04Z</time>
      </trkpt>
      <trkpt lat="46.4748" lon="5.66113">
        <ele>555.2</ele>
        <time>2022-02-28T12:26:05Z</time>
      </trkpt>
      <trkpt lat="46.47479" lon="5.66109">
        <ele>555.4</ele>
        <time>2022-02-28T12:26:06Z</time>
      </trkpt>
      <trkpt lat="46.47477" lon="5.66104">
        <ele>555.6</ele>
        <time>2022-02-28T12:26:07Z</time>
      </trkpt>
      <trkpt lat="46.47476" lon="5.661">
        <ele>555.8</ele>
        <time>2022-02-28T12:26:08Z</time>
      </trkpt>
      <trkpt lat="46.47475" lon="5.66095">
        <ele>556</ele>
        <time>2022-02-28T12:26:09Z</time>
      </trkpt>
      <trkpt lat="46.47474" lon="5.6609">
        <ele>556.2</ele>
        <time>2022-02-28T12:26:10Z</time>
      </trkpt>
      <trkpt lat="46.47474" lon="5.66085">
        <ele>556.2</ele>
        <time>2022-02-28T12:26:11Z</time>
      </trkpt>
      <trkpt lat="46.47473" lon="5.6608">
        <ele>556.6</ele>
        <time>2022-02-28T12:26:12Z</time>
      </trkpt>
      <trkpt lat="46.47472" lon="5.66075">
        <ele>556.8</ele>
        <time>2022-02-28T12:26:13Z</time>
      </trkpt>
      <trkpt lat="46.47471" lon="5.6607">
        <ele>556.8</ele>
        <time>2022-02-28T12:26:14Z</time>
      </trkpt>
      <trkpt lat="46.4747" lon="5.66066">
        <ele>557.2</ele>
        <time>2022-02-28T12:26:15Z</time>
      </trkpt>
      <trkpt lat="46.47468" lon="5.66061">
        <ele>557.2</ele>
        <time>2022-02-28T12:26:16Z</time>
      </trkpt>
      <trkpt lat="46.47466" lon="5.66057">
        <ele>557.4</ele>
        <time>2022-02-28T12:26:17Z</time>
      </trkpt>
      <trkpt lat="46.47464" lon="5.66053">
        <ele>557.6</ele>
        <time>2022-02-28T12:26:18Z</time>
      </trkpt>
      <trkpt lat="46.47462" lon="5.6605">
        <ele>557.6</ele>
        <time>2022-02-28T12:26:19Z</time>
      </trkpt>
      <trkpt lat="46.4746" lon="5.66046">
        <ele>558</ele>
        <time>2022-02-28T12:26:20Z</time>
      </trkpt>
      <trkpt lat="46.47457" lon="5.66043">
        <ele>558.2</ele>
        <time>2022-02-28T12:26:21Z</time>
      </trkpt>
      <trkpt lat="46.47455" lon="5.6604">
        <ele>558.2</ele>
        <time>2022-02-28T12:26:22Z</time>
      </trkpt>
      <trkpt lat="46.47452" lon="5.66038">
        <ele>558.6</ele>
        <time>2022-02-28T12:26:23Z</time>
      </trkpt>
      <trkpt lat="46.4745" lon="5.66035">
        <ele>558.6</ele>
        <time>2022-02-28T12:26:24Z</time>
      </trkpt>
      <trkpt lat="46.47447" lon="5.66032">
        <ele>558.8</ele>
        <time>2022-02-28T12:26:25Z</time>
      </trkpt>
      <trkpt lat="46.47444" lon="5.66029">
        <ele>558.8</ele>
        <time>2022-02-28T12:26:26Z</time>
      </trkpt>
      <trkpt lat="46.47441" lon="5.66026">
        <ele>559.2</ele>
        <time>2022-02-28T12:26:27Z</time>
      </trkpt>
      <trkpt lat="46.47439" lon="5.66024">
        <ele>559.2</ele>
        <time>2022-02-28T12:26:28Z</time>
      </trkpt>
      <trkpt lat="46.47435" lon="5.6602">
        <ele>559.4</ele>
        <time>2022-02-28T12:26:29Z</time>
      </trkpt>
      <trkpt lat="46.47434" lon="5.66019">
        <ele>559.4</ele>
        <time>2022-02-28T12:26:30Z</time>
      </trkpt>
      <trkpt lat="46.47431" lon="5.66017">
        <ele>559.8</ele>
        <time>2022-02-28T12:26:31Z</time>
      </trkpt>
      <trkpt lat="46.47428" lon="5.66015">
        <ele>559.8</ele>
        <time>2022-02-28T12:26:32Z</time>
      </trkpt>
      <trkpt lat="46.47425" lon="5.66012">
        <ele>560.2</ele>
        <time>2022-02-28T12:26:33Z</time>
      </trkpt>
      <trkpt lat="46.47423" lon="5.6601">
        <ele>560.2</ele>
        <time>2022-02-28T12:26:34Z</time>
      </trkpt>
      <trkpt lat="46.4742" lon="5.66007">
        <ele>560.6</ele>
        <time>2022-02-28T12:26:35Z</time>
      </trkpt>
      <trkpt lat="46.47417" lon="5.66005">
        <ele>560.8</ele>
        <time>2022-02-28T12:26:36Z</time>
      </trkpt>
      <trkpt lat="46.47415" lon="5.66002">
        <ele>560.8</ele>
        <time>2022-02-28T12:26:37Z</time>
      </trkpt>
      <trkpt lat="46.47412" lon="5.66">
        <ele>561.2</ele>
        <time>2022-02-28T12:26:38Z</time>
      </trkpt>
      <trkpt lat="46.47409" lon="5.65998">
        <ele>561.4</ele>
        <time>2022-02-28T12:26:39Z</time>
      </trkpt>
      <trkpt lat="46.47406" lon="5.65996">
        <ele>561.4</ele>
        <time>2022-02-28T12:26:40Z</time>
      </trkpt>
      <trkpt lat="46.47403" lon="5.65994">
        <ele>561.8</ele>
        <time>2022-02-28T12:26:41Z</time>
      </trkpt>
      <trkpt lat="46.47401" lon="5.65992">
        <ele>561.8</ele>
        <time>2022-02-28T12:26:42Z</time>
      </trkpt>
      <trkpt lat="46.47398" lon="5.65989">
        <ele>562.2</ele>
        <time>2022-02-28T12:26:43Z</time>
      </trkpt>
      <trkpt lat="46.47395" lon="5.65987">
        <ele>562.2</ele>
        <time>2022-02-28T12:26:44Z</time>
      </trkpt>
      <trkpt lat="46.47392" lon="5.65985">
        <ele>562.4</ele>
        <time>2022-02-28T12:26:45Z</time>
      </trkpt>
      <trkpt lat="46.47389" lon="5.65983">
        <ele>562.6</ele>
        <time>2022-02-28T12:26:46Z</time>
      </trkpt>
      <trkpt lat="46.47386" lon="5.6598">
        <ele>562.6</ele>
        <time>2022-02-28T12:26:47Z</time>
      </trkpt>
      <trkpt lat="46.47383" lon="5.65978">
        <ele>563</ele>
        <time>2022-02-28T12:26:48Z</time>
      </trkpt>
      <trkpt lat="46.47379" lon="5.65976">
        <ele>563</ele>
        <time>2022-02-28T12:26:49Z</time>
      </trkpt>
      <trkpt lat="46.47376" lon="5.65975">
        <ele>563.4</ele>
        <time>2022-02-28T12:26:50Z</time>
      </trkpt>
      <trkpt lat="46.47373" lon="5.65973">
        <ele>563.4</ele>
        <time>2022-02-28T12:26:51Z</time>
      </trkpt>
      <trkpt lat="46.4737" lon="5.65972">
        <ele>563.6</ele>
        <time>2022-02-28T12:26:52Z</time>
      </trkpt>
      <trkpt lat="46.47367" lon="5.65971">
        <ele>563.6</ele>
        <time>2022-02-28T12:26:53Z</time>
      </trkpt>
      <trkpt lat="46.47364" lon="5.65971">
        <ele>564</ele>
        <time>2022-02-28T12:26:54Z</time>
      </trkpt>
      <trkpt lat="46.4736" lon="5.6597">
        <ele>564</ele>
        <time>2022-02-28T12:26:55Z</time>
      </trkpt>
      <trkpt lat="46.47357" lon="5.6597">
        <ele>564.4</ele>
        <time>2022-02-28T12:26:56Z</time>
      </trkpt>
      <trkpt lat="46.47354" lon="5.65969">
        <ele>564.4</ele>
        <time>2022-02-28T12:26:57Z</time>
      </trkpt>
      <trkpt lat="46.4735" lon="5.65969">
        <ele>564.8</ele>
        <time>2022-02-28T12:26:58Z</time>
      </trkpt>
      <trkpt lat="46.47347" lon="5.65969">
        <ele>564.8</ele>
        <time>2022-02-28T12:26:59Z</time>
      </trkpt>
      <trkpt lat="46.47344" lon="5.65969">
        <ele>565</ele>
        <time>2022-02-28T12:27:00Z</time>
      </trkpt>
      <trkpt lat="46.47341" lon="5.65969">
        <ele>565</ele>
        <time>2022-02-28T12:27:01Z</time>
      </trkpt>
      <trkpt lat="46.47338" lon="5.65968">
        <ele>565.4</ele>
        <time>2022-02-28T12:27:02Z</time>
      </trkpt>
      <trkpt lat="46.47334" lon="5.65968">
        <ele>565.4</ele>
        <time>2022-02-28T12:27:03Z</time>
      </trkpt>
      <trkpt lat="46.47331" lon="5.65968">
        <ele>565.8</ele>
        <time>2022-02-28T12:27:04Z</time>
      </trkpt>
      <trkpt lat="46.47325" lon="5.65966">
        <ele>566</ele>
        <time>2022-02-28T12:27:05Z</time>
      </trkpt>
      <trkpt lat="46.47322" lon="5.65966">
        <ele>566</ele>
        <time>2022-02-28T12:27:06Z</time>
      </trkpt>
      <trkpt lat="46.47319" lon="5.65964">
        <ele>566.2</ele>
        <time>2022-02-28T12:27:07Z</time>
      </trkpt>
      <trkpt lat="46.47316" lon="5.65963">
        <ele>566.2</ele>
        <time>2022-02-28T12:27:08Z</time>
      </trkpt>
      <trkpt lat="46.47313" lon="5.65961">
        <ele>566.6</ele>
        <time>2022-02-28T12:27:09Z</time>
      </trkpt>
      <trkpt lat="46.47313" lon="5.65961">
        <ele>566.6</ele>
        <time>2022-02-28T12:27:10Z</time>
      </trkpt>
      <trkpt lat="46.4731" lon="5.65959">
        <ele>567</ele>
        <time>2022-02-28T12:27:11Z</time>
      </trkpt>
      <trkpt lat="46.47308" lon="5.65956">
        <ele>567</ele>
        <time>2022-02-28T12:27:12Z</time>
      </trkpt>
      <trkpt lat="46.47305" lon="5.65954">
        <ele>567.4</ele>
        <time>2022-02-28T12:27:13Z</time>
      </trkpt>
      <trkpt lat="46.47303" lon="5.65951">
        <ele>567.6</ele>
        <time>2022-02-28T12:27:14Z</time>
      </trkpt>
      <trkpt lat="46.47301" lon="5.65948">
        <ele>567.8</ele>
        <time>2022-02-28T12:27:15Z</time>
      </trkpt>
      <trkpt lat="46.47299" lon="5.65945">
        <ele>567.8</ele>
        <time>2022-02-28T12:27:16Z</time>
      </trkpt>
      <trkpt lat="46.47297" lon="5.65942">
        <ele>568.2</ele>
        <time>2022-02-28T12:27:17Z</time>
      </trkpt>
      <trkpt lat="46.47295" lon="5.65938">
        <ele>568.4</ele>
        <time>2022-02-28T12:27:18Z</time>
      </trkpt>
      <trkpt lat="46.47293" lon="5.65935">
        <ele>568.6</ele>
        <time>2022-02-28T12:27:19Z</time>
      </trkpt>
      <trkpt lat="46.47292" lon="5.65931">
        <ele>568.6</ele>
        <time>2022-02-28T12:27:20Z</time>
      </trkpt>
      <trkpt lat="46.47291" lon="5.65926">
        <ele>569</ele>
        <time>2022-02-28T12:27:21Z</time>
      </trkpt>
      <trkpt lat="46.4729" lon="5.65922">
        <ele>569</ele>
        <time>2022-02-28T12:27:22Z</time>
      </trkpt>
      <trkpt lat="46.4729" lon="5.65917">
        <ele>569.2</ele>
        <time>2022-02-28T12:27:23Z</time>
      </trkpt>
      <trkpt lat="46.47289" lon="5.65912">
        <ele>569.2</ele>
        <time>2022-02-28T12:27:24Z</time>
      </trkpt>
      <trkpt lat="46.4729" lon="5.65907">
        <ele>569.6</ele>
        <time>2022-02-28T12:27:25Z</time>
      </trkpt>
      <trkpt lat="46.47291" lon="5.65902">
        <ele>569.6</ele>
        <time>2022-02-28T12:27:26Z</time>
      </trkpt>
      <trkpt lat="46.47293" lon="5.65898">
        <ele>569.8</ele>
        <time>2022-02-28T12:27:27Z</time>
      </trkpt>
      <trkpt lat="46.47294" lon="5.65893">
        <ele>569.8</ele>
        <time>2022-02-28T12:27:28Z</time>
      </trkpt>
      <trkpt lat="46.47296" lon="5.65888">
        <ele>569.8</ele>
        <time>2022-02-28T12:27:29Z</time>
      </trkpt>
      <trkpt lat="46.47298" lon="5.65883">
        <ele>570</ele>
        <time>2022-02-28T12:27:30Z</time>
      </trkpt>
      <trkpt lat="46.473" lon="5.65877">
        <ele>570</ele>
        <time>2022-02-28T12:27:31Z</time>
      </trkpt>
      <trkpt lat="46.47302" lon="5.65873">
        <ele>570</ele>
        <time>2022-02-28T12:27:32Z</time>
      </trkpt>
      <trkpt lat="46.47306" lon="5.65865">
        <ele>570</ele>
        <time>2022-02-28T12:27:33Z</time>
      </trkpt>
      <trkpt lat="46.47308" lon="5.65862">
        <ele>570</ele>
        <time>2022-02-28T12:27:34Z</time>
      </trkpt>
      <trkpt lat="46.47311" lon="5.65857">
        <ele>570</ele>
        <time>2022-02-28T12:27:35Z</time>
      </trkpt>
      <trkpt lat="46.47314" lon="5.65852">
        <ele>570.4</ele>
        <time>2022-02-28T12:27:36Z</time>
      </trkpt>
      <trkpt lat="46.47317" lon="5.65847">
        <ele>570.4</ele>
        <time>2022-02-28T12:27:37Z</time>
      </trkpt>
      <trkpt lat="46.4732" lon="5.65843">
        <ele>570.4</ele>
        <time>2022-02-28T12:27:38Z</time>
      </trkpt>
      <trkpt lat="46.47325" lon="5.65836">
        <ele>570.4</ele>
        <time>2022-02-28T12:27:39Z</time>
      </trkpt>
      <trkpt lat="46.47327" lon="5.65834">
        <ele>570.4</ele>
        <time>2022-02-28T12:27:40Z</time>
      </trkpt>
      <trkpt lat="46.4733" lon="5.6583">
        <ele>570.4</ele>
        <time>2022-02-28T12:27:41Z</time>
      </trkpt>
      <trkpt lat="46.47333" lon="5.65826">
        <ele>570.4</ele>
        <time>2022-02-28T12:27:42Z</time>
      </trkpt>
      <trkpt lat="46.47337" lon="5.65822">
        <ele>570.4</ele>
        <time>2022-02-28T12:27:43Z</time>
      </trkpt>
      <trkpt lat="46.4734" lon="5.65818">
        <ele>570.4</ele>
        <time>2022-02-28T12:27:44Z</time>
      </trkpt>
      <trkpt lat="46.47344" lon="5.65814">
        <ele>570.4</ele>
        <time>2022-02-28T12:27:45Z</time>
      </trkpt>
      <trkpt lat="46.47347" lon="5.6581">
        <ele>570.4</ele>
        <time>2022-02-28T12:27:46Z</time>
      </trkpt>
      <trkpt lat="46.47351" lon="5.65806">
        <ele>570.4</ele>
        <time>2022-02-28T12:27:47Z</time>
      </trkpt>
      <trkpt lat="46.47354" lon="5.65802">
        <ele>570.4</ele>
        <time>2022-02-28T12:27:48Z</time>
      </trkpt>
      <trkpt lat="46.47358" lon="5.65797">
        <ele>570.4</ele>
        <time>2022-02-28T12:27:49Z</time>
      </trkpt>
      <trkpt lat="46.47362" lon="5.65792">
        <ele>570.4</ele>
        <time>2022-02-28T12:27:50Z</time>
      </trkpt>
      <trkpt lat="46.47364" lon="5.65786">
        <ele>570.4</ele>
        <time>2022-02-28T12:27:51Z</time>
      </trkpt>
      <trkpt lat="46.47366" lon="5.65779">
        <ele>570.4</ele>
        <time>2022-02-28T12:27:52Z</time>
      </trkpt>
      <trkpt lat="46.47367" lon="5.65772">
        <ele>570.4</ele>
        <time>2022-02-28T12:27:53Z</time>
      </trkpt>
      <trkpt lat="46.47368" lon="5.65765">
        <ele>570.4</ele>
        <time>2022-02-28T12:27:54Z</time>
      </trkpt>
      <trkpt lat="46.47369" lon="5.65757">
        <ele>570.6</ele>
        <time>2022-02-28T12:27:55Z</time>
      </trkpt>
      <trkpt lat="46.47369" lon="5.6575">
        <ele>570.6</ele>
        <time>2022-02-28T12:27:56Z</time>
      </trkpt>
      <trkpt lat="46.47369" lon="5.65742">
        <ele>570.6</ele>
        <time>2022-02-28T12:27:57Z</time>
      </trkpt>
      <trkpt lat="46.47369" lon="5.65735">
        <ele>570.8</ele>
        <time>2022-02-28T12:27:58Z</time>
      </trkpt>
      <trkpt lat="46.4737" lon="5.65727">
        <ele>570.8</ele>
        <time>2022-02-28T12:27:59Z</time>
      </trkpt>
      <trkpt lat="46.47371" lon="5.6572">
        <ele>571</ele>
        <time>2022-02-28T12:28:00Z</time>
      </trkpt>
      <trkpt lat="46.47371" lon="5.65713">
        <ele>571</ele>
        <time>2022-02-28T12:28:01Z</time>
      </trkpt>
      <trkpt lat="46.47371" lon="5.65706">
        <ele>571</ele>
        <time>2022-02-28T12:28:02Z</time>
      </trkpt>
      <trkpt lat="46.4737" lon="5.65698">
        <ele>571.2</ele>
        <time>2022-02-28T12:28:03Z</time>
      </trkpt>
      <trkpt lat="46.4737" lon="5.65691">
        <ele>571.2</ele>
        <time>2022-02-28T12:28:04Z</time>
      </trkpt>
      <trkpt lat="46.47367" lon="5.65681">
        <ele>571.2</ele>
        <time>2022-02-28T12:28:05Z</time>
      </trkpt>
      <trkpt lat="46.47365" lon="5.65678">
        <ele>571.4</ele>
        <time>2022-02-28T12:28:06Z</time>
      </trkpt>
      <trkpt lat="46.47362" lon="5.65673">
        <ele>571.4</ele>
        <time>2022-02-28T12:28:07Z</time>
      </trkpt>
      <trkpt lat="46.47358" lon="5.65669">
        <ele>571.4</ele>
        <time>2022-02-28T12:28:08Z</time>
      </trkpt>
      <trkpt lat="46.47353" lon="5.65666">
        <ele>571.4</ele>
        <time>2022-02-28T12:28:09Z</time>
      </trkpt>
      <trkpt lat="46.47348" lon="5.65663">
        <ele>571.4</ele>
        <time>2022-02-28T12:28:10Z</time>
      </trkpt>
      <trkpt lat="46.47341" lon="5.65661">
        <ele>571.2</ele>
        <time>2022-02-28T12:28:11Z</time>
      </trkpt>
      <trkpt lat="46.4733" lon="5.6566">
        <ele>571.2</ele>
        <time>2022-02-28T12:28:12Z</time>
      </trkpt>
      <trkpt lat="46.47326" lon="5.65659">
        <ele>570.8</ele>
        <time>2022-02-28T12:28:13Z</time>
      </trkpt>
      <trkpt lat="46.47318" lon="5.65659">
        <ele>570.8</ele>
        <time>2022-02-28T12:28:14Z</time>
      </trkpt>
      <trkpt lat="46.47311" lon="5.65659">
        <ele>570.8</ele>
        <time>2022-02-28T12:28:15Z</time>
      </trkpt>
      <trkpt lat="46.47303" lon="5.65659">
        <ele>570.8</ele>
        <time>2022-02-28T12:28:16Z</time>
      </trkpt>
      <trkpt lat="46.47296" lon="5.65658">
        <ele>570.4</ele>
        <time>2022-02-28T12:28:17Z</time>
      </trkpt>
      <trkpt lat="46.47286" lon="5.65653">
        <ele>570.4</ele>
        <time>2022-02-28T12:28:18Z</time>
      </trkpt>
      <trkpt lat="46.47283" lon="5.65652">
        <ele>570.4</ele>
        <time>2022-02-28T12:28:19Z</time>
      </trkpt>
      <trkpt lat="46.47276" lon="5.65648">
        <ele>570.4</ele>
        <time>2022-02-28T12:28:20Z</time>
      </trkpt>
      <trkpt lat="46.4727" lon="5.65643">
        <ele>570.4</ele>
        <time>2022-02-28T12:28:21Z</time>
      </trkpt>
      <trkpt lat="46.47264" lon="5.65638">
        <ele>570.4</ele>
        <time>2022-02-28T12:28:22Z</time>
      </trkpt>
      <trkpt lat="46.47258" lon="5.65632">
        <ele>570.4</ele>
        <time>2022-02-28T12:28:23Z</time>
      </trkpt>
      <trkpt lat="46.47253" lon="5.65627">
        <ele>570.4</ele>
        <time>2022-02-28T12:28:24Z</time>
      </trkpt>
      <trkpt lat="46.47248" lon="5.65623">
        <ele>570.4</ele>
        <time>2022-02-28T12:28:25Z</time>
      </trkpt>
      <trkpt lat="46.47243" lon="5.65618">
        <ele>570.8</ele>
        <time>2022-02-28T12:28:26Z</time>
      </trkpt>
      <trkpt lat="46.47237" lon="5.65615">
        <ele>570.8</ele>
        <time>2022-02-28T12:28:27Z</time>
      </trkpt>
      <trkpt lat="46.47232" lon="5.65612">
        <ele>571</ele>
        <time>2022-02-28T12:28:28Z</time>
      </trkpt>
      <trkpt lat="46.47226" lon="5.65609">
        <ele>571</ele>
        <time>2022-02-28T12:28:29Z</time>
      </trkpt>
      <trkpt lat="46.4722" lon="5.65607">
        <ele>571.2</ele>
        <time>2022-02-28T12:28:30Z</time>
      </trkpt>
      <trkpt lat="46.47214" lon="5.65606">
        <ele>571.2</ele>
        <time>2022-02-28T12:28:31Z</time>
      </trkpt>
      <trkpt lat="46.47208" lon="5.65605">
        <ele>571.2</ele>
        <time>2022-02-28T12:28:32Z</time>
      </trkpt>
      <trkpt lat="46.47201" lon="5.65604">
        <ele>571.2</ele>
        <time>2022-02-28T12:28:33Z</time>
      </trkpt>
      <trkpt lat="46.47195" lon="5.65604">
        <ele>571.2</ele>
        <time>2022-02-28T12:28:34Z</time>
      </trkpt>
      <trkpt lat="46.47189" lon="5.65603">
        <ele>571.2</ele>
        <time>2022-02-28T12:28:35Z</time>
      </trkpt>
      <trkpt lat="46.47182" lon="5.65602">
        <ele>571.2</ele>
        <time>2022-02-28T12:28:36Z</time>
      </trkpt>
      <trkpt lat="46.47176" lon="5.65602">
        <ele>571.4</ele>
        <time>2022-02-28T12:28:37Z</time>
      </trkpt>
      <trkpt lat="46.4717" lon="5.65601">
        <ele>571.4</ele>
        <time>2022-02-28T12:28:38Z</time>
      </trkpt>
      <trkpt lat="46.47164" lon="5.656">
        <ele>571.4</ele>
        <time>2022-02-28T12:28:39Z</time>
      </trkpt>
      <trkpt lat="46.47157" lon="5.65599">
        <ele>571.8</ele>
        <time>2022-02-28T12:28:40Z</time>
      </trkpt>
      <trkpt lat="46.47148" lon="5.65598">
        <ele>571.8</ele>
        <time>2022-02-28T12:28:41Z</time>
      </trkpt>
      <trkpt lat="46.47146" lon="5.65598">
        <ele>572</ele>
        <time>2022-02-28T12:28:42Z</time>
      </trkpt>
      <trkpt lat="46.4714" lon="5.65597">
        <ele>572</ele>
        <time>2022-02-28T12:28:43Z</time>
      </trkpt>
      <trkpt lat="46.47134" lon="5.65597">
        <ele>572.2</ele>
        <time>2022-02-28T12:28:44Z</time>
      </trkpt>
      <trkpt lat="46.47129" lon="5.65596">
        <ele>572.2</ele>
        <time>2022-02-28T12:28:45Z</time>
      </trkpt>
      <trkpt lat="46.47124" lon="5.65596">
        <ele>572.6</ele>
        <time>2022-02-28T12:28:46Z</time>
      </trkpt>
      <trkpt lat="46.47118" lon="5.65596">
        <ele>572.8</ele>
        <time>2022-02-28T12:28:47Z</time>
      </trkpt>
      <trkpt lat="46.47113" lon="5.65596">
        <ele>573</ele>
        <time>2022-02-28T12:28:48Z</time>
      </trkpt>
      <trkpt lat="46.47108" lon="5.65596">
        <ele>573.4</ele>
        <time>2022-02-28T12:28:49Z</time>
      </trkpt>
      <trkpt lat="46.47103" lon="5.65595">
        <ele>573.4</ele>
        <time>2022-02-28T12:28:50Z</time>
      </trkpt>
      <trkpt lat="46.47097" lon="5.65595">
        <ele>573.8</ele>
        <time>2022-02-28T12:28:51Z</time>
      </trkpt>
      <trkpt lat="46.47092" lon="5.65595">
        <ele>573.8</ele>
        <time>2022-02-28T12:28:52Z</time>
      </trkpt>
      <trkpt lat="46.47087" lon="5.65595">
        <ele>574.2</ele>
        <time>2022-02-28T12:28:53Z</time>
      </trkpt>
      <trkpt lat="46.47082" lon="5.65595">
        <ele>574.2</ele>
        <time>2022-02-28T12:28:54Z</time>
      </trkpt>
      <trkpt lat="46.47076" lon="5.65595">
        <ele>574.4</ele>
        <time>2022-02-28T12:28:55Z</time>
      </trkpt>
      <trkpt lat="46.4707" lon="5.65595">
        <ele>574.4</ele>
        <time>2022-02-28T12:28:56Z</time>
      </trkpt>
      <trkpt lat="46.47065" lon="5.65594">
        <ele>574.6</ele>
        <time>2022-02-28T12:28:57Z</time>
      </trkpt>
      <trkpt lat="46.47059" lon="5.65593">
        <ele>574.6</ele>
        <time>2022-02-28T12:28:58Z</time>
      </trkpt>
      <trkpt lat="46.47054" lon="5.65592">
        <ele>574.6</ele>
        <time>2022-02-28T12:28:59Z</time>
      </trkpt>
      <trkpt lat="46.47048" lon="5.65591">
        <ele>574.6</ele>
        <time>2022-02-28T12:29:00Z</time>
      </trkpt>
      <trkpt lat="46.47043" lon="5.65589">
        <ele>574.8</ele>
        <time>2022-02-28T12:29:01Z</time>
      </trkpt>
      <trkpt lat="46.47038" lon="5.65588">
        <ele>574.8</ele>
        <time>2022-02-28T12:29:02Z</time>
      </trkpt>
      <trkpt lat="46.47032" lon="5.65587">
        <ele>574.8</ele>
        <time>2022-02-28T12:29:03Z</time>
      </trkpt>
      <trkpt lat="46.47027" lon="5.65586">
        <ele>574.8</ele>
        <time>2022-02-28T12:29:04Z</time>
      </trkpt>
      <trkpt lat="46.47021" lon="5.65586">
        <ele>574.8</ele>
        <time>2022-02-28T12:29:05Z</time>
      </trkpt>
      <trkpt lat="46.47016" lon="5.65585">
        <ele>575</ele>
        <time>2022-02-28T12:29:06Z</time>
      </trkpt>
      <trkpt lat="46.47011" lon="5.65585">
        <ele>575</ele>
        <time>2022-02-28T12:29:07Z</time>
      </trkpt>
      <trkpt lat="46.47005" lon="5.65585">
        <ele>575</ele>
        <time>2022-02-28T12:29:08Z</time>
      </trkpt>
      <trkpt lat="46.47" lon="5.65585">
        <ele>575</ele>
        <time>2022-02-28T12:29:09Z</time>
      </trkpt>
      <trkpt lat="46.46995" lon="5.65585">
        <ele>575</ele>
        <time>2022-02-28T12:29:10Z</time>
      </trkpt>
      <trkpt lat="46.4699" lon="5.65586">
        <ele>575.4</ele>
        <time>2022-02-28T12:29:11Z</time>
      </trkpt>
      <trkpt lat="46.46985" lon="5.65586">
        <ele>575.4</ele>
        <time>2022-02-28T12:29:12Z</time>
      </trkpt>
      <trkpt lat="46.4698" lon="5.65587">
        <ele>575.4</ele>
        <time>2022-02-28T12:29:13Z</time>
      </trkpt>
      <trkpt lat="46.46975" lon="5.65588">
        <ele>575.6</ele>
        <time>2022-02-28T12:29:14Z</time>
      </trkpt>
      <trkpt lat="46.4697" lon="5.65588">
        <ele>575.6</ele>
        <time>2022-02-28T12:29:15Z</time>
      </trkpt>
      <trkpt lat="46.46965" lon="5.65589">
        <ele>575.8</ele>
        <time>2022-02-28T12:29:16Z</time>
      </trkpt>
      <trkpt lat="46.4696" lon="5.6559">
        <ele>575.8</ele>
        <time>2022-02-28T12:29:17Z</time>
      </trkpt>
      <trkpt lat="46.46955" lon="5.6559">
        <ele>576</ele>
        <time>2022-02-28T12:29:18Z</time>
      </trkpt>
      <trkpt lat="46.4695" lon="5.65591">
        <ele>576</ele>
        <time>2022-02-28T12:29:19Z</time>
      </trkpt>
      <trkpt lat="46.46945" lon="5.65592">
        <ele>576</ele>
        <time>2022-02-28T12:29:20Z</time>
      </trkpt>
      <trkpt lat="46.4694" lon="5.65593">
        <ele>576</ele>
        <time>2022-02-28T12:29:21Z</time>
      </trkpt>
      <trkpt lat="46.46934" lon="5.65595">
        <ele>576</ele>
        <time>2022-02-28T12:29:22Z</time>
      </trkpt>
      <trkpt lat="46.46929" lon="5.65596">
        <ele>576</ele>
        <time>2022-02-28T12:29:23Z</time>
      </trkpt>
      <trkpt lat="46.46923" lon="5.65597">
        <ele>576</ele>
        <time>2022-02-28T12:29:24Z</time>
      </trkpt>
      <trkpt lat="46.46917" lon="5.65598">
        <ele>576</ele>
        <time>2022-02-28T12:29:25Z</time>
      </trkpt>
      <trkpt lat="46.46911" lon="5.65599">
        <ele>576</ele>
        <time>2022-02-28T12:29:26Z</time>
      </trkpt>
      <trkpt lat="46.46905" lon="5.656">
        <ele>576</ele>
        <time>2022-02-28T12:29:27Z</time>
      </trkpt>
      <trkpt lat="46.46899" lon="5.65601">
        <ele>576</ele>
        <time>2022-02-28T12:29:28Z</time>
      </trkpt>
      <trkpt lat="46.46893" lon="5.65602">
        <ele>576</ele>
        <time>2022-02-28T12:29:29Z</time>
      </trkpt>
      <trkpt lat="46.46887" lon="5.65602">
        <ele>576</ele>
        <time>2022-02-28T12:29:30Z</time>
      </trkpt>
      <trkpt lat="46.4688" lon="5.65603">
        <ele>576</ele>
        <time>2022-02-28T12:29:31Z</time>
      </trkpt>
      <trkpt lat="46.46874" lon="5.65603">
        <ele>576</ele>
        <time>2022-02-28T12:29:32Z</time>
      </trkpt>
      <trkpt lat="46.46867" lon="5.65604">
        <ele>576</ele>
        <time>2022-02-28T12:29:33Z</time>
      </trkpt>
      <trkpt lat="46.46861" lon="5.65604">
        <ele>576</ele>
        <time>2022-02-28T12:29:34Z</time>
      </trkpt>
      <trkpt lat="46.46854" lon="5.65605">
        <ele>576</ele>
        <time>2022-02-28T12:29:35Z</time>
      </trkpt>
      <trkpt lat="46.46847" lon="5.65605">
        <ele>576</ele>
        <time>2022-02-28T12:29:36Z</time>
      </trkpt>
      <trkpt lat="46.46841" lon="5.65605">
        <ele>576</ele>
        <time>2022-02-28T12:29:37Z</time>
      </trkpt>
      <trkpt lat="46.46834" lon="5.65606">
        <ele>576</ele>
        <time>2022-02-28T12:29:38Z</time>
      </trkpt>
      <trkpt lat="46.46828" lon="5.65607">
        <ele>576</ele>
        <time>2022-02-28T12:29:39Z</time>
      </trkpt>
      <trkpt lat="46.46821" lon="5.65607">
        <ele>576</ele>
        <time>2022-02-28T12:29:40Z</time>
      </trkpt>
      <trkpt lat="46.46815" lon="5.65608">
        <ele>576</ele>
        <time>2022-02-28T12:29:41Z</time>
      </trkpt>
      <trkpt lat="46.46805" lon="5.6561">
        <ele>576</ele>
        <time>2022-02-28T12:29:42Z</time>
      </trkpt>
      <trkpt lat="46.46802" lon="5.65611">
        <ele>576</ele>
        <time>2022-02-28T12:29:43Z</time>
      </trkpt>
      <trkpt lat="46.46795" lon="5.65612">
        <ele>576</ele>
        <time>2022-02-28T12:29:44Z</time>
      </trkpt>
      <trkpt lat="46.46789" lon="5.65614">
        <ele>576</ele>
        <time>2022-02-28T12:29:45Z</time>
      </trkpt>
      <trkpt lat="46.46783" lon="5.65616">
        <ele>576</ele>
        <time>2022-02-28T12:29:46Z</time>
      </trkpt>
      <trkpt lat="46.46777" lon="5.65617">
        <ele>576</ele>
        <time>2022-02-28T12:29:47Z</time>
      </trkpt>
      <trkpt lat="46.46769" lon="5.6562">
        <ele>576</ele>
        <time>2022-02-28T12:29:48Z</time>
      </trkpt>
      <trkpt lat="46.46766" lon="5.65621">
        <ele>576</ele>
        <time>2022-02-28T12:29:49Z</time>
      </trkpt>
      <trkpt lat="46.4676" lon="5.65622">
        <ele>576</ele>
        <time>2022-02-28T12:29:50Z</time>
      </trkpt>
      <trkpt lat="46.46755" lon="5.65623">
        <ele>576</ele>
        <time>2022-02-28T12:29:51Z</time>
      </trkpt>
      <trkpt lat="46.46749" lon="5.65625">
        <ele>576.2</ele>
        <time>2022-02-28T12:29:52Z</time>
      </trkpt>
      <trkpt lat="46.46744" lon="5.65626">
        <ele>576.2</ele>
        <time>2022-02-28T12:29:53Z</time>
      </trkpt>
      <trkpt lat="46.46738" lon="5.65628">
        <ele>576.2</ele>
        <time>2022-02-28T12:29:54Z</time>
      </trkpt>
      <trkpt lat="46.46733" lon="5.65629">
        <ele>576.4</ele>
        <time>2022-02-28T12:29:55Z</time>
      </trkpt>
      <trkpt lat="46.46727" lon="5.6563">
        <ele>576.4</ele>
        <time>2022-02-28T12:29:56Z</time>
      </trkpt>
      <trkpt lat="46.46722" lon="5.65631">
        <ele>576.4</ele>
        <time>2022-02-28T12:29:57Z</time>
      </trkpt>
      <trkpt lat="46.46716" lon="5.65632">
        <ele>576.4</ele>
        <time>2022-02-28T12:29:58Z</time>
      </trkpt>
      <trkpt lat="46.46711" lon="5.65633">
        <ele>576.4</ele>
        <time>2022-02-28T12:29:59Z</time>
      </trkpt>
      <trkpt lat="46.46705" lon="5.65634">
        <ele>576.4</ele>
        <time>2022-02-28T12:30:00Z</time>
      </trkpt>
      <trkpt lat="46.46699" lon="5.65635">
        <ele>576.6</ele>
        <time>2022-02-28T12:30:01Z</time>
      </trkpt>
      <trkpt lat="46.46694" lon="5.65636">
        <ele>576.6</ele>
        <time>2022-02-28T12:30:02Z</time>
      </trkpt>
      <trkpt lat="46.46688" lon="5.65637">
        <ele>576.6</ele>
        <time>2022-02-28T12:30:03Z</time>
      </trkpt>
      <trkpt lat="46.46682" lon="5.65638">
        <ele>576.6</ele>
        <time>2022-02-28T12:30:04Z</time>
      </trkpt>
      <trkpt lat="46.46676" lon="5.65638">
        <ele>576.6</ele>
        <time>2022-02-28T12:30:05Z</time>
      </trkpt>
      <trkpt lat="46.46667" lon="5.65639">
        <ele>576.6</ele>
        <time>2022-02-28T12:30:06Z</time>
      </trkpt>
      <trkpt lat="46.46664" lon="5.65639">
        <ele>576.6</ele>
        <time>2022-02-28T12:30:07Z</time>
      </trkpt>
      <trkpt lat="46.46658" lon="5.65639">
        <ele>576.6</ele>
        <time>2022-02-28T12:30:08Z</time>
      </trkpt>
      <trkpt lat="46.46652" lon="5.65639">
        <ele>576.6</ele>
        <time>2022-02-28T12:30:09Z</time>
      </trkpt>
      <trkpt lat="46.46646" lon="5.6564">
        <ele>576.6</ele>
        <time>2022-02-28T12:30:10Z</time>
      </trkpt>
      <trkpt lat="46.46639" lon="5.6564">
        <ele>576.6</ele>
        <time>2022-02-28T12:30:11Z</time>
      </trkpt>
      <trkpt lat="46.46629" lon="5.6564">
        <ele>576.6</ele>
        <time>2022-02-28T12:30:12Z</time>
      </trkpt>
      <trkpt lat="46.46626" lon="5.6564">
        <ele>576.6</ele>
        <time>2022-02-28T12:30:13Z</time>
      </trkpt>
      <trkpt lat="46.4662" lon="5.6564">
        <ele>576.6</ele>
        <time>2022-02-28T12:30:14Z</time>
      </trkpt>
      <trkpt lat="46.46613" lon="5.6564">
        <ele>576.6</ele>
        <time>2022-02-28T12:30:15Z</time>
      </trkpt>
      <trkpt lat="46.46606" lon="5.65641">
        <ele>576.6</ele>
        <time>2022-02-28T12:30:16Z</time>
      </trkpt>
      <trkpt lat="46.466" lon="5.65642">
        <ele>576.6</ele>
        <time>2022-02-28T12:30:17Z</time>
      </trkpt>
      <trkpt lat="46.46593" lon="5.65642">
        <ele>576.4</ele>
        <time>2022-02-28T12:30:18Z</time>
      </trkpt>
      <trkpt lat="46.46585" lon="5.65643">
        <ele>576.4</ele>
        <time>2022-02-28T12:30:19Z</time>
      </trkpt>
      <trkpt lat="46.46578" lon="5.65644">
        <ele>576.2</ele>
        <time>2022-02-28T12:30:20Z</time>
      </trkpt>
      <trkpt lat="46.46571" lon="5.65645">
        <ele>576.2</ele>
        <time>2022-02-28T12:30:21Z</time>
      </trkpt>
      <trkpt lat="46.46563" lon="5.65646">
        <ele>576.2</ele>
        <time>2022-02-28T12:30:22Z</time>
      </trkpt>
      <trkpt lat="46.46556" lon="5.65647">
        <ele>575.8</ele>
        <time>2022-02-28T12:30:23Z</time>
      </trkpt>
      <trkpt lat="46.46548" lon="5.65648">
        <ele>575.8</ele>
        <time>2022-02-28T12:30:24Z</time>
      </trkpt>
      <trkpt lat="46.4654" lon="5.65649">
        <ele>575.6</ele>
        <time>2022-02-28T12:30:25Z</time>
      </trkpt>
      <trkpt lat="46.46532" lon="5.65649">
        <ele>575.6</ele>
        <time>2022-02-28T12:30:26Z</time>
      </trkpt>
      <trkpt lat="46.46523" lon="5.65649">
        <ele>575.2</ele>
        <time>2022-02-28T12:30:27Z</time>
      </trkpt>
      <trkpt lat="46.46515" lon="5.65647">
        <ele>575</ele>
        <time>2022-02-28T12:30:28Z</time>
      </trkpt>
      <trkpt lat="46.46506" lon="5.65645">
        <ele>574.8</ele>
        <time>2022-02-28T12:30:29Z</time>
      </trkpt>
      <trkpt lat="46.46498" lon="5.65642">
        <ele>574.8</ele>
        <time>2022-02-28T12:30:30Z</time>
      </trkpt>
      <trkpt lat="46.4649" lon="5.65638">
        <ele>574.4</ele>
        <time>2022-02-28T12:30:31Z</time>
      </trkpt>
      <trkpt lat="46.46483" lon="5.65632">
        <ele>574.4</ele>
        <time>2022-02-28T12:30:32Z</time>
      </trkpt>
      <trkpt lat="46.46476" lon="5.65626">
        <ele>574</ele>
        <time>2022-02-28T12:30:33Z</time>
      </trkpt>
      <trkpt lat="46.46469" lon="5.65621">
        <ele>574</ele>
        <time>2022-02-28T12:30:34Z</time>
      </trkpt>
      <trkpt lat="46.46462" lon="5.65615">
        <ele>574</ele>
        <time>2022-02-28T12:30:35Z</time>
      </trkpt>
      <trkpt lat="46.46455" lon="5.6561">
        <ele>574</ele>
        <time>2022-02-28T12:30:36Z</time>
      </trkpt>
      <trkpt lat="46.46447" lon="5.65606">
        <ele>574</ele>
        <time>2022-02-28T12:30:37Z</time>
      </trkpt>
      <trkpt lat="46.46439" lon="5.65603">
        <ele>574</ele>
        <time>2022-02-28T12:30:38Z</time>
      </trkpt>
      <trkpt lat="46.46431" lon="5.65602">
        <ele>573.8</ele>
        <time>2022-02-28T12:30:39Z</time>
      </trkpt>
      <trkpt lat="46.46423" lon="5.65601">
        <ele>573.8</ele>
        <time>2022-02-28T12:30:40Z</time>
      </trkpt>
      <trkpt lat="46.46414" lon="5.65601">
        <ele>573.4</ele>
        <time>2022-02-28T12:30:41Z</time>
      </trkpt>
      <trkpt lat="46.46406" lon="5.656">
        <ele>573.2</ele>
        <time>2022-02-28T12:30:42Z</time>
      </trkpt>
      <trkpt lat="46.46397" lon="5.656">
        <ele>573.2</ele>
        <time>2022-02-28T12:30:43Z</time>
      </trkpt>
      <trkpt lat="46.46388" lon="5.65599">
        <ele>572.8</ele>
        <time>2022-02-28T12:30:44Z</time>
      </trkpt>
      <trkpt lat="46.46379" lon="5.65596">
        <ele>572.8</ele>
        <time>2022-02-28T12:30:45Z</time>
      </trkpt>
      <trkpt lat="46.46371" lon="5.65594">
        <ele>572.8</ele>
        <time>2022-02-28T12:30:46Z</time>
      </trkpt>
      <trkpt lat="46.46359" lon="5.65589">
        <ele>572.6</ele>
        <time>2022-02-28T12:30:47Z</time>
      </trkpt>
      <trkpt lat="46.46354" lon="5.65587">
        <ele>572.6</ele>
        <time>2022-02-28T12:30:48Z</time>
      </trkpt>
      <trkpt lat="46.46343" lon="5.6558">
        <ele>572.6</ele>
        <time>2022-02-28T12:30:49Z</time>
      </trkpt>
      <trkpt lat="46.4634" lon="5.65576">
        <ele>572.4</ele>
        <time>2022-02-28T12:30:50Z</time>
      </trkpt>
      <trkpt lat="46.46333" lon="5.65569">
        <ele>572.4</ele>
        <time>2022-02-28T12:30:51Z</time>
      </trkpt>
      <trkpt lat="46.46327" lon="5.6556">
        <ele>572.4</ele>
        <time>2022-02-28T12:30:52Z</time>
      </trkpt>
      <trkpt lat="46.46323" lon="5.65551">
        <ele>572.4</ele>
        <time>2022-02-28T12:30:53Z</time>
      </trkpt>
      <trkpt lat="46.46318" lon="5.65541">
        <ele>572.4</ele>
        <time>2022-02-28T12:30:54Z</time>
      </trkpt>
      <trkpt lat="46.46314" lon="5.65532">
        <ele>572.4</ele>
        <time>2022-02-28T12:30:55Z</time>
      </trkpt>
      <trkpt lat="46.4631" lon="5.65522">
        <ele>572.6</ele>
        <time>2022-02-28T12:30:56Z</time>
      </trkpt>
      <trkpt lat="46.46306" lon="5.65514">
        <ele>572.6</ele>
        <time>2022-02-28T12:30:57Z</time>
      </trkpt>
      <trkpt lat="46.46301" lon="5.65506">
        <ele>572.6</ele>
        <time>2022-02-28T12:30:58Z</time>
      </trkpt>
      <trkpt lat="46.46296" lon="5.65499">
        <ele>572.8</ele>
        <time>2022-02-28T12:30:59Z</time>
      </trkpt>
      <trkpt lat="46.4629" lon="5.65493">
        <ele>572.8</ele>
        <time>2022-02-28T12:31:00Z</time>
      </trkpt>
      <trkpt lat="46.46284" lon="5.65489">
        <ele>573.2</ele>
        <time>2022-02-28T12:31:01Z</time>
      </trkpt>
      <trkpt lat="46.46278" lon="5.65486">
        <ele>573.2</ele>
        <time>2022-02-28T12:31:02Z</time>
      </trkpt>
      <trkpt lat="46.46271" lon="5.65483">
        <ele>573.2</ele>
        <time>2022-02-28T12:31:03Z</time>
      </trkpt>
      <trkpt lat="46.46265" lon="5.65481">
        <ele>573.4</ele>
        <time>2022-02-28T12:31:04Z</time>
      </trkpt>
      <trkpt lat="46.46258" lon="5.65479">
        <ele>573.4</ele>
        <time>2022-02-28T12:31:05Z</time>
      </trkpt>
      <trkpt lat="46.46251" lon="5.65478">
        <ele>573.4</ele>
        <time>2022-02-28T12:31:06Z</time>
      </trkpt>
      <trkpt lat="46.46244" lon="5.65477">
        <ele>573.4</ele>
        <time>2022-02-28T12:31:07Z</time>
      </trkpt>
      <trkpt lat="46.46238" lon="5.65476">
        <ele>573.6</ele>
        <time>2022-02-28T12:31:08Z</time>
      </trkpt>
      <trkpt lat="46.46231" lon="5.65475">
        <ele>573.6</ele>
        <time>2022-02-28T12:31:09Z</time>
      </trkpt>
      <trkpt lat="46.46224" lon="5.65475">
        <ele>573.6</ele>
        <time>2022-02-28T12:31:10Z</time>
      </trkpt>
      <trkpt lat="46.46218" lon="5.65474">
        <ele>573.6</ele>
        <time>2022-02-28T12:31:11Z</time>
      </trkpt>
      <trkpt lat="46.46211" lon="5.65473">
        <ele>574</ele>
        <time>2022-02-28T12:31:12Z</time>
      </trkpt>
      <trkpt lat="46.46205" lon="5.65473">
        <ele>574</ele>
        <time>2022-02-28T12:31:13Z</time>
      </trkpt>
      <trkpt lat="46.46198" lon="5.65473">
        <ele>574.2</ele>
        <time>2022-02-28T12:31:14Z</time>
      </trkpt>
      <trkpt lat="46.46186" lon="5.65471">
        <ele>574.2</ele>
        <time>2022-02-28T12:31:15Z</time>
      </trkpt>
      <trkpt lat="46.4618" lon="5.6547">
        <ele>574.2</ele>
        <time>2022-02-28T12:31:16Z</time>
      </trkpt>
      <trkpt lat="46.46174" lon="5.65469">
        <ele>574.6</ele>
        <time>2022-02-28T12:31:17Z</time>
      </trkpt>
      <trkpt lat="46.46168" lon="5.65468">
        <ele>574.6</ele>
        <time>2022-02-28T12:31:18Z</time>
      </trkpt>
      <trkpt lat="46.46162" lon="5.65466">
        <ele>574.8</ele>
        <time>2022-02-28T12:31:19Z</time>
      </trkpt>
      <trkpt lat="46.46156" lon="5.65465">
        <ele>574.8</ele>
        <time>2022-02-28T12:31:20Z</time>
      </trkpt>
      <trkpt lat="46.4615" lon="5.65464">
        <ele>575</ele>
        <time>2022-02-28T12:31:21Z</time>
      </trkpt>
      <trkpt lat="46.46144" lon="5.65463">
        <ele>575</ele>
        <time>2022-02-28T12:31:22Z</time>
      </trkpt>
      <trkpt lat="46.46139" lon="5.65463">
        <ele>575</ele>
        <time>2022-02-28T12:31:23Z</time>
      </trkpt>
      <trkpt lat="46.46133" lon="5.65462">
        <ele>575.2</ele>
        <time>2022-02-28T12:31:24Z</time>
      </trkpt>
      <trkpt lat="46.46127" lon="5.65461">
        <ele>575.2</ele>
        <time>2022-02-28T12:31:25Z</time>
      </trkpt>
      <trkpt lat="46.46122" lon="5.65461">
        <ele>575.4</ele>
        <time>2022-02-28T12:31:26Z</time>
      </trkpt>
      <trkpt lat="46.46122" lon="5.65461">
        <ele>575.4</ele>
        <time>2022-02-28T12:31:27Z</time>
      </trkpt>
      <trkpt lat="46.46116" lon="5.6546">
        <ele>575.4</ele>
        <time>2022-02-28T12:31:28Z</time>
      </trkpt>
      <trkpt lat="46.4611" lon="5.6546">
        <ele>575.4</ele>
        <time>2022-02-28T12:31:29Z</time>
      </trkpt>
      <trkpt lat="46.46105" lon="5.6546">
        <ele>575.6</ele>
        <time>2022-02-28T12:31:30Z</time>
      </trkpt>
      <trkpt lat="46.46099" lon="5.6546">
        <ele>575.6</ele>
        <time>2022-02-28T12:31:31Z</time>
      </trkpt>
      <trkpt lat="46.46094" lon="5.65459">
        <ele>575.6</ele>
        <time>2022-02-28T12:31:32Z</time>
      </trkpt>
      <trkpt lat="46.46088" lon="5.65459">
        <ele>575.8</ele>
        <time>2022-02-28T12:31:33Z</time>
      </trkpt>
      <trkpt lat="46.46083" lon="5.65458">
        <ele>575.8</ele>
        <time>2022-02-28T12:31:34Z</time>
      </trkpt>
      <trkpt lat="46.46077" lon="5.65458">
        <ele>575.8</ele>
        <time>2022-02-28T12:31:35Z</time>
      </trkpt>
      <trkpt lat="46.46072" lon="5.65457">
        <ele>576.2</ele>
        <time>2022-02-28T12:31:36Z</time>
      </trkpt>
      <trkpt lat="46.46066" lon="5.65457">
        <ele>576.2</ele>
        <time>2022-02-28T12:31:37Z</time>
      </trkpt>
      <trkpt lat="46.46061" lon="5.65457">
        <ele>576.2</ele>
        <time>2022-02-28T12:31:38Z</time>
      </trkpt>
      <trkpt lat="46.46056" lon="5.65456">
        <ele>576.4</ele>
        <time>2022-02-28T12:31:39Z</time>
      </trkpt>
      <trkpt lat="46.4605" lon="5.65456">
        <ele>576.6</ele>
        <time>2022-02-28T12:31:40Z</time>
      </trkpt>
      <trkpt lat="46.46045" lon="5.65456">
        <ele>576.6</ele>
        <time>2022-02-28T12:31:41Z</time>
      </trkpt>
      <trkpt lat="46.4604" lon="5.65455">
        <ele>576.8</ele>
        <time>2022-02-28T12:31:42Z</time>
      </trkpt>
      <trkpt lat="46.46035" lon="5.65455">
        <ele>576.8</ele>
        <time>2022-02-28T12:31:43Z</time>
      </trkpt>
      <trkpt lat="46.4603" lon="5.65454">
        <ele>577.2</ele>
        <time>2022-02-28T12:31:44Z</time>
      </trkpt>
      <trkpt lat="46.46025" lon="5.65454">
        <ele>577.4</ele>
        <time>2022-02-28T12:31:45Z</time>
      </trkpt>
      <trkpt lat="46.4602" lon="5.65454">
        <ele>577.4</ele>
        <time>2022-02-28T12:31:46Z</time>
      </trkpt>
      <trkpt lat="46.46015" lon="5.65453">
        <ele>577.8</ele>
        <time>2022-02-28T12:31:47Z</time>
      </trkpt>
      <trkpt lat="46.4601" lon="5.65452">
        <ele>578</ele>
        <time>2022-02-28T12:31:48Z</time>
      </trkpt>
      <trkpt lat="46.46005" lon="5.6545">
        <ele>578.2</ele>
        <time>2022-02-28T12:31:49Z</time>
      </trkpt>
      <trkpt lat="46.46001" lon="5.6545">
        <ele>578.2</ele>
        <time>2022-02-28T12:31:50Z</time>
      </trkpt>
      <trkpt lat="46.45996" lon="5.65449">
        <ele>578.4</ele>
        <time>2022-02-28T12:31:51Z</time>
      </trkpt>
      <trkpt lat="46.45991" lon="5.65447">
        <ele>578.4</ele>
        <time>2022-02-28T12:31:52Z</time>
      </trkpt>
      <trkpt lat="46.45987" lon="5.65445">
        <ele>578.6</ele>
        <time>2022-02-28T12:31:53Z</time>
      </trkpt>
      <trkpt lat="46.45982" lon="5.65442">
        <ele>578.6</ele>
        <time>2022-02-28T12:31:54Z</time>
      </trkpt>
      <trkpt lat="46.45977" lon="5.65439">
        <ele>579</ele>
        <time>2022-02-28T12:31:55Z</time>
      </trkpt>
      <trkpt lat="46.45972" lon="5.65437">
        <ele>579.2</ele>
        <time>2022-02-28T12:31:56Z</time>
      </trkpt>
      <trkpt lat="46.45967" lon="5.65433">
        <ele>579.2</ele>
        <time>2022-02-28T12:31:57Z</time>
      </trkpt>
      <trkpt lat="46.4596" lon="5.65428">
        <ele>579.6</ele>
        <time>2022-02-28T12:31:58Z</time>
      </trkpt>
      <trkpt lat="46.45957" lon="5.65426">
        <ele>579.8</ele>
        <time>2022-02-28T12:31:59Z</time>
      </trkpt>
      <trkpt lat="46.45953" lon="5.65422">
        <ele>580</ele>
        <time>2022-02-28T12:32:00Z</time>
      </trkpt>
      <trkpt lat="46.45948" lon="5.65419">
        <ele>580</ele>
        <time>2022-02-28T12:32:01Z</time>
      </trkpt>
      <trkpt lat="46.45943" lon="5.65415">
        <ele>580.4</ele>
        <time>2022-02-28T12:32:02Z</time>
      </trkpt>
      <trkpt lat="46.45938" lon="5.65412">
        <ele>580.6</ele>
        <time>2022-02-28T12:32:03Z</time>
      </trkpt>
      <trkpt lat="46.45933" lon="5.65409">
        <ele>580.6</ele>
        <time>2022-02-28T12:32:04Z</time>
      </trkpt>
      <trkpt lat="46.45927" lon="5.65407">
        <ele>580.8</ele>
        <time>2022-02-28T12:32:05Z</time>
      </trkpt>
      <trkpt lat="46.45922" lon="5.65404">
        <ele>580.8</ele>
        <time>2022-02-28T12:32:06Z</time>
      </trkpt>
      <trkpt lat="46.45917" lon="5.65402">
        <ele>581</ele>
        <time>2022-02-28T12:32:07Z</time>
      </trkpt>
      <trkpt lat="46.45912" lon="5.654">
        <ele>581</ele>
        <time>2022-02-28T12:32:08Z</time>
      </trkpt>
      <trkpt lat="46.45907" lon="5.65398">
        <ele>581.2</ele>
        <time>2022-02-28T12:32:09Z</time>
      </trkpt>
      <trkpt lat="46.45902" lon="5.65397">
        <ele>581.2</ele>
        <time>2022-02-28T12:32:10Z</time>
      </trkpt>
      <trkpt lat="46.45897" lon="5.65395">
        <ele>581.6</ele>
        <time>2022-02-28T12:32:11Z</time>
      </trkpt>
      <trkpt lat="46.45892" lon="5.65394">
        <ele>581.6</ele>
        <time>2022-02-28T12:32:12Z</time>
      </trkpt>
      <trkpt lat="46.45888" lon="5.65393">
        <ele>581.8</ele>
        <time>2022-02-28T12:32:13Z</time>
      </trkpt>
      <trkpt lat="46.45883" lon="5.65392">
        <ele>581.8</ele>
        <time>2022-02-28T12:32:14Z</time>
      </trkpt>
      <trkpt lat="46.45879" lon="5.65391">
        <ele>582</ele>
        <time>2022-02-28T12:32:15Z</time>
      </trkpt>
      <trkpt lat="46.45876" lon="5.6539">
        <ele>582</ele>
        <time>2022-02-28T12:32:16Z</time>
      </trkpt>
      <trkpt lat="46.45872" lon="5.65389">
        <ele>582.4</ele>
        <time>2022-02-28T12:32:17Z</time>
      </trkpt>
      <trkpt lat="46.45869" lon="5.65388">
        <ele>582.4</ele>
        <time>2022-02-28T12:32:18Z</time>
      </trkpt>
      <trkpt lat="46.45866" lon="5.65387">
        <ele>582.6</ele>
        <time>2022-02-28T12:32:19Z</time>
      </trkpt>
      <trkpt lat="46.45863" lon="5.65386">
        <ele>582.6</ele>
        <time>2022-02-28T12:32:20Z</time>
      </trkpt>
      <trkpt lat="46.4586" lon="5.65386">
        <ele>582.8</ele>
        <time>2022-02-28T12:32:21Z</time>
      </trkpt>
      <trkpt lat="46.45858" lon="5.65386">
        <ele>582.8</ele>
        <time>2022-02-28T12:32:22Z</time>
      </trkpt>
      <trkpt lat="46.45856" lon="5.65385">
        <ele>583.2</ele>
        <time>2022-02-28T12:32:23Z</time>
      </trkpt>
      <trkpt lat="46.45854" lon="5.65384">
        <ele>583.2</ele>
        <time>2022-02-28T12:32:24Z</time>
      </trkpt>
      <trkpt lat="46.45854" lon="5.65384">
        <ele>583.2</ele>
        <time>2022-02-28T12:32:25Z</time>
      </trkpt>
      <trkpt lat="46.45854" lon="5.65384">
        <ele>583.4</ele>
        <time>2022-02-28T12:32:28Z</time>
      </trkpt>
      <trkpt lat="46.45854" lon="5.65384">
        <ele>583.4</ele>
        <time>2022-02-28T12:32:29Z</time>
      </trkpt>
      <trkpt lat="46.45854" lon="5.65384">
        <ele>583.4</ele>
        <time>2022-02-28T12:32:30Z</time>
      </trkpt>
      <trkpt lat="46.45854" lon="5.65384">
        <ele>583.4</ele>
        <time>2022-02-28T12:32:31Z</time>
      </trkpt>
      <trkpt lat="46.45854" lon="5.65384">
        <ele>583.6</ele>
        <time>2022-02-28T12:32:32Z</time>
      </trkpt>
      <trkpt lat="46.45854" lon="5.65384">
        <ele>583.6</ele>
        <time>2022-02-28T12:32:33Z</time>
      </trkpt>
      <trkpt lat="46.45854" lon="5.65384">
        <ele>583.8</ele>
        <time>2022-02-28T12:32:44Z</time>
      </trkpt>
      <trkpt lat="46.45854" lon="5.65384">
        <ele>583.8</ele>
        <time>2022-02-28T12:32:45Z</time>
      </trkpt>
      <trkpt lat="46.45854" lon="5.65384">
        <ele>583.8</ele>
        <time>2022-02-28T12:32:47Z</time>
      </trkpt>
      <trkpt lat="46.45851" lon="5.65385">
        <ele>583.8</ele>
        <time>2022-02-28T12:32:48Z</time>
      </trkpt>
      <trkpt lat="46.4585" lon="5.65385">
        <ele>583.8</ele>
        <time>2022-02-28T12:32:49Z</time>
      </trkpt>
      <trkpt lat="46.45848" lon="5.65385">
        <ele>583.8</ele>
        <time>2022-02-28T12:32:50Z</time>
      </trkpt>
      <trkpt lat="46.45846" lon="5.65386">
        <ele>583.8</ele>
        <time>2022-02-28T12:32:51Z</time>
      </trkpt>
      <trkpt lat="46.45844" lon="5.65385">
        <ele>583.8</ele>
        <time>2022-02-28T12:32:52Z</time>
      </trkpt>
      <trkpt lat="46.45842" lon="5.65385">
        <ele>583.8</ele>
        <time>2022-02-28T12:32:53Z</time>
      </trkpt>
      <trkpt lat="46.45842" lon="5.65385">
        <ele>584</ele>
        <time>2022-02-28T12:32:54Z</time>
      </trkpt>
      <trkpt lat="46.45838" lon="5.65385">
        <ele>584</ele>
        <time>2022-02-28T12:32:55Z</time>
      </trkpt>
      <trkpt lat="46.45836" lon="5.65385">
        <ele>584.2</ele>
        <time>2022-02-28T12:32:56Z</time>
      </trkpt>
      <trkpt lat="46.45833" lon="5.65385">
        <ele>584.2</ele>
        <time>2022-02-28T12:32:57Z</time>
      </trkpt>
      <trkpt lat="46.4583" lon="5.65384">
        <ele>584.6</ele>
        <time>2022-02-28T12:32:58Z</time>
      </trkpt>
      <trkpt lat="46.45827" lon="5.65384">
        <ele>584.6</ele>
        <time>2022-02-28T12:32:59Z</time>
      </trkpt>
      <trkpt lat="46.45823" lon="5.65384">
        <ele>584.6</ele>
        <time>2022-02-28T12:33:00Z</time>
      </trkpt>
      <trkpt lat="46.45819" lon="5.65384">
        <ele>584.8</ele>
        <time>2022-02-28T12:33:01Z</time>
      </trkpt>
      <trkpt lat="46.45815" lon="5.65384">
        <ele>584.8</ele>
        <time>2022-02-28T12:33:02Z</time>
      </trkpt>
      <trkpt lat="46.45811" lon="5.65384">
        <ele>585.2</ele>
        <time>2022-02-28T12:33:03Z</time>
      </trkpt>
      <trkpt lat="46.45807" lon="5.65384">
        <ele>585.2</ele>
        <time>2022-02-28T12:33:04Z</time>
      </trkpt>
      <trkpt lat="46.45803" lon="5.65384">
        <ele>585.4</ele>
        <time>2022-02-28T12:33:05Z</time>
      </trkpt>
      <trkpt lat="46.45799" lon="5.65384">
        <ele>585.4</ele>
        <time>2022-02-28T12:33:06Z</time>
      </trkpt>
      <trkpt lat="46.45795" lon="5.65383">
        <ele>585.6</ele>
        <time>2022-02-28T12:33:07Z</time>
      </trkpt>
      <trkpt lat="46.4579" lon="5.65383">
        <ele>585.6</ele>
        <time>2022-02-28T12:33:08Z</time>
      </trkpt>
      <trkpt lat="46.45786" lon="5.65383">
        <ele>585.6</ele>
        <time>2022-02-28T12:33:09Z</time>
      </trkpt>
      <trkpt lat="46.45781" lon="5.65383">
        <ele>585.8</ele>
        <time>2022-02-28T12:33:10Z</time>
      </trkpt>
      <trkpt lat="46.45777" lon="5.65383">
        <ele>585.8</ele>
        <time>2022-02-28T12:33:11Z</time>
      </trkpt>
      <trkpt lat="46.45772" lon="5.65382">
        <ele>585.8</ele>
        <time>2022-02-28T12:33:12Z</time>
      </trkpt>
      <trkpt lat="46.45767" lon="5.65382">
        <ele>585.8</ele>
        <time>2022-02-28T12:33:13Z</time>
      </trkpt>
      <trkpt lat="46.45763" lon="5.65382">
        <ele>586</ele>
        <time>2022-02-28T12:33:14Z</time>
      </trkpt>
      <trkpt lat="46.45757" lon="5.65382">
        <ele>586</ele>
        <time>2022-02-28T12:33:15Z</time>
      </trkpt>
      <trkpt lat="46.45752" lon="5.65382">
        <ele>586</ele>
        <time>2022-02-28T12:33:16Z</time>
      </trkpt>
      <trkpt lat="46.45747" lon="5.65381">
        <ele>586</ele>
        <time>2022-02-28T12:33:17Z</time>
      </trkpt>
      <trkpt lat="46.45742" lon="5.65381">
        <ele>586</ele>
        <time>2022-02-28T12:33:18Z</time>
      </trkpt>
      <trkpt lat="46.45736" lon="5.65381">
        <ele>586.4</ele>
        <time>2022-02-28T12:33:19Z</time>
      </trkpt>
      <trkpt lat="46.45731" lon="5.6538">
        <ele>586.4</ele>
        <time>2022-02-28T12:33:20Z</time>
      </trkpt>
      <trkpt lat="46.45726" lon="5.6538">
        <ele>586.6</ele>
        <time>2022-02-28T12:33:21Z</time>
      </trkpt>
      <trkpt lat="46.4572" lon="5.6538">
        <ele>586.6</ele>
        <time>2022-02-28T12:33:22Z</time>
      </trkpt>
      <trkpt lat="46.45715" lon="5.65381">
        <ele>586.6</ele>
        <time>2022-02-28T12:33:23Z</time>
      </trkpt>
      <trkpt lat="46.4571" lon="5.65381">
        <ele>586.8</ele>
        <time>2022-02-28T12:33:24Z</time>
      </trkpt>
      <trkpt lat="46.45705" lon="5.65381">
        <ele>586.8</ele>
        <time>2022-02-28T12:33:25Z</time>
      </trkpt>
      <trkpt lat="46.457" lon="5.65381">
        <ele>587.2</ele>
        <time>2022-02-28T12:33:26Z</time>
      </trkpt>
      <trkpt lat="46.45694" lon="5.65381">
        <ele>587.2</ele>
        <time>2022-02-28T12:33:27Z</time>
      </trkpt>
      <trkpt lat="46.4569" lon="5.65381">
        <ele>587.6</ele>
        <time>2022-02-28T12:33:28Z</time>
      </trkpt>
      <trkpt lat="46.45684" lon="5.6538">
        <ele>587.6</ele>
        <time>2022-02-28T12:33:29Z</time>
      </trkpt>
      <trkpt lat="46.45679" lon="5.6538">
        <ele>587.6</ele>
        <time>2022-02-28T12:33:30Z</time>
      </trkpt>
      <trkpt lat="46.45674" lon="5.6538">
        <ele>587.6</ele>
        <time>2022-02-28T12:33:31Z</time>
      </trkpt>
      <trkpt lat="46.4567" lon="5.65379">
        <ele>587.8</ele>
        <time>2022-02-28T12:33:32Z</time>
      </trkpt>
      <trkpt lat="46.45664" lon="5.65378">
        <ele>587.8</ele>
        <time>2022-02-28T12:33:33Z</time>
      </trkpt>
      <trkpt lat="46.4566" lon="5.65377">
        <ele>588.2</ele>
        <time>2022-02-28T12:33:34Z</time>
      </trkpt>
      <trkpt lat="46.45655" lon="5.65376">
        <ele>588.2</ele>
        <time>2022-02-28T12:33:35Z</time>
      </trkpt>
      <trkpt lat="46.4565" lon="5.65375">
        <ele>588.4</ele>
        <time>2022-02-28T12:33:36Z</time>
      </trkpt>
      <trkpt lat="46.45645" lon="5.65375">
        <ele>588.4</ele>
        <time>2022-02-28T12:33:37Z</time>
      </trkpt>
      <trkpt lat="46.4564" lon="5.65374">
        <ele>588.8</ele>
        <time>2022-02-28T12:33:38Z</time>
      </trkpt>
      <trkpt lat="46.45636" lon="5.65373">
        <ele>588.8</ele>
        <time>2022-02-28T12:33:39Z</time>
      </trkpt>
      <trkpt lat="46.45631" lon="5.65372">
        <ele>589.2</ele>
        <time>2022-02-28T12:33:40Z</time>
      </trkpt>
      <trkpt lat="46.45627" lon="5.65371">
        <ele>589.2</ele>
        <time>2022-02-28T12:33:41Z</time>
      </trkpt>
      <trkpt lat="46.45622" lon="5.65371">
        <ele>589.4</ele>
        <time>2022-02-28T12:33:42Z</time>
      </trkpt>
      <trkpt lat="46.45617" lon="5.6537">
        <ele>589.4</ele>
        <time>2022-02-28T12:33:43Z</time>
      </trkpt>
      <trkpt lat="46.45613" lon="5.65369">
        <ele>589.8</ele>
        <time>2022-02-28T12:33:44Z</time>
      </trkpt>
      <trkpt lat="46.45608" lon="5.65368">
        <ele>589.8</ele>
        <time>2022-02-28T12:33:45Z</time>
      </trkpt>
      <trkpt lat="46.45603" lon="5.65366">
        <ele>590</ele>
        <time>2022-02-28T12:33:46Z</time>
      </trkpt>
      <trkpt lat="46.45598" lon="5.65364">
        <ele>590</ele>
        <time>2022-02-28T12:33:47Z</time>
      </trkpt>
      <trkpt lat="46.45594" lon="5.65363">
        <ele>590.2</ele>
        <time>2022-02-28T12:33:48Z</time>
      </trkpt>
      <trkpt lat="46.45589" lon="5.6536">
        <ele>590.2</ele>
        <time>2022-02-28T12:33:49Z</time>
      </trkpt>
      <trkpt lat="46.45584" lon="5.65357">
        <ele>590.6</ele>
        <time>2022-02-28T12:33:50Z</time>
      </trkpt>
      <trkpt lat="46.4558" lon="5.65354">
        <ele>590.6</ele>
        <time>2022-02-28T12:33:51Z</time>
      </trkpt>
      <trkpt lat="46.45577" lon="5.6535">
        <ele>590.8</ele>
        <time>2022-02-28T12:33:52Z</time>
      </trkpt>
      <trkpt lat="46.45573" lon="5.65346">
        <ele>590.8</ele>
        <time>2022-02-28T12:33:53Z</time>
      </trkpt>
      <trkpt lat="46.45569" lon="5.65343">
        <ele>591</ele>
        <time>2022-02-28T12:33:54Z</time>
      </trkpt>
      <trkpt lat="46.45563" lon="5.65339">
        <ele>591.4</ele>
        <time>2022-02-28T12:33:55Z</time>
      </trkpt>
      <trkpt lat="46.45561" lon="5.65338">
        <ele>591.4</ele>
        <time>2022-02-28T12:33:56Z</time>
      </trkpt>
      <trkpt lat="46.45557" lon="5.65336">
        <ele>591.8</ele>
        <time>2022-02-28T12:33:57Z</time>
      </trkpt>
      <trkpt lat="46.45553" lon="5.65335">
        <ele>592</ele>
        <time>2022-02-28T12:33:58Z</time>
      </trkpt>
      <trkpt lat="46.45548" lon="5.65335">
        <ele>592.4</ele>
        <time>2022-02-28T12:33:59Z</time>
      </trkpt>
      <trkpt lat="46.45544" lon="5.65335">
        <ele>592.6</ele>
        <time>2022-02-28T12:34:00Z</time>
      </trkpt>
      <trkpt lat="46.4554" lon="5.65335">
        <ele>592.6</ele>
        <time>2022-02-28T12:34:01Z</time>
      </trkpt>
      <trkpt lat="46.45536" lon="5.65336">
        <ele>593</ele>
        <time>2022-02-28T12:34:02Z</time>
      </trkpt>
      <trkpt lat="46.45531" lon="5.65338">
        <ele>593</ele>
        <time>2022-02-28T12:34:03Z</time>
      </trkpt>
      <trkpt lat="46.45526" lon="5.6534">
        <ele>593</ele>
        <time>2022-02-28T12:34:04Z</time>
      </trkpt>
      <trkpt lat="46.45522" lon="5.65344">
        <ele>593</ele>
        <time>2022-02-28T12:34:05Z</time>
      </trkpt>
      <trkpt lat="46.45517" lon="5.65347">
        <ele>593</ele>
        <time>2022-02-28T12:34:06Z</time>
      </trkpt>
      <trkpt lat="46.45513" lon="5.65351">
        <ele>593</ele>
        <time>2022-02-28T12:34:07Z</time>
      </trkpt>
      <trkpt lat="46.45508" lon="5.65354">
        <ele>593</ele>
        <time>2022-02-28T12:34:08Z</time>
      </trkpt>
      <trkpt lat="46.45503" lon="5.65358">
        <ele>593.2</ele>
        <time>2022-02-28T12:34:09Z</time>
      </trkpt>
      <trkpt lat="46.45498" lon="5.65362">
        <ele>593.2</ele>
        <time>2022-02-28T12:34:10Z</time>
      </trkpt>
      <trkpt lat="46.45492" lon="5.65366">
        <ele>593.2</ele>
        <time>2022-02-28T12:34:11Z</time>
      </trkpt>
      <trkpt lat="46.45487" lon="5.6537">
        <ele>593.2</ele>
        <time>2022-02-28T12:34:12Z</time>
      </trkpt>
      <trkpt lat="46.45481" lon="5.65375">
        <ele>593</ele>
        <time>2022-02-28T12:34:13Z</time>
      </trkpt>
      <trkpt lat="46.45475" lon="5.65379">
        <ele>593</ele>
        <time>2022-02-28T12:34:14Z</time>
      </trkpt>
      <trkpt lat="46.4547" lon="5.65384">
        <ele>593</ele>
        <time>2022-02-28T12:34:15Z</time>
      </trkpt>
      <trkpt lat="46.45464" lon="5.65388">
        <ele>593</ele>
        <time>2022-02-28T12:34:16Z</time>
      </trkpt>
      <trkpt lat="46.45459" lon="5.65392">
        <ele>593.4</ele>
        <time>2022-02-28T12:34:17Z</time>
      </trkpt>
      <trkpt lat="46.45454" lon="5.65395">
        <ele>593.4</ele>
        <time>2022-02-28T12:34:18Z</time>
      </trkpt>
      <trkpt lat="46.45449" lon="5.65398">
        <ele>593.6</ele>
        <time>2022-02-28T12:34:19Z</time>
      </trkpt>
      <trkpt lat="46.45444" lon="5.65401">
        <ele>593.6</ele>
        <time>2022-02-28T12:34:20Z</time>
      </trkpt>
      <trkpt lat="46.45439" lon="5.65403">
        <ele>594</ele>
        <time>2022-02-28T12:34:21Z</time>
      </trkpt>
      <trkpt lat="46.45434" lon="5.65404">
        <ele>594</ele>
        <time>2022-02-28T12:34:22Z</time>
      </trkpt>
      <trkpt lat="46.45429" lon="5.65406">
        <ele>594.4</ele>
        <time>2022-02-28T12:34:23Z</time>
      </trkpt>
      <trkpt lat="46.45424" lon="5.65407">
        <ele>594.4</ele>
        <time>2022-02-28T12:34:24Z</time>
      </trkpt>
      <trkpt lat="46.45419" lon="5.65409">
        <ele>594.6</ele>
        <time>2022-02-28T12:34:25Z</time>
      </trkpt>
      <trkpt lat="46.45414" lon="5.6541">
        <ele>595</ele>
        <time>2022-02-28T12:34:26Z</time>
      </trkpt>
      <trkpt lat="46.45409" lon="5.65411">
        <ele>595.2</ele>
        <time>2022-02-28T12:34:27Z</time>
      </trkpt>
      <trkpt lat="46.45403" lon="5.65411">
        <ele>595.4</ele>
        <time>2022-02-28T12:34:28Z</time>
      </trkpt>
      <trkpt lat="46.45398" lon="5.65412">
        <ele>595.4</ele>
        <time>2022-02-28T12:34:29Z</time>
      </trkpt>
      <trkpt lat="46.45392" lon="5.65412">
        <ele>595.8</ele>
        <time>2022-02-28T12:34:30Z</time>
      </trkpt>
      <trkpt lat="46.45387" lon="5.65413">
        <ele>596</ele>
        <time>2022-02-28T12:34:31Z</time>
      </trkpt>
      <trkpt lat="46.45381" lon="5.65413">
        <ele>596.2</ele>
        <time>2022-02-28T12:34:32Z</time>
      </trkpt>
      <trkpt lat="46.45377" lon="5.65413">
        <ele>596.4</ele>
        <time>2022-02-28T12:34:33Z</time>
      </trkpt>
      <trkpt lat="46.45372" lon="5.65414">
        <ele>596.8</ele>
        <time>2022-02-28T12:34:34Z</time>
      </trkpt>
      <trkpt lat="46.45367" lon="5.65414">
        <ele>596.8</ele>
        <time>2022-02-28T12:34:35Z</time>
      </trkpt>
      <trkpt lat="46.45362" lon="5.65414">
        <ele>597.2</ele>
        <time>2022-02-28T12:34:36Z</time>
      </trkpt>
      <trkpt lat="46.45358" lon="5.65415">
        <ele>597.6</ele>
        <time>2022-02-28T12:34:37Z</time>
      </trkpt>
      <trkpt lat="46.45353" lon="5.65416">
        <ele>597.6</ele>
        <time>2022-02-28T12:34:38Z</time>
      </trkpt>
      <trkpt lat="46.45348" lon="5.65417">
        <ele>597.8</ele>
        <time>2022-02-28T12:34:39Z</time>
      </trkpt>
      <trkpt lat="46.45343" lon="5.65418">
        <ele>597.8</ele>
        <time>2022-02-28T12:34:40Z</time>
      </trkpt>
      <trkpt lat="46.45338" lon="5.6542">
        <ele>598</ele>
        <time>2022-02-28T12:34:41Z</time>
      </trkpt>
      <trkpt lat="46.45333" lon="5.65422">
        <ele>598.2</ele>
        <time>2022-02-28T12:34:42Z</time>
      </trkpt>
      <trkpt lat="46.45328" lon="5.65423">
        <ele>598.2</ele>
        <time>2022-02-28T12:34:43Z</time>
      </trkpt>
      <trkpt lat="46.45323" lon="5.65424">
        <ele>598.6</ele>
        <time>2022-02-28T12:34:44Z</time>
      </trkpt>
      <trkpt lat="46.45318" lon="5.65426">
        <ele>598.6</ele>
        <time>2022-02-28T12:34:45Z</time>
      </trkpt>
      <trkpt lat="46.45313" lon="5.65427">
        <ele>598.6</ele>
        <time>2022-02-28T12:34:46Z</time>
      </trkpt>
      <trkpt lat="46.45308" lon="5.65428">
        <ele>598.6</ele>
        <time>2022-02-28T12:34:47Z</time>
      </trkpt>
      <trkpt lat="46.45303" lon="5.65429">
        <ele>598.6</ele>
        <time>2022-02-28T12:34:48Z</time>
      </trkpt>
      <trkpt lat="46.45297" lon="5.6543">
        <ele>598.6</ele>
        <time>2022-02-28T12:34:49Z</time>
      </trkpt>
      <trkpt lat="46.45291" lon="5.65431">
        <ele>598.6</ele>
        <time>2022-02-28T12:34:50Z</time>
      </trkpt>
      <trkpt lat="46.45285" lon="5.65432">
        <ele>598.6</ele>
        <time>2022-02-28T12:34:51Z</time>
      </trkpt>
      <trkpt lat="46.45279" lon="5.65433">
        <ele>598.6</ele>
        <time>2022-02-28T12:34:52Z</time>
      </trkpt>
      <trkpt lat="46.45273" lon="5.65433">
        <ele>598.6</ele>
        <time>2022-02-28T12:34:53Z</time>
      </trkpt>
      <trkpt lat="46.45267" lon="5.65434">
        <ele>598.6</ele>
        <time>2022-02-28T12:34:54Z</time>
      </trkpt>
      <trkpt lat="46.45257" lon="5.65436">
        <ele>598.6</ele>
        <time>2022-02-28T12:34:55Z</time>
      </trkpt>
      <trkpt lat="46.45254" lon="5.65436">
        <ele>598.4</ele>
        <time>2022-02-28T12:34:56Z</time>
      </trkpt>
      <trkpt lat="46.45248" lon="5.65437">
        <ele>598.4</ele>
        <time>2022-02-28T12:34:57Z</time>
      </trkpt>
      <trkpt lat="46.45237" lon="5.65438">
        <ele>598.4</ele>
        <time>2022-02-28T12:34:58Z</time>
      </trkpt>
      <trkpt lat="46.45234" lon="5.65439">
        <ele>598</ele>
        <time>2022-02-28T12:34:59Z</time>
      </trkpt>
      <trkpt lat="46.45227" lon="5.6544">
        <ele>598</ele>
        <time>2022-02-28T12:35:00Z</time>
      </trkpt>
      <trkpt lat="46.4522" lon="5.65442">
        <ele>597.8</ele>
        <time>2022-02-28T12:35:01Z</time>
      </trkpt>
      <trkpt lat="46.45212" lon="5.65444">
        <ele>597.6</ele>
        <time>2022-02-28T12:35:02Z</time>
      </trkpt>
      <trkpt lat="46.45205" lon="5.65446">
        <ele>597.6</ele>
        <time>2022-02-28T12:35:03Z</time>
      </trkpt>
      <trkpt lat="46.45197" lon="5.6545">
        <ele>597.2</ele>
        <time>2022-02-28T12:35:04Z</time>
      </trkpt>
      <trkpt lat="46.4519" lon="5.65453">
        <ele>597</ele>
        <time>2022-02-28T12:35:05Z</time>
      </trkpt>
      <trkpt lat="46.45183" lon="5.65457">
        <ele>596.6</ele>
        <time>2022-02-28T12:35:06Z</time>
      </trkpt>
      <trkpt lat="46.45175" lon="5.65461">
        <ele>596.4</ele>
        <time>2022-02-28T12:35:07Z</time>
      </trkpt>
      <trkpt lat="46.45168" lon="5.65465">
        <ele>596.2</ele>
        <time>2022-02-28T12:35:08Z</time>
      </trkpt>
      <trkpt lat="46.45161" lon="5.65469">
        <ele>596</ele>
        <time>2022-02-28T12:35:09Z</time>
      </trkpt>
      <trkpt lat="46.45153" lon="5.65473">
        <ele>595.6</ele>
        <time>2022-02-28T12:35:10Z</time>
      </trkpt>
      <trkpt lat="46.45145" lon="5.65478">
        <ele>595.2</ele>
        <time>2022-02-28T12:35:11Z</time>
      </trkpt>
      <trkpt lat="46.45138" lon="5.65482">
        <ele>595</ele>
        <time>2022-02-28T12:35:12Z</time>
      </trkpt>
      <trkpt lat="46.4513" lon="5.65486">
        <ele>595</ele>
        <time>2022-02-28T12:35:13Z</time>
      </trkpt>
      <trkpt lat="46.45122" lon="5.6549">
        <ele>594.6</ele>
        <time>2022-02-28T12:35:14Z</time>
      </trkpt>
      <trkpt lat="46.45114" lon="5.65495">
        <ele>594.2</ele>
        <time>2022-02-28T12:35:15Z</time>
      </trkpt>
      <trkpt lat="46.45105" lon="5.65499">
        <ele>593.8</ele>
        <time>2022-02-28T12:35:16Z</time>
      </trkpt>
      <trkpt lat="46.45097" lon="5.65502">
        <ele>593.6</ele>
        <time>2022-02-28T12:35:17Z</time>
      </trkpt>
      <trkpt lat="46.45088" lon="5.65505">
        <ele>593.2</ele>
        <time>2022-02-28T12:35:18Z</time>
      </trkpt>
      <trkpt lat="46.4508" lon="5.65508">
        <ele>592.8</ele>
        <time>2022-02-28T12:35:19Z</time>
      </trkpt>
      <trkpt lat="46.4507" lon="5.65512">
        <ele>592.6</ele>
        <time>2022-02-28T12:35:20Z</time>
      </trkpt>
      <trkpt lat="46.45062" lon="5.65515">
        <ele>592.2</ele>
        <time>2022-02-28T12:35:21Z</time>
      </trkpt>
      <trkpt lat="46.45053" lon="5.65518">
        <ele>591.8</ele>
        <time>2022-02-28T12:35:22Z</time>
      </trkpt>
      <trkpt lat="46.45044" lon="5.6552">
        <ele>591.4</ele>
        <time>2022-02-28T12:35:23Z</time>
      </trkpt>
      <trkpt lat="46.45034" lon="5.65521">
        <ele>591.2</ele>
        <time>2022-02-28T12:35:24Z</time>
      </trkpt>
      <trkpt lat="46.45024" lon="5.65523">
        <ele>590.8</ele>
        <time>2022-02-28T12:35:25Z</time>
      </trkpt>
      <trkpt lat="46.45015" lon="5.65525">
        <ele>590.4</ele>
        <time>2022-02-28T12:35:26Z</time>
      </trkpt>
      <trkpt lat="46.45005" lon="5.65524">
        <ele>590.2</ele>
        <time>2022-02-28T12:35:27Z</time>
      </trkpt>
      <trkpt lat="46.44995" lon="5.65526">
        <ele>590</ele>
        <time>2022-02-28T12:35:28Z</time>
      </trkpt>
      <trkpt lat="46.44985" lon="5.65528">
        <ele>589.6</ele>
        <time>2022-02-28T12:35:29Z</time>
      </trkpt>
      <trkpt lat="46.44975" lon="5.65531">
        <ele>589.2</ele>
        <time>2022-02-28T12:35:30Z</time>
      </trkpt>
      <trkpt lat="46.44966" lon="5.65533">
        <ele>588.8</ele>
        <time>2022-02-28T12:35:31Z</time>
      </trkpt>
      <trkpt lat="46.44955" lon="5.65534">
        <ele>588.6</ele>
        <time>2022-02-28T12:35:32Z</time>
      </trkpt>
      <trkpt lat="46.44945" lon="5.65535">
        <ele>588.2</ele>
        <time>2022-02-28T12:35:33Z</time>
      </trkpt>
      <trkpt lat="46.44936" lon="5.65538">
        <ele>587.8</ele>
        <time>2022-02-28T12:35:34Z</time>
      </trkpt>
      <trkpt lat="46.44927" lon="5.6554">
        <ele>587.4</ele>
        <time>2022-02-28T12:35:35Z</time>
      </trkpt>
      <trkpt lat="46.44917" lon="5.65544">
        <ele>586.8</ele>
        <time>2022-02-28T12:35:36Z</time>
      </trkpt>
      <trkpt lat="46.44907" lon="5.65547">
        <ele>586.4</ele>
        <time>2022-02-28T12:35:37Z</time>
      </trkpt>
      <trkpt lat="46.44898" lon="5.65549">
        <ele>586</ele>
        <time>2022-02-28T12:35:38Z</time>
      </trkpt>
      <trkpt lat="46.44888" lon="5.65552">
        <ele>585.4</ele>
        <time>2022-02-28T12:35:39Z</time>
      </trkpt>
      <trkpt lat="46.44879" lon="5.65555">
        <ele>585</ele>
        <time>2022-02-28T12:35:40Z</time>
      </trkpt>
      <trkpt lat="46.44864" lon="5.65559">
        <ele>584.6</ele>
        <time>2022-02-28T12:35:41Z</time>
      </trkpt>
      <trkpt lat="46.44859" lon="5.65561">
        <ele>584.2</ele>
        <time>2022-02-28T12:35:42Z</time>
      </trkpt>
      <trkpt lat="46.44849" lon="5.65564">
        <ele>583.8</ele>
        <time>2022-02-28T12:35:43Z</time>
      </trkpt>
      <trkpt lat="46.44833" lon="5.65567">
        <ele>583.4</ele>
        <time>2022-02-28T12:35:44Z</time>
      </trkpt>
      <trkpt lat="46.44827" lon="5.65567">
        <ele>582.8</ele>
        <time>2022-02-28T12:35:45Z</time>
      </trkpt>
      <trkpt lat="46.44817" lon="5.65569">
        <ele>582.2</ele>
        <time>2022-02-28T12:35:46Z</time>
      </trkpt>
      <trkpt lat="46.44807" lon="5.65568">
        <ele>581.8</ele>
        <time>2022-02-28T12:35:47Z</time>
      </trkpt>
      <trkpt lat="46.44796" lon="5.65566">
        <ele>581.2</ele>
        <time>2022-02-28T12:35:48Z</time>
      </trkpt>
      <trkpt lat="46.44781" lon="5.65563">
        <ele>580.8</ele>
        <time>2022-02-28T12:35:49Z</time>
      </trkpt>
      <trkpt lat="46.44775" lon="5.65562">
        <ele>580.4</ele>
        <time>2022-02-28T12:35:50Z</time>
      </trkpt>
      <trkpt lat="46.44765" lon="5.6556">
        <ele>579.8</ele>
        <time>2022-02-28T12:35:51Z</time>
      </trkpt>
      <trkpt lat="46.44754" lon="5.6556">
        <ele>579.4</ele>
        <time>2022-02-28T12:35:52Z</time>
      </trkpt>
      <trkpt lat="46.44744" lon="5.65558">
        <ele>578.8</ele>
        <time>2022-02-28T12:35:53Z</time>
      </trkpt>
      <trkpt lat="46.44733" lon="5.65556">
        <ele>578.2</ele>
        <time>2022-02-28T12:35:54Z</time>
      </trkpt>
      <trkpt lat="46.44722" lon="5.65555">
        <ele>577.8</ele>
        <time>2022-02-28T12:35:55Z</time>
      </trkpt>
      <trkpt lat="46.44712" lon="5.65553">
        <ele>577.2</ele>
        <time>2022-02-28T12:35:56Z</time>
      </trkpt>
      <trkpt lat="46.44702" lon="5.65551">
        <ele>576.8</ele>
        <time>2022-02-28T12:35:57Z</time>
      </trkpt>
      <trkpt lat="46.44691" lon="5.65549">
        <ele>576.2</ele>
        <time>2022-02-28T12:35:58Z</time>
      </trkpt>
      <trkpt lat="46.44681" lon="5.65545">
        <ele>575.8</ele>
        <time>2022-02-28T12:35:59Z</time>
      </trkpt>
      <trkpt lat="46.4467" lon="5.65542">
        <ele>575.4</ele>
        <time>2022-02-28T12:36:00Z</time>
      </trkpt>
      <trkpt lat="46.4466" lon="5.65539">
        <ele>575</ele>
        <time>2022-02-28T12:36:01Z</time>
      </trkpt>
      <trkpt lat="46.44649" lon="5.65536">
        <ele>574.6</ele>
        <time>2022-02-28T12:36:02Z</time>
      </trkpt>
      <trkpt lat="46.44638" lon="5.65534">
        <ele>574.6</ele>
        <time>2022-02-28T12:36:03Z</time>
      </trkpt>
      <trkpt lat="46.44629" lon="5.65531">
        <ele>574.2</ele>
        <time>2022-02-28T12:36:04Z</time>
      </trkpt>
      <trkpt lat="46.44619" lon="5.65528">
        <ele>573.6</ele>
        <time>2022-02-28T12:36:05Z</time>
      </trkpt>
      <trkpt lat="46.44609" lon="5.65525">
        <ele>573.4</ele>
        <time>2022-02-28T12:36:06Z</time>
      </trkpt>
      <trkpt lat="46.44599" lon="5.65521">
        <ele>573.2</ele>
        <time>2022-02-28T12:36:07Z</time>
      </trkpt>
      <trkpt lat="46.44589" lon="5.65518">
        <ele>573</ele>
        <time>2022-02-28T12:36:08Z</time>
      </trkpt>
      <trkpt lat="46.44579" lon="5.65515">
        <ele>572.6</ele>
        <time>2022-02-28T12:36:09Z</time>
      </trkpt>
      <trkpt lat="46.44569" lon="5.65512">
        <ele>572.4</ele>
        <time>2022-02-28T12:36:10Z</time>
      </trkpt>
      <trkpt lat="46.44555" lon="5.65509">
        <ele>572.2</ele>
        <time>2022-02-28T12:36:11Z</time>
      </trkpt>
      <trkpt lat="46.4455" lon="5.65508">
        <ele>571.8</ele>
        <time>2022-02-28T12:36:12Z</time>
      </trkpt>
      <trkpt lat="46.4454" lon="5.65505">
        <ele>571.4</ele>
        <time>2022-02-28T12:36:13Z</time>
      </trkpt>
      <trkpt lat="46.44528" lon="5.65503">
        <ele>571.2</ele>
        <time>2022-02-28T12:36:14Z</time>
      </trkpt>
      <trkpt lat="46.44518" lon="5.65501">
        <ele>570.8</ele>
        <time>2022-02-28T12:36:15Z</time>
      </trkpt>
      <trkpt lat="46.44508" lon="5.65499">
        <ele>570.6</ele>
        <time>2022-02-28T12:36:16Z</time>
      </trkpt>
      <trkpt lat="46.44498" lon="5.65497">
        <ele>570.2</ele>
        <time>2022-02-28T12:36:17Z</time>
      </trkpt>
      <trkpt lat="46.44487" lon="5.65495">
        <ele>569.8</ele>
        <time>2022-02-28T12:36:18Z</time>
      </trkpt>
      <trkpt lat="46.44476" lon="5.65495">
        <ele>569.2</ele>
        <time>2022-02-28T12:36:19Z</time>
      </trkpt>
      <trkpt lat="46.44464" lon="5.65494">
        <ele>568.6</ele>
        <time>2022-02-28T12:36:20Z</time>
      </trkpt>
      <trkpt lat="46.44453" lon="5.65494">
        <ele>568.2</ele>
        <time>2022-02-28T12:36:21Z</time>
      </trkpt>
      <trkpt lat="46.4444" lon="5.65492">
        <ele>566.8</ele>
        <time>2022-02-28T12:36:22Z</time>
      </trkpt>
      <trkpt lat="46.44429" lon="5.65491">
        <ele>566</ele>
        <time>2022-02-28T12:36:23Z</time>
      </trkpt>
      <trkpt lat="46.44416" lon="5.65489">
        <ele>565.2</ele>
        <time>2022-02-28T12:36:24Z</time>
      </trkpt>
      <trkpt lat="46.44404" lon="5.65488">
        <ele>564.4</ele>
        <time>2022-02-28T12:36:25Z</time>
      </trkpt>
      <trkpt lat="46.4439" lon="5.65485">
        <ele>563.6</ele>
        <time>2022-02-28T12:36:26Z</time>
      </trkpt>
      <trkpt lat="46.44378" lon="5.65483">
        <ele>563</ele>
        <time>2022-02-28T12:36:27Z</time>
      </trkpt>
      <trkpt lat="46.44364" lon="5.65481">
        <ele>562</ele>
        <time>2022-02-28T12:36:28Z</time>
      </trkpt>
      <trkpt lat="46.44351" lon="5.65479">
        <ele>561.2</ele>
        <time>2022-02-28T12:36:29Z</time>
      </trkpt>
      <trkpt lat="46.44337" lon="5.65477">
        <ele>560.4</ele>
        <time>2022-02-28T12:36:30Z</time>
      </trkpt>
      <trkpt lat="46.44324" lon="5.65474">
        <ele>559.6</ele>
        <time>2022-02-28T12:36:31Z</time>
      </trkpt>
      <trkpt lat="46.44311" lon="5.65469">
        <ele>558.8</ele>
        <time>2022-02-28T12:36:32Z</time>
      </trkpt>
      <trkpt lat="46.44299" lon="5.65464">
        <ele>558.2</ele>
        <time>2022-02-28T12:36:33Z</time>
      </trkpt>
      <trkpt lat="46.44287" lon="5.65457">
        <ele>557.6</ele>
        <time>2022-02-28T12:36:34Z</time>
      </trkpt>
      <trkpt lat="46.44275" lon="5.6545">
        <ele>556.8</ele>
        <time>2022-02-28T12:36:35Z</time>
      </trkpt>
      <trkpt lat="46.44263" lon="5.65442">
        <ele>556.4</ele>
        <time>2022-02-28T12:36:36Z</time>
      </trkpt>
      <trkpt lat="46.44252" lon="5.65434">
        <ele>555.8</ele>
        <time>2022-02-28T12:36:37Z</time>
      </trkpt>
      <trkpt lat="46.44241" lon="5.65427">
        <ele>555.4</ele>
        <time>2022-02-28T12:36:38Z</time>
      </trkpt>
      <trkpt lat="46.4423" lon="5.65422">
        <ele>554.8</ele>
        <time>2022-02-28T12:36:39Z</time>
      </trkpt>
      <trkpt lat="46.44219" lon="5.6542">
        <ele>554.2</ele>
        <time>2022-02-28T12:36:40Z</time>
      </trkpt>
      <trkpt lat="46.44207" lon="5.65419">
        <ele>553.6</ele>
        <time>2022-02-28T12:36:41Z</time>
      </trkpt>
      <trkpt lat="46.44195" lon="5.65421">
        <ele>553.2</ele>
        <time>2022-02-28T12:36:42Z</time>
      </trkpt>
      <trkpt lat="46.44183" lon="5.65425">
        <ele>552.8</ele>
        <time>2022-02-28T12:36:43Z</time>
      </trkpt>
      <trkpt lat="46.44171" lon="5.6543">
        <ele>552.2</ele>
        <time>2022-02-28T12:36:44Z</time>
      </trkpt>
      <trkpt lat="46.4416" lon="5.65438">
        <ele>551.6</ele>
        <time>2022-02-28T12:36:45Z</time>
      </trkpt>
      <trkpt lat="46.44149" lon="5.65447">
        <ele>551</ele>
        <time>2022-02-28T12:36:46Z</time>
      </trkpt>
      <trkpt lat="46.4414" lon="5.65458">
        <ele>550.6</ele>
        <time>2022-02-28T12:36:47Z</time>
      </trkpt>
      <trkpt lat="46.4413" lon="5.65467">
        <ele>550</ele>
        <time>2022-02-28T12:36:48Z</time>
      </trkpt>
      <trkpt lat="46.44119" lon="5.65474">
        <ele>549.4</ele>
        <time>2022-02-28T12:36:49Z</time>
      </trkpt>
      <trkpt lat="46.44107" lon="5.6548">
        <ele>548.8</ele>
        <time>2022-02-28T12:36:50Z</time>
      </trkpt>
      <trkpt lat="46.44096" lon="5.65483">
        <ele>548</ele>
        <time>2022-02-28T12:36:51Z</time>
      </trkpt>
      <trkpt lat="46.44084" lon="5.65481">
        <ele>547.6</ele>
        <time>2022-02-28T12:36:52Z</time>
      </trkpt>
      <trkpt lat="46.44073" lon="5.65476">
        <ele>547.2</ele>
        <time>2022-02-28T12:36:53Z</time>
      </trkpt>
      <trkpt lat="46.44062" lon="5.65468">
        <ele>547</ele>
        <time>2022-02-28T12:36:54Z</time>
      </trkpt>
      <trkpt lat="46.44049" lon="5.65457">
        <ele>547</ele>
        <time>2022-02-28T12:36:55Z</time>
      </trkpt>
      <trkpt lat="46.44045" lon="5.65453">
        <ele>547</ele>
        <time>2022-02-28T12:36:56Z</time>
      </trkpt>
      <trkpt lat="46.44037" lon="5.65447">
        <ele>547</ele>
        <time>2022-02-28T12:36:57Z</time>
      </trkpt>
      <trkpt lat="46.44019" lon="5.65436">
        <ele>547</ele>
        <time>2022-02-28T12:36:58Z</time>
      </trkpt>
      <trkpt lat="46.44011" lon="5.65432">
        <ele>547.2</ele>
        <time>2022-02-28T12:36:59Z</time>
      </trkpt>
      <trkpt lat="46.44004" lon="5.65428">
        <ele>547.6</ele>
        <time>2022-02-28T12:37:00Z</time>
      </trkpt>
      <trkpt lat="46.43997" lon="5.65425">
        <ele>548</ele>
        <time>2022-02-28T12:37:01Z</time>
      </trkpt>
      <trkpt lat="46.43991" lon="5.65421">
        <ele>548.4</ele>
        <time>2022-02-28T12:37:02Z</time>
      </trkpt>
      <trkpt lat="46.43984" lon="5.65418">
        <ele>548.8</ele>
        <time>2022-02-28T12:37:03Z</time>
      </trkpt>
      <trkpt lat="46.43978" lon="5.65414">
        <ele>549</ele>
        <time>2022-02-28T12:37:04Z</time>
      </trkpt>
      <trkpt lat="46.43972" lon="5.65411">
        <ele>549.2</ele>
        <time>2022-02-28T12:37:05Z</time>
      </trkpt>
      <trkpt lat="46.43967" lon="5.65408">
        <ele>549.6</ele>
        <time>2022-02-28T12:37:06Z</time>
      </trkpt>
      <trkpt lat="46.43962" lon="5.65406">
        <ele>549.8</ele>
        <time>2022-02-28T12:37:07Z</time>
      </trkpt>
      <trkpt lat="46.43957" lon="5.65403">
        <ele>550.2</ele>
        <time>2022-02-28T12:37:08Z</time>
      </trkpt>
      <trkpt lat="46.43957" lon="5.65403">
        <ele>550.6</ele>
        <time>2022-02-28T12:37:09Z</time>
      </trkpt>
      <trkpt lat="46.43952" lon="5.654">
        <ele>550.8</ele>
        <time>2022-02-28T12:37:10Z</time>
      </trkpt>
      <trkpt lat="46.43947" lon="5.65397">
        <ele>551.2</ele>
        <time>2022-02-28T12:37:11Z</time>
      </trkpt>
      <trkpt lat="46.43942" lon="5.65393">
        <ele>551.4</ele>
        <time>2022-02-28T12:37:12Z</time>
      </trkpt>
      <trkpt lat="46.43937" lon="5.65389">
        <ele>551.8</ele>
        <time>2022-02-28T12:37:13Z</time>
      </trkpt>
      <trkpt lat="46.43929" lon="5.65383">
        <ele>552.2</ele>
        <time>2022-02-28T12:37:14Z</time>
      </trkpt>
      <trkpt lat="46.43927" lon="5.65381">
        <ele>552.4</ele>
        <time>2022-02-28T12:37:15Z</time>
      </trkpt>
      <trkpt lat="46.43922" lon="5.65376">
        <ele>552.4</ele>
        <time>2022-02-28T12:37:16Z</time>
      </trkpt>
      <trkpt lat="46.43917" lon="5.65372">
        <ele>552.8</ele>
        <time>2022-02-28T12:37:17Z</time>
      </trkpt>
      <trkpt lat="46.43913" lon="5.65368">
        <ele>552.8</ele>
        <time>2022-02-28T12:37:18Z</time>
      </trkpt>
      <trkpt lat="46.43908" lon="5.65363">
        <ele>553</ele>
        <time>2022-02-28T12:37:19Z</time>
      </trkpt>
      <trkpt lat="46.43904" lon="5.65357">
        <ele>553</ele>
        <time>2022-02-28T12:37:20Z</time>
      </trkpt>
      <trkpt lat="46.43898" lon="5.65347">
        <ele>553.4</ele>
        <time>2022-02-28T12:37:21Z</time>
      </trkpt>
      <trkpt lat="46.43896" lon="5.65344">
        <ele>553.4</ele>
        <time>2022-02-28T12:37:22Z</time>
      </trkpt>
      <trkpt lat="46.43892" lon="5.65338">
        <ele>553.6</ele>
        <time>2022-02-28T12:37:23Z</time>
      </trkpt>
      <trkpt lat="46.43888" lon="5.65331">
        <ele>553.6</ele>
        <time>2022-02-28T12:37:24Z</time>
      </trkpt>
      <trkpt lat="46.43884" lon="5.65326">
        <ele>554</ele>
        <time>2022-02-28T12:37:25Z</time>
      </trkpt>
      <trkpt lat="46.4388" lon="5.65322">
        <ele>554.2</ele>
        <time>2022-02-28T12:37:26Z</time>
      </trkpt>
      <trkpt lat="46.43876" lon="5.65317">
        <ele>554.2</ele>
        <time>2022-02-28T12:37:27Z</time>
      </trkpt>
      <trkpt lat="46.43872" lon="5.65313">
        <ele>554.6</ele>
        <time>2022-02-28T12:37:28Z</time>
      </trkpt>
      <trkpt lat="46.43867" lon="5.65309">
        <ele>554.6</ele>
        <time>2022-02-28T12:37:29Z</time>
      </trkpt>
      <trkpt lat="46.43863" lon="5.65306">
        <ele>554.8</ele>
        <time>2022-02-28T12:37:30Z</time>
      </trkpt>
      <trkpt lat="46.43859" lon="5.65302">
        <ele>555</ele>
        <time>2022-02-28T12:37:31Z</time>
      </trkpt>
      <trkpt lat="46.43854" lon="5.65299">
        <ele>555</ele>
        <time>2022-02-28T12:37:32Z</time>
      </trkpt>
      <trkpt lat="46.43849" lon="5.65295">
        <ele>555.4</ele>
        <time>2022-02-28T12:37:33Z</time>
      </trkpt>
      <trkpt lat="46.43845" lon="5.65291">
        <ele>555.4</ele>
        <time>2022-02-28T12:37:34Z</time>
      </trkpt>
      <trkpt lat="46.43841" lon="5.65288">
        <ele>555.6</ele>
        <time>2022-02-28T12:37:35Z</time>
      </trkpt>
      <trkpt lat="46.43836" lon="5.65285">
        <ele>555.6</ele>
        <time>2022-02-28T12:37:36Z</time>
      </trkpt>
      <trkpt lat="46.43832" lon="5.65281">
        <ele>556</ele>
        <time>2022-02-28T12:37:37Z</time>
      </trkpt>
      <trkpt lat="46.43828" lon="5.65278">
        <ele>556</ele>
        <time>2022-02-28T12:37:38Z</time>
      </trkpt>
      <trkpt lat="46.43824" lon="5.65275">
        <ele>556.4</ele>
        <time>2022-02-28T12:37:39Z</time>
      </trkpt>
      <trkpt lat="46.43819" lon="5.65272">
        <ele>556.6</ele>
        <time>2022-02-28T12:37:40Z</time>
      </trkpt>
      <trkpt lat="46.43815" lon="5.65269">
        <ele>556.8</ele>
        <time>2022-02-28T12:37:41Z</time>
      </trkpt>
      <trkpt lat="46.4381" lon="5.65267">
        <ele>557</ele>
        <time>2022-02-28T12:37:42Z</time>
      </trkpt>
      <trkpt lat="46.43805" lon="5.65264">
        <ele>557</ele>
        <time>2022-02-28T12:37:43Z</time>
      </trkpt>
      <trkpt lat="46.43801" lon="5.65261">
        <ele>557.4</ele>
        <time>2022-02-28T12:37:44Z</time>
      </trkpt>
      <trkpt lat="46.43796" lon="5.65259">
        <ele>557.4</ele>
        <time>2022-02-28T12:37:45Z</time>
      </trkpt>
      <trkpt lat="46.43792" lon="5.65256">
        <ele>557.6</ele>
        <time>2022-02-28T12:37:46Z</time>
      </trkpt>
      <trkpt lat="46.43787" lon="5.65254">
        <ele>557.6</ele>
        <time>2022-02-28T12:37:47Z</time>
      </trkpt>
      <trkpt lat="46.43783" lon="5.65251">
        <ele>558</ele>
        <time>2022-02-28T12:37:48Z</time>
      </trkpt>
      <trkpt lat="46.43776" lon="5.65247">
        <ele>558</ele>
        <time>2022-02-28T12:37:49Z</time>
      </trkpt>
      <trkpt lat="46.43773" lon="5.65246">
        <ele>558.4</ele>
        <time>2022-02-28T12:37:50Z</time>
      </trkpt>
      <trkpt lat="46.43769" lon="5.65243">
        <ele>558.4</ele>
        <time>2022-02-28T12:37:51Z</time>
      </trkpt>
      <trkpt lat="46.43764" lon="5.6524">
        <ele>558.6</ele>
        <time>2022-02-28T12:37:52Z</time>
      </trkpt>
      <trkpt lat="46.4376" lon="5.65237">
        <ele>558.6</ele>
        <time>2022-02-28T12:37:53Z</time>
      </trkpt>
      <trkpt lat="46.43756" lon="5.65234">
        <ele>559</ele>
        <time>2022-02-28T12:37:54Z</time>
      </trkpt>
      <trkpt lat="46.43752" lon="5.6523">
        <ele>559</ele>
        <time>2022-02-28T12:37:55Z</time>
      </trkpt>
      <trkpt lat="46.43748" lon="5.65227">
        <ele>559.2</ele>
        <time>2022-02-28T12:37:56Z</time>
      </trkpt>
      <trkpt lat="46.43745" lon="5.65224">
        <ele>559.4</ele>
        <time>2022-02-28T12:37:57Z</time>
      </trkpt>
      <trkpt lat="46.43741" lon="5.6522">
        <ele>559.4</ele>
        <time>2022-02-28T12:37:58Z</time>
      </trkpt>
      <trkpt lat="46.43738" lon="5.65217">
        <ele>560</ele>
        <time>2022-02-28T12:37:59Z</time>
      </trkpt>
      <trkpt lat="46.43734" lon="5.65215">
        <ele>560.2</ele>
        <time>2022-02-28T12:38:00Z</time>
      </trkpt>
      <trkpt lat="46.4373" lon="5.65212">
        <ele>560.2</ele>
        <time>2022-02-28T12:38:01Z</time>
      </trkpt>
      <trkpt lat="46.43727" lon="5.65209">
        <ele>560.4</ele>
        <time>2022-02-28T12:38:02Z</time>
      </trkpt>
      <trkpt lat="46.43723" lon="5.65207">
        <ele>560.4</ele>
        <time>2022-02-28T12:38:03Z</time>
      </trkpt>
      <trkpt lat="46.43719" lon="5.65204">
        <ele>560.8</ele>
        <time>2022-02-28T12:38:04Z</time>
      </trkpt>
      <trkpt lat="46.43716" lon="5.65202">
        <ele>560.8</ele>
        <time>2022-02-28T12:38:05Z</time>
      </trkpt>
      <trkpt lat="46.43712" lon="5.652">
        <ele>561.2</ele>
        <time>2022-02-28T12:38:06Z</time>
      </trkpt>
      <trkpt lat="46.43707" lon="5.65198">
        <ele>561.2</ele>
        <time>2022-02-28T12:38:07Z</time>
      </trkpt>
      <trkpt lat="46.43703" lon="5.65196">
        <ele>561.4</ele>
        <time>2022-02-28T12:38:08Z</time>
      </trkpt>
      <trkpt lat="46.43699" lon="5.65195">
        <ele>561.4</ele>
        <time>2022-02-28T12:38:09Z</time>
      </trkpt>
      <trkpt lat="46.43695" lon="5.65193">
        <ele>561.6</ele>
        <time>2022-02-28T12:38:10Z</time>
      </trkpt>
      <trkpt lat="46.43688" lon="5.65191">
        <ele>561.6</ele>
        <time>2022-02-28T12:38:11Z</time>
      </trkpt>
      <trkpt lat="46.43686" lon="5.65191">
        <ele>561.8</ele>
        <time>2022-02-28T12:38:12Z</time>
      </trkpt>
      <trkpt lat="46.43682" lon="5.6519">
        <ele>561.8</ele>
        <time>2022-02-28T12:38:13Z</time>
      </trkpt>
      <trkpt lat="46.43678" lon="5.65189">
        <ele>562</ele>
        <time>2022-02-28T12:38:14Z</time>
      </trkpt>
      <trkpt lat="46.43673" lon="5.65189">
        <ele>562</ele>
        <time>2022-02-28T12:38:15Z</time>
      </trkpt>
      <trkpt lat="46.43669" lon="5.65188">
        <ele>562.2</ele>
        <time>2022-02-28T12:38:16Z</time>
      </trkpt>
      <trkpt lat="46.43665" lon="5.65187">
        <ele>562.2</ele>
        <time>2022-02-28T12:38:17Z</time>
      </trkpt>
      <trkpt lat="46.4366" lon="5.65186">
        <ele>562.6</ele>
        <time>2022-02-28T12:38:18Z</time>
      </trkpt>
      <trkpt lat="46.43656" lon="5.65186">
        <ele>562.6</ele>
        <time>2022-02-28T12:38:19Z</time>
      </trkpt>
      <trkpt lat="46.43652" lon="5.65185">
        <ele>562.8</ele>
        <time>2022-02-28T12:38:20Z</time>
      </trkpt>
      <trkpt lat="46.43647" lon="5.65185">
        <ele>562.8</ele>
        <time>2022-02-28T12:38:21Z</time>
      </trkpt>
      <trkpt lat="46.43643" lon="5.65184">
        <ele>563</ele>
        <time>2022-02-28T12:38:22Z</time>
      </trkpt>
      <trkpt lat="46.43639" lon="5.65184">
        <ele>563</ele>
        <time>2022-02-28T12:38:23Z</time>
      </trkpt>
      <trkpt lat="46.43635" lon="5.65183">
        <ele>563.4</ele>
        <time>2022-02-28T12:38:24Z</time>
      </trkpt>
      <trkpt lat="46.4363" lon="5.65183">
        <ele>563.4</ele>
        <time>2022-02-28T12:38:25Z</time>
      </trkpt>
      <trkpt lat="46.43626" lon="5.65183">
        <ele>563.6</ele>
        <time>2022-02-28T12:38:26Z</time>
      </trkpt>
      <trkpt lat="46.43622" lon="5.65182">
        <ele>563.6</ele>
        <time>2022-02-28T12:38:27Z</time>
      </trkpt>
      <trkpt lat="46.43617" lon="5.65182">
        <ele>563.6</ele>
        <time>2022-02-28T12:38:28Z</time>
      </trkpt>
      <trkpt lat="46.43613" lon="5.65181">
        <ele>563.8</ele>
        <time>2022-02-28T12:38:29Z</time>
      </trkpt>
      <trkpt lat="46.43608" lon="5.65181">
        <ele>563.8</ele>
        <time>2022-02-28T12:38:30Z</time>
      </trkpt>
      <trkpt lat="46.43604" lon="5.6518">
        <ele>563.8</ele>
        <time>2022-02-28T12:38:31Z</time>
      </trkpt>
      <trkpt lat="46.43599" lon="5.6518">
        <ele>563.8</ele>
        <time>2022-02-28T12:38:32Z</time>
      </trkpt>
      <trkpt lat="46.43594" lon="5.65179">
        <ele>564</ele>
        <time>2022-02-28T12:38:33Z</time>
      </trkpt>
      <trkpt lat="46.43589" lon="5.65179">
        <ele>564</ele>
        <time>2022-02-28T12:38:34Z</time>
      </trkpt>
      <trkpt lat="46.43584" lon="5.65178">
        <ele>564</ele>
        <time>2022-02-28T12:38:35Z</time>
      </trkpt>
      <trkpt lat="46.43579" lon="5.65177">
        <ele>564</ele>
        <time>2022-02-28T12:38:36Z</time>
      </trkpt>
      <trkpt lat="46.43574" lon="5.65177">
        <ele>564.2</ele>
        <time>2022-02-28T12:38:37Z</time>
      </trkpt>
      <trkpt lat="46.4357" lon="5.65176">
        <ele>564.2</ele>
        <time>2022-02-28T12:38:38Z</time>
      </trkpt>
      <trkpt lat="46.43565" lon="5.65175">
        <ele>564.4</ele>
        <time>2022-02-28T12:38:39Z</time>
      </trkpt>
      <trkpt lat="46.4356" lon="5.65175">
        <ele>564.4</ele>
        <time>2022-02-28T12:38:40Z</time>
      </trkpt>
      <trkpt lat="46.43556" lon="5.65174">
        <ele>564.4</ele>
        <time>2022-02-28T12:38:41Z</time>
      </trkpt>
      <trkpt lat="46.43551" lon="5.65174">
        <ele>564.8</ele>
        <time>2022-02-28T12:38:42Z</time>
      </trkpt>
      <trkpt lat="46.43546" lon="5.65173">
        <ele>564.8</ele>
        <time>2022-02-28T12:38:43Z</time>
      </trkpt>
      <trkpt lat="46.43542" lon="5.65172">
        <ele>565</ele>
        <time>2022-02-28T12:38:44Z</time>
      </trkpt>
      <trkpt lat="46.43537" lon="5.65172">
        <ele>565</ele>
        <time>2022-02-28T12:38:45Z</time>
      </trkpt>
      <trkpt lat="46.4353" lon="5.6517">
        <ele>565.2</ele>
        <time>2022-02-28T12:38:46Z</time>
      </trkpt>
      <trkpt lat="46.43528" lon="5.6517">
        <ele>565.2</ele>
        <time>2022-02-28T12:38:47Z</time>
      </trkpt>
      <trkpt lat="46.43523" lon="5.65169">
        <ele>565.2</ele>
        <time>2022-02-28T12:38:48Z</time>
      </trkpt>
      <trkpt lat="46.43518" lon="5.65168">
        <ele>565.2</ele>
        <time>2022-02-28T12:38:49Z</time>
      </trkpt>
      <trkpt lat="46.43513" lon="5.65167">
        <ele>565.4</ele>
        <time>2022-02-28T12:38:50Z</time>
      </trkpt>
      <trkpt lat="46.43509" lon="5.65167">
        <ele>565.4</ele>
        <time>2022-02-28T12:38:51Z</time>
      </trkpt>
      <trkpt lat="46.43503" lon="5.65166">
        <ele>565.6</ele>
        <time>2022-02-28T12:38:52Z</time>
      </trkpt>
      <trkpt lat="46.43498" lon="5.65165">
        <ele>565.6</ele>
        <time>2022-02-28T12:38:53Z</time>
      </trkpt>
      <trkpt lat="46.43493" lon="5.65164">
        <ele>565.6</ele>
        <time>2022-02-28T12:38:54Z</time>
      </trkpt>
      <trkpt lat="46.43485" lon="5.65163">
        <ele>565.6</ele>
        <time>2022-02-28T12:38:55Z</time>
      </trkpt>
      <trkpt lat="46.43483" lon="5.65163">
        <ele>565.6</ele>
        <time>2022-02-28T12:38:56Z</time>
      </trkpt>
      <trkpt lat="46.43477" lon="5.65162">
        <ele>565.6</ele>
        <time>2022-02-28T12:38:57Z</time>
      </trkpt>
      <trkpt lat="46.43472" lon="5.65161">
        <ele>566</ele>
        <time>2022-02-28T12:38:58Z</time>
      </trkpt>
      <trkpt lat="46.43466" lon="5.6516">
        <ele>566</ele>
        <time>2022-02-28T12:38:59Z</time>
      </trkpt>
      <trkpt lat="46.43461" lon="5.65159">
        <ele>566</ele>
        <time>2022-02-28T12:39:00Z</time>
      </trkpt>
      <trkpt lat="46.43455" lon="5.65158">
        <ele>566</ele>
        <time>2022-02-28T12:39:01Z</time>
      </trkpt>
      <trkpt lat="46.43449" lon="5.65157">
        <ele>566</ele>
        <time>2022-02-28T12:39:02Z</time>
      </trkpt>
      <trkpt lat="46.43444" lon="5.65156">
        <ele>566</ele>
        <time>2022-02-28T12:39:03Z</time>
      </trkpt>
      <trkpt lat="46.43438" lon="5.65155">
        <ele>566</ele>
        <time>2022-02-28T12:39:04Z</time>
      </trkpt>
      <trkpt lat="46.43432" lon="5.65154">
        <ele>566</ele>
        <time>2022-02-28T12:39:05Z</time>
      </trkpt>
      <trkpt lat="46.43426" lon="5.65154">
        <ele>566</ele>
        <time>2022-02-28T12:39:06Z</time>
      </trkpt>
      <trkpt lat="46.43417" lon="5.65152">
        <ele>566.2</ele>
        <time>2022-02-28T12:39:07Z</time>
      </trkpt>
      <trkpt lat="46.43414" lon="5.65152">
        <ele>566.2</ele>
        <time>2022-02-28T12:39:08Z</time>
      </trkpt>
      <trkpt lat="46.43408" lon="5.65151">
        <ele>566.2</ele>
        <time>2022-02-28T12:39:09Z</time>
      </trkpt>
      <trkpt lat="46.43402" lon="5.6515">
        <ele>566.4</ele>
        <time>2022-02-28T12:39:10Z</time>
      </trkpt>
      <trkpt lat="46.43396" lon="5.65149">
        <ele>566.4</ele>
        <time>2022-02-28T12:39:11Z</time>
      </trkpt>
      <trkpt lat="46.4339" lon="5.65148">
        <ele>566.4</ele>
        <time>2022-02-28T12:39:12Z</time>
      </trkpt>
      <trkpt lat="46.43384" lon="5.65147">
        <ele>566.8</ele>
        <time>2022-02-28T12:39:13Z</time>
      </trkpt>
      <trkpt lat="46.43378" lon="5.65146">
        <ele>566.8</ele>
        <time>2022-02-28T12:39:14Z</time>
      </trkpt>
      <trkpt lat="46.43372" lon="5.65145">
        <ele>567</ele>
        <time>2022-02-28T12:39:15Z</time>
      </trkpt>
      <trkpt lat="46.43366" lon="5.65144">
        <ele>567</ele>
        <time>2022-02-28T12:39:16Z</time>
      </trkpt>
      <trkpt lat="46.4336" lon="5.65143">
        <ele>567.4</ele>
        <time>2022-02-28T12:39:17Z</time>
      </trkpt>
      <trkpt lat="46.43355" lon="5.65142">
        <ele>567.4</ele>
        <time>2022-02-28T12:39:18Z</time>
      </trkpt>
      <trkpt lat="46.43349" lon="5.65141">
        <ele>567.8</ele>
        <time>2022-02-28T12:39:19Z</time>
      </trkpt>
      <trkpt lat="46.43343" lon="5.6514">
        <ele>567.8</ele>
        <time>2022-02-28T12:39:20Z</time>
      </trkpt>
      <trkpt lat="46.43337" lon="5.65139">
        <ele>568.2</ele>
        <time>2022-02-28T12:39:21Z</time>
      </trkpt>
      <trkpt lat="46.43332" lon="5.65138">
        <ele>568.2</ele>
        <time>2022-02-28T12:39:22Z</time>
      </trkpt>
      <trkpt lat="46.43326" lon="5.65137">
        <ele>568.4</ele>
        <time>2022-02-28T12:39:23Z</time>
      </trkpt>
      <trkpt lat="46.43321" lon="5.65136">
        <ele>568.4</ele>
        <time>2022-02-28T12:39:24Z</time>
      </trkpt>
      <trkpt lat="46.43315" lon="5.65135">
        <ele>568.6</ele>
        <time>2022-02-28T12:39:25Z</time>
      </trkpt>
      <trkpt lat="46.4331" lon="5.65134">
        <ele>568.6</ele>
        <time>2022-02-28T12:39:26Z</time>
      </trkpt>
      <trkpt lat="46.43304" lon="5.65133">
        <ele>569</ele>
        <time>2022-02-28T12:39:27Z</time>
      </trkpt>
      <trkpt lat="46.43298" lon="5.65132">
        <ele>569</ele>
        <time>2022-02-28T12:39:28Z</time>
      </trkpt>
      <trkpt lat="46.43293" lon="5.6513">
        <ele>569.4</ele>
        <time>2022-02-28T12:39:29Z</time>
      </trkpt>
      <trkpt lat="46.43287" lon="5.65129">
        <ele>569.4</ele>
        <time>2022-02-28T12:39:30Z</time>
      </trkpt>
      <trkpt lat="46.43282" lon="5.65127">
        <ele>569.6</ele>
        <time>2022-02-28T12:39:31Z</time>
      </trkpt>
      <trkpt lat="46.43274" lon="5.65124">
        <ele>569.6</ele>
        <time>2022-02-28T12:39:32Z</time>
      </trkpt>
      <trkpt lat="46.43271" lon="5.65123">
        <ele>569.8</ele>
        <time>2022-02-28T12:39:33Z</time>
      </trkpt>
      <trkpt lat="46.43266" lon="5.65121">
        <ele>569.8</ele>
        <time>2022-02-28T12:39:34Z</time>
      </trkpt>
      <trkpt lat="46.43261" lon="5.65119">
        <ele>570.2</ele>
        <time>2022-02-28T12:39:35Z</time>
      </trkpt>
      <trkpt lat="46.43255" lon="5.65118">
        <ele>570.2</ele>
        <time>2022-02-28T12:39:36Z</time>
      </trkpt>
      <trkpt lat="46.4325" lon="5.65117">
        <ele>570.6</ele>
        <time>2022-02-28T12:39:37Z</time>
      </trkpt>
      <trkpt lat="46.43245" lon="5.65115">
        <ele>570.8</ele>
        <time>2022-02-28T12:39:38Z</time>
      </trkpt>
      <trkpt lat="46.4324" lon="5.65113">
        <ele>570.8</ele>
        <time>2022-02-28T12:39:39Z</time>
      </trkpt>
      <trkpt lat="46.43235" lon="5.65111">
        <ele>571.2</ele>
        <time>2022-02-28T12:39:40Z</time>
      </trkpt>
      <trkpt lat="46.4323" lon="5.65109">
        <ele>571.4</ele>
        <time>2022-02-28T12:39:41Z</time>
      </trkpt>
      <trkpt lat="46.43226" lon="5.65107">
        <ele>571.4</ele>
        <time>2022-02-28T12:39:42Z</time>
      </trkpt>
      <trkpt lat="46.43221" lon="5.65105">
        <ele>571.6</ele>
        <time>2022-02-28T12:39:43Z</time>
      </trkpt>
      <trkpt lat="46.43216" lon="5.65102">
        <ele>571.6</ele>
        <time>2022-02-28T12:39:44Z</time>
      </trkpt>
      <trkpt lat="46.43211" lon="5.65101">
        <ele>572</ele>
        <time>2022-02-28T12:39:45Z</time>
      </trkpt>
      <trkpt lat="46.43206" lon="5.65099">
        <ele>572</ele>
        <time>2022-02-28T12:39:46Z</time>
      </trkpt>
      <trkpt lat="46.43201" lon="5.65097">
        <ele>572.2</ele>
        <time>2022-02-28T12:39:47Z</time>
      </trkpt>
      <trkpt lat="46.43196" lon="5.65096">
        <ele>572.2</ele>
        <time>2022-02-28T12:39:48Z</time>
      </trkpt>
      <trkpt lat="46.43191" lon="5.65094">
        <ele>572.6</ele>
        <time>2022-02-28T12:39:49Z</time>
      </trkpt>
      <trkpt lat="46.43186" lon="5.65092">
        <ele>572.6</ele>
        <time>2022-02-28T12:39:50Z</time>
      </trkpt>
      <trkpt lat="46.43181" lon="5.6509">
        <ele>572.8</ele>
        <time>2022-02-28T12:39:51Z</time>
      </trkpt>
      <trkpt lat="46.43176" lon="5.65088">
        <ele>572.8</ele>
        <time>2022-02-28T12:39:52Z</time>
      </trkpt>
      <trkpt lat="46.43171" lon="5.65086">
        <ele>573</ele>
        <time>2022-02-28T12:39:53Z</time>
      </trkpt>
      <trkpt lat="46.43166" lon="5.65083">
        <ele>573</ele>
        <time>2022-02-28T12:39:54Z</time>
      </trkpt>
      <trkpt lat="46.43161" lon="5.65081">
        <ele>573</ele>
        <time>2022-02-28T12:39:55Z</time>
      </trkpt>
      <trkpt lat="46.43155" lon="5.65079">
        <ele>573.2</ele>
        <time>2022-02-28T12:39:56Z</time>
      </trkpt>
      <trkpt lat="46.4315" lon="5.65077">
        <ele>573.2</ele>
        <time>2022-02-28T12:39:57Z</time>
      </trkpt>
      <trkpt lat="46.43145" lon="5.65075">
        <ele>573.2</ele>
        <time>2022-02-28T12:39:58Z</time>
      </trkpt>
      <trkpt lat="46.43139" lon="5.65073">
        <ele>573.2</ele>
        <time>2022-02-28T12:39:59Z</time>
      </trkpt>
      <trkpt lat="46.43131" lon="5.6507">
        <ele>573.2</ele>
        <time>2022-02-28T12:40:00Z</time>
      </trkpt>
      <trkpt lat="46.43128" lon="5.65069">
        <ele>573.2</ele>
        <time>2022-02-28T12:40:01Z</time>
      </trkpt>
      <trkpt lat="46.43122" lon="5.65067">
        <ele>573.2</ele>
        <time>2022-02-28T12:40:02Z</time>
      </trkpt>
      <trkpt lat="46.43116" lon="5.65064">
        <ele>573.2</ele>
        <time>2022-02-28T12:40:03Z</time>
      </trkpt>
      <trkpt lat="46.43111" lon="5.65062">
        <ele>573.2</ele>
        <time>2022-02-28T12:40:04Z</time>
      </trkpt>
      <trkpt lat="46.43105" lon="5.6506">
        <ele>573.2</ele>
        <time>2022-02-28T12:40:05Z</time>
      </trkpt>
      <trkpt lat="46.43099" lon="5.65057">
        <ele>573.2</ele>
        <time>2022-02-28T12:40:06Z</time>
      </trkpt>
      <trkpt lat="46.43093" lon="5.65055">
        <ele>573.2</ele>
        <time>2022-02-28T12:40:07Z</time>
      </trkpt>
      <trkpt lat="46.43088" lon="5.65053">
        <ele>573.2</ele>
        <time>2022-02-28T12:40:08Z</time>
      </trkpt>
      <trkpt lat="46.43082" lon="5.65051">
        <ele>573.2</ele>
        <time>2022-02-28T12:40:09Z</time>
      </trkpt>
      <trkpt lat="46.43076" lon="5.65048">
        <ele>573.2</ele>
        <time>2022-02-28T12:40:10Z</time>
      </trkpt>
      <trkpt lat="46.4307" lon="5.65046">
        <ele>573.4</ele>
        <time>2022-02-28T12:40:11Z</time>
      </trkpt>
      <trkpt lat="46.43065" lon="5.65044">
        <ele>573.4</ele>
        <time>2022-02-28T12:40:12Z</time>
      </trkpt>
      <trkpt lat="46.43059" lon="5.65042">
        <ele>573.8</ele>
        <time>2022-02-28T12:40:13Z</time>
      </trkpt>
      <trkpt lat="46.43054" lon="5.6504">
        <ele>573.8</ele>
        <time>2022-02-28T12:40:14Z</time>
      </trkpt>
      <trkpt lat="46.43049" lon="5.65038">
        <ele>574</ele>
        <time>2022-02-28T12:40:15Z</time>
      </trkpt>
      <trkpt lat="46.43044" lon="5.65037">
        <ele>574</ele>
        <time>2022-02-28T12:40:16Z</time>
      </trkpt>
      <trkpt lat="46.43039" lon="5.65035">
        <ele>574.4</ele>
        <time>2022-02-28T12:40:17Z</time>
      </trkpt>
      <trkpt lat="46.43034" lon="5.65033">
        <ele>574.4</ele>
        <time>2022-02-28T12:40:18Z</time>
      </trkpt>
      <trkpt lat="46.4303" lon="5.65031">
        <ele>574.6</ele>
        <time>2022-02-28T12:40:19Z</time>
      </trkpt>
      <trkpt lat="46.43025" lon="5.6503">
        <ele>574.6</ele>
        <time>2022-02-28T12:40:20Z</time>
      </trkpt>
      <trkpt lat="46.4302" lon="5.65028">
        <ele>574.8</ele>
        <time>2022-02-28T12:40:21Z</time>
      </trkpt>
      <trkpt lat="46.43015" lon="5.65026">
        <ele>574.8</ele>
        <time>2022-02-28T12:40:22Z</time>
      </trkpt>
      <trkpt lat="46.4301" lon="5.65025">
        <ele>575.2</ele>
        <time>2022-02-28T12:40:23Z</time>
      </trkpt>
      <trkpt lat="46.43006" lon="5.65023">
        <ele>575.2</ele>
        <time>2022-02-28T12:40:24Z</time>
      </trkpt>
      <trkpt lat="46.43001" lon="5.65021">
        <ele>575.4</ele>
        <time>2022-02-28T12:40:25Z</time>
      </trkpt>
      <trkpt lat="46.42996" lon="5.6502">
        <ele>575.4</ele>
        <time>2022-02-28T12:40:26Z</time>
      </trkpt>
      <trkpt lat="46.42991" lon="5.65018">
        <ele>575.6</ele>
        <time>2022-02-28T12:40:27Z</time>
      </trkpt>
      <trkpt lat="46.42987" lon="5.65016">
        <ele>575.6</ele>
        <time>2022-02-28T12:40:28Z</time>
      </trkpt>
      <trkpt lat="46.42982" lon="5.65015">
        <ele>575.6</ele>
        <time>2022-02-28T12:40:29Z</time>
      </trkpt>
      <trkpt lat="46.42977" lon="5.65014">
        <ele>575.8</ele>
        <time>2022-02-28T12:40:30Z</time>
      </trkpt>
      <trkpt lat="46.42972" lon="5.65013">
        <ele>575.8</ele>
        <time>2022-02-28T12:40:31Z</time>
      </trkpt>
      <trkpt lat="46.42967" lon="5.65012">
        <ele>575.8</ele>
        <time>2022-02-28T12:40:32Z</time>
      </trkpt>
      <trkpt lat="46.42961" lon="5.65011">
        <ele>575.8</ele>
        <time>2022-02-28T12:40:33Z</time>
      </trkpt>
      <trkpt lat="46.42956" lon="5.6501">
        <ele>575.8</ele>
        <time>2022-02-28T12:40:34Z</time>
      </trkpt>
      <trkpt lat="46.4295" lon="5.65009">
        <ele>575.8</ele>
        <time>2022-02-28T12:40:35Z</time>
      </trkpt>
      <trkpt lat="46.42945" lon="5.65008">
        <ele>575.8</ele>
        <time>2022-02-28T12:40:36Z</time>
      </trkpt>
      <trkpt lat="46.42939" lon="5.65008">
        <ele>575.8</ele>
        <time>2022-02-28T12:40:37Z</time>
      </trkpt>
      <trkpt lat="46.42933" lon="5.65007">
        <ele>575.8</ele>
        <time>2022-02-28T12:40:38Z</time>
      </trkpt>
      <trkpt lat="46.42928" lon="5.65006">
        <ele>575.8</ele>
        <time>2022-02-28T12:40:39Z</time>
      </trkpt>
      <trkpt lat="46.42922" lon="5.65005">
        <ele>575.8</ele>
        <time>2022-02-28T12:40:40Z</time>
      </trkpt>
      <trkpt lat="46.42917" lon="5.65005">
        <ele>575.8</ele>
        <time>2022-02-28T12:40:41Z</time>
      </trkpt>
      <trkpt lat="46.42911" lon="5.65004">
        <ele>575.8</ele>
        <time>2022-02-28T12:40:42Z</time>
      </trkpt>
      <trkpt lat="46.42906" lon="5.65003">
        <ele>575.8</ele>
        <time>2022-02-28T12:40:43Z</time>
      </trkpt>
      <trkpt lat="46.429" lon="5.65002">
        <ele>575.8</ele>
        <time>2022-02-28T12:40:44Z</time>
      </trkpt>
      <trkpt lat="46.42895" lon="5.65001">
        <ele>576.2</ele>
        <time>2022-02-28T12:40:45Z</time>
      </trkpt>
      <trkpt lat="46.42886" lon="5.65">
        <ele>576.2</ele>
        <time>2022-02-28T12:40:46Z</time>
      </trkpt>
      <trkpt lat="46.42883" lon="5.64999">
        <ele>576.2</ele>
        <time>2022-02-28T12:40:47Z</time>
      </trkpt>
      <trkpt lat="46.42878" lon="5.64999">
        <ele>576.2</ele>
        <time>2022-02-28T12:40:48Z</time>
      </trkpt>
      <trkpt lat="46.42872" lon="5.64998">
        <ele>576.2</ele>
        <time>2022-02-28T12:40:49Z</time>
      </trkpt>
      <trkpt lat="46.42866" lon="5.64997">
        <ele>576.2</ele>
        <time>2022-02-28T12:40:50Z</time>
      </trkpt>
      <trkpt lat="46.4286" lon="5.64996">
        <ele>576.2</ele>
        <time>2022-02-28T12:40:51Z</time>
      </trkpt>
      <trkpt lat="46.42854" lon="5.64995">
        <ele>576.2</ele>
        <time>2022-02-28T12:40:52Z</time>
      </trkpt>
      <trkpt lat="46.42848" lon="5.64994">
        <ele>576.2</ele>
        <time>2022-02-28T12:40:53Z</time>
      </trkpt>
      <trkpt lat="46.42841" lon="5.64993">
        <ele>576</ele>
        <time>2022-02-28T12:40:54Z</time>
      </trkpt>
      <trkpt lat="46.42834" lon="5.64992">
        <ele>576</ele>
        <time>2022-02-28T12:40:55Z</time>
      </trkpt>
      <trkpt lat="46.42827" lon="5.64991">
        <ele>575.8</ele>
        <time>2022-02-28T12:40:56Z</time>
      </trkpt>
      <trkpt lat="46.4282" lon="5.6499">
        <ele>575.8</ele>
        <time>2022-02-28T12:40:57Z</time>
      </trkpt>
      <trkpt lat="46.42813" lon="5.64989">
        <ele>575.8</ele>
        <time>2022-02-28T12:40:58Z</time>
      </trkpt>
      <trkpt lat="46.42806" lon="5.64987">
        <ele>575.4</ele>
        <time>2022-02-28T12:40:59Z</time>
      </trkpt>
      <trkpt lat="46.42799" lon="5.64985">
        <ele>575.4</ele>
        <time>2022-02-28T12:41:00Z</time>
      </trkpt>
      <trkpt lat="46.42792" lon="5.64983">
        <ele>575.4</ele>
        <time>2022-02-28T12:41:01Z</time>
      </trkpt>
      <trkpt lat="46.42784" lon="5.64981">
        <ele>575.2</ele>
        <time>2022-02-28T12:41:02Z</time>
      </trkpt>
      <trkpt lat="46.42777" lon="5.64979">
        <ele>575.2</ele>
        <time>2022-02-28T12:41:03Z</time>
      </trkpt>
      <trkpt lat="46.4277" lon="5.64976">
        <ele>575.2</ele>
        <time>2022-02-28T12:41:04Z</time>
      </trkpt>
      <trkpt lat="46.42764" lon="5.64974">
        <ele>575.2</ele>
        <time>2022-02-28T12:41:05Z</time>
      </trkpt>
      <trkpt lat="46.42757" lon="5.64972">
        <ele>575.2</ele>
        <time>2022-02-28T12:41:06Z</time>
      </trkpt>
      <trkpt lat="46.4275" lon="5.6497">
        <ele>575.2</ele>
        <time>2022-02-28T12:41:07Z</time>
      </trkpt>
      <trkpt lat="46.42744" lon="5.64968">
        <ele>575.2</ele>
        <time>2022-02-28T12:41:08Z</time>
      </trkpt>
      <trkpt lat="46.42737" lon="5.64965">
        <ele>575.4</ele>
        <time>2022-02-28T12:41:09Z</time>
      </trkpt>
      <trkpt lat="46.4273" lon="5.64962">
        <ele>575.4</ele>
        <time>2022-02-28T12:41:10Z</time>
      </trkpt>
      <trkpt lat="46.42724" lon="5.6496">
        <ele>575.6</ele>
        <time>2022-02-28T12:41:11Z</time>
      </trkpt>
      <trkpt lat="46.42718" lon="5.64958">
        <ele>575.8</ele>
        <time>2022-02-28T12:41:12Z</time>
      </trkpt>
      <trkpt lat="46.42712" lon="5.64956">
        <ele>575.8</ele>
        <time>2022-02-28T12:41:13Z</time>
      </trkpt>
      <trkpt lat="46.42707" lon="5.64954">
        <ele>576.2</ele>
        <time>2022-02-28T12:41:14Z</time>
      </trkpt>
      <trkpt lat="46.42701" lon="5.64953">
        <ele>576.4</ele>
        <time>2022-02-28T12:41:15Z</time>
      </trkpt>
      <trkpt lat="46.42696" lon="5.64951">
        <ele>576.8</ele>
        <time>2022-02-28T12:41:16Z</time>
      </trkpt>
      <trkpt lat="46.42691" lon="5.6495">
        <ele>576.8</ele>
        <time>2022-02-28T12:41:17Z</time>
      </trkpt>
      <trkpt lat="46.42686" lon="5.64948">
        <ele>577</ele>
        <time>2022-02-28T12:41:18Z</time>
      </trkpt>
      <trkpt lat="46.42681" lon="5.64947">
        <ele>577.4</ele>
        <time>2022-02-28T12:41:19Z</time>
      </trkpt>
      <trkpt lat="46.42676" lon="5.64946">
        <ele>577.6</ele>
        <time>2022-02-28T12:41:20Z</time>
      </trkpt>
      <trkpt lat="46.4267" lon="5.64946">
        <ele>577.6</ele>
        <time>2022-02-28T12:41:21Z</time>
      </trkpt>
      <trkpt lat="46.42664" lon="5.64945">
        <ele>577.8</ele>
        <time>2022-02-28T12:41:22Z</time>
      </trkpt>
      <trkpt lat="46.42659" lon="5.64945">
        <ele>577.8</ele>
        <time>2022-02-28T12:41:23Z</time>
      </trkpt>
      <trkpt lat="46.42653" lon="5.64944">
        <ele>577.8</ele>
        <time>2022-02-28T12:41:24Z</time>
      </trkpt>
      <trkpt lat="46.42647" lon="5.64943">
        <ele>578</ele>
        <time>2022-02-28T12:41:25Z</time>
      </trkpt>
      <trkpt lat="46.42641" lon="5.64943">
        <ele>578</ele>
        <time>2022-02-28T12:41:26Z</time>
      </trkpt>
      <trkpt lat="46.42635" lon="5.64942">
        <ele>578</ele>
        <time>2022-02-28T12:41:27Z</time>
      </trkpt>
      <trkpt lat="46.42629" lon="5.64942">
        <ele>578</ele>
        <time>2022-02-28T12:41:28Z</time>
      </trkpt>
      <trkpt lat="46.42623" lon="5.64942">
        <ele>578</ele>
        <time>2022-02-28T12:41:29Z</time>
      </trkpt>
      <trkpt lat="46.42617" lon="5.64942">
        <ele>578.2</ele>
        <time>2022-02-28T12:41:30Z</time>
      </trkpt>
      <trkpt lat="46.42607" lon="5.64941">
        <ele>578.2</ele>
        <time>2022-02-28T12:41:31Z</time>
      </trkpt>
      <trkpt lat="46.42603" lon="5.64941">
        <ele>578.2</ele>
        <time>2022-02-28T12:41:32Z</time>
      </trkpt>
      <trkpt lat="46.42594" lon="5.6494">
        <ele>578.6</ele>
        <time>2022-02-28T12:41:33Z</time>
      </trkpt>
      <trkpt lat="46.42589" lon="5.6494">
        <ele>578.6</ele>
        <time>2022-02-28T12:41:34Z</time>
      </trkpt>
      <trkpt lat="46.42583" lon="5.64941">
        <ele>578.6</ele>
        <time>2022-02-28T12:41:35Z</time>
      </trkpt>
      <trkpt lat="46.42577" lon="5.6494">
        <ele>578.8</ele>
        <time>2022-02-28T12:41:36Z</time>
      </trkpt>
      <trkpt lat="46.42571" lon="5.6494">
        <ele>578.8</ele>
        <time>2022-02-28T12:41:37Z</time>
      </trkpt>
      <trkpt lat="46.42566" lon="5.6494">
        <ele>579</ele>
        <time>2022-02-28T12:41:38Z</time>
      </trkpt>
      <trkpt lat="46.4256" lon="5.6494">
        <ele>579</ele>
        <time>2022-02-28T12:41:39Z</time>
      </trkpt>
      <trkpt lat="46.42554" lon="5.6494">
        <ele>579.4</ele>
        <time>2022-02-28T12:41:40Z</time>
      </trkpt>
      <trkpt lat="46.42549" lon="5.6494">
        <ele>579.4</ele>
        <time>2022-02-28T12:41:41Z</time>
      </trkpt>
      <trkpt lat="46.42544" lon="5.64941">
        <ele>579.6</ele>
        <time>2022-02-28T12:41:42Z</time>
      </trkpt>
      <trkpt lat="46.42539" lon="5.64941">
        <ele>579.6</ele>
        <time>2022-02-28T12:41:43Z</time>
      </trkpt>
      <trkpt lat="46.42539" lon="5.64941">
        <ele>579.8</ele>
        <time>2022-02-28T12:41:44Z</time>
      </trkpt>
      <trkpt lat="46.42535" lon="5.64941">
        <ele>579.8</ele>
        <time>2022-02-28T12:41:45Z</time>
      </trkpt>
      <trkpt lat="46.4253" lon="5.64941">
        <ele>580.2</ele>
        <time>2022-02-28T12:41:46Z</time>
      </trkpt>
      <trkpt lat="46.42526" lon="5.64941">
        <ele>580.6</ele>
        <time>2022-02-28T12:41:47Z</time>
      </trkpt>
      <trkpt lat="46.42522" lon="5.6494">
        <ele>581</ele>
        <time>2022-02-28T12:41:48Z</time>
      </trkpt>
      <trkpt lat="46.42518" lon="5.64939">
        <ele>581.2</ele>
        <time>2022-02-28T12:41:49Z</time>
      </trkpt>
      <trkpt lat="46.42514" lon="5.64938">
        <ele>581.4</ele>
        <time>2022-02-28T12:41:50Z</time>
      </trkpt>
      <trkpt lat="46.4251" lon="5.64937">
        <ele>581.8</ele>
        <time>2022-02-28T12:41:51Z</time>
      </trkpt>
      <trkpt lat="46.42506" lon="5.64936">
        <ele>582.2</ele>
        <time>2022-02-28T12:41:52Z</time>
      </trkpt>
      <trkpt lat="46.42501" lon="5.64935">
        <ele>582.4</ele>
        <time>2022-02-28T12:41:53Z</time>
      </trkpt>
      <trkpt lat="46.42497" lon="5.64934">
        <ele>582.6</ele>
        <time>2022-02-28T12:41:54Z</time>
      </trkpt>
      <trkpt lat="46.42493" lon="5.64933">
        <ele>583</ele>
        <time>2022-02-28T12:41:55Z</time>
      </trkpt>
      <trkpt lat="46.42489" lon="5.64931">
        <ele>583.2</ele>
        <time>2022-02-28T12:41:56Z</time>
      </trkpt>
      <trkpt lat="46.42485" lon="5.6493">
        <ele>583.6</ele>
        <time>2022-02-28T12:41:57Z</time>
      </trkpt>
      <trkpt lat="46.42481" lon="5.64929">
        <ele>583.8</ele>
        <time>2022-02-28T12:41:58Z</time>
      </trkpt>
      <trkpt lat="46.42477" lon="5.64928">
        <ele>584.2</ele>
        <time>2022-02-28T12:41:59Z</time>
      </trkpt>
      <trkpt lat="46.42473" lon="5.64927">
        <ele>584.4</ele>
        <time>2022-02-28T12:42:00Z</time>
      </trkpt>
      <trkpt lat="46.42469" lon="5.64927">
        <ele>584.8</ele>
        <time>2022-02-28T12:42:01Z</time>
      </trkpt>
      <trkpt lat="46.42465" lon="5.64927">
        <ele>585</ele>
        <time>2022-02-28T12:42:02Z</time>
      </trkpt>
      <trkpt lat="46.42461" lon="5.64926">
        <ele>585.6</ele>
        <time>2022-02-28T12:42:03Z</time>
      </trkpt>
      <trkpt lat="46.42457" lon="5.64926">
        <ele>585.8</ele>
        <time>2022-02-28T12:42:04Z</time>
      </trkpt>
      <trkpt lat="46.42453" lon="5.64927">
        <ele>586</ele>
        <time>2022-02-28T12:42:05Z</time>
      </trkpt>
      <trkpt lat="46.42449" lon="5.64927">
        <ele>586.2</ele>
        <time>2022-02-28T12:42:06Z</time>
      </trkpt>
      <trkpt lat="46.42445" lon="5.64927">
        <ele>586.4</ele>
        <time>2022-02-28T12:42:07Z</time>
      </trkpt>
      <trkpt lat="46.42441" lon="5.64928">
        <ele>586.8</ele>
        <time>2022-02-28T12:42:08Z</time>
      </trkpt>
      <trkpt lat="46.42437" lon="5.64928">
        <ele>587</ele>
        <time>2022-02-28T12:42:09Z</time>
      </trkpt>
      <trkpt lat="46.42434" lon="5.64928">
        <ele>587.2</ele>
        <time>2022-02-28T12:42:10Z</time>
      </trkpt>
      <trkpt lat="46.42428" lon="5.64929">
        <ele>587.6</ele>
        <time>2022-02-28T12:42:11Z</time>
      </trkpt>
      <trkpt lat="46.42426" lon="5.64929">
        <ele>587.8</ele>
        <time>2022-02-28T12:42:12Z</time>
      </trkpt>
      <trkpt lat="46.42423" lon="5.64929">
        <ele>588.2</ele>
        <time>2022-02-28T12:42:13Z</time>
      </trkpt>
      <trkpt lat="46.4242" lon="5.6493">
        <ele>588.4</ele>
        <time>2022-02-28T12:42:14Z</time>
      </trkpt>
      <trkpt lat="46.42417" lon="5.64931">
        <ele>588.6</ele>
        <time>2022-02-28T12:42:15Z</time>
      </trkpt>
      <trkpt lat="46.42413" lon="5.64931">
        <ele>589</ele>
        <time>2022-02-28T12:42:16Z</time>
      </trkpt>
      <trkpt lat="46.42408" lon="5.64932">
        <ele>589</ele>
        <time>2022-02-28T12:42:17Z</time>
      </trkpt>
      <trkpt lat="46.42406" lon="5.64933">
        <ele>589.4</ele>
        <time>2022-02-28T12:42:18Z</time>
      </trkpt>
      <trkpt lat="46.42403" lon="5.64934">
        <ele>589.4</ele>
        <time>2022-02-28T12:42:19Z</time>
      </trkpt>
      <trkpt lat="46.42399" lon="5.64935">
        <ele>589.8</ele>
        <time>2022-02-28T12:42:20Z</time>
      </trkpt>
      <trkpt lat="46.42396" lon="5.64935">
        <ele>590.2</ele>
        <time>2022-02-28T12:42:21Z</time>
      </trkpt>
      <trkpt lat="46.42393" lon="5.64935">
        <ele>590.4</ele>
        <time>2022-02-28T12:42:22Z</time>
      </trkpt>
      <trkpt lat="46.42389" lon="5.64935">
        <ele>590.6</ele>
        <time>2022-02-28T12:42:23Z</time>
      </trkpt>
      <trkpt lat="46.42386" lon="5.64936">
        <ele>591</ele>
        <time>2022-02-28T12:42:24Z</time>
      </trkpt>
      <trkpt lat="46.42383" lon="5.64936">
        <ele>591.2</ele>
        <time>2022-02-28T12:42:25Z</time>
      </trkpt>
      <trkpt lat="46.42377" lon="5.64935">
        <ele>591.6</ele>
        <time>2022-02-28T12:42:26Z</time>
      </trkpt>
      <trkpt lat="46.42376" lon="5.64935">
        <ele>591.8</ele>
        <time>2022-02-28T12:42:27Z</time>
      </trkpt>
      <trkpt lat="46.42372" lon="5.64935">
        <ele>592</ele>
        <time>2022-02-28T12:42:28Z</time>
      </trkpt>
      <trkpt lat="46.42369" lon="5.64934">
        <ele>592.4</ele>
        <time>2022-02-28T12:42:29Z</time>
      </trkpt>
      <trkpt lat="46.42365" lon="5.64934">
        <ele>592.6</ele>
        <time>2022-02-28T12:42:30Z</time>
      </trkpt>
      <trkpt lat="46.42362" lon="5.64933">
        <ele>592.6</ele>
        <time>2022-02-28T12:42:31Z</time>
      </trkpt>
      <trkpt lat="46.42358" lon="5.64933">
        <ele>593</ele>
        <time>2022-02-28T12:42:32Z</time>
      </trkpt>
      <trkpt lat="46.42355" lon="5.64934">
        <ele>593.4</ele>
        <time>2022-02-28T12:42:33Z</time>
      </trkpt>
      <trkpt lat="46.42352" lon="5.64936">
        <ele>593.6</ele>
        <time>2022-02-28T12:42:34Z</time>
      </trkpt>
      <trkpt lat="46.42349" lon="5.64938">
        <ele>593.6</ele>
        <time>2022-02-28T12:42:35Z</time>
      </trkpt>
      <trkpt lat="46.42346" lon="5.64939">
        <ele>594</ele>
        <time>2022-02-28T12:42:36Z</time>
      </trkpt>
      <trkpt lat="46.42343" lon="5.6494">
        <ele>594.2</ele>
        <time>2022-02-28T12:42:37Z</time>
      </trkpt>
      <trkpt lat="46.42339" lon="5.64942">
        <ele>594.4</ele>
        <time>2022-02-28T12:42:38Z</time>
      </trkpt>
      <trkpt lat="46.42336" lon="5.64944">
        <ele>594.4</ele>
        <time>2022-02-28T12:42:39Z</time>
      </trkpt>
      <trkpt lat="46.42333" lon="5.64947">
        <ele>594.4</ele>
        <time>2022-02-28T12:42:40Z</time>
      </trkpt>
      <trkpt lat="46.42329" lon="5.64951">
        <ele>594.4</ele>
        <time>2022-02-28T12:42:41Z</time>
      </trkpt>
      <trkpt lat="46.42325" lon="5.64954">
        <ele>594.4</ele>
        <time>2022-02-28T12:42:42Z</time>
      </trkpt>
      <trkpt lat="46.42321" lon="5.64957">
        <ele>594.2</ele>
        <time>2022-02-28T12:42:43Z</time>
      </trkpt>
      <trkpt lat="46.42314" lon="5.64962">
        <ele>594.2</ele>
        <time>2022-02-28T12:42:44Z</time>
      </trkpt>
      <trkpt lat="46.42311" lon="5.64964">
        <ele>594</ele>
        <time>2022-02-28T12:42:45Z</time>
      </trkpt>
      <trkpt lat="46.42306" lon="5.64968">
        <ele>594</ele>
        <time>2022-02-28T12:42:46Z</time>
      </trkpt>
      <trkpt lat="46.423" lon="5.64971">
        <ele>593.6</ele>
        <time>2022-02-28T12:42:47Z</time>
      </trkpt>
      <trkpt lat="46.42294" lon="5.64974">
        <ele>593.2</ele>
        <time>2022-02-28T12:42:48Z</time>
      </trkpt>
      <trkpt lat="46.42287" lon="5.64977">
        <ele>593</ele>
        <time>2022-02-28T12:42:49Z</time>
      </trkpt>
      <trkpt lat="46.4228" lon="5.64979">
        <ele>592.8</ele>
        <time>2022-02-28T12:42:50Z</time>
      </trkpt>
      <trkpt lat="46.42272" lon="5.64981">
        <ele>592.4</ele>
        <time>2022-02-28T12:42:51Z</time>
      </trkpt>
      <trkpt lat="46.42264" lon="5.64983">
        <ele>592.2</ele>
        <time>2022-02-28T12:42:52Z</time>
      </trkpt>
      <trkpt lat="46.42256" lon="5.64985">
        <ele>591.8</ele>
        <time>2022-02-28T12:42:53Z</time>
      </trkpt>
      <trkpt lat="46.42248" lon="5.64987">
        <ele>591.4</ele>
        <time>2022-02-28T12:42:54Z</time>
      </trkpt>
      <trkpt lat="46.4224" lon="5.64988">
        <ele>591</ele>
        <time>2022-02-28T12:42:55Z</time>
      </trkpt>
      <trkpt lat="46.42231" lon="5.64989">
        <ele>590.4</ele>
        <time>2022-02-28T12:42:56Z</time>
      </trkpt>
      <trkpt lat="46.42223" lon="5.6499">
        <ele>590</ele>
        <time>2022-02-28T12:42:57Z</time>
      </trkpt>
      <trkpt lat="46.42214" lon="5.64991">
        <ele>589.4</ele>
        <time>2022-02-28T12:42:58Z</time>
      </trkpt>
      <trkpt lat="46.42205" lon="5.64991">
        <ele>589</ele>
        <time>2022-02-28T12:42:59Z</time>
      </trkpt>
      <trkpt lat="46.42196" lon="5.64991">
        <ele>588.4</ele>
        <time>2022-02-28T12:43:00Z</time>
      </trkpt>
      <trkpt lat="46.42186" lon="5.64991">
        <ele>588</ele>
        <time>2022-02-28T12:43:01Z</time>
      </trkpt>
      <trkpt lat="46.42177" lon="5.64991">
        <ele>587.6</ele>
        <time>2022-02-28T12:43:02Z</time>
      </trkpt>
      <trkpt lat="46.42167" lon="5.64991">
        <ele>587.2</ele>
        <time>2022-02-28T12:43:03Z</time>
      </trkpt>
      <trkpt lat="46.42159" lon="5.6499">
        <ele>586.6</ele>
        <time>2022-02-28T12:43:04Z</time>
      </trkpt>
      <trkpt lat="46.42151" lon="5.6499">
        <ele>586.2</ele>
        <time>2022-02-28T12:43:05Z</time>
      </trkpt>
      <trkpt lat="46.42145" lon="5.64989">
        <ele>585.8</ele>
        <time>2022-02-28T12:43:06Z</time>
      </trkpt>
      <trkpt lat="46.42139" lon="5.6499">
        <ele>585.4</ele>
        <time>2022-02-28T12:43:07Z</time>
      </trkpt>
      <trkpt lat="46.42133" lon="5.64992">
        <ele>585</ele>
        <time>2022-02-28T12:43:08Z</time>
      </trkpt>
      <trkpt lat="46.42128" lon="5.64994">
        <ele>584.6</ele>
        <time>2022-02-28T12:43:09Z</time>
      </trkpt>
      <trkpt lat="46.42122" lon="5.64996">
        <ele>584.2</ele>
        <time>2022-02-28T12:43:10Z</time>
      </trkpt>
      <trkpt lat="46.42117" lon="5.64997">
        <ele>583.8</ele>
        <time>2022-02-28T12:43:11Z</time>
      </trkpt>
      <trkpt lat="46.42111" lon="5.64999">
        <ele>583.4</ele>
        <time>2022-02-28T12:43:12Z</time>
      </trkpt>
      <trkpt lat="46.42106" lon="5.64999">
        <ele>583</ele>
        <time>2022-02-28T12:43:13Z</time>
      </trkpt>
      <trkpt lat="46.42102" lon="5.65">
        <ele>582.6</ele>
        <time>2022-02-28T12:43:14Z</time>
      </trkpt>
      <trkpt lat="46.42098" lon="5.64999">
        <ele>582.4</ele>
        <time>2022-02-28T12:43:15Z</time>
      </trkpt>
      <trkpt lat="46.42095" lon="5.64999">
        <ele>582.2</ele>
        <time>2022-02-28T12:43:16Z</time>
      </trkpt>
      <trkpt lat="46.42093" lon="5.64999">
        <ele>581.8</ele>
        <time>2022-02-28T12:43:17Z</time>
      </trkpt>
      <trkpt lat="46.4209" lon="5.65">
        <ele>581.8</ele>
        <time>2022-02-28T12:43:18Z</time>
      </trkpt>
      <trkpt lat="46.4209" lon="5.65">
        <ele>581.6</ele>
        <time>2022-02-28T12:43:19Z</time>
      </trkpt>
      <trkpt lat="46.42089" lon="5.65">
        <ele>581.6</ele>
        <time>2022-02-28T12:43:20Z</time>
      </trkpt>
      <trkpt lat="46.42089" lon="5.65">
        <ele>581.4</ele>
        <time>2022-02-28T12:43:21Z</time>
      </trkpt>
      <trkpt lat="46.42088" lon="5.64999">
        <ele>581.4</ele>
        <time>2022-02-28T12:43:22Z</time>
      </trkpt>
      <trkpt lat="46.42088" lon="5.64999">
        <ele>581</ele>
        <time>2022-02-28T12:43:23Z</time>
      </trkpt>
      <trkpt lat="46.42088" lon="5.64999">
        <ele>581</ele>
        <time>2022-02-28T12:43:25Z</time>
      </trkpt>
      <trkpt lat="46.42087" lon="5.64999">
        <ele>581</ele>
        <time>2022-02-28T12:43:26Z</time>
      </trkpt>
      <trkpt lat="46.42087" lon="5.64999">
        <ele>581</ele>
        <time>2022-02-28T12:43:27Z</time>
      </trkpt>
      <trkpt lat="46.42086" lon="5.64999">
        <ele>581</ele>
        <time>2022-02-28T12:43:28Z</time>
      </trkpt>
      <trkpt lat="46.42086" lon="5.64999">
        <ele>581</ele>
        <time>2022-02-28T12:43:29Z</time>
      </trkpt>
      <trkpt lat="46.42086" lon="5.64999">
        <ele>581</ele>
        <time>2022-02-28T12:43:30Z</time>
      </trkpt>
      <trkpt lat="46.42085" lon="5.64999">
        <ele>581</ele>
        <time>2022-02-28T12:43:52Z</time>
      </trkpt>
      <trkpt lat="46.42085" lon="5.64999">
        <ele>581</ele>
        <time>2022-02-28T12:43:53Z</time>
      </trkpt>
      <trkpt lat="46.42084" lon="5.64999">
        <ele>581</ele>
        <time>2022-02-28T12:43:54Z</time>
      </trkpt>
      <trkpt lat="46.42084" lon="5.64999">
        <ele>581</ele>
        <time>2022-02-28T12:43:55Z</time>
      </trkpt>
      <trkpt lat="46.42083" lon="5.64998">
        <ele>581</ele>
        <time>2022-02-28T12:43:56Z</time>
      </trkpt>
      <trkpt lat="46.42083" lon="5.64998">
        <ele>581</ele>
        <time>2022-02-28T12:43:57Z</time>
      </trkpt>
      <trkpt lat="46.42083" lon="5.64998">
        <ele>581</ele>
        <time>2022-02-28T12:43:58Z</time>
      </trkpt>
      <trkpt lat="46.42082" lon="5.64998">
        <ele>581</ele>
        <time>2022-02-28T12:43:59Z</time>
      </trkpt>
      <trkpt lat="46.42081" lon="5.64996">
        <ele>581</ele>
        <time>2022-02-28T12:44:00Z</time>
      </trkpt>
      <trkpt lat="46.42079" lon="5.64994">
        <ele>581</ele>
        <time>2022-02-28T12:44:01Z</time>
      </trkpt>
      <trkpt lat="46.42078" lon="5.64992">
        <ele>581</ele>
        <time>2022-02-28T12:44:02Z</time>
      </trkpt>
      <trkpt lat="46.42077" lon="5.6499">
        <ele>581</ele>
        <time>2022-02-28T12:44:03Z</time>
      </trkpt>
      <trkpt lat="46.42075" lon="5.64987">
        <ele>581</ele>
        <time>2022-02-28T12:44:04Z</time>
      </trkpt>
      <trkpt lat="46.42074" lon="5.64985">
        <ele>580.8</ele>
        <time>2022-02-28T12:44:05Z</time>
      </trkpt>
      <trkpt lat="46.42073" lon="5.64982">
        <ele>580.8</ele>
        <time>2022-02-28T12:44:06Z</time>
      </trkpt>
      <trkpt lat="46.42071" lon="5.64979">
        <ele>580.8</ele>
        <time>2022-02-28T12:44:07Z</time>
      </trkpt>
      <trkpt lat="46.42067" lon="5.64976">
        <ele>580.8</ele>
        <time>2022-02-28T12:44:08Z</time>
      </trkpt>
      <trkpt lat="46.42063" lon="5.64974">
        <ele>580.6</ele>
        <time>2022-02-28T12:44:09Z</time>
      </trkpt>
      <trkpt lat="46.42058" lon="5.64972">
        <ele>580.4</ele>
        <time>2022-02-28T12:44:10Z</time>
      </trkpt>
      <trkpt lat="46.42052" lon="5.64971">
        <ele>580</ele>
        <time>2022-02-28T12:44:11Z</time>
      </trkpt>
      <trkpt lat="46.42046" lon="5.6497">
        <ele>579.6</ele>
        <time>2022-02-28T12:44:12Z</time>
      </trkpt>
      <trkpt lat="46.42046" lon="5.6497">
        <ele>579.2</ele>
        <time>2022-02-28T12:44:13Z</time>
      </trkpt>
      <trkpt lat="46.4204" lon="5.64968">
        <ele>578.8</ele>
        <time>2022-02-28T12:44:14Z</time>
      </trkpt>
      <trkpt lat="46.42033" lon="5.64967">
        <ele>578.4</ele>
        <time>2022-02-28T12:44:15Z</time>
      </trkpt>
      <trkpt lat="46.42026" lon="5.64965">
        <ele>578.2</ele>
        <time>2022-02-28T12:44:16Z</time>
      </trkpt>
      <trkpt lat="46.42018" lon="5.64962">
        <ele>577.8</ele>
        <time>2022-02-28T12:44:17Z</time>
      </trkpt>
      <trkpt lat="46.42011" lon="5.64961">
        <ele>577.4</ele>
        <time>2022-02-28T12:44:18Z</time>
      </trkpt>
      <trkpt lat="46.42003" lon="5.64958">
        <ele>577</ele>
        <time>2022-02-28T12:44:19Z</time>
      </trkpt>
      <trkpt lat="46.41995" lon="5.64956">
        <ele>576.6</ele>
        <time>2022-02-28T12:44:20Z</time>
      </trkpt>
      <trkpt lat="46.41982" lon="5.6495">
        <ele>576</ele>
        <time>2022-02-28T12:44:21Z</time>
      </trkpt>
      <trkpt lat="46.41977" lon="5.64948">
        <ele>575.4</ele>
        <time>2022-02-28T12:44:22Z</time>
      </trkpt>
      <trkpt lat="46.41968" lon="5.64944">
        <ele>574.8</ele>
        <time>2022-02-28T12:44:23Z</time>
      </trkpt>
      <trkpt lat="46.41957" lon="5.6494">
        <ele>574.2</ele>
        <time>2022-02-28T12:44:24Z</time>
      </trkpt>
      <trkpt lat="46.41946" lon="5.64937">
        <ele>573.4</ele>
        <time>2022-02-28T12:44:25Z</time>
      </trkpt>
      <trkpt lat="46.41935" lon="5.64936">
        <ele>572.6</ele>
        <time>2022-02-28T12:44:26Z</time>
      </trkpt>
      <trkpt lat="46.41924" lon="5.64935">
        <ele>572</ele>
        <time>2022-02-28T12:44:27Z</time>
      </trkpt>
      <trkpt lat="46.41913" lon="5.64935">
        <ele>571.6</ele>
        <time>2022-02-28T12:44:28Z</time>
      </trkpt>
      <trkpt lat="46.41902" lon="5.64935">
        <ele>571.2</ele>
        <time>2022-02-28T12:44:29Z</time>
      </trkpt>
      <trkpt lat="46.41891" lon="5.64935">
        <ele>571</ele>
        <time>2022-02-28T12:44:30Z</time>
      </trkpt>
      <trkpt lat="46.41881" lon="5.64935">
        <ele>570.6</ele>
        <time>2022-02-28T12:44:31Z</time>
      </trkpt>
      <trkpt lat="46.41865" lon="5.64934">
        <ele>570</ele>
        <time>2022-02-28T12:44:32Z</time>
      </trkpt>
      <trkpt lat="46.4186" lon="5.64934">
        <ele>569.6</ele>
        <time>2022-02-28T12:44:33Z</time>
      </trkpt>
      <trkpt lat="46.41849" lon="5.64934">
        <ele>569.2</ele>
        <time>2022-02-28T12:44:34Z</time>
      </trkpt>
      <trkpt lat="46.41839" lon="5.64934">
        <ele>568.8</ele>
        <time>2022-02-28T12:44:35Z</time>
      </trkpt>
      <trkpt lat="46.41829" lon="5.64933">
        <ele>568.6</ele>
        <time>2022-02-28T12:44:36Z</time>
      </trkpt>
      <trkpt lat="46.41819" lon="5.64931">
        <ele>568.2</ele>
        <time>2022-02-28T12:44:37Z</time>
      </trkpt>
      <trkpt lat="46.4181" lon="5.64929">
        <ele>567.8</ele>
        <time>2022-02-28T12:44:38Z</time>
      </trkpt>
      <trkpt lat="46.418" lon="5.64928">
        <ele>567.6</ele>
        <time>2022-02-28T12:44:39Z</time>
      </trkpt>
      <trkpt lat="46.41791" lon="5.64926">
        <ele>567.2</ele>
        <time>2022-02-28T12:44:40Z</time>
      </trkpt>
      <trkpt lat="46.41781" lon="5.64922">
        <ele>566.6</ele>
        <time>2022-02-28T12:44:41Z</time>
      </trkpt>
      <trkpt lat="46.41771" lon="5.64917">
        <ele>566</ele>
        <time>2022-02-28T12:44:42Z</time>
      </trkpt>
      <trkpt lat="46.41761" lon="5.64912">
        <ele>565.4</ele>
        <time>2022-02-28T12:44:43Z</time>
      </trkpt>
      <trkpt lat="46.4175" lon="5.64906">
        <ele>564.6</ele>
        <time>2022-02-28T12:44:44Z</time>
      </trkpt>
      <trkpt lat="46.4174" lon="5.64902">
        <ele>563.8</ele>
        <time>2022-02-28T12:44:45Z</time>
      </trkpt>
      <trkpt lat="46.41728" lon="5.64898">
        <ele>563.2</ele>
        <time>2022-02-28T12:44:46Z</time>
      </trkpt>
      <trkpt lat="46.41717" lon="5.64896">
        <ele>562.4</ele>
        <time>2022-02-28T12:44:47Z</time>
      </trkpt>
      <trkpt lat="46.41705" lon="5.64895">
        <ele>561.8</ele>
        <time>2022-02-28T12:44:48Z</time>
      </trkpt>
      <trkpt lat="46.41694" lon="5.64894">
        <ele>561.2</ele>
        <time>2022-02-28T12:44:49Z</time>
      </trkpt>
      <trkpt lat="46.41682" lon="5.64892">
        <ele>560.4</ele>
        <time>2022-02-28T12:44:50Z</time>
      </trkpt>
      <trkpt lat="46.41664" lon="5.6489">
        <ele>559.6</ele>
        <time>2022-02-28T12:44:51Z</time>
      </trkpt>
      <trkpt lat="46.41658" lon="5.6489">
        <ele>558.8</ele>
        <time>2022-02-28T12:44:52Z</time>
      </trkpt>
      <trkpt lat="46.41646" lon="5.64889">
        <ele>558</ele>
        <time>2022-02-28T12:44:53Z</time>
      </trkpt>
      <trkpt lat="46.41634" lon="5.64889">
        <ele>557.2</ele>
        <time>2022-02-28T12:44:54Z</time>
      </trkpt>
      <trkpt lat="46.41621" lon="5.64889">
        <ele>556.4</ele>
        <time>2022-02-28T12:44:55Z</time>
      </trkpt>
      <trkpt lat="46.41609" lon="5.6489">
        <ele>555.6</ele>
        <time>2022-02-28T12:44:56Z</time>
      </trkpt>
      <trkpt lat="46.41597" lon="5.64893">
        <ele>555</ele>
        <time>2022-02-28T12:44:57Z</time>
      </trkpt>
      <trkpt lat="46.41585" lon="5.64897">
        <ele>554.6</ele>
        <time>2022-02-28T12:44:58Z</time>
      </trkpt>
      <trkpt lat="46.41573" lon="5.649">
        <ele>553.8</ele>
        <time>2022-02-28T12:44:59Z</time>
      </trkpt>
      <trkpt lat="46.41561" lon="5.64902">
        <ele>553.4</ele>
        <time>2022-02-28T12:45:00Z</time>
      </trkpt>
      <trkpt lat="46.41549" lon="5.64901">
        <ele>552.8</ele>
        <time>2022-02-28T12:45:01Z</time>
      </trkpt>
      <trkpt lat="46.41537" lon="5.64899">
        <ele>552</ele>
        <time>2022-02-28T12:45:02Z</time>
      </trkpt>
      <trkpt lat="46.41525" lon="5.64897">
        <ele>551.4</ele>
        <time>2022-02-28T12:45:03Z</time>
      </trkpt>
      <trkpt lat="46.41513" lon="5.64896">
        <ele>550.6</ele>
        <time>2022-02-28T12:45:04Z</time>
      </trkpt>
      <trkpt lat="46.415" lon="5.64894">
        <ele>550</ele>
        <time>2022-02-28T12:45:05Z</time>
      </trkpt>
      <trkpt lat="46.41487" lon="5.64893">
        <ele>549.4</ele>
        <time>2022-02-28T12:45:06Z</time>
      </trkpt>
      <trkpt lat="46.41475" lon="5.64893">
        <ele>549</ele>
        <time>2022-02-28T12:45:07Z</time>
      </trkpt>
      <trkpt lat="46.41463" lon="5.64894">
        <ele>548.4</ele>
        <time>2022-02-28T12:45:08Z</time>
      </trkpt>
      <trkpt lat="46.41451" lon="5.64895">
        <ele>547.8</ele>
        <time>2022-02-28T12:45:09Z</time>
      </trkpt>
      <trkpt lat="46.41439" lon="5.64898">
        <ele>546.8</ele>
        <time>2022-02-28T12:45:10Z</time>
      </trkpt>
      <trkpt lat="46.41426" lon="5.64902">
        <ele>546</ele>
        <time>2022-02-28T12:45:11Z</time>
      </trkpt>
      <trkpt lat="46.41414" lon="5.64908">
        <ele>545.4</ele>
        <time>2022-02-28T12:45:12Z</time>
      </trkpt>
      <trkpt lat="46.41403" lon="5.64913">
        <ele>544.8</ele>
        <time>2022-02-28T12:45:13Z</time>
      </trkpt>
      <trkpt lat="46.41391" lon="5.64917">
        <ele>544.2</ele>
        <time>2022-02-28T12:45:14Z</time>
      </trkpt>
      <trkpt lat="46.41379" lon="5.64919">
        <ele>543.4</ele>
        <time>2022-02-28T12:45:15Z</time>
      </trkpt>
      <trkpt lat="46.41366" lon="5.64919">
        <ele>542.6</ele>
        <time>2022-02-28T12:45:16Z</time>
      </trkpt>
      <trkpt lat="46.41353" lon="5.64917">
        <ele>541.8</ele>
        <time>2022-02-28T12:45:17Z</time>
      </trkpt>
      <trkpt lat="46.4134" lon="5.64913">
        <ele>541</ele>
        <time>2022-02-28T12:45:18Z</time>
      </trkpt>
      <trkpt lat="46.41328" lon="5.6491">
        <ele>540</ele>
        <time>2022-02-28T12:45:19Z</time>
      </trkpt>
      <trkpt lat="46.41314" lon="5.64907">
        <ele>539.2</ele>
        <time>2022-02-28T12:45:20Z</time>
      </trkpt>
      <trkpt lat="46.41302" lon="5.64905">
        <ele>538.6</ele>
        <time>2022-02-28T12:45:21Z</time>
      </trkpt>
      <trkpt lat="46.41289" lon="5.64904">
        <ele>537.6</ele>
        <time>2022-02-28T12:45:22Z</time>
      </trkpt>
      <trkpt lat="46.41276" lon="5.64904">
        <ele>537</ele>
        <time>2022-02-28T12:45:23Z</time>
      </trkpt>
      <trkpt lat="46.41263" lon="5.64904">
        <ele>536.4</ele>
        <time>2022-02-28T12:45:24Z</time>
      </trkpt>
      <trkpt lat="46.41251" lon="5.64903">
        <ele>536</ele>
        <time>2022-02-28T12:45:25Z</time>
      </trkpt>
      <trkpt lat="46.41238" lon="5.64902">
        <ele>535.4</ele>
        <time>2022-02-28T12:45:26Z</time>
      </trkpt>
      <trkpt lat="46.41226" lon="5.649">
        <ele>534.8</ele>
        <time>2022-02-28T12:45:27Z</time>
      </trkpt>
      <trkpt lat="46.41214" lon="5.64898">
        <ele>534.4</ele>
        <time>2022-02-28T12:45:28Z</time>
      </trkpt>
      <trkpt lat="46.41202" lon="5.64897">
        <ele>534.2</ele>
        <time>2022-02-28T12:45:29Z</time>
      </trkpt>
      <trkpt lat="46.41191" lon="5.64895">
        <ele>534.2</ele>
        <time>2022-02-28T12:45:30Z</time>
      </trkpt>
      <trkpt lat="46.4118" lon="5.64894">
        <ele>534.2</ele>
        <time>2022-02-28T12:45:31Z</time>
      </trkpt>
      <trkpt lat="46.4117" lon="5.64892">
        <ele>534.2</ele>
        <time>2022-02-28T12:45:32Z</time>
      </trkpt>
      <trkpt lat="46.4116" lon="5.6489">
        <ele>534.2</ele>
        <time>2022-02-28T12:45:33Z</time>
      </trkpt>
      <trkpt lat="46.41151" lon="5.64888">
        <ele>534.2</ele>
        <time>2022-02-28T12:45:34Z</time>
      </trkpt>
      <trkpt lat="46.41142" lon="5.64885">
        <ele>534.2</ele>
        <time>2022-02-28T12:45:35Z</time>
      </trkpt>
      <trkpt lat="46.41134" lon="5.64882">
        <ele>534.2</ele>
        <time>2022-02-28T12:45:36Z</time>
      </trkpt>
      <trkpt lat="46.41126" lon="5.6488">
        <ele>534.4</ele>
        <time>2022-02-28T12:45:37Z</time>
      </trkpt>
      <trkpt lat="46.41117" lon="5.64877">
        <ele>534.6</ele>
        <time>2022-02-28T12:45:38Z</time>
      </trkpt>
      <trkpt lat="46.41109" lon="5.64875">
        <ele>534.6</ele>
        <time>2022-02-28T12:45:39Z</time>
      </trkpt>
      <trkpt lat="46.41101" lon="5.64873">
        <ele>535</ele>
        <time>2022-02-28T12:45:40Z</time>
      </trkpt>
      <trkpt lat="46.41093" lon="5.64872">
        <ele>535</ele>
        <time>2022-02-28T12:45:41Z</time>
      </trkpt>
      <trkpt lat="46.41084" lon="5.6487">
        <ele>535</ele>
        <time>2022-02-28T12:45:42Z</time>
      </trkpt>
      <trkpt lat="46.41076" lon="5.64869">
        <ele>535</ele>
        <time>2022-02-28T12:45:43Z</time>
      </trkpt>
      <trkpt lat="46.41068" lon="5.64867">
        <ele>534.8</ele>
        <time>2022-02-28T12:45:44Z</time>
      </trkpt>
      <trkpt lat="46.41059" lon="5.64866">
        <ele>534.4</ele>
        <time>2022-02-28T12:45:45Z</time>
      </trkpt>
      <trkpt lat="46.4105" lon="5.64864">
        <ele>534.2</ele>
        <time>2022-02-28T12:45:46Z</time>
      </trkpt>
      <trkpt lat="46.41041" lon="5.64862">
        <ele>533.8</ele>
        <time>2022-02-28T12:45:47Z</time>
      </trkpt>
      <trkpt lat="46.41031" lon="5.6486">
        <ele>533.2</ele>
        <time>2022-02-28T12:45:48Z</time>
      </trkpt>
      <trkpt lat="46.41022" lon="5.64857">
        <ele>532.6</ele>
        <time>2022-02-28T12:45:49Z</time>
      </trkpt>
      <trkpt lat="46.41011" lon="5.64854">
        <ele>532.2</ele>
        <time>2022-02-28T12:45:50Z</time>
      </trkpt>
      <trkpt lat="46.41001" lon="5.64852">
        <ele>531.6</ele>
        <time>2022-02-28T12:45:51Z</time>
      </trkpt>
      <trkpt lat="46.40991" lon="5.6485">
        <ele>531</ele>
        <time>2022-02-28T12:45:52Z</time>
      </trkpt>
      <trkpt lat="46.4098" lon="5.64848">
        <ele>530.4</ele>
        <time>2022-02-28T12:45:53Z</time>
      </trkpt>
      <trkpt lat="46.4097" lon="5.64847">
        <ele>529.6</ele>
        <time>2022-02-28T12:45:54Z</time>
      </trkpt>
      <trkpt lat="46.40959" lon="5.64845">
        <ele>528.8</ele>
        <time>2022-02-28T12:45:55Z</time>
      </trkpt>
      <trkpt lat="46.40948" lon="5.64843">
        <ele>528</ele>
        <time>2022-02-28T12:45:56Z</time>
      </trkpt>
      <trkpt lat="46.40936" lon="5.64841">
        <ele>527</ele>
        <time>2022-02-28T12:45:57Z</time>
      </trkpt>
      <trkpt lat="46.40924" lon="5.64839">
        <ele>526.2</ele>
        <time>2022-02-28T12:45:58Z</time>
      </trkpt>
      <trkpt lat="46.40911" lon="5.64839">
        <ele>525.2</ele>
        <time>2022-02-28T12:45:59Z</time>
      </trkpt>
      <trkpt lat="46.40898" lon="5.6484">
        <ele>524.4</ele>
        <time>2022-02-28T12:46:00Z</time>
      </trkpt>
      <trkpt lat="46.40886" lon="5.64841">
        <ele>523.6</ele>
        <time>2022-02-28T12:46:01Z</time>
      </trkpt>
      <trkpt lat="46.40872" lon="5.64842">
        <ele>522.6</ele>
        <time>2022-02-28T12:46:02Z</time>
      </trkpt>
      <trkpt lat="46.40859" lon="5.64844">
        <ele>521.8</ele>
        <time>2022-02-28T12:46:03Z</time>
      </trkpt>
      <trkpt lat="46.40846" lon="5.64846">
        <ele>521.2</ele>
        <time>2022-02-28T12:46:04Z</time>
      </trkpt>
      <trkpt lat="46.40835" lon="5.64845">
        <ele>520.6</ele>
        <time>2022-02-28T12:46:05Z</time>
      </trkpt>
      <trkpt lat="46.40824" lon="5.64843">
        <ele>520</ele>
        <time>2022-02-28T12:46:06Z</time>
      </trkpt>
      <trkpt lat="46.40812" lon="5.64841">
        <ele>519.2</ele>
        <time>2022-02-28T12:46:07Z</time>
      </trkpt>
      <trkpt lat="46.408" lon="5.64839">
        <ele>518.6</ele>
        <time>2022-02-28T12:46:08Z</time>
      </trkpt>
      <trkpt lat="46.40788" lon="5.64837">
        <ele>518</ele>
        <time>2022-02-28T12:46:09Z</time>
      </trkpt>
      <trkpt lat="46.40776" lon="5.64836">
        <ele>517.4</ele>
        <time>2022-02-28T12:46:10Z</time>
      </trkpt>
      <trkpt lat="46.40763" lon="5.64836">
        <ele>517</ele>
        <time>2022-02-28T12:46:11Z</time>
      </trkpt>
      <trkpt lat="46.40752" lon="5.64836">
        <ele>516.6</ele>
        <time>2022-02-28T12:46:12Z</time>
      </trkpt>
      <trkpt lat="46.40741" lon="5.64835">
        <ele>516.4</ele>
        <time>2022-02-28T12:46:13Z</time>
      </trkpt>
      <trkpt lat="46.4073" lon="5.64835">
        <ele>516</ele>
        <time>2022-02-28T12:46:14Z</time>
      </trkpt>
      <trkpt lat="46.40715" lon="5.64836">
        <ele>516</ele>
        <time>2022-02-28T12:46:15Z</time>
      </trkpt>
      <trkpt lat="46.4071" lon="5.64836">
        <ele>516</ele>
        <time>2022-02-28T12:46:16Z</time>
      </trkpt>
      <trkpt lat="46.407" lon="5.64837">
        <ele>516</ele>
        <time>2022-02-28T12:46:17Z</time>
      </trkpt>
      <trkpt lat="46.40692" lon="5.64836">
        <ele>516</ele>
        <time>2022-02-28T12:46:18Z</time>
      </trkpt>
      <trkpt lat="46.40684" lon="5.64837">
        <ele>516.4</ele>
        <time>2022-02-28T12:46:19Z</time>
      </trkpt>
      <trkpt lat="46.40676" lon="5.64838">
        <ele>516.4</ele>
        <time>2022-02-28T12:46:20Z</time>
      </trkpt>
      <trkpt lat="46.40668" lon="5.64839">
        <ele>516.8</ele>
        <time>2022-02-28T12:46:21Z</time>
      </trkpt>
      <trkpt lat="46.4066" lon="5.6484">
        <ele>516.8</ele>
        <time>2022-02-28T12:46:22Z</time>
      </trkpt>
      <trkpt lat="46.40653" lon="5.64841">
        <ele>517</ele>
        <time>2022-02-28T12:46:23Z</time>
      </trkpt>
      <trkpt lat="46.40646" lon="5.64843">
        <ele>517</ele>
        <time>2022-02-28T12:46:24Z</time>
      </trkpt>
      <trkpt lat="46.40639" lon="5.64844">
        <ele>517.4</ele>
        <time>2022-02-28T12:46:25Z</time>
      </trkpt>
      <trkpt lat="46.40632" lon="5.64846">
        <ele>517.4</ele>
        <time>2022-02-28T12:46:26Z</time>
      </trkpt>
      <trkpt lat="46.40625" lon="5.64847">
        <ele>517.6</ele>
        <time>2022-02-28T12:46:27Z</time>
      </trkpt>
      <trkpt lat="46.40618" lon="5.64849">
        <ele>517.6</ele>
        <time>2022-02-28T12:46:28Z</time>
      </trkpt>
      <trkpt lat="46.40611" lon="5.6485">
        <ele>517.6</ele>
        <time>2022-02-28T12:46:29Z</time>
      </trkpt>
      <trkpt lat="46.40604" lon="5.64852">
        <ele>517.6</ele>
        <time>2022-02-28T12:46:30Z</time>
      </trkpt>
      <trkpt lat="46.40597" lon="5.64854">
        <ele>517.6</ele>
        <time>2022-02-28T12:46:31Z</time>
      </trkpt>
      <trkpt lat="46.4059" lon="5.64855">
        <ele>517.6</ele>
        <time>2022-02-28T12:46:32Z</time>
      </trkpt>
      <trkpt lat="46.40583" lon="5.64856">
        <ele>517.4</ele>
        <time>2022-02-28T12:46:33Z</time>
      </trkpt>
      <trkpt lat="46.40576" lon="5.64858">
        <ele>517.4</ele>
        <time>2022-02-28T12:46:34Z</time>
      </trkpt>
      <trkpt lat="46.40568" lon="5.6486">
        <ele>517</ele>
        <time>2022-02-28T12:46:35Z</time>
      </trkpt>
      <trkpt lat="46.40561" lon="5.64861">
        <ele>517</ele>
        <time>2022-02-28T12:46:36Z</time>
      </trkpt>
      <trkpt lat="46.40553" lon="5.64862">
        <ele>516.8</ele>
        <time>2022-02-28T12:46:37Z</time>
      </trkpt>
      <trkpt lat="46.40545" lon="5.64863">
        <ele>516.6</ele>
        <time>2022-02-28T12:46:38Z</time>
      </trkpt>
      <trkpt lat="46.40536" lon="5.64864">
        <ele>516.6</ele>
        <time>2022-02-28T12:46:39Z</time>
      </trkpt>
      <trkpt lat="46.40528" lon="5.64865">
        <ele>516.2</ele>
        <time>2022-02-28T12:46:40Z</time>
      </trkpt>
      <trkpt lat="46.4052" lon="5.64865">
        <ele>516.2</ele>
        <time>2022-02-28T12:46:41Z</time>
      </trkpt>
      <trkpt lat="46.40512" lon="5.64863">
        <ele>516.2</ele>
        <time>2022-02-28T12:46:42Z</time>
      </trkpt>
      <trkpt lat="46.40504" lon="5.64862">
        <ele>516</ele>
        <time>2022-02-28T12:46:43Z</time>
      </trkpt>
      <trkpt lat="46.40496" lon="5.6486">
        <ele>516</ele>
        <time>2022-02-28T12:46:44Z</time>
      </trkpt>
      <trkpt lat="46.40488" lon="5.64859">
        <ele>516</ele>
        <time>2022-02-28T12:46:45Z</time>
      </trkpt>
      <trkpt lat="46.4048" lon="5.64858">
        <ele>516</ele>
        <time>2022-02-28T12:46:46Z</time>
      </trkpt>
      <trkpt lat="46.40472" lon="5.64856">
        <ele>516</ele>
        <time>2022-02-28T12:46:47Z</time>
      </trkpt>
      <trkpt lat="46.40465" lon="5.64855">
        <ele>516</ele>
        <time>2022-02-28T12:46:48Z</time>
      </trkpt>
      <trkpt lat="46.40457" lon="5.64853">
        <ele>516</ele>
        <time>2022-02-28T12:46:49Z</time>
      </trkpt>
      <trkpt lat="46.4045" lon="5.64852">
        <ele>516</ele>
        <time>2022-02-28T12:46:50Z</time>
      </trkpt>
      <trkpt lat="46.40442" lon="5.64851">
        <ele>516</ele>
        <time>2022-02-28T12:46:51Z</time>
      </trkpt>
      <trkpt lat="46.40435" lon="5.6485">
        <ele>516</ele>
        <time>2022-02-28T12:46:52Z</time>
      </trkpt>
      <trkpt lat="46.40428" lon="5.6485">
        <ele>516</ele>
        <time>2022-02-28T12:46:53Z</time>
      </trkpt>
      <trkpt lat="46.40421" lon="5.64849">
        <ele>516.2</ele>
        <time>2022-02-28T12:46:54Z</time>
      </trkpt>
      <trkpt lat="46.40414" lon="5.64848">
        <ele>516.2</ele>
        <time>2022-02-28T12:46:55Z</time>
      </trkpt>
      <trkpt lat="46.40408" lon="5.64848">
        <ele>516.2</ele>
        <time>2022-02-28T12:46:56Z</time>
      </trkpt>
      <trkpt lat="46.40402" lon="5.64847">
        <ele>516.2</ele>
        <time>2022-02-28T12:46:57Z</time>
      </trkpt>
      <trkpt lat="46.40395" lon="5.64848">
        <ele>516.2</ele>
        <time>2022-02-28T12:46:58Z</time>
      </trkpt>
      <trkpt lat="46.4039" lon="5.64848">
        <ele>516.2</ele>
        <time>2022-02-28T12:46:59Z</time>
      </trkpt>
      <trkpt lat="46.40384" lon="5.6485">
        <ele>516.4</ele>
        <time>2022-02-28T12:47:00Z</time>
      </trkpt>
      <trkpt lat="46.40378" lon="5.64851">
        <ele>516.4</ele>
        <time>2022-02-28T12:47:01Z</time>
      </trkpt>
      <trkpt lat="46.40373" lon="5.64854">
        <ele>516.4</ele>
        <time>2022-02-28T12:47:02Z</time>
      </trkpt>
      <trkpt lat="46.40368" lon="5.64857">
        <ele>516.4</ele>
        <time>2022-02-28T12:47:03Z</time>
      </trkpt>
      <trkpt lat="46.40364" lon="5.6486">
        <ele>516.8</ele>
        <time>2022-02-28T12:47:04Z</time>
      </trkpt>
      <trkpt lat="46.40359" lon="5.64864">
        <ele>516.8</ele>
        <time>2022-02-28T12:47:05Z</time>
      </trkpt>
      <trkpt lat="46.40354" lon="5.64868">
        <ele>516.8</ele>
        <time>2022-02-28T12:47:06Z</time>
      </trkpt>
      <trkpt lat="46.40351" lon="5.64874">
        <ele>516.8</ele>
        <time>2022-02-28T12:47:07Z</time>
      </trkpt>
      <trkpt lat="46.40348" lon="5.6488">
        <ele>517</ele>
        <time>2022-02-28T12:47:08Z</time>
      </trkpt>
      <trkpt lat="46.40344" lon="5.64886">
        <ele>517</ele>
        <time>2022-02-28T12:47:09Z</time>
      </trkpt>
      <trkpt lat="46.40342" lon="5.64892">
        <ele>517.2</ele>
        <time>2022-02-28T12:47:10Z</time>
      </trkpt>
      <trkpt lat="46.4034" lon="5.64899">
        <ele>517.6</ele>
        <time>2022-02-28T12:47:11Z</time>
      </trkpt>
      <trkpt lat="46.40338" lon="5.64905">
        <ele>517.6</ele>
        <time>2022-02-28T12:47:12Z</time>
      </trkpt>
      <trkpt lat="46.40336" lon="5.64912">
        <ele>518</ele>
        <time>2022-02-28T12:47:13Z</time>
      </trkpt>
      <trkpt lat="46.40335" lon="5.64918">
        <ele>518.2</ele>
        <time>2022-02-28T12:47:14Z</time>
      </trkpt>
      <trkpt lat="46.40334" lon="5.64924">
        <ele>518.4</ele>
        <time>2022-02-28T12:47:15Z</time>
      </trkpt>
      <trkpt lat="46.40333" lon="5.6493">
        <ele>518.8</ele>
        <time>2022-02-28T12:47:16Z</time>
      </trkpt>
      <trkpt lat="46.40331" lon="5.64936">
        <ele>519</ele>
        <time>2022-02-28T12:47:17Z</time>
      </trkpt>
      <trkpt lat="46.40329" lon="5.64941">
        <ele>519.4</ele>
        <time>2022-02-28T12:47:18Z</time>
      </trkpt>
      <trkpt lat="46.40327" lon="5.64946">
        <ele>519.8</ele>
        <time>2022-02-28T12:47:19Z</time>
      </trkpt>
      <trkpt lat="46.40326" lon="5.64951">
        <ele>520</ele>
        <time>2022-02-28T12:47:20Z</time>
      </trkpt>
      <trkpt lat="46.40324" lon="5.64956">
        <ele>520.2</ele>
        <time>2022-02-28T12:47:21Z</time>
      </trkpt>
      <trkpt lat="46.40322" lon="5.64961">
        <ele>520.4</ele>
        <time>2022-02-28T12:47:22Z</time>
      </trkpt>
      <trkpt lat="46.40321" lon="5.64966">
        <ele>520.6</ele>
        <time>2022-02-28T12:47:23Z</time>
      </trkpt>
      <trkpt lat="46.40319" lon="5.64971">
        <ele>521</ele>
        <time>2022-02-28T12:47:24Z</time>
      </trkpt>
      <trkpt lat="46.40318" lon="5.64976">
        <ele>521.2</ele>
        <time>2022-02-28T12:47:25Z</time>
      </trkpt>
      <trkpt lat="46.40316" lon="5.64981">
        <ele>521.2</ele>
        <time>2022-02-28T12:47:26Z</time>
      </trkpt>
      <trkpt lat="46.40314" lon="5.64986">
        <ele>521.4</ele>
        <time>2022-02-28T12:47:27Z</time>
      </trkpt>
      <trkpt lat="46.40312" lon="5.64992">
        <ele>521.4</ele>
        <time>2022-02-28T12:47:28Z</time>
      </trkpt>
      <trkpt lat="46.40309" lon="5.64997">
        <ele>521.6</ele>
        <time>2022-02-28T12:47:29Z</time>
      </trkpt>
      <trkpt lat="46.40307" lon="5.65003">
        <ele>521.6</ele>
        <time>2022-02-28T12:47:30Z</time>
      </trkpt>
      <trkpt lat="46.40305" lon="5.65009">
        <ele>521.6</ele>
        <time>2022-02-28T12:47:31Z</time>
      </trkpt>
      <trkpt lat="46.40303" lon="5.65015">
        <ele>521.6</ele>
        <time>2022-02-28T12:47:32Z</time>
      </trkpt>
      <trkpt lat="46.403" lon="5.65022">
        <ele>521.6</ele>
        <time>2022-02-28T12:47:33Z</time>
      </trkpt>
      <trkpt lat="46.40298" lon="5.6503">
        <ele>521.6</ele>
        <time>2022-02-28T12:47:34Z</time>
      </trkpt>
      <trkpt lat="46.40295" lon="5.65038">
        <ele>521.4</ele>
        <time>2022-02-28T12:47:35Z</time>
      </trkpt>
      <trkpt lat="46.40293" lon="5.65046">
        <ele>521.4</ele>
        <time>2022-02-28T12:47:36Z</time>
      </trkpt>
      <trkpt lat="46.40292" lon="5.65055">
        <ele>521.2</ele>
        <time>2022-02-28T12:47:37Z</time>
      </trkpt>
      <trkpt lat="46.4029" lon="5.65065">
        <ele>521.2</ele>
        <time>2022-02-28T12:47:38Z</time>
      </trkpt>
      <trkpt lat="46.40288" lon="5.65073">
        <ele>521.2</ele>
        <time>2022-02-28T12:47:39Z</time>
      </trkpt>
      <trkpt lat="46.40286" lon="5.65082">
        <ele>520.8</ele>
        <time>2022-02-28T12:47:40Z</time>
      </trkpt>
      <trkpt lat="46.40284" lon="5.65091">
        <ele>520.8</ele>
        <time>2022-02-28T12:47:41Z</time>
      </trkpt>
      <trkpt lat="46.40282" lon="5.651">
        <ele>520.6</ele>
        <time>2022-02-28T12:47:42Z</time>
      </trkpt>
      <trkpt lat="46.4028" lon="5.6511">
        <ele>520.2</ele>
        <time>2022-02-28T12:47:43Z</time>
      </trkpt>
      <trkpt lat="46.40279" lon="5.65119">
        <ele>520</ele>
        <time>2022-02-28T12:47:44Z</time>
      </trkpt>
      <trkpt lat="46.40277" lon="5.65129">
        <ele>519.8</ele>
        <time>2022-02-28T12:47:45Z</time>
      </trkpt>
      <trkpt lat="46.40275" lon="5.65139">
        <ele>519.6</ele>
        <time>2022-02-28T12:47:46Z</time>
      </trkpt>
      <trkpt lat="46.40273" lon="5.65148">
        <ele>519.6</ele>
        <time>2022-02-28T12:47:47Z</time>
      </trkpt>
      <trkpt lat="46.40271" lon="5.65158">
        <ele>519.2</ele>
        <time>2022-02-28T12:47:48Z</time>
      </trkpt>
      <trkpt lat="46.40269" lon="5.65168">
        <ele>519.2</ele>
        <time>2022-02-28T12:47:49Z</time>
      </trkpt>
      <trkpt lat="46.40267" lon="5.65177">
        <ele>519.2</ele>
        <time>2022-02-28T12:47:50Z</time>
      </trkpt>
      <trkpt lat="46.40265" lon="5.65187">
        <ele>519</ele>
        <time>2022-02-28T12:47:51Z</time>
      </trkpt>
      <trkpt lat="46.40264" lon="5.65197">
        <ele>519</ele>
        <time>2022-02-28T12:47:52Z</time>
      </trkpt>
      <trkpt lat="46.40264" lon="5.65206">
        <ele>519</ele>
        <time>2022-02-28T12:47:53Z</time>
      </trkpt>
      <trkpt lat="46.40264" lon="5.65215">
        <ele>519</ele>
        <time>2022-02-28T12:47:54Z</time>
      </trkpt>
      <trkpt lat="46.40264" lon="5.65224">
        <ele>519</ele>
        <time>2022-02-28T12:47:55Z</time>
      </trkpt>
      <trkpt lat="46.40264" lon="5.65233">
        <ele>519</ele>
        <time>2022-02-28T12:47:56Z</time>
      </trkpt>
      <trkpt lat="46.40263" lon="5.65242">
        <ele>519</ele>
        <time>2022-02-28T12:47:57Z</time>
      </trkpt>
      <trkpt lat="46.40262" lon="5.65251">
        <ele>518.8</ele>
        <time>2022-02-28T12:47:58Z</time>
      </trkpt>
      <trkpt lat="46.40261" lon="5.6526">
        <ele>518.4</ele>
        <time>2022-02-28T12:47:59Z</time>
      </trkpt>
      <trkpt lat="46.40258" lon="5.6527">
        <ele>518</ele>
        <time>2022-02-28T12:48:00Z</time>
      </trkpt>
      <trkpt lat="46.40254" lon="5.65286">
        <ele>517.6</ele>
        <time>2022-02-28T12:48:01Z</time>
      </trkpt>
      <trkpt lat="46.40253" lon="5.65292">
        <ele>517.2</ele>
        <time>2022-02-28T12:48:02Z</time>
      </trkpt>
      <trkpt lat="46.4025" lon="5.65303">
        <ele>516.8</ele>
        <time>2022-02-28T12:48:03Z</time>
      </trkpt>
      <trkpt lat="46.40246" lon="5.65315">
        <ele>516.2</ele>
        <time>2022-02-28T12:48:04Z</time>
      </trkpt>
      <trkpt lat="46.40236" lon="5.6534">
        <ele>515.8</ele>
        <time>2022-02-28T12:48:05Z</time>
      </trkpt>
      <trkpt lat="46.40229" lon="5.65352">
        <ele>515.2</ele>
        <time>2022-02-28T12:48:06Z</time>
      </trkpt>
      <trkpt lat="46.40222" lon="5.65363">
        <ele>514.6</ele>
        <time>2022-02-28T12:48:07Z</time>
      </trkpt>
      <trkpt lat="46.40215" lon="5.65373">
        <ele>514.2</ele>
        <time>2022-02-28T12:48:08Z</time>
      </trkpt>
      <trkpt lat="46.40208" lon="5.65384">
        <ele>513.8</ele>
        <time>2022-02-28T12:48:09Z</time>
      </trkpt>
      <trkpt lat="46.40202" lon="5.65394">
        <ele>513.6</ele>
        <time>2022-02-28T12:48:10Z</time>
      </trkpt>
      <trkpt lat="46.40193" lon="5.65408">
        <ele>513.4</ele>
        <time>2022-02-28T12:48:11Z</time>
      </trkpt>
      <trkpt lat="46.4019" lon="5.65413">
        <ele>513</ele>
        <time>2022-02-28T12:48:12Z</time>
      </trkpt>
      <trkpt lat="46.40185" lon="5.65423">
        <ele>513</ele>
        <time>2022-02-28T12:48:13Z</time>
      </trkpt>
      <trkpt lat="46.40179" lon="5.65433">
        <ele>512.8</ele>
        <time>2022-02-28T12:48:14Z</time>
      </trkpt>
      <trkpt lat="46.40173" lon="5.65442">
        <ele>512.8</ele>
        <time>2022-02-28T12:48:15Z</time>
      </trkpt>
      <trkpt lat="46.40167" lon="5.65451">
        <ele>512.6</ele>
        <time>2022-02-28T12:48:16Z</time>
      </trkpt>
      <trkpt lat="46.4016" lon="5.65459">
        <ele>512.6</ele>
        <time>2022-02-28T12:48:17Z</time>
      </trkpt>
      <trkpt lat="46.40154" lon="5.65468">
        <ele>512.4</ele>
        <time>2022-02-28T12:48:18Z</time>
      </trkpt>
      <trkpt lat="46.40147" lon="5.65476">
        <ele>512.2</ele>
        <time>2022-02-28T12:48:19Z</time>
      </trkpt>
      <trkpt lat="46.4014" lon="5.65484">
        <ele>512.2</ele>
        <time>2022-02-28T12:48:20Z</time>
      </trkpt>
      <trkpt lat="46.40132" lon="5.65491">
        <ele>511.8</ele>
        <time>2022-02-28T12:48:21Z</time>
      </trkpt>
      <trkpt lat="46.40125" lon="5.65499">
        <ele>511.8</ele>
        <time>2022-02-28T12:48:22Z</time>
      </trkpt>
      <trkpt lat="46.40125" lon="5.65499">
        <ele>511.4</ele>
        <time>2022-02-28T12:48:23Z</time>
      </trkpt>
      <trkpt lat="46.40117" lon="5.65507">
        <ele>511.2</ele>
        <time>2022-02-28T12:48:24Z</time>
      </trkpt>
      <trkpt lat="46.40109" lon="5.65515">
        <ele>511.2</ele>
        <time>2022-02-28T12:48:25Z</time>
      </trkpt>
      <trkpt lat="46.40101" lon="5.65523">
        <ele>510.8</ele>
        <time>2022-02-28T12:48:26Z</time>
      </trkpt>
      <trkpt lat="46.40094" lon="5.65531">
        <ele>510.8</ele>
        <time>2022-02-28T12:48:27Z</time>
      </trkpt>
      <trkpt lat="46.40087" lon="5.65541">
        <ele>510.4</ele>
        <time>2022-02-28T12:48:28Z</time>
      </trkpt>
      <trkpt lat="46.4008" lon="5.6555">
        <ele>510.4</ele>
        <time>2022-02-28T12:48:29Z</time>
      </trkpt>
      <trkpt lat="46.40074" lon="5.65559">
        <ele>510.2</ele>
        <time>2022-02-28T12:48:30Z</time>
      </trkpt>
      <trkpt lat="46.40067" lon="5.65568">
        <ele>510.2</ele>
        <time>2022-02-28T12:48:31Z</time>
      </trkpt>
      <trkpt lat="46.40061" lon="5.65577">
        <ele>510</ele>
        <time>2022-02-28T12:48:32Z</time>
      </trkpt>
      <trkpt lat="46.40055" lon="5.65586">
        <ele>510</ele>
        <time>2022-02-28T12:48:33Z</time>
      </trkpt>
      <trkpt lat="46.40049" lon="5.65595">
        <ele>510</ele>
        <time>2022-02-28T12:48:34Z</time>
      </trkpt>
      <trkpt lat="46.40043" lon="5.65603">
        <ele>510</ele>
        <time>2022-02-28T12:48:35Z</time>
      </trkpt>
      <trkpt lat="46.40036" lon="5.65612">
        <ele>510</ele>
        <time>2022-02-28T12:48:36Z</time>
      </trkpt>
      <trkpt lat="46.4003" lon="5.65621">
        <ele>509.8</ele>
        <time>2022-02-28T12:48:37Z</time>
      </trkpt>
      <trkpt lat="46.40025" lon="5.65629">
        <ele>509.8</ele>
        <time>2022-02-28T12:48:38Z</time>
      </trkpt>
      <trkpt lat="46.40019" lon="5.65638">
        <ele>509.8</ele>
        <time>2022-02-28T12:48:39Z</time>
      </trkpt>
      <trkpt lat="46.40013" lon="5.65646">
        <ele>510</ele>
        <time>2022-02-28T12:48:40Z</time>
      </trkpt>
      <trkpt lat="46.40008" lon="5.65655">
        <ele>510</ele>
        <time>2022-02-28T12:48:41Z</time>
      </trkpt>
      <trkpt lat="46.40004" lon="5.65663">
        <ele>510</ele>
        <time>2022-02-28T12:48:42Z</time>
      </trkpt>
      <trkpt lat="46.4" lon="5.65672">
        <ele>510</ele>
        <time>2022-02-28T12:48:43Z</time>
      </trkpt>
      <trkpt lat="46.39996" lon="5.65681">
        <ele>510</ele>
        <time>2022-02-28T12:48:44Z</time>
      </trkpt>
      <trkpt lat="46.39993" lon="5.6569">
        <ele>510</ele>
        <time>2022-02-28T12:48:45Z</time>
      </trkpt>
      <trkpt lat="46.3999" lon="5.65699">
        <ele>510</ele>
        <time>2022-02-28T12:48:46Z</time>
      </trkpt>
      <trkpt lat="46.39988" lon="5.65709">
        <ele>510</ele>
        <time>2022-02-28T12:48:47Z</time>
      </trkpt>
      <trkpt lat="46.39985" lon="5.6572">
        <ele>509.8</ele>
        <time>2022-02-28T12:48:48Z</time>
      </trkpt>
      <trkpt lat="46.39983" lon="5.6573">
        <ele>509.4</ele>
        <time>2022-02-28T12:48:49Z</time>
      </trkpt>
      <trkpt lat="46.39981" lon="5.65742">
        <ele>509.2</ele>
        <time>2022-02-28T12:48:50Z</time>
      </trkpt>
      <trkpt lat="46.39978" lon="5.65753">
        <ele>509</ele>
        <time>2022-02-28T12:48:51Z</time>
      </trkpt>
      <trkpt lat="46.39974" lon="5.65765">
        <ele>508.6</ele>
        <time>2022-02-28T12:48:52Z</time>
      </trkpt>
      <trkpt lat="46.3997" lon="5.65776">
        <ele>508.2</ele>
        <time>2022-02-28T12:48:53Z</time>
      </trkpt>
      <trkpt lat="46.39965" lon="5.65788">
        <ele>507.6</ele>
        <time>2022-02-28T12:48:54Z</time>
      </trkpt>
      <trkpt lat="46.39959" lon="5.65798">
        <ele>507.2</ele>
        <time>2022-02-28T12:48:55Z</time>
      </trkpt>
      <trkpt lat="46.39951" lon="5.65808">
        <ele>506.6</ele>
        <time>2022-02-28T12:48:56Z</time>
      </trkpt>
      <trkpt lat="46.39944" lon="5.65817">
        <ele>506</ele>
        <time>2022-02-28T12:48:57Z</time>
      </trkpt>
      <trkpt lat="46.39935" lon="5.65827">
        <ele>505.2</ele>
        <time>2022-02-28T12:48:58Z</time>
      </trkpt>
      <trkpt lat="46.39926" lon="5.65836">
        <ele>504.4</ele>
        <time>2022-02-28T12:48:59Z</time>
      </trkpt>
      <trkpt lat="46.39916" lon="5.65844">
        <ele>503.6</ele>
        <time>2022-02-28T12:49:00Z</time>
      </trkpt>
      <trkpt lat="46.39906" lon="5.65852">
        <ele>502.8</ele>
        <time>2022-02-28T12:49:01Z</time>
      </trkpt>
      <trkpt lat="46.39896" lon="5.65861">
        <ele>501.8</ele>
        <time>2022-02-28T12:49:02Z</time>
      </trkpt>
      <trkpt lat="46.39887" lon="5.65871">
        <ele>500.8</ele>
        <time>2022-02-28T12:49:03Z</time>
      </trkpt>
      <trkpt lat="46.39879" lon="5.65882">
        <ele>500</ele>
        <time>2022-02-28T12:49:04Z</time>
      </trkpt>
      <trkpt lat="46.39871" lon="5.65895">
        <ele>499.2</ele>
        <time>2022-02-28T12:49:05Z</time>
      </trkpt>
      <trkpt lat="46.39866" lon="5.65909">
        <ele>498.4</ele>
        <time>2022-02-28T12:49:06Z</time>
      </trkpt>
      <trkpt lat="46.39862" lon="5.65924">
        <ele>497.8</ele>
        <time>2022-02-28T12:49:07Z</time>
      </trkpt>
      <trkpt lat="46.3986" lon="5.65941">
        <ele>497.2</ele>
        <time>2022-02-28T12:49:08Z</time>
      </trkpt>
      <trkpt lat="46.39859" lon="5.65956">
        <ele>496.6</ele>
        <time>2022-02-28T12:49:09Z</time>
      </trkpt>
      <trkpt lat="46.39857" lon="5.65972">
        <ele>496</ele>
        <time>2022-02-28T12:49:10Z</time>
      </trkpt>
      <trkpt lat="46.39856" lon="5.65989">
        <ele>495.4</ele>
        <time>2022-02-28T12:49:11Z</time>
      </trkpt>
      <trkpt lat="46.39855" lon="5.66005">
        <ele>494.8</ele>
        <time>2022-02-28T12:49:12Z</time>
      </trkpt>
      <trkpt lat="46.39854" lon="5.66022">
        <ele>494.2</ele>
        <time>2022-02-28T12:49:13Z</time>
      </trkpt>
      <trkpt lat="46.39854" lon="5.66038">
        <ele>493.6</ele>
        <time>2022-02-28T12:49:14Z</time>
      </trkpt>
      <trkpt lat="46.39853" lon="5.66053">
        <ele>493.2</ele>
        <time>2022-02-28T12:49:15Z</time>
      </trkpt>
      <trkpt lat="46.39853" lon="5.66069">
        <ele>493</ele>
        <time>2022-02-28T12:49:16Z</time>
      </trkpt>
      <trkpt lat="46.39853" lon="5.66083">
        <ele>493</ele>
        <time>2022-02-28T12:49:17Z</time>
      </trkpt>
      <trkpt lat="46.39854" lon="5.66097">
        <ele>493</ele>
        <time>2022-02-28T12:49:18Z</time>
      </trkpt>
      <trkpt lat="46.39855" lon="5.6611">
        <ele>493</ele>
        <time>2022-02-28T12:49:19Z</time>
      </trkpt>
      <trkpt lat="46.39857" lon="5.66122">
        <ele>493</ele>
        <time>2022-02-28T12:49:20Z</time>
      </trkpt>
      <trkpt lat="46.39858" lon="5.66133">
        <ele>493.4</ele>
        <time>2022-02-28T12:49:21Z</time>
      </trkpt>
      <trkpt lat="46.39861" lon="5.66143">
        <ele>493.6</ele>
        <time>2022-02-28T12:49:22Z</time>
      </trkpt>
      <trkpt lat="46.39863" lon="5.66153">
        <ele>493.8</ele>
        <time>2022-02-28T12:49:23Z</time>
      </trkpt>
      <trkpt lat="46.39866" lon="5.66163">
        <ele>494.2</ele>
        <time>2022-02-28T12:49:24Z</time>
      </trkpt>
      <trkpt lat="46.39869" lon="5.66171">
        <ele>494.4</ele>
        <time>2022-02-28T12:49:25Z</time>
      </trkpt>
      <trkpt lat="46.39873" lon="5.6618">
        <ele>494.8</ele>
        <time>2022-02-28T12:49:26Z</time>
      </trkpt>
      <trkpt lat="46.39876" lon="5.66187">
        <ele>495</ele>
        <time>2022-02-28T12:49:27Z</time>
      </trkpt>
      <trkpt lat="46.39879" lon="5.66195">
        <ele>495</ele>
        <time>2022-02-28T12:49:28Z</time>
      </trkpt>
      <trkpt lat="46.39883" lon="5.66202">
        <ele>495.4</ele>
        <time>2022-02-28T12:49:29Z</time>
      </trkpt>
      <trkpt lat="46.39886" lon="5.66209">
        <ele>495.6</ele>
        <time>2022-02-28T12:49:30Z</time>
      </trkpt>
      <trkpt lat="46.39889" lon="5.66216">
        <ele>495.8</ele>
        <time>2022-02-28T12:49:31Z</time>
      </trkpt>
      <trkpt lat="46.39892" lon="5.66223">
        <ele>496.2</ele>
        <time>2022-02-28T12:49:32Z</time>
      </trkpt>
      <trkpt lat="46.39896" lon="5.66229">
        <ele>496.4</ele>
        <time>2022-02-28T12:49:33Z</time>
      </trkpt>
      <trkpt lat="46.399" lon="5.66236">
        <ele>496.6</ele>
        <time>2022-02-28T12:49:34Z</time>
      </trkpt>
      <trkpt lat="46.39903" lon="5.66243">
        <ele>497</ele>
        <time>2022-02-28T12:49:35Z</time>
      </trkpt>
      <trkpt lat="46.39907" lon="5.6625">
        <ele>497.2</ele>
        <time>2022-02-28T12:49:36Z</time>
      </trkpt>
      <trkpt lat="46.3991" lon="5.66257">
        <ele>497.4</ele>
        <time>2022-02-28T12:49:37Z</time>
      </trkpt>
      <trkpt lat="46.39912" lon="5.66264">
        <ele>497.6</ele>
        <time>2022-02-28T12:49:38Z</time>
      </trkpt>
      <trkpt lat="46.39915" lon="5.66272">
        <ele>497.6</ele>
        <time>2022-02-28T12:49:39Z</time>
      </trkpt>
      <trkpt lat="46.39918" lon="5.66279">
        <ele>498</ele>
        <time>2022-02-28T12:49:40Z</time>
      </trkpt>
      <trkpt lat="46.39921" lon="5.66286">
        <ele>498</ele>
        <time>2022-02-28T12:49:41Z</time>
      </trkpt>
      <trkpt lat="46.39925" lon="5.66294">
        <ele>498.4</ele>
        <time>2022-02-28T12:49:42Z</time>
      </trkpt>
      <trkpt lat="46.39928" lon="5.66301">
        <ele>498.6</ele>
        <time>2022-02-28T12:49:43Z</time>
      </trkpt>
      <trkpt lat="46.39931" lon="5.66309">
        <ele>498.6</ele>
        <time>2022-02-28T12:49:44Z</time>
      </trkpt>
      <trkpt lat="46.39933" lon="5.66317">
        <ele>498.8</ele>
        <time>2022-02-28T12:49:45Z</time>
      </trkpt>
      <trkpt lat="46.39936" lon="5.66324">
        <ele>498.8</ele>
        <time>2022-02-28T12:49:46Z</time>
      </trkpt>
      <trkpt lat="46.3994" lon="5.66332">
        <ele>499.2</ele>
        <time>2022-02-28T12:49:47Z</time>
      </trkpt>
      <trkpt lat="46.39943" lon="5.66339">
        <ele>499.2</ele>
        <time>2022-02-28T12:49:48Z</time>
      </trkpt>
      <trkpt lat="46.39946" lon="5.66347">
        <ele>499.6</ele>
        <time>2022-02-28T12:49:49Z</time>
      </trkpt>
      <trkpt lat="46.3995" lon="5.66354">
        <ele>499.8</ele>
        <time>2022-02-28T12:49:50Z</time>
      </trkpt>
      <trkpt lat="46.39954" lon="5.66362">
        <ele>500</ele>
        <time>2022-02-28T12:49:51Z</time>
      </trkpt>
      <trkpt lat="46.39957" lon="5.66369">
        <ele>500.2</ele>
        <time>2022-02-28T12:49:52Z</time>
      </trkpt>
      <trkpt lat="46.39961" lon="5.66377">
        <ele>500.2</ele>
        <time>2022-02-28T12:49:53Z</time>
      </trkpt>
      <trkpt lat="46.39964" lon="5.66384">
        <ele>500.2</ele>
        <time>2022-02-28T12:49:54Z</time>
      </trkpt>
      <trkpt lat="46.39967" lon="5.66391">
        <ele>500.6</ele>
        <time>2022-02-28T12:49:55Z</time>
      </trkpt>
      <trkpt lat="46.39971" lon="5.66398">
        <ele>500.6</ele>
        <time>2022-02-28T12:49:56Z</time>
      </trkpt>
      <trkpt lat="46.39974" lon="5.66406">
        <ele>501</ele>
        <time>2022-02-28T12:49:57Z</time>
      </trkpt>
      <trkpt lat="46.39978" lon="5.66413">
        <ele>501</ele>
        <time>2022-02-28T12:49:58Z</time>
      </trkpt>
      <trkpt lat="46.39981" lon="5.6642">
        <ele>501</ele>
        <time>2022-02-28T12:49:59Z</time>
      </trkpt>
      <trkpt lat="46.39985" lon="5.66427">
        <ele>501</ele>
        <time>2022-02-28T12:50:00Z</time>
      </trkpt>
      <trkpt lat="46.39989" lon="5.66435">
        <ele>501</ele>
        <time>2022-02-28T12:50:01Z</time>
      </trkpt>
      <trkpt lat="46.39993" lon="5.66443">
        <ele>501</ele>
        <time>2022-02-28T12:50:02Z</time>
      </trkpt>
      <trkpt lat="46.39997" lon="5.6645">
        <ele>500.6</ele>
        <time>2022-02-28T12:50:03Z</time>
      </trkpt>
      <trkpt lat="46.40002" lon="5.66458">
        <ele>500.2</ele>
        <time>2022-02-28T12:50:04Z</time>
      </trkpt>
      <trkpt lat="46.40007" lon="5.66467">
        <ele>500</ele>
        <time>2022-02-28T12:50:05Z</time>
      </trkpt>
      <trkpt lat="46.40013" lon="5.66475">
        <ele>499.6</ele>
        <time>2022-02-28T12:50:06Z</time>
      </trkpt>
      <trkpt lat="46.40019" lon="5.66484">
        <ele>499.4</ele>
        <time>2022-02-28T12:50:07Z</time>
      </trkpt>
      <trkpt lat="46.40024" lon="5.66493">
        <ele>498.8</ele>
        <time>2022-02-28T12:50:08Z</time>
      </trkpt>
      <trkpt lat="46.40031" lon="5.66502">
        <ele>498.4</ele>
        <time>2022-02-28T12:50:09Z</time>
      </trkpt>
      <trkpt lat="46.40037" lon="5.66511">
        <ele>498</ele>
        <time>2022-02-28T12:50:10Z</time>
      </trkpt>
      <trkpt lat="46.40043" lon="5.6652">
        <ele>497.8</ele>
        <time>2022-02-28T12:50:11Z</time>
      </trkpt>
      <trkpt lat="46.4005" lon="5.66531">
        <ele>497.2</ele>
        <time>2022-02-28T12:50:12Z</time>
      </trkpt>
      <trkpt lat="46.40057" lon="5.66541">
        <ele>497</ele>
        <time>2022-02-28T12:50:13Z</time>
      </trkpt>
      <trkpt lat="46.40063" lon="5.66552">
        <ele>496.6</ele>
        <time>2022-02-28T12:50:14Z</time>
      </trkpt>
      <trkpt lat="46.40069" lon="5.66561">
        <ele>496.2</ele>
        <time>2022-02-28T12:50:15Z</time>
      </trkpt>
      <trkpt lat="46.40077" lon="5.66571">
        <ele>495.8</ele>
        <time>2022-02-28T12:50:16Z</time>
      </trkpt>
      <trkpt lat="46.40084" lon="5.66581">
        <ele>495.4</ele>
        <time>2022-02-28T12:50:17Z</time>
      </trkpt>
      <trkpt lat="46.40091" lon="5.66591">
        <ele>495.2</ele>
        <time>2022-02-28T12:50:18Z</time>
      </trkpt>
      <trkpt lat="46.40097" lon="5.66601">
        <ele>495</ele>
        <time>2022-02-28T12:50:19Z</time>
      </trkpt>
      <trkpt lat="46.40105" lon="5.66609">
        <ele>494.6</ele>
        <time>2022-02-28T12:50:20Z</time>
      </trkpt>
      <trkpt lat="46.40112" lon="5.6662">
        <ele>494.4</ele>
        <time>2022-02-28T12:50:21Z</time>
      </trkpt>
      <trkpt lat="46.40119" lon="5.6663">
        <ele>494</ele>
        <time>2022-02-28T12:50:22Z</time>
      </trkpt>
      <trkpt lat="46.40125" lon="5.66639">
        <ele>493.8</ele>
        <time>2022-02-28T12:50:23Z</time>
      </trkpt>
      <trkpt lat="46.40131" lon="5.66648">
        <ele>493.6</ele>
        <time>2022-02-28T12:50:24Z</time>
      </trkpt>
      <trkpt lat="46.40136" lon="5.66657">
        <ele>493.6</ele>
        <time>2022-02-28T12:50:25Z</time>
      </trkpt>
      <trkpt lat="46.40142" lon="5.66666">
        <ele>493.2</ele>
        <time>2022-02-28T12:50:26Z</time>
      </trkpt>
      <trkpt lat="46.40148" lon="5.66675">
        <ele>493.2</ele>
        <time>2022-02-28T12:50:27Z</time>
      </trkpt>
      <trkpt lat="46.40154" lon="5.66684">
        <ele>492.8</ele>
        <time>2022-02-28T12:50:28Z</time>
      </trkpt>
      <trkpt lat="46.40161" lon="5.66693">
        <ele>492.6</ele>
        <time>2022-02-28T12:50:29Z</time>
      </trkpt>
      <trkpt lat="46.40167" lon="5.66702">
        <ele>492.2</ele>
        <time>2022-02-28T12:50:30Z</time>
      </trkpt>
      <trkpt lat="46.40176" lon="5.66716">
        <ele>492</ele>
        <time>2022-02-28T12:50:31Z</time>
      </trkpt>
      <trkpt lat="46.40179" lon="5.66721">
        <ele>492</ele>
        <time>2022-02-28T12:50:32Z</time>
      </trkpt>
      <trkpt lat="46.40185" lon="5.6673">
        <ele>491.6</ele>
        <time>2022-02-28T12:50:33Z</time>
      </trkpt>
      <trkpt lat="46.40191" lon="5.66739">
        <ele>491.2</ele>
        <time>2022-02-28T12:50:34Z</time>
      </trkpt>
      <trkpt lat="46.40198" lon="5.66748">
        <ele>491.2</ele>
        <time>2022-02-28T12:50:35Z</time>
      </trkpt>
      <trkpt lat="46.40204" lon="5.66756">
        <ele>491</ele>
        <time>2022-02-28T12:50:36Z</time>
      </trkpt>
      <trkpt lat="46.4021" lon="5.66764">
        <ele>491</ele>
        <time>2022-02-28T12:50:37Z</time>
      </trkpt>
      <trkpt lat="46.40217" lon="5.66771">
        <ele>491</ele>
        <time>2022-02-28T12:50:38Z</time>
      </trkpt>
      <trkpt lat="46.40224" lon="5.66777">
        <ele>491</ele>
        <time>2022-02-28T12:50:39Z</time>
      </trkpt>
      <trkpt lat="46.40231" lon="5.66783">
        <ele>490.6</ele>
        <time>2022-02-28T12:50:40Z</time>
      </trkpt>
      <trkpt lat="46.40238" lon="5.66788">
        <ele>490.6</ele>
        <time>2022-02-28T12:50:41Z</time>
      </trkpt>
      <trkpt lat="46.40245" lon="5.66792">
        <ele>490.6</ele>
        <time>2022-02-28T12:50:42Z</time>
      </trkpt>
      <trkpt lat="46.40253" lon="5.66795">
        <ele>490.4</ele>
        <time>2022-02-28T12:50:43Z</time>
      </trkpt>
      <trkpt lat="46.4026" lon="5.66798">
        <ele>490.4</ele>
        <time>2022-02-28T12:50:44Z</time>
      </trkpt>
      <trkpt lat="46.40267" lon="5.668">
        <ele>490</ele>
        <time>2022-02-28T12:50:45Z</time>
      </trkpt>
      <trkpt lat="46.40275" lon="5.66801">
        <ele>489.8</ele>
        <time>2022-02-28T12:50:46Z</time>
      </trkpt>
      <trkpt lat="46.40283" lon="5.66801">
        <ele>489.4</ele>
        <time>2022-02-28T12:50:47Z</time>
      </trkpt>
      <trkpt lat="46.40291" lon="5.66801">
        <ele>489</ele>
        <time>2022-02-28T12:50:48Z</time>
      </trkpt>
      <trkpt lat="46.40303" lon="5.66804">
        <ele>488.8</ele>
        <time>2022-02-28T12:50:49Z</time>
      </trkpt>
      <trkpt lat="46.40307" lon="5.66807">
        <ele>488.4</ele>
        <time>2022-02-28T12:50:50Z</time>
      </trkpt>
      <trkpt lat="46.40314" lon="5.66811">
        <ele>488</ele>
        <time>2022-02-28T12:50:51Z</time>
      </trkpt>
      <trkpt lat="46.40321" lon="5.66819">
        <ele>487.4</ele>
        <time>2022-02-28T12:50:52Z</time>
      </trkpt>
      <trkpt lat="46.40327" lon="5.66829">
        <ele>487</ele>
        <time>2022-02-28T12:50:53Z</time>
      </trkpt>
      <trkpt lat="46.40328" lon="5.66841">
        <ele>486.4</ele>
        <time>2022-02-28T12:50:54Z</time>
      </trkpt>
      <trkpt lat="46.40329" lon="5.66854">
        <ele>486</ele>
        <time>2022-02-28T12:50:55Z</time>
      </trkpt>
      <trkpt lat="46.40327" lon="5.66865">
        <ele>485.6</ele>
        <time>2022-02-28T12:50:56Z</time>
      </trkpt>
      <trkpt lat="46.40324" lon="5.66876">
        <ele>485</ele>
        <time>2022-02-28T12:50:57Z</time>
      </trkpt>
      <trkpt lat="46.40318" lon="5.66886">
        <ele>484.4</ele>
        <time>2022-02-28T12:50:58Z</time>
      </trkpt>
      <trkpt lat="46.4031" lon="5.66892">
        <ele>484</ele>
        <time>2022-02-28T12:50:59Z</time>
      </trkpt>
      <trkpt lat="46.40298" lon="5.66896">
        <ele>483.4</ele>
        <time>2022-02-28T12:51:00Z</time>
      </trkpt>
      <trkpt lat="46.40287" lon="5.66894">
        <ele>482.8</ele>
        <time>2022-02-28T12:51:01Z</time>
      </trkpt>
      <trkpt lat="46.40276" lon="5.66889">
        <ele>482.2</ele>
        <time>2022-02-28T12:51:02Z</time>
      </trkpt>
      <trkpt lat="46.40262" lon="5.66877">
        <ele>481.6</ele>
        <time>2022-02-28T12:51:03Z</time>
      </trkpt>
      <trkpt lat="46.40258" lon="5.66872">
        <ele>481.2</ele>
        <time>2022-02-28T12:51:04Z</time>
      </trkpt>
      <trkpt lat="46.40249" lon="5.66864">
        <ele>480.4</ele>
        <time>2022-02-28T12:51:05Z</time>
      </trkpt>
      <trkpt lat="46.40241" lon="5.66854">
        <ele>479.8</ele>
        <time>2022-02-28T12:51:06Z</time>
      </trkpt>
      <trkpt lat="46.40231" lon="5.66844">
        <ele>479.2</ele>
        <time>2022-02-28T12:51:07Z</time>
      </trkpt>
      <trkpt lat="46.40223" lon="5.66835">
        <ele>478.6</ele>
        <time>2022-02-28T12:51:08Z</time>
      </trkpt>
      <trkpt lat="46.40213" lon="5.66824">
        <ele>477.8</ele>
        <time>2022-02-28T12:51:09Z</time>
      </trkpt>
      <trkpt lat="46.40203" lon="5.66815">
        <ele>477</ele>
        <time>2022-02-28T12:51:10Z</time>
      </trkpt>
      <trkpt lat="46.40193" lon="5.66805">
        <ele>476.4</ele>
        <time>2022-02-28T12:51:11Z</time>
      </trkpt>
      <trkpt lat="46.40184" lon="5.66795">
        <ele>475.8</ele>
        <time>2022-02-28T12:51:12Z</time>
      </trkpt>
      <trkpt lat="46.40168" lon="5.66779">
        <ele>475</ele>
        <time>2022-02-28T12:51:13Z</time>
      </trkpt>
      <trkpt lat="46.40163" lon="5.66773">
        <ele>474.2</ele>
        <time>2022-02-28T12:51:14Z</time>
      </trkpt>
      <trkpt lat="46.40153" lon="5.66763">
        <ele>473.6</ele>
        <time>2022-02-28T12:51:15Z</time>
      </trkpt>
      <trkpt lat="46.40143" lon="5.66752">
        <ele>473</ele>
        <time>2022-02-28T12:51:16Z</time>
      </trkpt>
      <trkpt lat="46.40133" lon="5.66742">
        <ele>472.2</ele>
        <time>2022-02-28T12:51:17Z</time>
      </trkpt>
      <trkpt lat="46.40123" lon="5.66731">
        <ele>471.4</ele>
        <time>2022-02-28T12:51:18Z</time>
      </trkpt>
      <trkpt lat="46.40112" lon="5.6672">
        <ele>470.8</ele>
        <time>2022-02-28T12:51:19Z</time>
      </trkpt>
      <trkpt lat="46.40101" lon="5.66709">
        <ele>470</ele>
        <time>2022-02-28T12:51:20Z</time>
      </trkpt>
      <trkpt lat="46.4009" lon="5.66698">
        <ele>469.2</ele>
        <time>2022-02-28T12:51:21Z</time>
      </trkpt>
      <trkpt lat="46.4008" lon="5.66687">
        <ele>468.4</ele>
        <time>2022-02-28T12:51:22Z</time>
      </trkpt>
      <trkpt lat="46.40069" lon="5.66676">
        <ele>467.6</ele>
        <time>2022-02-28T12:51:23Z</time>
      </trkpt>
      <trkpt lat="46.40059" lon="5.66665">
        <ele>466.6</ele>
        <time>2022-02-28T12:51:24Z</time>
      </trkpt>
      <trkpt lat="46.40048" lon="5.66654">
        <ele>466</ele>
        <time>2022-02-28T12:51:25Z</time>
      </trkpt>
      <trkpt lat="46.40038" lon="5.66643">
        <ele>465.2</ele>
        <time>2022-02-28T12:51:26Z</time>
      </trkpt>
      <trkpt lat="46.40027" lon="5.66632">
        <ele>464.4</ele>
        <time>2022-02-28T12:51:27Z</time>
      </trkpt>
      <trkpt lat="46.40016" lon="5.66622">
        <ele>463.6</ele>
        <time>2022-02-28T12:51:28Z</time>
      </trkpt>
      <trkpt lat="46.40006" lon="5.66611">
        <ele>462.8</ele>
        <time>2022-02-28T12:51:29Z</time>
      </trkpt>
      <trkpt lat="46.39995" lon="5.66602">
        <ele>462</ele>
        <time>2022-02-28T12:51:30Z</time>
      </trkpt>
      <trkpt lat="46.39983" lon="5.66592">
        <ele>461.4</ele>
        <time>2022-02-28T12:51:31Z</time>
      </trkpt>
      <trkpt lat="46.39973" lon="5.66581">
        <ele>460.6</ele>
        <time>2022-02-28T12:51:32Z</time>
      </trkpt>
      <trkpt lat="46.39963" lon="5.66569">
        <ele>460</ele>
        <time>2022-02-28T12:51:33Z</time>
      </trkpt>
      <trkpt lat="46.39954" lon="5.66555">
        <ele>459.4</ele>
        <time>2022-02-28T12:51:34Z</time>
      </trkpt>
      <trkpt lat="46.39946" lon="5.66542">
        <ele>458.6</ele>
        <time>2022-02-28T12:51:35Z</time>
      </trkpt>
      <trkpt lat="46.39937" lon="5.66528">
        <ele>458</ele>
        <time>2022-02-28T12:51:36Z</time>
      </trkpt>
      <trkpt lat="46.39929" lon="5.66513">
        <ele>457.2</ele>
        <time>2022-02-28T12:51:37Z</time>
      </trkpt>
      <trkpt lat="46.3992" lon="5.66498">
        <ele>456.4</ele>
        <time>2022-02-28T12:51:38Z</time>
      </trkpt>
      <trkpt lat="46.39912" lon="5.66484">
        <ele>455.6</ele>
        <time>2022-02-28T12:51:39Z</time>
      </trkpt>
      <trkpt lat="46.39903" lon="5.66468">
        <ele>454.8</ele>
        <time>2022-02-28T12:51:40Z</time>
      </trkpt>
      <trkpt lat="46.39894" lon="5.66455">
        <ele>453.8</ele>
        <time>2022-02-28T12:51:41Z</time>
      </trkpt>
      <trkpt lat="46.39885" lon="5.66442">
        <ele>453</ele>
        <time>2022-02-28T12:51:42Z</time>
      </trkpt>
      <trkpt lat="46.39875" lon="5.66428">
        <ele>452</ele>
        <time>2022-02-28T12:51:43Z</time>
      </trkpt>
      <trkpt lat="46.39865" lon="5.66414">
        <ele>451</ele>
        <time>2022-02-28T12:51:44Z</time>
      </trkpt>
      <trkpt lat="46.39855" lon="5.66401">
        <ele>450</ele>
        <time>2022-02-28T12:51:45Z</time>
      </trkpt>
      <trkpt lat="46.39845" lon="5.66388">
        <ele>449</ele>
        <time>2022-02-28T12:51:46Z</time>
      </trkpt>
      <trkpt lat="46.39834" lon="5.66375">
        <ele>448</ele>
        <time>2022-02-28T12:51:47Z</time>
      </trkpt>
      <trkpt lat="46.39823" lon="5.66363">
        <ele>447</ele>
        <time>2022-02-28T12:51:48Z</time>
      </trkpt>
      <trkpt lat="46.39812" lon="5.66352">
        <ele>446</ele>
        <time>2022-02-28T12:51:49Z</time>
      </trkpt>
      <trkpt lat="46.39801" lon="5.6634">
        <ele>445.2</ele>
        <time>2022-02-28T12:51:50Z</time>
      </trkpt>
      <trkpt lat="46.3979" lon="5.66329">
        <ele>444.2</ele>
        <time>2022-02-28T12:51:51Z</time>
      </trkpt>
      <trkpt lat="46.39778" lon="5.66318">
        <ele>443.2</ele>
        <time>2022-02-28T12:51:52Z</time>
      </trkpt>
      <trkpt lat="46.39766" lon="5.66306">
        <ele>442.4</ele>
        <time>2022-02-28T12:51:53Z</time>
      </trkpt>
      <trkpt lat="46.39755" lon="5.66293">
        <ele>441.4</ele>
        <time>2022-02-28T12:51:54Z</time>
      </trkpt>
      <trkpt lat="46.39744" lon="5.6628">
        <ele>440.4</ele>
        <time>2022-02-28T12:51:55Z</time>
      </trkpt>
      <trkpt lat="46.39733" lon="5.66268">
        <ele>439.4</ele>
        <time>2022-02-28T12:51:56Z</time>
      </trkpt>
      <trkpt lat="46.3972" lon="5.66257">
        <ele>438.6</ele>
        <time>2022-02-28T12:51:57Z</time>
      </trkpt>
      <trkpt lat="46.39708" lon="5.66247">
        <ele>437.6</ele>
        <time>2022-02-28T12:51:58Z</time>
      </trkpt>
      <trkpt lat="46.39696" lon="5.66238">
        <ele>436.6</ele>
        <time>2022-02-28T12:51:59Z</time>
      </trkpt>
      <trkpt lat="46.39686" lon="5.66227">
        <ele>435.6</ele>
        <time>2022-02-28T12:52:00Z</time>
      </trkpt>
      <trkpt lat="46.39677" lon="5.66213">
        <ele>434.6</ele>
        <time>2022-02-28T12:52:01Z</time>
      </trkpt>
      <trkpt lat="46.39671" lon="5.66196">
        <ele>433.6</ele>
        <time>2022-02-28T12:52:02Z</time>
      </trkpt>
      <trkpt lat="46.39667" lon="5.66178">
        <ele>432.6</ele>
        <time>2022-02-28T12:52:03Z</time>
      </trkpt>
      <trkpt lat="46.39667" lon="5.66157">
        <ele>431.8</ele>
        <time>2022-02-28T12:52:04Z</time>
      </trkpt>
      <trkpt lat="46.39667" lon="5.66137">
        <ele>430.8</ele>
        <time>2022-02-28T12:52:05Z</time>
      </trkpt>
      <trkpt lat="46.39668" lon="5.66116">
        <ele>429.8</ele>
        <time>2022-02-28T12:52:06Z</time>
      </trkpt>
      <trkpt lat="46.39667" lon="5.66097">
        <ele>428.6</ele>
        <time>2022-02-28T12:52:07Z</time>
      </trkpt>
      <trkpt lat="46.39662" lon="5.66081">
        <ele>427.6</ele>
        <time>2022-02-28T12:52:08Z</time>
      </trkpt>
      <trkpt lat="46.39655" lon="5.66065">
        <ele>426.8</ele>
        <time>2022-02-28T12:52:09Z</time>
      </trkpt>
      <trkpt lat="46.39647" lon="5.66051">
        <ele>425.8</ele>
        <time>2022-02-28T12:52:10Z</time>
      </trkpt>
      <trkpt lat="46.39638" lon="5.66037">
        <ele>424.8</ele>
        <time>2022-02-28T12:52:11Z</time>
      </trkpt>
      <trkpt lat="46.39629" lon="5.66023">
        <ele>423.8</ele>
        <time>2022-02-28T12:52:12Z</time>
      </trkpt>
      <trkpt lat="46.3962" lon="5.66009">
        <ele>422.8</ele>
        <time>2022-02-28T12:52:13Z</time>
      </trkpt>
      <trkpt lat="46.39611" lon="5.65996">
        <ele>421.8</ele>
        <time>2022-02-28T12:52:14Z</time>
      </trkpt>
      <trkpt lat="46.39601" lon="5.65982">
        <ele>420.8</ele>
        <time>2022-02-28T12:52:15Z</time>
      </trkpt>
      <trkpt lat="46.39592" lon="5.65969">
        <ele>420</ele>
        <time>2022-02-28T12:52:16Z</time>
      </trkpt>
      <trkpt lat="46.39583" lon="5.65956">
        <ele>419</ele>
        <time>2022-02-28T12:52:17Z</time>
      </trkpt>
      <trkpt lat="46.39573" lon="5.65943">
        <ele>418</ele>
        <time>2022-02-28T12:52:18Z</time>
      </trkpt>
      <trkpt lat="46.39564" lon="5.6593">
        <ele>417</ele>
        <time>2022-02-28T12:52:19Z</time>
      </trkpt>
      <trkpt lat="46.39555" lon="5.65917">
        <ele>416.2</ele>
        <time>2022-02-28T12:52:20Z</time>
      </trkpt>
      <trkpt lat="46.39542" lon="5.65895">
        <ele>415.4</ele>
        <time>2022-02-28T12:52:21Z</time>
      </trkpt>
      <trkpt lat="46.39539" lon="5.65887">
        <ele>414.4</ele>
        <time>2022-02-28T12:52:22Z</time>
      </trkpt>
      <trkpt lat="46.39532" lon="5.6587">
        <ele>413.4</ele>
        <time>2022-02-28T12:52:23Z</time>
      </trkpt>
      <trkpt lat="46.39526" lon="5.65851">
        <ele>412.4</ele>
        <time>2022-02-28T12:52:24Z</time>
      </trkpt>
      <trkpt lat="46.39522" lon="5.65832">
        <ele>411.4</ele>
        <time>2022-02-28T12:52:25Z</time>
      </trkpt>
      <trkpt lat="46.39517" lon="5.65813">
        <ele>410.4</ele>
        <time>2022-02-28T12:52:26Z</time>
      </trkpt>
      <trkpt lat="46.39509" lon="5.65777">
        <ele>409.6</ele>
        <time>2022-02-28T12:52:27Z</time>
      </trkpt>
      <trkpt lat="46.39503" lon="5.65758">
        <ele>408.6</ele>
        <time>2022-02-28T12:52:28Z</time>
      </trkpt>
      <trkpt lat="46.395" lon="5.65739">
        <ele>407.8</ele>
        <time>2022-02-28T12:52:29Z</time>
      </trkpt>
      <trkpt lat="46.39496" lon="5.65719">
        <ele>406.8</ele>
        <time>2022-02-28T12:52:30Z</time>
      </trkpt>
      <trkpt lat="46.39494" lon="5.657">
        <ele>406</ele>
        <time>2022-02-28T12:52:31Z</time>
      </trkpt>
      <trkpt lat="46.39492" lon="5.65679">
        <ele>405</ele>
        <time>2022-02-28T12:52:32Z</time>
      </trkpt>
      <trkpt lat="46.39493" lon="5.65658">
        <ele>404</ele>
        <time>2022-02-28T12:52:33Z</time>
      </trkpt>
      <trkpt lat="46.39493" lon="5.65658">
        <ele>403</ele>
        <time>2022-02-28T12:52:34Z</time>
      </trkpt>
      <trkpt lat="46.39494" lon="5.65639">
        <ele>402</ele>
        <time>2022-02-28T12:52:35Z</time>
      </trkpt>
      <trkpt lat="46.39495" lon="5.65619">
        <ele>401.2</ele>
        <time>2022-02-28T12:52:36Z</time>
      </trkpt>
      <trkpt lat="46.39496" lon="5.656">
        <ele>400.2</ele>
        <time>2022-02-28T12:52:37Z</time>
      </trkpt>
      <trkpt lat="46.39496" lon="5.65579">
        <ele>399.2</ele>
        <time>2022-02-28T12:52:38Z</time>
      </trkpt>
      <trkpt lat="46.39496" lon="5.6556">
        <ele>398.4</ele>
        <time>2022-02-28T12:52:39Z</time>
      </trkpt>
      <trkpt lat="46.39494" lon="5.6554">
        <ele>397.4</ele>
        <time>2022-02-28T12:52:40Z</time>
      </trkpt>
      <trkpt lat="46.39491" lon="5.65521">
        <ele>396.6</ele>
        <time>2022-02-28T12:52:41Z</time>
      </trkpt>
      <trkpt lat="46.39489" lon="5.65503">
        <ele>395.8</ele>
        <time>2022-02-28T12:52:42Z</time>
      </trkpt>
      <trkpt lat="46.39487" lon="5.65483">
        <ele>394.8</ele>
        <time>2022-02-28T12:52:43Z</time>
      </trkpt>
      <trkpt lat="46.39485" lon="5.65464">
        <ele>394</ele>
        <time>2022-02-28T12:52:44Z</time>
      </trkpt>
      <trkpt lat="46.39483" lon="5.65446">
        <ele>394</ele>
        <time>2022-02-28T12:52:45Z</time>
      </trkpt>
      <trkpt lat="46.39481" lon="5.65427">
        <ele>393</ele>
        <time>2022-02-28T12:52:46Z</time>
      </trkpt>
      <trkpt lat="46.39479" lon="5.65407">
        <ele>392</ele>
        <time>2022-02-28T12:52:47Z</time>
      </trkpt>
      <trkpt lat="46.39476" lon="5.65388">
        <ele>391.2</ele>
        <time>2022-02-28T12:52:48Z</time>
      </trkpt>
      <trkpt lat="46.39474" lon="5.65369">
        <ele>390.2</ele>
        <time>2022-02-28T12:52:49Z</time>
      </trkpt>
      <trkpt lat="46.39472" lon="5.6535">
        <ele>389.2</ele>
        <time>2022-02-28T12:52:50Z</time>
      </trkpt>
      <trkpt lat="46.3947" lon="5.65331">
        <ele>388.4</ele>
        <time>2022-02-28T12:52:51Z</time>
      </trkpt>
      <trkpt lat="46.39468" lon="5.65312">
        <ele>387.4</ele>
        <time>2022-02-28T12:52:52Z</time>
      </trkpt>
      <trkpt lat="46.39465" lon="5.65292">
        <ele>386.6</ele>
        <time>2022-02-28T12:52:53Z</time>
      </trkpt>
      <trkpt lat="46.39463" lon="5.65273">
        <ele>385.6</ele>
        <time>2022-02-28T12:52:54Z</time>
      </trkpt>
      <trkpt lat="46.39461" lon="5.65254">
        <ele>384.8</ele>
        <time>2022-02-28T12:52:55Z</time>
      </trkpt>
      <trkpt lat="46.39457" lon="5.65235">
        <ele>384</ele>
        <time>2022-02-28T12:52:56Z</time>
      </trkpt>
      <trkpt lat="46.39454" lon="5.65216">
        <ele>383</ele>
        <time>2022-02-28T12:52:57Z</time>
      </trkpt>
      <trkpt lat="46.39449" lon="5.65198">
        <ele>382</ele>
        <time>2022-02-28T12:52:58Z</time>
      </trkpt>
      <trkpt lat="46.39444" lon="5.65181">
        <ele>381</ele>
        <time>2022-02-28T12:52:59Z</time>
      </trkpt>
      <trkpt lat="46.39438" lon="5.65164">
        <ele>380</ele>
        <time>2022-02-28T12:53:00Z</time>
      </trkpt>
      <trkpt lat="46.39432" lon="5.65146">
        <ele>379.2</ele>
        <time>2022-02-28T12:53:01Z</time>
      </trkpt>
      <trkpt lat="46.39424" lon="5.6513">
        <ele>378.2</ele>
        <time>2022-02-28T12:53:02Z</time>
      </trkpt>
      <trkpt lat="46.39417" lon="5.65113">
        <ele>377.4</ele>
        <time>2022-02-28T12:53:03Z</time>
      </trkpt>
      <trkpt lat="46.39409" lon="5.65097">
        <ele>376.6</ele>
        <time>2022-02-28T12:53:04Z</time>
      </trkpt>
      <trkpt lat="46.39401" lon="5.65082">
        <ele>375.6</ele>
        <time>2022-02-28T12:53:05Z</time>
      </trkpt>
      <trkpt lat="46.39393" lon="5.65066">
        <ele>374.8</ele>
        <time>2022-02-28T12:53:06Z</time>
      </trkpt>
      <trkpt lat="46.39385" lon="5.65051">
        <ele>373.8</ele>
        <time>2022-02-28T12:53:07Z</time>
      </trkpt>
      <trkpt lat="46.39377" lon="5.65034">
        <ele>373.2</ele>
        <time>2022-02-28T12:53:08Z</time>
      </trkpt>
      <trkpt lat="46.3937" lon="5.65018">
        <ele>372.4</ele>
        <time>2022-02-28T12:53:09Z</time>
      </trkpt>
      <trkpt lat="46.39363" lon="5.65003">
        <ele>371.8</ele>
        <time>2022-02-28T12:53:10Z</time>
      </trkpt>
      <trkpt lat="46.39355" lon="5.64987">
        <ele>371.2</ele>
        <time>2022-02-28T12:53:11Z</time>
      </trkpt>
      <trkpt lat="46.39348" lon="5.64972">
        <ele>370.8</ele>
        <time>2022-02-28T12:53:12Z</time>
      </trkpt>
      <trkpt lat="46.39341" lon="5.64959">
        <ele>370.4</ele>
        <time>2022-02-28T12:53:13Z</time>
      </trkpt>
      <trkpt lat="46.39334" lon="5.64946">
        <ele>370.2</ele>
        <time>2022-02-28T12:53:14Z</time>
      </trkpt>
      <trkpt lat="46.39327" lon="5.64932">
        <ele>370.2</ele>
        <time>2022-02-28T12:53:15Z</time>
      </trkpt>
      <trkpt lat="46.39321" lon="5.64919">
        <ele>369.8</ele>
        <time>2022-02-28T12:53:16Z</time>
      </trkpt>
      <trkpt lat="46.39315" lon="5.64907">
        <ele>369.8</ele>
        <time>2022-02-28T12:53:17Z</time>
      </trkpt>
      <trkpt lat="46.39308" lon="5.64894">
        <ele>369.8</ele>
        <time>2022-02-28T12:53:18Z</time>
      </trkpt>
      <trkpt lat="46.39302" lon="5.64882">
        <ele>369.6</ele>
        <time>2022-02-28T12:53:19Z</time>
      </trkpt>
      <trkpt lat="46.39296" lon="5.64869">
        <ele>369.6</ele>
        <time>2022-02-28T12:53:20Z</time>
      </trkpt>
      <trkpt lat="46.39288" lon="5.64851">
        <ele>369.6</ele>
        <time>2022-02-28T12:53:21Z</time>
      </trkpt>
      <trkpt lat="46.39285" lon="5.64845">
        <ele>369.6</ele>
        <time>2022-02-28T12:53:22Z</time>
      </trkpt>
      <trkpt lat="46.3928" lon="5.64832">
        <ele>369.6</ele>
        <time>2022-02-28T12:53:23Z</time>
      </trkpt>
      <trkpt lat="46.39275" lon="5.64821">
        <ele>369.6</ele>
        <time>2022-02-28T12:53:24Z</time>
      </trkpt>
      <trkpt lat="46.3927" lon="5.6481">
        <ele>369.6</ele>
        <time>2022-02-28T12:53:25Z</time>
      </trkpt>
      <trkpt lat="46.39266" lon="5.64799">
        <ele>369.6</ele>
        <time>2022-02-28T12:53:26Z</time>
      </trkpt>
      <trkpt lat="46.3926" lon="5.64788">
        <ele>369.6</ele>
        <time>2022-02-28T12:53:27Z</time>
      </trkpt>
      <trkpt lat="46.39256" lon="5.64777">
        <ele>369.6</ele>
        <time>2022-02-28T12:53:28Z</time>
      </trkpt>
      <trkpt lat="46.39251" lon="5.64766">
        <ele>369.6</ele>
        <time>2022-02-28T12:53:29Z</time>
      </trkpt>
      <trkpt lat="46.39247" lon="5.64754">
        <ele>369.6</ele>
        <time>2022-02-28T12:53:30Z</time>
      </trkpt>
      <trkpt lat="46.39243" lon="5.64743">
        <ele>369.6</ele>
        <time>2022-02-28T12:53:31Z</time>
      </trkpt>
      <trkpt lat="46.39239" lon="5.64732">
        <ele>369.6</ele>
        <time>2022-02-28T12:53:32Z</time>
      </trkpt>
      <trkpt lat="46.39235" lon="5.64721">
        <ele>369.6</ele>
        <time>2022-02-28T12:53:33Z</time>
      </trkpt>
      <trkpt lat="46.39232" lon="5.64709">
        <ele>369.6</ele>
        <time>2022-02-28T12:53:34Z</time>
      </trkpt>
      <trkpt lat="46.39228" lon="5.64698">
        <ele>369.6</ele>
        <time>2022-02-28T12:53:35Z</time>
      </trkpt>
      <trkpt lat="46.39225" lon="5.64686">
        <ele>369.4</ele>
        <time>2022-02-28T12:53:36Z</time>
      </trkpt>
      <trkpt lat="46.39222" lon="5.64675">
        <ele>369.4</ele>
        <time>2022-02-28T12:53:37Z</time>
      </trkpt>
      <trkpt lat="46.39219" lon="5.64663">
        <ele>369.4</ele>
        <time>2022-02-28T12:53:38Z</time>
      </trkpt>
      <trkpt lat="46.39216" lon="5.64653">
        <ele>369.4</ele>
        <time>2022-02-28T12:53:39Z</time>
      </trkpt>
      <trkpt lat="46.3921" lon="5.64637">
        <ele>369.4</ele>
        <time>2022-02-28T12:53:40Z</time>
      </trkpt>
      <trkpt lat="46.39207" lon="5.64632">
        <ele>369.4</ele>
        <time>2022-02-28T12:53:41Z</time>
      </trkpt>
      <trkpt lat="46.39202" lon="5.64623">
        <ele>369.4</ele>
        <time>2022-02-28T12:53:42Z</time>
      </trkpt>
      <trkpt lat="46.39197" lon="5.64614">
        <ele>369.4</ele>
        <time>2022-02-28T12:53:43Z</time>
      </trkpt>
      <trkpt lat="46.39191" lon="5.64606">
        <ele>369.4</ele>
        <time>2022-02-28T12:53:44Z</time>
      </trkpt>
      <trkpt lat="46.39185" lon="5.64599">
        <ele>369.4</ele>
        <time>2022-02-28T12:53:45Z</time>
      </trkpt>
      <trkpt lat="46.39179" lon="5.64592">
        <ele>369.4</ele>
        <time>2022-02-28T12:53:46Z</time>
      </trkpt>
      <trkpt lat="46.39172" lon="5.64587">
        <ele>369.4</ele>
        <time>2022-02-28T12:53:47Z</time>
      </trkpt>
      <trkpt lat="46.39166" lon="5.64581">
        <ele>369.4</ele>
        <time>2022-02-28T12:53:48Z</time>
      </trkpt>
      <trkpt lat="46.39158" lon="5.64577">
        <ele>369.4</ele>
        <time>2022-02-28T12:53:49Z</time>
      </trkpt>
      <trkpt lat="46.39151" lon="5.64573">
        <ele>369.2</ele>
        <time>2022-02-28T12:53:50Z</time>
      </trkpt>
      <trkpt lat="46.39144" lon="5.64569">
        <ele>369.2</ele>
        <time>2022-02-28T12:53:51Z</time>
      </trkpt>
      <trkpt lat="46.39136" lon="5.64565">
        <ele>369</ele>
        <time>2022-02-28T12:53:52Z</time>
      </trkpt>
      <trkpt lat="46.39128" lon="5.64562">
        <ele>369</ele>
        <time>2022-02-28T12:53:53Z</time>
      </trkpt>
      <trkpt lat="46.3912" lon="5.64558">
        <ele>368.4</ele>
        <time>2022-02-28T12:53:54Z</time>
      </trkpt>
      <trkpt lat="46.39112" lon="5.64555">
        <ele>368.2</ele>
        <time>2022-02-28T12:53:55Z</time>
      </trkpt>
      <trkpt lat="46.39104" lon="5.64552">
        <ele>367.8</ele>
        <time>2022-02-28T12:53:56Z</time>
      </trkpt>
      <trkpt lat="46.39096" lon="5.64548">
        <ele>367.4</ele>
        <time>2022-02-28T12:53:57Z</time>
      </trkpt>
      <trkpt lat="46.39087" lon="5.64545">
        <ele>367</ele>
        <time>2022-02-28T12:53:58Z</time>
      </trkpt>
      <trkpt lat="46.39079" lon="5.64541">
        <ele>366.8</ele>
        <time>2022-02-28T12:53:59Z</time>
      </trkpt>
      <trkpt lat="46.3907" lon="5.64539">
        <ele>366.4</ele>
        <time>2022-02-28T12:54:00Z</time>
      </trkpt>
      <trkpt lat="46.39061" lon="5.64536">
        <ele>366.2</ele>
        <time>2022-02-28T12:54:01Z</time>
      </trkpt>
      <trkpt lat="46.39052" lon="5.64532">
        <ele>366.2</ele>
        <time>2022-02-28T12:54:02Z</time>
      </trkpt>
      <trkpt lat="46.39043" lon="5.64529">
        <ele>365.8</ele>
        <time>2022-02-28T12:54:03Z</time>
      </trkpt>
      <trkpt lat="46.39035" lon="5.64525">
        <ele>365.6</ele>
        <time>2022-02-28T12:54:04Z</time>
      </trkpt>
      <trkpt lat="46.39027" lon="5.64521">
        <ele>365.6</ele>
        <time>2022-02-28T12:54:05Z</time>
      </trkpt>
      <trkpt lat="46.39015" lon="5.64515">
        <ele>365.2</ele>
        <time>2022-02-28T12:54:06Z</time>
      </trkpt>
      <trkpt lat="46.39011" lon="5.64514">
        <ele>365</ele>
        <time>2022-02-28T12:54:07Z</time>
      </trkpt>
      <trkpt lat="46.39002" lon="5.64511">
        <ele>364.8</ele>
        <time>2022-02-28T12:54:08Z</time>
      </trkpt>
      <trkpt lat="46.38994" lon="5.64508">
        <ele>364.8</ele>
        <time>2022-02-28T12:54:09Z</time>
      </trkpt>
      <trkpt lat="46.38986" lon="5.64505">
        <ele>364.8</ele>
        <time>2022-02-28T12:54:10Z</time>
      </trkpt>
      <trkpt lat="46.38978" lon="5.64504">
        <ele>364.4</ele>
        <time>2022-02-28T12:54:11Z</time>
      </trkpt>
      <trkpt lat="46.3897" lon="5.64502">
        <ele>364.4</ele>
        <time>2022-02-28T12:54:12Z</time>
      </trkpt>
      <trkpt lat="46.38962" lon="5.64501">
        <ele>364.4</ele>
        <time>2022-02-28T12:54:13Z</time>
      </trkpt>
      <trkpt lat="46.38954" lon="5.645">
        <ele>364.2</ele>
        <time>2022-02-28T12:54:14Z</time>
      </trkpt>
      <trkpt lat="46.38946" lon="5.64499">
        <ele>364.2</ele>
        <time>2022-02-28T12:54:15Z</time>
      </trkpt>
      <trkpt lat="46.38938" lon="5.64498">
        <ele>363.8</ele>
        <time>2022-02-28T12:54:16Z</time>
      </trkpt>
      <trkpt lat="46.3893" lon="5.64497">
        <ele>363.8</ele>
        <time>2022-02-28T12:54:17Z</time>
      </trkpt>
      <trkpt lat="46.38922" lon="5.64496">
        <ele>363.8</ele>
        <time>2022-02-28T12:54:18Z</time>
      </trkpt>
      <trkpt lat="46.38914" lon="5.64495">
        <ele>363.6</ele>
        <time>2022-02-28T12:54:19Z</time>
      </trkpt>
      <trkpt lat="46.38906" lon="5.64494">
        <ele>363.6</ele>
        <time>2022-02-28T12:54:20Z</time>
      </trkpt>
      <trkpt lat="46.38899" lon="5.64493">
        <ele>363.4</ele>
        <time>2022-02-28T12:54:21Z</time>
      </trkpt>
      <trkpt lat="46.38891" lon="5.64491">
        <ele>363.4</ele>
        <time>2022-02-28T12:54:22Z</time>
      </trkpt>
      <trkpt lat="46.38883" lon="5.6449">
        <ele>363</ele>
        <time>2022-02-28T12:54:23Z</time>
      </trkpt>
      <trkpt lat="46.38875" lon="5.64489">
        <ele>362.8</ele>
        <time>2022-02-28T12:54:24Z</time>
      </trkpt>
      <trkpt lat="46.38868" lon="5.64489">
        <ele>362.8</ele>
        <time>2022-02-28T12:54:25Z</time>
      </trkpt>
      <trkpt lat="46.3886" lon="5.64488">
        <ele>362.4</ele>
        <time>2022-02-28T12:54:26Z</time>
      </trkpt>
      <trkpt lat="46.38852" lon="5.64487">
        <ele>362</ele>
        <time>2022-02-28T12:54:27Z</time>
      </trkpt>
      <trkpt lat="46.38844" lon="5.64486">
        <ele>361.8</ele>
        <time>2022-02-28T12:54:28Z</time>
      </trkpt>
      <trkpt lat="46.38835" lon="5.64486">
        <ele>361.2</ele>
        <time>2022-02-28T12:54:29Z</time>
      </trkpt>
      <trkpt lat="46.38826" lon="5.64485">
        <ele>360.6</ele>
        <time>2022-02-28T12:54:30Z</time>
      </trkpt>
      <trkpt lat="46.38817" lon="5.64486">
        <ele>360</ele>
        <time>2022-02-28T12:54:31Z</time>
      </trkpt>
      <trkpt lat="46.38807" lon="5.64487">
        <ele>359.2</ele>
        <time>2022-02-28T12:54:32Z</time>
      </trkpt>
      <trkpt lat="46.38797" lon="5.64487">
        <ele>358.4</ele>
        <time>2022-02-28T12:54:33Z</time>
      </trkpt>
      <trkpt lat="46.38786" lon="5.64486">
        <ele>357.8</ele>
        <time>2022-02-28T12:54:34Z</time>
      </trkpt>
      <trkpt lat="46.38775" lon="5.64485">
        <ele>357</ele>
        <time>2022-02-28T12:54:35Z</time>
      </trkpt>
      <trkpt lat="46.38765" lon="5.64483">
        <ele>356.2</ele>
        <time>2022-02-28T12:54:36Z</time>
      </trkpt>
      <trkpt lat="46.38753" lon="5.6448">
        <ele>355.4</ele>
        <time>2022-02-28T12:54:37Z</time>
      </trkpt>
      <trkpt lat="46.38741" lon="5.64477">
        <ele>354.6</ele>
        <time>2022-02-28T12:54:38Z</time>
      </trkpt>
      <trkpt lat="46.38729" lon="5.64476">
        <ele>353.8</ele>
        <time>2022-02-28T12:54:39Z</time>
      </trkpt>
      <trkpt lat="46.38717" lon="5.64472">
        <ele>353.2</ele>
        <time>2022-02-28T12:54:40Z</time>
      </trkpt>
      <trkpt lat="46.38707" lon="5.6447">
        <ele>352.6</ele>
        <time>2022-02-28T12:54:41Z</time>
      </trkpt>
      <trkpt lat="46.38696" lon="5.64467">
        <ele>352</ele>
        <time>2022-02-28T12:54:42Z</time>
      </trkpt>
      <trkpt lat="46.38684" lon="5.64465">
        <ele>351.4</ele>
        <time>2022-02-28T12:54:43Z</time>
      </trkpt>
      <trkpt lat="46.38673" lon="5.64463">
        <ele>351</ele>
        <time>2022-02-28T12:54:44Z</time>
      </trkpt>
      <trkpt lat="46.38662" lon="5.64461">
        <ele>350.6</ele>
        <time>2022-02-28T12:54:45Z</time>
      </trkpt>
      <trkpt lat="46.38651" lon="5.64458">
        <ele>350.2</ele>
        <time>2022-02-28T12:54:46Z</time>
      </trkpt>
      <trkpt lat="46.3864" lon="5.64456">
        <ele>349.8</ele>
        <time>2022-02-28T12:54:47Z</time>
      </trkpt>
      <trkpt lat="46.3863" lon="5.64452">
        <ele>349.4</ele>
        <time>2022-02-28T12:54:48Z</time>
      </trkpt>
      <trkpt lat="46.3862" lon="5.64449">
        <ele>349.2</ele>
        <time>2022-02-28T12:54:49Z</time>
      </trkpt>
      <trkpt lat="46.3861" lon="5.64446">
        <ele>349.2</ele>
        <time>2022-02-28T12:54:50Z</time>
      </trkpt>
      <trkpt lat="46.386" lon="5.64443">
        <ele>348.8</ele>
        <time>2022-02-28T12:54:51Z</time>
      </trkpt>
      <trkpt lat="46.38591" lon="5.64439">
        <ele>348.8</ele>
        <time>2022-02-28T12:54:52Z</time>
      </trkpt>
      <trkpt lat="46.38582" lon="5.64436">
        <ele>348.6</ele>
        <time>2022-02-28T12:54:53Z</time>
      </trkpt>
      <trkpt lat="46.38574" lon="5.64432">
        <ele>348.6</ele>
        <time>2022-02-28T12:54:54Z</time>
      </trkpt>
      <trkpt lat="46.38566" lon="5.64427">
        <ele>348.6</ele>
        <time>2022-02-28T12:54:55Z</time>
      </trkpt>
      <trkpt lat="46.38558" lon="5.64422">
        <ele>348.6</ele>
        <time>2022-02-28T12:54:56Z</time>
      </trkpt>
      <trkpt lat="46.38551" lon="5.64417">
        <ele>348.6</ele>
        <time>2022-02-28T12:54:57Z</time>
      </trkpt>
      <trkpt lat="46.38544" lon="5.64411">
        <ele>348.6</ele>
        <time>2022-02-28T12:54:58Z</time>
      </trkpt>
      <trkpt lat="46.38538" lon="5.64406">
        <ele>348.8</ele>
        <time>2022-02-28T12:54:59Z</time>
      </trkpt>
      <trkpt lat="46.38532" lon="5.64401">
        <ele>348.8</ele>
        <time>2022-02-28T12:55:00Z</time>
      </trkpt>
      <trkpt lat="46.38527" lon="5.64397">
        <ele>349.2</ele>
        <time>2022-02-28T12:55:01Z</time>
      </trkpt>
      <trkpt lat="46.38521" lon="5.64393">
        <ele>349.2</ele>
        <time>2022-02-28T12:55:02Z</time>
      </trkpt>
      <trkpt lat="46.38516" lon="5.6439">
        <ele>349.6</ele>
        <time>2022-02-28T12:55:03Z</time>
      </trkpt>
      <trkpt lat="46.38512" lon="5.64386">
        <ele>349.8</ele>
        <time>2022-02-28T12:55:04Z</time>
      </trkpt>
      <trkpt lat="46.38508" lon="5.64384">
        <ele>350.2</ele>
        <time>2022-02-28T12:55:05Z</time>
      </trkpt>
      <trkpt lat="46.38503" lon="5.64382">
        <ele>350.4</ele>
        <time>2022-02-28T12:55:06Z</time>
      </trkpt>
      <trkpt lat="46.38499" lon="5.6438">
        <ele>350.8</ele>
        <time>2022-02-28T12:55:07Z</time>
      </trkpt>
      <trkpt lat="46.38495" lon="5.64378">
        <ele>351</ele>
        <time>2022-02-28T12:55:08Z</time>
      </trkpt>
      <trkpt lat="46.3849" lon="5.64377">
        <ele>351.2</ele>
        <time>2022-02-28T12:55:09Z</time>
      </trkpt>
      <trkpt lat="46.38486" lon="5.64375">
        <ele>351.4</ele>
        <time>2022-02-28T12:55:10Z</time>
      </trkpt>
      <trkpt lat="46.38481" lon="5.64373">
        <ele>351.6</ele>
        <time>2022-02-28T12:55:11Z</time>
      </trkpt>
      <trkpt lat="46.38477" lon="5.64371">
        <ele>352</ele>
        <time>2022-02-28T12:55:12Z</time>
      </trkpt>
      <trkpt lat="46.38472" lon="5.6437">
        <ele>352.2</ele>
        <time>2022-02-28T12:55:13Z</time>
      </trkpt>
      <trkpt lat="46.38467" lon="5.64368">
        <ele>352.4</ele>
        <time>2022-02-28T12:55:14Z</time>
      </trkpt>
      <trkpt lat="46.38462" lon="5.64367">
        <ele>352.4</ele>
        <time>2022-02-28T12:55:15Z</time>
      </trkpt>
      <trkpt lat="46.38458" lon="5.64365">
        <ele>352.6</ele>
        <time>2022-02-28T12:55:16Z</time>
      </trkpt>
      <trkpt lat="46.38453" lon="5.64364">
        <ele>352.6</ele>
        <time>2022-02-28T12:55:17Z</time>
      </trkpt>
      <trkpt lat="46.38448" lon="5.64363">
        <ele>352.6</ele>
        <time>2022-02-28T12:55:18Z</time>
      </trkpt>
      <trkpt lat="46.38443" lon="5.64361">
        <ele>353</ele>
        <time>2022-02-28T12:55:19Z</time>
      </trkpt>
      <trkpt lat="46.38438" lon="5.6436">
        <ele>353</ele>
        <time>2022-02-28T12:55:20Z</time>
      </trkpt>
      <trkpt lat="46.38434" lon="5.64358">
        <ele>353</ele>
        <time>2022-02-28T12:55:21Z</time>
      </trkpt>
      <trkpt lat="46.38429" lon="5.64356">
        <ele>353.2</ele>
        <time>2022-02-28T12:55:22Z</time>
      </trkpt>
      <trkpt lat="46.38424" lon="5.64354">
        <ele>353.2</ele>
        <time>2022-02-28T12:55:23Z</time>
      </trkpt>
      <trkpt lat="46.38419" lon="5.64353">
        <ele>353.2</ele>
        <time>2022-02-28T12:55:24Z</time>
      </trkpt>
      <trkpt lat="46.38414" lon="5.64351">
        <ele>353.2</ele>
        <time>2022-02-28T12:55:25Z</time>
      </trkpt>
      <trkpt lat="46.38409" lon="5.6435">
        <ele>353.2</ele>
        <time>2022-02-28T12:55:26Z</time>
      </trkpt>
      <trkpt lat="46.38403" lon="5.64349">
        <ele>353.2</ele>
        <time>2022-02-28T12:55:27Z</time>
      </trkpt>
      <trkpt lat="46.38398" lon="5.64349">
        <ele>353.4</ele>
        <time>2022-02-28T12:55:28Z</time>
      </trkpt>
      <trkpt lat="46.38393" lon="5.64348">
        <ele>353.4</ele>
        <time>2022-02-28T12:55:29Z</time>
      </trkpt>
      <trkpt lat="46.38388" lon="5.64349">
        <ele>353.6</ele>
        <time>2022-02-28T12:55:30Z</time>
      </trkpt>
      <trkpt lat="46.38382" lon="5.64349">
        <ele>353.6</ele>
        <time>2022-02-28T12:55:31Z</time>
      </trkpt>
      <trkpt lat="46.38377" lon="5.6435">
        <ele>354</ele>
        <time>2022-02-28T12:55:32Z</time>
      </trkpt>
      <trkpt lat="46.38372" lon="5.64351">
        <ele>354</ele>
        <time>2022-02-28T12:55:33Z</time>
      </trkpt>
      <trkpt lat="46.38366" lon="5.64353">
        <ele>354.2</ele>
        <time>2022-02-28T12:55:34Z</time>
      </trkpt>
      <trkpt lat="46.38361" lon="5.64354">
        <ele>354.2</ele>
        <time>2022-02-28T12:55:35Z</time>
      </trkpt>
      <trkpt lat="46.38356" lon="5.64355">
        <ele>354.6</ele>
        <time>2022-02-28T12:55:36Z</time>
      </trkpt>
      <trkpt lat="46.3835" lon="5.64357">
        <ele>354.6</ele>
        <time>2022-02-28T12:55:37Z</time>
      </trkpt>
      <trkpt lat="46.38345" lon="5.64359">
        <ele>355</ele>
        <time>2022-02-28T12:55:38Z</time>
      </trkpt>
      <trkpt lat="46.38341" lon="5.6436">
        <ele>355</ele>
        <time>2022-02-28T12:55:39Z</time>
      </trkpt>
      <trkpt lat="46.38336" lon="5.64361">
        <ele>355.2</ele>
        <time>2022-02-28T12:55:40Z</time>
      </trkpt>
      <trkpt lat="46.38331" lon="5.64362">
        <ele>355.2</ele>
        <time>2022-02-28T12:55:41Z</time>
      </trkpt>
      <trkpt lat="46.38326" lon="5.64362">
        <ele>355.6</ele>
        <time>2022-02-28T12:55:42Z</time>
      </trkpt>
      <trkpt lat="46.38321" lon="5.64362">
        <ele>355.6</ele>
        <time>2022-02-28T12:55:43Z</time>
      </trkpt>
      <trkpt lat="46.38316" lon="5.64362">
        <ele>356</ele>
        <time>2022-02-28T12:55:44Z</time>
      </trkpt>
      <trkpt lat="46.38312" lon="5.64363">
        <ele>356</ele>
        <time>2022-02-28T12:55:45Z</time>
      </trkpt>
      <trkpt lat="46.38307" lon="5.64363">
        <ele>356</ele>
        <time>2022-02-28T12:55:46Z</time>
      </trkpt>
      <trkpt lat="46.38302" lon="5.64362">
        <ele>356</ele>
        <time>2022-02-28T12:55:47Z</time>
      </trkpt>
      <trkpt lat="46.38297" lon="5.64362">
        <ele>356.2</ele>
        <time>2022-02-28T12:55:48Z</time>
      </trkpt>
      <trkpt lat="46.38292" lon="5.64362">
        <ele>356.2</ele>
        <time>2022-02-28T12:55:49Z</time>
      </trkpt>
      <trkpt lat="46.38287" lon="5.64362">
        <ele>356.2</ele>
        <time>2022-02-28T12:55:50Z</time>
      </trkpt>
      <trkpt lat="46.38281" lon="5.64363">
        <ele>356.2</ele>
        <time>2022-02-28T12:55:51Z</time>
      </trkpt>
      <trkpt lat="46.38276" lon="5.64365">
        <ele>356.2</ele>
        <time>2022-02-28T12:55:52Z</time>
      </trkpt>
      <trkpt lat="46.3827" lon="5.64366">
        <ele>356.2</ele>
        <time>2022-02-28T12:55:53Z</time>
      </trkpt>
      <trkpt lat="46.38265" lon="5.64367">
        <ele>356.2</ele>
        <time>2022-02-28T12:55:54Z</time>
      </trkpt>
      <trkpt lat="46.3826" lon="5.64368">
        <ele>356.2</ele>
        <time>2022-02-28T12:55:55Z</time>
      </trkpt>
      <trkpt lat="46.38254" lon="5.6437">
        <ele>356.4</ele>
        <time>2022-02-28T12:55:56Z</time>
      </trkpt>
      <trkpt lat="46.38249" lon="5.64372">
        <ele>356.4</ele>
        <time>2022-02-28T12:55:57Z</time>
      </trkpt>
      <trkpt lat="46.38243" lon="5.64374">
        <ele>356.4</ele>
        <time>2022-02-28T12:55:58Z</time>
      </trkpt>
      <trkpt lat="46.38238" lon="5.64375">
        <ele>356.4</ele>
        <time>2022-02-28T12:55:59Z</time>
      </trkpt>
      <trkpt lat="46.38232" lon="5.64377">
        <ele>356.4</ele>
        <time>2022-02-28T12:56:00Z</time>
      </trkpt>
      <trkpt lat="46.38224" lon="5.64379">
        <ele>356.4</ele>
        <time>2022-02-28T12:56:01Z</time>
      </trkpt>
      <trkpt lat="46.38221" lon="5.6438">
        <ele>356.4</ele>
        <time>2022-02-28T12:56:02Z</time>
      </trkpt>
      <trkpt lat="46.38215" lon="5.64382">
        <ele>356.4</ele>
        <time>2022-02-28T12:56:03Z</time>
      </trkpt>
      <trkpt lat="46.38209" lon="5.64383">
        <ele>356.4</ele>
        <time>2022-02-28T12:56:04Z</time>
      </trkpt>
      <trkpt lat="46.38203" lon="5.64385">
        <ele>356.4</ele>
        <time>2022-02-28T12:56:05Z</time>
      </trkpt>
      <trkpt lat="46.38197" lon="5.64387">
        <ele>356.4</ele>
        <time>2022-02-28T12:56:06Z</time>
      </trkpt>
      <trkpt lat="46.38191" lon="5.64389">
        <ele>356.4</ele>
        <time>2022-02-28T12:56:07Z</time>
      </trkpt>
      <trkpt lat="46.38185" lon="5.64391">
        <ele>356.4</ele>
        <time>2022-02-28T12:56:08Z</time>
      </trkpt>
      <trkpt lat="46.38179" lon="5.64392">
        <ele>356.4</ele>
        <time>2022-02-28T12:56:09Z</time>
      </trkpt>
      <trkpt lat="46.38173" lon="5.64394">
        <ele>356.4</ele>
        <time>2022-02-28T12:56:10Z</time>
      </trkpt>
      <trkpt lat="46.38167" lon="5.64395">
        <ele>356.4</ele>
        <time>2022-02-28T12:56:11Z</time>
      </trkpt>
      <trkpt lat="46.38161" lon="5.64396">
        <ele>356.4</ele>
        <time>2022-02-28T12:56:12Z</time>
      </trkpt>
      <trkpt lat="46.38155" lon="5.64398">
        <ele>356.4</ele>
        <time>2022-02-28T12:56:13Z</time>
      </trkpt>
      <trkpt lat="46.38149" lon="5.64399">
        <ele>356.4</ele>
        <time>2022-02-28T12:56:14Z</time>
      </trkpt>
      <trkpt lat="46.38143" lon="5.64401">
        <ele>356.6</ele>
        <time>2022-02-28T12:56:15Z</time>
      </trkpt>
      <trkpt lat="46.38137" lon="5.64401">
        <ele>356.6</ele>
        <time>2022-02-28T12:56:16Z</time>
      </trkpt>
      <trkpt lat="46.38131" lon="5.64402">
        <ele>356.6</ele>
        <time>2022-02-28T12:56:17Z</time>
      </trkpt>
      <trkpt lat="46.38125" lon="5.64402">
        <ele>356.6</ele>
        <time>2022-02-28T12:56:18Z</time>
      </trkpt>
      <trkpt lat="46.38119" lon="5.64402">
        <ele>356.6</ele>
        <time>2022-02-28T12:56:19Z</time>
      </trkpt>
      <trkpt lat="46.38113" lon="5.64402">
        <ele>356.6</ele>
        <time>2022-02-28T12:56:20Z</time>
      </trkpt>
      <trkpt lat="46.38107" lon="5.64401">
        <ele>356.6</ele>
        <time>2022-02-28T12:56:21Z</time>
      </trkpt>
      <trkpt lat="46.38101" lon="5.644">
        <ele>356.6</ele>
        <time>2022-02-28T12:56:22Z</time>
      </trkpt>
      <trkpt lat="46.38095" lon="5.64399">
        <ele>356.6</ele>
        <time>2022-02-28T12:56:23Z</time>
      </trkpt>
      <trkpt lat="46.38089" lon="5.64398">
        <ele>356.6</ele>
        <time>2022-02-28T12:56:24Z</time>
      </trkpt>
      <trkpt lat="46.38083" lon="5.64397">
        <ele>356.6</ele>
        <time>2022-02-28T12:56:25Z</time>
      </trkpt>
      <trkpt lat="46.38077" lon="5.64396">
        <ele>356.6</ele>
        <time>2022-02-28T12:56:26Z</time>
      </trkpt>
      <trkpt lat="46.38071" lon="5.64395">
        <ele>356.6</ele>
        <time>2022-02-28T12:56:27Z</time>
      </trkpt>
      <trkpt lat="46.38065" lon="5.64393">
        <ele>356.6</ele>
        <time>2022-02-28T12:56:28Z</time>
      </trkpt>
      <trkpt lat="46.38059" lon="5.64392">
        <ele>356.6</ele>
        <time>2022-02-28T12:56:29Z</time>
      </trkpt>
      <trkpt lat="46.38053" lon="5.64391">
        <ele>356.6</ele>
        <time>2022-02-28T12:56:30Z</time>
      </trkpt>
      <trkpt lat="46.38046" lon="5.6439">
        <ele>356.6</ele>
        <time>2022-02-28T12:56:31Z</time>
      </trkpt>
      <trkpt lat="46.3804" lon="5.64388">
        <ele>356.6</ele>
        <time>2022-02-28T12:56:32Z</time>
      </trkpt>
      <trkpt lat="46.38034" lon="5.64387">
        <ele>356.6</ele>
        <time>2022-02-28T12:56:33Z</time>
      </trkpt>
      <trkpt lat="46.38028" lon="5.64385">
        <ele>356.6</ele>
        <time>2022-02-28T12:56:34Z</time>
      </trkpt>
      <trkpt lat="46.38022" lon="5.64383">
        <ele>356.8</ele>
        <time>2022-02-28T12:56:35Z</time>
      </trkpt>
      <trkpt lat="46.38016" lon="5.64381">
        <ele>356.8</ele>
        <time>2022-02-28T12:56:36Z</time>
      </trkpt>
      <trkpt lat="46.3801" lon="5.64379">
        <ele>356.8</ele>
        <time>2022-02-28T12:56:37Z</time>
      </trkpt>
      <trkpt lat="46.38003" lon="5.64377">
        <ele>356.8</ele>
        <time>2022-02-28T12:56:38Z</time>
      </trkpt>
      <trkpt lat="46.37997" lon="5.64374">
        <ele>356.8</ele>
        <time>2022-02-28T12:56:39Z</time>
      </trkpt>
      <trkpt lat="46.37991" lon="5.64372">
        <ele>356.8</ele>
        <time>2022-02-28T12:56:40Z</time>
      </trkpt>
      <trkpt lat="46.37985" lon="5.64369">
        <ele>356.8</ele>
        <time>2022-02-28T12:56:41Z</time>
      </trkpt>
      <trkpt lat="46.37979" lon="5.64366">
        <ele>356.8</ele>
        <time>2022-02-28T12:56:42Z</time>
      </trkpt>
      <trkpt lat="46.37972" lon="5.64363">
        <ele>356.8</ele>
        <time>2022-02-28T12:56:43Z</time>
      </trkpt>
      <trkpt lat="46.37966" lon="5.64361">
        <ele>356.8</ele>
        <time>2022-02-28T12:56:44Z</time>
      </trkpt>
      <trkpt lat="46.3796" lon="5.64358">
        <ele>356.8</ele>
        <time>2022-02-28T12:56:45Z</time>
      </trkpt>
      <trkpt lat="46.37954" lon="5.64355">
        <ele>356.8</ele>
        <time>2022-02-28T12:56:46Z</time>
      </trkpt>
      <trkpt lat="46.37947" lon="5.64352">
        <ele>356.8</ele>
        <time>2022-02-28T12:56:47Z</time>
      </trkpt>
      <trkpt lat="46.3794" lon="5.64349">
        <ele>356.8</ele>
        <time>2022-02-28T12:56:48Z</time>
      </trkpt>
      <trkpt lat="46.37934" lon="5.64346">
        <ele>356.8</ele>
        <time>2022-02-28T12:56:49Z</time>
      </trkpt>
      <trkpt lat="46.37927" lon="5.64344">
        <ele>356.8</ele>
        <time>2022-02-28T12:56:50Z</time>
      </trkpt>
      <trkpt lat="46.37921" lon="5.64341">
        <ele>356.8</ele>
        <time>2022-02-28T12:56:51Z</time>
      </trkpt>
      <trkpt lat="46.37914" lon="5.64338">
        <ele>356.8</ele>
        <time>2022-02-28T12:56:52Z</time>
      </trkpt>
      <trkpt lat="46.37908" lon="5.64335">
        <ele>356.8</ele>
        <time>2022-02-28T12:56:53Z</time>
      </trkpt>
      <trkpt lat="46.37901" lon="5.64332">
        <ele>356.8</ele>
        <time>2022-02-28T12:56:54Z</time>
      </trkpt>
      <trkpt lat="46.37894" lon="5.64329">
        <ele>356.8</ele>
        <time>2022-02-28T12:56:55Z</time>
      </trkpt>
      <trkpt lat="46.37888" lon="5.64327">
        <ele>356.8</ele>
        <time>2022-02-28T12:56:56Z</time>
      </trkpt>
      <trkpt lat="46.37881" lon="5.64324">
        <ele>356.8</ele>
        <time>2022-02-28T12:56:57Z</time>
      </trkpt>
      <trkpt lat="46.37875" lon="5.64321">
        <ele>356.8</ele>
        <time>2022-02-28T12:56:58Z</time>
      </trkpt>
      <trkpt lat="46.37869" lon="5.64318">
        <ele>356.8</ele>
        <time>2022-02-28T12:56:59Z</time>
      </trkpt>
      <trkpt lat="46.37862" lon="5.64316">
        <ele>356.8</ele>
        <time>2022-02-28T12:57:00Z</time>
      </trkpt>
      <trkpt lat="46.37849" lon="5.64311">
        <ele>356.8</ele>
        <time>2022-02-28T12:57:01Z</time>
      </trkpt>
      <trkpt lat="46.37843" lon="5.64308">
        <ele>356.8</ele>
        <time>2022-02-28T12:57:02Z</time>
      </trkpt>
      <trkpt lat="46.37837" lon="5.64306">
        <ele>356.8</ele>
        <time>2022-02-28T12:57:03Z</time>
      </trkpt>
      <trkpt lat="46.37831" lon="5.64303">
        <ele>356.8</ele>
        <time>2022-02-28T12:57:04Z</time>
      </trkpt>
      <trkpt lat="46.37831" lon="5.64303">
        <ele>356.8</ele>
        <time>2022-02-28T12:57:05Z</time>
      </trkpt>
      <trkpt lat="46.37825" lon="5.64301">
        <ele>356.8</ele>
        <time>2022-02-28T12:57:06Z</time>
      </trkpt>
      <trkpt lat="46.37818" lon="5.64299">
        <ele>356.8</ele>
        <time>2022-02-28T12:57:07Z</time>
      </trkpt>
      <trkpt lat="46.37812" lon="5.64298">
        <ele>356.8</ele>
        <time>2022-02-28T12:57:08Z</time>
      </trkpt>
      <trkpt lat="46.37806" lon="5.64296">
        <ele>356.8</ele>
        <time>2022-02-28T12:57:09Z</time>
      </trkpt>
      <trkpt lat="46.37799" lon="5.64295">
        <ele>356.8</ele>
        <time>2022-02-28T12:57:10Z</time>
      </trkpt>
      <trkpt lat="46.37793" lon="5.64293">
        <ele>356.8</ele>
        <time>2022-02-28T12:57:11Z</time>
      </trkpt>
      <trkpt lat="46.37786" lon="5.64292">
        <ele>356.8</ele>
        <time>2022-02-28T12:57:12Z</time>
      </trkpt>
      <trkpt lat="46.3778" lon="5.64291">
        <ele>356.6</ele>
        <time>2022-02-28T12:57:13Z</time>
      </trkpt>
      <trkpt lat="46.37773" lon="5.64289">
        <ele>356.6</ele>
        <time>2022-02-28T12:57:14Z</time>
      </trkpt>
      <trkpt lat="46.37767" lon="5.64288">
        <ele>356.6</ele>
        <time>2022-02-28T12:57:15Z</time>
      </trkpt>
      <trkpt lat="46.37761" lon="5.64287">
        <ele>356.6</ele>
        <time>2022-02-28T12:57:16Z</time>
      </trkpt>
      <trkpt lat="46.37754" lon="5.64287">
        <ele>356.6</ele>
        <time>2022-02-28T12:57:17Z</time>
      </trkpt>
      <trkpt lat="46.37748" lon="5.64286">
        <ele>356.6</ele>
        <time>2022-02-28T12:57:18Z</time>
      </trkpt>
      <trkpt lat="46.37742" lon="5.64285">
        <ele>356.6</ele>
        <time>2022-02-28T12:57:19Z</time>
      </trkpt>
      <trkpt lat="46.37735" lon="5.64285">
        <ele>356.6</ele>
        <time>2022-02-28T12:57:20Z</time>
      </trkpt>
      <trkpt lat="46.37729" lon="5.64284">
        <ele>356.6</ele>
        <time>2022-02-28T12:57:21Z</time>
      </trkpt>
      <trkpt lat="46.37723" lon="5.64284">
        <ele>356.6</ele>
        <time>2022-02-28T12:57:22Z</time>
      </trkpt>
      <trkpt lat="46.37717" lon="5.64283">
        <ele>356.6</ele>
        <time>2022-02-28T12:57:23Z</time>
      </trkpt>
      <trkpt lat="46.37711" lon="5.64282">
        <ele>356.6</ele>
        <time>2022-02-28T12:57:24Z</time>
      </trkpt>
      <trkpt lat="46.37705" lon="5.64281">
        <ele>356.6</ele>
        <time>2022-02-28T12:57:25Z</time>
      </trkpt>
      <trkpt lat="46.37699" lon="5.64279">
        <ele>356.6</ele>
        <time>2022-02-28T12:57:26Z</time>
      </trkpt>
      <trkpt lat="46.37693" lon="5.64278">
        <ele>357</ele>
        <time>2022-02-28T12:57:27Z</time>
      </trkpt>
      <trkpt lat="46.37688" lon="5.64276">
        <ele>357</ele>
        <time>2022-02-28T12:57:28Z</time>
      </trkpt>
      <trkpt lat="46.37682" lon="5.64274">
        <ele>357.2</ele>
        <time>2022-02-28T12:57:29Z</time>
      </trkpt>
      <trkpt lat="46.37677" lon="5.64272">
        <ele>357.2</ele>
        <time>2022-02-28T12:57:30Z</time>
      </trkpt>
      <trkpt lat="46.37672" lon="5.64269">
        <ele>357.4</ele>
        <time>2022-02-28T12:57:31Z</time>
      </trkpt>
      <trkpt lat="46.37666" lon="5.64266">
        <ele>357.4</ele>
        <time>2022-02-28T12:57:32Z</time>
      </trkpt>
      <trkpt lat="46.37661" lon="5.64262">
        <ele>357.4</ele>
        <time>2022-02-28T12:57:33Z</time>
      </trkpt>
      <trkpt lat="46.37656" lon="5.64259">
        <ele>357.4</ele>
        <time>2022-02-28T12:57:34Z</time>
      </trkpt>
      <trkpt lat="46.37651" lon="5.64255">
        <ele>357.8</ele>
        <time>2022-02-28T12:57:35Z</time>
      </trkpt>
      <trkpt lat="46.37646" lon="5.64251">
        <ele>357.8</ele>
        <time>2022-02-28T12:57:36Z</time>
      </trkpt>
      <trkpt lat="46.37641" lon="5.64248">
        <ele>358</ele>
        <time>2022-02-28T12:57:37Z</time>
      </trkpt>
      <trkpt lat="46.37636" lon="5.64244">
        <ele>358</ele>
        <time>2022-02-28T12:57:38Z</time>
      </trkpt>
      <trkpt lat="46.37631" lon="5.64241">
        <ele>358</ele>
        <time>2022-02-28T12:57:39Z</time>
      </trkpt>
      <trkpt lat="46.37626" lon="5.64237">
        <ele>358.2</ele>
        <time>2022-02-28T12:57:40Z</time>
      </trkpt>
      <trkpt lat="46.37621" lon="5.64234">
        <ele>358.2</ele>
        <time>2022-02-28T12:57:41Z</time>
      </trkpt>
      <trkpt lat="46.37616" lon="5.64231">
        <ele>358.2</ele>
        <time>2022-02-28T12:57:42Z</time>
      </trkpt>
      <trkpt lat="46.37611" lon="5.64227">
        <ele>358.2</ele>
        <time>2022-02-28T12:57:43Z</time>
      </trkpt>
      <trkpt lat="46.37605" lon="5.64224">
        <ele>358.2</ele>
        <time>2022-02-28T12:57:44Z</time>
      </trkpt>
      <trkpt lat="46.37599" lon="5.6422">
        <ele>358.2</ele>
        <time>2022-02-28T12:57:45Z</time>
      </trkpt>
      <trkpt lat="46.37594" lon="5.64216">
        <ele>358.2</ele>
        <time>2022-02-28T12:57:46Z</time>
      </trkpt>
      <trkpt lat="46.37587" lon="5.64212">
        <ele>358.2</ele>
        <time>2022-02-28T12:57:47Z</time>
      </trkpt>
      <trkpt lat="46.37581" lon="5.64209">
        <ele>357.8</ele>
        <time>2022-02-28T12:57:48Z</time>
      </trkpt>
      <trkpt lat="46.37575" lon="5.64205">
        <ele>357.8</ele>
        <time>2022-02-28T12:57:49Z</time>
      </trkpt>
      <trkpt lat="46.37568" lon="5.64201">
        <ele>357.6</ele>
        <time>2022-02-28T12:57:50Z</time>
      </trkpt>
      <trkpt lat="46.37561" lon="5.64197">
        <ele>357.6</ele>
        <time>2022-02-28T12:57:51Z</time>
      </trkpt>
      <trkpt lat="46.37555" lon="5.64193">
        <ele>357.4</ele>
        <time>2022-02-28T12:57:52Z</time>
      </trkpt>
      <trkpt lat="46.37548" lon="5.64189">
        <ele>357.4</ele>
        <time>2022-02-28T12:57:53Z</time>
      </trkpt>
      <trkpt lat="46.37541" lon="5.64185">
        <ele>357.4</ele>
        <time>2022-02-28T12:57:54Z</time>
      </trkpt>
      <trkpt lat="46.37534" lon="5.6418">
        <ele>357</ele>
        <time>2022-02-28T12:57:55Z</time>
      </trkpt>
      <trkpt lat="46.37528" lon="5.64176">
        <ele>357</ele>
        <time>2022-02-28T12:57:56Z</time>
      </trkpt>
      <trkpt lat="46.37521" lon="5.64172">
        <ele>357</ele>
        <time>2022-02-28T12:57:57Z</time>
      </trkpt>
      <trkpt lat="46.37515" lon="5.64168">
        <ele>357.4</ele>
        <time>2022-02-28T12:57:58Z</time>
      </trkpt>
      <trkpt lat="46.37509" lon="5.64164">
        <ele>357.4</ele>
        <time>2022-02-28T12:57:59Z</time>
      </trkpt>
      <trkpt lat="46.37503" lon="5.6416">
        <ele>357.6</ele>
        <time>2022-02-28T12:58:00Z</time>
      </trkpt>
      <trkpt lat="46.37497" lon="5.64155">
        <ele>357.8</ele>
        <time>2022-02-28T12:58:01Z</time>
      </trkpt>
      <trkpt lat="46.37492" lon="5.6415">
        <ele>358.2</ele>
        <time>2022-02-28T12:58:02Z</time>
      </trkpt>
      <trkpt lat="46.37487" lon="5.64146">
        <ele>358.4</ele>
        <time>2022-02-28T12:58:03Z</time>
      </trkpt>
      <trkpt lat="46.37483" lon="5.64141">
        <ele>358.8</ele>
        <time>2022-02-28T12:58:04Z</time>
      </trkpt>
      <trkpt lat="46.37479" lon="5.64136">
        <ele>359</ele>
        <time>2022-02-28T12:58:05Z</time>
      </trkpt>
      <trkpt lat="46.37475" lon="5.64131">
        <ele>359.4</ele>
        <time>2022-02-28T12:58:06Z</time>
      </trkpt>
      <trkpt lat="46.37471" lon="5.64126">
        <ele>359.8</ele>
        <time>2022-02-28T12:58:07Z</time>
      </trkpt>
      <trkpt lat="46.37468" lon="5.6412">
        <ele>360</ele>
        <time>2022-02-28T12:58:08Z</time>
      </trkpt>
      <trkpt lat="46.37464" lon="5.64116">
        <ele>360.4</ele>
        <time>2022-02-28T12:58:09Z</time>
      </trkpt>
      <trkpt lat="46.37461" lon="5.64112">
        <ele>360.8</ele>
        <time>2022-02-28T12:58:10Z</time>
      </trkpt>
      <trkpt lat="46.37457" lon="5.64107">
        <ele>361</ele>
        <time>2022-02-28T12:58:11Z</time>
      </trkpt>
      <trkpt lat="46.37454" lon="5.64103">
        <ele>361.4</ele>
        <time>2022-02-28T12:58:12Z</time>
      </trkpt>
      <trkpt lat="46.3745" lon="5.64099">
        <ele>361.6</ele>
        <time>2022-02-28T12:58:13Z</time>
      </trkpt>
      <trkpt lat="46.37447" lon="5.64096">
        <ele>361.8</ele>
        <time>2022-02-28T12:58:14Z</time>
      </trkpt>
      <trkpt lat="46.37443" lon="5.64093">
        <ele>362.2</ele>
        <time>2022-02-28T12:58:15Z</time>
      </trkpt>
      <trkpt lat="46.3744" lon="5.64089">
        <ele>362.4</ele>
        <time>2022-02-28T12:58:16Z</time>
      </trkpt>
      <trkpt lat="46.37436" lon="5.64086">
        <ele>362.6</ele>
        <time>2022-02-28T12:58:17Z</time>
      </trkpt>
      <trkpt lat="46.37432" lon="5.64082">
        <ele>362.8</ele>
        <time>2022-02-28T12:58:18Z</time>
      </trkpt>
      <trkpt lat="46.37428" lon="5.64079">
        <ele>362.8</ele>
        <time>2022-02-28T12:58:19Z</time>
      </trkpt>
      <trkpt lat="46.37424" lon="5.64076">
        <ele>363.2</ele>
        <time>2022-02-28T12:58:20Z</time>
      </trkpt>
      <trkpt lat="46.37418" lon="5.64071">
        <ele>363.4</ele>
        <time>2022-02-28T12:58:21Z</time>
      </trkpt>
      <trkpt lat="46.37416" lon="5.6407">
        <ele>363.6</ele>
        <time>2022-02-28T12:58:22Z</time>
      </trkpt>
      <trkpt lat="46.37412" lon="5.64067">
        <ele>363.8</ele>
        <time>2022-02-28T12:58:23Z</time>
      </trkpt>
      <trkpt lat="46.37407" lon="5.64064">
        <ele>364</ele>
        <time>2022-02-28T12:58:24Z</time>
      </trkpt>
      <trkpt lat="46.37403" lon="5.64062">
        <ele>364.4</ele>
        <time>2022-02-28T12:58:25Z</time>
      </trkpt>
      <trkpt lat="46.37398" lon="5.6406">
        <ele>364.4</ele>
        <time>2022-02-28T12:58:26Z</time>
      </trkpt>
      <trkpt lat="46.37394" lon="5.64058">
        <ele>364.6</ele>
        <time>2022-02-28T12:58:27Z</time>
      </trkpt>
      <trkpt lat="46.37389" lon="5.64057">
        <ele>364.6</ele>
        <time>2022-02-28T12:58:28Z</time>
      </trkpt>
      <trkpt lat="46.37385" lon="5.64055">
        <ele>365</ele>
        <time>2022-02-28T12:58:29Z</time>
      </trkpt>
      <trkpt lat="46.37381" lon="5.64053">
        <ele>365.2</ele>
        <time>2022-02-28T12:58:30Z</time>
      </trkpt>
      <trkpt lat="46.37374" lon="5.64051">
        <ele>365.6</ele>
        <time>2022-02-28T12:58:31Z</time>
      </trkpt>
      <trkpt lat="46.37372" lon="5.6405">
        <ele>365.6</ele>
        <time>2022-02-28T12:58:32Z</time>
      </trkpt>
      <trkpt lat="46.37368" lon="5.6405">
        <ele>365.8</ele>
        <time>2022-02-28T12:58:33Z</time>
      </trkpt>
      <trkpt lat="46.37365" lon="5.64049">
        <ele>365.8</ele>
        <time>2022-02-28T12:58:34Z</time>
      </trkpt>
      <trkpt lat="46.37361" lon="5.64048">
        <ele>366</ele>
        <time>2022-02-28T12:58:35Z</time>
      </trkpt>
      <trkpt lat="46.37357" lon="5.64048">
        <ele>366</ele>
        <time>2022-02-28T12:58:36Z</time>
      </trkpt>
      <trkpt lat="46.37353" lon="5.64047">
        <ele>366.4</ele>
        <time>2022-02-28T12:58:37Z</time>
      </trkpt>
      <trkpt lat="46.37349" lon="5.64047">
        <ele>366.4</ele>
        <time>2022-02-28T12:58:38Z</time>
      </trkpt>
      <trkpt lat="46.37345" lon="5.64046">
        <ele>366.8</ele>
        <time>2022-02-28T12:58:39Z</time>
      </trkpt>
      <trkpt lat="46.3734" lon="5.64045">
        <ele>366.8</ele>
        <time>2022-02-28T12:58:40Z</time>
      </trkpt>
      <trkpt lat="46.37336" lon="5.64045">
        <ele>366.8</ele>
        <time>2022-02-28T12:58:41Z</time>
      </trkpt>
      <trkpt lat="46.37331" lon="5.64044">
        <ele>367</ele>
        <time>2022-02-28T12:58:42Z</time>
      </trkpt>
      <trkpt lat="46.37327" lon="5.64044">
        <ele>367</ele>
        <time>2022-02-28T12:58:43Z</time>
      </trkpt>
      <trkpt lat="46.37322" lon="5.64044">
        <ele>367.2</ele>
        <time>2022-02-28T12:58:44Z</time>
      </trkpt>
      <trkpt lat="46.37317" lon="5.64043">
        <ele>367.2</ele>
        <time>2022-02-28T12:58:45Z</time>
      </trkpt>
      <trkpt lat="46.37312" lon="5.64043">
        <ele>367.4</ele>
        <time>2022-02-28T12:58:46Z</time>
      </trkpt>
      <trkpt lat="46.37307" lon="5.64043">
        <ele>367.4</ele>
        <time>2022-02-28T12:58:47Z</time>
      </trkpt>
      <trkpt lat="46.37303" lon="5.64043">
        <ele>367.4</ele>
        <time>2022-02-28T12:58:48Z</time>
      </trkpt>
      <trkpt lat="46.37298" lon="5.64043">
        <ele>367.6</ele>
        <time>2022-02-28T12:58:49Z</time>
      </trkpt>
      <trkpt lat="46.37293" lon="5.64042">
        <ele>367.6</ele>
        <time>2022-02-28T12:58:50Z</time>
      </trkpt>
      <trkpt lat="46.37286" lon="5.6404">
        <ele>367.6</ele>
        <time>2022-02-28T12:58:51Z</time>
      </trkpt>
      <trkpt lat="46.37283" lon="5.6404">
        <ele>368</ele>
        <time>2022-02-28T12:58:52Z</time>
      </trkpt>
      <trkpt lat="46.37278" lon="5.64038">
        <ele>368</ele>
        <time>2022-02-28T12:58:53Z</time>
      </trkpt>
      <trkpt lat="46.37273" lon="5.64036">
        <ele>368</ele>
        <time>2022-02-28T12:58:54Z</time>
      </trkpt>
      <trkpt lat="46.37269" lon="5.64033">
        <ele>368.2</ele>
        <time>2022-02-28T12:58:55Z</time>
      </trkpt>
      <trkpt lat="46.37264" lon="5.6403">
        <ele>368.2</ele>
        <time>2022-02-28T12:58:56Z</time>
      </trkpt>
      <trkpt lat="46.37259" lon="5.64027">
        <ele>368.4</ele>
        <time>2022-02-28T12:58:57Z</time>
      </trkpt>
      <trkpt lat="46.37255" lon="5.64023">
        <ele>368.4</ele>
        <time>2022-02-28T12:58:58Z</time>
      </trkpt>
      <trkpt lat="46.3725" lon="5.6402">
        <ele>368.4</ele>
        <time>2022-02-28T12:58:59Z</time>
      </trkpt>
      <trkpt lat="46.37245" lon="5.64017">
        <ele>368.4</ele>
        <time>2022-02-28T12:59:00Z</time>
      </trkpt>
      <trkpt lat="46.3724" lon="5.64013">
        <ele>368.4</ele>
        <time>2022-02-28T12:59:01Z</time>
      </trkpt>
      <trkpt lat="46.37236" lon="5.6401">
        <ele>368.4</ele>
        <time>2022-02-28T12:59:02Z</time>
      </trkpt>
      <trkpt lat="46.37231" lon="5.64006">
        <ele>368.8</ele>
        <time>2022-02-28T12:59:03Z</time>
      </trkpt>
      <trkpt lat="46.37226" lon="5.64003">
        <ele>368.8</ele>
        <time>2022-02-28T12:59:04Z</time>
      </trkpt>
      <trkpt lat="46.37222" lon="5.63999">
        <ele>368.8</ele>
        <time>2022-02-28T12:59:05Z</time>
      </trkpt>
      <trkpt lat="46.37217" lon="5.63996">
        <ele>369</ele>
        <time>2022-02-28T12:59:06Z</time>
      </trkpt>
      <trkpt lat="46.37212" lon="5.63993">
        <ele>369</ele>
        <time>2022-02-28T12:59:07Z</time>
      </trkpt>
      <trkpt lat="46.37207" lon="5.6399">
        <ele>369</ele>
        <time>2022-02-28T12:59:08Z</time>
      </trkpt>
      <trkpt lat="46.37202" lon="5.63988">
        <ele>369.2</ele>
        <time>2022-02-28T12:59:09Z</time>
      </trkpt>
      <trkpt lat="46.37197" lon="5.63987">
        <ele>369.2</ele>
        <time>2022-02-28T12:59:10Z</time>
      </trkpt>
      <trkpt lat="46.37188" lon="5.63986">
        <ele>369.2</ele>
        <time>2022-02-28T12:59:11Z</time>
      </trkpt>
      <trkpt lat="46.37185" lon="5.63986">
        <ele>369.2</ele>
        <time>2022-02-28T12:59:12Z</time>
      </trkpt>
      <trkpt lat="46.37179" lon="5.63986">
        <ele>369.2</ele>
        <time>2022-02-28T12:59:13Z</time>
      </trkpt>
      <trkpt lat="46.37173" lon="5.63987">
        <ele>369.2</ele>
        <time>2022-02-28T12:59:14Z</time>
      </trkpt>
      <trkpt lat="46.37167" lon="5.63988">
        <ele>369.2</ele>
        <time>2022-02-28T12:59:15Z</time>
      </trkpt>
      <trkpt lat="46.3716" lon="5.6399">
        <ele>369.2</ele>
        <time>2022-02-28T12:59:16Z</time>
      </trkpt>
      <trkpt lat="46.37153" lon="5.63991">
        <ele>369.2</ele>
        <time>2022-02-28T12:59:17Z</time>
      </trkpt>
      <trkpt lat="46.37146" lon="5.63993">
        <ele>368.8</ele>
        <time>2022-02-28T12:59:18Z</time>
      </trkpt>
      <trkpt lat="46.37139" lon="5.63994">
        <ele>368.8</ele>
        <time>2022-02-28T12:59:19Z</time>
      </trkpt>
      <trkpt lat="46.37132" lon="5.63996">
        <ele>368.6</ele>
        <time>2022-02-28T12:59:20Z</time>
      </trkpt>
      <trkpt lat="46.37125" lon="5.63998">
        <ele>368.6</ele>
        <time>2022-02-28T12:59:21Z</time>
      </trkpt>
      <trkpt lat="46.37117" lon="5.63999">
        <ele>368.4</ele>
        <time>2022-02-28T12:59:22Z</time>
      </trkpt>
      <trkpt lat="46.3711" lon="5.64">
        <ele>368.4</ele>
        <time>2022-02-28T12:59:23Z</time>
      </trkpt>
      <trkpt lat="46.37103" lon="5.64002">
        <ele>368.4</ele>
        <time>2022-02-28T12:59:24Z</time>
      </trkpt>
      <trkpt lat="46.37096" lon="5.64005">
        <ele>368</ele>
        <time>2022-02-28T12:59:25Z</time>
      </trkpt>
      <trkpt lat="46.37089" lon="5.64007">
        <ele>368</ele>
        <time>2022-02-28T12:59:26Z</time>
      </trkpt>
      <trkpt lat="46.37082" lon="5.6401">
        <ele>368</ele>
        <time>2022-02-28T12:59:27Z</time>
      </trkpt>
      <trkpt lat="46.37076" lon="5.64013">
        <ele>368</ele>
        <time>2022-02-28T12:59:28Z</time>
      </trkpt>
      <trkpt lat="46.37069" lon="5.64016">
        <ele>368</ele>
        <time>2022-02-28T12:59:29Z</time>
      </trkpt>
      <trkpt lat="46.37063" lon="5.6402">
        <ele>368</ele>
        <time>2022-02-28T12:59:30Z</time>
      </trkpt>
      <trkpt lat="46.37057" lon="5.64024">
        <ele>368</ele>
        <time>2022-02-28T12:59:31Z</time>
      </trkpt>
      <trkpt lat="46.37051" lon="5.64027">
        <ele>368</ele>
        <time>2022-02-28T12:59:32Z</time>
      </trkpt>
      <trkpt lat="46.37045" lon="5.64031">
        <ele>368</ele>
        <time>2022-02-28T12:59:33Z</time>
      </trkpt>
      <trkpt lat="46.37039" lon="5.64034">
        <ele>368</ele>
        <time>2022-02-28T12:59:34Z</time>
      </trkpt>
      <trkpt lat="46.37033" lon="5.64038">
        <ele>368</ele>
        <time>2022-02-28T12:59:35Z</time>
      </trkpt>
      <trkpt lat="46.37027" lon="5.64042">
        <ele>368</ele>
        <time>2022-02-28T12:59:36Z</time>
      </trkpt>
      <trkpt lat="46.37021" lon="5.64045">
        <ele>368</ele>
        <time>2022-02-28T12:59:37Z</time>
      </trkpt>
      <trkpt lat="46.37014" lon="5.64049">
        <ele>367.8</ele>
        <time>2022-02-28T12:59:38Z</time>
      </trkpt>
      <trkpt lat="46.37008" lon="5.64053">
        <ele>367.8</ele>
        <time>2022-02-28T12:59:39Z</time>
      </trkpt>
      <trkpt lat="46.37002" lon="5.64057">
        <ele>367.8</ele>
        <time>2022-02-28T12:59:40Z</time>
      </trkpt>
      <trkpt lat="46.36996" lon="5.64062">
        <ele>367.8</ele>
        <time>2022-02-28T12:59:41Z</time>
      </trkpt>
      <trkpt lat="46.3699" lon="5.64067">
        <ele>367.8</ele>
        <time>2022-02-28T12:59:42Z</time>
      </trkpt>
      <trkpt lat="46.36983" lon="5.64071">
        <ele>367.6</ele>
        <time>2022-02-28T12:59:43Z</time>
      </trkpt>
      <trkpt lat="46.36977" lon="5.64076">
        <ele>367.6</ele>
        <time>2022-02-28T12:59:44Z</time>
      </trkpt>
      <trkpt lat="46.36971" lon="5.64081">
        <ele>367.2</ele>
        <time>2022-02-28T12:59:45Z</time>
      </trkpt>
      <trkpt lat="46.36964" lon="5.64086">
        <ele>367.2</ele>
        <time>2022-02-28T12:59:46Z</time>
      </trkpt>
      <trkpt lat="46.36957" lon="5.64091">
        <ele>366.8</ele>
        <time>2022-02-28T12:59:47Z</time>
      </trkpt>
      <trkpt lat="46.3695" lon="5.64097">
        <ele>366.4</ele>
        <time>2022-02-28T12:59:48Z</time>
      </trkpt>
      <trkpt lat="46.36942" lon="5.64102">
        <ele>366.2</ele>
        <time>2022-02-28T12:59:49Z</time>
      </trkpt>
      <trkpt lat="46.36934" lon="5.64107">
        <ele>365.6</ele>
        <time>2022-02-28T12:59:50Z</time>
      </trkpt>
      <trkpt lat="46.36926" lon="5.64112">
        <ele>365</ele>
        <time>2022-02-28T12:59:51Z</time>
      </trkpt>
      <trkpt lat="46.36917" lon="5.64116">
        <ele>364.4</ele>
        <time>2022-02-28T12:59:52Z</time>
      </trkpt>
      <trkpt lat="46.36908" lon="5.6412">
        <ele>364</ele>
        <time>2022-02-28T12:59:53Z</time>
      </trkpt>
      <trkpt lat="46.36898" lon="5.64122">
        <ele>363.6</ele>
        <time>2022-02-28T12:59:54Z</time>
      </trkpt>
      <trkpt lat="46.36889" lon="5.64124">
        <ele>363.2</ele>
        <time>2022-02-28T12:59:55Z</time>
      </trkpt>
      <trkpt lat="46.36879" lon="5.64124">
        <ele>362.8</ele>
        <time>2022-02-28T12:59:56Z</time>
      </trkpt>
      <trkpt lat="46.3687" lon="5.64124">
        <ele>362.6</ele>
        <time>2022-02-28T12:59:57Z</time>
      </trkpt>
      <trkpt lat="46.36861" lon="5.64122">
        <ele>362.2</ele>
        <time>2022-02-28T12:59:58Z</time>
      </trkpt>
      <trkpt lat="46.36852" lon="5.64119">
        <ele>362</ele>
        <time>2022-02-28T12:59:59Z</time>
      </trkpt>
      <trkpt lat="46.36844" lon="5.64114">
        <ele>362</ele>
        <time>2022-02-28T13:00:00Z</time>
      </trkpt>
      <trkpt lat="46.36836" lon="5.64109">
        <ele>361.8</ele>
        <time>2022-02-28T13:00:01Z</time>
      </trkpt>
      <trkpt lat="46.36828" lon="5.64103">
        <ele>361.8</ele>
        <time>2022-02-28T13:00:02Z</time>
      </trkpt>
      <trkpt lat="46.3682" lon="5.64098">
        <ele>361.6</ele>
        <time>2022-02-28T13:00:03Z</time>
      </trkpt>
      <trkpt lat="46.36813" lon="5.64092">
        <ele>361.6</ele>
        <time>2022-02-28T13:00:04Z</time>
      </trkpt>
      <trkpt lat="46.36806" lon="5.64086">
        <ele>361.6</ele>
        <time>2022-02-28T13:00:05Z</time>
      </trkpt>
      <trkpt lat="46.36799" lon="5.6408">
        <ele>361.4</ele>
        <time>2022-02-28T13:00:06Z</time>
      </trkpt>
      <trkpt lat="46.36792" lon="5.64075">
        <ele>361.4</ele>
        <time>2022-02-28T13:00:07Z</time>
      </trkpt>
      <trkpt lat="46.36785" lon="5.6407">
        <ele>361.2</ele>
        <time>2022-02-28T13:00:08Z</time>
      </trkpt>
      <trkpt lat="46.36778" lon="5.64065">
        <ele>361.2</ele>
        <time>2022-02-28T13:00:09Z</time>
      </trkpt>
      <trkpt lat="46.36771" lon="5.64059">
        <ele>361</ele>
        <time>2022-02-28T13:00:10Z</time>
      </trkpt>
      <trkpt lat="46.36764" lon="5.64054">
        <ele>361</ele>
        <time>2022-02-28T13:00:11Z</time>
      </trkpt>
      <trkpt lat="46.36757" lon="5.64048">
        <ele>360.6</ele>
        <time>2022-02-28T13:00:12Z</time>
      </trkpt>
      <trkpt lat="46.3675" lon="5.64042">
        <ele>360.6</ele>
        <time>2022-02-28T13:00:13Z</time>
      </trkpt>
      <trkpt lat="46.36744" lon="5.64036">
        <ele>360.6</ele>
        <time>2022-02-28T13:00:14Z</time>
      </trkpt>
      <trkpt lat="46.36737" lon="5.64029">
        <ele>360.4</ele>
        <time>2022-02-28T13:00:15Z</time>
      </trkpt>
      <trkpt lat="46.36731" lon="5.64021">
        <ele>360.4</ele>
        <time>2022-02-28T13:00:16Z</time>
      </trkpt>
      <trkpt lat="46.36725" lon="5.64013">
        <ele>360.2</ele>
        <time>2022-02-28T13:00:17Z</time>
      </trkpt>
      <trkpt lat="46.3672" lon="5.64005">
        <ele>360.2</ele>
        <time>2022-02-28T13:00:18Z</time>
      </trkpt>
      <trkpt lat="46.36715" lon="5.63997">
        <ele>360</ele>
        <time>2022-02-28T13:00:19Z</time>
      </trkpt>
      <trkpt lat="46.36709" lon="5.63988">
        <ele>360</ele>
        <time>2022-02-28T13:00:20Z</time>
      </trkpt>
      <trkpt lat="46.36704" lon="5.63981">
        <ele>359.6</ele>
        <time>2022-02-28T13:00:21Z</time>
      </trkpt>
      <trkpt lat="46.36699" lon="5.63973">
        <ele>359.6</ele>
        <time>2022-02-28T13:00:22Z</time>
      </trkpt>
      <trkpt lat="46.36694" lon="5.63964">
        <ele>359.6</ele>
        <time>2022-02-28T13:00:23Z</time>
      </trkpt>
      <trkpt lat="46.36688" lon="5.63957">
        <ele>359.4</ele>
        <time>2022-02-28T13:00:24Z</time>
      </trkpt>
      <trkpt lat="46.36683" lon="5.63949">
        <ele>359.4</ele>
        <time>2022-02-28T13:00:25Z</time>
      </trkpt>
      <trkpt lat="46.36677" lon="5.63941">
        <ele>359.4</ele>
        <time>2022-02-28T13:00:26Z</time>
      </trkpt>
      <trkpt lat="46.36672" lon="5.63934">
        <ele>359.4</ele>
        <time>2022-02-28T13:00:27Z</time>
      </trkpt>
      <trkpt lat="46.36667" lon="5.63927">
        <ele>359.4</ele>
        <time>2022-02-28T13:00:28Z</time>
      </trkpt>
      <trkpt lat="46.36662" lon="5.6392">
        <ele>359.2</ele>
        <time>2022-02-28T13:00:29Z</time>
      </trkpt>
      <trkpt lat="46.36657" lon="5.63913">
        <ele>359.2</ele>
        <time>2022-02-28T13:00:30Z</time>
      </trkpt>
      <trkpt lat="46.36648" lon="5.63903">
        <ele>359</ele>
        <time>2022-02-28T13:00:31Z</time>
      </trkpt>
      <trkpt lat="46.36645" lon="5.639">
        <ele>359</ele>
        <time>2022-02-28T13:00:32Z</time>
      </trkpt>
      <trkpt lat="46.3664" lon="5.63894">
        <ele>359</ele>
        <time>2022-02-28T13:00:33Z</time>
      </trkpt>
      <trkpt lat="46.36634" lon="5.63887">
        <ele>359</ele>
        <time>2022-02-28T13:00:34Z</time>
      </trkpt>
      <trkpt lat="46.36628" lon="5.63882">
        <ele>358.6</ele>
        <time>2022-02-28T13:00:35Z</time>
      </trkpt>
      <trkpt lat="46.36621" lon="5.63876">
        <ele>358.6</ele>
        <time>2022-02-28T13:00:36Z</time>
      </trkpt>
      <trkpt lat="46.36615" lon="5.6387">
        <ele>358.6</ele>
        <time>2022-02-28T13:00:37Z</time>
      </trkpt>
      <trkpt lat="46.36609" lon="5.63864">
        <ele>358.4</ele>
        <time>2022-02-28T13:00:38Z</time>
      </trkpt>
      <trkpt lat="46.36602" lon="5.63858">
        <ele>358.4</ele>
        <time>2022-02-28T13:00:39Z</time>
      </trkpt>
      <trkpt lat="46.36596" lon="5.63853">
        <ele>358.4</ele>
        <time>2022-02-28T13:00:40Z</time>
      </trkpt>
      <trkpt lat="46.36583" lon="5.63842">
        <ele>358.2</ele>
        <time>2022-02-28T13:00:41Z</time>
      </trkpt>
      <trkpt lat="46.36577" lon="5.63836">
        <ele>358.2</ele>
        <time>2022-02-28T13:00:42Z</time>
      </trkpt>
      <trkpt lat="46.3657" lon="5.63831">
        <ele>358.2</ele>
        <time>2022-02-28T13:00:43Z</time>
      </trkpt>
      <trkpt lat="46.36564" lon="5.63826">
        <ele>358.2</ele>
        <time>2022-02-28T13:00:44Z</time>
      </trkpt>
      <trkpt lat="46.36558" lon="5.63823">
        <ele>358.2</ele>
        <time>2022-02-28T13:00:45Z</time>
      </trkpt>
      <trkpt lat="46.36552" lon="5.63819">
        <ele>358.2</ele>
        <time>2022-02-28T13:00:46Z</time>
      </trkpt>
      <trkpt lat="46.36546" lon="5.63816">
        <ele>358.2</ele>
        <time>2022-02-28T13:00:47Z</time>
      </trkpt>
      <trkpt lat="46.3654" lon="5.63813">
        <ele>358.2</ele>
        <time>2022-02-28T13:00:48Z</time>
      </trkpt>
      <trkpt lat="46.36534" lon="5.6381">
        <ele>358.2</ele>
        <time>2022-02-28T13:00:49Z</time>
      </trkpt>
      <trkpt lat="46.36529" lon="5.63808">
        <ele>358.2</ele>
        <time>2022-02-28T13:00:50Z</time>
      </trkpt>
      <trkpt lat="46.36529" lon="5.63808">
        <ele>358.2</ele>
        <time>2022-02-28T13:00:51Z</time>
      </trkpt>
      <trkpt lat="46.36523" lon="5.63806">
        <ele>358.2</ele>
        <time>2022-02-28T13:00:52Z</time>
      </trkpt>
      <trkpt lat="46.36517" lon="5.63804">
        <ele>358.2</ele>
        <time>2022-02-28T13:00:53Z</time>
      </trkpt>
      <trkpt lat="46.36511" lon="5.63804">
        <ele>358.6</ele>
        <time>2022-02-28T13:00:54Z</time>
      </trkpt>
      <trkpt lat="46.36505" lon="5.63804">
        <ele>358.6</ele>
        <time>2022-02-28T13:00:55Z</time>
      </trkpt>
      <trkpt lat="46.36499" lon="5.63804">
        <ele>358.6</ele>
        <time>2022-02-28T13:00:56Z</time>
      </trkpt>
      <trkpt lat="46.36493" lon="5.63804">
        <ele>358.6</ele>
        <time>2022-02-28T13:00:57Z</time>
      </trkpt>
      <trkpt lat="46.36487" lon="5.63804">
        <ele>358.6</ele>
        <time>2022-02-28T13:00:58Z</time>
      </trkpt>
      <trkpt lat="46.36482" lon="5.63803">
        <ele>358.6</ele>
        <time>2022-02-28T13:00:59Z</time>
      </trkpt>
      <trkpt lat="46.36476" lon="5.63803">
        <ele>358.6</ele>
        <time>2022-02-28T13:01:00Z</time>
      </trkpt>
      <trkpt lat="46.36467" lon="5.63801">
        <ele>358.6</ele>
        <time>2022-02-28T13:01:01Z</time>
      </trkpt>
      <trkpt lat="46.36464" lon="5.63801">
        <ele>358.6</ele>
        <time>2022-02-28T13:01:02Z</time>
      </trkpt>
      <trkpt lat="46.36459" lon="5.638">
        <ele>358.6</ele>
        <time>2022-02-28T13:01:03Z</time>
      </trkpt>
      <trkpt lat="46.36453" lon="5.63799">
        <ele>358.6</ele>
        <time>2022-02-28T13:01:04Z</time>
      </trkpt>
      <trkpt lat="46.36447" lon="5.63799">
        <ele>358.6</ele>
        <time>2022-02-28T13:01:05Z</time>
      </trkpt>
      <trkpt lat="46.36441" lon="5.63798">
        <ele>358.6</ele>
        <time>2022-02-28T13:01:06Z</time>
      </trkpt>
      <trkpt lat="46.36434" lon="5.63798">
        <ele>358.6</ele>
        <time>2022-02-28T13:01:07Z</time>
      </trkpt>
      <trkpt lat="46.36428" lon="5.63797">
        <ele>358.6</ele>
        <time>2022-02-28T13:01:08Z</time>
      </trkpt>
      <trkpt lat="46.36422" lon="5.63795">
        <ele>358.4</ele>
        <time>2022-02-28T13:01:09Z</time>
      </trkpt>
      <trkpt lat="46.36415" lon="5.63794">
        <ele>358.4</ele>
        <time>2022-02-28T13:01:10Z</time>
      </trkpt>
      <trkpt lat="46.36408" lon="5.63792">
        <ele>358.4</ele>
        <time>2022-02-28T13:01:11Z</time>
      </trkpt>
      <trkpt lat="46.36402" lon="5.63791">
        <ele>358</ele>
        <time>2022-02-28T13:01:12Z</time>
      </trkpt>
      <trkpt lat="46.36395" lon="5.6379">
        <ele>358</ele>
        <time>2022-02-28T13:01:13Z</time>
      </trkpt>
      <trkpt lat="46.36388" lon="5.63789">
        <ele>357.8</ele>
        <time>2022-02-28T13:01:14Z</time>
      </trkpt>
      <trkpt lat="46.36381" lon="5.63788">
        <ele>357.8</ele>
        <time>2022-02-28T13:01:15Z</time>
      </trkpt>
      <trkpt lat="46.36374" lon="5.63787">
        <ele>357.4</ele>
        <time>2022-02-28T13:01:16Z</time>
      </trkpt>
      <trkpt lat="46.36367" lon="5.63787">
        <ele>357.4</ele>
        <time>2022-02-28T13:01:17Z</time>
      </trkpt>
      <trkpt lat="46.3636" lon="5.63787">
        <ele>357.2</ele>
        <time>2022-02-28T13:01:18Z</time>
      </trkpt>
      <trkpt lat="46.36352" lon="5.63786">
        <ele>357.2</ele>
        <time>2022-02-28T13:01:19Z</time>
      </trkpt>
      <trkpt lat="46.36345" lon="5.63786">
        <ele>357.2</ele>
        <time>2022-02-28T13:01:20Z</time>
      </trkpt>
      <trkpt lat="46.36338" lon="5.63785">
        <ele>357.2</ele>
        <time>2022-02-28T13:01:21Z</time>
      </trkpt>
      <trkpt lat="46.36331" lon="5.63783">
        <ele>357.2</ele>
        <time>2022-02-28T13:01:22Z</time>
      </trkpt>
      <trkpt lat="46.36324" lon="5.63782">
        <ele>357.6</ele>
        <time>2022-02-28T13:01:23Z</time>
      </trkpt>
      <trkpt lat="46.36318" lon="5.6378">
        <ele>357.6</ele>
        <time>2022-02-28T13:01:24Z</time>
      </trkpt>
      <trkpt lat="46.36311" lon="5.63778">
        <ele>357.6</ele>
        <time>2022-02-28T13:01:25Z</time>
      </trkpt>
      <trkpt lat="46.36304" lon="5.63775">
        <ele>357.6</ele>
        <time>2022-02-28T13:01:26Z</time>
      </trkpt>
      <trkpt lat="46.36296" lon="5.63772">
        <ele>357</ele>
        <time>2022-02-28T13:01:27Z</time>
      </trkpt>
      <trkpt lat="46.36289" lon="5.63768">
        <ele>356.8</ele>
        <time>2022-02-28T13:01:28Z</time>
      </trkpt>
      <trkpt lat="46.36281" lon="5.63763">
        <ele>356.6</ele>
        <time>2022-02-28T13:01:29Z</time>
      </trkpt>
      <trkpt lat="46.36273" lon="5.63759">
        <ele>356.2</ele>
        <time>2022-02-28T13:01:30Z</time>
      </trkpt>
      <trkpt lat="46.36265" lon="5.63755">
        <ele>356</ele>
        <time>2022-02-28T13:01:31Z</time>
      </trkpt>
      <trkpt lat="46.36256" lon="5.63751">
        <ele>355.6</ele>
        <time>2022-02-28T13:01:32Z</time>
      </trkpt>
      <trkpt lat="46.36247" lon="5.63749">
        <ele>355.2</ele>
        <time>2022-02-28T13:01:33Z</time>
      </trkpt>
      <trkpt lat="46.36238" lon="5.63746">
        <ele>354.8</ele>
        <time>2022-02-28T13:01:34Z</time>
      </trkpt>
      <trkpt lat="46.36229" lon="5.63744">
        <ele>354.4</ele>
        <time>2022-02-28T13:01:35Z</time>
      </trkpt>
      <trkpt lat="46.36219" lon="5.63741">
        <ele>354</ele>
        <time>2022-02-28T13:01:36Z</time>
      </trkpt>
      <trkpt lat="46.3621" lon="5.63738">
        <ele>353.6</ele>
        <time>2022-02-28T13:01:37Z</time>
      </trkpt>
      <trkpt lat="46.362" lon="5.63735">
        <ele>353.4</ele>
        <time>2022-02-28T13:01:38Z</time>
      </trkpt>
      <trkpt lat="46.36191" lon="5.63732">
        <ele>353</ele>
        <time>2022-02-28T13:01:39Z</time>
      </trkpt>
      <trkpt lat="46.36181" lon="5.63729">
        <ele>352.6</ele>
        <time>2022-02-28T13:01:40Z</time>
      </trkpt>
      <trkpt lat="46.36172" lon="5.63725">
        <ele>352.2</ele>
        <time>2022-02-28T13:01:41Z</time>
      </trkpt>
      <trkpt lat="46.36162" lon="5.63722">
        <ele>351.6</ele>
        <time>2022-02-28T13:01:42Z</time>
      </trkpt>
      <trkpt lat="46.36153" lon="5.63719">
        <ele>351.2</ele>
        <time>2022-02-28T13:01:43Z</time>
      </trkpt>
      <trkpt lat="46.36143" lon="5.63716">
        <ele>351</ele>
        <time>2022-02-28T13:01:44Z</time>
      </trkpt>
      <trkpt lat="46.36134" lon="5.63713">
        <ele>351</ele>
        <time>2022-02-28T13:01:45Z</time>
      </trkpt>
      <trkpt lat="46.36125" lon="5.63711">
        <ele>350.8</ele>
        <time>2022-02-28T13:01:46Z</time>
      </trkpt>
      <trkpt lat="46.36116" lon="5.63709">
        <ele>350.8</ele>
        <time>2022-02-28T13:01:47Z</time>
      </trkpt>
      <trkpt lat="46.36107" lon="5.63708">
        <ele>350.8</ele>
        <time>2022-02-28T13:01:48Z</time>
      </trkpt>
      <trkpt lat="46.36098" lon="5.63707">
        <ele>350.4</ele>
        <time>2022-02-28T13:01:49Z</time>
      </trkpt>
      <trkpt lat="46.36089" lon="5.63708">
        <ele>350.4</ele>
        <time>2022-02-28T13:01:50Z</time>
      </trkpt>
      <trkpt lat="46.3608" lon="5.63708">
        <ele>350.4</ele>
        <time>2022-02-28T13:01:51Z</time>
      </trkpt>
      <trkpt lat="46.36071" lon="5.63709">
        <ele>350.2</ele>
        <time>2022-02-28T13:01:52Z</time>
      </trkpt>
      <trkpt lat="46.36063" lon="5.63709">
        <ele>350.2</ele>
        <time>2022-02-28T13:01:53Z</time>
      </trkpt>
      <trkpt lat="46.36054" lon="5.63709">
        <ele>349.8</ele>
        <time>2022-02-28T13:01:54Z</time>
      </trkpt>
      <trkpt lat="46.36045" lon="5.63706">
        <ele>349.8</ele>
        <time>2022-02-28T13:01:55Z</time>
      </trkpt>
      <trkpt lat="46.36037" lon="5.63702">
        <ele>349.6</ele>
        <time>2022-02-28T13:01:56Z</time>
      </trkpt>
      <trkpt lat="46.36028" lon="5.63697">
        <ele>349.6</ele>
        <time>2022-02-28T13:01:57Z</time>
      </trkpt>
      <trkpt lat="46.3602" lon="5.63693">
        <ele>349</ele>
        <time>2022-02-28T13:01:58Z</time>
      </trkpt>
      <trkpt lat="46.36011" lon="5.63689">
        <ele>348.6</ele>
        <time>2022-02-28T13:01:59Z</time>
      </trkpt>
      <trkpt lat="46.35992" lon="5.63684">
        <ele>347.4</ele>
        <time>2022-02-28T13:02:00Z</time>
      </trkpt>
      <trkpt lat="46.35982" lon="5.63685">
        <ele>346.6</ele>
        <time>2022-02-28T13:02:01Z</time>
      </trkpt>
      <trkpt lat="46.35971" lon="5.63686">
        <ele>345.8</ele>
        <time>2022-02-28T13:02:02Z</time>
      </trkpt>
      <trkpt lat="46.3596" lon="5.63688">
        <ele>345</ele>
        <time>2022-02-28T13:02:03Z</time>
      </trkpt>
      <trkpt lat="46.35948" lon="5.63689">
        <ele>344.2</ele>
        <time>2022-02-28T13:02:04Z</time>
      </trkpt>
      <trkpt lat="46.35937" lon="5.63689">
        <ele>343.4</ele>
        <time>2022-02-28T13:02:05Z</time>
      </trkpt>
      <trkpt lat="46.35925" lon="5.63689">
        <ele>342.6</ele>
        <time>2022-02-28T13:02:06Z</time>
      </trkpt>
      <trkpt lat="46.35914" lon="5.6369">
        <ele>341.8</ele>
        <time>2022-02-28T13:02:07Z</time>
      </trkpt>
      <trkpt lat="46.35902" lon="5.63691">
        <ele>340.8</ele>
        <time>2022-02-28T13:02:08Z</time>
      </trkpt>
      <trkpt lat="46.35889" lon="5.63692">
        <ele>339.8</ele>
        <time>2022-02-28T13:02:09Z</time>
      </trkpt>
      <trkpt lat="46.35875" lon="5.63692">
        <ele>339</ele>
        <time>2022-02-28T13:02:10Z</time>
      </trkpt>
      <trkpt lat="46.35862" lon="5.6369">
        <ele>338</ele>
        <time>2022-02-28T13:02:11Z</time>
      </trkpt>
      <trkpt lat="46.35849" lon="5.63686">
        <ele>337.2</ele>
        <time>2022-02-28T13:02:12Z</time>
      </trkpt>
      <trkpt lat="46.35836" lon="5.63682">
        <ele>336.2</ele>
        <time>2022-02-28T13:02:13Z</time>
      </trkpt>
      <trkpt lat="46.35824" lon="5.63679">
        <ele>335.4</ele>
        <time>2022-02-28T13:02:14Z</time>
      </trkpt>
      <trkpt lat="46.35811" lon="5.63675">
        <ele>334.6</ele>
        <time>2022-02-28T13:02:15Z</time>
      </trkpt>
      <trkpt lat="46.35798" lon="5.63671">
        <ele>333.6</ele>
        <time>2022-02-28T13:02:16Z</time>
      </trkpt>
      <trkpt lat="46.35784" lon="5.63667">
        <ele>332.6</ele>
        <time>2022-02-28T13:02:17Z</time>
      </trkpt>
      <trkpt lat="46.35772" lon="5.63662">
        <ele>331.6</ele>
        <time>2022-02-28T13:02:18Z</time>
      </trkpt>
      <trkpt lat="46.35759" lon="5.63655">
        <ele>330.6</ele>
        <time>2022-02-28T13:02:19Z</time>
      </trkpt>
      <trkpt lat="46.35747" lon="5.63646">
        <ele>329.6</ele>
        <time>2022-02-28T13:02:20Z</time>
      </trkpt>
      <trkpt lat="46.35735" lon="5.63634">
        <ele>328.6</ele>
        <time>2022-02-28T13:02:21Z</time>
      </trkpt>
      <trkpt lat="46.35726" lon="5.63621">
        <ele>327.8</ele>
        <time>2022-02-28T13:02:22Z</time>
      </trkpt>
      <trkpt lat="46.35717" lon="5.63607">
        <ele>327.2</ele>
        <time>2022-02-28T13:02:23Z</time>
      </trkpt>
      <trkpt lat="46.35708" lon="5.63596">
        <ele>326.4</ele>
        <time>2022-02-28T13:02:24Z</time>
      </trkpt>
      <trkpt lat="46.35698" lon="5.63587">
        <ele>325.8</ele>
        <time>2022-02-28T13:02:25Z</time>
      </trkpt>
      <trkpt lat="46.35687" lon="5.63581">
        <ele>325.2</ele>
        <time>2022-02-28T13:02:26Z</time>
      </trkpt>
      <trkpt lat="46.35675" lon="5.63577">
        <ele>324.6</ele>
        <time>2022-02-28T13:02:27Z</time>
      </trkpt>
      <trkpt lat="46.35663" lon="5.63573">
        <ele>323.8</ele>
        <time>2022-02-28T13:02:28Z</time>
      </trkpt>
      <trkpt lat="46.35651" lon="5.63571">
        <ele>323</ele>
        <time>2022-02-28T13:02:29Z</time>
      </trkpt>
      <trkpt lat="46.35639" lon="5.63568">
        <ele>322.4</ele>
        <time>2022-02-28T13:02:30Z</time>
      </trkpt>
      <trkpt lat="46.35627" lon="5.63565">
        <ele>321.8</ele>
        <time>2022-02-28T13:02:31Z</time>
      </trkpt>
      <trkpt lat="46.35615" lon="5.63561">
        <ele>321.2</ele>
        <time>2022-02-28T13:02:32Z</time>
      </trkpt>
      <trkpt lat="46.35605" lon="5.63554">
        <ele>320.8</ele>
        <time>2022-02-28T13:02:33Z</time>
      </trkpt>
      <trkpt lat="46.35594" lon="5.63546">
        <ele>320.6</ele>
        <time>2022-02-28T13:02:34Z</time>
      </trkpt>
      <trkpt lat="46.35584" lon="5.6354">
        <ele>320.2</ele>
        <time>2022-02-28T13:02:35Z</time>
      </trkpt>
      <trkpt lat="46.35574" lon="5.63536">
        <ele>320.2</ele>
        <time>2022-02-28T13:02:36Z</time>
      </trkpt>
      <trkpt lat="46.35563" lon="5.63533">
        <ele>320.2</ele>
        <time>2022-02-28T13:02:37Z</time>
      </trkpt>
      <trkpt lat="46.35553" lon="5.63533">
        <ele>320</ele>
        <time>2022-02-28T13:02:38Z</time>
      </trkpt>
      <trkpt lat="46.35543" lon="5.63533">
        <ele>319.4</ele>
        <time>2022-02-28T13:02:39Z</time>
      </trkpt>
      <trkpt lat="46.35532" lon="5.63533">
        <ele>319.4</ele>
        <time>2022-02-28T13:02:40Z</time>
      </trkpt>
      <trkpt lat="46.35522" lon="5.63533">
        <ele>319</ele>
        <time>2022-02-28T13:02:41Z</time>
      </trkpt>
      <trkpt lat="46.35512" lon="5.63534">
        <ele>319</ele>
        <time>2022-02-28T13:02:42Z</time>
      </trkpt>
      <trkpt lat="46.35503" lon="5.63533">
        <ele>318.6</ele>
        <time>2022-02-28T13:02:43Z</time>
      </trkpt>
      <trkpt lat="46.35493" lon="5.63533">
        <ele>318.6</ele>
        <time>2022-02-28T13:02:44Z</time>
      </trkpt>
      <trkpt lat="46.35484" lon="5.63532">
        <ele>318.6</ele>
        <time>2022-02-28T13:02:45Z</time>
      </trkpt>
      <trkpt lat="46.35475" lon="5.63531">
        <ele>318.4</ele>
        <time>2022-02-28T13:02:46Z</time>
      </trkpt>
      <trkpt lat="46.35465" lon="5.63531">
        <ele>318.4</ele>
        <time>2022-02-28T13:02:47Z</time>
      </trkpt>
      <trkpt lat="46.35456" lon="5.6353">
        <ele>318.4</ele>
        <time>2022-02-28T13:02:48Z</time>
      </trkpt>
      <trkpt lat="46.35447" lon="5.63529">
        <ele>318.4</ele>
        <time>2022-02-28T13:02:49Z</time>
      </trkpt>
      <trkpt lat="46.35438" lon="5.63528">
        <ele>318.2</ele>
        <time>2022-02-28T13:02:50Z</time>
      </trkpt>
      <trkpt lat="46.35429" lon="5.63528">
        <ele>318.2</ele>
        <time>2022-02-28T13:02:51Z</time>
      </trkpt>
      <trkpt lat="46.35421" lon="5.63527">
        <ele>318.2</ele>
        <time>2022-02-28T13:02:52Z</time>
      </trkpt>
      <trkpt lat="46.35412" lon="5.63526">
        <ele>318.2</ele>
        <time>2022-02-28T13:02:53Z</time>
      </trkpt>
      <trkpt lat="46.35404" lon="5.63524">
        <ele>318.2</ele>
        <time>2022-02-28T13:02:54Z</time>
      </trkpt>
      <trkpt lat="46.35396" lon="5.63522">
        <ele>318.2</ele>
        <time>2022-02-28T13:02:55Z</time>
      </trkpt>
      <trkpt lat="46.35388" lon="5.6352">
        <ele>318.2</ele>
        <time>2022-02-28T13:02:56Z</time>
      </trkpt>
      <trkpt lat="46.3538" lon="5.63517">
        <ele>318.2</ele>
        <time>2022-02-28T13:02:57Z</time>
      </trkpt>
      <trkpt lat="46.35372" lon="5.63514">
        <ele>318.2</ele>
        <time>2022-02-28T13:02:58Z</time>
      </trkpt>
      <trkpt lat="46.35364" lon="5.63511">
        <ele>318.2</ele>
        <time>2022-02-28T13:02:59Z</time>
      </trkpt>
      <trkpt lat="46.35357" lon="5.63507">
        <ele>318.2</ele>
        <time>2022-02-28T13:03:00Z</time>
      </trkpt>
      <trkpt lat="46.3535" lon="5.63503">
        <ele>318.2</ele>
        <time>2022-02-28T13:03:01Z</time>
      </trkpt>
      <trkpt lat="46.35343" lon="5.63498">
        <ele>318.2</ele>
        <time>2022-02-28T13:03:02Z</time>
      </trkpt>
      <trkpt lat="46.35336" lon="5.63492">
        <ele>318.2</ele>
        <time>2022-02-28T13:03:03Z</time>
      </trkpt>
      <trkpt lat="46.35329" lon="5.63487">
        <ele>318.2</ele>
        <time>2022-02-28T13:03:04Z</time>
      </trkpt>
      <trkpt lat="46.35323" lon="5.63481">
        <ele>318.2</ele>
        <time>2022-02-28T13:03:05Z</time>
      </trkpt>
      <trkpt lat="46.35316" lon="5.63474">
        <ele>318.2</ele>
        <time>2022-02-28T13:03:06Z</time>
      </trkpt>
      <trkpt lat="46.3531" lon="5.63468">
        <ele>318.2</ele>
        <time>2022-02-28T13:03:07Z</time>
      </trkpt>
      <trkpt lat="46.35304" lon="5.63462">
        <ele>318.2</ele>
        <time>2022-02-28T13:03:08Z</time>
      </trkpt>
      <trkpt lat="46.35298" lon="5.63456">
        <ele>318.2</ele>
        <time>2022-02-28T13:03:09Z</time>
      </trkpt>
      <trkpt lat="46.35291" lon="5.6345">
        <ele>318</ele>
        <time>2022-02-28T13:03:10Z</time>
      </trkpt>
      <trkpt lat="46.35285" lon="5.63444">
        <ele>318</ele>
        <time>2022-02-28T13:03:11Z</time>
      </trkpt>
      <trkpt lat="46.35279" lon="5.63438">
        <ele>318</ele>
        <time>2022-02-28T13:03:12Z</time>
      </trkpt>
      <trkpt lat="46.35273" lon="5.63432">
        <ele>318</ele>
        <time>2022-02-28T13:03:13Z</time>
      </trkpt>
      <trkpt lat="46.35267" lon="5.63426">
        <ele>317.8</ele>
        <time>2022-02-28T13:03:14Z</time>
      </trkpt>
      <trkpt lat="46.35261" lon="5.6342">
        <ele>317.8</ele>
        <time>2022-02-28T13:03:15Z</time>
      </trkpt>
      <trkpt lat="46.35255" lon="5.63413">
        <ele>317.4</ele>
        <time>2022-02-28T13:03:16Z</time>
      </trkpt>
      <trkpt lat="46.35248" lon="5.63406">
        <ele>317.4</ele>
        <time>2022-02-28T13:03:17Z</time>
      </trkpt>
      <trkpt lat="46.35242" lon="5.63398">
        <ele>317</ele>
        <time>2022-02-28T13:03:18Z</time>
      </trkpt>
      <trkpt lat="46.35235" lon="5.63391">
        <ele>316.8</ele>
        <time>2022-02-28T13:03:19Z</time>
      </trkpt>
      <trkpt lat="46.35228" lon="5.63383">
        <ele>316.4</ele>
        <time>2022-02-28T13:03:20Z</time>
      </trkpt>
      <trkpt lat="46.3522" lon="5.63375">
        <ele>316</ele>
        <time>2022-02-28T13:03:21Z</time>
      </trkpt>
      <trkpt lat="46.35213" lon="5.63367">
        <ele>315.8</ele>
        <time>2022-02-28T13:03:22Z</time>
      </trkpt>
      <trkpt lat="46.35206" lon="5.63359">
        <ele>315.4</ele>
        <time>2022-02-28T13:03:23Z</time>
      </trkpt>
      <trkpt lat="46.35199" lon="5.63351">
        <ele>315.2</ele>
        <time>2022-02-28T13:03:24Z</time>
      </trkpt>
      <trkpt lat="46.35192" lon="5.63344">
        <ele>315.2</ele>
        <time>2022-02-28T13:03:25Z</time>
      </trkpt>
      <trkpt lat="46.35185" lon="5.63338">
        <ele>314.8</ele>
        <time>2022-02-28T13:03:26Z</time>
      </trkpt>
      <trkpt lat="46.35178" lon="5.63335">
        <ele>314.8</ele>
        <time>2022-02-28T13:03:27Z</time>
      </trkpt>
      <trkpt lat="46.35171" lon="5.63332">
        <ele>315.2</ele>
        <time>2022-02-28T13:03:28Z</time>
      </trkpt>
      <trkpt lat="46.35165" lon="5.6333">
        <ele>315.2</ele>
        <time>2022-02-28T13:03:29Z</time>
      </trkpt>
      <trkpt lat="46.35159" lon="5.63329">
        <ele>315.6</ele>
        <time>2022-02-28T13:03:30Z</time>
      </trkpt>
      <trkpt lat="46.35153" lon="5.63328">
        <ele>316</ele>
        <time>2022-02-28T13:03:31Z</time>
      </trkpt>
      <trkpt lat="46.35148" lon="5.63327">
        <ele>316.2</ele>
        <time>2022-02-28T13:03:32Z</time>
      </trkpt>
      <trkpt lat="46.35142" lon="5.63325">
        <ele>316.6</ele>
        <time>2022-02-28T13:03:33Z</time>
      </trkpt>
      <trkpt lat="46.35138" lon="5.63323">
        <ele>316.8</ele>
        <time>2022-02-28T13:03:34Z</time>
      </trkpt>
      <trkpt lat="46.35133" lon="5.6332">
        <ele>317</ele>
        <time>2022-02-28T13:03:35Z</time>
      </trkpt>
      <trkpt lat="46.35129" lon="5.63316">
        <ele>317.4</ele>
        <time>2022-02-28T13:03:36Z</time>
      </trkpt>
      <trkpt lat="46.35125" lon="5.63312">
        <ele>317.6</ele>
        <time>2022-02-28T13:03:37Z</time>
      </trkpt>
      <trkpt lat="46.35121" lon="5.63307">
        <ele>317.8</ele>
        <time>2022-02-28T13:03:38Z</time>
      </trkpt>
      <trkpt lat="46.35117" lon="5.63303">
        <ele>318</ele>
        <time>2022-02-28T13:03:39Z</time>
      </trkpt>
      <trkpt lat="46.35113" lon="5.63298">
        <ele>318.4</ele>
        <time>2022-02-28T13:03:40Z</time>
      </trkpt>
      <trkpt lat="46.3511" lon="5.63293">
        <ele>318.6</ele>
        <time>2022-02-28T13:03:41Z</time>
      </trkpt>
      <trkpt lat="46.35106" lon="5.63287">
        <ele>318.8</ele>
        <time>2022-02-28T13:03:42Z</time>
      </trkpt>
      <trkpt lat="46.35102" lon="5.63282">
        <ele>318.8</ele>
        <time>2022-02-28T13:03:43Z</time>
      </trkpt>
      <trkpt lat="46.35099" lon="5.63277">
        <ele>319.2</ele>
        <time>2022-02-28T13:03:44Z</time>
      </trkpt>
      <trkpt lat="46.35099" lon="5.63277">
        <ele>319.2</ele>
        <time>2022-02-28T13:03:45Z</time>
      </trkpt>
      <trkpt lat="46.35095" lon="5.63271">
        <ele>319.4</ele>
        <time>2022-02-28T13:03:46Z</time>
      </trkpt>
      <trkpt lat="46.35091" lon="5.63266">
        <ele>319.4</ele>
        <time>2022-02-28T13:03:47Z</time>
      </trkpt>
      <trkpt lat="46.35087" lon="5.6326">
        <ele>319.4</ele>
        <time>2022-02-28T13:03:48Z</time>
      </trkpt>
      <trkpt lat="46.35083" lon="5.63253">
        <ele>319.4</ele>
        <time>2022-02-28T13:03:49Z</time>
      </trkpt>
      <trkpt lat="46.35079" lon="5.63247">
        <ele>319.4</ele>
        <time>2022-02-28T13:03:50Z</time>
      </trkpt>
      <trkpt lat="46.35075" lon="5.63241">
        <ele>319.4</ele>
        <time>2022-02-28T13:03:51Z</time>
      </trkpt>
      <trkpt lat="46.35071" lon="5.63236">
        <ele>319.6</ele>
        <time>2022-02-28T13:03:52Z</time>
      </trkpt>
      <trkpt lat="46.35067" lon="5.6323">
        <ele>319.6</ele>
        <time>2022-02-28T13:03:53Z</time>
      </trkpt>
      <trkpt lat="46.35063" lon="5.63225">
        <ele>319.8</ele>
        <time>2022-02-28T13:03:54Z</time>
      </trkpt>
      <trkpt lat="46.3506" lon="5.6322">
        <ele>319.8</ele>
        <time>2022-02-28T13:03:55Z</time>
      </trkpt>
      <trkpt lat="46.35056" lon="5.63215">
        <ele>320</ele>
        <time>2022-02-28T13:03:56Z</time>
      </trkpt>
      <trkpt lat="46.35052" lon="5.63211">
        <ele>320</ele>
        <time>2022-02-28T13:03:57Z</time>
      </trkpt>
      <trkpt lat="46.35048" lon="5.63207">
        <ele>320</ele>
        <time>2022-02-28T13:03:58Z</time>
      </trkpt>
      <trkpt lat="46.35043" lon="5.63203">
        <ele>320</ele>
        <time>2022-02-28T13:03:59Z</time>
      </trkpt>
      <trkpt lat="46.35039" lon="5.63199">
        <ele>320</ele>
        <time>2022-02-28T13:04:00Z</time>
      </trkpt>
      <trkpt lat="46.35034" lon="5.63194">
        <ele>320</ele>
        <time>2022-02-28T13:04:01Z</time>
      </trkpt>
      <trkpt lat="46.35029" lon="5.6319">
        <ele>320</ele>
        <time>2022-02-28T13:04:02Z</time>
      </trkpt>
      <trkpt lat="46.35023" lon="5.63186">
        <ele>320</ele>
        <time>2022-02-28T13:04:03Z</time>
      </trkpt>
      <trkpt lat="46.35018" lon="5.63182">
        <ele>320</ele>
        <time>2022-02-28T13:04:04Z</time>
      </trkpt>
      <trkpt lat="46.35013" lon="5.63178">
        <ele>320</ele>
        <time>2022-02-28T13:04:05Z</time>
      </trkpt>
      <trkpt lat="46.35008" lon="5.63175">
        <ele>319.8</ele>
        <time>2022-02-28T13:04:06Z</time>
      </trkpt>
      <trkpt lat="46.35002" lon="5.63171">
        <ele>319.8</ele>
        <time>2022-02-28T13:04:07Z</time>
      </trkpt>
      <trkpt lat="46.34997" lon="5.63167">
        <ele>319.8</ele>
        <time>2022-02-28T13:04:08Z</time>
      </trkpt>
      <trkpt lat="46.34992" lon="5.63163">
        <ele>319.6</ele>
        <time>2022-02-28T13:04:09Z</time>
      </trkpt>
      <trkpt lat="46.34986" lon="5.63159">
        <ele>319.6</ele>
        <time>2022-02-28T13:04:10Z</time>
      </trkpt>
      <trkpt lat="46.3498" lon="5.63157">
        <ele>319.2</ele>
        <time>2022-02-28T13:04:11Z</time>
      </trkpt>
      <trkpt lat="46.34974" lon="5.63156">
        <ele>319</ele>
        <time>2022-02-28T13:04:12Z</time>
      </trkpt>
      <trkpt lat="46.34967" lon="5.63157">
        <ele>318.6</ele>
        <time>2022-02-28T13:04:13Z</time>
      </trkpt>
      <trkpt lat="46.3496" lon="5.63158">
        <ele>318.4</ele>
        <time>2022-02-28T13:04:14Z</time>
      </trkpt>
      <trkpt lat="46.34952" lon="5.63162">
        <ele>318</ele>
        <time>2022-02-28T13:04:15Z</time>
      </trkpt>
      <trkpt lat="46.34945" lon="5.63168">
        <ele>317.4</ele>
        <time>2022-02-28T13:04:16Z</time>
      </trkpt>
      <trkpt lat="46.34938" lon="5.63175">
        <ele>317</ele>
        <time>2022-02-28T13:04:17Z</time>
      </trkpt>
      <trkpt lat="46.34932" lon="5.63183">
        <ele>316.4</ele>
        <time>2022-02-28T13:04:18Z</time>
      </trkpt>
      <trkpt lat="46.34926" lon="5.63193">
        <ele>316</ele>
        <time>2022-02-28T13:04:19Z</time>
      </trkpt>
      <trkpt lat="46.3492" lon="5.63203">
        <ele>315.6</ele>
        <time>2022-02-28T13:04:20Z</time>
      </trkpt>
      <trkpt lat="46.34914" lon="5.63212">
        <ele>315.4</ele>
        <time>2022-02-28T13:04:21Z</time>
      </trkpt>
      <trkpt lat="46.34909" lon="5.63221">
        <ele>315.4</ele>
        <time>2022-02-28T13:04:22Z</time>
      </trkpt>
      <trkpt lat="46.34903" lon="5.63229">
        <ele>315</ele>
        <time>2022-02-28T13:04:23Z</time>
      </trkpt>
      <trkpt lat="46.34898" lon="5.63237">
        <ele>315</ele>
        <time>2022-02-28T13:04:24Z</time>
      </trkpt>
      <trkpt lat="46.34892" lon="5.63245">
        <ele>315</ele>
        <time>2022-02-28T13:04:25Z</time>
      </trkpt>
      <trkpt lat="46.34887" lon="5.63252">
        <ele>315</ele>
        <time>2022-02-28T13:04:26Z</time>
      </trkpt>
      <trkpt lat="46.34882" lon="5.63259">
        <ele>315</ele>
        <time>2022-02-28T13:04:27Z</time>
      </trkpt>
      <trkpt lat="46.34877" lon="5.63266">
        <ele>315</ele>
        <time>2022-02-28T13:04:28Z</time>
      </trkpt>
      <trkpt lat="46.34873" lon="5.63273">
        <ele>315</ele>
        <time>2022-02-28T13:04:29Z</time>
      </trkpt>
      <trkpt lat="46.34868" lon="5.63279">
        <ele>315</ele>
        <time>2022-02-28T13:04:30Z</time>
      </trkpt>
      <trkpt lat="46.34863" lon="5.63285">
        <ele>315.2</ele>
        <time>2022-02-28T13:04:31Z</time>
      </trkpt>
      <trkpt lat="46.34858" lon="5.63291">
        <ele>315.6</ele>
        <time>2022-02-28T13:04:32Z</time>
      </trkpt>
      <trkpt lat="46.34854" lon="5.63296">
        <ele>315.8</ele>
        <time>2022-02-28T13:04:33Z</time>
      </trkpt>
      <trkpt lat="46.34848" lon="5.63299">
        <ele>316</ele>
        <time>2022-02-28T13:04:34Z</time>
      </trkpt>
      <trkpt lat="46.34843" lon="5.63301">
        <ele>316.2</ele>
        <time>2022-02-28T13:04:35Z</time>
      </trkpt>
      <trkpt lat="46.34838" lon="5.63302">
        <ele>316.2</ele>
        <time>2022-02-28T13:04:36Z</time>
      </trkpt>
      <trkpt lat="46.34833" lon="5.63302">
        <ele>316.6</ele>
        <time>2022-02-28T13:04:37Z</time>
      </trkpt>
      <trkpt lat="46.34827" lon="5.63302">
        <ele>316.8</ele>
        <time>2022-02-28T13:04:38Z</time>
      </trkpt>
      <trkpt lat="46.34822" lon="5.63302">
        <ele>317.2</ele>
        <time>2022-02-28T13:04:39Z</time>
      </trkpt>
      <trkpt lat="46.34816" lon="5.63302">
        <ele>317.4</ele>
        <time>2022-02-28T13:04:40Z</time>
      </trkpt>
      <trkpt lat="46.34811" lon="5.63301">
        <ele>317.6</ele>
        <time>2022-02-28T13:04:41Z</time>
      </trkpt>
      <trkpt lat="46.34805" lon="5.633">
        <ele>317.6</ele>
        <time>2022-02-28T13:04:42Z</time>
      </trkpt>
      <trkpt lat="46.348" lon="5.63298">
        <ele>318</ele>
        <time>2022-02-28T13:04:43Z</time>
      </trkpt>
      <trkpt lat="46.34795" lon="5.63297">
        <ele>318</ele>
        <time>2022-02-28T13:04:44Z</time>
      </trkpt>
      <trkpt lat="46.34791" lon="5.63296">
        <ele>318.4</ele>
        <time>2022-02-28T13:04:45Z</time>
      </trkpt>
      <trkpt lat="46.34786" lon="5.63295">
        <ele>318.4</ele>
        <time>2022-02-28T13:04:46Z</time>
      </trkpt>
      <trkpt lat="46.34781" lon="5.63294">
        <ele>318.4</ele>
        <time>2022-02-28T13:04:47Z</time>
      </trkpt>
      <trkpt lat="46.34776" lon="5.63293">
        <ele>318.4</ele>
        <time>2022-02-28T13:04:48Z</time>
      </trkpt>
      <trkpt lat="46.34771" lon="5.63292">
        <ele>318.4</ele>
        <time>2022-02-28T13:04:49Z</time>
      </trkpt>
      <trkpt lat="46.34765" lon="5.63291">
        <ele>318.6</ele>
        <time>2022-02-28T13:04:50Z</time>
      </trkpt>
      <trkpt lat="46.3476" lon="5.6329">
        <ele>318.6</ele>
        <time>2022-02-28T13:04:51Z</time>
      </trkpt>
      <trkpt lat="46.34755" lon="5.63289">
        <ele>318.6</ele>
        <time>2022-02-28T13:04:52Z</time>
      </trkpt>
      <trkpt lat="46.34749" lon="5.63288">
        <ele>318.6</ele>
        <time>2022-02-28T13:04:53Z</time>
      </trkpt>
      <trkpt lat="46.34744" lon="5.63287">
        <ele>318.6</ele>
        <time>2022-02-28T13:04:54Z</time>
      </trkpt>
      <trkpt lat="46.34738" lon="5.63286">
        <ele>319</ele>
        <time>2022-02-28T13:04:55Z</time>
      </trkpt>
      <trkpt lat="46.34732" lon="5.63285">
        <ele>319</ele>
        <time>2022-02-28T13:04:56Z</time>
      </trkpt>
      <trkpt lat="46.34726" lon="5.63284">
        <ele>319</ele>
        <time>2022-02-28T13:04:57Z</time>
      </trkpt>
      <trkpt lat="46.3472" lon="5.63283">
        <ele>319</ele>
        <time>2022-02-28T13:04:58Z</time>
      </trkpt>
      <trkpt lat="46.34714" lon="5.63282">
        <ele>319</ele>
        <time>2022-02-28T13:04:59Z</time>
      </trkpt>
      <trkpt lat="46.34708" lon="5.6328">
        <ele>319</ele>
        <time>2022-02-28T13:05:00Z</time>
      </trkpt>
      <trkpt lat="46.34703" lon="5.63279">
        <ele>319</ele>
        <time>2022-02-28T13:05:01Z</time>
      </trkpt>
      <trkpt lat="46.34697" lon="5.63278">
        <ele>319</ele>
        <time>2022-02-28T13:05:02Z</time>
      </trkpt>
      <trkpt lat="46.34691" lon="5.63276">
        <ele>319</ele>
        <time>2022-02-28T13:05:03Z</time>
      </trkpt>
      <trkpt lat="46.34684" lon="5.63275">
        <ele>319</ele>
        <time>2022-02-28T13:05:04Z</time>
      </trkpt>
      <trkpt lat="46.34678" lon="5.63274">
        <ele>319</ele>
        <time>2022-02-28T13:05:05Z</time>
      </trkpt>
      <trkpt lat="46.34672" lon="5.63273">
        <ele>319</ele>
        <time>2022-02-28T13:05:06Z</time>
      </trkpt>
      <trkpt lat="46.34666" lon="5.63272">
        <ele>319</ele>
        <time>2022-02-28T13:05:07Z</time>
      </trkpt>
      <trkpt lat="46.34654" lon="5.63271">
        <ele>319</ele>
        <time>2022-02-28T13:05:08Z</time>
      </trkpt>
      <trkpt lat="46.34647" lon="5.6327">
        <ele>319</ele>
        <time>2022-02-28T13:05:09Z</time>
      </trkpt>
      <trkpt lat="46.34641" lon="5.6327">
        <ele>319</ele>
        <time>2022-02-28T13:05:10Z</time>
      </trkpt>
      <trkpt lat="46.34634" lon="5.63269">
        <ele>319</ele>
        <time>2022-02-28T13:05:11Z</time>
      </trkpt>
      <trkpt lat="46.34628" lon="5.63269">
        <ele>319</ele>
        <time>2022-02-28T13:05:12Z</time>
      </trkpt>
      <trkpt lat="46.34622" lon="5.63269">
        <ele>319</ele>
        <time>2022-02-28T13:05:13Z</time>
      </trkpt>
      <trkpt lat="46.34615" lon="5.63269">
        <ele>318.8</ele>
        <time>2022-02-28T13:05:14Z</time>
      </trkpt>
      <trkpt lat="46.34609" lon="5.63269">
        <ele>318.8</ele>
        <time>2022-02-28T13:05:15Z</time>
      </trkpt>
      <trkpt lat="46.34603" lon="5.6327">
        <ele>318.8</ele>
        <time>2022-02-28T13:05:16Z</time>
      </trkpt>
      <trkpt lat="46.34596" lon="5.6327">
        <ele>318.8</ele>
        <time>2022-02-28T13:05:17Z</time>
      </trkpt>
      <trkpt lat="46.3459" lon="5.6327">
        <ele>318.8</ele>
        <time>2022-02-28T13:05:18Z</time>
      </trkpt>
      <trkpt lat="46.34584" lon="5.6327">
        <ele>318.8</ele>
        <time>2022-02-28T13:05:19Z</time>
      </trkpt>
      <trkpt lat="46.34577" lon="5.63271">
        <ele>318.8</ele>
        <time>2022-02-28T13:05:20Z</time>
      </trkpt>
      <trkpt lat="46.34571" lon="5.63271">
        <ele>318.8</ele>
        <time>2022-02-28T13:05:21Z</time>
      </trkpt>
      <trkpt lat="46.34565" lon="5.63271">
        <ele>318.8</ele>
        <time>2022-02-28T13:05:22Z</time>
      </trkpt>
      <trkpt lat="46.34558" lon="5.63271">
        <ele>318.8</ele>
        <time>2022-02-28T13:05:23Z</time>
      </trkpt>
      <trkpt lat="46.34552" lon="5.63272">
        <ele>318.8</ele>
        <time>2022-02-28T13:05:24Z</time>
      </trkpt>
      <trkpt lat="46.34545" lon="5.63273">
        <ele>318.8</ele>
        <time>2022-02-28T13:05:25Z</time>
      </trkpt>
      <trkpt lat="46.34539" lon="5.63273">
        <ele>318.8</ele>
        <time>2022-02-28T13:05:26Z</time>
      </trkpt>
      <trkpt lat="46.34532" lon="5.63274">
        <ele>318.8</ele>
        <time>2022-02-28T13:05:27Z</time>
      </trkpt>
      <trkpt lat="46.34526" lon="5.63275">
        <ele>318.8</ele>
        <time>2022-02-28T13:05:28Z</time>
      </trkpt>
      <trkpt lat="46.34519" lon="5.63275">
        <ele>318.8</ele>
        <time>2022-02-28T13:05:29Z</time>
      </trkpt>
      <trkpt lat="46.34513" lon="5.63276">
        <ele>318.8</ele>
        <time>2022-02-28T13:05:30Z</time>
      </trkpt>
      <trkpt lat="46.34506" lon="5.63277">
        <ele>318.8</ele>
        <time>2022-02-28T13:05:31Z</time>
      </trkpt>
      <trkpt lat="46.345" lon="5.63278">
        <ele>318.8</ele>
        <time>2022-02-28T13:05:32Z</time>
      </trkpt>
      <trkpt lat="46.34493" lon="5.63279">
        <ele>318.8</ele>
        <time>2022-02-28T13:05:33Z</time>
      </trkpt>
      <trkpt lat="46.34487" lon="5.63282">
        <ele>318.8</ele>
        <time>2022-02-28T13:05:34Z</time>
      </trkpt>
      <trkpt lat="46.3448" lon="5.63284">
        <ele>318.4</ele>
        <time>2022-02-28T13:05:35Z</time>
      </trkpt>
      <trkpt lat="46.34474" lon="5.63288">
        <ele>318.4</ele>
        <time>2022-02-28T13:05:36Z</time>
      </trkpt>
      <trkpt lat="46.34468" lon="5.63292">
        <ele>318.4</ele>
        <time>2022-02-28T13:05:37Z</time>
      </trkpt>
      <trkpt lat="46.34463" lon="5.63298">
        <ele>318.4</ele>
        <time>2022-02-28T13:05:38Z</time>
      </trkpt>
      <trkpt lat="46.34457" lon="5.63304">
        <ele>318.4</ele>
        <time>2022-02-28T13:05:39Z</time>
      </trkpt>
      <trkpt lat="46.34452" lon="5.6331">
        <ele>318.4</ele>
        <time>2022-02-28T13:05:40Z</time>
      </trkpt>
      <trkpt lat="46.34448" lon="5.63317">
        <ele>318.4</ele>
        <time>2022-02-28T13:05:41Z</time>
      </trkpt>
      <trkpt lat="46.34443" lon="5.63325">
        <ele>318.4</ele>
        <time>2022-02-28T13:05:42Z</time>
      </trkpt>
      <trkpt lat="46.34439" lon="5.63332">
        <ele>318.4</ele>
        <time>2022-02-28T13:05:43Z</time>
      </trkpt>
      <trkpt lat="46.34435" lon="5.63339">
        <ele>318.4</ele>
        <time>2022-02-28T13:05:44Z</time>
      </trkpt>
      <trkpt lat="46.3443" lon="5.63345">
        <ele>318.4</ele>
        <time>2022-02-28T13:05:45Z</time>
      </trkpt>
      <trkpt lat="46.34426" lon="5.63352">
        <ele>318.4</ele>
        <time>2022-02-28T13:05:46Z</time>
      </trkpt>
      <trkpt lat="46.34422" lon="5.63359">
        <ele>318.4</ele>
        <time>2022-02-28T13:05:47Z</time>
      </trkpt>
      <trkpt lat="46.34417" lon="5.63366">
        <ele>318.4</ele>
        <time>2022-02-28T13:05:48Z</time>
      </trkpt>
      <trkpt lat="46.34413" lon="5.63373">
        <ele>318.4</ele>
        <time>2022-02-28T13:05:49Z</time>
      </trkpt>
      <trkpt lat="46.34409" lon="5.63381">
        <ele>318.4</ele>
        <time>2022-02-28T13:05:50Z</time>
      </trkpt>
      <trkpt lat="46.34406" lon="5.63388">
        <ele>318.4</ele>
        <time>2022-02-28T13:05:51Z</time>
      </trkpt>
      <trkpt lat="46.34402" lon="5.63395">
        <ele>318.6</ele>
        <time>2022-02-28T13:05:52Z</time>
      </trkpt>
      <trkpt lat="46.34399" lon="5.63402">
        <ele>318.6</ele>
        <time>2022-02-28T13:05:53Z</time>
      </trkpt>
      <trkpt lat="46.34397" lon="5.6341">
        <ele>319</ele>
        <time>2022-02-28T13:05:54Z</time>
      </trkpt>
      <trkpt lat="46.34394" lon="5.63417">
        <ele>319</ele>
        <time>2022-02-28T13:05:55Z</time>
      </trkpt>
      <trkpt lat="46.34392" lon="5.63425">
        <ele>319.2</ele>
        <time>2022-02-28T13:05:56Z</time>
      </trkpt>
      <trkpt lat="46.3439" lon="5.63433">
        <ele>319.2</ele>
        <time>2022-02-28T13:05:57Z</time>
      </trkpt>
      <trkpt lat="46.34389" lon="5.63441">
        <ele>319.2</ele>
        <time>2022-02-28T13:05:58Z</time>
      </trkpt>
      <trkpt lat="46.34388" lon="5.63449">
        <ele>319.4</ele>
        <time>2022-02-28T13:05:59Z</time>
      </trkpt>
      <trkpt lat="46.34386" lon="5.63457">
        <ele>319.4</ele>
        <time>2022-02-28T13:06:00Z</time>
      </trkpt>
      <trkpt lat="46.34385" lon="5.63465">
        <ele>319.8</ele>
        <time>2022-02-28T13:06:01Z</time>
      </trkpt>
      <trkpt lat="46.34384" lon="5.63473">
        <ele>319.8</ele>
        <time>2022-02-28T13:06:02Z</time>
      </trkpt>
      <trkpt lat="46.34383" lon="5.6348">
        <ele>319.8</ele>
        <time>2022-02-28T13:06:03Z</time>
      </trkpt>
      <trkpt lat="46.34381" lon="5.63488">
        <ele>320</ele>
        <time>2022-02-28T13:06:04Z</time>
      </trkpt>
      <trkpt lat="46.3438" lon="5.63495">
        <ele>320</ele>
        <time>2022-02-28T13:06:05Z</time>
      </trkpt>
      <trkpt lat="46.34378" lon="5.63502">
        <ele>320.2</ele>
        <time>2022-02-28T13:06:06Z</time>
      </trkpt>
      <trkpt lat="46.34376" lon="5.63509">
        <ele>320.2</ele>
        <time>2022-02-28T13:06:07Z</time>
      </trkpt>
      <trkpt lat="46.34375" lon="5.63515">
        <ele>320.2</ele>
        <time>2022-02-28T13:06:08Z</time>
      </trkpt>
      <trkpt lat="46.34373" lon="5.63521">
        <ele>320.6</ele>
        <time>2022-02-28T13:06:09Z</time>
      </trkpt>
      <trkpt lat="46.34372" lon="5.63527">
        <ele>320.6</ele>
        <time>2022-02-28T13:06:10Z</time>
      </trkpt>
      <trkpt lat="46.34371" lon="5.63532">
        <ele>320.8</ele>
        <time>2022-02-28T13:06:11Z</time>
      </trkpt>
      <trkpt lat="46.34369" lon="5.63537">
        <ele>320.8</ele>
        <time>2022-02-28T13:06:12Z</time>
      </trkpt>
      <trkpt lat="46.34369" lon="5.63541">
        <ele>320.8</ele>
        <time>2022-02-28T13:06:13Z</time>
      </trkpt>
      <trkpt lat="46.34368" lon="5.63545">
        <ele>321.2</ele>
        <time>2022-02-28T13:06:14Z</time>
      </trkpt>
      <trkpt lat="46.34367" lon="5.63548">
        <ele>321.2</ele>
        <time>2022-02-28T13:06:15Z</time>
      </trkpt>
      <trkpt lat="46.34366" lon="5.63552">
        <ele>321.2</ele>
        <time>2022-02-28T13:06:16Z</time>
      </trkpt>
      <trkpt lat="46.34366" lon="5.63556">
        <ele>321.4</ele>
        <time>2022-02-28T13:06:17Z</time>
      </trkpt>
      <trkpt lat="46.34366" lon="5.63561">
        <ele>321.4</ele>
        <time>2022-02-28T13:06:18Z</time>
      </trkpt>
      <trkpt lat="46.34365" lon="5.63566">
        <ele>321.4</ele>
        <time>2022-02-28T13:06:19Z</time>
      </trkpt>
      <trkpt lat="46.34364" lon="5.6357">
        <ele>321.8</ele>
        <time>2022-02-28T13:06:20Z</time>
      </trkpt>
      <trkpt lat="46.34364" lon="5.63576">
        <ele>321.8</ele>
        <time>2022-02-28T13:06:21Z</time>
      </trkpt>
      <trkpt lat="46.34364" lon="5.63581">
        <ele>321.8</ele>
        <time>2022-02-28T13:06:22Z</time>
      </trkpt>
      <trkpt lat="46.34364" lon="5.63587">
        <ele>322</ele>
        <time>2022-02-28T13:06:23Z</time>
      </trkpt>
      <trkpt lat="46.34364" lon="5.63592">
        <ele>322</ele>
        <time>2022-02-28T13:06:24Z</time>
      </trkpt>
      <trkpt lat="46.34364" lon="5.63598">
        <ele>322.2</ele>
        <time>2022-02-28T13:06:25Z</time>
      </trkpt>
      <trkpt lat="46.34363" lon="5.63604">
        <ele>322.2</ele>
        <time>2022-02-28T13:06:26Z</time>
      </trkpt>
      <trkpt lat="46.34362" lon="5.63609">
        <ele>322.6</ele>
        <time>2022-02-28T13:06:27Z</time>
      </trkpt>
      <trkpt lat="46.34362" lon="5.63615">
        <ele>322.6</ele>
        <time>2022-02-28T13:06:28Z</time>
      </trkpt>
      <trkpt lat="46.34362" lon="5.6362">
        <ele>322.8</ele>
        <time>2022-02-28T13:06:29Z</time>
      </trkpt>
      <trkpt lat="46.34361" lon="5.63626">
        <ele>322.8</ele>
        <time>2022-02-28T13:06:30Z</time>
      </trkpt>
      <trkpt lat="46.3436" lon="5.63631">
        <ele>322.8</ele>
        <time>2022-02-28T13:06:31Z</time>
      </trkpt>
      <trkpt lat="46.34359" lon="5.63636">
        <ele>323</ele>
        <time>2022-02-28T13:06:32Z</time>
      </trkpt>
      <trkpt lat="46.34358" lon="5.63641">
        <ele>323</ele>
        <time>2022-02-28T13:06:33Z</time>
      </trkpt>
      <trkpt lat="46.34357" lon="5.63645">
        <ele>323</ele>
        <time>2022-02-28T13:06:34Z</time>
      </trkpt>
      <trkpt lat="46.34355" lon="5.6365">
        <ele>323.4</ele>
        <time>2022-02-28T13:06:35Z</time>
      </trkpt>
      <trkpt lat="46.34354" lon="5.63654">
        <ele>323.4</ele>
        <time>2022-02-28T13:06:36Z</time>
      </trkpt>
      <trkpt lat="46.34353" lon="5.63659">
        <ele>323.4</ele>
        <time>2022-02-28T13:06:37Z</time>
      </trkpt>
      <trkpt lat="46.34352" lon="5.63663">
        <ele>323.6</ele>
        <time>2022-02-28T13:06:38Z</time>
      </trkpt>
      <trkpt lat="46.34351" lon="5.63668">
        <ele>323.6</ele>
        <time>2022-02-28T13:06:39Z</time>
      </trkpt>
      <trkpt lat="46.3435" lon="5.63672">
        <ele>323.6</ele>
        <time>2022-02-28T13:06:40Z</time>
      </trkpt>
      <trkpt lat="46.34349" lon="5.63675">
        <ele>324</ele>
        <time>2022-02-28T13:06:41Z</time>
      </trkpt>
      <trkpt lat="46.34349" lon="5.63679">
        <ele>324</ele>
        <time>2022-02-28T13:06:42Z</time>
      </trkpt>
      <trkpt lat="46.34348" lon="5.63682">
        <ele>324</ele>
        <time>2022-02-28T13:06:43Z</time>
      </trkpt>
      <trkpt lat="46.34348" lon="5.63685">
        <ele>324.2</ele>
        <time>2022-02-28T13:06:44Z</time>
      </trkpt>
      <trkpt lat="46.34347" lon="5.63686">
        <ele>324.2</ele>
        <time>2022-02-28T13:06:45Z</time>
      </trkpt>
      <trkpt lat="46.34347" lon="5.63687">
        <ele>324.2</ele>
        <time>2022-02-28T13:06:46Z</time>
      </trkpt>
      <trkpt lat="46.34347" lon="5.63688">
        <ele>324.2</ele>
        <time>2022-02-28T13:06:47Z</time>
      </trkpt>
      <trkpt lat="46.34347" lon="5.63688">
        <ele>324.2</ele>
        <time>2022-02-28T13:06:48Z</time>
      </trkpt>
      <trkpt lat="46.34347" lon="5.63688">
        <ele>324.2</ele>
        <time>2022-02-28T13:06:49Z</time>
      </trkpt>
      <trkpt lat="46.34347" lon="5.63688">
        <ele>324.2</ele>
        <time>2022-02-28T13:06:50Z</time>
      </trkpt>
      <trkpt lat="46.34347" lon="5.63688">
        <ele>324.2</ele>
        <time>2022-02-28T13:06:51Z</time>
      </trkpt>
      <trkpt lat="46.34347" lon="5.63688">
        <ele>324.6</ele>
        <time>2022-02-28T13:06:52Z</time>
      </trkpt>
      <trkpt lat="46.34347" lon="5.63688">
        <ele>324.6</ele>
        <time>2022-02-28T13:06:53Z</time>
      </trkpt>
      <trkpt lat="46.34347" lon="5.63688">
        <ele>324.6</ele>
        <time>2022-02-28T13:06:54Z</time>
      </trkpt>
      <trkpt lat="46.34347" lon="5.63688">
        <ele>324.6</ele>
        <time>2022-02-28T13:06:55Z</time>
      </trkpt>
      <trkpt lat="46.34347" lon="5.63688">
        <ele>324.6</ele>
        <time>2022-02-28T13:07:39Z</time>
      </trkpt>
      <trkpt lat="46.34347" lon="5.63688">
        <ele>324.6</ele>
        <time>2022-02-28T13:07:40Z</time>
      </trkpt>
      <trkpt lat="46.34347" lon="5.63688">
        <ele>324.6</ele>
        <time>2022-02-28T13:07:42Z</time>
      </trkpt>
      <trkpt lat="46.34347" lon="5.6369">
        <ele>324.6</ele>
        <time>2022-02-28T13:07:43Z</time>
      </trkpt>
      <trkpt lat="46.34348" lon="5.63693">
        <ele>324.6</ele>
        <time>2022-02-28T13:07:44Z</time>
      </trkpt>
      <trkpt lat="46.34348" lon="5.63696">
        <ele>324.6</ele>
        <time>2022-02-28T13:07:45Z</time>
      </trkpt>
      <trkpt lat="46.34349" lon="5.63699">
        <ele>324.6</ele>
        <time>2022-02-28T13:07:46Z</time>
      </trkpt>
      <trkpt lat="46.34349" lon="5.63703">
        <ele>324.6</ele>
        <time>2022-02-28T13:07:47Z</time>
      </trkpt>
      <trkpt lat="46.34349" lon="5.63707">
        <ele>324.6</ele>
        <time>2022-02-28T13:07:48Z</time>
      </trkpt>
      <trkpt lat="46.3435" lon="5.63712">
        <ele>324.6</ele>
        <time>2022-02-28T13:07:49Z</time>
      </trkpt>
      <trkpt lat="46.3435" lon="5.63717">
        <ele>324.6</ele>
        <time>2022-02-28T13:07:50Z</time>
      </trkpt>
      <trkpt lat="46.3435" lon="5.63723">
        <ele>324.6</ele>
        <time>2022-02-28T13:07:51Z</time>
      </trkpt>
      <trkpt lat="46.34351" lon="5.63729">
        <ele>324.6</ele>
        <time>2022-02-28T13:07:52Z</time>
      </trkpt>
      <trkpt lat="46.34352" lon="5.63735">
        <ele>324.6</ele>
        <time>2022-02-28T13:07:53Z</time>
      </trkpt>
      <trkpt lat="46.34353" lon="5.63742">
        <ele>324.6</ele>
        <time>2022-02-28T13:07:54Z</time>
      </trkpt>
      <trkpt lat="46.34353" lon="5.6375">
        <ele>324.6</ele>
        <time>2022-02-28T13:07:55Z</time>
      </trkpt>
      <trkpt lat="46.34353" lon="5.63757">
        <ele>324.6</ele>
        <time>2022-02-28T13:07:56Z</time>
      </trkpt>
      <trkpt lat="46.34353" lon="5.63764">
        <ele>324.6</ele>
        <time>2022-02-28T13:07:57Z</time>
      </trkpt>
      <trkpt lat="46.34353" lon="5.63772">
        <ele>324.8</ele>
        <time>2022-02-28T13:07:58Z</time>
      </trkpt>
      <trkpt lat="46.34352" lon="5.63779">
        <ele>324.8</ele>
        <time>2022-02-28T13:07:59Z</time>
      </trkpt>
      <trkpt lat="46.34351" lon="5.63786">
        <ele>324.8</ele>
        <time>2022-02-28T13:08:00Z</time>
      </trkpt>
      <trkpt lat="46.34351" lon="5.63793">
        <ele>325</ele>
        <time>2022-02-28T13:08:01Z</time>
      </trkpt>
      <trkpt lat="46.3435" lon="5.638">
        <ele>325</ele>
        <time>2022-02-28T13:08:02Z</time>
      </trkpt>
      <trkpt lat="46.3435" lon="5.63807">
        <ele>325.4</ele>
        <time>2022-02-28T13:08:03Z</time>
      </trkpt>
      <trkpt lat="46.34351" lon="5.63814">
        <ele>325.4</ele>
        <time>2022-02-28T13:08:04Z</time>
      </trkpt>
      <trkpt lat="46.34351" lon="5.63822">
        <ele>325.4</ele>
        <time>2022-02-28T13:08:05Z</time>
      </trkpt>
      <trkpt lat="46.34352" lon="5.63829">
        <ele>325.6</ele>
        <time>2022-02-28T13:08:06Z</time>
      </trkpt>
      <trkpt lat="46.34353" lon="5.63836">
        <ele>325.6</ele>
        <time>2022-02-28T13:08:07Z</time>
      </trkpt>
      <trkpt lat="46.34354" lon="5.63843">
        <ele>325.6</ele>
        <time>2022-02-28T13:08:08Z</time>
      </trkpt>
      <trkpt lat="46.34356" lon="5.6385">
        <ele>325.8</ele>
        <time>2022-02-28T13:08:09Z</time>
      </trkpt>
      <trkpt lat="46.34358" lon="5.63857">
        <ele>325.8</ele>
        <time>2022-02-28T13:08:10Z</time>
      </trkpt>
      <trkpt lat="46.3436" lon="5.63863">
        <ele>325.8</ele>
        <time>2022-02-28T13:08:11Z</time>
      </trkpt>
      <trkpt lat="46.34362" lon="5.6387">
        <ele>325.8</ele>
        <time>2022-02-28T13:08:12Z</time>
      </trkpt>
      <trkpt lat="46.34363" lon="5.63877">
        <ele>325.8</ele>
        <time>2022-02-28T13:08:13Z</time>
      </trkpt>
      <trkpt lat="46.34365" lon="5.63883">
        <ele>326.2</ele>
        <time>2022-02-28T13:08:14Z</time>
      </trkpt>
      <trkpt lat="46.34367" lon="5.6389">
        <ele>326.2</ele>
        <time>2022-02-28T13:08:15Z</time>
      </trkpt>
      <trkpt lat="46.3437" lon="5.63896">
        <ele>326.2</ele>
        <time>2022-02-28T13:08:16Z</time>
      </trkpt>
      <trkpt lat="46.34372" lon="5.63902">
        <ele>326.2</ele>
        <time>2022-02-28T13:08:17Z</time>
      </trkpt>
      <trkpt lat="46.34374" lon="5.63909">
        <ele>326.2</ele>
        <time>2022-02-28T13:08:18Z</time>
      </trkpt>
      <trkpt lat="46.34376" lon="5.63915">
        <ele>326.2</ele>
        <time>2022-02-28T13:08:19Z</time>
      </trkpt>
      <trkpt lat="46.34379" lon="5.63921">
        <ele>326.2</ele>
        <time>2022-02-28T13:08:20Z</time>
      </trkpt>
      <trkpt lat="46.34381" lon="5.63927">
        <ele>326.4</ele>
        <time>2022-02-28T13:08:21Z</time>
      </trkpt>
      <trkpt lat="46.34384" lon="5.63933">
        <ele>326.4</ele>
        <time>2022-02-28T13:08:22Z</time>
      </trkpt>
      <trkpt lat="46.34387" lon="5.63939">
        <ele>326.6</ele>
        <time>2022-02-28T13:08:23Z</time>
      </trkpt>
      <trkpt lat="46.3439" lon="5.63944">
        <ele>326.6</ele>
        <time>2022-02-28T13:08:24Z</time>
      </trkpt>
      <trkpt lat="46.34393" lon="5.63949">
        <ele>326.8</ele>
        <time>2022-02-28T13:08:25Z</time>
      </trkpt>
      <trkpt lat="46.34397" lon="5.63954">
        <ele>326.8</ele>
        <time>2022-02-28T13:08:26Z</time>
      </trkpt>
      <trkpt lat="46.344" lon="5.63959">
        <ele>327.2</ele>
        <time>2022-02-28T13:08:27Z</time>
      </trkpt>
      <trkpt lat="46.34404" lon="5.63963">
        <ele>327.2</ele>
        <time>2022-02-28T13:08:28Z</time>
      </trkpt>
      <trkpt lat="46.34407" lon="5.63968">
        <ele>327.2</ele>
        <time>2022-02-28T13:08:29Z</time>
      </trkpt>
      <trkpt lat="46.3441" lon="5.63973">
        <ele>327.4</ele>
        <time>2022-02-28T13:08:30Z</time>
      </trkpt>
      <trkpt lat="46.34414" lon="5.63977">
        <ele>327.4</ele>
        <time>2022-02-28T13:08:31Z</time>
      </trkpt>
      <trkpt lat="46.34417" lon="5.63981">
        <ele>327.6</ele>
        <time>2022-02-28T13:08:32Z</time>
      </trkpt>
      <trkpt lat="46.3442" lon="5.63985">
        <ele>327.6</ele>
        <time>2022-02-28T13:08:33Z</time>
      </trkpt>
      <trkpt lat="46.34424" lon="5.63989">
        <ele>328</ele>
        <time>2022-02-28T13:08:34Z</time>
      </trkpt>
      <trkpt lat="46.34427" lon="5.63993">
        <ele>328</ele>
        <time>2022-02-28T13:08:35Z</time>
      </trkpt>
      <trkpt lat="46.3443" lon="5.63997">
        <ele>328.4</ele>
        <time>2022-02-28T13:08:36Z</time>
      </trkpt>
      <trkpt lat="46.34433" lon="5.64001">
        <ele>328.4</ele>
        <time>2022-02-28T13:08:37Z</time>
      </trkpt>
      <trkpt lat="46.34437" lon="5.64005">
        <ele>328.6</ele>
        <time>2022-02-28T13:08:38Z</time>
      </trkpt>
      <trkpt lat="46.3444" lon="5.6401">
        <ele>328.6</ele>
        <time>2022-02-28T13:08:39Z</time>
      </trkpt>
      <trkpt lat="46.34443" lon="5.64014">
        <ele>329</ele>
        <time>2022-02-28T13:08:40Z</time>
      </trkpt>
      <trkpt lat="46.34446" lon="5.64018">
        <ele>329</ele>
        <time>2022-02-28T13:08:41Z</time>
      </trkpt>
      <trkpt lat="46.34449" lon="5.64022">
        <ele>329.2</ele>
        <time>2022-02-28T13:08:42Z</time>
      </trkpt>
      <trkpt lat="46.34452" lon="5.64025">
        <ele>329.2</ele>
        <time>2022-02-28T13:08:43Z</time>
      </trkpt>
      <trkpt lat="46.34456" lon="5.64029">
        <ele>329.4</ele>
        <time>2022-02-28T13:08:44Z</time>
      </trkpt>
      <trkpt lat="46.34459" lon="5.64033">
        <ele>329.4</ele>
        <time>2022-02-28T13:08:45Z</time>
      </trkpt>
      <trkpt lat="46.34462" lon="5.64037">
        <ele>329.6</ele>
        <time>2022-02-28T13:08:46Z</time>
      </trkpt>
      <trkpt lat="46.34465" lon="5.6404">
        <ele>329.6</ele>
        <time>2022-02-28T13:08:47Z</time>
      </trkpt>
      <trkpt lat="46.34468" lon="5.64043">
        <ele>330</ele>
        <time>2022-02-28T13:08:48Z</time>
      </trkpt>
      <trkpt lat="46.34471" lon="5.64046">
        <ele>330</ele>
        <time>2022-02-28T13:08:49Z</time>
      </trkpt>
      <trkpt lat="46.34474" lon="5.64048">
        <ele>330.2</ele>
        <time>2022-02-28T13:08:50Z</time>
      </trkpt>
      <trkpt lat="46.34477" lon="5.64051">
        <ele>330.2</ele>
        <time>2022-02-28T13:08:51Z</time>
      </trkpt>
      <trkpt lat="46.3448" lon="5.64052">
        <ele>330.4</ele>
        <time>2022-02-28T13:08:52Z</time>
      </trkpt>
      <trkpt lat="46.34483" lon="5.64053">
        <ele>330.4</ele>
        <time>2022-02-28T13:08:53Z</time>
      </trkpt>
      <trkpt lat="46.34487" lon="5.64054">
        <ele>330.6</ele>
        <time>2022-02-28T13:08:54Z</time>
      </trkpt>
      <trkpt lat="46.3449" lon="5.64054">
        <ele>330.6</ele>
        <time>2022-02-28T13:08:55Z</time>
      </trkpt>
      <trkpt lat="46.34493" lon="5.64055">
        <ele>331</ele>
        <time>2022-02-28T13:08:56Z</time>
      </trkpt>
      <trkpt lat="46.34497" lon="5.64056">
        <ele>331</ele>
        <time>2022-02-28T13:08:57Z</time>
      </trkpt>
      <trkpt lat="46.345" lon="5.64056">
        <ele>331</ele>
        <time>2022-02-28T13:08:58Z</time>
      </trkpt>
      <trkpt lat="46.34503" lon="5.64056">
        <ele>331.2</ele>
        <time>2022-02-28T13:08:59Z</time>
      </trkpt>
      <trkpt lat="46.34506" lon="5.64056">
        <ele>331.2</ele>
        <time>2022-02-28T13:09:00Z</time>
      </trkpt>
      <trkpt lat="46.34509" lon="5.64056">
        <ele>331.4</ele>
        <time>2022-02-28T13:09:01Z</time>
      </trkpt>
      <trkpt lat="46.34512" lon="5.64055">
        <ele>331.4</ele>
        <time>2022-02-28T13:09:02Z</time>
      </trkpt>
      <trkpt lat="46.34516" lon="5.64055">
        <ele>331.4</ele>
        <time>2022-02-28T13:09:03Z</time>
      </trkpt>
      <trkpt lat="46.3452" lon="5.64055">
        <ele>331.4</ele>
        <time>2022-02-28T13:09:04Z</time>
      </trkpt>
      <trkpt lat="46.34524" lon="5.64054">
        <ele>331.4</ele>
        <time>2022-02-28T13:09:05Z</time>
      </trkpt>
      <trkpt lat="46.34528" lon="5.64054">
        <ele>331.4</ele>
        <time>2022-02-28T13:09:06Z</time>
      </trkpt>
      <trkpt lat="46.34533" lon="5.64053">
        <ele>331.4</ele>
        <time>2022-02-28T13:09:07Z</time>
      </trkpt>
      <trkpt lat="46.34538" lon="5.64053">
        <ele>331.4</ele>
        <time>2022-02-28T13:09:08Z</time>
      </trkpt>
      <trkpt lat="46.34543" lon="5.64052">
        <ele>331.4</ele>
        <time>2022-02-28T13:09:09Z</time>
      </trkpt>
      <trkpt lat="46.34548" lon="5.64052">
        <ele>331.4</ele>
        <time>2022-02-28T13:09:10Z</time>
      </trkpt>
      <trkpt lat="46.34554" lon="5.64052">
        <ele>331</ele>
        <time>2022-02-28T13:09:11Z</time>
      </trkpt>
      <trkpt lat="46.34559" lon="5.64052">
        <ele>331</ele>
        <time>2022-02-28T13:09:12Z</time>
      </trkpt>
      <trkpt lat="46.34565" lon="5.64052">
        <ele>330.8</ele>
        <time>2022-02-28T13:09:13Z</time>
      </trkpt>
      <trkpt lat="46.3457" lon="5.64052">
        <ele>330.8</ele>
        <time>2022-02-28T13:09:14Z</time>
      </trkpt>
      <trkpt lat="46.34575" lon="5.64052">
        <ele>330.8</ele>
        <time>2022-02-28T13:09:15Z</time>
      </trkpt>
      <trkpt lat="46.3458" lon="5.64053">
        <ele>330.6</ele>
        <time>2022-02-28T13:09:16Z</time>
      </trkpt>
      <trkpt lat="46.34584" lon="5.64053">
        <ele>330.6</ele>
        <time>2022-02-28T13:09:17Z</time>
      </trkpt>
      <trkpt lat="46.34589" lon="5.64053">
        <ele>330.6</ele>
        <time>2022-02-28T13:09:18Z</time>
      </trkpt>
      <trkpt lat="46.34593" lon="5.64052">
        <ele>330.4</ele>
        <time>2022-02-28T13:09:19Z</time>
      </trkpt>
      <trkpt lat="46.34598" lon="5.64051">
        <ele>330.4</ele>
        <time>2022-02-28T13:09:20Z</time>
      </trkpt>
      <trkpt lat="46.34604" lon="5.64049">
        <ele>330</ele>
        <time>2022-02-28T13:09:21Z</time>
      </trkpt>
      <trkpt lat="46.3461" lon="5.64048">
        <ele>330</ele>
        <time>2022-02-28T13:09:22Z</time>
      </trkpt>
      <trkpt lat="46.34616" lon="5.64047">
        <ele>329.8</ele>
        <time>2022-02-28T13:09:23Z</time>
      </trkpt>
      <trkpt lat="46.34621" lon="5.64048">
        <ele>329.8</ele>
        <time>2022-02-28T13:09:24Z</time>
      </trkpt>
      <trkpt lat="46.34627" lon="5.64049">
        <ele>329.8</ele>
        <time>2022-02-28T13:09:25Z</time>
      </trkpt>
      <trkpt lat="46.34632" lon="5.64052">
        <ele>329.8</ele>
        <time>2022-02-28T13:09:26Z</time>
      </trkpt>
      <trkpt lat="46.34637" lon="5.64056">
        <ele>329.8</ele>
        <time>2022-02-28T13:09:27Z</time>
      </trkpt>
      <trkpt lat="46.34641" lon="5.64061">
        <ele>329.8</ele>
        <time>2022-02-28T13:09:28Z</time>
      </trkpt>
      <trkpt lat="46.34644" lon="5.64067">
        <ele>329.8</ele>
        <time>2022-02-28T13:09:29Z</time>
      </trkpt>
      <trkpt lat="46.34645" lon="5.64074">
        <ele>329.8</ele>
        <time>2022-02-28T13:09:30Z</time>
      </trkpt>
      <trkpt lat="46.34645" lon="5.64082">
        <ele>329.8</ele>
        <time>2022-02-28T13:09:31Z</time>
      </trkpt>
      <trkpt lat="46.34644" lon="5.64089">
        <ele>329.6</ele>
        <time>2022-02-28T13:09:32Z</time>
      </trkpt>
      <trkpt lat="46.34643" lon="5.64097">
        <ele>329.6</ele>
        <time>2022-02-28T13:09:33Z</time>
      </trkpt>
      <trkpt lat="46.34642" lon="5.64104">
        <ele>329.6</ele>
        <time>2022-02-28T13:09:34Z</time>
      </trkpt>
      <trkpt lat="46.34642" lon="5.64112">
        <ele>329.6</ele>
        <time>2022-02-28T13:09:35Z</time>
      </trkpt>
      <trkpt lat="46.34641" lon="5.64119">
        <ele>329.6</ele>
        <time>2022-02-28T13:09:36Z</time>
      </trkpt>
      <trkpt lat="46.34641" lon="5.64127">
        <ele>329.6</ele>
        <time>2022-02-28T13:09:37Z</time>
      </trkpt>
      <trkpt lat="46.3464" lon="5.64134">
        <ele>329.6</ele>
        <time>2022-02-28T13:09:38Z</time>
      </trkpt>
      <trkpt lat="46.3464" lon="5.64142">
        <ele>329.6</ele>
        <time>2022-02-28T13:09:39Z</time>
      </trkpt>
      <trkpt lat="46.3464" lon="5.64149">
        <ele>329.8</ele>
        <time>2022-02-28T13:09:40Z</time>
      </trkpt>
      <trkpt lat="46.3464" lon="5.64156">
        <ele>329.8</ele>
        <time>2022-02-28T13:09:41Z</time>
      </trkpt>
      <trkpt lat="46.3464" lon="5.64163">
        <ele>329.8</ele>
        <time>2022-02-28T13:09:42Z</time>
      </trkpt>
      <trkpt lat="46.3464" lon="5.64171">
        <ele>330</ele>
        <time>2022-02-28T13:09:43Z</time>
      </trkpt>
      <trkpt lat="46.34639" lon="5.64179">
        <ele>330</ele>
        <time>2022-02-28T13:09:44Z</time>
      </trkpt>
      <trkpt lat="46.34639" lon="5.64187">
        <ele>330</ele>
        <time>2022-02-28T13:09:45Z</time>
      </trkpt>
      <trkpt lat="46.34638" lon="5.64194">
        <ele>330</ele>
        <time>2022-02-28T13:09:46Z</time>
      </trkpt>
      <trkpt lat="46.34636" lon="5.64202">
        <ele>330</ele>
        <time>2022-02-28T13:09:47Z</time>
      </trkpt>
      <trkpt lat="46.34635" lon="5.6421">
        <ele>330</ele>
        <time>2022-02-28T13:09:48Z</time>
      </trkpt>
      <trkpt lat="46.34632" lon="5.64218">
        <ele>330</ele>
        <time>2022-02-28T13:09:49Z</time>
      </trkpt>
      <trkpt lat="46.3463" lon="5.64226">
        <ele>330</ele>
        <time>2022-02-28T13:09:50Z</time>
      </trkpt>
      <trkpt lat="46.34627" lon="5.64234">
        <ele>330</ele>
        <time>2022-02-28T13:09:51Z</time>
      </trkpt>
      <trkpt lat="46.34625" lon="5.64242">
        <ele>330</ele>
        <time>2022-02-28T13:09:52Z</time>
      </trkpt>
      <trkpt lat="46.34622" lon="5.6425">
        <ele>330</ele>
        <time>2022-02-28T13:09:53Z</time>
      </trkpt>
      <trkpt lat="46.34619" lon="5.64259">
        <ele>330</ele>
        <time>2022-02-28T13:09:54Z</time>
      </trkpt>
      <trkpt lat="46.34617" lon="5.64268">
        <ele>329.8</ele>
        <time>2022-02-28T13:09:55Z</time>
      </trkpt>
      <trkpt lat="46.34614" lon="5.64276">
        <ele>329.8</ele>
        <time>2022-02-28T13:09:56Z</time>
      </trkpt>
      <trkpt lat="46.34612" lon="5.64285">
        <ele>329.8</ele>
        <time>2022-02-28T13:09:57Z</time>
      </trkpt>
      <trkpt lat="46.34609" lon="5.64294">
        <ele>329.6</ele>
        <time>2022-02-28T13:09:58Z</time>
      </trkpt>
      <trkpt lat="46.34606" lon="5.64303">
        <ele>329.6</ele>
        <time>2022-02-28T13:09:59Z</time>
      </trkpt>
      <trkpt lat="46.34603" lon="5.64312">
        <ele>329.4</ele>
        <time>2022-02-28T13:10:00Z</time>
      </trkpt>
      <trkpt lat="46.346" lon="5.64321">
        <ele>329.4</ele>
        <time>2022-02-28T13:10:01Z</time>
      </trkpt>
      <trkpt lat="46.34597" lon="5.6433">
        <ele>329.4</ele>
        <time>2022-02-28T13:10:02Z</time>
      </trkpt>
      <trkpt lat="46.34594" lon="5.64339">
        <ele>329</ele>
        <time>2022-02-28T13:10:03Z</time>
      </trkpt>
      <trkpt lat="46.3459" lon="5.64347">
        <ele>329</ele>
        <time>2022-02-28T13:10:04Z</time>
      </trkpt>
      <trkpt lat="46.34586" lon="5.64355">
        <ele>329</ele>
        <time>2022-02-28T13:10:05Z</time>
      </trkpt>
      <trkpt lat="46.34581" lon="5.64363">
        <ele>329</ele>
        <time>2022-02-28T13:10:06Z</time>
      </trkpt>
      <trkpt lat="46.34576" lon="5.6437">
        <ele>329</ele>
        <time>2022-02-28T13:10:07Z</time>
      </trkpt>
      <trkpt lat="46.34571" lon="5.64376">
        <ele>329</ele>
        <time>2022-02-28T13:10:08Z</time>
      </trkpt>
      <trkpt lat="46.34566" lon="5.64383">
        <ele>329</ele>
        <time>2022-02-28T13:10:09Z</time>
      </trkpt>
      <trkpt lat="46.34561" lon="5.6439">
        <ele>329</ele>
        <time>2022-02-28T13:10:10Z</time>
      </trkpt>
      <trkpt lat="46.34557" lon="5.64397">
        <ele>329</ele>
        <time>2022-02-28T13:10:11Z</time>
      </trkpt>
      <trkpt lat="46.34553" lon="5.64404">
        <ele>329</ele>
        <time>2022-02-28T13:10:12Z</time>
      </trkpt>
      <trkpt lat="46.34551" lon="5.64412">
        <ele>329</ele>
        <time>2022-02-28T13:10:13Z</time>
      </trkpt>
      <trkpt lat="46.34549" lon="5.64419">
        <ele>329.4</ele>
        <time>2022-02-28T13:10:14Z</time>
      </trkpt>
      <trkpt lat="46.34547" lon="5.64427">
        <ele>329.6</ele>
        <time>2022-02-28T13:10:15Z</time>
      </trkpt>
      <trkpt lat="46.34546" lon="5.64434">
        <ele>329.6</ele>
        <time>2022-02-28T13:10:16Z</time>
      </trkpt>
      <trkpt lat="46.34544" lon="5.64441">
        <ele>329.8</ele>
        <time>2022-02-28T13:10:17Z</time>
      </trkpt>
      <trkpt lat="46.34542" lon="5.64447">
        <ele>329.8</ele>
        <time>2022-02-28T13:10:18Z</time>
      </trkpt>
      <trkpt lat="46.3454" lon="5.64453">
        <ele>329.8</ele>
        <time>2022-02-28T13:10:19Z</time>
      </trkpt>
      <trkpt lat="46.34539" lon="5.64459">
        <ele>330</ele>
        <time>2022-02-28T13:10:20Z</time>
      </trkpt>
      <trkpt lat="46.34538" lon="5.64465">
        <ele>330</ele>
        <time>2022-02-28T13:10:21Z</time>
      </trkpt>
      <trkpt lat="46.34538" lon="5.64472">
        <ele>330</ele>
        <time>2022-02-28T13:10:22Z</time>
      </trkpt>
      <trkpt lat="46.34538" lon="5.64478">
        <ele>330</ele>
        <time>2022-02-28T13:10:23Z</time>
      </trkpt>
      <trkpt lat="46.34539" lon="5.64485">
        <ele>330</ele>
        <time>2022-02-28T13:10:24Z</time>
      </trkpt>
      <trkpt lat="46.34539" lon="5.64491">
        <ele>330</ele>
        <time>2022-02-28T13:10:25Z</time>
      </trkpt>
      <trkpt lat="46.34539" lon="5.64497">
        <ele>330</ele>
        <time>2022-02-28T13:10:26Z</time>
      </trkpt>
      <trkpt lat="46.34539" lon="5.64502">
        <ele>330.2</ele>
        <time>2022-02-28T13:10:27Z</time>
      </trkpt>
      <trkpt lat="46.3454" lon="5.64507">
        <ele>330.6</ele>
        <time>2022-02-28T13:10:28Z</time>
      </trkpt>
      <trkpt lat="46.3454" lon="5.64511">
        <ele>331</ele>
        <time>2022-02-28T13:10:29Z</time>
      </trkpt>
      <trkpt lat="46.34541" lon="5.64515">
        <ele>331.2</ele>
        <time>2022-02-28T13:10:30Z</time>
      </trkpt>
      <trkpt lat="46.34542" lon="5.64519">
        <ele>331.6</ele>
        <time>2022-02-28T13:10:31Z</time>
      </trkpt>
      <trkpt lat="46.34543" lon="5.64523">
        <ele>331.8</ele>
        <time>2022-02-28T13:10:32Z</time>
      </trkpt>
      <trkpt lat="46.34544" lon="5.64527">
        <ele>332</ele>
        <time>2022-02-28T13:10:33Z</time>
      </trkpt>
      <trkpt lat="46.34546" lon="5.6453">
        <ele>332.4</ele>
        <time>2022-02-28T13:10:34Z</time>
      </trkpt>
      <trkpt lat="46.34548" lon="5.64534">
        <ele>332.6</ele>
        <time>2022-02-28T13:10:35Z</time>
      </trkpt>
      <trkpt lat="46.34549" lon="5.64537">
        <ele>333</ele>
        <time>2022-02-28T13:10:36Z</time>
      </trkpt>
      <trkpt lat="46.34551" lon="5.64541">
        <ele>333.2</ele>
        <time>2022-02-28T13:10:37Z</time>
      </trkpt>
      <trkpt lat="46.34551" lon="5.64541">
        <ele>333.6</ele>
        <time>2022-02-28T13:10:38Z</time>
      </trkpt>
      <trkpt lat="46.34552" lon="5.64545">
        <ele>334</ele>
        <time>2022-02-28T13:10:39Z</time>
      </trkpt>
      <trkpt lat="46.34553" lon="5.64549">
        <ele>334.2</ele>
        <time>2022-02-28T13:10:40Z</time>
      </trkpt>
      <trkpt lat="46.34553" lon="5.64553">
        <ele>334.4</ele>
        <time>2022-02-28T13:10:41Z</time>
      </trkpt>
      <trkpt lat="46.34554" lon="5.64557">
        <ele>334.6</ele>
        <time>2022-02-28T13:10:42Z</time>
      </trkpt>
      <trkpt lat="46.34554" lon="5.64561">
        <ele>335</ele>
        <time>2022-02-28T13:10:43Z</time>
      </trkpt>
      <trkpt lat="46.34553" lon="5.64566">
        <ele>335.2</ele>
        <time>2022-02-28T13:10:44Z</time>
      </trkpt>
      <trkpt lat="46.34553" lon="5.6457">
        <ele>335.4</ele>
        <time>2022-02-28T13:10:45Z</time>
      </trkpt>
      <trkpt lat="46.34552" lon="5.64573">
        <ele>335.4</ele>
        <time>2022-02-28T13:10:46Z</time>
      </trkpt>
      <trkpt lat="46.34551" lon="5.64577">
        <ele>335.8</ele>
        <time>2022-02-28T13:10:47Z</time>
      </trkpt>
      <trkpt lat="46.3455" lon="5.64581">
        <ele>336</ele>
        <time>2022-02-28T13:10:48Z</time>
      </trkpt>
      <trkpt lat="46.34548" lon="5.64585">
        <ele>336</ele>
        <time>2022-02-28T13:10:49Z</time>
      </trkpt>
      <trkpt lat="46.34546" lon="5.64588">
        <ele>336.4</ele>
        <time>2022-02-28T13:10:50Z</time>
      </trkpt>
      <trkpt lat="46.34544" lon="5.64592">
        <ele>336.4</ele>
        <time>2022-02-28T13:10:51Z</time>
      </trkpt>
      <trkpt lat="46.34541" lon="5.64595">
        <ele>336.6</ele>
        <time>2022-02-28T13:10:52Z</time>
      </trkpt>
      <trkpt lat="46.34539" lon="5.64599">
        <ele>336.6</ele>
        <time>2022-02-28T13:10:53Z</time>
      </trkpt>
      <trkpt lat="46.34538" lon="5.64602">
        <ele>336.6</ele>
        <time>2022-02-28T13:10:54Z</time>
      </trkpt>
      <trkpt lat="46.34536" lon="5.64607">
        <ele>336.8</ele>
        <time>2022-02-28T13:10:55Z</time>
      </trkpt>
      <trkpt lat="46.34535" lon="5.64611">
        <ele>336.8</ele>
        <time>2022-02-28T13:10:56Z</time>
      </trkpt>
      <trkpt lat="46.34533" lon="5.64614">
        <ele>336.8</ele>
        <time>2022-02-28T13:10:57Z</time>
      </trkpt>
      <trkpt lat="46.34531" lon="5.64618">
        <ele>337</ele>
        <time>2022-02-28T13:10:58Z</time>
      </trkpt>
      <trkpt lat="46.34529" lon="5.64622">
        <ele>337</ele>
        <time>2022-02-28T13:10:59Z</time>
      </trkpt>
      <trkpt lat="46.34527" lon="5.64626">
        <ele>337.4</ele>
        <time>2022-02-28T13:11:00Z</time>
      </trkpt>
      <trkpt lat="46.34526" lon="5.6463">
        <ele>337.4</ele>
        <time>2022-02-28T13:11:01Z</time>
      </trkpt>
      <trkpt lat="46.34524" lon="5.64634">
        <ele>337.8</ele>
        <time>2022-02-28T13:11:02Z</time>
      </trkpt>
      <trkpt lat="46.34522" lon="5.64638">
        <ele>337.8</ele>
        <time>2022-02-28T13:11:03Z</time>
      </trkpt>
      <trkpt lat="46.34521" lon="5.64642">
        <ele>338</ele>
        <time>2022-02-28T13:11:04Z</time>
      </trkpt>
      <trkpt lat="46.34519" lon="5.64646">
        <ele>338</ele>
        <time>2022-02-28T13:11:05Z</time>
      </trkpt>
      <trkpt lat="46.34518" lon="5.6465">
        <ele>338.2</ele>
        <time>2022-02-28T13:11:06Z</time>
      </trkpt>
      <trkpt lat="46.34516" lon="5.64654">
        <ele>338.2</ele>
        <time>2022-02-28T13:11:07Z</time>
      </trkpt>
      <trkpt lat="46.34515" lon="5.64658">
        <ele>338.6</ele>
        <time>2022-02-28T13:11:08Z</time>
      </trkpt>
      <trkpt lat="46.34513" lon="5.64662">
        <ele>338.8</ele>
        <time>2022-02-28T13:11:09Z</time>
      </trkpt>
      <trkpt lat="46.34512" lon="5.64667">
        <ele>339</ele>
        <time>2022-02-28T13:11:10Z</time>
      </trkpt>
      <trkpt lat="46.34511" lon="5.64671">
        <ele>339</ele>
        <time>2022-02-28T13:11:11Z</time>
      </trkpt>
      <trkpt lat="46.3451" lon="5.64675">
        <ele>339.4</ele>
        <time>2022-02-28T13:11:12Z</time>
      </trkpt>
      <trkpt lat="46.34508" lon="5.64679">
        <ele>339.4</ele>
        <time>2022-02-28T13:11:13Z</time>
      </trkpt>
      <trkpt lat="46.34507" lon="5.64682">
        <ele>339.8</ele>
        <time>2022-02-28T13:11:14Z</time>
      </trkpt>
      <trkpt lat="46.34505" lon="5.64686">
        <ele>339.8</ele>
        <time>2022-02-28T13:11:15Z</time>
      </trkpt>
      <trkpt lat="46.34504" lon="5.64689">
        <ele>340.2</ele>
        <time>2022-02-28T13:11:16Z</time>
      </trkpt>
      <trkpt lat="46.34503" lon="5.64692">
        <ele>340.4</ele>
        <time>2022-02-28T13:11:17Z</time>
      </trkpt>
      <trkpt lat="46.34502" lon="5.64695">
        <ele>340.4</ele>
        <time>2022-02-28T13:11:18Z</time>
      </trkpt>
      <trkpt lat="46.34501" lon="5.64698">
        <ele>340.8</ele>
        <time>2022-02-28T13:11:19Z</time>
      </trkpt>
      <trkpt lat="46.34499" lon="5.64701">
        <ele>341</ele>
        <time>2022-02-28T13:11:20Z</time>
      </trkpt>
      <trkpt lat="46.34498" lon="5.64704">
        <ele>341</ele>
        <time>2022-02-28T13:11:21Z</time>
      </trkpt>
      <trkpt lat="46.34497" lon="5.64707">
        <ele>341.4</ele>
        <time>2022-02-28T13:11:22Z</time>
      </trkpt>
      <trkpt lat="46.34495" lon="5.6471">
        <ele>341.6</ele>
        <time>2022-02-28T13:11:23Z</time>
      </trkpt>
      <trkpt lat="46.34495" lon="5.64712">
        <ele>342</ele>
        <time>2022-02-28T13:11:24Z</time>
      </trkpt>
      <trkpt lat="46.34494" lon="5.64715">
        <ele>342.2</ele>
        <time>2022-02-28T13:11:25Z</time>
      </trkpt>
      <trkpt lat="46.34493" lon="5.64718">
        <ele>342.4</ele>
        <time>2022-02-28T13:11:26Z</time>
      </trkpt>
      <trkpt lat="46.34492" lon="5.6472">
        <ele>342.6</ele>
        <time>2022-02-28T13:11:27Z</time>
      </trkpt>
      <trkpt lat="46.3449" lon="5.64723">
        <ele>343</ele>
        <time>2022-02-28T13:11:28Z</time>
      </trkpt>
      <trkpt lat="46.3449" lon="5.64725">
        <ele>343.2</ele>
        <time>2022-02-28T13:11:29Z</time>
      </trkpt>
      <trkpt lat="46.34488" lon="5.64728">
        <ele>343.4</ele>
        <time>2022-02-28T13:11:30Z</time>
      </trkpt>
      <trkpt lat="46.34487" lon="5.64731">
        <ele>343.8</ele>
        <time>2022-02-28T13:11:31Z</time>
      </trkpt>
      <trkpt lat="46.34487" lon="5.64734">
        <ele>344</ele>
        <time>2022-02-28T13:11:32Z</time>
      </trkpt>
      <trkpt lat="46.34486" lon="5.64737">
        <ele>344.4</ele>
        <time>2022-02-28T13:11:33Z</time>
      </trkpt>
      <trkpt lat="46.34485" lon="5.64739">
        <ele>344.6</ele>
        <time>2022-02-28T13:11:34Z</time>
      </trkpt>
      <trkpt lat="46.34484" lon="5.64741">
        <ele>344.8</ele>
        <time>2022-02-28T13:11:35Z</time>
      </trkpt>
      <trkpt lat="46.34483" lon="5.64744">
        <ele>345</ele>
        <time>2022-02-28T13:11:36Z</time>
      </trkpt>
      <trkpt lat="46.34482" lon="5.64746">
        <ele>345.4</ele>
        <time>2022-02-28T13:11:37Z</time>
      </trkpt>
      <trkpt lat="46.3448" lon="5.64749">
        <ele>345.8</ele>
        <time>2022-02-28T13:11:38Z</time>
      </trkpt>
      <trkpt lat="46.34479" lon="5.64751">
        <ele>346</ele>
        <time>2022-02-28T13:11:39Z</time>
      </trkpt>
      <trkpt lat="46.34478" lon="5.64754">
        <ele>346.4</ele>
        <time>2022-02-28T13:11:40Z</time>
      </trkpt>
      <trkpt lat="46.34477" lon="5.64757">
        <ele>346.6</ele>
        <time>2022-02-28T13:11:41Z</time>
      </trkpt>
      <trkpt lat="46.34477" lon="5.64759">
        <ele>347</ele>
        <time>2022-02-28T13:11:42Z</time>
      </trkpt>
      <trkpt lat="46.34475" lon="5.64762">
        <ele>347.4</ele>
        <time>2022-02-28T13:11:43Z</time>
      </trkpt>
      <trkpt lat="46.34474" lon="5.64764">
        <ele>347.6</ele>
        <time>2022-02-28T13:11:44Z</time>
      </trkpt>
      <trkpt lat="46.34473" lon="5.64767">
        <ele>347.8</ele>
        <time>2022-02-28T13:11:45Z</time>
      </trkpt>
      <trkpt lat="46.34472" lon="5.64769">
        <ele>348.2</ele>
        <time>2022-02-28T13:11:46Z</time>
      </trkpt>
      <trkpt lat="46.34471" lon="5.6477">
        <ele>348.4</ele>
        <time>2022-02-28T13:11:47Z</time>
      </trkpt>
      <trkpt lat="46.34469" lon="5.64772">
        <ele>348.8</ele>
        <time>2022-02-28T13:11:48Z</time>
      </trkpt>
      <trkpt lat="46.34468" lon="5.64774">
        <ele>349</ele>
        <time>2022-02-28T13:11:49Z</time>
      </trkpt>
      <trkpt lat="46.34467" lon="5.64776">
        <ele>349.4</ele>
        <time>2022-02-28T13:11:50Z</time>
      </trkpt>
      <trkpt lat="46.34466" lon="5.64778">
        <ele>349.6</ele>
        <time>2022-02-28T13:11:51Z</time>
      </trkpt>
      <trkpt lat="46.34465" lon="5.64781">
        <ele>350</ele>
        <time>2022-02-28T13:11:52Z</time>
      </trkpt>
      <trkpt lat="46.34463" lon="5.64783">
        <ele>350.2</ele>
        <time>2022-02-28T13:11:53Z</time>
      </trkpt>
      <trkpt lat="46.34462" lon="5.64785">
        <ele>350.4</ele>
        <time>2022-02-28T13:11:54Z</time>
      </trkpt>
      <trkpt lat="46.34461" lon="5.64787">
        <ele>350.6</ele>
        <time>2022-02-28T13:11:55Z</time>
      </trkpt>
      <trkpt lat="46.3446" lon="5.64789">
        <ele>351</ele>
        <time>2022-02-28T13:11:56Z</time>
      </trkpt>
      <trkpt lat="46.34458" lon="5.64794">
        <ele>351.2</ele>
        <time>2022-02-28T13:11:57Z</time>
      </trkpt>
      <trkpt lat="46.34457" lon="5.64797">
        <ele>351.4</ele>
        <time>2022-02-28T13:11:58Z</time>
      </trkpt>
      <trkpt lat="46.34456" lon="5.64799">
        <ele>351.8</ele>
        <time>2022-02-28T13:11:59Z</time>
      </trkpt>
      <trkpt lat="46.34455" lon="5.64801">
        <ele>352</ele>
        <time>2022-02-28T13:12:00Z</time>
      </trkpt>
      <trkpt lat="46.34454" lon="5.64804">
        <ele>352.4</ele>
        <time>2022-02-28T13:12:01Z</time>
      </trkpt>
      <trkpt lat="46.34454" lon="5.64806">
        <ele>352.6</ele>
        <time>2022-02-28T13:12:02Z</time>
      </trkpt>
      <trkpt lat="46.34453" lon="5.64809">
        <ele>352.8</ele>
        <time>2022-02-28T13:12:03Z</time>
      </trkpt>
      <trkpt lat="46.34452" lon="5.64811">
        <ele>353.2</ele>
        <time>2022-02-28T13:12:04Z</time>
      </trkpt>
      <trkpt lat="46.34451" lon="5.64814">
        <ele>353.4</ele>
        <time>2022-02-28T13:12:05Z</time>
      </trkpt>
      <trkpt lat="46.3445" lon="5.64817">
        <ele>353.6</ele>
        <time>2022-02-28T13:12:06Z</time>
      </trkpt>
      <trkpt lat="46.3445" lon="5.6482">
        <ele>354</ele>
        <time>2022-02-28T13:12:07Z</time>
      </trkpt>
      <trkpt lat="46.34449" lon="5.64822">
        <ele>354.2</ele>
        <time>2022-02-28T13:12:08Z</time>
      </trkpt>
      <trkpt lat="46.34448" lon="5.64825">
        <ele>354.6</ele>
        <time>2022-02-28T13:12:09Z</time>
      </trkpt>
      <trkpt lat="46.34447" lon="5.64827">
        <ele>354.8</ele>
        <time>2022-02-28T13:12:10Z</time>
      </trkpt>
      <trkpt lat="46.34446" lon="5.64829">
        <ele>355</ele>
        <time>2022-02-28T13:12:11Z</time>
      </trkpt>
      <trkpt lat="46.34445" lon="5.64832">
        <ele>355.2</ele>
        <time>2022-02-28T13:12:12Z</time>
      </trkpt>
      <trkpt lat="46.34444" lon="5.64835">
        <ele>355.4</ele>
        <time>2022-02-28T13:12:13Z</time>
      </trkpt>
      <trkpt lat="46.34444" lon="5.64837">
        <ele>355.8</ele>
        <time>2022-02-28T13:12:14Z</time>
      </trkpt>
      <trkpt lat="46.34443" lon="5.64839">
        <ele>356</ele>
        <time>2022-02-28T13:12:15Z</time>
      </trkpt>
      <trkpt lat="46.34442" lon="5.64841">
        <ele>356.4</ele>
        <time>2022-02-28T13:12:16Z</time>
      </trkpt>
      <trkpt lat="46.34441" lon="5.64844">
        <ele>356.6</ele>
        <time>2022-02-28T13:12:17Z</time>
      </trkpt>
      <trkpt lat="46.3444" lon="5.64846">
        <ele>356.8</ele>
        <time>2022-02-28T13:12:18Z</time>
      </trkpt>
      <trkpt lat="46.3444" lon="5.64849">
        <ele>357.2</ele>
        <time>2022-02-28T13:12:19Z</time>
      </trkpt>
      <trkpt lat="46.34439" lon="5.64851">
        <ele>357.4</ele>
        <time>2022-02-28T13:12:20Z</time>
      </trkpt>
      <trkpt lat="46.34439" lon="5.64854">
        <ele>357.6</ele>
        <time>2022-02-28T13:12:21Z</time>
      </trkpt>
      <trkpt lat="46.34438" lon="5.64856">
        <ele>358</ele>
        <time>2022-02-28T13:12:22Z</time>
      </trkpt>
      <trkpt lat="46.34437" lon="5.64858">
        <ele>358.2</ele>
        <time>2022-02-28T13:12:23Z</time>
      </trkpt>
      <trkpt lat="46.34437" lon="5.6486">
        <ele>358.4</ele>
        <time>2022-02-28T13:12:24Z</time>
      </trkpt>
      <trkpt lat="46.34436" lon="5.64862">
        <ele>358.6</ele>
        <time>2022-02-28T13:12:25Z</time>
      </trkpt>
      <trkpt lat="46.34435" lon="5.64864">
        <ele>359</ele>
        <time>2022-02-28T13:12:26Z</time>
      </trkpt>
      <trkpt lat="46.34434" lon="5.64867">
        <ele>359.2</ele>
        <time>2022-02-28T13:12:27Z</time>
      </trkpt>
      <trkpt lat="46.34433" lon="5.64869">
        <ele>359.4</ele>
        <time>2022-02-28T13:12:28Z</time>
      </trkpt>
      <trkpt lat="46.34432" lon="5.64872">
        <ele>359.6</ele>
        <time>2022-02-28T13:12:29Z</time>
      </trkpt>
      <trkpt lat="46.34432" lon="5.64874">
        <ele>360</ele>
        <time>2022-02-28T13:12:30Z</time>
      </trkpt>
      <trkpt lat="46.34431" lon="5.64876">
        <ele>360.2</ele>
        <time>2022-02-28T13:12:31Z</time>
      </trkpt>
      <trkpt lat="46.3443" lon="5.64879">
        <ele>360.2</ele>
        <time>2022-02-28T13:12:32Z</time>
      </trkpt>
      <trkpt lat="46.3443" lon="5.64881">
        <ele>360.6</ele>
        <time>2022-02-28T13:12:33Z</time>
      </trkpt>
      <trkpt lat="46.34429" lon="5.64883">
        <ele>361</ele>
        <time>2022-02-28T13:12:34Z</time>
      </trkpt>
      <trkpt lat="46.34428" lon="5.64886">
        <ele>361.2</ele>
        <time>2022-02-28T13:12:35Z</time>
      </trkpt>
      <trkpt lat="46.34428" lon="5.64889">
        <ele>361.4</ele>
        <time>2022-02-28T13:12:36Z</time>
      </trkpt>
      <trkpt lat="46.34427" lon="5.64891">
        <ele>361.6</ele>
        <time>2022-02-28T13:12:37Z</time>
      </trkpt>
      <trkpt lat="46.34427" lon="5.64893">
        <ele>362</ele>
        <time>2022-02-28T13:12:38Z</time>
      </trkpt>
      <trkpt lat="46.34426" lon="5.64895">
        <ele>362.2</ele>
        <time>2022-02-28T13:12:39Z</time>
      </trkpt>
      <trkpt lat="46.34425" lon="5.64897">
        <ele>362.4</ele>
        <time>2022-02-28T13:12:40Z</time>
      </trkpt>
      <trkpt lat="46.34425" lon="5.64899">
        <ele>362.8</ele>
        <time>2022-02-28T13:12:41Z</time>
      </trkpt>
      <trkpt lat="46.34424" lon="5.64901">
        <ele>363</ele>
        <time>2022-02-28T13:12:42Z</time>
      </trkpt>
      <trkpt lat="46.34424" lon="5.64903">
        <ele>363.2</ele>
        <time>2022-02-28T13:12:43Z</time>
      </trkpt>
      <trkpt lat="46.34424" lon="5.64906">
        <ele>363.6</ele>
        <time>2022-02-28T13:12:44Z</time>
      </trkpt>
      <trkpt lat="46.34423" lon="5.64908">
        <ele>363.8</ele>
        <time>2022-02-28T13:12:45Z</time>
      </trkpt>
      <trkpt lat="46.34423" lon="5.6491">
        <ele>364.2</ele>
        <time>2022-02-28T13:12:46Z</time>
      </trkpt>
      <trkpt lat="46.34422" lon="5.64912">
        <ele>364.6</ele>
        <time>2022-02-28T13:12:47Z</time>
      </trkpt>
      <trkpt lat="46.34421" lon="5.64914">
        <ele>364.8</ele>
        <time>2022-02-28T13:12:48Z</time>
      </trkpt>
      <trkpt lat="46.3442" lon="5.64916">
        <ele>365</ele>
        <time>2022-02-28T13:12:49Z</time>
      </trkpt>
      <trkpt lat="46.3442" lon="5.64918">
        <ele>365.4</ele>
        <time>2022-02-28T13:12:50Z</time>
      </trkpt>
      <trkpt lat="46.34419" lon="5.6492">
        <ele>365.6</ele>
        <time>2022-02-28T13:12:51Z</time>
      </trkpt>
      <trkpt lat="46.34418" lon="5.64923">
        <ele>366</ele>
        <time>2022-02-28T13:12:52Z</time>
      </trkpt>
      <trkpt lat="46.34417" lon="5.64925">
        <ele>366.2</ele>
        <time>2022-02-28T13:12:53Z</time>
      </trkpt>
      <trkpt lat="46.34417" lon="5.64928">
        <ele>366.6</ele>
        <time>2022-02-28T13:12:54Z</time>
      </trkpt>
      <trkpt lat="46.34416" lon="5.6493">
        <ele>366.8</ele>
        <time>2022-02-28T13:12:55Z</time>
      </trkpt>
      <trkpt lat="46.34414" lon="5.64933">
        <ele>367</ele>
        <time>2022-02-28T13:12:56Z</time>
      </trkpt>
      <trkpt lat="46.34413" lon="5.64935">
        <ele>367.4</ele>
        <time>2022-02-28T13:12:57Z</time>
      </trkpt>
      <trkpt lat="46.34412" lon="5.64937">
        <ele>367.8</ele>
        <time>2022-02-28T13:12:58Z</time>
      </trkpt>
      <trkpt lat="46.34412" lon="5.64939">
        <ele>368.2</ele>
        <time>2022-02-28T13:12:59Z</time>
      </trkpt>
      <trkpt lat="46.34411" lon="5.64941">
        <ele>368.4</ele>
        <time>2022-02-28T13:13:00Z</time>
      </trkpt>
      <trkpt lat="46.3441" lon="5.64944">
        <ele>368.8</ele>
        <time>2022-02-28T13:13:01Z</time>
      </trkpt>
      <trkpt lat="46.34409" lon="5.64946">
        <ele>369.2</ele>
        <time>2022-02-28T13:13:02Z</time>
      </trkpt>
      <trkpt lat="46.34409" lon="5.64948">
        <ele>369.4</ele>
        <time>2022-02-28T13:13:03Z</time>
      </trkpt>
      <trkpt lat="46.34408" lon="5.64951">
        <ele>369.6</ele>
        <time>2022-02-28T13:13:04Z</time>
      </trkpt>
      <trkpt lat="46.34407" lon="5.64953">
        <ele>369.8</ele>
        <time>2022-02-28T13:13:05Z</time>
      </trkpt>
      <trkpt lat="46.34405" lon="5.64955">
        <ele>370.2</ele>
        <time>2022-02-28T13:13:06Z</time>
      </trkpt>
      <trkpt lat="46.34404" lon="5.64957">
        <ele>370.4</ele>
        <time>2022-02-28T13:13:07Z</time>
      </trkpt>
      <trkpt lat="46.34403" lon="5.64959">
        <ele>370.8</ele>
        <time>2022-02-28T13:13:08Z</time>
      </trkpt>
      <trkpt lat="46.34402" lon="5.64961">
        <ele>371</ele>
        <time>2022-02-28T13:13:09Z</time>
      </trkpt>
      <trkpt lat="46.34401" lon="5.64963">
        <ele>371.2</ele>
        <time>2022-02-28T13:13:10Z</time>
      </trkpt>
      <trkpt lat="46.344" lon="5.64966">
        <ele>371.4</ele>
        <time>2022-02-28T13:13:11Z</time>
      </trkpt>
      <trkpt lat="46.34399" lon="5.64968">
        <ele>371.8</ele>
        <time>2022-02-28T13:13:12Z</time>
      </trkpt>
      <trkpt lat="46.34398" lon="5.6497">
        <ele>372</ele>
        <time>2022-02-28T13:13:13Z</time>
      </trkpt>
      <trkpt lat="46.34398" lon="5.64972">
        <ele>372.4</ele>
        <time>2022-02-28T13:13:14Z</time>
      </trkpt>
      <trkpt lat="46.34397" lon="5.64974">
        <ele>372.6</ele>
        <time>2022-02-28T13:13:15Z</time>
      </trkpt>
      <trkpt lat="46.34396" lon="5.64977">
        <ele>372.6</ele>
        <time>2022-02-28T13:13:16Z</time>
      </trkpt>
      <trkpt lat="46.34395" lon="5.64979">
        <ele>373</ele>
        <time>2022-02-28T13:13:17Z</time>
      </trkpt>
      <trkpt lat="46.34395" lon="5.64982">
        <ele>373</ele>
        <time>2022-02-28T13:13:18Z</time>
      </trkpt>
      <trkpt lat="46.34394" lon="5.64984">
        <ele>373.2</ele>
        <time>2022-02-28T13:13:19Z</time>
      </trkpt>
      <trkpt lat="46.34393" lon="5.64987">
        <ele>373.2</ele>
        <time>2022-02-28T13:13:20Z</time>
      </trkpt>
      <trkpt lat="46.34392" lon="5.64989">
        <ele>373.6</ele>
        <time>2022-02-28T13:13:21Z</time>
      </trkpt>
      <trkpt lat="46.34391" lon="5.64991">
        <ele>373.6</ele>
        <time>2022-02-28T13:13:22Z</time>
      </trkpt>
      <trkpt lat="46.3439" lon="5.64994">
        <ele>374</ele>
        <time>2022-02-28T13:13:23Z</time>
      </trkpt>
      <trkpt lat="46.34389" lon="5.64996">
        <ele>374.2</ele>
        <time>2022-02-28T13:13:24Z</time>
      </trkpt>
      <trkpt lat="46.34389" lon="5.64999">
        <ele>374.4</ele>
        <time>2022-02-28T13:13:25Z</time>
      </trkpt>
      <trkpt lat="46.34388" lon="5.65001">
        <ele>374.6</ele>
        <time>2022-02-28T13:13:26Z</time>
      </trkpt>
      <trkpt lat="46.34388" lon="5.65003">
        <ele>375</ele>
        <time>2022-02-28T13:13:27Z</time>
      </trkpt>
      <trkpt lat="46.34387" lon="5.65006">
        <ele>375.2</ele>
        <time>2022-02-28T13:13:28Z</time>
      </trkpt>
      <trkpt lat="46.34386" lon="5.65008">
        <ele>375.4</ele>
        <time>2022-02-28T13:13:29Z</time>
      </trkpt>
      <trkpt lat="46.34386" lon="5.65011">
        <ele>375.6</ele>
        <time>2022-02-28T13:13:30Z</time>
      </trkpt>
      <trkpt lat="46.34385" lon="5.65014">
        <ele>376</ele>
        <time>2022-02-28T13:13:31Z</time>
      </trkpt>
      <trkpt lat="46.34384" lon="5.65016">
        <ele>376.2</ele>
        <time>2022-02-28T13:13:32Z</time>
      </trkpt>
      <trkpt lat="46.34384" lon="5.65019">
        <ele>376.2</ele>
        <time>2022-02-28T13:13:33Z</time>
      </trkpt>
      <trkpt lat="46.34383" lon="5.65021">
        <ele>376.4</ele>
        <time>2022-02-28T13:13:34Z</time>
      </trkpt>
      <trkpt lat="46.34383" lon="5.65024">
        <ele>376.8</ele>
        <time>2022-02-28T13:13:35Z</time>
      </trkpt>
      <trkpt lat="46.34382" lon="5.65027">
        <ele>377</ele>
        <time>2022-02-28T13:13:36Z</time>
      </trkpt>
      <trkpt lat="46.34382" lon="5.65029">
        <ele>377.2</ele>
        <time>2022-02-28T13:13:37Z</time>
      </trkpt>
      <trkpt lat="46.34381" lon="5.65032">
        <ele>377.4</ele>
        <time>2022-02-28T13:13:38Z</time>
      </trkpt>
      <trkpt lat="46.3438" lon="5.65034">
        <ele>377.4</ele>
        <time>2022-02-28T13:13:39Z</time>
      </trkpt>
      <trkpt lat="46.3438" lon="5.65037">
        <ele>377.8</ele>
        <time>2022-02-28T13:13:40Z</time>
      </trkpt>
      <trkpt lat="46.34379" lon="5.65039">
        <ele>378</ele>
        <time>2022-02-28T13:13:41Z</time>
      </trkpt>
      <trkpt lat="46.34378" lon="5.65042">
        <ele>378.4</ele>
        <time>2022-02-28T13:13:42Z</time>
      </trkpt>
      <trkpt lat="46.34378" lon="5.65044">
        <ele>378.6</ele>
        <time>2022-02-28T13:13:43Z</time>
      </trkpt>
      <trkpt lat="46.34377" lon="5.65047">
        <ele>378.6</ele>
        <time>2022-02-28T13:13:44Z</time>
      </trkpt>
      <trkpt lat="46.34377" lon="5.65049">
        <ele>379</ele>
        <time>2022-02-28T13:13:45Z</time>
      </trkpt>
      <trkpt lat="46.34376" lon="5.65052">
        <ele>379.2</ele>
        <time>2022-02-28T13:13:46Z</time>
      </trkpt>
      <trkpt lat="46.34376" lon="5.65054">
        <ele>379.4</ele>
        <time>2022-02-28T13:13:47Z</time>
      </trkpt>
      <trkpt lat="46.34375" lon="5.65057">
        <ele>379.6</ele>
        <time>2022-02-28T13:13:48Z</time>
      </trkpt>
      <trkpt lat="46.34375" lon="5.65059">
        <ele>379.6</ele>
        <time>2022-02-28T13:13:49Z</time>
      </trkpt>
      <trkpt lat="46.34375" lon="5.65061">
        <ele>380</ele>
        <time>2022-02-28T13:13:50Z</time>
      </trkpt>
      <trkpt lat="46.34374" lon="5.65064">
        <ele>380</ele>
        <time>2022-02-28T13:13:51Z</time>
      </trkpt>
      <trkpt lat="46.34374" lon="5.65067">
        <ele>380.4</ele>
        <time>2022-02-28T13:13:52Z</time>
      </trkpt>
      <trkpt lat="46.34373" lon="5.65069">
        <ele>380.4</ele>
        <time>2022-02-28T13:13:53Z</time>
      </trkpt>
      <trkpt lat="46.34373" lon="5.65072">
        <ele>380.8</ele>
        <time>2022-02-28T13:13:54Z</time>
      </trkpt>
      <trkpt lat="46.34373" lon="5.65074">
        <ele>381</ele>
        <time>2022-02-28T13:13:55Z</time>
      </trkpt>
      <trkpt lat="46.34372" lon="5.65077">
        <ele>381.2</ele>
        <time>2022-02-28T13:13:56Z</time>
      </trkpt>
      <trkpt lat="46.34372" lon="5.6508">
        <ele>381.6</ele>
        <time>2022-02-28T13:13:57Z</time>
      </trkpt>
      <trkpt lat="46.34371" lon="5.65082">
        <ele>381.8</ele>
        <time>2022-02-28T13:13:58Z</time>
      </trkpt>
      <trkpt lat="46.34371" lon="5.65085">
        <ele>382</ele>
        <time>2022-02-28T13:13:59Z</time>
      </trkpt>
      <trkpt lat="46.34371" lon="5.65088">
        <ele>382</ele>
        <time>2022-02-28T13:14:00Z</time>
      </trkpt>
      <trkpt lat="46.3437" lon="5.6509">
        <ele>382.4</ele>
        <time>2022-02-28T13:14:01Z</time>
      </trkpt>
      <trkpt lat="46.34369" lon="5.65092">
        <ele>382.6</ele>
        <time>2022-02-28T13:14:02Z</time>
      </trkpt>
      <trkpt lat="46.34369" lon="5.65094">
        <ele>383</ele>
        <time>2022-02-28T13:14:03Z</time>
      </trkpt>
      <trkpt lat="46.34368" lon="5.65096">
        <ele>383</ele>
        <time>2022-02-28T13:14:04Z</time>
      </trkpt>
      <trkpt lat="46.34368" lon="5.65099">
        <ele>383.2</ele>
        <time>2022-02-28T13:14:05Z</time>
      </trkpt>
      <trkpt lat="46.34368" lon="5.65101">
        <ele>383.2</ele>
        <time>2022-02-28T13:14:06Z</time>
      </trkpt>
      <trkpt lat="46.34368" lon="5.65104">
        <ele>383.6</ele>
        <time>2022-02-28T13:14:07Z</time>
      </trkpt>
      <trkpt lat="46.34368" lon="5.65107">
        <ele>383.6</ele>
        <time>2022-02-28T13:14:08Z</time>
      </trkpt>
      <trkpt lat="46.34368" lon="5.65109">
        <ele>384</ele>
        <time>2022-02-28T13:14:09Z</time>
      </trkpt>
      <trkpt lat="46.34368" lon="5.65112">
        <ele>384</ele>
        <time>2022-02-28T13:14:10Z</time>
      </trkpt>
      <trkpt lat="46.34368" lon="5.65114">
        <ele>384.4</ele>
        <time>2022-02-28T13:14:11Z</time>
      </trkpt>
      <trkpt lat="46.34368" lon="5.65117">
        <ele>384.4</ele>
        <time>2022-02-28T13:14:12Z</time>
      </trkpt>
      <trkpt lat="46.34368" lon="5.6512">
        <ele>384.6</ele>
        <time>2022-02-28T13:14:13Z</time>
      </trkpt>
      <trkpt lat="46.34368" lon="5.65123">
        <ele>384.6</ele>
        <time>2022-02-28T13:14:14Z</time>
      </trkpt>
      <trkpt lat="46.34368" lon="5.65125">
        <ele>385</ele>
        <time>2022-02-28T13:14:15Z</time>
      </trkpt>
      <trkpt lat="46.34368" lon="5.65128">
        <ele>385</ele>
        <time>2022-02-28T13:14:16Z</time>
      </trkpt>
      <trkpt lat="46.34368" lon="5.65131">
        <ele>385.2</ele>
        <time>2022-02-28T13:14:17Z</time>
      </trkpt>
      <trkpt lat="46.34368" lon="5.65134">
        <ele>385.6</ele>
        <time>2022-02-28T13:14:18Z</time>
      </trkpt>
      <trkpt lat="46.34367" lon="5.65137">
        <ele>385.8</ele>
        <time>2022-02-28T13:14:19Z</time>
      </trkpt>
      <trkpt lat="46.34366" lon="5.65139">
        <ele>386</ele>
        <time>2022-02-28T13:14:20Z</time>
      </trkpt>
      <trkpt lat="46.34365" lon="5.6514">
        <ele>386</ele>
        <time>2022-02-28T13:14:21Z</time>
      </trkpt>
      <trkpt lat="46.34364" lon="5.65142">
        <ele>386.4</ele>
        <time>2022-02-28T13:14:22Z</time>
      </trkpt>
      <trkpt lat="46.34363" lon="5.65144">
        <ele>386.4</ele>
        <time>2022-02-28T13:14:23Z</time>
      </trkpt>
      <trkpt lat="46.34362" lon="5.65145">
        <ele>386.8</ele>
        <time>2022-02-28T13:14:24Z</time>
      </trkpt>
      <trkpt lat="46.3436" lon="5.65147">
        <ele>387</ele>
        <time>2022-02-28T13:14:25Z</time>
      </trkpt>
      <trkpt lat="46.34359" lon="5.65149">
        <ele>387</ele>
        <time>2022-02-28T13:14:26Z</time>
      </trkpt>
      <trkpt lat="46.34357" lon="5.6515">
        <ele>387.4</ele>
        <time>2022-02-28T13:14:27Z</time>
      </trkpt>
      <trkpt lat="46.34356" lon="5.65152">
        <ele>387.6</ele>
        <time>2022-02-28T13:14:28Z</time>
      </trkpt>
      <trkpt lat="46.34355" lon="5.65153">
        <ele>387.8</ele>
        <time>2022-02-28T13:14:29Z</time>
      </trkpt>
      <trkpt lat="46.34353" lon="5.65154">
        <ele>388.2</ele>
        <time>2022-02-28T13:14:30Z</time>
      </trkpt>
      <trkpt lat="46.34352" lon="5.65156">
        <ele>388.4</ele>
        <time>2022-02-28T13:14:31Z</time>
      </trkpt>
      <trkpt lat="46.34351" lon="5.65157">
        <ele>388.4</ele>
        <time>2022-02-28T13:14:32Z</time>
      </trkpt>
      <trkpt lat="46.34349" lon="5.65158">
        <ele>388.8</ele>
        <time>2022-02-28T13:14:33Z</time>
      </trkpt>
      <trkpt lat="46.34348" lon="5.65159">
        <ele>389</ele>
        <time>2022-02-28T13:14:34Z</time>
      </trkpt>
      <trkpt lat="46.34346" lon="5.6516">
        <ele>389.2</ele>
        <time>2022-02-28T13:14:35Z</time>
      </trkpt>
      <trkpt lat="46.34344" lon="5.65161">
        <ele>389.6</ele>
        <time>2022-02-28T13:14:36Z</time>
      </trkpt>
      <trkpt lat="46.34343" lon="5.65162">
        <ele>389.8</ele>
        <time>2022-02-28T13:14:37Z</time>
      </trkpt>
      <trkpt lat="46.34341" lon="5.65163">
        <ele>390</ele>
        <time>2022-02-28T13:14:38Z</time>
      </trkpt>
      <trkpt lat="46.34339" lon="5.65164">
        <ele>390.2</ele>
        <time>2022-02-28T13:14:39Z</time>
      </trkpt>
      <trkpt lat="46.34338" lon="5.65165">
        <ele>390.4</ele>
        <time>2022-02-28T13:14:40Z</time>
      </trkpt>
      <trkpt lat="46.34336" lon="5.65166">
        <ele>390.8</ele>
        <time>2022-02-28T13:14:41Z</time>
      </trkpt>
      <trkpt lat="46.34334" lon="5.65166">
        <ele>391</ele>
        <time>2022-02-28T13:14:42Z</time>
      </trkpt>
      <trkpt lat="46.34333" lon="5.65167">
        <ele>391</ele>
        <time>2022-02-28T13:14:43Z</time>
      </trkpt>
      <trkpt lat="46.34331" lon="5.65168">
        <ele>391.4</ele>
        <time>2022-02-28T13:14:44Z</time>
      </trkpt>
      <trkpt lat="46.34329" lon="5.65169">
        <ele>391.6</ele>
        <time>2022-02-28T13:14:45Z</time>
      </trkpt>
      <trkpt lat="46.34327" lon="5.65169">
        <ele>392</ele>
        <time>2022-02-28T13:14:46Z</time>
      </trkpt>
      <trkpt lat="46.34326" lon="5.6517">
        <ele>392</ele>
        <time>2022-02-28T13:14:47Z</time>
      </trkpt>
      <trkpt lat="46.34324" lon="5.65171">
        <ele>392.4</ele>
        <time>2022-02-28T13:14:48Z</time>
      </trkpt>
      <trkpt lat="46.34322" lon="5.65172">
        <ele>392.4</ele>
        <time>2022-02-28T13:14:49Z</time>
      </trkpt>
      <trkpt lat="46.3432" lon="5.65173">
        <ele>392.8</ele>
        <time>2022-02-28T13:14:50Z</time>
      </trkpt>
      <trkpt lat="46.34318" lon="5.65174">
        <ele>392.8</ele>
        <time>2022-02-28T13:14:51Z</time>
      </trkpt>
      <trkpt lat="46.34316" lon="5.65175">
        <ele>393</ele>
        <time>2022-02-28T13:14:52Z</time>
      </trkpt>
      <trkpt lat="46.34314" lon="5.65175">
        <ele>393.4</ele>
        <time>2022-02-28T13:14:53Z</time>
      </trkpt>
      <trkpt lat="46.34312" lon="5.65176">
        <ele>393.4</ele>
        <time>2022-02-28T13:14:54Z</time>
      </trkpt>
      <trkpt lat="46.34311" lon="5.65177">
        <ele>393.8</ele>
        <time>2022-02-28T13:14:55Z</time>
      </trkpt>
      <trkpt lat="46.34309" lon="5.65177">
        <ele>394</ele>
        <time>2022-02-28T13:14:56Z</time>
      </trkpt>
      <trkpt lat="46.34309" lon="5.65177">
        <ele>394</ele>
        <time>2022-02-28T13:14:57Z</time>
      </trkpt>
      <trkpt lat="46.34307" lon="5.65177">
        <ele>394.4</ele>
        <time>2022-02-28T13:14:58Z</time>
      </trkpt>
      <trkpt lat="46.34306" lon="5.65178">
        <ele>394.4</ele>
        <time>2022-02-28T13:14:59Z</time>
      </trkpt>
      <trkpt lat="46.34304" lon="5.65179">
        <ele>394.6</ele>
        <time>2022-02-28T13:15:00Z</time>
      </trkpt>
      <trkpt lat="46.34302" lon="5.65179">
        <ele>394.8</ele>
        <time>2022-02-28T13:15:01Z</time>
      </trkpt>
      <trkpt lat="46.343" lon="5.6518">
        <ele>394.8</ele>
        <time>2022-02-28T13:15:02Z</time>
      </trkpt>
      <trkpt lat="46.34299" lon="5.6518">
        <ele>395.2</ele>
        <time>2022-02-28T13:15:03Z</time>
      </trkpt>
      <trkpt lat="46.34297" lon="5.6518">
        <ele>395.4</ele>
        <time>2022-02-28T13:15:04Z</time>
      </trkpt>
      <trkpt lat="46.34295" lon="5.6518">
        <ele>395.4</ele>
        <time>2022-02-28T13:15:05Z</time>
      </trkpt>
      <trkpt lat="46.34293" lon="5.6518">
        <ele>395.6</ele>
        <time>2022-02-28T13:15:06Z</time>
      </trkpt>
      <trkpt lat="46.34291" lon="5.6518">
        <ele>395.6</ele>
        <time>2022-02-28T13:15:07Z</time>
      </trkpt>
      <trkpt lat="46.3429" lon="5.6518">
        <ele>396.2</ele>
        <time>2022-02-28T13:15:08Z</time>
      </trkpt>
      <trkpt lat="46.34288" lon="5.65181">
        <ele>396.4</ele>
        <time>2022-02-28T13:15:09Z</time>
      </trkpt>
      <trkpt lat="46.34286" lon="5.65182">
        <ele>396.4</ele>
        <time>2022-02-28T13:15:10Z</time>
      </trkpt>
      <trkpt lat="46.34284" lon="5.65183">
        <ele>396.6</ele>
        <time>2022-02-28T13:15:11Z</time>
      </trkpt>
      <trkpt lat="46.34283" lon="5.65183">
        <ele>397</ele>
        <time>2022-02-28T13:15:12Z</time>
      </trkpt>
      <trkpt lat="46.34282" lon="5.65184">
        <ele>397</ele>
        <time>2022-02-28T13:15:13Z</time>
      </trkpt>
      <trkpt lat="46.3428" lon="5.65184">
        <ele>397.2</ele>
        <time>2022-02-28T13:15:14Z</time>
      </trkpt>
      <trkpt lat="46.34279" lon="5.65185">
        <ele>397.2</ele>
        <time>2022-02-28T13:15:15Z</time>
      </trkpt>
      <trkpt lat="46.34277" lon="5.65186">
        <ele>397.6</ele>
        <time>2022-02-28T13:15:16Z</time>
      </trkpt>
      <trkpt lat="46.34276" lon="5.65186">
        <ele>397.6</ele>
        <time>2022-02-28T13:15:17Z</time>
      </trkpt>
      <trkpt lat="46.34275" lon="5.65187">
        <ele>397.8</ele>
        <time>2022-02-28T13:15:18Z</time>
      </trkpt>
      <trkpt lat="46.34273" lon="5.65188">
        <ele>397.8</ele>
        <time>2022-02-28T13:15:19Z</time>
      </trkpt>
      <trkpt lat="46.34272" lon="5.65189">
        <ele>398</ele>
        <time>2022-02-28T13:15:20Z</time>
      </trkpt>
      <trkpt lat="46.3427" lon="5.6519">
        <ele>398.4</ele>
        <time>2022-02-28T13:15:21Z</time>
      </trkpt>
      <trkpt lat="46.34269" lon="5.65191">
        <ele>398.6</ele>
        <time>2022-02-28T13:15:22Z</time>
      </trkpt>
      <trkpt lat="46.34267" lon="5.65192">
        <ele>398.6</ele>
        <time>2022-02-28T13:15:23Z</time>
      </trkpt>
      <trkpt lat="46.34266" lon="5.65193">
        <ele>398.8</ele>
        <time>2022-02-28T13:15:24Z</time>
      </trkpt>
      <trkpt lat="46.34265" lon="5.65194">
        <ele>398.8</ele>
        <time>2022-02-28T13:15:25Z</time>
      </trkpt>
      <trkpt lat="46.34263" lon="5.65195">
        <ele>399.2</ele>
        <time>2022-02-28T13:15:26Z</time>
      </trkpt>
      <trkpt lat="46.34262" lon="5.65196">
        <ele>399.2</ele>
        <time>2022-02-28T13:15:27Z</time>
      </trkpt>
      <trkpt lat="46.3426" lon="5.65197">
        <ele>399.6</ele>
        <time>2022-02-28T13:15:28Z</time>
      </trkpt>
      <trkpt lat="46.34258" lon="5.65197">
        <ele>399.6</ele>
        <time>2022-02-28T13:15:29Z</time>
      </trkpt>
      <trkpt lat="46.34257" lon="5.65198">
        <ele>400</ele>
        <time>2022-02-28T13:15:30Z</time>
      </trkpt>
      <trkpt lat="46.34255" lon="5.65198">
        <ele>400</ele>
        <time>2022-02-28T13:15:31Z</time>
      </trkpt>
      <trkpt lat="46.34254" lon="5.65199">
        <ele>400.2</ele>
        <time>2022-02-28T13:15:32Z</time>
      </trkpt>
      <trkpt lat="46.34253" lon="5.652">
        <ele>400.2</ele>
        <time>2022-02-28T13:15:33Z</time>
      </trkpt>
      <trkpt lat="46.34252" lon="5.65202">
        <ele>400.6</ele>
        <time>2022-02-28T13:15:34Z</time>
      </trkpt>
      <trkpt lat="46.3425" lon="5.65203">
        <ele>400.6</ele>
        <time>2022-02-28T13:15:35Z</time>
      </trkpt>
      <trkpt lat="46.34249" lon="5.65204">
        <ele>401</ele>
        <time>2022-02-28T13:15:36Z</time>
      </trkpt>
      <trkpt lat="46.34247" lon="5.65205">
        <ele>401</ele>
        <time>2022-02-28T13:15:37Z</time>
      </trkpt>
      <trkpt lat="46.34246" lon="5.65206">
        <ele>401.4</ele>
        <time>2022-02-28T13:15:38Z</time>
      </trkpt>
      <trkpt lat="46.34244" lon="5.65207">
        <ele>401.4</ele>
        <time>2022-02-28T13:15:39Z</time>
      </trkpt>
      <trkpt lat="46.34243" lon="5.65208">
        <ele>401.6</ele>
        <time>2022-02-28T13:15:40Z</time>
      </trkpt>
      <trkpt lat="46.34241" lon="5.65209">
        <ele>401.8</ele>
        <time>2022-02-28T13:15:41Z</time>
      </trkpt>
      <trkpt lat="46.3424" lon="5.6521">
        <ele>401.8</ele>
        <time>2022-02-28T13:15:42Z</time>
      </trkpt>
      <trkpt lat="46.34239" lon="5.65211">
        <ele>402.2</ele>
        <time>2022-02-28T13:15:43Z</time>
      </trkpt>
      <trkpt lat="46.34237" lon="5.65212">
        <ele>402.2</ele>
        <time>2022-02-28T13:15:44Z</time>
      </trkpt>
      <trkpt lat="46.34236" lon="5.65213">
        <ele>402.6</ele>
        <time>2022-02-28T13:15:45Z</time>
      </trkpt>
      <trkpt lat="46.34235" lon="5.65214">
        <ele>402.6</ele>
        <time>2022-02-28T13:15:46Z</time>
      </trkpt>
      <trkpt lat="46.34233" lon="5.65215">
        <ele>403</ele>
        <time>2022-02-28T13:15:47Z</time>
      </trkpt>
      <trkpt lat="46.34232" lon="5.65216">
        <ele>403.2</ele>
        <time>2022-02-28T13:15:48Z</time>
      </trkpt>
      <trkpt lat="46.34231" lon="5.65218">
        <ele>403.4</ele>
        <time>2022-02-28T13:15:49Z</time>
      </trkpt>
      <trkpt lat="46.3423" lon="5.65219">
        <ele>403.6</ele>
        <time>2022-02-28T13:15:50Z</time>
      </trkpt>
      <trkpt lat="46.34229" lon="5.65221">
        <ele>403.6</ele>
        <time>2022-02-28T13:15:51Z</time>
      </trkpt>
      <trkpt lat="46.34227" lon="5.65222">
        <ele>404</ele>
        <time>2022-02-28T13:15:52Z</time>
      </trkpt>
      <trkpt lat="46.34226" lon="5.65224">
        <ele>404.2</ele>
        <time>2022-02-28T13:15:53Z</time>
      </trkpt>
      <trkpt lat="46.34225" lon="5.65226">
        <ele>404.2</ele>
        <time>2022-02-28T13:15:54Z</time>
      </trkpt>
      <trkpt lat="46.34223" lon="5.65227">
        <ele>404.6</ele>
        <time>2022-02-28T13:15:55Z</time>
      </trkpt>
      <trkpt lat="46.34222" lon="5.65228">
        <ele>404.6</ele>
        <time>2022-02-28T13:15:56Z</time>
      </trkpt>
      <trkpt lat="46.3422" lon="5.65229">
        <ele>404.8</ele>
        <time>2022-02-28T13:15:57Z</time>
      </trkpt>
      <trkpt lat="46.34218" lon="5.65231">
        <ele>404.8</ele>
        <time>2022-02-28T13:15:58Z</time>
      </trkpt>
      <trkpt lat="46.34217" lon="5.65232">
        <ele>405.2</ele>
        <time>2022-02-28T13:15:59Z</time>
      </trkpt>
      <trkpt lat="46.34215" lon="5.65233">
        <ele>405.2</ele>
        <time>2022-02-28T13:16:00Z</time>
      </trkpt>
      <trkpt lat="46.34213" lon="5.65235">
        <ele>405.6</ele>
        <time>2022-02-28T13:16:01Z</time>
      </trkpt>
      <trkpt lat="46.34212" lon="5.65236">
        <ele>405.6</ele>
        <time>2022-02-28T13:16:02Z</time>
      </trkpt>
      <trkpt lat="46.3421" lon="5.65238">
        <ele>406</ele>
        <time>2022-02-28T13:16:03Z</time>
      </trkpt>
      <trkpt lat="46.34209" lon="5.65239">
        <ele>406.2</ele>
        <time>2022-02-28T13:16:04Z</time>
      </trkpt>
      <trkpt lat="46.34207" lon="5.6524">
        <ele>406.2</ele>
        <time>2022-02-28T13:16:05Z</time>
      </trkpt>
      <trkpt lat="46.34206" lon="5.65242">
        <ele>406.6</ele>
        <time>2022-02-28T13:16:06Z</time>
      </trkpt>
      <trkpt lat="46.34204" lon="5.65242">
        <ele>406.8</ele>
        <time>2022-02-28T13:16:07Z</time>
      </trkpt>
      <trkpt lat="46.34202" lon="5.65243">
        <ele>406.8</ele>
        <time>2022-02-28T13:16:08Z</time>
      </trkpt>
      <trkpt lat="46.34201" lon="5.65244">
        <ele>407.2</ele>
        <time>2022-02-28T13:16:09Z</time>
      </trkpt>
      <trkpt lat="46.34199" lon="5.65245">
        <ele>407.4</ele>
        <time>2022-02-28T13:16:10Z</time>
      </trkpt>
      <trkpt lat="46.34198" lon="5.65247">
        <ele>407.6</ele>
        <time>2022-02-28T13:16:11Z</time>
      </trkpt>
      <trkpt lat="46.34194" lon="5.65249">
        <ele>408</ele>
        <time>2022-02-28T13:16:12Z</time>
      </trkpt>
      <trkpt lat="46.34193" lon="5.6525">
        <ele>408.2</ele>
        <time>2022-02-28T13:16:13Z</time>
      </trkpt>
      <trkpt lat="46.34191" lon="5.65251">
        <ele>408.4</ele>
        <time>2022-02-28T13:16:14Z</time>
      </trkpt>
      <trkpt lat="46.3419" lon="5.65252">
        <ele>408.6</ele>
        <time>2022-02-28T13:16:15Z</time>
      </trkpt>
      <trkpt lat="46.34188" lon="5.65253">
        <ele>408.6</ele>
        <time>2022-02-28T13:16:16Z</time>
      </trkpt>
      <trkpt lat="46.34187" lon="5.65255">
        <ele>408.8</ele>
        <time>2022-02-28T13:16:17Z</time>
      </trkpt>
      <trkpt lat="46.34186" lon="5.65256">
        <ele>409.2</ele>
        <time>2022-02-28T13:16:18Z</time>
      </trkpt>
      <trkpt lat="46.34184" lon="5.65258">
        <ele>409.4</ele>
        <time>2022-02-28T13:16:19Z</time>
      </trkpt>
      <trkpt lat="46.34183" lon="5.65259">
        <ele>409.6</ele>
        <time>2022-02-28T13:16:20Z</time>
      </trkpt>
      <trkpt lat="46.34181" lon="5.6526">
        <ele>410</ele>
        <time>2022-02-28T13:16:21Z</time>
      </trkpt>
      <trkpt lat="46.3418" lon="5.65262">
        <ele>410.2</ele>
        <time>2022-02-28T13:16:22Z</time>
      </trkpt>
      <trkpt lat="46.34179" lon="5.65263">
        <ele>410.6</ele>
        <time>2022-02-28T13:16:23Z</time>
      </trkpt>
      <trkpt lat="46.34177" lon="5.65265">
        <ele>410.8</ele>
        <time>2022-02-28T13:16:24Z</time>
      </trkpt>
      <trkpt lat="46.34176" lon="5.65266">
        <ele>410.8</ele>
        <time>2022-02-28T13:16:25Z</time>
      </trkpt>
      <trkpt lat="46.34175" lon="5.65267">
        <ele>411.2</ele>
        <time>2022-02-28T13:16:26Z</time>
      </trkpt>
      <trkpt lat="46.34174" lon="5.65269">
        <ele>411.2</ele>
        <time>2022-02-28T13:16:27Z</time>
      </trkpt>
      <trkpt lat="46.34172" lon="5.6527">
        <ele>411.4</ele>
        <time>2022-02-28T13:16:28Z</time>
      </trkpt>
      <trkpt lat="46.34171" lon="5.65272">
        <ele>411.8</ele>
        <time>2022-02-28T13:16:29Z</time>
      </trkpt>
      <trkpt lat="46.3417" lon="5.65273">
        <ele>412</ele>
        <time>2022-02-28T13:16:30Z</time>
      </trkpt>
      <trkpt lat="46.34168" lon="5.65274">
        <ele>412.2</ele>
        <time>2022-02-28T13:16:31Z</time>
      </trkpt>
      <trkpt lat="46.34167" lon="5.65276">
        <ele>412.6</ele>
        <time>2022-02-28T13:16:32Z</time>
      </trkpt>
      <trkpt lat="46.34165" lon="5.65278">
        <ele>412.6</ele>
        <time>2022-02-28T13:16:33Z</time>
      </trkpt>
      <trkpt lat="46.34164" lon="5.65279">
        <ele>413</ele>
        <time>2022-02-28T13:16:34Z</time>
      </trkpt>
      <trkpt lat="46.34162" lon="5.6528">
        <ele>413.2</ele>
        <time>2022-02-28T13:16:35Z</time>
      </trkpt>
      <trkpt lat="46.34161" lon="5.65281">
        <ele>413.2</ele>
        <time>2022-02-28T13:16:36Z</time>
      </trkpt>
      <trkpt lat="46.34159" lon="5.65282">
        <ele>413.4</ele>
        <time>2022-02-28T13:16:37Z</time>
      </trkpt>
      <trkpt lat="46.34158" lon="5.65283">
        <ele>413.4</ele>
        <time>2022-02-28T13:16:38Z</time>
      </trkpt>
      <trkpt lat="46.34156" lon="5.65284">
        <ele>413.8</ele>
        <time>2022-02-28T13:16:39Z</time>
      </trkpt>
      <trkpt lat="46.34155" lon="5.65285">
        <ele>414</ele>
        <time>2022-02-28T13:16:40Z</time>
      </trkpt>
      <trkpt lat="46.34153" lon="5.65287">
        <ele>414</ele>
        <time>2022-02-28T13:16:41Z</time>
      </trkpt>
      <trkpt lat="46.34152" lon="5.65288">
        <ele>414.4</ele>
        <time>2022-02-28T13:16:42Z</time>
      </trkpt>
      <trkpt lat="46.3415" lon="5.6529">
        <ele>414.4</ele>
        <time>2022-02-28T13:16:43Z</time>
      </trkpt>
      <trkpt lat="46.34148" lon="5.65291">
        <ele>414.8</ele>
        <time>2022-02-28T13:16:44Z</time>
      </trkpt>
      <trkpt lat="46.34147" lon="5.65292">
        <ele>414.8</ele>
        <time>2022-02-28T13:16:45Z</time>
      </trkpt>
      <trkpt lat="46.34145" lon="5.65293">
        <ele>415.2</ele>
        <time>2022-02-28T13:16:46Z</time>
      </trkpt>
      <trkpt lat="46.34144" lon="5.65295">
        <ele>415.2</ele>
        <time>2022-02-28T13:16:47Z</time>
      </trkpt>
      <trkpt lat="46.34142" lon="5.65296">
        <ele>415.2</ele>
        <time>2022-02-28T13:16:48Z</time>
      </trkpt>
      <trkpt lat="46.34141" lon="5.65298">
        <ele>415.6</ele>
        <time>2022-02-28T13:16:49Z</time>
      </trkpt>
      <trkpt lat="46.34139" lon="5.65299">
        <ele>415.6</ele>
        <time>2022-02-28T13:16:50Z</time>
      </trkpt>
      <trkpt lat="46.34138" lon="5.653">
        <ele>415.8</ele>
        <time>2022-02-28T13:16:51Z</time>
      </trkpt>
      <trkpt lat="46.34137" lon="5.65302">
        <ele>415.8</ele>
        <time>2022-02-28T13:16:52Z</time>
      </trkpt>
      <trkpt lat="46.34136" lon="5.65303">
        <ele>416</ele>
        <time>2022-02-28T13:16:53Z</time>
      </trkpt>
      <trkpt lat="46.34135" lon="5.65304">
        <ele>416</ele>
        <time>2022-02-28T13:16:54Z</time>
      </trkpt>
      <trkpt lat="46.34133" lon="5.65305">
        <ele>416.4</ele>
        <time>2022-02-28T13:16:55Z</time>
      </trkpt>
      <trkpt lat="46.34132" lon="5.65306">
        <ele>416.4</ele>
        <time>2022-02-28T13:16:56Z</time>
      </trkpt>
      <trkpt lat="46.34131" lon="5.65307">
        <ele>416.6</ele>
        <time>2022-02-28T13:16:57Z</time>
      </trkpt>
      <trkpt lat="46.34129" lon="5.65308">
        <ele>416.6</ele>
        <time>2022-02-28T13:16:58Z</time>
      </trkpt>
      <trkpt lat="46.34128" lon="5.65309">
        <ele>417</ele>
        <time>2022-02-28T13:16:59Z</time>
      </trkpt>
      <trkpt lat="46.34127" lon="5.65311">
        <ele>417</ele>
        <time>2022-02-28T13:17:00Z</time>
      </trkpt>
      <trkpt lat="46.34126" lon="5.65311">
        <ele>417.4</ele>
        <time>2022-02-28T13:17:01Z</time>
      </trkpt>
      <trkpt lat="46.34125" lon="5.65312">
        <ele>417.4</ele>
        <time>2022-02-28T13:17:02Z</time>
      </trkpt>
      <trkpt lat="46.34123" lon="5.65313">
        <ele>417.8</ele>
        <time>2022-02-28T13:17:03Z</time>
      </trkpt>
      <trkpt lat="46.34122" lon="5.65315">
        <ele>418</ele>
        <time>2022-02-28T13:17:04Z</time>
      </trkpt>
      <trkpt lat="46.34121" lon="5.65316">
        <ele>418</ele>
        <time>2022-02-28T13:17:05Z</time>
      </trkpt>
      <trkpt lat="46.34119" lon="5.65317">
        <ele>418.4</ele>
        <time>2022-02-28T13:17:06Z</time>
      </trkpt>
      <trkpt lat="46.34118" lon="5.65319">
        <ele>418.4</ele>
        <time>2022-02-28T13:17:07Z</time>
      </trkpt>
      <trkpt lat="46.34117" lon="5.6532">
        <ele>418.6</ele>
        <time>2022-02-28T13:17:08Z</time>
      </trkpt>
      <trkpt lat="46.34116" lon="5.65322">
        <ele>418.6</ele>
        <time>2022-02-28T13:17:09Z</time>
      </trkpt>
      <trkpt lat="46.34115" lon="5.65323">
        <ele>419</ele>
        <time>2022-02-28T13:17:10Z</time>
      </trkpt>
      <trkpt lat="46.34114" lon="5.65325">
        <ele>419</ele>
        <time>2022-02-28T13:17:11Z</time>
      </trkpt>
      <trkpt lat="46.34113" lon="5.65327">
        <ele>419.2</ele>
        <time>2022-02-28T13:17:12Z</time>
      </trkpt>
      <trkpt lat="46.34111" lon="5.65328">
        <ele>419.2</ele>
        <time>2022-02-28T13:17:13Z</time>
      </trkpt>
      <trkpt lat="46.3411" lon="5.6533">
        <ele>419.6</ele>
        <time>2022-02-28T13:17:14Z</time>
      </trkpt>
      <trkpt lat="46.34109" lon="5.65332">
        <ele>420</ele>
        <time>2022-02-28T13:17:15Z</time>
      </trkpt>
      <trkpt lat="46.34107" lon="5.65334">
        <ele>420.2</ele>
        <time>2022-02-28T13:17:16Z</time>
      </trkpt>
      <trkpt lat="46.34106" lon="5.65335">
        <ele>420.2</ele>
        <time>2022-02-28T13:17:17Z</time>
      </trkpt>
      <trkpt lat="46.34105" lon="5.65337">
        <ele>420.6</ele>
        <time>2022-02-28T13:17:18Z</time>
      </trkpt>
      <trkpt lat="46.34104" lon="5.65339">
        <ele>420.8</ele>
        <time>2022-02-28T13:17:19Z</time>
      </trkpt>
      <trkpt lat="46.34102" lon="5.6534">
        <ele>421</ele>
        <time>2022-02-28T13:17:20Z</time>
      </trkpt>
      <trkpt lat="46.34101" lon="5.65342">
        <ele>421.2</ele>
        <time>2022-02-28T13:17:21Z</time>
      </trkpt>
      <trkpt lat="46.341" lon="5.65344">
        <ele>421.2</ele>
        <time>2022-02-28T13:17:22Z</time>
      </trkpt>
      <trkpt lat="46.34098" lon="5.65346">
        <ele>421.6</ele>
        <time>2022-02-28T13:17:23Z</time>
      </trkpt>
      <trkpt lat="46.34097" lon="5.65347">
        <ele>421.6</ele>
        <time>2022-02-28T13:17:24Z</time>
      </trkpt>
      <trkpt lat="46.34096" lon="5.65349">
        <ele>422</ele>
        <time>2022-02-28T13:17:25Z</time>
      </trkpt>
      <trkpt lat="46.34095" lon="5.65351">
        <ele>422.2</ele>
        <time>2022-02-28T13:17:26Z</time>
      </trkpt>
      <trkpt lat="46.34093" lon="5.65352">
        <ele>422.2</ele>
        <time>2022-02-28T13:17:27Z</time>
      </trkpt>
      <trkpt lat="46.34092" lon="5.65353">
        <ele>422.6</ele>
        <time>2022-02-28T13:17:28Z</time>
      </trkpt>
      <trkpt lat="46.3409" lon="5.65355">
        <ele>422.6</ele>
        <time>2022-02-28T13:17:29Z</time>
      </trkpt>
      <trkpt lat="46.34089" lon="5.65357">
        <ele>422.8</ele>
        <time>2022-02-28T13:17:30Z</time>
      </trkpt>
      <trkpt lat="46.34087" lon="5.65358">
        <ele>423</ele>
        <time>2022-02-28T13:17:31Z</time>
      </trkpt>
      <trkpt lat="46.34086" lon="5.6536">
        <ele>423.4</ele>
        <time>2022-02-28T13:17:32Z</time>
      </trkpt>
      <trkpt lat="46.34084" lon="5.65362">
        <ele>423.4</ele>
        <time>2022-02-28T13:17:33Z</time>
      </trkpt>
      <trkpt lat="46.34082" lon="5.65363">
        <ele>423.6</ele>
        <time>2022-02-28T13:17:34Z</time>
      </trkpt>
      <trkpt lat="46.34081" lon="5.65365">
        <ele>423.6</ele>
        <time>2022-02-28T13:17:35Z</time>
      </trkpt>
      <trkpt lat="46.34079" lon="5.65367">
        <ele>424</ele>
        <time>2022-02-28T13:17:36Z</time>
      </trkpt>
      <trkpt lat="46.34077" lon="5.65368">
        <ele>424.2</ele>
        <time>2022-02-28T13:17:37Z</time>
      </trkpt>
      <trkpt lat="46.34076" lon="5.6537">
        <ele>424.2</ele>
        <time>2022-02-28T13:17:38Z</time>
      </trkpt>
      <trkpt lat="46.34074" lon="5.65371">
        <ele>424.8</ele>
        <time>2022-02-28T13:17:39Z</time>
      </trkpt>
      <trkpt lat="46.34072" lon="5.65373">
        <ele>425</ele>
        <time>2022-02-28T13:17:40Z</time>
      </trkpt>
      <trkpt lat="46.34071" lon="5.65375">
        <ele>425.2</ele>
        <time>2022-02-28T13:17:41Z</time>
      </trkpt>
      <trkpt lat="46.34069" lon="5.65376">
        <ele>425.2</ele>
        <time>2022-02-28T13:17:42Z</time>
      </trkpt>
      <trkpt lat="46.34068" lon="5.65377">
        <ele>425.6</ele>
        <time>2022-02-28T13:17:43Z</time>
      </trkpt>
      <trkpt lat="46.34066" lon="5.65379">
        <ele>425.6</ele>
        <time>2022-02-28T13:17:44Z</time>
      </trkpt>
      <trkpt lat="46.34064" lon="5.6538">
        <ele>426</ele>
        <time>2022-02-28T13:17:45Z</time>
      </trkpt>
      <trkpt lat="46.34063" lon="5.65382">
        <ele>426.2</ele>
        <time>2022-02-28T13:17:46Z</time>
      </trkpt>
      <trkpt lat="46.34062" lon="5.65384">
        <ele>426.4</ele>
        <time>2022-02-28T13:17:47Z</time>
      </trkpt>
      <trkpt lat="46.3406" lon="5.65385">
        <ele>426.6</ele>
        <time>2022-02-28T13:17:48Z</time>
      </trkpt>
      <trkpt lat="46.34058" lon="5.65387">
        <ele>426.6</ele>
        <time>2022-02-28T13:17:49Z</time>
      </trkpt>
      <trkpt lat="46.34057" lon="5.65388">
        <ele>427.2</ele>
        <time>2022-02-28T13:17:50Z</time>
      </trkpt>
      <trkpt lat="46.34055" lon="5.65389">
        <ele>427.4</ele>
        <time>2022-02-28T13:17:51Z</time>
      </trkpt>
      <trkpt lat="46.34054" lon="5.6539">
        <ele>427.6</ele>
        <time>2022-02-28T13:17:52Z</time>
      </trkpt>
      <trkpt lat="46.34052" lon="5.65391">
        <ele>427.8</ele>
        <time>2022-02-28T13:17:53Z</time>
      </trkpt>
      <trkpt lat="46.3405" lon="5.65392">
        <ele>428</ele>
        <time>2022-02-28T13:17:54Z</time>
      </trkpt>
      <trkpt lat="46.34049" lon="5.65394">
        <ele>428.2</ele>
        <time>2022-02-28T13:17:55Z</time>
      </trkpt>
      <trkpt lat="46.34047" lon="5.65395">
        <ele>428.6</ele>
        <time>2022-02-28T13:17:56Z</time>
      </trkpt>
      <trkpt lat="46.34046" lon="5.65397">
        <ele>428.6</ele>
        <time>2022-02-28T13:17:57Z</time>
      </trkpt>
      <trkpt lat="46.34044" lon="5.65398">
        <ele>428.8</ele>
        <time>2022-02-28T13:17:58Z</time>
      </trkpt>
      <trkpt lat="46.34043" lon="5.654">
        <ele>429.2</ele>
        <time>2022-02-28T13:17:59Z</time>
      </trkpt>
      <trkpt lat="46.34041" lon="5.65401">
        <ele>429.2</ele>
        <time>2022-02-28T13:18:00Z</time>
      </trkpt>
      <trkpt lat="46.3404" lon="5.65402">
        <ele>429.6</ele>
        <time>2022-02-28T13:18:01Z</time>
      </trkpt>
      <trkpt lat="46.34038" lon="5.65404">
        <ele>429.6</ele>
        <time>2022-02-28T13:18:02Z</time>
      </trkpt>
      <trkpt lat="46.34037" lon="5.65405">
        <ele>430</ele>
        <time>2022-02-28T13:18:03Z</time>
      </trkpt>
      <trkpt lat="46.34035" lon="5.65406">
        <ele>430.2</ele>
        <time>2022-02-28T13:18:04Z</time>
      </trkpt>
      <trkpt lat="46.34034" lon="5.65408">
        <ele>430.4</ele>
        <time>2022-02-28T13:18:05Z</time>
      </trkpt>
      <trkpt lat="46.34032" lon="5.65409">
        <ele>430.4</ele>
        <time>2022-02-28T13:18:06Z</time>
      </trkpt>
      <trkpt lat="46.34031" lon="5.65409">
        <ele>430.8</ele>
        <time>2022-02-28T13:18:07Z</time>
      </trkpt>
      <trkpt lat="46.34029" lon="5.6541">
        <ele>430.8</ele>
        <time>2022-02-28T13:18:08Z</time>
      </trkpt>
      <trkpt lat="46.34027" lon="5.65412">
        <ele>431.2</ele>
        <time>2022-02-28T13:18:09Z</time>
      </trkpt>
      <trkpt lat="46.34026" lon="5.65413">
        <ele>431.4</ele>
        <time>2022-02-28T13:18:10Z</time>
      </trkpt>
      <trkpt lat="46.34024" lon="5.65414">
        <ele>431.4</ele>
        <time>2022-02-28T13:18:11Z</time>
      </trkpt>
      <trkpt lat="46.34023" lon="5.65415">
        <ele>431.8</ele>
        <time>2022-02-28T13:18:12Z</time>
      </trkpt>
      <trkpt lat="46.34021" lon="5.65416">
        <ele>431.8</ele>
        <time>2022-02-28T13:18:13Z</time>
      </trkpt>
      <trkpt lat="46.3402" lon="5.65418">
        <ele>432.2</ele>
        <time>2022-02-28T13:18:14Z</time>
      </trkpt>
      <trkpt lat="46.34018" lon="5.65419">
        <ele>432.2</ele>
        <time>2022-02-28T13:18:15Z</time>
      </trkpt>
      <trkpt lat="46.34017" lon="5.65421">
        <ele>432.6</ele>
        <time>2022-02-28T13:18:16Z</time>
      </trkpt>
      <trkpt lat="46.34015" lon="5.65422">
        <ele>432.6</ele>
        <time>2022-02-28T13:18:17Z</time>
      </trkpt>
      <trkpt lat="46.34014" lon="5.65423">
        <ele>433</ele>
        <time>2022-02-28T13:18:18Z</time>
      </trkpt>
      <trkpt lat="46.34012" lon="5.65425">
        <ele>433</ele>
        <time>2022-02-28T13:18:19Z</time>
      </trkpt>
      <trkpt lat="46.34011" lon="5.65427">
        <ele>433.4</ele>
        <time>2022-02-28T13:18:20Z</time>
      </trkpt>
      <trkpt lat="46.3401" lon="5.65428">
        <ele>433.4</ele>
        <time>2022-02-28T13:18:21Z</time>
      </trkpt>
      <trkpt lat="46.34008" lon="5.6543">
        <ele>433.8</ele>
        <time>2022-02-28T13:18:22Z</time>
      </trkpt>
      <trkpt lat="46.34007" lon="5.65432">
        <ele>433.8</ele>
        <time>2022-02-28T13:18:23Z</time>
      </trkpt>
      <trkpt lat="46.34005" lon="5.65433">
        <ele>434.2</ele>
        <time>2022-02-28T13:18:24Z</time>
      </trkpt>
      <trkpt lat="46.34004" lon="5.65435">
        <ele>434.4</ele>
        <time>2022-02-28T13:18:25Z</time>
      </trkpt>
      <trkpt lat="46.34003" lon="5.65436">
        <ele>434.4</ele>
        <time>2022-02-28T13:18:26Z</time>
      </trkpt>
      <trkpt lat="46.34001" lon="5.65438">
        <ele>434.8</ele>
        <time>2022-02-28T13:18:27Z</time>
      </trkpt>
      <trkpt lat="46.34" lon="5.65439">
        <ele>434.8</ele>
        <time>2022-02-28T13:18:28Z</time>
      </trkpt>
      <trkpt lat="46.33998" lon="5.6544">
        <ele>435.2</ele>
        <time>2022-02-28T13:18:29Z</time>
      </trkpt>
      <trkpt lat="46.33997" lon="5.65441">
        <ele>435.2</ele>
        <time>2022-02-28T13:18:30Z</time>
      </trkpt>
      <trkpt lat="46.33995" lon="5.65442">
        <ele>435.6</ele>
        <time>2022-02-28T13:18:31Z</time>
      </trkpt>
      <trkpt lat="46.33993" lon="5.65443">
        <ele>435.8</ele>
        <time>2022-02-28T13:18:32Z</time>
      </trkpt>
      <trkpt lat="46.33991" lon="5.65445">
        <ele>435.8</ele>
        <time>2022-02-28T13:18:33Z</time>
      </trkpt>
      <trkpt lat="46.33989" lon="5.65446">
        <ele>436.2</ele>
        <time>2022-02-28T13:18:34Z</time>
      </trkpt>
      <trkpt lat="46.33988" lon="5.65448">
        <ele>436.2</ele>
        <time>2022-02-28T13:18:35Z</time>
      </trkpt>
      <trkpt lat="46.33986" lon="5.65449">
        <ele>436.4</ele>
        <time>2022-02-28T13:18:36Z</time>
      </trkpt>
      <trkpt lat="46.33985" lon="5.65451">
        <ele>436.4</ele>
        <time>2022-02-28T13:18:37Z</time>
      </trkpt>
      <trkpt lat="46.33983" lon="5.65452">
        <ele>436.8</ele>
        <time>2022-02-28T13:18:38Z</time>
      </trkpt>
      <trkpt lat="46.33982" lon="5.65454">
        <ele>436.8</ele>
        <time>2022-02-28T13:18:39Z</time>
      </trkpt>
      <trkpt lat="46.3398" lon="5.65455">
        <ele>437.2</ele>
        <time>2022-02-28T13:18:40Z</time>
      </trkpt>
      <trkpt lat="46.33979" lon="5.65457">
        <ele>437.2</ele>
        <time>2022-02-28T13:18:41Z</time>
      </trkpt>
      <trkpt lat="46.33977" lon="5.65458">
        <ele>437.4</ele>
        <time>2022-02-28T13:18:42Z</time>
      </trkpt>
      <trkpt lat="46.33976" lon="5.65459">
        <ele>437.6</ele>
        <time>2022-02-28T13:18:43Z</time>
      </trkpt>
      <trkpt lat="46.33974" lon="5.65461">
        <ele>437.8</ele>
        <time>2022-02-28T13:18:44Z</time>
      </trkpt>
      <trkpt lat="46.33973" lon="5.65462">
        <ele>438</ele>
        <time>2022-02-28T13:18:45Z</time>
      </trkpt>
      <trkpt lat="46.33971" lon="5.65463">
        <ele>438.4</ele>
        <time>2022-02-28T13:18:46Z</time>
      </trkpt>
      <trkpt lat="46.3397" lon="5.65464">
        <ele>438.4</ele>
        <time>2022-02-28T13:18:47Z</time>
      </trkpt>
      <trkpt lat="46.33968" lon="5.65466">
        <ele>438.8</ele>
        <time>2022-02-28T13:18:48Z</time>
      </trkpt>
      <trkpt lat="46.33967" lon="5.65467">
        <ele>438.8</ele>
        <time>2022-02-28T13:18:49Z</time>
      </trkpt>
      <trkpt lat="46.33965" lon="5.65468">
        <ele>439.2</ele>
        <time>2022-02-28T13:18:50Z</time>
      </trkpt>
      <trkpt lat="46.33963" lon="5.65469">
        <ele>439.4</ele>
        <time>2022-02-28T13:18:51Z</time>
      </trkpt>
      <trkpt lat="46.33962" lon="5.65471">
        <ele>439.6</ele>
        <time>2022-02-28T13:18:52Z</time>
      </trkpt>
      <trkpt lat="46.3396" lon="5.65472">
        <ele>439.8</ele>
        <time>2022-02-28T13:18:53Z</time>
      </trkpt>
      <trkpt lat="46.33958" lon="5.65473">
        <ele>439.8</ele>
        <time>2022-02-28T13:18:54Z</time>
      </trkpt>
      <trkpt lat="46.33957" lon="5.65474">
        <ele>440.2</ele>
        <time>2022-02-28T13:18:55Z</time>
      </trkpt>
      <trkpt lat="46.33957" lon="5.65474">
        <ele>440.4</ele>
        <time>2022-02-28T13:18:56Z</time>
      </trkpt>
      <trkpt lat="46.33955" lon="5.65475">
        <ele>440.6</ele>
        <time>2022-02-28T13:18:57Z</time>
      </trkpt>
      <trkpt lat="46.33953" lon="5.65476">
        <ele>440.8</ele>
        <time>2022-02-28T13:18:58Z</time>
      </trkpt>
      <trkpt lat="46.33952" lon="5.65478">
        <ele>440.8</ele>
        <time>2022-02-28T13:18:59Z</time>
      </trkpt>
      <trkpt lat="46.3395" lon="5.65479">
        <ele>441.2</ele>
        <time>2022-02-28T13:19:00Z</time>
      </trkpt>
      <trkpt lat="46.33948" lon="5.6548">
        <ele>441.4</ele>
        <time>2022-02-28T13:19:01Z</time>
      </trkpt>
      <trkpt lat="46.33946" lon="5.65481">
        <ele>441.4</ele>
        <time>2022-02-28T13:19:02Z</time>
      </trkpt>
      <trkpt lat="46.33944" lon="5.65483">
        <ele>441.8</ele>
        <time>2022-02-28T13:19:03Z</time>
      </trkpt>
      <trkpt lat="46.33942" lon="5.65484">
        <ele>441.8</ele>
        <time>2022-02-28T13:19:04Z</time>
      </trkpt>
      <trkpt lat="46.33941" lon="5.65486">
        <ele>442.2</ele>
        <time>2022-02-28T13:19:05Z</time>
      </trkpt>
      <trkpt lat="46.33939" lon="5.65487">
        <ele>442.4</ele>
        <time>2022-02-28T13:19:06Z</time>
      </trkpt>
      <trkpt lat="46.33938" lon="5.65488">
        <ele>442.6</ele>
        <time>2022-02-28T13:19:07Z</time>
      </trkpt>
      <trkpt lat="46.33936" lon="5.65489">
        <ele>442.6</ele>
        <time>2022-02-28T13:19:08Z</time>
      </trkpt>
      <trkpt lat="46.33934" lon="5.6549">
        <ele>443</ele>
        <time>2022-02-28T13:19:09Z</time>
      </trkpt>
      <trkpt lat="46.33933" lon="5.65492">
        <ele>443.2</ele>
        <time>2022-02-28T13:19:10Z</time>
      </trkpt>
      <trkpt lat="46.33931" lon="5.65493">
        <ele>443.2</ele>
        <time>2022-02-28T13:19:11Z</time>
      </trkpt>
      <trkpt lat="46.33929" lon="5.65493">
        <ele>443.8</ele>
        <time>2022-02-28T13:19:12Z</time>
      </trkpt>
      <trkpt lat="46.33927" lon="5.65494">
        <ele>443.8</ele>
        <time>2022-02-28T13:19:13Z</time>
      </trkpt>
      <trkpt lat="46.33925" lon="5.65495">
        <ele>444.2</ele>
        <time>2022-02-28T13:19:14Z</time>
      </trkpt>
      <trkpt lat="46.33923" lon="5.65496">
        <ele>444.4</ele>
        <time>2022-02-28T13:19:15Z</time>
      </trkpt>
      <trkpt lat="46.33921" lon="5.65496">
        <ele>444.4</ele>
        <time>2022-02-28T13:19:16Z</time>
      </trkpt>
      <trkpt lat="46.33919" lon="5.65497">
        <ele>444.8</ele>
        <time>2022-02-28T13:19:17Z</time>
      </trkpt>
      <trkpt lat="46.33918" lon="5.65499">
        <ele>444.8</ele>
        <time>2022-02-28T13:19:18Z</time>
      </trkpt>
      <trkpt lat="46.33916" lon="5.655">
        <ele>445</ele>
        <time>2022-02-28T13:19:19Z</time>
      </trkpt>
      <trkpt lat="46.33915" lon="5.65501">
        <ele>445</ele>
        <time>2022-02-28T13:19:20Z</time>
      </trkpt>
      <trkpt lat="46.33913" lon="5.65502">
        <ele>445.4</ele>
        <time>2022-02-28T13:19:21Z</time>
      </trkpt>
      <trkpt lat="46.33912" lon="5.65503">
        <ele>445.6</ele>
        <time>2022-02-28T13:19:22Z</time>
      </trkpt>
      <trkpt lat="46.3391" lon="5.65503">
        <ele>445.6</ele>
        <time>2022-02-28T13:19:23Z</time>
      </trkpt>
      <trkpt lat="46.33908" lon="5.65503">
        <ele>446</ele>
        <time>2022-02-28T13:19:24Z</time>
      </trkpt>
      <trkpt lat="46.33907" lon="5.65504">
        <ele>446.4</ele>
        <time>2022-02-28T13:19:25Z</time>
      </trkpt>
      <trkpt lat="46.33905" lon="5.65506">
        <ele>446.4</ele>
        <time>2022-02-28T13:19:26Z</time>
      </trkpt>
      <trkpt lat="46.33904" lon="5.65507">
        <ele>446.8</ele>
        <time>2022-02-28T13:19:27Z</time>
      </trkpt>
      <trkpt lat="46.33902" lon="5.65508">
        <ele>446.8</ele>
        <time>2022-02-28T13:19:28Z</time>
      </trkpt>
      <trkpt lat="46.339" lon="5.65509">
        <ele>447</ele>
        <time>2022-02-28T13:19:29Z</time>
      </trkpt>
      <trkpt lat="46.33898" lon="5.65509">
        <ele>447.2</ele>
        <time>2022-02-28T13:19:30Z</time>
      </trkpt>
      <trkpt lat="46.33897" lon="5.6551">
        <ele>447.4</ele>
        <time>2022-02-28T13:19:31Z</time>
      </trkpt>
      <trkpt lat="46.33895" lon="5.65512">
        <ele>447.4</ele>
        <time>2022-02-28T13:19:32Z</time>
      </trkpt>
      <trkpt lat="46.33894" lon="5.65513">
        <ele>447.8</ele>
        <time>2022-02-28T13:19:33Z</time>
      </trkpt>
      <trkpt lat="46.33892" lon="5.65514">
        <ele>447.8</ele>
        <time>2022-02-28T13:19:34Z</time>
      </trkpt>
      <trkpt lat="46.33891" lon="5.65515">
        <ele>448.2</ele>
        <time>2022-02-28T13:19:35Z</time>
      </trkpt>
      <trkpt lat="46.33889" lon="5.65516">
        <ele>448.2</ele>
        <time>2022-02-28T13:19:36Z</time>
      </trkpt>
      <trkpt lat="46.33888" lon="5.65517">
        <ele>448.6</ele>
        <time>2022-02-28T13:19:37Z</time>
      </trkpt>
      <trkpt lat="46.33886" lon="5.65518">
        <ele>448.8</ele>
        <time>2022-02-28T13:19:38Z</time>
      </trkpt>
      <trkpt lat="46.33885" lon="5.65519">
        <ele>448.8</ele>
        <time>2022-02-28T13:19:39Z</time>
      </trkpt>
      <trkpt lat="46.33883" lon="5.6552">
        <ele>449.2</ele>
        <time>2022-02-28T13:19:40Z</time>
      </trkpt>
      <trkpt lat="46.33882" lon="5.65521">
        <ele>449.2</ele>
        <time>2022-02-28T13:19:41Z</time>
      </trkpt>
      <trkpt lat="46.3388" lon="5.65522">
        <ele>449.4</ele>
        <time>2022-02-28T13:19:42Z</time>
      </trkpt>
      <trkpt lat="46.33878" lon="5.65524">
        <ele>449.6</ele>
        <time>2022-02-28T13:19:43Z</time>
      </trkpt>
      <trkpt lat="46.33876" lon="5.65525">
        <ele>449.8</ele>
        <time>2022-02-28T13:19:44Z</time>
      </trkpt>
      <trkpt lat="46.33874" lon="5.65526">
        <ele>449.8</ele>
        <time>2022-02-28T13:19:45Z</time>
      </trkpt>
      <trkpt lat="46.33872" lon="5.65528">
        <ele>450.2</ele>
        <time>2022-02-28T13:19:46Z</time>
      </trkpt>
      <trkpt lat="46.3387" lon="5.65528">
        <ele>450.4</ele>
        <time>2022-02-28T13:19:47Z</time>
      </trkpt>
      <trkpt lat="46.33868" lon="5.65529">
        <ele>450.6</ele>
        <time>2022-02-28T13:19:48Z</time>
      </trkpt>
      <trkpt lat="46.33866" lon="5.6553">
        <ele>450.8</ele>
        <time>2022-02-28T13:19:49Z</time>
      </trkpt>
      <trkpt lat="46.33863" lon="5.65532">
        <ele>450.8</ele>
        <time>2022-02-28T13:19:50Z</time>
      </trkpt>
      <trkpt lat="46.33861" lon="5.65533">
        <ele>451.2</ele>
        <time>2022-02-28T13:19:51Z</time>
      </trkpt>
      <trkpt lat="46.3386" lon="5.65534">
        <ele>451.4</ele>
        <time>2022-02-28T13:19:52Z</time>
      </trkpt>
      <trkpt lat="46.33858" lon="5.65535">
        <ele>451.4</ele>
        <time>2022-02-28T13:19:53Z</time>
      </trkpt>
      <trkpt lat="46.33856" lon="5.65536">
        <ele>451.8</ele>
        <time>2022-02-28T13:19:54Z</time>
      </trkpt>
      <trkpt lat="46.33855" lon="5.65537">
        <ele>452</ele>
        <time>2022-02-28T13:19:55Z</time>
      </trkpt>
      <trkpt lat="46.33853" lon="5.65538">
        <ele>452</ele>
        <time>2022-02-28T13:19:56Z</time>
      </trkpt>
      <trkpt lat="46.33851" lon="5.65539">
        <ele>452.4</ele>
        <time>2022-02-28T13:19:57Z</time>
      </trkpt>
      <trkpt lat="46.33849" lon="5.65541">
        <ele>452.4</ele>
        <time>2022-02-28T13:19:58Z</time>
      </trkpt>
      <trkpt lat="46.33848" lon="5.65542">
        <ele>453</ele>
        <time>2022-02-28T13:19:59Z</time>
      </trkpt>
      <trkpt lat="46.33846" lon="5.65543">
        <ele>453.2</ele>
        <time>2022-02-28T13:20:00Z</time>
      </trkpt>
      <trkpt lat="46.33845" lon="5.65544">
        <ele>453.4</ele>
        <time>2022-02-28T13:20:01Z</time>
      </trkpt>
      <trkpt lat="46.33843" lon="5.65545">
        <ele>453.4</ele>
        <time>2022-02-28T13:20:02Z</time>
      </trkpt>
      <trkpt lat="46.33842" lon="5.65547">
        <ele>453.8</ele>
        <time>2022-02-28T13:20:03Z</time>
      </trkpt>
      <trkpt lat="46.3384" lon="5.65548">
        <ele>453.8</ele>
        <time>2022-02-28T13:20:04Z</time>
      </trkpt>
      <trkpt lat="46.33838" lon="5.65549">
        <ele>454.2</ele>
        <time>2022-02-28T13:20:05Z</time>
      </trkpt>
      <trkpt lat="46.33837" lon="5.65551">
        <ele>454.4</ele>
        <time>2022-02-28T13:20:06Z</time>
      </trkpt>
      <trkpt lat="46.33835" lon="5.65552">
        <ele>454.4</ele>
        <time>2022-02-28T13:20:07Z</time>
      </trkpt>
      <trkpt lat="46.33834" lon="5.65553">
        <ele>454.8</ele>
        <time>2022-02-28T13:20:08Z</time>
      </trkpt>
      <trkpt lat="46.33832" lon="5.65554">
        <ele>455</ele>
        <time>2022-02-28T13:20:09Z</time>
      </trkpt>
      <trkpt lat="46.3383" lon="5.65555">
        <ele>455.2</ele>
        <time>2022-02-28T13:20:10Z</time>
      </trkpt>
      <trkpt lat="46.33826" lon="5.65557">
        <ele>455.2</ele>
        <time>2022-02-28T13:20:11Z</time>
      </trkpt>
      <trkpt lat="46.33824" lon="5.65558">
        <ele>455.6</ele>
        <time>2022-02-28T13:20:12Z</time>
      </trkpt>
      <trkpt lat="46.33822" lon="5.65559">
        <ele>455.8</ele>
        <time>2022-02-28T13:20:13Z</time>
      </trkpt>
      <trkpt lat="46.33821" lon="5.6556">
        <ele>455.8</ele>
        <time>2022-02-28T13:20:14Z</time>
      </trkpt>
      <trkpt lat="46.33819" lon="5.65561">
        <ele>456.2</ele>
        <time>2022-02-28T13:20:15Z</time>
      </trkpt>
      <trkpt lat="46.33817" lon="5.65561">
        <ele>456.4</ele>
        <time>2022-02-28T13:20:16Z</time>
      </trkpt>
      <trkpt lat="46.33815" lon="5.65562">
        <ele>456.4</ele>
        <time>2022-02-28T13:20:17Z</time>
      </trkpt>
      <trkpt lat="46.33813" lon="5.65562">
        <ele>456.8</ele>
        <time>2022-02-28T13:20:18Z</time>
      </trkpt>
      <trkpt lat="46.33811" lon="5.65562">
        <ele>457</ele>
        <time>2022-02-28T13:20:19Z</time>
      </trkpt>
      <trkpt lat="46.3381" lon="5.65563">
        <ele>457</ele>
        <time>2022-02-28T13:20:20Z</time>
      </trkpt>
      <trkpt lat="46.33808" lon="5.65563">
        <ele>457.4</ele>
        <time>2022-02-28T13:20:21Z</time>
      </trkpt>
      <trkpt lat="46.33806" lon="5.65563">
        <ele>457.4</ele>
        <time>2022-02-28T13:20:22Z</time>
      </trkpt>
      <trkpt lat="46.33804" lon="5.65563">
        <ele>457.8</ele>
        <time>2022-02-28T13:20:23Z</time>
      </trkpt>
      <trkpt lat="46.33802" lon="5.65562">
        <ele>458</ele>
        <time>2022-02-28T13:20:24Z</time>
      </trkpt>
      <trkpt lat="46.338" lon="5.65562">
        <ele>458.4</ele>
        <time>2022-02-28T13:20:25Z</time>
      </trkpt>
      <trkpt lat="46.33798" lon="5.65562">
        <ele>458.6</ele>
        <time>2022-02-28T13:20:26Z</time>
      </trkpt>
      <trkpt lat="46.33795" lon="5.65562">
        <ele>459</ele>
        <time>2022-02-28T13:20:27Z</time>
      </trkpt>
      <trkpt lat="46.33793" lon="5.65561">
        <ele>459.2</ele>
        <time>2022-02-28T13:20:28Z</time>
      </trkpt>
      <trkpt lat="46.33791" lon="5.65561">
        <ele>459.4</ele>
        <time>2022-02-28T13:20:29Z</time>
      </trkpt>
      <trkpt lat="46.33789" lon="5.6556">
        <ele>459.8</ele>
        <time>2022-02-28T13:20:30Z</time>
      </trkpt>
      <trkpt lat="46.33786" lon="5.6556">
        <ele>460</ele>
        <time>2022-02-28T13:20:31Z</time>
      </trkpt>
      <trkpt lat="46.33784" lon="5.6556">
        <ele>460.2</ele>
        <time>2022-02-28T13:20:32Z</time>
      </trkpt>
      <trkpt lat="46.33782" lon="5.65559">
        <ele>460.6</ele>
        <time>2022-02-28T13:20:33Z</time>
      </trkpt>
      <trkpt lat="46.3378" lon="5.65559">
        <ele>461</ele>
        <time>2022-02-28T13:20:34Z</time>
      </trkpt>
      <trkpt lat="46.33778" lon="5.65559">
        <ele>461.2</ele>
        <time>2022-02-28T13:20:35Z</time>
      </trkpt>
      <trkpt lat="46.33777" lon="5.6556">
        <ele>461.4</ele>
        <time>2022-02-28T13:20:36Z</time>
      </trkpt>
      <trkpt lat="46.33775" lon="5.65561">
        <ele>461.8</ele>
        <time>2022-02-28T13:20:37Z</time>
      </trkpt>
      <trkpt lat="46.33774" lon="5.65562">
        <ele>462.2</ele>
        <time>2022-02-28T13:20:38Z</time>
      </trkpt>
      <trkpt lat="46.33773" lon="5.65565">
        <ele>462.4</ele>
        <time>2022-02-28T13:20:39Z</time>
      </trkpt>
      <trkpt lat="46.33774" lon="5.65568">
        <ele>462.8</ele>
        <time>2022-02-28T13:20:40Z</time>
      </trkpt>
      <trkpt lat="46.33775" lon="5.6557">
        <ele>463</ele>
        <time>2022-02-28T13:20:41Z</time>
      </trkpt>
      <trkpt lat="46.33776" lon="5.65572">
        <ele>463.2</ele>
        <time>2022-02-28T13:20:42Z</time>
      </trkpt>
      <trkpt lat="46.33778" lon="5.65574">
        <ele>463.6</ele>
        <time>2022-02-28T13:20:43Z</time>
      </trkpt>
      <trkpt lat="46.3378" lon="5.65575">
        <ele>463.8</ele>
        <time>2022-02-28T13:20:44Z</time>
      </trkpt>
      <trkpt lat="46.33781" lon="5.65576">
        <ele>464</ele>
        <time>2022-02-28T13:20:45Z</time>
      </trkpt>
      <trkpt lat="46.33783" lon="5.65576">
        <ele>464.4</ele>
        <time>2022-02-28T13:20:46Z</time>
      </trkpt>
      <trkpt lat="46.33785" lon="5.65577">
        <ele>464.6</ele>
        <time>2022-02-28T13:20:47Z</time>
      </trkpt>
      <trkpt lat="46.33787" lon="5.65578">
        <ele>464.6</ele>
        <time>2022-02-28T13:20:48Z</time>
      </trkpt>
      <trkpt lat="46.33789" lon="5.65578">
        <ele>465</ele>
        <time>2022-02-28T13:20:49Z</time>
      </trkpt>
      <trkpt lat="46.33791" lon="5.65579">
        <ele>465.2</ele>
        <time>2022-02-28T13:20:50Z</time>
      </trkpt>
      <trkpt lat="46.33793" lon="5.65579">
        <ele>465.2</ele>
        <time>2022-02-28T13:20:51Z</time>
      </trkpt>
      <trkpt lat="46.33795" lon="5.65578">
        <ele>465.4</ele>
        <time>2022-02-28T13:20:52Z</time>
      </trkpt>
      <trkpt lat="46.33798" lon="5.65578">
        <ele>465.6</ele>
        <time>2022-02-28T13:20:53Z</time>
      </trkpt>
      <trkpt lat="46.338" lon="5.65578">
        <ele>465.6</ele>
        <time>2022-02-28T13:20:54Z</time>
      </trkpt>
      <trkpt lat="46.33802" lon="5.65578">
        <ele>466</ele>
        <time>2022-02-28T13:20:55Z</time>
      </trkpt>
      <trkpt lat="46.33804" lon="5.65579">
        <ele>466.2</ele>
        <time>2022-02-28T13:20:56Z</time>
      </trkpt>
      <trkpt lat="46.33806" lon="5.65579">
        <ele>466.2</ele>
        <time>2022-02-28T13:20:57Z</time>
      </trkpt>
      <trkpt lat="46.33807" lon="5.65578">
        <ele>466.4</ele>
        <time>2022-02-28T13:20:58Z</time>
      </trkpt>
      <trkpt lat="46.33809" lon="5.65578">
        <ele>466.4</ele>
        <time>2022-02-28T13:20:59Z</time>
      </trkpt>
      <trkpt lat="46.3381" lon="5.65578">
        <ele>466.8</ele>
        <time>2022-02-28T13:21:00Z</time>
      </trkpt>
      <trkpt lat="46.3381" lon="5.65577">
        <ele>466.8</ele>
        <time>2022-02-28T13:21:01Z</time>
      </trkpt>
      <trkpt lat="46.3381" lon="5.65576">
        <ele>467</ele>
        <time>2022-02-28T13:21:02Z</time>
      </trkpt>
      <trkpt lat="46.3381" lon="5.65576">
        <ele>467</ele>
        <time>2022-02-28T13:21:03Z</time>
      </trkpt>
      <trkpt lat="46.3381" lon="5.65576">
        <ele>467.2</ele>
        <time>2022-02-28T13:21:12Z</time>
      </trkpt>
      <trkpt lat="46.3381" lon="5.65576">
        <ele>467.2</ele>
        <time>2022-02-28T13:21:13Z</time>
      </trkpt>
      <trkpt lat="46.3381" lon="5.65576">
        <ele>467.2</ele>
        <time>2022-02-28T13:21:14Z</time>
      </trkpt>
      <trkpt lat="46.3381" lon="5.65576">
        <ele>467.2</ele>
        <time>2022-02-28T13:21:15Z</time>
      </trkpt>
      <trkpt lat="46.3381" lon="5.65576">
        <ele>467.2</ele>
        <time>2022-02-28T13:21:16Z</time>
      </trkpt>
      <trkpt lat="46.3381" lon="5.65576">
        <ele>467.2</ele>
        <time>2022-02-28T13:21:17Z</time>
      </trkpt>
      <trkpt lat="46.3381" lon="5.65576">
        <ele>467.2</ele>
        <time>2022-02-28T13:21:18Z</time>
      </trkpt>
      <trkpt lat="46.3381" lon="5.65576">
        <ele>467.2</ele>
        <time>2022-02-28T13:21:44Z</time>
      </trkpt>
      <trkpt lat="46.3381" lon="5.65576">
        <ele>467.2</ele>
        <time>2022-02-28T13:21:45Z</time>
      </trkpt>
      <trkpt lat="46.3381" lon="5.65576">
        <ele>467.2</ele>
        <time>2022-02-28T13:21:46Z</time>
      </trkpt>
      <trkpt lat="46.3381" lon="5.65576">
        <ele>467.2</ele>
        <time>2022-02-28T13:21:47Z</time>
      </trkpt>
      <trkpt lat="46.3381" lon="5.65576">
        <ele>467.2</ele>
        <time>2022-02-28T13:21:48Z</time>
      </trkpt>
      <trkpt lat="46.3381" lon="5.65576">
        <ele>467.2</ele>
        <time>2022-02-28T13:21:50Z</time>
      </trkpt>
      <trkpt lat="46.3381" lon="5.65576">
        <ele>467.4</ele>
        <time>2022-02-28T13:21:51Z</time>
      </trkpt>
      <trkpt lat="46.3381" lon="5.65576">
        <ele>467.4</ele>
        <time>2022-02-28T13:21:52Z</time>
      </trkpt>
      <trkpt lat="46.3381" lon="5.65576">
        <ele>467.4</ele>
        <time>2022-02-28T13:21:53Z</time>
      </trkpt>
      <trkpt lat="46.33812" lon="5.65575">
        <ele>467.4</ele>
        <time>2022-02-28T13:21:54Z</time>
      </trkpt>
      <trkpt lat="46.33814" lon="5.65575">
        <ele>467.4</ele>
        <time>2022-02-28T13:21:55Z</time>
      </trkpt>
      <trkpt lat="46.33815" lon="5.65576">
        <ele>467.6</ele>
        <time>2022-02-28T13:21:56Z</time>
      </trkpt>
      <trkpt lat="46.33817" lon="5.65576">
        <ele>467.6</ele>
        <time>2022-02-28T13:21:57Z</time>
      </trkpt>
      <trkpt lat="46.33818" lon="5.65576">
        <ele>467.6</ele>
        <time>2022-02-28T13:21:58Z</time>
      </trkpt>
      <trkpt lat="46.3382" lon="5.65575">
        <ele>468</ele>
        <time>2022-02-28T13:21:59Z</time>
      </trkpt>
      <trkpt lat="46.33822" lon="5.65574">
        <ele>468</ele>
        <time>2022-02-28T13:22:00Z</time>
      </trkpt>
      <trkpt lat="46.33823" lon="5.65573">
        <ele>468.2</ele>
        <time>2022-02-28T13:22:01Z</time>
      </trkpt>
      <trkpt lat="46.33825" lon="5.65572">
        <ele>468.4</ele>
        <time>2022-02-28T13:22:02Z</time>
      </trkpt>
      <trkpt lat="46.33827" lon="5.65572">
        <ele>468.4</ele>
        <time>2022-02-28T13:22:03Z</time>
      </trkpt>
      <trkpt lat="46.33829" lon="5.65571">
        <ele>468.8</ele>
        <time>2022-02-28T13:22:04Z</time>
      </trkpt>
      <trkpt lat="46.33831" lon="5.65571">
        <ele>468.8</ele>
        <time>2022-02-28T13:22:05Z</time>
      </trkpt>
      <trkpt lat="46.33832" lon="5.6557">
        <ele>469.2</ele>
        <time>2022-02-28T13:22:06Z</time>
      </trkpt>
      <trkpt lat="46.33834" lon="5.6557">
        <ele>469.4</ele>
        <time>2022-02-28T13:22:07Z</time>
      </trkpt>
      <trkpt lat="46.33836" lon="5.65569">
        <ele>469.8</ele>
        <time>2022-02-28T13:22:08Z</time>
      </trkpt>
      <trkpt lat="46.33838" lon="5.65569">
        <ele>470</ele>
        <time>2022-02-28T13:22:09Z</time>
      </trkpt>
      <trkpt lat="46.3384" lon="5.65568">
        <ele>470.4</ele>
        <time>2022-02-28T13:22:10Z</time>
      </trkpt>
      <trkpt lat="46.33841" lon="5.65567">
        <ele>470.6</ele>
        <time>2022-02-28T13:22:11Z</time>
      </trkpt>
      <trkpt lat="46.33843" lon="5.65566">
        <ele>470.6</ele>
        <time>2022-02-28T13:22:12Z</time>
      </trkpt>
      <trkpt lat="46.33845" lon="5.65565">
        <ele>471</ele>
        <time>2022-02-28T13:22:13Z</time>
      </trkpt>
      <trkpt lat="46.33847" lon="5.65565">
        <ele>471.2</ele>
        <time>2022-02-28T13:22:14Z</time>
      </trkpt>
      <trkpt lat="46.3385" lon="5.65565">
        <ele>471.4</ele>
        <time>2022-02-28T13:22:15Z</time>
      </trkpt>
      <trkpt lat="46.33852" lon="5.65565">
        <ele>471.6</ele>
        <time>2022-02-28T13:22:16Z</time>
      </trkpt>
      <trkpt lat="46.33854" lon="5.65565">
        <ele>472</ele>
        <time>2022-02-28T13:22:17Z</time>
      </trkpt>
      <trkpt lat="46.33856" lon="5.65564">
        <ele>472.2</ele>
        <time>2022-02-28T13:22:18Z</time>
      </trkpt>
      <trkpt lat="46.33858" lon="5.65564">
        <ele>472.4</ele>
        <time>2022-02-28T13:22:19Z</time>
      </trkpt>
      <trkpt lat="46.3386" lon="5.65563">
        <ele>472.6</ele>
        <time>2022-02-28T13:22:20Z</time>
      </trkpt>
      <trkpt lat="46.33862" lon="5.65563">
        <ele>472.8</ele>
        <time>2022-02-28T13:22:21Z</time>
      </trkpt>
      <trkpt lat="46.33864" lon="5.65563">
        <ele>473.2</ele>
        <time>2022-02-28T13:22:22Z</time>
      </trkpt>
      <trkpt lat="46.33866" lon="5.65562">
        <ele>473.2</ele>
        <time>2022-02-28T13:22:23Z</time>
      </trkpt>
      <trkpt lat="46.33867" lon="5.65562">
        <ele>473.4</ele>
        <time>2022-02-28T13:22:24Z</time>
      </trkpt>
      <trkpt lat="46.33869" lon="5.65562">
        <ele>473.8</ele>
        <time>2022-02-28T13:22:25Z</time>
      </trkpt>
      <trkpt lat="46.33871" lon="5.65562">
        <ele>473.8</ele>
        <time>2022-02-28T13:22:26Z</time>
      </trkpt>
      <trkpt lat="46.33873" lon="5.65562">
        <ele>474.2</ele>
        <time>2022-02-28T13:22:27Z</time>
      </trkpt>
      <trkpt lat="46.33875" lon="5.65561">
        <ele>474.2</ele>
        <time>2022-02-28T13:22:28Z</time>
      </trkpt>
      <trkpt lat="46.33877" lon="5.6556">
        <ele>474.4</ele>
        <time>2022-02-28T13:22:29Z</time>
      </trkpt>
      <trkpt lat="46.33879" lon="5.65559">
        <ele>474.4</ele>
        <time>2022-02-28T13:22:30Z</time>
      </trkpt>
      <trkpt lat="46.33881" lon="5.65559">
        <ele>475</ele>
        <time>2022-02-28T13:22:31Z</time>
      </trkpt>
      <trkpt lat="46.33884" lon="5.65558">
        <ele>475.2</ele>
        <time>2022-02-28T13:22:32Z</time>
      </trkpt>
      <trkpt lat="46.33886" lon="5.65558">
        <ele>475.4</ele>
        <time>2022-02-28T13:22:33Z</time>
      </trkpt>
      <trkpt lat="46.33888" lon="5.65558">
        <ele>475.4</ele>
        <time>2022-02-28T13:22:34Z</time>
      </trkpt>
      <trkpt lat="46.3389" lon="5.65558">
        <ele>475.8</ele>
        <time>2022-02-28T13:22:35Z</time>
      </trkpt>
      <trkpt lat="46.33892" lon="5.65558">
        <ele>475.8</ele>
        <time>2022-02-28T13:22:36Z</time>
      </trkpt>
      <trkpt lat="46.33894" lon="5.65557">
        <ele>476.2</ele>
        <time>2022-02-28T13:22:37Z</time>
      </trkpt>
      <trkpt lat="46.33896" lon="5.65557">
        <ele>476.4</ele>
        <time>2022-02-28T13:22:38Z</time>
      </trkpt>
      <trkpt lat="46.33898" lon="5.65557">
        <ele>476.6</ele>
        <time>2022-02-28T13:22:39Z</time>
      </trkpt>
      <trkpt lat="46.339" lon="5.65557">
        <ele>477</ele>
        <time>2022-02-28T13:22:40Z</time>
      </trkpt>
      <trkpt lat="46.33902" lon="5.65557">
        <ele>477</ele>
        <time>2022-02-28T13:22:41Z</time>
      </trkpt>
      <trkpt lat="46.33904" lon="5.65556">
        <ele>477.2</ele>
        <time>2022-02-28T13:22:42Z</time>
      </trkpt>
      <trkpt lat="46.33906" lon="5.65556">
        <ele>477.6</ele>
        <time>2022-02-28T13:22:43Z</time>
      </trkpt>
      <trkpt lat="46.33908" lon="5.65556">
        <ele>477.8</ele>
        <time>2022-02-28T13:22:44Z</time>
      </trkpt>
      <trkpt lat="46.3391" lon="5.65556">
        <ele>478</ele>
        <time>2022-02-28T13:22:45Z</time>
      </trkpt>
      <trkpt lat="46.33911" lon="5.65556">
        <ele>478</ele>
        <time>2022-02-28T13:22:46Z</time>
      </trkpt>
      <trkpt lat="46.33913" lon="5.65556">
        <ele>478.4</ele>
        <time>2022-02-28T13:22:47Z</time>
      </trkpt>
      <trkpt lat="46.33915" lon="5.65555">
        <ele>478.6</ele>
        <time>2022-02-28T13:22:48Z</time>
      </trkpt>
      <trkpt lat="46.33917" lon="5.65555">
        <ele>478.6</ele>
        <time>2022-02-28T13:22:49Z</time>
      </trkpt>
      <trkpt lat="46.33919" lon="5.65555">
        <ele>479</ele>
        <time>2022-02-28T13:22:50Z</time>
      </trkpt>
      <trkpt lat="46.3392" lon="5.65554">
        <ele>479</ele>
        <time>2022-02-28T13:22:51Z</time>
      </trkpt>
      <trkpt lat="46.33922" lon="5.65554">
        <ele>479.4</ele>
        <time>2022-02-28T13:22:52Z</time>
      </trkpt>
      <trkpt lat="46.33924" lon="5.65554">
        <ele>479.6</ele>
        <time>2022-02-28T13:22:53Z</time>
      </trkpt>
      <trkpt lat="46.33926" lon="5.65554">
        <ele>479.6</ele>
        <time>2022-02-28T13:22:54Z</time>
      </trkpt>
      <trkpt lat="46.33928" lon="5.65554">
        <ele>480</ele>
        <time>2022-02-28T13:22:55Z</time>
      </trkpt>
      <trkpt lat="46.3393" lon="5.65553">
        <ele>480</ele>
        <time>2022-02-28T13:22:56Z</time>
      </trkpt>
      <trkpt lat="46.33932" lon="5.65552">
        <ele>480.4</ele>
        <time>2022-02-28T13:22:57Z</time>
      </trkpt>
      <trkpt lat="46.33934" lon="5.65552">
        <ele>480.6</ele>
        <time>2022-02-28T13:22:58Z</time>
      </trkpt>
      <trkpt lat="46.33935" lon="5.65552">
        <ele>480.8</ele>
        <time>2022-02-28T13:22:59Z</time>
      </trkpt>
      <trkpt lat="46.33937" lon="5.65552">
        <ele>481</ele>
        <time>2022-02-28T13:23:00Z</time>
      </trkpt>
      <trkpt lat="46.33939" lon="5.65551">
        <ele>481.4</ele>
        <time>2022-02-28T13:23:01Z</time>
      </trkpt>
      <trkpt lat="46.33941" lon="5.6555">
        <ele>481.6</ele>
        <time>2022-02-28T13:23:02Z</time>
      </trkpt>
      <trkpt lat="46.33943" lon="5.6555">
        <ele>481.8</ele>
        <time>2022-02-28T13:23:03Z</time>
      </trkpt>
      <trkpt lat="46.33945" lon="5.65549">
        <ele>482.2</ele>
        <time>2022-02-28T13:23:04Z</time>
      </trkpt>
      <trkpt lat="46.33947" lon="5.65548">
        <ele>482.4</ele>
        <time>2022-02-28T13:23:05Z</time>
      </trkpt>
      <trkpt lat="46.33949" lon="5.65548">
        <ele>482.4</ele>
        <time>2022-02-28T13:23:06Z</time>
      </trkpt>
      <trkpt lat="46.33951" lon="5.65548">
        <ele>482.8</ele>
        <time>2022-02-28T13:23:07Z</time>
      </trkpt>
      <trkpt lat="46.33953" lon="5.65547">
        <ele>482.8</ele>
        <time>2022-02-28T13:23:08Z</time>
      </trkpt>
      <trkpt lat="46.33955" lon="5.65547">
        <ele>483.2</ele>
        <time>2022-02-28T13:23:09Z</time>
      </trkpt>
      <trkpt lat="46.33957" lon="5.65546">
        <ele>483.2</ele>
        <time>2022-02-28T13:23:10Z</time>
      </trkpt>
      <trkpt lat="46.33959" lon="5.65546">
        <ele>483.4</ele>
        <time>2022-02-28T13:23:11Z</time>
      </trkpt>
      <trkpt lat="46.33961" lon="5.65545">
        <ele>483.4</ele>
        <time>2022-02-28T13:23:12Z</time>
      </trkpt>
      <trkpt lat="46.33963" lon="5.65544">
        <ele>483.8</ele>
        <time>2022-02-28T13:23:13Z</time>
      </trkpt>
      <trkpt lat="46.33965" lon="5.65543">
        <ele>484</ele>
        <time>2022-02-28T13:23:14Z</time>
      </trkpt>
      <trkpt lat="46.33967" lon="5.65542">
        <ele>484.4</ele>
        <time>2022-02-28T13:23:15Z</time>
      </trkpt>
      <trkpt lat="46.33969" lon="5.65542">
        <ele>484.6</ele>
        <time>2022-02-28T13:23:16Z</time>
      </trkpt>
      <trkpt lat="46.33971" lon="5.65541">
        <ele>484.8</ele>
        <time>2022-02-28T13:23:17Z</time>
      </trkpt>
      <trkpt lat="46.33974" lon="5.65541">
        <ele>485</ele>
        <time>2022-02-28T13:23:18Z</time>
      </trkpt>
      <trkpt lat="46.33976" lon="5.6554">
        <ele>485.4</ele>
        <time>2022-02-28T13:23:19Z</time>
      </trkpt>
      <trkpt lat="46.33977" lon="5.65539">
        <ele>485.8</ele>
        <time>2022-02-28T13:23:20Z</time>
      </trkpt>
      <trkpt lat="46.33979" lon="5.65539">
        <ele>486</ele>
        <time>2022-02-28T13:23:21Z</time>
      </trkpt>
      <trkpt lat="46.33981" lon="5.65539">
        <ele>486.2</ele>
        <time>2022-02-28T13:23:22Z</time>
      </trkpt>
      <trkpt lat="46.33984" lon="5.65539">
        <ele>486.6</ele>
        <time>2022-02-28T13:23:23Z</time>
      </trkpt>
      <trkpt lat="46.33986" lon="5.65538">
        <ele>486.8</ele>
        <time>2022-02-28T13:23:24Z</time>
      </trkpt>
      <trkpt lat="46.33988" lon="5.65538">
        <ele>487</ele>
        <time>2022-02-28T13:23:25Z</time>
      </trkpt>
      <trkpt lat="46.3399" lon="5.65537">
        <ele>487.2</ele>
        <time>2022-02-28T13:23:26Z</time>
      </trkpt>
      <trkpt lat="46.33992" lon="5.65536">
        <ele>487.6</ele>
        <time>2022-02-28T13:23:27Z</time>
      </trkpt>
      <trkpt lat="46.33994" lon="5.65536">
        <ele>487.8</ele>
        <time>2022-02-28T13:23:28Z</time>
      </trkpt>
      <trkpt lat="46.33996" lon="5.65535">
        <ele>488</ele>
        <time>2022-02-28T13:23:29Z</time>
      </trkpt>
      <trkpt lat="46.33998" lon="5.65535">
        <ele>488.2</ele>
        <time>2022-02-28T13:23:30Z</time>
      </trkpt>
      <trkpt lat="46.34001" lon="5.65534">
        <ele>488.4</ele>
        <time>2022-02-28T13:23:31Z</time>
      </trkpt>
      <trkpt lat="46.34003" lon="5.65534">
        <ele>488.8</ele>
        <time>2022-02-28T13:23:32Z</time>
      </trkpt>
      <trkpt lat="46.34004" lon="5.65533">
        <ele>488.8</ele>
        <time>2022-02-28T13:23:33Z</time>
      </trkpt>
      <trkpt lat="46.34006" lon="5.65532">
        <ele>489.2</ele>
        <time>2022-02-28T13:23:34Z</time>
      </trkpt>
      <trkpt lat="46.34008" lon="5.65531">
        <ele>489.4</ele>
        <time>2022-02-28T13:23:35Z</time>
      </trkpt>
      <trkpt lat="46.3401" lon="5.6553">
        <ele>489.6</ele>
        <time>2022-02-28T13:23:36Z</time>
      </trkpt>
      <trkpt lat="46.34012" lon="5.65529">
        <ele>490</ele>
        <time>2022-02-28T13:23:37Z</time>
      </trkpt>
      <trkpt lat="46.34014" lon="5.65529">
        <ele>490</ele>
        <time>2022-02-28T13:23:38Z</time>
      </trkpt>
      <trkpt lat="46.34016" lon="5.65527">
        <ele>490.4</ele>
        <time>2022-02-28T13:23:39Z</time>
      </trkpt>
      <trkpt lat="46.34018" lon="5.65527">
        <ele>490.6</ele>
        <time>2022-02-28T13:23:40Z</time>
      </trkpt>
      <trkpt lat="46.3402" lon="5.65526">
        <ele>490.8</ele>
        <time>2022-02-28T13:23:41Z</time>
      </trkpt>
      <trkpt lat="46.34022" lon="5.65526">
        <ele>491.2</ele>
        <time>2022-02-28T13:23:42Z</time>
      </trkpt>
      <trkpt lat="46.34024" lon="5.65525">
        <ele>491.4</ele>
        <time>2022-02-28T13:23:43Z</time>
      </trkpt>
      <trkpt lat="46.34026" lon="5.65524">
        <ele>491.6</ele>
        <time>2022-02-28T13:23:44Z</time>
      </trkpt>
      <trkpt lat="46.34028" lon="5.65524">
        <ele>491.8</ele>
        <time>2022-02-28T13:23:45Z</time>
      </trkpt>
      <trkpt lat="46.3403" lon="5.65523">
        <ele>492.2</ele>
        <time>2022-02-28T13:23:46Z</time>
      </trkpt>
      <trkpt lat="46.34032" lon="5.65522">
        <ele>492.4</ele>
        <time>2022-02-28T13:23:47Z</time>
      </trkpt>
      <trkpt lat="46.34034" lon="5.65521">
        <ele>492.6</ele>
        <time>2022-02-28T13:23:48Z</time>
      </trkpt>
      <trkpt lat="46.34036" lon="5.65521">
        <ele>492.6</ele>
        <time>2022-02-28T13:23:49Z</time>
      </trkpt>
      <trkpt lat="46.34038" lon="5.6552">
        <ele>493</ele>
        <time>2022-02-28T13:23:50Z</time>
      </trkpt>
      <trkpt lat="46.3404" lon="5.65519">
        <ele>493.2</ele>
        <time>2022-02-28T13:23:51Z</time>
      </trkpt>
      <trkpt lat="46.34042" lon="5.65518">
        <ele>493.2</ele>
        <time>2022-02-28T13:23:52Z</time>
      </trkpt>
      <trkpt lat="46.34044" lon="5.65516">
        <ele>493.6</ele>
        <time>2022-02-28T13:23:53Z</time>
      </trkpt>
      <trkpt lat="46.34046" lon="5.65515">
        <ele>493.6</ele>
        <time>2022-02-28T13:23:54Z</time>
      </trkpt>
      <trkpt lat="46.34048" lon="5.65514">
        <ele>494</ele>
        <time>2022-02-28T13:23:55Z</time>
      </trkpt>
      <trkpt lat="46.3405" lon="5.65514">
        <ele>494.2</ele>
        <time>2022-02-28T13:23:56Z</time>
      </trkpt>
      <trkpt lat="46.34052" lon="5.65513">
        <ele>494.2</ele>
        <time>2022-02-28T13:23:57Z</time>
      </trkpt>
      <trkpt lat="46.34054" lon="5.65513">
        <ele>494.6</ele>
        <time>2022-02-28T13:23:58Z</time>
      </trkpt>
      <trkpt lat="46.34056" lon="5.65512">
        <ele>494.8</ele>
        <time>2022-02-28T13:23:59Z</time>
      </trkpt>
      <trkpt lat="46.34058" lon="5.6551">
        <ele>494.8</ele>
        <time>2022-02-28T13:24:00Z</time>
      </trkpt>
      <trkpt lat="46.3406" lon="5.65509">
        <ele>495.4</ele>
        <time>2022-02-28T13:24:01Z</time>
      </trkpt>
      <trkpt lat="46.34062" lon="5.65508">
        <ele>495.6</ele>
        <time>2022-02-28T13:24:02Z</time>
      </trkpt>
      <trkpt lat="46.34064" lon="5.65507">
        <ele>495.8</ele>
        <time>2022-02-28T13:24:03Z</time>
      </trkpt>
      <trkpt lat="46.34066" lon="5.65506">
        <ele>496</ele>
        <time>2022-02-28T13:24:04Z</time>
      </trkpt>
      <trkpt lat="46.34068" lon="5.65505">
        <ele>496.2</ele>
        <time>2022-02-28T13:24:05Z</time>
      </trkpt>
      <trkpt lat="46.3407" lon="5.65505">
        <ele>496.6</ele>
        <time>2022-02-28T13:24:06Z</time>
      </trkpt>
      <trkpt lat="46.34072" lon="5.65504">
        <ele>496.8</ele>
        <time>2022-02-28T13:24:07Z</time>
      </trkpt>
      <trkpt lat="46.34074" lon="5.65504">
        <ele>497</ele>
        <time>2022-02-28T13:24:08Z</time>
      </trkpt>
      <trkpt lat="46.34076" lon="5.65503">
        <ele>497.2</ele>
        <time>2022-02-28T13:24:09Z</time>
      </trkpt>
      <trkpt lat="46.34078" lon="5.65502">
        <ele>497.6</ele>
        <time>2022-02-28T13:24:10Z</time>
      </trkpt>
      <trkpt lat="46.3408" lon="5.65501">
        <ele>497.8</ele>
        <time>2022-02-28T13:24:11Z</time>
      </trkpt>
      <trkpt lat="46.34082" lon="5.655">
        <ele>498</ele>
        <time>2022-02-28T13:24:12Z</time>
      </trkpt>
      <trkpt lat="46.34084" lon="5.65499">
        <ele>498.2</ele>
        <time>2022-02-28T13:24:13Z</time>
      </trkpt>
      <trkpt lat="46.34086" lon="5.65498">
        <ele>498.4</ele>
        <time>2022-02-28T13:24:14Z</time>
      </trkpt>
      <trkpt lat="46.34088" lon="5.65498">
        <ele>498.8</ele>
        <time>2022-02-28T13:24:15Z</time>
      </trkpt>
      <trkpt lat="46.3409" lon="5.65498">
        <ele>499</ele>
        <time>2022-02-28T13:24:16Z</time>
      </trkpt>
      <trkpt lat="46.34092" lon="5.65497">
        <ele>499.4</ele>
        <time>2022-02-28T13:24:17Z</time>
      </trkpt>
      <trkpt lat="46.34094" lon="5.65496">
        <ele>499.6</ele>
        <time>2022-02-28T13:24:18Z</time>
      </trkpt>
      <trkpt lat="46.34096" lon="5.65496">
        <ele>499.8</ele>
        <time>2022-02-28T13:24:19Z</time>
      </trkpt>
      <trkpt lat="46.34098" lon="5.65495">
        <ele>500.2</ele>
        <time>2022-02-28T13:24:20Z</time>
      </trkpt>
      <trkpt lat="46.341" lon="5.65494">
        <ele>500.4</ele>
        <time>2022-02-28T13:24:21Z</time>
      </trkpt>
      <trkpt lat="46.34102" lon="5.65494">
        <ele>500.8</ele>
        <time>2022-02-28T13:24:22Z</time>
      </trkpt>
      <trkpt lat="46.34103" lon="5.65494">
        <ele>501</ele>
        <time>2022-02-28T13:24:23Z</time>
      </trkpt>
      <trkpt lat="46.34105" lon="5.65493">
        <ele>501.2</ele>
        <time>2022-02-28T13:24:24Z</time>
      </trkpt>
      <trkpt lat="46.34107" lon="5.65492">
        <ele>501.6</ele>
        <time>2022-02-28T13:24:25Z</time>
      </trkpt>
      <trkpt lat="46.34108" lon="5.6549">
        <ele>501.8</ele>
        <time>2022-02-28T13:24:26Z</time>
      </trkpt>
      <trkpt lat="46.3411" lon="5.65489">
        <ele>502</ele>
        <time>2022-02-28T13:24:27Z</time>
      </trkpt>
      <trkpt lat="46.34112" lon="5.65488">
        <ele>502.2</ele>
        <time>2022-02-28T13:24:28Z</time>
      </trkpt>
      <trkpt lat="46.34113" lon="5.65486">
        <ele>502.6</ele>
        <time>2022-02-28T13:24:29Z</time>
      </trkpt>
      <trkpt lat="46.34115" lon="5.65485">
        <ele>502.8</ele>
        <time>2022-02-28T13:24:30Z</time>
      </trkpt>
      <trkpt lat="46.34116" lon="5.65483">
        <ele>502.8</ele>
        <time>2022-02-28T13:24:31Z</time>
      </trkpt>
      <trkpt lat="46.34118" lon="5.65482">
        <ele>503.2</ele>
        <time>2022-02-28T13:24:32Z</time>
      </trkpt>
      <trkpt lat="46.3412" lon="5.65481">
        <ele>503.6</ele>
        <time>2022-02-28T13:24:33Z</time>
      </trkpt>
      <trkpt lat="46.34121" lon="5.65479">
        <ele>503.8</ele>
        <time>2022-02-28T13:24:34Z</time>
      </trkpt>
      <trkpt lat="46.34122" lon="5.65477">
        <ele>503.8</ele>
        <time>2022-02-28T13:24:35Z</time>
      </trkpt>
      <trkpt lat="46.34124" lon="5.65475">
        <ele>504</ele>
        <time>2022-02-28T13:24:36Z</time>
      </trkpt>
      <trkpt lat="46.34125" lon="5.65473">
        <ele>504</ele>
        <time>2022-02-28T13:24:37Z</time>
      </trkpt>
      <trkpt lat="46.34127" lon="5.65472">
        <ele>504.4</ele>
        <time>2022-02-28T13:24:38Z</time>
      </trkpt>
      <trkpt lat="46.34128" lon="5.6547">
        <ele>504.6</ele>
        <time>2022-02-28T13:24:39Z</time>
      </trkpt>
      <trkpt lat="46.3413" lon="5.65469">
        <ele>504.6</ele>
        <time>2022-02-28T13:24:40Z</time>
      </trkpt>
      <trkpt lat="46.34132" lon="5.65467">
        <ele>505</ele>
        <time>2022-02-28T13:24:41Z</time>
      </trkpt>
      <trkpt lat="46.34133" lon="5.65466">
        <ele>505</ele>
        <time>2022-02-28T13:24:42Z</time>
      </trkpt>
      <trkpt lat="46.34135" lon="5.65464">
        <ele>505.6</ele>
        <time>2022-02-28T13:24:43Z</time>
      </trkpt>
      <trkpt lat="46.34136" lon="5.65462">
        <ele>506</ele>
        <time>2022-02-28T13:24:44Z</time>
      </trkpt>
      <trkpt lat="46.34137" lon="5.6546">
        <ele>506.4</ele>
        <time>2022-02-28T13:24:45Z</time>
      </trkpt>
      <trkpt lat="46.34138" lon="5.65458">
        <ele>506.8</ele>
        <time>2022-02-28T13:24:46Z</time>
      </trkpt>
      <trkpt lat="46.34139" lon="5.65456">
        <ele>507.2</ele>
        <time>2022-02-28T13:24:47Z</time>
      </trkpt>
      <trkpt lat="46.34141" lon="5.65454">
        <ele>507.2</ele>
        <time>2022-02-28T13:24:48Z</time>
      </trkpt>
      <trkpt lat="46.34142" lon="5.65452">
        <ele>507.4</ele>
        <time>2022-02-28T13:24:49Z</time>
      </trkpt>
      <trkpt lat="46.34143" lon="5.65449">
        <ele>507.4</ele>
        <time>2022-02-28T13:24:50Z</time>
      </trkpt>
      <trkpt lat="46.34144" lon="5.65447">
        <ele>507.8</ele>
        <time>2022-02-28T13:24:51Z</time>
      </trkpt>
      <trkpt lat="46.34146" lon="5.65445">
        <ele>507.8</ele>
        <time>2022-02-28T13:24:52Z</time>
      </trkpt>
      <trkpt lat="46.34148" lon="5.65442">
        <ele>507.8</ele>
        <time>2022-02-28T13:24:53Z</time>
      </trkpt>
      <trkpt lat="46.34148" lon="5.65442">
        <ele>507.8</ele>
        <time>2022-02-28T13:24:54Z</time>
      </trkpt>
      <trkpt lat="46.3415" lon="5.65441">
        <ele>508</ele>
        <time>2022-02-28T13:24:55Z</time>
      </trkpt>
      <trkpt lat="46.34152" lon="5.65439">
        <ele>508</ele>
        <time>2022-02-28T13:24:56Z</time>
      </trkpt>
      <trkpt lat="46.34154" lon="5.65438">
        <ele>508</ele>
        <time>2022-02-28T13:24:57Z</time>
      </trkpt>
      <trkpt lat="46.34156" lon="5.65435">
        <ele>508.2</ele>
        <time>2022-02-28T13:24:58Z</time>
      </trkpt>
      <trkpt lat="46.34158" lon="5.65434">
        <ele>508.2</ele>
        <time>2022-02-28T13:24:59Z</time>
      </trkpt>
      <trkpt lat="46.34161" lon="5.65433">
        <ele>508.4</ele>
        <time>2022-02-28T13:25:00Z</time>
      </trkpt>
      <trkpt lat="46.34163" lon="5.65431">
        <ele>508.4</ele>
        <time>2022-02-28T13:25:01Z</time>
      </trkpt>
      <trkpt lat="46.34166" lon="5.6543">
        <ele>508.6</ele>
        <time>2022-02-28T13:25:02Z</time>
      </trkpt>
      <trkpt lat="46.34168" lon="5.65428">
        <ele>508.6</ele>
        <time>2022-02-28T13:25:03Z</time>
      </trkpt>
      <trkpt lat="46.3417" lon="5.65426">
        <ele>509</ele>
        <time>2022-02-28T13:25:04Z</time>
      </trkpt>
      <trkpt lat="46.34172" lon="5.65424">
        <ele>509</ele>
        <time>2022-02-28T13:25:05Z</time>
      </trkpt>
      <trkpt lat="46.34174" lon="5.65422">
        <ele>509.4</ele>
        <time>2022-02-28T13:25:06Z</time>
      </trkpt>
      <trkpt lat="46.34176" lon="5.6542">
        <ele>509.6</ele>
        <time>2022-02-28T13:25:07Z</time>
      </trkpt>
      <trkpt lat="46.34178" lon="5.65418">
        <ele>510</ele>
        <time>2022-02-28T13:25:08Z</time>
      </trkpt>
      <trkpt lat="46.34179" lon="5.65416">
        <ele>510.2</ele>
        <time>2022-02-28T13:25:09Z</time>
      </trkpt>
      <trkpt lat="46.34181" lon="5.65413">
        <ele>510.6</ele>
        <time>2022-02-28T13:25:10Z</time>
      </trkpt>
      <trkpt lat="46.34183" lon="5.65411">
        <ele>510.8</ele>
        <time>2022-02-28T13:25:11Z</time>
      </trkpt>
      <trkpt lat="46.34184" lon="5.65408">
        <ele>511</ele>
        <time>2022-02-28T13:25:12Z</time>
      </trkpt>
      <trkpt lat="46.34186" lon="5.65405">
        <ele>511.4</ele>
        <time>2022-02-28T13:25:13Z</time>
      </trkpt>
      <trkpt lat="46.34188" lon="5.65403">
        <ele>511.6</ele>
        <time>2022-02-28T13:25:14Z</time>
      </trkpt>
      <trkpt lat="46.34189" lon="5.65401">
        <ele>511.6</ele>
        <time>2022-02-28T13:25:15Z</time>
      </trkpt>
      <trkpt lat="46.34191" lon="5.65399">
        <ele>512</ele>
        <time>2022-02-28T13:25:16Z</time>
      </trkpt>
      <trkpt lat="46.34193" lon="5.65398">
        <ele>512.2</ele>
        <time>2022-02-28T13:25:17Z</time>
      </trkpt>
      <trkpt lat="46.34195" lon="5.65398">
        <ele>512.4</ele>
        <time>2022-02-28T13:25:18Z</time>
      </trkpt>
      <trkpt lat="46.34197" lon="5.65397">
        <ele>512.6</ele>
        <time>2022-02-28T13:25:19Z</time>
      </trkpt>
      <trkpt lat="46.342" lon="5.65398">
        <ele>512.8</ele>
        <time>2022-02-28T13:25:20Z</time>
      </trkpt>
      <trkpt lat="46.34202" lon="5.65398">
        <ele>513.2</ele>
        <time>2022-02-28T13:25:21Z</time>
      </trkpt>
      <trkpt lat="46.34204" lon="5.65398">
        <ele>513.4</ele>
        <time>2022-02-28T13:25:22Z</time>
      </trkpt>
      <trkpt lat="46.34207" lon="5.65398">
        <ele>513.8</ele>
        <time>2022-02-28T13:25:23Z</time>
      </trkpt>
      <trkpt lat="46.34209" lon="5.65399">
        <ele>514</ele>
        <time>2022-02-28T13:25:24Z</time>
      </trkpt>
      <trkpt lat="46.34211" lon="5.65399">
        <ele>514.2</ele>
        <time>2022-02-28T13:25:25Z</time>
      </trkpt>
      <trkpt lat="46.34214" lon="5.65398">
        <ele>514.4</ele>
        <time>2022-02-28T13:25:26Z</time>
      </trkpt>
      <trkpt lat="46.34216" lon="5.65399">
        <ele>514.4</ele>
        <time>2022-02-28T13:25:27Z</time>
      </trkpt>
      <trkpt lat="46.34218" lon="5.65399">
        <ele>514.8</ele>
        <time>2022-02-28T13:25:28Z</time>
      </trkpt>
      <trkpt lat="46.3422" lon="5.654">
        <ele>515.2</ele>
        <time>2022-02-28T13:25:29Z</time>
      </trkpt>
      <trkpt lat="46.34223" lon="5.654">
        <ele>515.4</ele>
        <time>2022-02-28T13:25:30Z</time>
      </trkpt>
      <trkpt lat="46.34225" lon="5.654">
        <ele>515.6</ele>
        <time>2022-02-28T13:25:31Z</time>
      </trkpt>
      <trkpt lat="46.34227" lon="5.65401">
        <ele>515.8</ele>
        <time>2022-02-28T13:25:32Z</time>
      </trkpt>
      <trkpt lat="46.3423" lon="5.65402">
        <ele>516</ele>
        <time>2022-02-28T13:25:33Z</time>
      </trkpt>
      <trkpt lat="46.34232" lon="5.65402">
        <ele>516.4</ele>
        <time>2022-02-28T13:25:34Z</time>
      </trkpt>
      <trkpt lat="46.34234" lon="5.65402">
        <ele>516.6</ele>
        <time>2022-02-28T13:25:35Z</time>
      </trkpt>
      <trkpt lat="46.34236" lon="5.65403">
        <ele>516.8</ele>
        <time>2022-02-28T13:25:36Z</time>
      </trkpt>
      <trkpt lat="46.34238" lon="5.65403">
        <ele>516.8</ele>
        <time>2022-02-28T13:25:37Z</time>
      </trkpt>
      <trkpt lat="46.3424" lon="5.65403">
        <ele>517.2</ele>
        <time>2022-02-28T13:25:38Z</time>
      </trkpt>
      <trkpt lat="46.34242" lon="5.65403">
        <ele>517.6</ele>
        <time>2022-02-28T13:25:39Z</time>
      </trkpt>
      <trkpt lat="46.34245" lon="5.65402">
        <ele>517.8</ele>
        <time>2022-02-28T13:25:40Z</time>
      </trkpt>
      <trkpt lat="46.34247" lon="5.65402">
        <ele>518</ele>
        <time>2022-02-28T13:25:41Z</time>
      </trkpt>
      <trkpt lat="46.34249" lon="5.65402">
        <ele>518.4</ele>
        <time>2022-02-28T13:25:42Z</time>
      </trkpt>
      <trkpt lat="46.34251" lon="5.65401">
        <ele>518.6</ele>
        <time>2022-02-28T13:25:43Z</time>
      </trkpt>
      <trkpt lat="46.34253" lon="5.654">
        <ele>519</ele>
        <time>2022-02-28T13:25:44Z</time>
      </trkpt>
      <trkpt lat="46.34255" lon="5.654">
        <ele>519.2</ele>
        <time>2022-02-28T13:25:45Z</time>
      </trkpt>
      <trkpt lat="46.34257" lon="5.65399">
        <ele>519.2</ele>
        <time>2022-02-28T13:25:46Z</time>
      </trkpt>
      <trkpt lat="46.34259" lon="5.65399">
        <ele>519.6</ele>
        <time>2022-02-28T13:25:47Z</time>
      </trkpt>
      <trkpt lat="46.34261" lon="5.65398">
        <ele>519.6</ele>
        <time>2022-02-28T13:25:48Z</time>
      </trkpt>
      <trkpt lat="46.34263" lon="5.65397">
        <ele>520</ele>
        <time>2022-02-28T13:25:49Z</time>
      </trkpt>
      <trkpt lat="46.34265" lon="5.65397">
        <ele>520</ele>
        <time>2022-02-28T13:25:50Z</time>
      </trkpt>
      <trkpt lat="46.34267" lon="5.65397">
        <ele>520.4</ele>
        <time>2022-02-28T13:25:51Z</time>
      </trkpt>
      <trkpt lat="46.34269" lon="5.65397">
        <ele>520.6</ele>
        <time>2022-02-28T13:25:52Z</time>
      </trkpt>
      <trkpt lat="46.34271" lon="5.65397">
        <ele>520.6</ele>
        <time>2022-02-28T13:25:53Z</time>
      </trkpt>
      <trkpt lat="46.34273" lon="5.65397">
        <ele>521</ele>
        <time>2022-02-28T13:25:54Z</time>
      </trkpt>
      <trkpt lat="46.34275" lon="5.65397">
        <ele>521.4</ele>
        <time>2022-02-28T13:25:55Z</time>
      </trkpt>
      <trkpt lat="46.34277" lon="5.65397">
        <ele>521.4</ele>
        <time>2022-02-28T13:25:56Z</time>
      </trkpt>
      <trkpt lat="46.3428" lon="5.65397">
        <ele>521.8</ele>
        <time>2022-02-28T13:25:57Z</time>
      </trkpt>
      <trkpt lat="46.34281" lon="5.65397">
        <ele>522</ele>
        <time>2022-02-28T13:25:58Z</time>
      </trkpt>
      <trkpt lat="46.34284" lon="5.65397">
        <ele>522.2</ele>
        <time>2022-02-28T13:25:59Z</time>
      </trkpt>
      <trkpt lat="46.34286" lon="5.65397">
        <ele>522.4</ele>
        <time>2022-02-28T13:26:00Z</time>
      </trkpt>
      <trkpt lat="46.34288" lon="5.65397">
        <ele>522.6</ele>
        <time>2022-02-28T13:26:01Z</time>
      </trkpt>
      <trkpt lat="46.34291" lon="5.65397">
        <ele>522.6</ele>
        <time>2022-02-28T13:26:02Z</time>
      </trkpt>
      <trkpt lat="46.34293" lon="5.65397">
        <ele>523</ele>
        <time>2022-02-28T13:26:03Z</time>
      </trkpt>
      <trkpt lat="46.34295" lon="5.65396">
        <ele>523.4</ele>
        <time>2022-02-28T13:26:04Z</time>
      </trkpt>
      <trkpt lat="46.34298" lon="5.65396">
        <ele>523.6</ele>
        <time>2022-02-28T13:26:05Z</time>
      </trkpt>
      <trkpt lat="46.34302" lon="5.65393">
        <ele>523.8</ele>
        <time>2022-02-28T13:26:06Z</time>
      </trkpt>
      <trkpt lat="46.34304" lon="5.65391">
        <ele>524.2</ele>
        <time>2022-02-28T13:26:07Z</time>
      </trkpt>
      <trkpt lat="46.34306" lon="5.65389">
        <ele>524.4</ele>
        <time>2022-02-28T13:26:08Z</time>
      </trkpt>
      <trkpt lat="46.34307" lon="5.65388">
        <ele>524.8</ele>
        <time>2022-02-28T13:26:09Z</time>
      </trkpt>
      <trkpt lat="46.34309" lon="5.65386">
        <ele>525</ele>
        <time>2022-02-28T13:26:10Z</time>
      </trkpt>
      <trkpt lat="46.3431" lon="5.65385">
        <ele>525.2</ele>
        <time>2022-02-28T13:26:11Z</time>
      </trkpt>
      <trkpt lat="46.34312" lon="5.65383">
        <ele>525.6</ele>
        <time>2022-02-28T13:26:12Z</time>
      </trkpt>
      <trkpt lat="46.34313" lon="5.65381">
        <ele>525.8</ele>
        <time>2022-02-28T13:26:13Z</time>
      </trkpt>
      <trkpt lat="46.34315" lon="5.6538">
        <ele>526</ele>
        <time>2022-02-28T13:26:14Z</time>
      </trkpt>
      <trkpt lat="46.34316" lon="5.65378">
        <ele>526.2</ele>
        <time>2022-02-28T13:26:15Z</time>
      </trkpt>
      <trkpt lat="46.34318" lon="5.65376">
        <ele>526.4</ele>
        <time>2022-02-28T13:26:16Z</time>
      </trkpt>
      <trkpt lat="46.3432" lon="5.65374">
        <ele>526.6</ele>
        <time>2022-02-28T13:26:17Z</time>
      </trkpt>
      <trkpt lat="46.34321" lon="5.65373">
        <ele>526.8</ele>
        <time>2022-02-28T13:26:18Z</time>
      </trkpt>
      <trkpt lat="46.34323" lon="5.6537">
        <ele>527</ele>
        <time>2022-02-28T13:26:19Z</time>
      </trkpt>
      <trkpt lat="46.34324" lon="5.65369">
        <ele>527</ele>
        <time>2022-02-28T13:26:20Z</time>
      </trkpt>
      <trkpt lat="46.34326" lon="5.65368">
        <ele>527.4</ele>
        <time>2022-02-28T13:26:21Z</time>
      </trkpt>
      <trkpt lat="46.34327" lon="5.65366">
        <ele>527.4</ele>
        <time>2022-02-28T13:26:22Z</time>
      </trkpt>
      <trkpt lat="46.34329" lon="5.65365">
        <ele>527.8</ele>
        <time>2022-02-28T13:26:23Z</time>
      </trkpt>
      <trkpt lat="46.34331" lon="5.65364">
        <ele>527.8</ele>
        <time>2022-02-28T13:26:24Z</time>
      </trkpt>
      <trkpt lat="46.34332" lon="5.65362">
        <ele>528</ele>
        <time>2022-02-28T13:26:25Z</time>
      </trkpt>
      <trkpt lat="46.34334" lon="5.65361">
        <ele>528.4</ele>
        <time>2022-02-28T13:26:26Z</time>
      </trkpt>
      <trkpt lat="46.34335" lon="5.65359">
        <ele>528.6</ele>
        <time>2022-02-28T13:26:27Z</time>
      </trkpt>
      <trkpt lat="46.34337" lon="5.65358">
        <ele>528.6</ele>
        <time>2022-02-28T13:26:28Z</time>
      </trkpt>
      <trkpt lat="46.34338" lon="5.65357">
        <ele>529</ele>
        <time>2022-02-28T13:26:29Z</time>
      </trkpt>
      <trkpt lat="46.3434" lon="5.65355">
        <ele>529.2</ele>
        <time>2022-02-28T13:26:30Z</time>
      </trkpt>
      <trkpt lat="46.34341" lon="5.65353">
        <ele>529.2</ele>
        <time>2022-02-28T13:26:31Z</time>
      </trkpt>
      <trkpt lat="46.34343" lon="5.65352">
        <ele>529.6</ele>
        <time>2022-02-28T13:26:32Z</time>
      </trkpt>
      <trkpt lat="46.34344" lon="5.6535">
        <ele>529.8</ele>
        <time>2022-02-28T13:26:33Z</time>
      </trkpt>
      <trkpt lat="46.34346" lon="5.65349">
        <ele>530</ele>
        <time>2022-02-28T13:26:34Z</time>
      </trkpt>
      <trkpt lat="46.34348" lon="5.65348">
        <ele>530.2</ele>
        <time>2022-02-28T13:26:35Z</time>
      </trkpt>
      <trkpt lat="46.34349" lon="5.65346">
        <ele>530.6</ele>
        <time>2022-02-28T13:26:36Z</time>
      </trkpt>
      <trkpt lat="46.34351" lon="5.65345">
        <ele>530.8</ele>
        <time>2022-02-28T13:26:37Z</time>
      </trkpt>
      <trkpt lat="46.34352" lon="5.65343">
        <ele>531</ele>
        <time>2022-02-28T13:26:38Z</time>
      </trkpt>
      <trkpt lat="46.34353" lon="5.65341">
        <ele>531</ele>
        <time>2022-02-28T13:26:39Z</time>
      </trkpt>
      <trkpt lat="46.34355" lon="5.6534">
        <ele>531.2</ele>
        <time>2022-02-28T13:26:40Z</time>
      </trkpt>
      <trkpt lat="46.34357" lon="5.65339">
        <ele>531.2</ele>
        <time>2022-02-28T13:26:41Z</time>
      </trkpt>
      <trkpt lat="46.34358" lon="5.65338">
        <ele>531.6</ele>
        <time>2022-02-28T13:26:42Z</time>
      </trkpt>
      <trkpt lat="46.3436" lon="5.65336">
        <ele>531.6</ele>
        <time>2022-02-28T13:26:43Z</time>
      </trkpt>
      <trkpt lat="46.34362" lon="5.65335">
        <ele>531.8</ele>
        <time>2022-02-28T13:26:44Z</time>
      </trkpt>
      <trkpt lat="46.34363" lon="5.65334">
        <ele>531.8</ele>
        <time>2022-02-28T13:26:45Z</time>
      </trkpt>
      <trkpt lat="46.34365" lon="5.65333">
        <ele>532.2</ele>
        <time>2022-02-28T13:26:46Z</time>
      </trkpt>
      <trkpt lat="46.34367" lon="5.65332">
        <ele>532.4</ele>
        <time>2022-02-28T13:26:47Z</time>
      </trkpt>
      <trkpt lat="46.34369" lon="5.65331">
        <ele>532.4</ele>
        <time>2022-02-28T13:26:48Z</time>
      </trkpt>
      <trkpt lat="46.3437" lon="5.65329">
        <ele>532.6</ele>
        <time>2022-02-28T13:26:49Z</time>
      </trkpt>
      <trkpt lat="46.34372" lon="5.65328">
        <ele>533</ele>
        <time>2022-02-28T13:26:50Z</time>
      </trkpt>
      <trkpt lat="46.34374" lon="5.65326">
        <ele>533.2</ele>
        <time>2022-02-28T13:26:51Z</time>
      </trkpt>
      <trkpt lat="46.34375" lon="5.65325">
        <ele>533.4</ele>
        <time>2022-02-28T13:26:52Z</time>
      </trkpt>
      <trkpt lat="46.34377" lon="5.65323">
        <ele>533.4</ele>
        <time>2022-02-28T13:26:53Z</time>
      </trkpt>
      <trkpt lat="46.34379" lon="5.65322">
        <ele>533.6</ele>
        <time>2022-02-28T13:26:54Z</time>
      </trkpt>
      <trkpt lat="46.3438" lon="5.65321">
        <ele>533.6</ele>
        <time>2022-02-28T13:26:55Z</time>
      </trkpt>
      <trkpt lat="46.34382" lon="5.6532">
        <ele>533.8</ele>
        <time>2022-02-28T13:26:56Z</time>
      </trkpt>
      <trkpt lat="46.34384" lon="5.6532">
        <ele>534.2</ele>
        <time>2022-02-28T13:26:57Z</time>
      </trkpt>
      <trkpt lat="46.34385" lon="5.65318">
        <ele>534.2</ele>
        <time>2022-02-28T13:26:58Z</time>
      </trkpt>
      <trkpt lat="46.34387" lon="5.65317">
        <ele>534.4</ele>
        <time>2022-02-28T13:26:59Z</time>
      </trkpt>
      <trkpt lat="46.34389" lon="5.65316">
        <ele>534.8</ele>
        <time>2022-02-28T13:27:00Z</time>
      </trkpt>
      <trkpt lat="46.34391" lon="5.65314">
        <ele>535</ele>
        <time>2022-02-28T13:27:01Z</time>
      </trkpt>
      <trkpt lat="46.34393" lon="5.65313">
        <ele>535.2</ele>
        <time>2022-02-28T13:27:02Z</time>
      </trkpt>
      <trkpt lat="46.34394" lon="5.65311">
        <ele>535.4</ele>
        <time>2022-02-28T13:27:03Z</time>
      </trkpt>
      <trkpt lat="46.34396" lon="5.6531">
        <ele>535.6</ele>
        <time>2022-02-28T13:27:04Z</time>
      </trkpt>
      <trkpt lat="46.34398" lon="5.65309">
        <ele>536</ele>
        <time>2022-02-28T13:27:05Z</time>
      </trkpt>
      <trkpt lat="46.34399" lon="5.65308">
        <ele>536.4</ele>
        <time>2022-02-28T13:27:06Z</time>
      </trkpt>
      <trkpt lat="46.34401" lon="5.65307">
        <ele>536.6</ele>
        <time>2022-02-28T13:27:07Z</time>
      </trkpt>
      <trkpt lat="46.34403" lon="5.65306">
        <ele>536.8</ele>
        <time>2022-02-28T13:27:08Z</time>
      </trkpt>
      <trkpt lat="46.34405" lon="5.65305">
        <ele>537</ele>
        <time>2022-02-28T13:27:09Z</time>
      </trkpt>
      <trkpt lat="46.34407" lon="5.65304">
        <ele>537.2</ele>
        <time>2022-02-28T13:27:10Z</time>
      </trkpt>
      <trkpt lat="46.34408" lon="5.65303">
        <ele>537.4</ele>
        <time>2022-02-28T13:27:11Z</time>
      </trkpt>
      <trkpt lat="46.3441" lon="5.65302">
        <ele>537.4</ele>
        <time>2022-02-28T13:27:12Z</time>
      </trkpt>
      <trkpt lat="46.34412" lon="5.65301">
        <ele>537.8</ele>
        <time>2022-02-28T13:27:13Z</time>
      </trkpt>
      <trkpt lat="46.34414" lon="5.653">
        <ele>537.8</ele>
        <time>2022-02-28T13:27:14Z</time>
      </trkpt>
      <trkpt lat="46.34415" lon="5.65298">
        <ele>538.2</ele>
        <time>2022-02-28T13:27:15Z</time>
      </trkpt>
      <trkpt lat="46.34417" lon="5.65297">
        <ele>538.2</ele>
        <time>2022-02-28T13:27:16Z</time>
      </trkpt>
      <trkpt lat="46.34419" lon="5.65296">
        <ele>538.4</ele>
        <time>2022-02-28T13:27:17Z</time>
      </trkpt>
      <trkpt lat="46.3442" lon="5.65295">
        <ele>538.4</ele>
        <time>2022-02-28T13:27:18Z</time>
      </trkpt>
      <trkpt lat="46.34422" lon="5.65294">
        <ele>538.4</ele>
        <time>2022-02-28T13:27:19Z</time>
      </trkpt>
      <trkpt lat="46.34424" lon="5.65293">
        <ele>538.8</ele>
        <time>2022-02-28T13:27:20Z</time>
      </trkpt>
      <trkpt lat="46.34426" lon="5.65292">
        <ele>538.8</ele>
        <time>2022-02-28T13:27:21Z</time>
      </trkpt>
      <trkpt lat="46.34427" lon="5.65291">
        <ele>539.2</ele>
        <time>2022-02-28T13:27:22Z</time>
      </trkpt>
      <trkpt lat="46.34429" lon="5.65289">
        <ele>539.2</ele>
        <time>2022-02-28T13:27:23Z</time>
      </trkpt>
      <trkpt lat="46.34431" lon="5.65288">
        <ele>539.6</ele>
        <time>2022-02-28T13:27:24Z</time>
      </trkpt>
      <trkpt lat="46.34432" lon="5.65287">
        <ele>539.6</ele>
        <time>2022-02-28T13:27:25Z</time>
      </trkpt>
      <trkpt lat="46.34434" lon="5.65285">
        <ele>540</ele>
        <time>2022-02-28T13:27:26Z</time>
      </trkpt>
      <trkpt lat="46.34436" lon="5.65283">
        <ele>540</ele>
        <time>2022-02-28T13:27:27Z</time>
      </trkpt>
      <trkpt lat="46.34437" lon="5.65282">
        <ele>540.4</ele>
        <time>2022-02-28T13:27:28Z</time>
      </trkpt>
      <trkpt lat="46.34439" lon="5.65282">
        <ele>540.4</ele>
        <time>2022-02-28T13:27:29Z</time>
      </trkpt>
      <trkpt lat="46.3444" lon="5.65281">
        <ele>540.8</ele>
        <time>2022-02-28T13:27:30Z</time>
      </trkpt>
      <trkpt lat="46.34442" lon="5.65279">
        <ele>541</ele>
        <time>2022-02-28T13:27:31Z</time>
      </trkpt>
      <trkpt lat="46.34443" lon="5.65277">
        <ele>541.4</ele>
        <time>2022-02-28T13:27:32Z</time>
      </trkpt>
      <trkpt lat="46.34445" lon="5.65276">
        <ele>541.8</ele>
        <time>2022-02-28T13:27:33Z</time>
      </trkpt>
      <trkpt lat="46.34446" lon="5.65274">
        <ele>542</ele>
        <time>2022-02-28T13:27:34Z</time>
      </trkpt>
      <trkpt lat="46.34448" lon="5.65273">
        <ele>542.4</ele>
        <time>2022-02-28T13:27:35Z</time>
      </trkpt>
      <trkpt lat="46.34449" lon="5.65271">
        <ele>542.6</ele>
        <time>2022-02-28T13:27:36Z</time>
      </trkpt>
      <trkpt lat="46.34451" lon="5.6527">
        <ele>543</ele>
        <time>2022-02-28T13:27:37Z</time>
      </trkpt>
      <trkpt lat="46.34453" lon="5.65269">
        <ele>543.2</ele>
        <time>2022-02-28T13:27:38Z</time>
      </trkpt>
      <trkpt lat="46.34454" lon="5.65267">
        <ele>543.2</ele>
        <time>2022-02-28T13:27:39Z</time>
      </trkpt>
      <trkpt lat="46.34456" lon="5.65265">
        <ele>543.6</ele>
        <time>2022-02-28T13:27:40Z</time>
      </trkpt>
      <trkpt lat="46.34457" lon="5.65264">
        <ele>543.8</ele>
        <time>2022-02-28T13:27:41Z</time>
      </trkpt>
      <trkpt lat="46.34459" lon="5.65263">
        <ele>543.8</ele>
        <time>2022-02-28T13:27:42Z</time>
      </trkpt>
      <trkpt lat="46.34461" lon="5.65262">
        <ele>544.2</ele>
        <time>2022-02-28T13:27:43Z</time>
      </trkpt>
      <trkpt lat="46.34463" lon="5.65262">
        <ele>544.2</ele>
        <time>2022-02-28T13:27:44Z</time>
      </trkpt>
      <trkpt lat="46.34465" lon="5.65262">
        <ele>544.6</ele>
        <time>2022-02-28T13:27:45Z</time>
      </trkpt>
      <trkpt lat="46.34467" lon="5.65262">
        <ele>544.8</ele>
        <time>2022-02-28T13:27:46Z</time>
      </trkpt>
      <trkpt lat="46.34469" lon="5.65262">
        <ele>545</ele>
        <time>2022-02-28T13:27:47Z</time>
      </trkpt>
      <trkpt lat="46.3447" lon="5.65262">
        <ele>545</ele>
        <time>2022-02-28T13:27:48Z</time>
      </trkpt>
      <trkpt lat="46.34472" lon="5.65263">
        <ele>545.4</ele>
        <time>2022-02-28T13:27:49Z</time>
      </trkpt>
      <trkpt lat="46.34474" lon="5.65264">
        <ele>545.8</ele>
        <time>2022-02-28T13:27:50Z</time>
      </trkpt>
      <trkpt lat="46.34476" lon="5.65266">
        <ele>546</ele>
        <time>2022-02-28T13:27:51Z</time>
      </trkpt>
      <trkpt lat="46.34478" lon="5.65267">
        <ele>546</ele>
        <time>2022-02-28T13:27:52Z</time>
      </trkpt>
      <trkpt lat="46.34479" lon="5.65269">
        <ele>546.4</ele>
        <time>2022-02-28T13:27:53Z</time>
      </trkpt>
      <trkpt lat="46.34481" lon="5.65271">
        <ele>546.6</ele>
        <time>2022-02-28T13:27:54Z</time>
      </trkpt>
      <trkpt lat="46.34482" lon="5.65272">
        <ele>546.8</ele>
        <time>2022-02-28T13:27:55Z</time>
      </trkpt>
      <trkpt lat="46.34484" lon="5.65274">
        <ele>547</ele>
        <time>2022-02-28T13:27:56Z</time>
      </trkpt>
      <trkpt lat="46.34485" lon="5.65276">
        <ele>547.4</ele>
        <time>2022-02-28T13:27:57Z</time>
      </trkpt>
      <trkpt lat="46.34487" lon="5.65277">
        <ele>547.4</ele>
        <time>2022-02-28T13:27:58Z</time>
      </trkpt>
      <trkpt lat="46.34488" lon="5.65279">
        <ele>547.6</ele>
        <time>2022-02-28T13:27:59Z</time>
      </trkpt>
      <trkpt lat="46.3449" lon="5.65281">
        <ele>547.8</ele>
        <time>2022-02-28T13:28:00Z</time>
      </trkpt>
      <trkpt lat="46.34491" lon="5.65283">
        <ele>548.2</ele>
        <time>2022-02-28T13:28:01Z</time>
      </trkpt>
      <trkpt lat="46.34492" lon="5.65284">
        <ele>548.4</ele>
        <time>2022-02-28T13:28:02Z</time>
      </trkpt>
      <trkpt lat="46.34494" lon="5.65286">
        <ele>548.6</ele>
        <time>2022-02-28T13:28:03Z</time>
      </trkpt>
      <trkpt lat="46.34495" lon="5.65288">
        <ele>548.6</ele>
        <time>2022-02-28T13:28:04Z</time>
      </trkpt>
      <trkpt lat="46.34496" lon="5.65289">
        <ele>549</ele>
        <time>2022-02-28T13:28:05Z</time>
      </trkpt>
      <trkpt lat="46.34498" lon="5.6529">
        <ele>549.2</ele>
        <time>2022-02-28T13:28:06Z</time>
      </trkpt>
      <trkpt lat="46.34499" lon="5.65292">
        <ele>549.4</ele>
        <time>2022-02-28T13:28:07Z</time>
      </trkpt>
      <trkpt lat="46.345" lon="5.65294">
        <ele>549.6</ele>
        <time>2022-02-28T13:28:08Z</time>
      </trkpt>
      <trkpt lat="46.34502" lon="5.65296">
        <ele>550</ele>
        <time>2022-02-28T13:28:09Z</time>
      </trkpt>
      <trkpt lat="46.34503" lon="5.65297">
        <ele>550.2</ele>
        <time>2022-02-28T13:28:10Z</time>
      </trkpt>
      <trkpt lat="46.34505" lon="5.65299">
        <ele>550.2</ele>
        <time>2022-02-28T13:28:11Z</time>
      </trkpt>
      <trkpt lat="46.34506" lon="5.65301">
        <ele>550.6</ele>
        <time>2022-02-28T13:28:12Z</time>
      </trkpt>
      <trkpt lat="46.34508" lon="5.65303">
        <ele>550.6</ele>
        <time>2022-02-28T13:28:13Z</time>
      </trkpt>
      <trkpt lat="46.34509" lon="5.65304">
        <ele>550.8</ele>
        <time>2022-02-28T13:28:14Z</time>
      </trkpt>
      <trkpt lat="46.3451" lon="5.65306">
        <ele>551</ele>
        <time>2022-02-28T13:28:15Z</time>
      </trkpt>
      <trkpt lat="46.34512" lon="5.65308">
        <ele>551</ele>
        <time>2022-02-28T13:28:16Z</time>
      </trkpt>
      <trkpt lat="46.34513" lon="5.6531">
        <ele>551.4</ele>
        <time>2022-02-28T13:28:17Z</time>
      </trkpt>
      <trkpt lat="46.34515" lon="5.65311">
        <ele>551.4</ele>
        <time>2022-02-28T13:28:18Z</time>
      </trkpt>
      <trkpt lat="46.34516" lon="5.65313">
        <ele>551.8</ele>
        <time>2022-02-28T13:28:19Z</time>
      </trkpt>
      <trkpt lat="46.34518" lon="5.65315">
        <ele>552.2</ele>
        <time>2022-02-28T13:28:20Z</time>
      </trkpt>
      <trkpt lat="46.3452" lon="5.65316">
        <ele>552.4</ele>
        <time>2022-02-28T13:28:21Z</time>
      </trkpt>
      <trkpt lat="46.34521" lon="5.65317">
        <ele>552.4</ele>
        <time>2022-02-28T13:28:22Z</time>
      </trkpt>
      <trkpt lat="46.34523" lon="5.65319">
        <ele>552.8</ele>
        <time>2022-02-28T13:28:23Z</time>
      </trkpt>
      <trkpt lat="46.34525" lon="5.6532">
        <ele>553</ele>
        <time>2022-02-28T13:28:24Z</time>
      </trkpt>
      <trkpt lat="46.34526" lon="5.65321">
        <ele>553.2</ele>
        <time>2022-02-28T13:28:25Z</time>
      </trkpt>
      <trkpt lat="46.34528" lon="5.65322">
        <ele>553.4</ele>
        <time>2022-02-28T13:28:26Z</time>
      </trkpt>
      <trkpt lat="46.34529" lon="5.65324">
        <ele>553.6</ele>
        <time>2022-02-28T13:28:27Z</time>
      </trkpt>
      <trkpt lat="46.34531" lon="5.65325">
        <ele>553.8</ele>
        <time>2022-02-28T13:28:28Z</time>
      </trkpt>
      <trkpt lat="46.34532" lon="5.65327">
        <ele>554.2</ele>
        <time>2022-02-28T13:28:29Z</time>
      </trkpt>
      <trkpt lat="46.34534" lon="5.65328">
        <ele>554.2</ele>
        <time>2022-02-28T13:28:30Z</time>
      </trkpt>
      <trkpt lat="46.34535" lon="5.6533">
        <ele>554.4</ele>
        <time>2022-02-28T13:28:31Z</time>
      </trkpt>
      <trkpt lat="46.34537" lon="5.65332">
        <ele>554.4</ele>
        <time>2022-02-28T13:28:32Z</time>
      </trkpt>
      <trkpt lat="46.34538" lon="5.65334">
        <ele>554.8</ele>
        <time>2022-02-28T13:28:33Z</time>
      </trkpt>
      <trkpt lat="46.34539" lon="5.65335">
        <ele>554.8</ele>
        <time>2022-02-28T13:28:34Z</time>
      </trkpt>
      <trkpt lat="46.3454" lon="5.65337">
        <ele>555.2</ele>
        <time>2022-02-28T13:28:35Z</time>
      </trkpt>
      <trkpt lat="46.34542" lon="5.65339">
        <ele>555.6</ele>
        <time>2022-02-28T13:28:36Z</time>
      </trkpt>
      <trkpt lat="46.34543" lon="5.6534">
        <ele>555.8</ele>
        <time>2022-02-28T13:28:37Z</time>
      </trkpt>
      <trkpt lat="46.34544" lon="5.65342">
        <ele>555.8</ele>
        <time>2022-02-28T13:28:38Z</time>
      </trkpt>
      <trkpt lat="46.34545" lon="5.65344">
        <ele>556.2</ele>
        <time>2022-02-28T13:28:39Z</time>
      </trkpt>
      <trkpt lat="46.34546" lon="5.65346">
        <ele>556.4</ele>
        <time>2022-02-28T13:28:40Z</time>
      </trkpt>
      <trkpt lat="46.34547" lon="5.65347">
        <ele>556.8</ele>
        <time>2022-02-28T13:28:41Z</time>
      </trkpt>
      <trkpt lat="46.34549" lon="5.65349">
        <ele>557</ele>
        <time>2022-02-28T13:28:42Z</time>
      </trkpt>
      <trkpt lat="46.3455" lon="5.6535">
        <ele>557</ele>
        <time>2022-02-28T13:28:43Z</time>
      </trkpt>
      <trkpt lat="46.34551" lon="5.65352">
        <ele>557.4</ele>
        <time>2022-02-28T13:28:44Z</time>
      </trkpt>
      <trkpt lat="46.34552" lon="5.65354">
        <ele>557.6</ele>
        <time>2022-02-28T13:28:45Z</time>
      </trkpt>
      <trkpt lat="46.34553" lon="5.65356">
        <ele>557.8</ele>
        <time>2022-02-28T13:28:46Z</time>
      </trkpt>
      <trkpt lat="46.34554" lon="5.65358">
        <ele>557.8</ele>
        <time>2022-02-28T13:28:47Z</time>
      </trkpt>
      <trkpt lat="46.34555" lon="5.6536">
        <ele>558.2</ele>
        <time>2022-02-28T13:28:48Z</time>
      </trkpt>
      <trkpt lat="46.34556" lon="5.65362">
        <ele>558.2</ele>
        <time>2022-02-28T13:28:49Z</time>
      </trkpt>
      <trkpt lat="46.34557" lon="5.65363">
        <ele>558.4</ele>
        <time>2022-02-28T13:28:50Z</time>
      </trkpt>
      <trkpt lat="46.34558" lon="5.65366">
        <ele>558.4</ele>
        <time>2022-02-28T13:28:51Z</time>
      </trkpt>
      <trkpt lat="46.34559" lon="5.65367">
        <ele>558.8</ele>
        <time>2022-02-28T13:28:52Z</time>
      </trkpt>
      <trkpt lat="46.3456" lon="5.65369">
        <ele>558.8</ele>
        <time>2022-02-28T13:28:53Z</time>
      </trkpt>
      <trkpt lat="46.34561" lon="5.65371">
        <ele>559.2</ele>
        <time>2022-02-28T13:28:54Z</time>
      </trkpt>
      <trkpt lat="46.34562" lon="5.65373">
        <ele>559.2</ele>
        <time>2022-02-28T13:28:55Z</time>
      </trkpt>
      <trkpt lat="46.34563" lon="5.65375">
        <ele>559.4</ele>
        <time>2022-02-28T13:28:56Z</time>
      </trkpt>
      <trkpt lat="46.34564" lon="5.65377">
        <ele>559.4</ele>
        <time>2022-02-28T13:28:57Z</time>
      </trkpt>
      <trkpt lat="46.34565" lon="5.65379">
        <ele>559.8</ele>
        <time>2022-02-28T13:28:58Z</time>
      </trkpt>
      <trkpt lat="46.34566" lon="5.65381">
        <ele>560.2</ele>
        <time>2022-02-28T13:28:59Z</time>
      </trkpt>
      <trkpt lat="46.34566" lon="5.65381">
        <ele>560.8</ele>
        <time>2022-02-28T13:29:00Z</time>
      </trkpt>
      <trkpt lat="46.34567" lon="5.65383">
        <ele>561.2</ele>
        <time>2022-02-28T13:29:01Z</time>
      </trkpt>
      <trkpt lat="46.34568" lon="5.65385">
        <ele>561.2</ele>
        <time>2022-02-28T13:29:02Z</time>
      </trkpt>
      <trkpt lat="46.34568" lon="5.65387">
        <ele>561.2</ele>
        <time>2022-02-28T13:29:03Z</time>
      </trkpt>
      <trkpt lat="46.34569" lon="5.65389">
        <ele>561.2</ele>
        <time>2022-02-28T13:29:04Z</time>
      </trkpt>
      <trkpt lat="46.3457" lon="5.65391">
        <ele>561.4</ele>
        <time>2022-02-28T13:29:05Z</time>
      </trkpt>
      <trkpt lat="46.34571" lon="5.65394">
        <ele>561.4</ele>
        <time>2022-02-28T13:29:06Z</time>
      </trkpt>
      <trkpt lat="46.34572" lon="5.65396">
        <ele>561.8</ele>
        <time>2022-02-28T13:29:07Z</time>
      </trkpt>
      <trkpt lat="46.34573" lon="5.65398">
        <ele>561.8</ele>
        <time>2022-02-28T13:29:08Z</time>
      </trkpt>
      <trkpt lat="46.34574" lon="5.65401">
        <ele>562</ele>
        <time>2022-02-28T13:29:09Z</time>
      </trkpt>
      <trkpt lat="46.34575" lon="5.65402">
        <ele>562.2</ele>
        <time>2022-02-28T13:29:10Z</time>
      </trkpt>
      <trkpt lat="46.34576" lon="5.65404">
        <ele>562.2</ele>
        <time>2022-02-28T13:29:11Z</time>
      </trkpt>
      <trkpt lat="46.34577" lon="5.65406">
        <ele>562.6</ele>
        <time>2022-02-28T13:29:12Z</time>
      </trkpt>
      <trkpt lat="46.34578" lon="5.65408">
        <ele>562.8</ele>
        <time>2022-02-28T13:29:13Z</time>
      </trkpt>
      <trkpt lat="46.34578" lon="5.6541">
        <ele>563</ele>
        <time>2022-02-28T13:29:14Z</time>
      </trkpt>
      <trkpt lat="46.34579" lon="5.65413">
        <ele>563</ele>
        <time>2022-02-28T13:29:15Z</time>
      </trkpt>
      <trkpt lat="46.3458" lon="5.65415">
        <ele>563.4</ele>
        <time>2022-02-28T13:29:16Z</time>
      </trkpt>
      <trkpt lat="46.34581" lon="5.65416">
        <ele>563.6</ele>
        <time>2022-02-28T13:29:17Z</time>
      </trkpt>
      <trkpt lat="46.34582" lon="5.65419">
        <ele>563.8</ele>
        <time>2022-02-28T13:29:18Z</time>
      </trkpt>
      <trkpt lat="46.34583" lon="5.65421">
        <ele>564</ele>
        <time>2022-02-28T13:29:19Z</time>
      </trkpt>
      <trkpt lat="46.34583" lon="5.65424">
        <ele>564.4</ele>
        <time>2022-02-28T13:29:20Z</time>
      </trkpt>
      <trkpt lat="46.34584" lon="5.65426">
        <ele>564.6</ele>
        <time>2022-02-28T13:29:21Z</time>
      </trkpt>
      <trkpt lat="46.34585" lon="5.65429">
        <ele>564.8</ele>
        <time>2022-02-28T13:29:22Z</time>
      </trkpt>
      <trkpt lat="46.34587" lon="5.65431">
        <ele>565</ele>
        <time>2022-02-28T13:29:23Z</time>
      </trkpt>
      <trkpt lat="46.34588" lon="5.65433">
        <ele>565.2</ele>
        <time>2022-02-28T13:29:24Z</time>
      </trkpt>
      <trkpt lat="46.34589" lon="5.65435">
        <ele>565.2</ele>
        <time>2022-02-28T13:29:25Z</time>
      </trkpt>
      <trkpt lat="46.3459" lon="5.65436">
        <ele>565.6</ele>
        <time>2022-02-28T13:29:26Z</time>
      </trkpt>
      <trkpt lat="46.34591" lon="5.65438">
        <ele>566</ele>
        <time>2022-02-28T13:29:27Z</time>
      </trkpt>
      <trkpt lat="46.34592" lon="5.6544">
        <ele>566.2</ele>
        <time>2022-02-28T13:29:28Z</time>
      </trkpt>
      <trkpt lat="46.34594" lon="5.65441">
        <ele>566.4</ele>
        <time>2022-02-28T13:29:29Z</time>
      </trkpt>
      <trkpt lat="46.34595" lon="5.65443">
        <ele>566.4</ele>
        <time>2022-02-28T13:29:30Z</time>
      </trkpt>
      <trkpt lat="46.34596" lon="5.65445">
        <ele>566.4</ele>
        <time>2022-02-28T13:29:31Z</time>
      </trkpt>
      <trkpt lat="46.34596" lon="5.65447">
        <ele>566.8</ele>
        <time>2022-02-28T13:29:32Z</time>
      </trkpt>
      <trkpt lat="46.34597" lon="5.65449">
        <ele>566.8</ele>
        <time>2022-02-28T13:29:33Z</time>
      </trkpt>
      <trkpt lat="46.34599" lon="5.6545">
        <ele>567.2</ele>
        <time>2022-02-28T13:29:34Z</time>
      </trkpt>
      <trkpt lat="46.346" lon="5.65451">
        <ele>567.2</ele>
        <time>2022-02-28T13:29:35Z</time>
      </trkpt>
      <trkpt lat="46.34601" lon="5.65453">
        <ele>567.6</ele>
        <time>2022-02-28T13:29:36Z</time>
      </trkpt>
      <trkpt lat="46.34603" lon="5.65454">
        <ele>568</ele>
        <time>2022-02-28T13:29:37Z</time>
      </trkpt>
      <trkpt lat="46.34604" lon="5.65456">
        <ele>568.2</ele>
        <time>2022-02-28T13:29:38Z</time>
      </trkpt>
      <trkpt lat="46.34605" lon="5.65457">
        <ele>568.2</ele>
        <time>2022-02-28T13:29:39Z</time>
      </trkpt>
      <trkpt lat="46.34607" lon="5.65459">
        <ele>568.6</ele>
        <time>2022-02-28T13:29:40Z</time>
      </trkpt>
      <trkpt lat="46.34608" lon="5.6546">
        <ele>568.6</ele>
        <time>2022-02-28T13:29:41Z</time>
      </trkpt>
      <trkpt lat="46.34609" lon="5.65462">
        <ele>569</ele>
        <time>2022-02-28T13:29:42Z</time>
      </trkpt>
      <trkpt lat="46.3461" lon="5.65463">
        <ele>569.2</ele>
        <time>2022-02-28T13:29:43Z</time>
      </trkpt>
      <trkpt lat="46.34611" lon="5.65465">
        <ele>569.4</ele>
        <time>2022-02-28T13:29:44Z</time>
      </trkpt>
      <trkpt lat="46.34613" lon="5.65467">
        <ele>569.4</ele>
        <time>2022-02-28T13:29:45Z</time>
      </trkpt>
      <trkpt lat="46.34614" lon="5.65469">
        <ele>569.8</ele>
        <time>2022-02-28T13:29:46Z</time>
      </trkpt>
      <trkpt lat="46.34615" lon="5.6547">
        <ele>570</ele>
        <time>2022-02-28T13:29:47Z</time>
      </trkpt>
      <trkpt lat="46.34616" lon="5.65472">
        <ele>570</ele>
        <time>2022-02-28T13:29:48Z</time>
      </trkpt>
      <trkpt lat="46.34618" lon="5.65474">
        <ele>570.4</ele>
        <time>2022-02-28T13:29:49Z</time>
      </trkpt>
      <trkpt lat="46.34619" lon="5.65475">
        <ele>570.4</ele>
        <time>2022-02-28T13:29:50Z</time>
      </trkpt>
      <trkpt lat="46.34621" lon="5.65476">
        <ele>570.8</ele>
        <time>2022-02-28T13:29:51Z</time>
      </trkpt>
      <trkpt lat="46.34622" lon="5.65477">
        <ele>571</ele>
        <time>2022-02-28T13:29:52Z</time>
      </trkpt>
      <trkpt lat="46.34624" lon="5.65478">
        <ele>571.4</ele>
        <time>2022-02-28T13:29:53Z</time>
      </trkpt>
      <trkpt lat="46.34625" lon="5.65479">
        <ele>571.8</ele>
        <time>2022-02-28T13:29:54Z</time>
      </trkpt>
      <trkpt lat="46.34627" lon="5.6548">
        <ele>571.8</ele>
        <time>2022-02-28T13:29:55Z</time>
      </trkpt>
      <trkpt lat="46.34628" lon="5.6548">
        <ele>572</ele>
        <time>2022-02-28T13:29:56Z</time>
      </trkpt>
      <trkpt lat="46.3463" lon="5.65481">
        <ele>572</ele>
        <time>2022-02-28T13:29:57Z</time>
      </trkpt>
      <trkpt lat="46.34631" lon="5.65481">
        <ele>572.2</ele>
        <time>2022-02-28T13:29:58Z</time>
      </trkpt>
      <trkpt lat="46.34633" lon="5.65482">
        <ele>572.4</ele>
        <time>2022-02-28T13:29:59Z</time>
      </trkpt>
      <trkpt lat="46.34635" lon="5.65483">
        <ele>572.4</ele>
        <time>2022-02-28T13:30:00Z</time>
      </trkpt>
      <trkpt lat="46.34636" lon="5.65483">
        <ele>572.8</ele>
        <time>2022-02-28T13:30:01Z</time>
      </trkpt>
      <trkpt lat="46.34638" lon="5.65485">
        <ele>573</ele>
        <time>2022-02-28T13:30:02Z</time>
      </trkpt>
      <trkpt lat="46.34639" lon="5.65486">
        <ele>573</ele>
        <time>2022-02-28T13:30:03Z</time>
      </trkpt>
      <trkpt lat="46.34641" lon="5.65487">
        <ele>573.2</ele>
        <time>2022-02-28T13:30:04Z</time>
      </trkpt>
      <trkpt lat="46.34642" lon="5.65487">
        <ele>573.2</ele>
        <time>2022-02-28T13:30:05Z</time>
      </trkpt>
      <trkpt lat="46.34643" lon="5.65488">
        <ele>573.6</ele>
        <time>2022-02-28T13:30:06Z</time>
      </trkpt>
      <trkpt lat="46.34645" lon="5.65488">
        <ele>573.8</ele>
        <time>2022-02-28T13:30:07Z</time>
      </trkpt>
      <trkpt lat="46.34647" lon="5.65489">
        <ele>574</ele>
        <time>2022-02-28T13:30:08Z</time>
      </trkpt>
      <trkpt lat="46.34648" lon="5.6549">
        <ele>574</ele>
        <time>2022-02-28T13:30:09Z</time>
      </trkpt>
      <trkpt lat="46.3465" lon="5.6549">
        <ele>574.4</ele>
        <time>2022-02-28T13:30:10Z</time>
      </trkpt>
      <trkpt lat="46.34651" lon="5.65491">
        <ele>574.4</ele>
        <time>2022-02-28T13:30:11Z</time>
      </trkpt>
      <trkpt lat="46.34653" lon="5.65491">
        <ele>574.8</ele>
        <time>2022-02-28T13:30:12Z</time>
      </trkpt>
      <trkpt lat="46.34655" lon="5.65492">
        <ele>575</ele>
        <time>2022-02-28T13:30:13Z</time>
      </trkpt>
      <trkpt lat="46.34656" lon="5.65493">
        <ele>575.2</ele>
        <time>2022-02-28T13:30:14Z</time>
      </trkpt>
      <trkpt lat="46.34658" lon="5.65494">
        <ele>575.4</ele>
        <time>2022-02-28T13:30:15Z</time>
      </trkpt>
      <trkpt lat="46.3466" lon="5.65495">
        <ele>575.6</ele>
        <time>2022-02-28T13:30:16Z</time>
      </trkpt>
      <trkpt lat="46.34661" lon="5.65495">
        <ele>576</ele>
        <time>2022-02-28T13:30:17Z</time>
      </trkpt>
      <trkpt lat="46.34663" lon="5.65496">
        <ele>576.4</ele>
        <time>2022-02-28T13:30:18Z</time>
      </trkpt>
      <trkpt lat="46.34666" lon="5.65499">
        <ele>576.4</ele>
        <time>2022-02-28T13:30:19Z</time>
      </trkpt>
      <trkpt lat="46.34668" lon="5.655">
        <ele>576.4</ele>
        <time>2022-02-28T13:30:20Z</time>
      </trkpt>
      <trkpt lat="46.3467" lon="5.65501">
        <ele>576.8</ele>
        <time>2022-02-28T13:30:21Z</time>
      </trkpt>
      <trkpt lat="46.34671" lon="5.65502">
        <ele>577</ele>
        <time>2022-02-28T13:30:22Z</time>
      </trkpt>
      <trkpt lat="46.34673" lon="5.65503">
        <ele>577.2</ele>
        <time>2022-02-28T13:30:23Z</time>
      </trkpt>
      <trkpt lat="46.34675" lon="5.65504">
        <ele>577.2</ele>
        <time>2022-02-28T13:30:24Z</time>
      </trkpt>
      <trkpt lat="46.34676" lon="5.65504">
        <ele>577.6</ele>
        <time>2022-02-28T13:30:25Z</time>
      </trkpt>
      <trkpt lat="46.34678" lon="5.65504">
        <ele>577.8</ele>
        <time>2022-02-28T13:30:26Z</time>
      </trkpt>
      <trkpt lat="46.3468" lon="5.65505">
        <ele>577.8</ele>
        <time>2022-02-28T13:30:27Z</time>
      </trkpt>
      <trkpt lat="46.34682" lon="5.65505">
        <ele>578.2</ele>
        <time>2022-02-28T13:30:28Z</time>
      </trkpt>
      <trkpt lat="46.34683" lon="5.65505">
        <ele>578.2</ele>
        <time>2022-02-28T13:30:29Z</time>
      </trkpt>
      <trkpt lat="46.34685" lon="5.65506">
        <ele>578.6</ele>
        <time>2022-02-28T13:30:30Z</time>
      </trkpt>
      <trkpt lat="46.34686" lon="5.65506">
        <ele>579</ele>
        <time>2022-02-28T13:30:31Z</time>
      </trkpt>
      <trkpt lat="46.34688" lon="5.65506">
        <ele>579.2</ele>
        <time>2022-02-28T13:30:32Z</time>
      </trkpt>
      <trkpt lat="46.3469" lon="5.65506">
        <ele>579.4</ele>
        <time>2022-02-28T13:30:33Z</time>
      </trkpt>
      <trkpt lat="46.34691" lon="5.65506">
        <ele>579.6</ele>
        <time>2022-02-28T13:30:34Z</time>
      </trkpt>
      <trkpt lat="46.34693" lon="5.65508">
        <ele>579.8</ele>
        <time>2022-02-28T13:30:35Z</time>
      </trkpt>
      <trkpt lat="46.34695" lon="5.65509">
        <ele>580.2</ele>
        <time>2022-02-28T13:30:36Z</time>
      </trkpt>
      <trkpt lat="46.34697" lon="5.65509">
        <ele>580.2</ele>
        <time>2022-02-28T13:30:37Z</time>
      </trkpt>
      <trkpt lat="46.34698" lon="5.6551">
        <ele>580.6</ele>
        <time>2022-02-28T13:30:38Z</time>
      </trkpt>
      <trkpt lat="46.347" lon="5.65511">
        <ele>580.8</ele>
        <time>2022-02-28T13:30:39Z</time>
      </trkpt>
      <trkpt lat="46.34702" lon="5.65512">
        <ele>581</ele>
        <time>2022-02-28T13:30:40Z</time>
      </trkpt>
      <trkpt lat="46.34704" lon="5.65513">
        <ele>581.2</ele>
        <time>2022-02-28T13:30:41Z</time>
      </trkpt>
      <trkpt lat="46.34705" lon="5.65515">
        <ele>581.2</ele>
        <time>2022-02-28T13:30:42Z</time>
      </trkpt>
      <trkpt lat="46.34707" lon="5.65516">
        <ele>581.6</ele>
        <time>2022-02-28T13:30:43Z</time>
      </trkpt>
      <trkpt lat="46.34709" lon="5.65517">
        <ele>581.6</ele>
        <time>2022-02-28T13:30:44Z</time>
      </trkpt>
      <trkpt lat="46.34711" lon="5.65519">
        <ele>581.8</ele>
        <time>2022-02-28T13:30:45Z</time>
      </trkpt>
      <trkpt lat="46.34712" lon="5.6552">
        <ele>582</ele>
        <time>2022-02-28T13:30:46Z</time>
      </trkpt>
      <trkpt lat="46.34714" lon="5.65521">
        <ele>582.2</ele>
        <time>2022-02-28T13:30:47Z</time>
      </trkpt>
      <trkpt lat="46.34716" lon="5.65522">
        <ele>582.4</ele>
        <time>2022-02-28T13:30:48Z</time>
      </trkpt>
      <trkpt lat="46.34717" lon="5.65522">
        <ele>582.4</ele>
        <time>2022-02-28T13:30:49Z</time>
      </trkpt>
      <trkpt lat="46.34719" lon="5.65523">
        <ele>582.8</ele>
        <time>2022-02-28T13:30:50Z</time>
      </trkpt>
      <trkpt lat="46.3472" lon="5.65524">
        <ele>583.4</ele>
        <time>2022-02-28T13:30:51Z</time>
      </trkpt>
      <trkpt lat="46.34722" lon="5.65525">
        <ele>583.8</ele>
        <time>2022-02-28T13:30:52Z</time>
      </trkpt>
      <trkpt lat="46.34723" lon="5.65526">
        <ele>584.2</ele>
        <time>2022-02-28T13:30:53Z</time>
      </trkpt>
      <trkpt lat="46.34725" lon="5.65527">
        <ele>584.2</ele>
        <time>2022-02-28T13:30:54Z</time>
      </trkpt>
      <trkpt lat="46.34726" lon="5.65528">
        <ele>584.4</ele>
        <time>2022-02-28T13:30:55Z</time>
      </trkpt>
      <trkpt lat="46.34727" lon="5.65529">
        <ele>584.4</ele>
        <time>2022-02-28T13:30:56Z</time>
      </trkpt>
      <trkpt lat="46.34729" lon="5.65531">
        <ele>584.6</ele>
        <time>2022-02-28T13:30:57Z</time>
      </trkpt>
      <trkpt lat="46.3473" lon="5.65532">
        <ele>584.8</ele>
        <time>2022-02-28T13:30:58Z</time>
      </trkpt>
      <trkpt lat="46.34732" lon="5.65532">
        <ele>585.2</ele>
        <time>2022-02-28T13:30:59Z</time>
      </trkpt>
      <trkpt lat="46.34733" lon="5.65533">
        <ele>585.4</ele>
        <time>2022-02-28T13:31:00Z</time>
      </trkpt>
      <trkpt lat="46.34735" lon="5.65533">
        <ele>585.4</ele>
        <time>2022-02-28T13:31:01Z</time>
      </trkpt>
      <trkpt lat="46.34737" lon="5.65534">
        <ele>585.6</ele>
        <time>2022-02-28T13:31:02Z</time>
      </trkpt>
      <trkpt lat="46.34738" lon="5.65534">
        <ele>585.6</ele>
        <time>2022-02-28T13:31:03Z</time>
      </trkpt>
      <trkpt lat="46.3474" lon="5.65535">
        <ele>586</ele>
        <time>2022-02-28T13:31:04Z</time>
      </trkpt>
      <trkpt lat="46.34741" lon="5.65536">
        <ele>586</ele>
        <time>2022-02-28T13:31:05Z</time>
      </trkpt>
      <trkpt lat="46.34743" lon="5.65537">
        <ele>586.4</ele>
        <time>2022-02-28T13:31:06Z</time>
      </trkpt>
      <trkpt lat="46.34745" lon="5.65538">
        <ele>586.4</ele>
        <time>2022-02-28T13:31:07Z</time>
      </trkpt>
      <trkpt lat="46.34747" lon="5.65539">
        <ele>586.8</ele>
        <time>2022-02-28T13:31:08Z</time>
      </trkpt>
      <trkpt lat="46.34748" lon="5.6554">
        <ele>587</ele>
        <time>2022-02-28T13:31:09Z</time>
      </trkpt>
      <trkpt lat="46.34752" lon="5.65542">
        <ele>587.4</ele>
        <time>2022-02-28T13:31:10Z</time>
      </trkpt>
      <trkpt lat="46.34752" lon="5.65542">
        <ele>587.4</ele>
        <time>2022-02-28T13:31:12Z</time>
      </trkpt>
      <trkpt lat="46.34754" lon="5.65542">
        <ele>587.8</ele>
        <time>2022-02-28T13:31:13Z</time>
      </trkpt>
      <trkpt lat="46.34755" lon="5.65544">
        <ele>588</ele>
        <time>2022-02-28T13:31:14Z</time>
      </trkpt>
      <trkpt lat="46.34757" lon="5.65545">
        <ele>588.4</ele>
        <time>2022-02-28T13:31:15Z</time>
      </trkpt>
      <trkpt lat="46.34758" lon="5.65546">
        <ele>588.6</ele>
        <time>2022-02-28T13:31:16Z</time>
      </trkpt>
      <trkpt lat="46.3476" lon="5.65548">
        <ele>588.8</ele>
        <time>2022-02-28T13:31:17Z</time>
      </trkpt>
      <trkpt lat="46.34761" lon="5.6555">
        <ele>588.8</ele>
        <time>2022-02-28T13:31:18Z</time>
      </trkpt>
      <trkpt lat="46.34762" lon="5.65552">
        <ele>589</ele>
        <time>2022-02-28T13:31:19Z</time>
      </trkpt>
      <trkpt lat="46.34763" lon="5.65554">
        <ele>589</ele>
        <time>2022-02-28T13:31:20Z</time>
      </trkpt>
      <trkpt lat="46.34765" lon="5.65556">
        <ele>589.6</ele>
        <time>2022-02-28T13:31:21Z</time>
      </trkpt>
      <trkpt lat="46.34766" lon="5.65558">
        <ele>589.8</ele>
        <time>2022-02-28T13:31:22Z</time>
      </trkpt>
      <trkpt lat="46.34767" lon="5.6556">
        <ele>590</ele>
        <time>2022-02-28T13:31:23Z</time>
      </trkpt>
      <trkpt lat="46.34769" lon="5.65562">
        <ele>590.2</ele>
        <time>2022-02-28T13:31:24Z</time>
      </trkpt>
      <trkpt lat="46.3477" lon="5.65564">
        <ele>590.6</ele>
        <time>2022-02-28T13:31:25Z</time>
      </trkpt>
      <trkpt lat="46.34771" lon="5.65566">
        <ele>590.8</ele>
        <time>2022-02-28T13:31:26Z</time>
      </trkpt>
      <trkpt lat="46.34772" lon="5.65569">
        <ele>590.8</ele>
        <time>2022-02-28T13:31:27Z</time>
      </trkpt>
      <trkpt lat="46.34772" lon="5.65572">
        <ele>591.2</ele>
        <time>2022-02-28T13:31:28Z</time>
      </trkpt>
      <trkpt lat="46.34773" lon="5.65574">
        <ele>591.4</ele>
        <time>2022-02-28T13:31:29Z</time>
      </trkpt>
      <trkpt lat="46.34774" lon="5.65577">
        <ele>591.6</ele>
        <time>2022-02-28T13:31:30Z</time>
      </trkpt>
      <trkpt lat="46.34774" lon="5.6558">
        <ele>591.8</ele>
        <time>2022-02-28T13:31:31Z</time>
      </trkpt>
      <trkpt lat="46.34775" lon="5.65583">
        <ele>592.2</ele>
        <time>2022-02-28T13:31:32Z</time>
      </trkpt>
      <trkpt lat="46.34775" lon="5.65586">
        <ele>592.2</ele>
        <time>2022-02-28T13:31:33Z</time>
      </trkpt>
      <trkpt lat="46.34775" lon="5.65589">
        <ele>592.4</ele>
        <time>2022-02-28T13:31:34Z</time>
      </trkpt>
      <trkpt lat="46.34774" lon="5.65592">
        <ele>592.4</ele>
        <time>2022-02-28T13:31:35Z</time>
      </trkpt>
      <trkpt lat="46.34774" lon="5.65595">
        <ele>592.6</ele>
        <time>2022-02-28T13:31:36Z</time>
      </trkpt>
      <trkpt lat="46.34773" lon="5.65597">
        <ele>592.6</ele>
        <time>2022-02-28T13:31:37Z</time>
      </trkpt>
      <trkpt lat="46.34772" lon="5.656">
        <ele>593</ele>
        <time>2022-02-28T13:31:38Z</time>
      </trkpt>
      <trkpt lat="46.34772" lon="5.65603">
        <ele>593</ele>
        <time>2022-02-28T13:31:39Z</time>
      </trkpt>
      <trkpt lat="46.34771" lon="5.65606">
        <ele>593.2</ele>
        <time>2022-02-28T13:31:40Z</time>
      </trkpt>
      <trkpt lat="46.34769" lon="5.65608">
        <ele>593.2</ele>
        <time>2022-02-28T13:31:41Z</time>
      </trkpt>
      <trkpt lat="46.34768" lon="5.65611">
        <ele>593.6</ele>
        <time>2022-02-28T13:31:42Z</time>
      </trkpt>
      <trkpt lat="46.34767" lon="5.65614">
        <ele>593.6</ele>
        <time>2022-02-28T13:31:43Z</time>
      </trkpt>
      <trkpt lat="46.34765" lon="5.65616">
        <ele>593.8</ele>
        <time>2022-02-28T13:31:44Z</time>
      </trkpt>
      <trkpt lat="46.34764" lon="5.65619">
        <ele>593.8</ele>
        <time>2022-02-28T13:31:45Z</time>
      </trkpt>
      <trkpt lat="46.34763" lon="5.65622">
        <ele>594</ele>
        <time>2022-02-28T13:31:46Z</time>
      </trkpt>
      <trkpt lat="46.34762" lon="5.65624">
        <ele>594</ele>
        <time>2022-02-28T13:31:47Z</time>
      </trkpt>
      <trkpt lat="46.34761" lon="5.65627">
        <ele>594.4</ele>
        <time>2022-02-28T13:31:48Z</time>
      </trkpt>
      <trkpt lat="46.3476" lon="5.6563">
        <ele>594.4</ele>
        <time>2022-02-28T13:31:49Z</time>
      </trkpt>
      <trkpt lat="46.34759" lon="5.65633">
        <ele>594.6</ele>
        <time>2022-02-28T13:31:50Z</time>
      </trkpt>
      <trkpt lat="46.34759" lon="5.65636">
        <ele>594.8</ele>
        <time>2022-02-28T13:31:51Z</time>
      </trkpt>
      <trkpt lat="46.34759" lon="5.65639">
        <ele>595</ele>
        <time>2022-02-28T13:31:52Z</time>
      </trkpt>
      <trkpt lat="46.34759" lon="5.65642">
        <ele>595</ele>
        <time>2022-02-28T13:31:53Z</time>
      </trkpt>
      <trkpt lat="46.34759" lon="5.65645">
        <ele>595.4</ele>
        <time>2022-02-28T13:31:54Z</time>
      </trkpt>
      <trkpt lat="46.34759" lon="5.65648">
        <ele>595.6</ele>
        <time>2022-02-28T13:31:55Z</time>
      </trkpt>
      <trkpt lat="46.3476" lon="5.6565">
        <ele>595.6</ele>
        <time>2022-02-28T13:31:56Z</time>
      </trkpt>
      <trkpt lat="46.34761" lon="5.65653">
        <ele>595.8</ele>
        <time>2022-02-28T13:31:57Z</time>
      </trkpt>
      <trkpt lat="46.34761" lon="5.65656">
        <ele>595.8</ele>
        <time>2022-02-28T13:31:58Z</time>
      </trkpt>
      <trkpt lat="46.34762" lon="5.65658">
        <ele>596</ele>
        <time>2022-02-28T13:31:59Z</time>
      </trkpt>
      <trkpt lat="46.34763" lon="5.65661">
        <ele>596</ele>
        <time>2022-02-28T13:32:00Z</time>
      </trkpt>
      <trkpt lat="46.34764" lon="5.65663">
        <ele>596.4</ele>
        <time>2022-02-28T13:32:01Z</time>
      </trkpt>
      <trkpt lat="46.34765" lon="5.65666">
        <ele>596.4</ele>
        <time>2022-02-28T13:32:02Z</time>
      </trkpt>
      <trkpt lat="46.34766" lon="5.65668">
        <ele>596.6</ele>
        <time>2022-02-28T13:32:03Z</time>
      </trkpt>
      <trkpt lat="46.34767" lon="5.65671">
        <ele>596.6</ele>
        <time>2022-02-28T13:32:04Z</time>
      </trkpt>
      <trkpt lat="46.34769" lon="5.65673">
        <ele>597</ele>
        <time>2022-02-28T13:32:05Z</time>
      </trkpt>
      <trkpt lat="46.3477" lon="5.65675">
        <ele>597</ele>
        <time>2022-02-28T13:32:06Z</time>
      </trkpt>
      <trkpt lat="46.34771" lon="5.65677">
        <ele>597.2</ele>
        <time>2022-02-28T13:32:07Z</time>
      </trkpt>
      <trkpt lat="46.34773" lon="5.6568">
        <ele>597.2</ele>
        <time>2022-02-28T13:32:08Z</time>
      </trkpt>
      <trkpt lat="46.34774" lon="5.65682">
        <ele>597.6</ele>
        <time>2022-02-28T13:32:09Z</time>
      </trkpt>
      <trkpt lat="46.34776" lon="5.65684">
        <ele>597.6</ele>
        <time>2022-02-28T13:32:10Z</time>
      </trkpt>
      <trkpt lat="46.34777" lon="5.65686">
        <ele>597.8</ele>
        <time>2022-02-28T13:32:11Z</time>
      </trkpt>
      <trkpt lat="46.34779" lon="5.65688">
        <ele>597.8</ele>
        <time>2022-02-28T13:32:12Z</time>
      </trkpt>
      <trkpt lat="46.34781" lon="5.65689">
        <ele>598</ele>
        <time>2022-02-28T13:32:13Z</time>
      </trkpt>
      <trkpt lat="46.34782" lon="5.65691">
        <ele>598</ele>
        <time>2022-02-28T13:32:14Z</time>
      </trkpt>
      <trkpt lat="46.34784" lon="5.65693">
        <ele>598</ele>
        <time>2022-02-28T13:32:15Z</time>
      </trkpt>
      <trkpt lat="46.34786" lon="5.65695">
        <ele>598.4</ele>
        <time>2022-02-28T13:32:16Z</time>
      </trkpt>
      <trkpt lat="46.34787" lon="5.65696">
        <ele>598.4</ele>
        <time>2022-02-28T13:32:17Z</time>
      </trkpt>
      <trkpt lat="46.34789" lon="5.65698">
        <ele>598.8</ele>
        <time>2022-02-28T13:32:18Z</time>
      </trkpt>
      <trkpt lat="46.3479" lon="5.657">
        <ele>599</ele>
        <time>2022-02-28T13:32:19Z</time>
      </trkpt>
      <trkpt lat="46.34792" lon="5.65702">
        <ele>599.2</ele>
        <time>2022-02-28T13:32:20Z</time>
      </trkpt>
      <trkpt lat="46.34793" lon="5.65704">
        <ele>599.2</ele>
        <time>2022-02-28T13:32:21Z</time>
      </trkpt>
      <trkpt lat="46.34794" lon="5.65706">
        <ele>599.4</ele>
        <time>2022-02-28T13:32:22Z</time>
      </trkpt>
      <trkpt lat="46.34795" lon="5.65708">
        <ele>599.4</ele>
        <time>2022-02-28T13:32:23Z</time>
      </trkpt>
      <trkpt lat="46.34797" lon="5.65711">
        <ele>599.8</ele>
        <time>2022-02-28T13:32:24Z</time>
      </trkpt>
      <trkpt lat="46.34798" lon="5.65713">
        <ele>599.8</ele>
        <time>2022-02-28T13:32:25Z</time>
      </trkpt>
      <trkpt lat="46.348" lon="5.65714">
        <ele>600.2</ele>
        <time>2022-02-28T13:32:26Z</time>
      </trkpt>
      <trkpt lat="46.34802" lon="5.65716">
        <ele>600.2</ele>
        <time>2022-02-28T13:32:27Z</time>
      </trkpt>
      <trkpt lat="46.34803" lon="5.65717">
        <ele>600.4</ele>
        <time>2022-02-28T13:32:28Z</time>
      </trkpt>
      <trkpt lat="46.34805" lon="5.65719">
        <ele>600.4</ele>
        <time>2022-02-28T13:32:29Z</time>
      </trkpt>
      <trkpt lat="46.34807" lon="5.6572">
        <ele>600.8</ele>
        <time>2022-02-28T13:32:30Z</time>
      </trkpt>
      <trkpt lat="46.34809" lon="5.65722">
        <ele>600.8</ele>
        <time>2022-02-28T13:32:31Z</time>
      </trkpt>
      <trkpt lat="46.3481" lon="5.65723">
        <ele>601</ele>
        <time>2022-02-28T13:32:32Z</time>
      </trkpt>
      <trkpt lat="46.34813" lon="5.65724">
        <ele>601</ele>
        <time>2022-02-28T13:32:33Z</time>
      </trkpt>
      <trkpt lat="46.34815" lon="5.65726">
        <ele>601.2</ele>
        <time>2022-02-28T13:32:34Z</time>
      </trkpt>
      <trkpt lat="46.34817" lon="5.65727">
        <ele>601.2</ele>
        <time>2022-02-28T13:32:35Z</time>
      </trkpt>
      <trkpt lat="46.34819" lon="5.65728">
        <ele>601.6</ele>
        <time>2022-02-28T13:32:36Z</time>
      </trkpt>
      <trkpt lat="46.34822" lon="5.65729">
        <ele>601.6</ele>
        <time>2022-02-28T13:32:37Z</time>
      </trkpt>
      <trkpt lat="46.34824" lon="5.6573">
        <ele>602</ele>
        <time>2022-02-28T13:32:38Z</time>
      </trkpt>
      <trkpt lat="46.34826" lon="5.65731">
        <ele>602</ele>
        <time>2022-02-28T13:32:39Z</time>
      </trkpt>
      <trkpt lat="46.34829" lon="5.65731">
        <ele>602.2</ele>
        <time>2022-02-28T13:32:40Z</time>
      </trkpt>
      <trkpt lat="46.34831" lon="5.65731">
        <ele>602.2</ele>
        <time>2022-02-28T13:32:41Z</time>
      </trkpt>
      <trkpt lat="46.34833" lon="5.6573">
        <ele>602.4</ele>
        <time>2022-02-28T13:32:42Z</time>
      </trkpt>
      <trkpt lat="46.34836" lon="5.6573">
        <ele>602.6</ele>
        <time>2022-02-28T13:32:43Z</time>
      </trkpt>
      <trkpt lat="46.34838" lon="5.6573">
        <ele>602.6</ele>
        <time>2022-02-28T13:32:44Z</time>
      </trkpt>
      <trkpt lat="46.3484" lon="5.6573">
        <ele>603</ele>
        <time>2022-02-28T13:32:45Z</time>
      </trkpt>
      <trkpt lat="46.34842" lon="5.65731">
        <ele>603.2</ele>
        <time>2022-02-28T13:32:46Z</time>
      </trkpt>
      <trkpt lat="46.34845" lon="5.65731">
        <ele>603.2</ele>
        <time>2022-02-28T13:32:47Z</time>
      </trkpt>
      <trkpt lat="46.34847" lon="5.65731">
        <ele>603.4</ele>
        <time>2022-02-28T13:32:48Z</time>
      </trkpt>
      <trkpt lat="46.34849" lon="5.65731">
        <ele>603.4</ele>
        <time>2022-02-28T13:32:49Z</time>
      </trkpt>
      <trkpt lat="46.34852" lon="5.65731">
        <ele>603.8</ele>
        <time>2022-02-28T13:32:50Z</time>
      </trkpt>
      <trkpt lat="46.34854" lon="5.65732">
        <ele>604</ele>
        <time>2022-02-28T13:32:51Z</time>
      </trkpt>
      <trkpt lat="46.34856" lon="5.65732">
        <ele>604.2</ele>
        <time>2022-02-28T13:32:52Z</time>
      </trkpt>
      <trkpt lat="46.34858" lon="5.65733">
        <ele>604.2</ele>
        <time>2022-02-28T13:32:53Z</time>
      </trkpt>
      <trkpt lat="46.3486" lon="5.65735">
        <ele>604.6</ele>
        <time>2022-02-28T13:32:54Z</time>
      </trkpt>
      <trkpt lat="46.34862" lon="5.65737">
        <ele>604.8</ele>
        <time>2022-02-28T13:32:55Z</time>
      </trkpt>
      <trkpt lat="46.34864" lon="5.65738">
        <ele>604.8</ele>
        <time>2022-02-28T13:32:56Z</time>
      </trkpt>
      <trkpt lat="46.34866" lon="5.6574">
        <ele>605</ele>
        <time>2022-02-28T13:32:57Z</time>
      </trkpt>
      <trkpt lat="46.34867" lon="5.65743">
        <ele>605.4</ele>
        <time>2022-02-28T13:32:58Z</time>
      </trkpt>
      <trkpt lat="46.34869" lon="5.65745">
        <ele>605.4</ele>
        <time>2022-02-28T13:32:59Z</time>
      </trkpt>
      <trkpt lat="46.34871" lon="5.65748">
        <ele>605.6</ele>
        <time>2022-02-28T13:33:00Z</time>
      </trkpt>
      <trkpt lat="46.34872" lon="5.6575">
        <ele>605.6</ele>
        <time>2022-02-28T13:33:01Z</time>
      </trkpt>
      <trkpt lat="46.34874" lon="5.65753">
        <ele>605.8</ele>
        <time>2022-02-28T13:33:02Z</time>
      </trkpt>
      <trkpt lat="46.34875" lon="5.65755">
        <ele>605.8</ele>
        <time>2022-02-28T13:33:03Z</time>
      </trkpt>
      <trkpt lat="46.34876" lon="5.65758">
        <ele>606.2</ele>
        <time>2022-02-28T13:33:04Z</time>
      </trkpt>
      <trkpt lat="46.34878" lon="5.6576">
        <ele>606.2</ele>
        <time>2022-02-28T13:33:05Z</time>
      </trkpt>
      <trkpt lat="46.34879" lon="5.65763">
        <ele>606.6</ele>
        <time>2022-02-28T13:33:06Z</time>
      </trkpt>
      <trkpt lat="46.34881" lon="5.65765">
        <ele>606.6</ele>
        <time>2022-02-28T13:33:07Z</time>
      </trkpt>
      <trkpt lat="46.34883" lon="5.65768">
        <ele>607</ele>
        <time>2022-02-28T13:33:08Z</time>
      </trkpt>
      <trkpt lat="46.34885" lon="5.6577">
        <ele>607</ele>
        <time>2022-02-28T13:33:09Z</time>
      </trkpt>
      <trkpt lat="46.34886" lon="5.65773">
        <ele>607.2</ele>
        <time>2022-02-28T13:33:10Z</time>
      </trkpt>
      <trkpt lat="46.34888" lon="5.65776">
        <ele>607.4</ele>
        <time>2022-02-28T13:33:11Z</time>
      </trkpt>
      <trkpt lat="46.3489" lon="5.65779">
        <ele>607.6</ele>
        <time>2022-02-28T13:33:12Z</time>
      </trkpt>
      <trkpt lat="46.34891" lon="5.65782">
        <ele>608</ele>
        <time>2022-02-28T13:33:13Z</time>
      </trkpt>
      <trkpt lat="46.34893" lon="5.65785">
        <ele>608.2</ele>
        <time>2022-02-28T13:33:14Z</time>
      </trkpt>
      <trkpt lat="46.34895" lon="5.65787">
        <ele>608.2</ele>
        <time>2022-02-28T13:33:15Z</time>
      </trkpt>
      <trkpt lat="46.34897" lon="5.6579">
        <ele>608.6</ele>
        <time>2022-02-28T13:33:16Z</time>
      </trkpt>
      <trkpt lat="46.34898" lon="5.65793">
        <ele>608.6</ele>
        <time>2022-02-28T13:33:17Z</time>
      </trkpt>
      <trkpt lat="46.349" lon="5.65796">
        <ele>608.8</ele>
        <time>2022-02-28T13:33:18Z</time>
      </trkpt>
      <trkpt lat="46.34901" lon="5.65799">
        <ele>608.8</ele>
        <time>2022-02-28T13:33:19Z</time>
      </trkpt>
      <trkpt lat="46.34903" lon="5.65802">
        <ele>609.2</ele>
        <time>2022-02-28T13:33:20Z</time>
      </trkpt>
      <trkpt lat="46.34904" lon="5.65805">
        <ele>609.2</ele>
        <time>2022-02-28T13:33:21Z</time>
      </trkpt>
      <trkpt lat="46.34906" lon="5.65808">
        <ele>609.4</ele>
        <time>2022-02-28T13:33:22Z</time>
      </trkpt>
      <trkpt lat="46.34907" lon="5.65811">
        <ele>609.6</ele>
        <time>2022-02-28T13:33:23Z</time>
      </trkpt>
      <trkpt lat="46.34909" lon="5.65813">
        <ele>609.6</ele>
        <time>2022-02-28T13:33:24Z</time>
      </trkpt>
      <trkpt lat="46.3491" lon="5.65816">
        <ele>610</ele>
        <time>2022-02-28T13:33:25Z</time>
      </trkpt>
      <trkpt lat="46.34912" lon="5.65819">
        <ele>610</ele>
        <time>2022-02-28T13:33:26Z</time>
      </trkpt>
      <trkpt lat="46.34913" lon="5.65822">
        <ele>610.4</ele>
        <time>2022-02-28T13:33:27Z</time>
      </trkpt>
      <trkpt lat="46.34915" lon="5.65825">
        <ele>610.4</ele>
        <time>2022-02-28T13:33:28Z</time>
      </trkpt>
      <trkpt lat="46.34916" lon="5.65828">
        <ele>610.8</ele>
        <time>2022-02-28T13:33:29Z</time>
      </trkpt>
      <trkpt lat="46.34918" lon="5.6583">
        <ele>611</ele>
        <time>2022-02-28T13:33:30Z</time>
      </trkpt>
      <trkpt lat="46.3492" lon="5.65833">
        <ele>611</ele>
        <time>2022-02-28T13:33:31Z</time>
      </trkpt>
      <trkpt lat="46.34922" lon="5.65835">
        <ele>611.4</ele>
        <time>2022-02-28T13:33:32Z</time>
      </trkpt>
      <trkpt lat="46.34924" lon="5.65837">
        <ele>611.4</ele>
        <time>2022-02-28T13:33:33Z</time>
      </trkpt>
      <trkpt lat="46.34926" lon="5.65838">
        <ele>611.6</ele>
        <time>2022-02-28T13:33:34Z</time>
      </trkpt>
      <trkpt lat="46.34929" lon="5.6584">
        <ele>611.6</ele>
        <time>2022-02-28T13:33:35Z</time>
      </trkpt>
      <trkpt lat="46.34931" lon="5.65841">
        <ele>612</ele>
        <time>2022-02-28T13:33:36Z</time>
      </trkpt>
      <trkpt lat="46.34933" lon="5.65842">
        <ele>612</ele>
        <time>2022-02-28T13:33:37Z</time>
      </trkpt>
      <trkpt lat="46.34936" lon="5.65843">
        <ele>612.2</ele>
        <time>2022-02-28T13:33:38Z</time>
      </trkpt>
      <trkpt lat="46.34939" lon="5.65844">
        <ele>612.2</ele>
        <time>2022-02-28T13:33:39Z</time>
      </trkpt>
      <trkpt lat="46.34941" lon="5.65844">
        <ele>612.6</ele>
        <time>2022-02-28T13:33:40Z</time>
      </trkpt>
      <trkpt lat="46.34944" lon="5.65843">
        <ele>612.6</ele>
        <time>2022-02-28T13:33:41Z</time>
      </trkpt>
      <trkpt lat="46.34947" lon="5.65843">
        <ele>613</ele>
        <time>2022-02-28T13:33:42Z</time>
      </trkpt>
      <trkpt lat="46.34949" lon="5.65842">
        <ele>613</ele>
        <time>2022-02-28T13:33:43Z</time>
      </trkpt>
      <trkpt lat="46.34952" lon="5.65842">
        <ele>613.4</ele>
        <time>2022-02-28T13:33:44Z</time>
      </trkpt>
      <trkpt lat="46.34954" lon="5.65841">
        <ele>613.4</ele>
        <time>2022-02-28T13:33:45Z</time>
      </trkpt>
      <trkpt lat="46.34956" lon="5.6584">
        <ele>613.6</ele>
        <time>2022-02-28T13:33:46Z</time>
      </trkpt>
      <trkpt lat="46.34959" lon="5.65839">
        <ele>613.6</ele>
        <time>2022-02-28T13:33:47Z</time>
      </trkpt>
      <trkpt lat="46.34961" lon="5.65838">
        <ele>614</ele>
        <time>2022-02-28T13:33:48Z</time>
      </trkpt>
      <trkpt lat="46.34963" lon="5.65837">
        <ele>614.2</ele>
        <time>2022-02-28T13:33:49Z</time>
      </trkpt>
      <trkpt lat="46.34966" lon="5.65836">
        <ele>614.4</ele>
        <time>2022-02-28T13:33:50Z</time>
      </trkpt>
      <trkpt lat="46.34968" lon="5.65835">
        <ele>614.4</ele>
        <time>2022-02-28T13:33:51Z</time>
      </trkpt>
      <trkpt lat="46.34971" lon="5.65835">
        <ele>614.6</ele>
        <time>2022-02-28T13:33:52Z</time>
      </trkpt>
      <trkpt lat="46.34973" lon="5.65834">
        <ele>615</ele>
        <time>2022-02-28T13:33:53Z</time>
      </trkpt>
      <trkpt lat="46.34976" lon="5.65834">
        <ele>615.2</ele>
        <time>2022-02-28T13:33:54Z</time>
      </trkpt>
      <trkpt lat="46.34978" lon="5.65835">
        <ele>615.2</ele>
        <time>2022-02-28T13:33:55Z</time>
      </trkpt>
      <trkpt lat="46.34981" lon="5.65835">
        <ele>615.6</ele>
        <time>2022-02-28T13:33:56Z</time>
      </trkpt>
      <trkpt lat="46.34984" lon="5.65837">
        <ele>615.6</ele>
        <time>2022-02-28T13:33:57Z</time>
      </trkpt>
      <trkpt lat="46.34986" lon="5.65839">
        <ele>615.8</ele>
        <time>2022-02-28T13:33:58Z</time>
      </trkpt>
      <trkpt lat="46.34988" lon="5.65841">
        <ele>615.8</ele>
        <time>2022-02-28T13:33:59Z</time>
      </trkpt>
      <trkpt lat="46.34991" lon="5.65843">
        <ele>616</ele>
        <time>2022-02-28T13:34:00Z</time>
      </trkpt>
      <trkpt lat="46.34993" lon="5.65844">
        <ele>616</ele>
        <time>2022-02-28T13:34:01Z</time>
      </trkpt>
      <trkpt lat="46.34995" lon="5.65846">
        <ele>616.4</ele>
        <time>2022-02-28T13:34:02Z</time>
      </trkpt>
      <trkpt lat="46.34997" lon="5.65848">
        <ele>616.4</ele>
        <time>2022-02-28T13:34:03Z</time>
      </trkpt>
      <trkpt lat="46.35" lon="5.6585">
        <ele>616.6</ele>
        <time>2022-02-28T13:34:04Z</time>
      </trkpt>
      <trkpt lat="46.35002" lon="5.65852">
        <ele>616.6</ele>
        <time>2022-02-28T13:34:05Z</time>
      </trkpt>
      <trkpt lat="46.35004" lon="5.65854">
        <ele>617</ele>
        <time>2022-02-28T13:34:06Z</time>
      </trkpt>
      <trkpt lat="46.35006" lon="5.65856">
        <ele>617</ele>
        <time>2022-02-28T13:34:07Z</time>
      </trkpt>
      <trkpt lat="46.35009" lon="5.65858">
        <ele>617.2</ele>
        <time>2022-02-28T13:34:08Z</time>
      </trkpt>
      <trkpt lat="46.35011" lon="5.6586">
        <ele>617.2</ele>
        <time>2022-02-28T13:34:09Z</time>
      </trkpt>
      <trkpt lat="46.35013" lon="5.65862">
        <ele>617.6</ele>
        <time>2022-02-28T13:34:10Z</time>
      </trkpt>
      <trkpt lat="46.35016" lon="5.65863">
        <ele>617.6</ele>
        <time>2022-02-28T13:34:11Z</time>
      </trkpt>
      <trkpt lat="46.35018" lon="5.65865">
        <ele>617.8</ele>
        <time>2022-02-28T13:34:12Z</time>
      </trkpt>
      <trkpt lat="46.3502" lon="5.65868">
        <ele>617.8</ele>
        <time>2022-02-28T13:34:13Z</time>
      </trkpt>
      <trkpt lat="46.35023" lon="5.6587">
        <ele>618.2</ele>
        <time>2022-02-28T13:34:14Z</time>
      </trkpt>
      <trkpt lat="46.35025" lon="5.65871">
        <ele>618.2</ele>
        <time>2022-02-28T13:34:15Z</time>
      </trkpt>
      <trkpt lat="46.35028" lon="5.65872">
        <ele>618.4</ele>
        <time>2022-02-28T13:34:16Z</time>
      </trkpt>
      <trkpt lat="46.3503" lon="5.65872">
        <ele>618.4</ele>
        <time>2022-02-28T13:34:17Z</time>
      </trkpt>
      <trkpt lat="46.35033" lon="5.65873">
        <ele>618.8</ele>
        <time>2022-02-28T13:34:18Z</time>
      </trkpt>
      <trkpt lat="46.35035" lon="5.65873">
        <ele>618.8</ele>
        <time>2022-02-28T13:34:19Z</time>
      </trkpt>
      <trkpt lat="46.35038" lon="5.65872">
        <ele>619</ele>
        <time>2022-02-28T13:34:20Z</time>
      </trkpt>
      <trkpt lat="46.35041" lon="5.65872">
        <ele>619</ele>
        <time>2022-02-28T13:34:21Z</time>
      </trkpt>
      <trkpt lat="46.35043" lon="5.65871">
        <ele>619.4</ele>
        <time>2022-02-28T13:34:22Z</time>
      </trkpt>
      <trkpt lat="46.35045" lon="5.65869">
        <ele>619.6</ele>
        <time>2022-02-28T13:34:23Z</time>
      </trkpt>
      <trkpt lat="46.35048" lon="5.65867">
        <ele>619.6</ele>
        <time>2022-02-28T13:34:24Z</time>
      </trkpt>
      <trkpt lat="46.3505" lon="5.65865">
        <ele>620</ele>
        <time>2022-02-28T13:34:25Z</time>
      </trkpt>
      <trkpt lat="46.35052" lon="5.65864">
        <ele>620</ele>
        <time>2022-02-28T13:34:26Z</time>
      </trkpt>
      <trkpt lat="46.35054" lon="5.65862">
        <ele>620.4</ele>
        <time>2022-02-28T13:34:27Z</time>
      </trkpt>
      <trkpt lat="46.35056" lon="5.65859">
        <ele>620.4</ele>
        <time>2022-02-28T13:34:28Z</time>
      </trkpt>
      <trkpt lat="46.3506" lon="5.65855">
        <ele>620.6</ele>
        <time>2022-02-28T13:34:29Z</time>
      </trkpt>
      <trkpt lat="46.35062" lon="5.65852">
        <ele>620.6</ele>
        <time>2022-02-28T13:34:30Z</time>
      </trkpt>
      <trkpt lat="46.35063" lon="5.6585">
        <ele>620.8</ele>
        <time>2022-02-28T13:34:31Z</time>
      </trkpt>
      <trkpt lat="46.35065" lon="5.65848">
        <ele>620.8</ele>
        <time>2022-02-28T13:34:32Z</time>
      </trkpt>
      <trkpt lat="46.35066" lon="5.65845">
        <ele>621.2</ele>
        <time>2022-02-28T13:34:33Z</time>
      </trkpt>
      <trkpt lat="46.35068" lon="5.65842">
        <ele>621.2</ele>
        <time>2022-02-28T13:34:34Z</time>
      </trkpt>
      <trkpt lat="46.3507" lon="5.65839">
        <ele>621.4</ele>
        <time>2022-02-28T13:34:35Z</time>
      </trkpt>
      <trkpt lat="46.35072" lon="5.65837">
        <ele>621.6</ele>
        <time>2022-02-28T13:34:36Z</time>
      </trkpt>
      <trkpt lat="46.35074" lon="5.65835">
        <ele>621.6</ele>
        <time>2022-02-28T13:34:37Z</time>
      </trkpt>
      <trkpt lat="46.35076" lon="5.65832">
        <ele>622</ele>
        <time>2022-02-28T13:34:38Z</time>
      </trkpt>
      <trkpt lat="46.35078" lon="5.6583">
        <ele>622</ele>
        <time>2022-02-28T13:34:39Z</time>
      </trkpt>
      <trkpt lat="46.3508" lon="5.65828">
        <ele>622.2</ele>
        <time>2022-02-28T13:34:40Z</time>
      </trkpt>
      <trkpt lat="46.35082" lon="5.65826">
        <ele>622.4</ele>
        <time>2022-02-28T13:34:41Z</time>
      </trkpt>
      <trkpt lat="46.35084" lon="5.65825">
        <ele>622.4</ele>
        <time>2022-02-28T13:34:42Z</time>
      </trkpt>
      <trkpt lat="46.35086" lon="5.65823">
        <ele>622.6</ele>
        <time>2022-02-28T13:34:43Z</time>
      </trkpt>
      <trkpt lat="46.35088" lon="5.65822">
        <ele>622.6</ele>
        <time>2022-02-28T13:34:44Z</time>
      </trkpt>
      <trkpt lat="46.3509" lon="5.65822">
        <ele>623</ele>
        <time>2022-02-28T13:34:45Z</time>
      </trkpt>
      <trkpt lat="46.35092" lon="5.65822">
        <ele>623</ele>
        <time>2022-02-28T13:34:46Z</time>
      </trkpt>
      <trkpt lat="46.35094" lon="5.65822">
        <ele>623.4</ele>
        <time>2022-02-28T13:34:47Z</time>
      </trkpt>
      <trkpt lat="46.35096" lon="5.65823">
        <ele>623.6</ele>
        <time>2022-02-28T13:34:48Z</time>
      </trkpt>
      <trkpt lat="46.35097" lon="5.65824">
        <ele>623.6</ele>
        <time>2022-02-28T13:34:49Z</time>
      </trkpt>
      <trkpt lat="46.35099" lon="5.65824">
        <ele>624</ele>
        <time>2022-02-28T13:34:50Z</time>
      </trkpt>
      <trkpt lat="46.35101" lon="5.65825">
        <ele>624</ele>
        <time>2022-02-28T13:34:51Z</time>
      </trkpt>
      <trkpt lat="46.35104" lon="5.65827">
        <ele>624</ele>
        <time>2022-02-28T13:34:52Z</time>
      </trkpt>
      <trkpt lat="46.35106" lon="5.65828">
        <ele>624.2</ele>
        <time>2022-02-28T13:34:53Z</time>
      </trkpt>
      <trkpt lat="46.35109" lon="5.65829">
        <ele>624.2</ele>
        <time>2022-02-28T13:34:54Z</time>
      </trkpt>
      <trkpt lat="46.35111" lon="5.6583">
        <ele>624.6</ele>
        <time>2022-02-28T13:34:55Z</time>
      </trkpt>
      <trkpt lat="46.35114" lon="5.65832">
        <ele>624.6</ele>
        <time>2022-02-28T13:34:56Z</time>
      </trkpt>
      <trkpt lat="46.35116" lon="5.65833">
        <ele>625</ele>
        <time>2022-02-28T13:34:57Z</time>
      </trkpt>
      <trkpt lat="46.35118" lon="5.65834">
        <ele>625</ele>
        <time>2022-02-28T13:34:58Z</time>
      </trkpt>
      <trkpt lat="46.35121" lon="5.65835">
        <ele>625.2</ele>
        <time>2022-02-28T13:34:59Z</time>
      </trkpt>
      <trkpt lat="46.35124" lon="5.65835">
        <ele>625.2</ele>
        <time>2022-02-28T13:35:00Z</time>
      </trkpt>
      <trkpt lat="46.35127" lon="5.65836">
        <ele>625.2</ele>
        <time>2022-02-28T13:35:01Z</time>
      </trkpt>
      <trkpt lat="46.35131" lon="5.65836">
        <ele>625.2</ele>
        <time>2022-02-28T13:35:02Z</time>
      </trkpt>
      <trkpt lat="46.35136" lon="5.65837">
        <ele>624.6</ele>
        <time>2022-02-28T13:35:03Z</time>
      </trkpt>
      <trkpt lat="46.35141" lon="5.65839">
        <ele>624.4</ele>
        <time>2022-02-28T13:35:04Z</time>
      </trkpt>
      <trkpt lat="46.35148" lon="5.65842">
        <ele>623.8</ele>
        <time>2022-02-28T13:35:05Z</time>
      </trkpt>
      <trkpt lat="46.35154" lon="5.65846">
        <ele>623.4</ele>
        <time>2022-02-28T13:35:06Z</time>
      </trkpt>
      <trkpt lat="46.35161" lon="5.65851">
        <ele>623</ele>
        <time>2022-02-28T13:35:07Z</time>
      </trkpt>
      <trkpt lat="46.35167" lon="5.65855">
        <ele>622.6</ele>
        <time>2022-02-28T13:35:08Z</time>
      </trkpt>
      <trkpt lat="46.35173" lon="5.6586">
        <ele>622.4</ele>
        <time>2022-02-28T13:35:09Z</time>
      </trkpt>
      <trkpt lat="46.35179" lon="5.65866">
        <ele>622.4</ele>
        <time>2022-02-28T13:35:10Z</time>
      </trkpt>
      <trkpt lat="46.35185" lon="5.65871">
        <ele>622</ele>
        <time>2022-02-28T13:35:11Z</time>
      </trkpt>
      <trkpt lat="46.35191" lon="5.65877">
        <ele>621.8</ele>
        <time>2022-02-28T13:35:12Z</time>
      </trkpt>
      <trkpt lat="46.35197" lon="5.65883">
        <ele>621.6</ele>
        <time>2022-02-28T13:35:13Z</time>
      </trkpt>
      <trkpt lat="46.35203" lon="5.65889">
        <ele>621.2</ele>
        <time>2022-02-28T13:35:14Z</time>
      </trkpt>
      <trkpt lat="46.35208" lon="5.65894">
        <ele>621.2</ele>
        <time>2022-02-28T13:35:15Z</time>
      </trkpt>
      <trkpt lat="46.35214" lon="5.659">
        <ele>621</ele>
        <time>2022-02-28T13:35:16Z</time>
      </trkpt>
      <trkpt lat="46.35219" lon="5.65905">
        <ele>621</ele>
        <time>2022-02-28T13:35:17Z</time>
      </trkpt>
      <trkpt lat="46.35224" lon="5.6591">
        <ele>621</ele>
        <time>2022-02-28T13:35:18Z</time>
      </trkpt>
      <trkpt lat="46.35228" lon="5.65915">
        <ele>621</ele>
        <time>2022-02-28T13:35:19Z</time>
      </trkpt>
      <trkpt lat="46.35232" lon="5.6592">
        <ele>621</ele>
        <time>2022-02-28T13:35:20Z</time>
      </trkpt>
      <trkpt lat="46.35236" lon="5.65924">
        <ele>621</ele>
        <time>2022-02-28T13:35:21Z</time>
      </trkpt>
      <trkpt lat="46.35239" lon="5.65929">
        <ele>621</ele>
        <time>2022-02-28T13:35:22Z</time>
      </trkpt>
      <trkpt lat="46.35242" lon="5.65933">
        <ele>621.4</ele>
        <time>2022-02-28T13:35:23Z</time>
      </trkpt>
      <trkpt lat="46.35245" lon="5.65938">
        <ele>621.4</ele>
        <time>2022-02-28T13:35:24Z</time>
      </trkpt>
      <trkpt lat="46.35247" lon="5.65942">
        <ele>621.6</ele>
        <time>2022-02-28T13:35:25Z</time>
      </trkpt>
      <trkpt lat="46.3525" lon="5.65946">
        <ele>621.6</ele>
        <time>2022-02-28T13:35:26Z</time>
      </trkpt>
      <trkpt lat="46.35252" lon="5.65948">
        <ele>621.8</ele>
        <time>2022-02-28T13:35:27Z</time>
      </trkpt>
      <trkpt lat="46.35255" lon="5.65948">
        <ele>621.8</ele>
        <time>2022-02-28T13:35:28Z</time>
      </trkpt>
      <trkpt lat="46.35257" lon="5.65949">
        <ele>622.2</ele>
        <time>2022-02-28T13:35:29Z</time>
      </trkpt>
      <trkpt lat="46.35258" lon="5.6595">
        <ele>622.2</ele>
        <time>2022-02-28T13:35:30Z</time>
      </trkpt>
      <trkpt lat="46.3526" lon="5.65951">
        <ele>622.4</ele>
        <time>2022-02-28T13:35:31Z</time>
      </trkpt>
      <trkpt lat="46.35261" lon="5.65952">
        <ele>622.4</ele>
        <time>2022-02-28T13:35:32Z</time>
      </trkpt>
      <trkpt lat="46.35263" lon="5.65953">
        <ele>622.6</ele>
        <time>2022-02-28T13:35:33Z</time>
      </trkpt>
      <trkpt lat="46.35265" lon="5.65953">
        <ele>622.6</ele>
        <time>2022-02-28T13:35:34Z</time>
      </trkpt>
      <trkpt lat="46.35266" lon="5.65953">
        <ele>623</ele>
        <time>2022-02-28T13:35:35Z</time>
      </trkpt>
      <trkpt lat="46.35266" lon="5.65953">
        <ele>623</ele>
        <time>2022-02-28T13:35:36Z</time>
      </trkpt>
      <trkpt lat="46.35267" lon="5.65954">
        <ele>623.2</ele>
        <time>2022-02-28T13:35:37Z</time>
      </trkpt>
      <trkpt lat="46.35267" lon="5.65954">
        <ele>623.2</ele>
        <time>2022-02-28T13:35:38Z</time>
      </trkpt>
      <trkpt lat="46.35267" lon="5.65954">
        <ele>623.2</ele>
        <time>2022-02-28T13:35:39Z</time>
      </trkpt>
      <trkpt lat="46.35267" lon="5.65954">
        <ele>623.2</ele>
        <time>2022-02-28T13:35:40Z</time>
      </trkpt>
      <trkpt lat="46.35267" lon="5.65954">
        <ele>623.2</ele>
        <time>2022-02-28T13:35:41Z</time>
      </trkpt>
      <trkpt lat="46.35267" lon="5.65954">
        <ele>623.4</ele>
        <time>2022-02-28T13:35:42Z</time>
      </trkpt>
      <trkpt lat="46.35267" lon="5.65954">
        <ele>623.4</ele>
        <time>2022-02-28T13:35:43Z</time>
      </trkpt>
      <trkpt lat="46.35267" lon="5.65954">
        <ele>623.4</ele>
        <time>2022-02-28T13:35:44Z</time>
      </trkpt>
      <trkpt lat="46.35267" lon="5.65954">
        <ele>623.4</ele>
        <time>2022-02-28T13:35:45Z</time>
      </trkpt>
      <trkpt lat="46.35267" lon="5.65954">
        <ele>623.4</ele>
        <time>2022-02-28T13:35:46Z</time>
      </trkpt>
      <trkpt lat="46.35267" lon="5.65954">
        <ele>623.4</ele>
        <time>2022-02-28T13:35:47Z</time>
      </trkpt>
      <trkpt lat="46.35267" lon="5.65954">
        <ele>623.2</ele>
        <time>2022-02-28T13:35:48Z</time>
      </trkpt>
      <trkpt lat="46.35268" lon="5.65957">
        <ele>623.2</ele>
        <time>2022-02-28T13:35:49Z</time>
      </trkpt>
      <trkpt lat="46.35268" lon="5.6596">
        <ele>623.2</ele>
        <time>2022-02-28T13:35:50Z</time>
      </trkpt>
      <trkpt lat="46.35268" lon="5.65963">
        <ele>623.2</ele>
        <time>2022-02-28T13:35:51Z</time>
      </trkpt>
      <trkpt lat="46.35268" lon="5.65967">
        <ele>623.2</ele>
        <time>2022-02-28T13:35:52Z</time>
      </trkpt>
      <trkpt lat="46.35268" lon="5.6597">
        <ele>623.4</ele>
        <time>2022-02-28T13:35:53Z</time>
      </trkpt>
      <trkpt lat="46.35268" lon="5.65973">
        <ele>623.4</ele>
        <time>2022-02-28T13:35:54Z</time>
      </trkpt>
      <trkpt lat="46.35269" lon="5.65975">
        <ele>623.8</ele>
        <time>2022-02-28T13:35:55Z</time>
      </trkpt>
      <trkpt lat="46.3527" lon="5.65978">
        <ele>623.8</ele>
        <time>2022-02-28T13:35:56Z</time>
      </trkpt>
      <trkpt lat="46.35272" lon="5.6598">
        <ele>623.8</ele>
        <time>2022-02-28T13:35:57Z</time>
      </trkpt>
      <trkpt lat="46.35273" lon="5.65982">
        <ele>624</ele>
        <time>2022-02-28T13:35:58Z</time>
      </trkpt>
      <trkpt lat="46.35275" lon="5.65984">
        <ele>624.4</ele>
        <time>2022-02-28T13:35:59Z</time>
      </trkpt>
      <trkpt lat="46.35276" lon="5.65986">
        <ele>624.6</ele>
        <time>2022-02-28T13:36:00Z</time>
      </trkpt>
      <trkpt lat="46.35278" lon="5.65989">
        <ele>624.8</ele>
        <time>2022-02-28T13:36:01Z</time>
      </trkpt>
      <trkpt lat="46.3528" lon="5.65992">
        <ele>624.8</ele>
        <time>2022-02-28T13:36:02Z</time>
      </trkpt>
      <trkpt lat="46.35282" lon="5.65994">
        <ele>625.2</ele>
        <time>2022-02-28T13:36:03Z</time>
      </trkpt>
      <trkpt lat="46.35284" lon="5.65996">
        <ele>625.2</ele>
        <time>2022-02-28T13:36:04Z</time>
      </trkpt>
      <trkpt lat="46.35286" lon="5.65998">
        <ele>625.6</ele>
        <time>2022-02-28T13:36:05Z</time>
      </trkpt>
      <trkpt lat="46.35288" lon="5.66">
        <ele>625.8</ele>
        <time>2022-02-28T13:36:06Z</time>
      </trkpt>
      <trkpt lat="46.3529" lon="5.66002">
        <ele>625.8</ele>
        <time>2022-02-28T13:36:07Z</time>
      </trkpt>
      <trkpt lat="46.35292" lon="5.66004">
        <ele>626.2</ele>
        <time>2022-02-28T13:36:08Z</time>
      </trkpt>
      <trkpt lat="46.35294" lon="5.66005">
        <ele>626.4</ele>
        <time>2022-02-28T13:36:09Z</time>
      </trkpt>
      <trkpt lat="46.35296" lon="5.66007">
        <ele>626.4</ele>
        <time>2022-02-28T13:36:10Z</time>
      </trkpt>
      <trkpt lat="46.35298" lon="5.6601">
        <ele>626.6</ele>
        <time>2022-02-28T13:36:11Z</time>
      </trkpt>
      <trkpt lat="46.353" lon="5.66012">
        <ele>626.6</ele>
        <time>2022-02-28T13:36:12Z</time>
      </trkpt>
      <trkpt lat="46.35302" lon="5.66014">
        <ele>627</ele>
        <time>2022-02-28T13:36:13Z</time>
      </trkpt>
      <trkpt lat="46.35304" lon="5.66016">
        <ele>627</ele>
        <time>2022-02-28T13:36:14Z</time>
      </trkpt>
      <trkpt lat="46.35307" lon="5.66018">
        <ele>627.4</ele>
        <time>2022-02-28T13:36:15Z</time>
      </trkpt>
      <trkpt lat="46.35309" lon="5.6602">
        <ele>627.4</ele>
        <time>2022-02-28T13:36:16Z</time>
      </trkpt>
      <trkpt lat="46.35311" lon="5.66022">
        <ele>627.6</ele>
        <time>2022-02-28T13:36:17Z</time>
      </trkpt>
      <trkpt lat="46.35313" lon="5.66025">
        <ele>627.6</ele>
        <time>2022-02-28T13:36:18Z</time>
      </trkpt>
      <trkpt lat="46.35315" lon="5.66027">
        <ele>627.8</ele>
        <time>2022-02-28T13:36:19Z</time>
      </trkpt>
      <trkpt lat="46.35317" lon="5.66029">
        <ele>628.2</ele>
        <time>2022-02-28T13:36:20Z</time>
      </trkpt>
      <trkpt lat="46.35319" lon="5.66031">
        <ele>628.4</ele>
        <time>2022-02-28T13:36:21Z</time>
      </trkpt>
      <trkpt lat="46.35321" lon="5.66033">
        <ele>628.4</ele>
        <time>2022-02-28T13:36:22Z</time>
      </trkpt>
      <trkpt lat="46.35322" lon="5.66035">
        <ele>628.8</ele>
        <time>2022-02-28T13:36:23Z</time>
      </trkpt>
      <trkpt lat="46.35324" lon="5.66037">
        <ele>628.8</ele>
        <time>2022-02-28T13:36:24Z</time>
      </trkpt>
      <trkpt lat="46.35326" lon="5.66039">
        <ele>628.8</ele>
        <time>2022-02-28T13:36:25Z</time>
      </trkpt>
      <trkpt lat="46.35328" lon="5.66042">
        <ele>629.2</ele>
        <time>2022-02-28T13:36:26Z</time>
      </trkpt>
      <trkpt lat="46.3533" lon="5.66044">
        <ele>629.4</ele>
        <time>2022-02-28T13:36:27Z</time>
      </trkpt>
      <trkpt lat="46.35332" lon="5.66046">
        <ele>629.6</ele>
        <time>2022-02-28T13:36:28Z</time>
      </trkpt>
      <trkpt lat="46.35334" lon="5.66048">
        <ele>630</ele>
        <time>2022-02-28T13:36:29Z</time>
      </trkpt>
      <trkpt lat="46.35336" lon="5.6605">
        <ele>630.2</ele>
        <time>2022-02-28T13:36:30Z</time>
      </trkpt>
      <trkpt lat="46.35338" lon="5.66051">
        <ele>630.2</ele>
        <time>2022-02-28T13:36:31Z</time>
      </trkpt>
      <trkpt lat="46.3534" lon="5.66054">
        <ele>630.6</ele>
        <time>2022-02-28T13:36:32Z</time>
      </trkpt>
      <trkpt lat="46.35342" lon="5.66056">
        <ele>630.8</ele>
        <time>2022-02-28T13:36:33Z</time>
      </trkpt>
      <trkpt lat="46.35345" lon="5.66058">
        <ele>631</ele>
        <time>2022-02-28T13:36:34Z</time>
      </trkpt>
      <trkpt lat="46.35348" lon="5.6606">
        <ele>631.6</ele>
        <time>2022-02-28T13:36:35Z</time>
      </trkpt>
      <trkpt lat="46.3535" lon="5.66063">
        <ele>631.8</ele>
        <time>2022-02-28T13:36:36Z</time>
      </trkpt>
      <trkpt lat="46.35352" lon="5.66065">
        <ele>632.2</ele>
        <time>2022-02-28T13:36:37Z</time>
      </trkpt>
      <trkpt lat="46.35354" lon="5.66068">
        <ele>632.2</ele>
        <time>2022-02-28T13:36:38Z</time>
      </trkpt>
      <trkpt lat="46.35357" lon="5.6607">
        <ele>632.4</ele>
        <time>2022-02-28T13:36:39Z</time>
      </trkpt>
      <trkpt lat="46.35359" lon="5.66072">
        <ele>632.6</ele>
        <time>2022-02-28T13:36:40Z</time>
      </trkpt>
      <trkpt lat="46.35362" lon="5.66074">
        <ele>632.6</ele>
        <time>2022-02-28T13:36:41Z</time>
      </trkpt>
      <trkpt lat="46.35364" lon="5.66077">
        <ele>633</ele>
        <time>2022-02-28T13:36:42Z</time>
      </trkpt>
      <trkpt lat="46.35366" lon="5.66079">
        <ele>633</ele>
        <time>2022-02-28T13:36:43Z</time>
      </trkpt>
      <trkpt lat="46.35369" lon="5.66081">
        <ele>633.2</ele>
        <time>2022-02-28T13:36:44Z</time>
      </trkpt>
      <trkpt lat="46.35372" lon="5.66083">
        <ele>633.4</ele>
        <time>2022-02-28T13:36:45Z</time>
      </trkpt>
      <trkpt lat="46.35374" lon="5.66084">
        <ele>633.6</ele>
        <time>2022-02-28T13:36:46Z</time>
      </trkpt>
      <trkpt lat="46.35376" lon="5.66086">
        <ele>633.8</ele>
        <time>2022-02-28T13:36:47Z</time>
      </trkpt>
      <trkpt lat="46.35376" lon="5.66086">
        <ele>634.2</ele>
        <time>2022-02-28T13:36:48Z</time>
      </trkpt>
      <trkpt lat="46.35379" lon="5.66088">
        <ele>634.2</ele>
        <time>2022-02-28T13:36:49Z</time>
      </trkpt>
      <trkpt lat="46.35381" lon="5.6609">
        <ele>634.4</ele>
        <time>2022-02-28T13:36:50Z</time>
      </trkpt>
      <trkpt lat="46.35384" lon="5.66092">
        <ele>634.6</ele>
        <time>2022-02-28T13:36:51Z</time>
      </trkpt>
      <trkpt lat="46.35386" lon="5.66094">
        <ele>635</ele>
        <time>2022-02-28T13:36:52Z</time>
      </trkpt>
      <trkpt lat="46.35389" lon="5.66095">
        <ele>635.2</ele>
        <time>2022-02-28T13:36:53Z</time>
      </trkpt>
      <trkpt lat="46.35391" lon="5.66097">
        <ele>635.2</ele>
        <time>2022-02-28T13:36:54Z</time>
      </trkpt>
      <trkpt lat="46.35394" lon="5.66099">
        <ele>635.4</ele>
        <time>2022-02-28T13:36:55Z</time>
      </trkpt>
      <trkpt lat="46.35396" lon="5.66101">
        <ele>635.4</ele>
        <time>2022-02-28T13:36:56Z</time>
      </trkpt>
      <trkpt lat="46.35398" lon="5.66103">
        <ele>635.8</ele>
        <time>2022-02-28T13:36:57Z</time>
      </trkpt>
      <trkpt lat="46.354" lon="5.66106">
        <ele>635.8</ele>
        <time>2022-02-28T13:36:58Z</time>
      </trkpt>
      <trkpt lat="46.35403" lon="5.66108">
        <ele>636.2</ele>
        <time>2022-02-28T13:36:59Z</time>
      </trkpt>
      <trkpt lat="46.35405" lon="5.6611">
        <ele>636.2</ele>
        <time>2022-02-28T13:37:00Z</time>
      </trkpt>
      <trkpt lat="46.35407" lon="5.66112">
        <ele>636.6</ele>
        <time>2022-02-28T13:37:01Z</time>
      </trkpt>
      <trkpt lat="46.3541" lon="5.66114">
        <ele>636.6</ele>
        <time>2022-02-28T13:37:02Z</time>
      </trkpt>
      <trkpt lat="46.35412" lon="5.66116">
        <ele>637</ele>
        <time>2022-02-28T13:37:03Z</time>
      </trkpt>
      <trkpt lat="46.35414" lon="5.66118">
        <ele>637.2</ele>
        <time>2022-02-28T13:37:04Z</time>
      </trkpt>
      <trkpt lat="46.35416" lon="5.66119">
        <ele>637.2</ele>
        <time>2022-02-28T13:37:05Z</time>
      </trkpt>
      <trkpt lat="46.35418" lon="5.66121">
        <ele>637.6</ele>
        <time>2022-02-28T13:37:06Z</time>
      </trkpt>
      <trkpt lat="46.3542" lon="5.66123">
        <ele>637.6</ele>
        <time>2022-02-28T13:37:07Z</time>
      </trkpt>
      <trkpt lat="46.35422" lon="5.66125">
        <ele>638</ele>
        <time>2022-02-28T13:37:08Z</time>
      </trkpt>
      <trkpt lat="46.35424" lon="5.66127">
        <ele>638</ele>
        <time>2022-02-28T13:37:09Z</time>
      </trkpt>
      <trkpt lat="46.35426" lon="5.66129">
        <ele>638.2</ele>
        <time>2022-02-28T13:37:10Z</time>
      </trkpt>
      <trkpt lat="46.35428" lon="5.66131">
        <ele>638.2</ele>
        <time>2022-02-28T13:37:11Z</time>
      </trkpt>
      <trkpt lat="46.35429" lon="5.66132">
        <ele>638.6</ele>
        <time>2022-02-28T13:37:12Z</time>
      </trkpt>
      <trkpt lat="46.35431" lon="5.66134">
        <ele>638.8</ele>
        <time>2022-02-28T13:37:13Z</time>
      </trkpt>
      <trkpt lat="46.35433" lon="5.66137">
        <ele>638.8</ele>
        <time>2022-02-28T13:37:14Z</time>
      </trkpt>
      <trkpt lat="46.35435" lon="5.66139">
        <ele>639.2</ele>
        <time>2022-02-28T13:37:15Z</time>
      </trkpt>
      <trkpt lat="46.35436" lon="5.66141">
        <ele>639.2</ele>
        <time>2022-02-28T13:37:16Z</time>
      </trkpt>
      <trkpt lat="46.35438" lon="5.66143">
        <ele>639.6</ele>
        <time>2022-02-28T13:37:17Z</time>
      </trkpt>
      <trkpt lat="46.3544" lon="5.66146">
        <ele>639.6</ele>
        <time>2022-02-28T13:37:18Z</time>
      </trkpt>
      <trkpt lat="46.35442" lon="5.66148">
        <ele>640</ele>
        <time>2022-02-28T13:37:19Z</time>
      </trkpt>
      <trkpt lat="46.35443" lon="5.6615">
        <ele>640.2</ele>
        <time>2022-02-28T13:37:20Z</time>
      </trkpt>
      <trkpt lat="46.35445" lon="5.66153">
        <ele>640.4</ele>
        <time>2022-02-28T13:37:21Z</time>
      </trkpt>
      <trkpt lat="46.35447" lon="5.66155">
        <ele>640.6</ele>
        <time>2022-02-28T13:37:22Z</time>
      </trkpt>
      <trkpt lat="46.35448" lon="5.66157">
        <ele>640.8</ele>
        <time>2022-02-28T13:37:23Z</time>
      </trkpt>
      <trkpt lat="46.3545" lon="5.6616">
        <ele>641.2</ele>
        <time>2022-02-28T13:37:24Z</time>
      </trkpt>
      <trkpt lat="46.35452" lon="5.66162">
        <ele>641.4</ele>
        <time>2022-02-28T13:37:25Z</time>
      </trkpt>
      <trkpt lat="46.35453" lon="5.66164">
        <ele>641.6</ele>
        <time>2022-02-28T13:37:26Z</time>
      </trkpt>
      <trkpt lat="46.35455" lon="5.66166">
        <ele>641.6</ele>
        <time>2022-02-28T13:37:27Z</time>
      </trkpt>
      <trkpt lat="46.35457" lon="5.66168">
        <ele>642</ele>
        <time>2022-02-28T13:37:28Z</time>
      </trkpt>
      <trkpt lat="46.35459" lon="5.6617">
        <ele>642.2</ele>
        <time>2022-02-28T13:37:29Z</time>
      </trkpt>
      <trkpt lat="46.3546" lon="5.66172">
        <ele>642.2</ele>
        <time>2022-02-28T13:37:30Z</time>
      </trkpt>
      <trkpt lat="46.35462" lon="5.66174">
        <ele>642.6</ele>
        <time>2022-02-28T13:37:31Z</time>
      </trkpt>
      <trkpt lat="46.35464" lon="5.66176">
        <ele>642.8</ele>
        <time>2022-02-28T13:37:32Z</time>
      </trkpt>
      <trkpt lat="46.35465" lon="5.66178">
        <ele>642.8</ele>
        <time>2022-02-28T13:37:33Z</time>
      </trkpt>
      <trkpt lat="46.35467" lon="5.6618">
        <ele>643.2</ele>
        <time>2022-02-28T13:37:34Z</time>
      </trkpt>
      <trkpt lat="46.35469" lon="5.66182">
        <ele>643.4</ele>
        <time>2022-02-28T13:37:35Z</time>
      </trkpt>
      <trkpt lat="46.35471" lon="5.66184">
        <ele>643.4</ele>
        <time>2022-02-28T13:37:36Z</time>
      </trkpt>
      <trkpt lat="46.35472" lon="5.66186">
        <ele>643.8</ele>
        <time>2022-02-28T13:37:37Z</time>
      </trkpt>
      <trkpt lat="46.35474" lon="5.66188">
        <ele>643.8</ele>
        <time>2022-02-28T13:37:38Z</time>
      </trkpt>
      <trkpt lat="46.35476" lon="5.66191">
        <ele>644.2</ele>
        <time>2022-02-28T13:37:39Z</time>
      </trkpt>
      <trkpt lat="46.35477" lon="5.66193">
        <ele>644.4</ele>
        <time>2022-02-28T13:37:40Z</time>
      </trkpt>
      <trkpt lat="46.35479" lon="5.66195">
        <ele>644.6</ele>
        <time>2022-02-28T13:37:41Z</time>
      </trkpt>
      <trkpt lat="46.35481" lon="5.66197">
        <ele>644.8</ele>
        <time>2022-02-28T13:37:42Z</time>
      </trkpt>
      <trkpt lat="46.35483" lon="5.66199">
        <ele>645.2</ele>
        <time>2022-02-28T13:37:43Z</time>
      </trkpt>
      <trkpt lat="46.35485" lon="5.66201">
        <ele>645.4</ele>
        <time>2022-02-28T13:37:44Z</time>
      </trkpt>
      <trkpt lat="46.35487" lon="5.66203">
        <ele>645.6</ele>
        <time>2022-02-28T13:37:45Z</time>
      </trkpt>
      <trkpt lat="46.35488" lon="5.66206">
        <ele>645.6</ele>
        <time>2022-02-28T13:37:46Z</time>
      </trkpt>
      <trkpt lat="46.3549" lon="5.66208">
        <ele>646.2</ele>
        <time>2022-02-28T13:37:47Z</time>
      </trkpt>
      <trkpt lat="46.35492" lon="5.6621">
        <ele>646.2</ele>
        <time>2022-02-28T13:37:48Z</time>
      </trkpt>
      <trkpt lat="46.35493" lon="5.66212">
        <ele>646.6</ele>
        <time>2022-02-28T13:37:49Z</time>
      </trkpt>
      <trkpt lat="46.35495" lon="5.66214">
        <ele>646.8</ele>
        <time>2022-02-28T13:37:50Z</time>
      </trkpt>
      <trkpt lat="46.35497" lon="5.66215">
        <ele>646.8</ele>
        <time>2022-02-28T13:37:51Z</time>
      </trkpt>
      <trkpt lat="46.35499" lon="5.66217">
        <ele>647.2</ele>
        <time>2022-02-28T13:37:52Z</time>
      </trkpt>
      <trkpt lat="46.35501" lon="5.66219">
        <ele>647.4</ele>
        <time>2022-02-28T13:37:53Z</time>
      </trkpt>
      <trkpt lat="46.35502" lon="5.66221">
        <ele>647.8</ele>
        <time>2022-02-28T13:37:54Z</time>
      </trkpt>
      <trkpt lat="46.35504" lon="5.66223">
        <ele>648.2</ele>
        <time>2022-02-28T13:37:55Z</time>
      </trkpt>
      <trkpt lat="46.35506" lon="5.66226">
        <ele>648.4</ele>
        <time>2022-02-28T13:37:56Z</time>
      </trkpt>
      <trkpt lat="46.35508" lon="5.66228">
        <ele>648.6</ele>
        <time>2022-02-28T13:37:57Z</time>
      </trkpt>
      <trkpt lat="46.3551" lon="5.6623">
        <ele>648.8</ele>
        <time>2022-02-28T13:37:58Z</time>
      </trkpt>
      <trkpt lat="46.35512" lon="5.66232">
        <ele>648.8</ele>
        <time>2022-02-28T13:37:59Z</time>
      </trkpt>
      <trkpt lat="46.35514" lon="5.66234">
        <ele>649.2</ele>
        <time>2022-02-28T13:38:00Z</time>
      </trkpt>
      <trkpt lat="46.35516" lon="5.66237">
        <ele>649.2</ele>
        <time>2022-02-28T13:38:01Z</time>
      </trkpt>
      <trkpt lat="46.35519" lon="5.66239">
        <ele>649.6</ele>
        <time>2022-02-28T13:38:02Z</time>
      </trkpt>
      <trkpt lat="46.35521" lon="5.66241">
        <ele>649.6</ele>
        <time>2022-02-28T13:38:03Z</time>
      </trkpt>
      <trkpt lat="46.35523" lon="5.66244">
        <ele>650</ele>
        <time>2022-02-28T13:38:04Z</time>
      </trkpt>
      <trkpt lat="46.35525" lon="5.66246">
        <ele>650</ele>
        <time>2022-02-28T13:38:05Z</time>
      </trkpt>
      <trkpt lat="46.35527" lon="5.66248">
        <ele>650.4</ele>
        <time>2022-02-28T13:38:06Z</time>
      </trkpt>
      <trkpt lat="46.35529" lon="5.66251">
        <ele>650.4</ele>
        <time>2022-02-28T13:38:07Z</time>
      </trkpt>
      <trkpt lat="46.35532" lon="5.66253">
        <ele>650.8</ele>
        <time>2022-02-28T13:38:08Z</time>
      </trkpt>
      <trkpt lat="46.35534" lon="5.66256">
        <ele>651</ele>
        <time>2022-02-28T13:38:09Z</time>
      </trkpt>
      <trkpt lat="46.35536" lon="5.66258">
        <ele>651</ele>
        <time>2022-02-28T13:38:10Z</time>
      </trkpt>
      <trkpt lat="46.35538" lon="5.6626">
        <ele>651.6</ele>
        <time>2022-02-28T13:38:11Z</time>
      </trkpt>
      <trkpt lat="46.3554" lon="5.66262">
        <ele>651.8</ele>
        <time>2022-02-28T13:38:12Z</time>
      </trkpt>
      <trkpt lat="46.35542" lon="5.66263">
        <ele>652</ele>
        <time>2022-02-28T13:38:13Z</time>
      </trkpt>
      <trkpt lat="46.35544" lon="5.66265">
        <ele>652</ele>
        <time>2022-02-28T13:38:14Z</time>
      </trkpt>
      <trkpt lat="46.35546" lon="5.66267">
        <ele>652.2</ele>
        <time>2022-02-28T13:38:15Z</time>
      </trkpt>
      <trkpt lat="46.35548" lon="5.66269">
        <ele>652.4</ele>
        <time>2022-02-28T13:38:16Z</time>
      </trkpt>
      <trkpt lat="46.3555" lon="5.6627">
        <ele>652.8</ele>
        <time>2022-02-28T13:38:17Z</time>
      </trkpt>
      <trkpt lat="46.35552" lon="5.66273">
        <ele>653</ele>
        <time>2022-02-28T13:38:18Z</time>
      </trkpt>
      <trkpt lat="46.35554" lon="5.66275">
        <ele>653</ele>
        <time>2022-02-28T13:38:19Z</time>
      </trkpt>
      <trkpt lat="46.35555" lon="5.66277">
        <ele>653.6</ele>
        <time>2022-02-28T13:38:20Z</time>
      </trkpt>
      <trkpt lat="46.35557" lon="5.66279">
        <ele>653.8</ele>
        <time>2022-02-28T13:38:21Z</time>
      </trkpt>
      <trkpt lat="46.35559" lon="5.66281">
        <ele>653.8</ele>
        <time>2022-02-28T13:38:22Z</time>
      </trkpt>
      <trkpt lat="46.35561" lon="5.66283">
        <ele>654.2</ele>
        <time>2022-02-28T13:38:23Z</time>
      </trkpt>
      <trkpt lat="46.35562" lon="5.66285">
        <ele>654.6</ele>
        <time>2022-02-28T13:38:24Z</time>
      </trkpt>
      <trkpt lat="46.35564" lon="5.66287">
        <ele>654.8</ele>
        <time>2022-02-28T13:38:25Z</time>
      </trkpt>
      <trkpt lat="46.35566" lon="5.66288">
        <ele>655</ele>
        <time>2022-02-28T13:38:26Z</time>
      </trkpt>
      <trkpt lat="46.35568" lon="5.6629">
        <ele>655.2</ele>
        <time>2022-02-28T13:38:27Z</time>
      </trkpt>
      <trkpt lat="46.3557" lon="5.66291">
        <ele>655.6</ele>
        <time>2022-02-28T13:38:28Z</time>
      </trkpt>
      <trkpt lat="46.35572" lon="5.66293">
        <ele>655.8</ele>
        <time>2022-02-28T13:38:29Z</time>
      </trkpt>
      <trkpt lat="46.35573" lon="5.66295">
        <ele>656.2</ele>
        <time>2022-02-28T13:38:30Z</time>
      </trkpt>
      <trkpt lat="46.35575" lon="5.66297">
        <ele>656.4</ele>
        <time>2022-02-28T13:38:31Z</time>
      </trkpt>
      <trkpt lat="46.35577" lon="5.66299">
        <ele>656.8</ele>
        <time>2022-02-28T13:38:32Z</time>
      </trkpt>
      <trkpt lat="46.35579" lon="5.66301">
        <ele>657</ele>
        <time>2022-02-28T13:38:33Z</time>
      </trkpt>
      <trkpt lat="46.3558" lon="5.66303">
        <ele>657.4</ele>
        <time>2022-02-28T13:38:34Z</time>
      </trkpt>
      <trkpt lat="46.35582" lon="5.66305">
        <ele>657.6</ele>
        <time>2022-02-28T13:38:35Z</time>
      </trkpt>
      <trkpt lat="46.35584" lon="5.66307">
        <ele>658</ele>
        <time>2022-02-28T13:38:36Z</time>
      </trkpt>
      <trkpt lat="46.35585" lon="5.66309">
        <ele>658.2</ele>
        <time>2022-02-28T13:38:37Z</time>
      </trkpt>
      <trkpt lat="46.35587" lon="5.66311">
        <ele>658.4</ele>
        <time>2022-02-28T13:38:38Z</time>
      </trkpt>
      <trkpt lat="46.35588" lon="5.66313">
        <ele>658.8</ele>
        <time>2022-02-28T13:38:39Z</time>
      </trkpt>
      <trkpt lat="46.35589" lon="5.66316">
        <ele>659</ele>
        <time>2022-02-28T13:38:40Z</time>
      </trkpt>
      <trkpt lat="46.35591" lon="5.66318">
        <ele>659.2</ele>
        <time>2022-02-28T13:38:41Z</time>
      </trkpt>
      <trkpt lat="46.35592" lon="5.66321">
        <ele>659.4</ele>
        <time>2022-02-28T13:38:42Z</time>
      </trkpt>
      <trkpt lat="46.35594" lon="5.66323">
        <ele>659.8</ele>
        <time>2022-02-28T13:38:43Z</time>
      </trkpt>
      <trkpt lat="46.35595" lon="5.66325">
        <ele>660</ele>
        <time>2022-02-28T13:38:44Z</time>
      </trkpt>
      <trkpt lat="46.35596" lon="5.66327">
        <ele>660.4</ele>
        <time>2022-02-28T13:38:45Z</time>
      </trkpt>
      <trkpt lat="46.35598" lon="5.66329">
        <ele>660.8</ele>
        <time>2022-02-28T13:38:46Z</time>
      </trkpt>
      <trkpt lat="46.35599" lon="5.66332">
        <ele>661</ele>
        <time>2022-02-28T13:38:47Z</time>
      </trkpt>
      <trkpt lat="46.356" lon="5.66334">
        <ele>661.4</ele>
        <time>2022-02-28T13:38:48Z</time>
      </trkpt>
      <trkpt lat="46.35602" lon="5.66337">
        <ele>661.6</ele>
        <time>2022-02-28T13:38:49Z</time>
      </trkpt>
      <trkpt lat="46.35603" lon="5.66339">
        <ele>662.2</ele>
        <time>2022-02-28T13:38:50Z</time>
      </trkpt>
      <trkpt lat="46.35604" lon="5.66342">
        <ele>662.6</ele>
        <time>2022-02-28T13:38:51Z</time>
      </trkpt>
      <trkpt lat="46.35604" lon="5.66345">
        <ele>663</ele>
        <time>2022-02-28T13:38:52Z</time>
      </trkpt>
      <trkpt lat="46.35605" lon="5.66348">
        <ele>663.2</ele>
        <time>2022-02-28T13:38:53Z</time>
      </trkpt>
      <trkpt lat="46.35606" lon="5.66351">
        <ele>663.4</ele>
        <time>2022-02-28T13:38:54Z</time>
      </trkpt>
      <trkpt lat="46.35607" lon="5.66354">
        <ele>663.4</ele>
        <time>2022-02-28T13:38:55Z</time>
      </trkpt>
      <trkpt lat="46.35609" lon="5.66357">
        <ele>663.6</ele>
        <time>2022-02-28T13:38:56Z</time>
      </trkpt>
      <trkpt lat="46.3561" lon="5.66359">
        <ele>664</ele>
        <time>2022-02-28T13:38:57Z</time>
      </trkpt>
      <trkpt lat="46.35611" lon="5.66362">
        <ele>664.2</ele>
        <time>2022-02-28T13:38:58Z</time>
      </trkpt>
      <trkpt lat="46.35612" lon="5.66365">
        <ele>664.4</ele>
        <time>2022-02-28T13:38:59Z</time>
      </trkpt>
      <trkpt lat="46.35613" lon="5.66368">
        <ele>664.8</ele>
        <time>2022-02-28T13:39:00Z</time>
      </trkpt>
      <trkpt lat="46.35615" lon="5.66372">
        <ele>665</ele>
        <time>2022-02-28T13:39:01Z</time>
      </trkpt>
      <trkpt lat="46.35616" lon="5.66373">
        <ele>665</ele>
        <time>2022-02-28T13:39:02Z</time>
      </trkpt>
      <trkpt lat="46.35617" lon="5.66376">
        <ele>665.4</ele>
        <time>2022-02-28T13:39:03Z</time>
      </trkpt>
      <trkpt lat="46.35618" lon="5.66379">
        <ele>665.4</ele>
        <time>2022-02-28T13:39:04Z</time>
      </trkpt>
      <trkpt lat="46.35619" lon="5.66382">
        <ele>665.4</ele>
        <time>2022-02-28T13:39:05Z</time>
      </trkpt>
      <trkpt lat="46.35621" lon="5.66385">
        <ele>665.6</ele>
        <time>2022-02-28T13:39:06Z</time>
      </trkpt>
      <trkpt lat="46.35622" lon="5.66388">
        <ele>665.6</ele>
        <time>2022-02-28T13:39:07Z</time>
      </trkpt>
      <trkpt lat="46.35624" lon="5.66392">
        <ele>666</ele>
        <time>2022-02-28T13:39:08Z</time>
      </trkpt>
      <trkpt lat="46.35626" lon="5.66395">
        <ele>666</ele>
        <time>2022-02-28T13:39:09Z</time>
      </trkpt>
      <trkpt lat="46.35628" lon="5.66399">
        <ele>666</ele>
        <time>2022-02-28T13:39:10Z</time>
      </trkpt>
      <trkpt lat="46.3563" lon="5.66402">
        <ele>666</ele>
        <time>2022-02-28T13:39:11Z</time>
      </trkpt>
      <trkpt lat="46.35632" lon="5.66406">
        <ele>666.2</ele>
        <time>2022-02-28T13:39:12Z</time>
      </trkpt>
      <trkpt lat="46.35634" lon="5.6641">
        <ele>666.2</ele>
        <time>2022-02-28T13:39:13Z</time>
      </trkpt>
      <trkpt lat="46.35636" lon="5.66413">
        <ele>666.2</ele>
        <time>2022-02-28T13:39:14Z</time>
      </trkpt>
      <trkpt lat="46.35639" lon="5.66418">
        <ele>666.2</ele>
        <time>2022-02-28T13:39:15Z</time>
      </trkpt>
      <trkpt lat="46.35641" lon="5.66422">
        <ele>666.2</ele>
        <time>2022-02-28T13:39:16Z</time>
      </trkpt>
      <trkpt lat="46.35643" lon="5.66426">
        <ele>666.2</ele>
        <time>2022-02-28T13:39:17Z</time>
      </trkpt>
      <trkpt lat="46.35645" lon="5.6643">
        <ele>666.2</ele>
        <time>2022-02-28T13:39:18Z</time>
      </trkpt>
      <trkpt lat="46.35647" lon="5.66434">
        <ele>666.4</ele>
        <time>2022-02-28T13:39:19Z</time>
      </trkpt>
      <trkpt lat="46.3565" lon="5.66439">
        <ele>666.4</ele>
        <time>2022-02-28T13:39:20Z</time>
      </trkpt>
      <trkpt lat="46.35652" lon="5.66443">
        <ele>666.4</ele>
        <time>2022-02-28T13:39:21Z</time>
      </trkpt>
      <trkpt lat="46.35654" lon="5.66447">
        <ele>666.6</ele>
        <time>2022-02-28T13:39:22Z</time>
      </trkpt>
      <trkpt lat="46.35655" lon="5.66451">
        <ele>666.6</ele>
        <time>2022-02-28T13:39:23Z</time>
      </trkpt>
      <trkpt lat="46.35657" lon="5.66455">
        <ele>666.8</ele>
        <time>2022-02-28T13:39:24Z</time>
      </trkpt>
      <trkpt lat="46.35659" lon="5.66459">
        <ele>666.8</ele>
        <time>2022-02-28T13:39:25Z</time>
      </trkpt>
      <trkpt lat="46.35661" lon="5.66463">
        <ele>667.2</ele>
        <time>2022-02-28T13:39:26Z</time>
      </trkpt>
      <trkpt lat="46.35663" lon="5.66467">
        <ele>667.2</ele>
        <time>2022-02-28T13:39:27Z</time>
      </trkpt>
      <trkpt lat="46.35664" lon="5.66471">
        <ele>667.4</ele>
        <time>2022-02-28T13:39:28Z</time>
      </trkpt>
      <trkpt lat="46.35666" lon="5.66475">
        <ele>667.4</ele>
        <time>2022-02-28T13:39:29Z</time>
      </trkpt>
      <trkpt lat="46.35667" lon="5.66479">
        <ele>667.6</ele>
        <time>2022-02-28T13:39:30Z</time>
      </trkpt>
      <trkpt lat="46.35669" lon="5.66483">
        <ele>667.6</ele>
        <time>2022-02-28T13:39:31Z</time>
      </trkpt>
      <trkpt lat="46.3567" lon="5.66487">
        <ele>668</ele>
        <time>2022-02-28T13:39:32Z</time>
      </trkpt>
      <trkpt lat="46.35672" lon="5.66491">
        <ele>668</ele>
        <time>2022-02-28T13:39:33Z</time>
      </trkpt>
      <trkpt lat="46.35673" lon="5.66495">
        <ele>668.4</ele>
        <time>2022-02-28T13:39:34Z</time>
      </trkpt>
      <trkpt lat="46.35674" lon="5.66498">
        <ele>668.4</ele>
        <time>2022-02-28T13:39:35Z</time>
      </trkpt>
      <trkpt lat="46.35674" lon="5.66502">
        <ele>668.8</ele>
        <time>2022-02-28T13:39:36Z</time>
      </trkpt>
      <trkpt lat="46.35675" lon="5.66506">
        <ele>669</ele>
        <time>2022-02-28T13:39:37Z</time>
      </trkpt>
      <trkpt lat="46.35676" lon="5.66509">
        <ele>669.4</ele>
        <time>2022-02-28T13:39:38Z</time>
      </trkpt>
      <trkpt lat="46.35677" lon="5.66512">
        <ele>669.6</ele>
        <time>2022-02-28T13:39:39Z</time>
      </trkpt>
      <trkpt lat="46.35678" lon="5.66515">
        <ele>669.8</ele>
        <time>2022-02-28T13:39:40Z</time>
      </trkpt>
      <trkpt lat="46.35679" lon="5.66518">
        <ele>670</ele>
        <time>2022-02-28T13:39:41Z</time>
      </trkpt>
      <trkpt lat="46.35681" lon="5.66522">
        <ele>670.4</ele>
        <time>2022-02-28T13:39:42Z</time>
      </trkpt>
      <trkpt lat="46.35682" lon="5.66525">
        <ele>670.6</ele>
        <time>2022-02-28T13:39:43Z</time>
      </trkpt>
      <trkpt lat="46.35684" lon="5.66528">
        <ele>671</ele>
        <time>2022-02-28T13:39:44Z</time>
      </trkpt>
      <trkpt lat="46.35686" lon="5.66531">
        <ele>671.2</ele>
        <time>2022-02-28T13:39:45Z</time>
      </trkpt>
      <trkpt lat="46.35687" lon="5.66534">
        <ele>671.4</ele>
        <time>2022-02-28T13:39:46Z</time>
      </trkpt>
      <trkpt lat="46.35689" lon="5.66538">
        <ele>671.4</ele>
        <time>2022-02-28T13:39:47Z</time>
      </trkpt>
      <trkpt lat="46.3569" lon="5.6654">
        <ele>671.8</ele>
        <time>2022-02-28T13:39:48Z</time>
      </trkpt>
      <trkpt lat="46.35691" lon="5.66543">
        <ele>671.8</ele>
        <time>2022-02-28T13:39:49Z</time>
      </trkpt>
      <trkpt lat="46.35693" lon="5.66546">
        <ele>672.2</ele>
        <time>2022-02-28T13:39:50Z</time>
      </trkpt>
      <trkpt lat="46.35695" lon="5.66549">
        <ele>672.2</ele>
        <time>2022-02-28T13:39:51Z</time>
      </trkpt>
      <trkpt lat="46.35696" lon="5.66551">
        <ele>672.6</ele>
        <time>2022-02-28T13:39:52Z</time>
      </trkpt>
      <trkpt lat="46.35698" lon="5.66554">
        <ele>672.8</ele>
        <time>2022-02-28T13:39:53Z</time>
      </trkpt>
      <trkpt lat="46.357" lon="5.66556">
        <ele>673</ele>
        <time>2022-02-28T13:39:54Z</time>
      </trkpt>
      <trkpt lat="46.35701" lon="5.66558">
        <ele>673</ele>
        <time>2022-02-28T13:39:55Z</time>
      </trkpt>
      <trkpt lat="46.35703" lon="5.6656">
        <ele>673.4</ele>
        <time>2022-02-28T13:39:56Z</time>
      </trkpt>
      <trkpt lat="46.35704" lon="5.66563">
        <ele>673.6</ele>
        <time>2022-02-28T13:39:57Z</time>
      </trkpt>
      <trkpt lat="46.35706" lon="5.66565">
        <ele>674</ele>
        <time>2022-02-28T13:39:58Z</time>
      </trkpt>
      <trkpt lat="46.35708" lon="5.66568">
        <ele>674.2</ele>
        <time>2022-02-28T13:39:59Z</time>
      </trkpt>
      <trkpt lat="46.35709" lon="5.6657">
        <ele>674.6</ele>
        <time>2022-02-28T13:40:00Z</time>
      </trkpt>
      <trkpt lat="46.35711" lon="5.66572">
        <ele>674.8</ele>
        <time>2022-02-28T13:40:01Z</time>
      </trkpt>
      <trkpt lat="46.35712" lon="5.66575">
        <ele>675.2</ele>
        <time>2022-02-28T13:40:02Z</time>
      </trkpt>
      <trkpt lat="46.35713" lon="5.66577">
        <ele>675.6</ele>
        <time>2022-02-28T13:40:03Z</time>
      </trkpt>
      <trkpt lat="46.35715" lon="5.66579">
        <ele>676</ele>
        <time>2022-02-28T13:40:04Z</time>
      </trkpt>
      <trkpt lat="46.35717" lon="5.66581">
        <ele>676.2</ele>
        <time>2022-02-28T13:40:05Z</time>
      </trkpt>
      <trkpt lat="46.35718" lon="5.66583">
        <ele>676.6</ele>
        <time>2022-02-28T13:40:06Z</time>
      </trkpt>
      <trkpt lat="46.3572" lon="5.66585">
        <ele>676.8</ele>
        <time>2022-02-28T13:40:07Z</time>
      </trkpt>
      <trkpt lat="46.35721" lon="5.66588">
        <ele>677.2</ele>
        <time>2022-02-28T13:40:08Z</time>
      </trkpt>
      <trkpt lat="46.35723" lon="5.6659">
        <ele>677.6</ele>
        <time>2022-02-28T13:40:09Z</time>
      </trkpt>
      <trkpt lat="46.35725" lon="5.66593">
        <ele>677.8</ele>
        <time>2022-02-28T13:40:10Z</time>
      </trkpt>
      <trkpt lat="46.35727" lon="5.66595">
        <ele>678.2</ele>
        <time>2022-02-28T13:40:11Z</time>
      </trkpt>
      <trkpt lat="46.35729" lon="5.66597">
        <ele>678.4</ele>
        <time>2022-02-28T13:40:12Z</time>
      </trkpt>
      <trkpt lat="46.35731" lon="5.66599">
        <ele>678.8</ele>
        <time>2022-02-28T13:40:13Z</time>
      </trkpt>
      <trkpt lat="46.35733" lon="5.66601">
        <ele>679</ele>
        <time>2022-02-28T13:40:14Z</time>
      </trkpt>
      <trkpt lat="46.35735" lon="5.66603">
        <ele>679.2</ele>
        <time>2022-02-28T13:40:15Z</time>
      </trkpt>
      <trkpt lat="46.35737" lon="5.66605">
        <ele>679.6</ele>
        <time>2022-02-28T13:40:16Z</time>
      </trkpt>
      <trkpt lat="46.35739" lon="5.66607">
        <ele>679.8</ele>
        <time>2022-02-28T13:40:17Z</time>
      </trkpt>
      <trkpt lat="46.35742" lon="5.66608">
        <ele>679.8</ele>
        <time>2022-02-28T13:40:18Z</time>
      </trkpt>
      <trkpt lat="46.35744" lon="5.6661">
        <ele>680</ele>
        <time>2022-02-28T13:40:19Z</time>
      </trkpt>
      <trkpt lat="46.35747" lon="5.66611">
        <ele>680</ele>
        <time>2022-02-28T13:40:20Z</time>
      </trkpt>
      <trkpt lat="46.35749" lon="5.66612">
        <ele>680.4</ele>
        <time>2022-02-28T13:40:21Z</time>
      </trkpt>
      <trkpt lat="46.35752" lon="5.66613">
        <ele>680.4</ele>
        <time>2022-02-28T13:40:22Z</time>
      </trkpt>
      <trkpt lat="46.35754" lon="5.66614">
        <ele>680.8</ele>
        <time>2022-02-28T13:40:23Z</time>
      </trkpt>
      <trkpt lat="46.3576" lon="5.66615">
        <ele>680.8</ele>
        <time>2022-02-28T13:40:24Z</time>
      </trkpt>
      <trkpt lat="46.35762" lon="5.66616">
        <ele>681.2</ele>
        <time>2022-02-28T13:40:25Z</time>
      </trkpt>
      <trkpt lat="46.35765" lon="5.66618">
        <ele>681.2</ele>
        <time>2022-02-28T13:40:26Z</time>
      </trkpt>
      <trkpt lat="46.35768" lon="5.66619">
        <ele>681.4</ele>
        <time>2022-02-28T13:40:27Z</time>
      </trkpt>
      <trkpt lat="46.3577" lon="5.6662">
        <ele>681.6</ele>
        <time>2022-02-28T13:40:28Z</time>
      </trkpt>
      <trkpt lat="46.35773" lon="5.66621">
        <ele>681.6</ele>
        <time>2022-02-28T13:40:29Z</time>
      </trkpt>
      <trkpt lat="46.35776" lon="5.66622">
        <ele>682</ele>
        <time>2022-02-28T13:40:30Z</time>
      </trkpt>
      <trkpt lat="46.35778" lon="5.66623">
        <ele>682.2</ele>
        <time>2022-02-28T13:40:31Z</time>
      </trkpt>
      <trkpt lat="46.35781" lon="5.66624">
        <ele>682.2</ele>
        <time>2022-02-28T13:40:32Z</time>
      </trkpt>
      <trkpt lat="46.35783" lon="5.66625">
        <ele>682.4</ele>
        <time>2022-02-28T13:40:33Z</time>
      </trkpt>
      <trkpt lat="46.35785" lon="5.66626">
        <ele>682.4</ele>
        <time>2022-02-28T13:40:34Z</time>
      </trkpt>
      <trkpt lat="46.35788" lon="5.66627">
        <ele>682.8</ele>
        <time>2022-02-28T13:40:35Z</time>
      </trkpt>
      <trkpt lat="46.3579" lon="5.66628">
        <ele>683</ele>
        <time>2022-02-28T13:40:36Z</time>
      </trkpt>
      <trkpt lat="46.35793" lon="5.66629">
        <ele>683</ele>
        <time>2022-02-28T13:40:37Z</time>
      </trkpt>
      <trkpt lat="46.35795" lon="5.6663">
        <ele>683.4</ele>
        <time>2022-02-28T13:40:38Z</time>
      </trkpt>
      <trkpt lat="46.35798" lon="5.66632">
        <ele>683.4</ele>
        <time>2022-02-28T13:40:39Z</time>
      </trkpt>
      <trkpt lat="46.358" lon="5.66632">
        <ele>683.6</ele>
        <time>2022-02-28T13:40:40Z</time>
      </trkpt>
      <trkpt lat="46.35803" lon="5.66633">
        <ele>683.6</ele>
        <time>2022-02-28T13:40:41Z</time>
      </trkpt>
      <trkpt lat="46.35806" lon="5.66634">
        <ele>684</ele>
        <time>2022-02-28T13:40:42Z</time>
      </trkpt>
      <trkpt lat="46.35809" lon="5.66636">
        <ele>684</ele>
        <time>2022-02-28T13:40:43Z</time>
      </trkpt>
      <trkpt lat="46.35812" lon="5.66637">
        <ele>684</ele>
        <time>2022-02-28T13:40:44Z</time>
      </trkpt>
      <trkpt lat="46.35815" lon="5.66639">
        <ele>684.2</ele>
        <time>2022-02-28T13:40:45Z</time>
      </trkpt>
      <trkpt lat="46.35818" lon="5.6664">
        <ele>684.2</ele>
        <time>2022-02-28T13:40:46Z</time>
      </trkpt>
      <trkpt lat="46.35821" lon="5.66642">
        <ele>684.2</ele>
        <time>2022-02-28T13:40:47Z</time>
      </trkpt>
      <trkpt lat="46.35824" lon="5.66643">
        <ele>684.2</ele>
        <time>2022-02-28T13:40:48Z</time>
      </trkpt>
      <trkpt lat="46.35827" lon="5.66645">
        <ele>684.2</ele>
        <time>2022-02-28T13:40:49Z</time>
      </trkpt>
      <trkpt lat="46.35831" lon="5.66646">
        <ele>684.2</ele>
        <time>2022-02-28T13:40:50Z</time>
      </trkpt>
      <trkpt lat="46.35834" lon="5.66648">
        <ele>684.4</ele>
        <time>2022-02-28T13:40:51Z</time>
      </trkpt>
      <trkpt lat="46.35838" lon="5.66649">
        <ele>684.4</ele>
        <time>2022-02-28T13:40:52Z</time>
      </trkpt>
      <trkpt lat="46.35841" lon="5.66651">
        <ele>684.4</ele>
        <time>2022-02-28T13:40:53Z</time>
      </trkpt>
      <trkpt lat="46.35845" lon="5.66653">
        <ele>684.4</ele>
        <time>2022-02-28T13:40:54Z</time>
      </trkpt>
      <trkpt lat="46.35848" lon="5.66655">
        <ele>684.4</ele>
        <time>2022-02-28T13:40:55Z</time>
      </trkpt>
      <trkpt lat="46.35851" lon="5.66657">
        <ele>684.6</ele>
        <time>2022-02-28T13:40:56Z</time>
      </trkpt>
      <trkpt lat="46.35855" lon="5.66659">
        <ele>684.6</ele>
        <time>2022-02-28T13:40:57Z</time>
      </trkpt>
      <trkpt lat="46.35858" lon="5.6666">
        <ele>684.6</ele>
        <time>2022-02-28T13:40:58Z</time>
      </trkpt>
      <trkpt lat="46.35862" lon="5.66662">
        <ele>684.6</ele>
        <time>2022-02-28T13:40:59Z</time>
      </trkpt>
      <trkpt lat="46.35865" lon="5.66665">
        <ele>684.6</ele>
        <time>2022-02-28T13:41:00Z</time>
      </trkpt>
      <trkpt lat="46.35869" lon="5.66667">
        <ele>685</ele>
        <time>2022-02-28T13:41:01Z</time>
      </trkpt>
      <trkpt lat="46.35873" lon="5.6667">
        <ele>685</ele>
        <time>2022-02-28T13:41:02Z</time>
      </trkpt>
      <trkpt lat="46.35876" lon="5.66672">
        <ele>685</ele>
        <time>2022-02-28T13:41:03Z</time>
      </trkpt>
      <trkpt lat="46.3588" lon="5.66675">
        <ele>685.2</ele>
        <time>2022-02-28T13:41:04Z</time>
      </trkpt>
      <trkpt lat="46.35883" lon="5.66678">
        <ele>685.2</ele>
        <time>2022-02-28T13:41:05Z</time>
      </trkpt>
      <trkpt lat="46.35887" lon="5.66681">
        <ele>685.2</ele>
        <time>2022-02-28T13:41:06Z</time>
      </trkpt>
      <trkpt lat="46.3589" lon="5.66685">
        <ele>685.2</ele>
        <time>2022-02-28T13:41:07Z</time>
      </trkpt>
      <trkpt lat="46.35893" lon="5.66689">
        <ele>685.2</ele>
        <time>2022-02-28T13:41:08Z</time>
      </trkpt>
      <trkpt lat="46.35896" lon="5.66693">
        <ele>685.2</ele>
        <time>2022-02-28T13:41:09Z</time>
      </trkpt>
      <trkpt lat="46.35899" lon="5.66697">
        <ele>685.2</ele>
        <time>2022-02-28T13:41:10Z</time>
      </trkpt>
      <trkpt lat="46.35901" lon="5.66702">
        <ele>685.2</ele>
        <time>2022-02-28T13:41:11Z</time>
      </trkpt>
      <trkpt lat="46.35903" lon="5.66707">
        <ele>685.4</ele>
        <time>2022-02-28T13:41:12Z</time>
      </trkpt>
      <trkpt lat="46.35905" lon="5.66713">
        <ele>685.4</ele>
        <time>2022-02-28T13:41:13Z</time>
      </trkpt>
      <trkpt lat="46.35906" lon="5.66719">
        <ele>685.4</ele>
        <time>2022-02-28T13:41:14Z</time>
      </trkpt>
      <trkpt lat="46.35906" lon="5.66725">
        <ele>685.4</ele>
        <time>2022-02-28T13:41:15Z</time>
      </trkpt>
      <trkpt lat="46.35907" lon="5.66732">
        <ele>685.4</ele>
        <time>2022-02-28T13:41:16Z</time>
      </trkpt>
      <trkpt lat="46.35907" lon="5.6674">
        <ele>685.4</ele>
        <time>2022-02-28T13:41:17Z</time>
      </trkpt>
      <trkpt lat="46.35907" lon="5.66748">
        <ele>685.4</ele>
        <time>2022-02-28T13:41:18Z</time>
      </trkpt>
      <trkpt lat="46.35907" lon="5.66748">
        <ele>685</ele>
        <time>2022-02-28T13:41:19Z</time>
      </trkpt>
      <trkpt lat="46.35908" lon="5.66756">
        <ele>684.8</ele>
        <time>2022-02-28T13:41:20Z</time>
      </trkpt>
      <trkpt lat="46.35908" lon="5.66766">
        <ele>684.8</ele>
        <time>2022-02-28T13:41:21Z</time>
      </trkpt>
      <trkpt lat="46.35908" lon="5.66775">
        <ele>684.4</ele>
        <time>2022-02-28T13:41:22Z</time>
      </trkpt>
      <trkpt lat="46.35908" lon="5.66784">
        <ele>684.2</ele>
        <time>2022-02-28T13:41:23Z</time>
      </trkpt>
      <trkpt lat="46.35908" lon="5.66794">
        <ele>684</ele>
        <time>2022-02-28T13:41:24Z</time>
      </trkpt>
      <trkpt lat="46.35907" lon="5.66804">
        <ele>683.6</ele>
        <time>2022-02-28T13:41:25Z</time>
      </trkpt>
      <trkpt lat="46.35906" lon="5.66815">
        <ele>683</ele>
        <time>2022-02-28T13:41:26Z</time>
      </trkpt>
      <trkpt lat="46.35904" lon="5.66826">
        <ele>682.4</ele>
        <time>2022-02-28T13:41:27Z</time>
      </trkpt>
      <trkpt lat="46.35903" lon="5.66838">
        <ele>681.8</ele>
        <time>2022-02-28T13:41:28Z</time>
      </trkpt>
      <trkpt lat="46.35901" lon="5.66851">
        <ele>681.2</ele>
        <time>2022-02-28T13:41:29Z</time>
      </trkpt>
      <trkpt lat="46.35899" lon="5.66865">
        <ele>680.6</ele>
        <time>2022-02-28T13:41:30Z</time>
      </trkpt>
      <trkpt lat="46.35897" lon="5.6688">
        <ele>680</ele>
        <time>2022-02-28T13:41:31Z</time>
      </trkpt>
      <trkpt lat="46.35896" lon="5.66895">
        <ele>679.4</ele>
        <time>2022-02-28T13:41:32Z</time>
      </trkpt>
      <trkpt lat="46.35896" lon="5.6691">
        <ele>679</ele>
        <time>2022-02-28T13:41:33Z</time>
      </trkpt>
      <trkpt lat="46.35895" lon="5.66924">
        <ele>678.4</ele>
        <time>2022-02-28T13:41:34Z</time>
      </trkpt>
      <trkpt lat="46.35896" lon="5.66939">
        <ele>677.8</ele>
        <time>2022-02-28T13:41:35Z</time>
      </trkpt>
      <trkpt lat="46.35899" lon="5.66952">
        <ele>677.2</ele>
        <time>2022-02-28T13:41:36Z</time>
      </trkpt>
      <trkpt lat="46.35904" lon="5.66965">
        <ele>676.8</ele>
        <time>2022-02-28T13:41:37Z</time>
      </trkpt>
      <trkpt lat="46.3591" lon="5.66976">
        <ele>676.2</ele>
        <time>2022-02-28T13:41:38Z</time>
      </trkpt>
      <trkpt lat="46.35917" lon="5.66987">
        <ele>675.8</ele>
        <time>2022-02-28T13:41:39Z</time>
      </trkpt>
      <trkpt lat="46.35923" lon="5.66998">
        <ele>675.4</ele>
        <time>2022-02-28T13:41:40Z</time>
      </trkpt>
      <trkpt lat="46.3593" lon="5.6701">
        <ele>675</ele>
        <time>2022-02-28T13:41:41Z</time>
      </trkpt>
      <trkpt lat="46.35936" lon="5.67021">
        <ele>674.8</ele>
        <time>2022-02-28T13:41:42Z</time>
      </trkpt>
      <trkpt lat="46.35942" lon="5.67033">
        <ele>674.4</ele>
        <time>2022-02-28T13:41:43Z</time>
      </trkpt>
      <trkpt lat="46.35946" lon="5.67047">
        <ele>674.4</ele>
        <time>2022-02-28T13:41:44Z</time>
      </trkpt>
      <trkpt lat="46.3595" lon="5.67058">
        <ele>674.2</ele>
        <time>2022-02-28T13:41:45Z</time>
      </trkpt>
      <trkpt lat="46.35952" lon="5.67071">
        <ele>673.8</ele>
        <time>2022-02-28T13:41:46Z</time>
      </trkpt>
      <trkpt lat="46.35955" lon="5.67084">
        <ele>673.6</ele>
        <time>2022-02-28T13:41:47Z</time>
      </trkpt>
      <trkpt lat="46.35957" lon="5.67097">
        <ele>673.6</ele>
        <time>2022-02-28T13:41:48Z</time>
      </trkpt>
      <trkpt lat="46.35959" lon="5.6711">
        <ele>673.2</ele>
        <time>2022-02-28T13:41:49Z</time>
      </trkpt>
      <trkpt lat="46.35962" lon="5.67123">
        <ele>673.2</ele>
        <time>2022-02-28T13:41:50Z</time>
      </trkpt>
      <trkpt lat="46.35964" lon="5.67135">
        <ele>672.8</ele>
        <time>2022-02-28T13:41:51Z</time>
      </trkpt>
      <trkpt lat="46.35966" lon="5.67148">
        <ele>672.8</ele>
        <time>2022-02-28T13:41:52Z</time>
      </trkpt>
      <trkpt lat="46.35968" lon="5.6716">
        <ele>672.6</ele>
        <time>2022-02-28T13:41:53Z</time>
      </trkpt>
      <trkpt lat="46.3597" lon="5.67172">
        <ele>672.6</ele>
        <time>2022-02-28T13:41:54Z</time>
      </trkpt>
      <trkpt lat="46.35972" lon="5.67184">
        <ele>672.4</ele>
        <time>2022-02-28T13:41:55Z</time>
      </trkpt>
      <trkpt lat="46.35974" lon="5.67196">
        <ele>672.4</ele>
        <time>2022-02-28T13:41:56Z</time>
      </trkpt>
      <trkpt lat="46.35978" lon="5.67208">
        <ele>671.8</ele>
        <time>2022-02-28T13:41:57Z</time>
      </trkpt>
      <trkpt lat="46.35982" lon="5.6722">
        <ele>671.8</ele>
        <time>2022-02-28T13:41:58Z</time>
      </trkpt>
      <trkpt lat="46.35986" lon="5.67231">
        <ele>671.4</ele>
        <time>2022-02-28T13:41:59Z</time>
      </trkpt>
      <trkpt lat="46.35991" lon="5.67242">
        <ele>671</ele>
        <time>2022-02-28T13:42:00Z</time>
      </trkpt>
      <trkpt lat="46.35997" lon="5.67254">
        <ele>670.6</ele>
        <time>2022-02-28T13:42:01Z</time>
      </trkpt>
      <trkpt lat="46.36003" lon="5.67266">
        <ele>670.2</ele>
        <time>2022-02-28T13:42:02Z</time>
      </trkpt>
      <trkpt lat="46.36009" lon="5.67277">
        <ele>669.6</ele>
        <time>2022-02-28T13:42:03Z</time>
      </trkpt>
      <trkpt lat="46.36015" lon="5.67289">
        <ele>669.2</ele>
        <time>2022-02-28T13:42:04Z</time>
      </trkpt>
      <trkpt lat="46.36021" lon="5.67301">
        <ele>668.4</ele>
        <time>2022-02-28T13:42:05Z</time>
      </trkpt>
      <trkpt lat="46.36027" lon="5.67314">
        <ele>667.8</ele>
        <time>2022-02-28T13:42:06Z</time>
      </trkpt>
      <trkpt lat="46.36033" lon="5.67327">
        <ele>667.2</ele>
        <time>2022-02-28T13:42:07Z</time>
      </trkpt>
      <trkpt lat="46.36039" lon="5.67339">
        <ele>666.6</ele>
        <time>2022-02-28T13:42:08Z</time>
      </trkpt>
      <trkpt lat="46.36045" lon="5.67352">
        <ele>666.2</ele>
        <time>2022-02-28T13:42:09Z</time>
      </trkpt>
      <trkpt lat="46.36051" lon="5.67365">
        <ele>666.2</ele>
        <time>2022-02-28T13:42:10Z</time>
      </trkpt>
      <trkpt lat="46.36056" lon="5.67377">
        <ele>665.8</ele>
        <time>2022-02-28T13:42:11Z</time>
      </trkpt>
      <trkpt lat="46.3606" lon="5.6739">
        <ele>665.6</ele>
        <time>2022-02-28T13:42:12Z</time>
      </trkpt>
      <trkpt lat="46.36065" lon="5.67402">
        <ele>665.2</ele>
        <time>2022-02-28T13:42:13Z</time>
      </trkpt>
      <trkpt lat="46.3607" lon="5.67414">
        <ele>665</ele>
        <time>2022-02-28T13:42:14Z</time>
      </trkpt>
      <trkpt lat="46.36074" lon="5.67426">
        <ele>665</ele>
        <time>2022-02-28T13:42:15Z</time>
      </trkpt>
      <trkpt lat="46.36078" lon="5.67438">
        <ele>664.6</ele>
        <time>2022-02-28T13:42:16Z</time>
      </trkpt>
      <trkpt lat="46.36082" lon="5.6745">
        <ele>664.2</ele>
        <time>2022-02-28T13:42:17Z</time>
      </trkpt>
      <trkpt lat="46.36086" lon="5.67463">
        <ele>664</ele>
        <time>2022-02-28T13:42:18Z</time>
      </trkpt>
      <trkpt lat="46.3609" lon="5.67475">
        <ele>663.8</ele>
        <time>2022-02-28T13:42:19Z</time>
      </trkpt>
      <trkpt lat="46.36094" lon="5.67487">
        <ele>663.4</ele>
        <time>2022-02-28T13:42:20Z</time>
      </trkpt>
      <trkpt lat="46.36098" lon="5.67499">
        <ele>663</ele>
        <time>2022-02-28T13:42:21Z</time>
      </trkpt>
      <trkpt lat="46.36102" lon="5.67511">
        <ele>662.6</ele>
        <time>2022-02-28T13:42:22Z</time>
      </trkpt>
      <trkpt lat="46.36106" lon="5.67523">
        <ele>662.4</ele>
        <time>2022-02-28T13:42:23Z</time>
      </trkpt>
      <trkpt lat="46.36111" lon="5.67535">
        <ele>662</ele>
        <time>2022-02-28T13:42:24Z</time>
      </trkpt>
      <trkpt lat="46.36115" lon="5.67547">
        <ele>661.4</ele>
        <time>2022-02-28T13:42:25Z</time>
      </trkpt>
      <trkpt lat="46.3612" lon="5.67558">
        <ele>661</ele>
        <time>2022-02-28T13:42:26Z</time>
      </trkpt>
      <trkpt lat="46.36126" lon="5.67568">
        <ele>660.8</ele>
        <time>2022-02-28T13:42:27Z</time>
      </trkpt>
      <trkpt lat="46.36133" lon="5.67578">
        <ele>660.4</ele>
        <time>2022-02-28T13:42:28Z</time>
      </trkpt>
      <trkpt lat="46.3614" lon="5.67587">
        <ele>660.2</ele>
        <time>2022-02-28T13:42:29Z</time>
      </trkpt>
      <trkpt lat="46.36147" lon="5.67595">
        <ele>659.8</ele>
        <time>2022-02-28T13:42:30Z</time>
      </trkpt>
      <trkpt lat="46.36155" lon="5.67602">
        <ele>659.6</ele>
        <time>2022-02-28T13:42:31Z</time>
      </trkpt>
      <trkpt lat="46.36162" lon="5.67609">
        <ele>659.4</ele>
        <time>2022-02-28T13:42:32Z</time>
      </trkpt>
      <trkpt lat="46.36169" lon="5.67617">
        <ele>659.4</ele>
        <time>2022-02-28T13:42:33Z</time>
      </trkpt>
      <trkpt lat="46.36176" lon="5.67625">
        <ele>659.4</ele>
        <time>2022-02-28T13:42:34Z</time>
      </trkpt>
      <trkpt lat="46.36183" lon="5.67632">
        <ele>659</ele>
        <time>2022-02-28T13:42:35Z</time>
      </trkpt>
      <trkpt lat="46.3619" lon="5.6764">
        <ele>659</ele>
        <time>2022-02-28T13:42:36Z</time>
      </trkpt>
      <trkpt lat="46.36197" lon="5.67647">
        <ele>659</ele>
        <time>2022-02-28T13:42:37Z</time>
      </trkpt>
      <trkpt lat="46.36203" lon="5.67654">
        <ele>659</ele>
        <time>2022-02-28T13:42:38Z</time>
      </trkpt>
      <trkpt lat="46.36209" lon="5.67661">
        <ele>659</ele>
        <time>2022-02-28T13:42:39Z</time>
      </trkpt>
      <trkpt lat="46.36215" lon="5.67668">
        <ele>659.2</ele>
        <time>2022-02-28T13:42:40Z</time>
      </trkpt>
      <trkpt lat="46.36221" lon="5.67675">
        <ele>659.2</ele>
        <time>2022-02-28T13:42:41Z</time>
      </trkpt>
      <trkpt lat="46.36227" lon="5.67682">
        <ele>659.2</ele>
        <time>2022-02-28T13:42:42Z</time>
      </trkpt>
      <trkpt lat="46.36232" lon="5.67689">
        <ele>659</ele>
        <time>2022-02-28T13:42:43Z</time>
      </trkpt>
      <trkpt lat="46.36237" lon="5.67698">
        <ele>659</ele>
        <time>2022-02-28T13:42:44Z</time>
      </trkpt>
      <trkpt lat="46.36241" lon="5.67706">
        <ele>659</ele>
        <time>2022-02-28T13:42:45Z</time>
      </trkpt>
      <trkpt lat="46.36245" lon="5.67714">
        <ele>659</ele>
        <time>2022-02-28T13:42:46Z</time>
      </trkpt>
      <trkpt lat="46.36248" lon="5.67722">
        <ele>659.2</ele>
        <time>2022-02-28T13:42:47Z</time>
      </trkpt>
      <trkpt lat="46.36252" lon="5.6773">
        <ele>659.2</ele>
        <time>2022-02-28T13:42:48Z</time>
      </trkpt>
      <trkpt lat="46.36255" lon="5.67736">
        <ele>659.6</ele>
        <time>2022-02-28T13:42:49Z</time>
      </trkpt>
      <trkpt lat="46.36259" lon="5.67743">
        <ele>659.6</ele>
        <time>2022-02-28T13:42:50Z</time>
      </trkpt>
      <trkpt lat="46.36262" lon="5.67749">
        <ele>660</ele>
        <time>2022-02-28T13:42:51Z</time>
      </trkpt>
      <trkpt lat="46.36265" lon="5.67756">
        <ele>660</ele>
        <time>2022-02-28T13:42:52Z</time>
      </trkpt>
      <trkpt lat="46.36267" lon="5.67762">
        <ele>660.4</ele>
        <time>2022-02-28T13:42:53Z</time>
      </trkpt>
      <trkpt lat="46.3627" lon="5.67768">
        <ele>660.4</ele>
        <time>2022-02-28T13:42:54Z</time>
      </trkpt>
      <trkpt lat="46.36272" lon="5.67773">
        <ele>660.6</ele>
        <time>2022-02-28T13:42:55Z</time>
      </trkpt>
      <trkpt lat="46.36275" lon="5.67778">
        <ele>660.6</ele>
        <time>2022-02-28T13:42:56Z</time>
      </trkpt>
      <trkpt lat="46.36277" lon="5.67782">
        <ele>661.2</ele>
        <time>2022-02-28T13:42:57Z</time>
      </trkpt>
      <trkpt lat="46.36279" lon="5.67786">
        <ele>661.4</ele>
        <time>2022-02-28T13:42:58Z</time>
      </trkpt>
      <trkpt lat="46.3628" lon="5.67791">
        <ele>661.8</ele>
        <time>2022-02-28T13:42:59Z</time>
      </trkpt>
      <trkpt lat="46.36281" lon="5.67796">
        <ele>662</ele>
        <time>2022-02-28T13:43:00Z</time>
      </trkpt>
      <trkpt lat="46.36283" lon="5.678">
        <ele>662.4</ele>
        <time>2022-02-28T13:43:01Z</time>
      </trkpt>
      <trkpt lat="46.36284" lon="5.67805">
        <ele>662.8</ele>
        <time>2022-02-28T13:43:02Z</time>
      </trkpt>
      <trkpt lat="46.36286" lon="5.67809">
        <ele>663.2</ele>
        <time>2022-02-28T13:43:03Z</time>
      </trkpt>
      <trkpt lat="46.36288" lon="5.67814">
        <ele>663.4</ele>
        <time>2022-02-28T13:43:04Z</time>
      </trkpt>
      <trkpt lat="46.3629" lon="5.67818">
        <ele>663.8</ele>
        <time>2022-02-28T13:43:05Z</time>
      </trkpt>
      <trkpt lat="46.36291" lon="5.67822">
        <ele>664</ele>
        <time>2022-02-28T13:43:06Z</time>
      </trkpt>
      <trkpt lat="46.36294" lon="5.67826">
        <ele>664.4</ele>
        <time>2022-02-28T13:43:07Z</time>
      </trkpt>
      <trkpt lat="46.36296" lon="5.67831">
        <ele>664.8</ele>
        <time>2022-02-28T13:43:08Z</time>
      </trkpt>
      <trkpt lat="46.36298" lon="5.67836">
        <ele>665</ele>
        <time>2022-02-28T13:43:09Z</time>
      </trkpt>
      <trkpt lat="46.36301" lon="5.67841">
        <ele>665</ele>
        <time>2022-02-28T13:43:10Z</time>
      </trkpt>
      <trkpt lat="46.36303" lon="5.67846">
        <ele>665.4</ele>
        <time>2022-02-28T13:43:11Z</time>
      </trkpt>
      <trkpt lat="46.36305" lon="5.67851">
        <ele>665.6</ele>
        <time>2022-02-28T13:43:12Z</time>
      </trkpt>
      <trkpt lat="46.36306" lon="5.67857">
        <ele>666</ele>
        <time>2022-02-28T13:43:13Z</time>
      </trkpt>
      <trkpt lat="46.36308" lon="5.67862">
        <ele>666.2</ele>
        <time>2022-02-28T13:43:14Z</time>
      </trkpt>
      <trkpt lat="46.36312" lon="5.67866">
        <ele>666.6</ele>
        <time>2022-02-28T13:43:15Z</time>
      </trkpt>
      <trkpt lat="46.36314" lon="5.6787">
        <ele>667</ele>
        <time>2022-02-28T13:43:16Z</time>
      </trkpt>
      <trkpt lat="46.36316" lon="5.67875">
        <ele>667.4</ele>
        <time>2022-02-28T13:43:17Z</time>
      </trkpt>
      <trkpt lat="46.36318" lon="5.67879">
        <ele>667.8</ele>
        <time>2022-02-28T13:43:18Z</time>
      </trkpt>
      <trkpt lat="46.36321" lon="5.67883">
        <ele>668</ele>
        <time>2022-02-28T13:43:19Z</time>
      </trkpt>
      <trkpt lat="46.36322" lon="5.67888">
        <ele>668.4</ele>
        <time>2022-02-28T13:43:20Z</time>
      </trkpt>
      <trkpt lat="46.36323" lon="5.67892">
        <ele>668.8</ele>
        <time>2022-02-28T13:43:21Z</time>
      </trkpt>
      <trkpt lat="46.36324" lon="5.67897">
        <ele>669</ele>
        <time>2022-02-28T13:43:22Z</time>
      </trkpt>
      <trkpt lat="46.36325" lon="5.67901">
        <ele>669.4</ele>
        <time>2022-02-28T13:43:23Z</time>
      </trkpt>
      <trkpt lat="46.36326" lon="5.67904">
        <ele>669.6</ele>
        <time>2022-02-28T13:43:24Z</time>
      </trkpt>
      <trkpt lat="46.36327" lon="5.67907">
        <ele>669.8</ele>
        <time>2022-02-28T13:43:25Z</time>
      </trkpt>
      <trkpt lat="46.36328" lon="5.67911">
        <ele>669.8</ele>
        <time>2022-02-28T13:43:26Z</time>
      </trkpt>
      <trkpt lat="46.36329" lon="5.67914">
        <ele>670.4</ele>
        <time>2022-02-28T13:43:27Z</time>
      </trkpt>
      <trkpt lat="46.3633" lon="5.67917">
        <ele>670.6</ele>
        <time>2022-02-28T13:43:28Z</time>
      </trkpt>
      <trkpt lat="46.36332" lon="5.6792">
        <ele>670.8</ele>
        <time>2022-02-28T13:43:29Z</time>
      </trkpt>
      <trkpt lat="46.36333" lon="5.67923">
        <ele>670.8</ele>
        <time>2022-02-28T13:43:30Z</time>
      </trkpt>
      <trkpt lat="46.36335" lon="5.67926">
        <ele>671.2</ele>
        <time>2022-02-28T13:43:31Z</time>
      </trkpt>
      <trkpt lat="46.36336" lon="5.6793">
        <ele>671.2</ele>
        <time>2022-02-28T13:43:32Z</time>
      </trkpt>
      <trkpt lat="46.36337" lon="5.67933">
        <ele>671.4</ele>
        <time>2022-02-28T13:43:33Z</time>
      </trkpt>
      <trkpt lat="46.36339" lon="5.67937">
        <ele>671.4</ele>
        <time>2022-02-28T13:43:34Z</time>
      </trkpt>
      <trkpt lat="46.3634" lon="5.6794">
        <ele>671.8</ele>
        <time>2022-02-28T13:43:35Z</time>
      </trkpt>
      <trkpt lat="46.36342" lon="5.67944">
        <ele>672</ele>
        <time>2022-02-28T13:43:36Z</time>
      </trkpt>
      <trkpt lat="46.36344" lon="5.67948">
        <ele>672.2</ele>
        <time>2022-02-28T13:43:37Z</time>
      </trkpt>
      <trkpt lat="46.36347" lon="5.67951">
        <ele>672.2</ele>
        <time>2022-02-28T13:43:38Z</time>
      </trkpt>
      <trkpt lat="46.36349" lon="5.67954">
        <ele>672.6</ele>
        <time>2022-02-28T13:43:39Z</time>
      </trkpt>
      <trkpt lat="46.36351" lon="5.67958">
        <ele>672.8</ele>
        <time>2022-02-28T13:43:40Z</time>
      </trkpt>
      <trkpt lat="46.36353" lon="5.67961">
        <ele>672.8</ele>
        <time>2022-02-28T13:43:41Z</time>
      </trkpt>
      <trkpt lat="46.36356" lon="5.67965">
        <ele>673</ele>
        <time>2022-02-28T13:43:42Z</time>
      </trkpt>
      <trkpt lat="46.36358" lon="5.67968">
        <ele>673</ele>
        <time>2022-02-28T13:43:43Z</time>
      </trkpt>
      <trkpt lat="46.3636" lon="5.6797">
        <ele>673.4</ele>
        <time>2022-02-28T13:43:44Z</time>
      </trkpt>
      <trkpt lat="46.36362" lon="5.67973">
        <ele>673.4</ele>
        <time>2022-02-28T13:43:45Z</time>
      </trkpt>
      <trkpt lat="46.36364" lon="5.67975">
        <ele>673.8</ele>
        <time>2022-02-28T13:43:46Z</time>
      </trkpt>
      <trkpt lat="46.36366" lon="5.67978">
        <ele>674</ele>
        <time>2022-02-28T13:43:47Z</time>
      </trkpt>
      <trkpt lat="46.36367" lon="5.67981">
        <ele>674.2</ele>
        <time>2022-02-28T13:43:48Z</time>
      </trkpt>
      <trkpt lat="46.36368" lon="5.67984">
        <ele>674.2</ele>
        <time>2022-02-28T13:43:49Z</time>
      </trkpt>
      <trkpt lat="46.3637" lon="5.67987">
        <ele>674.6</ele>
        <time>2022-02-28T13:43:50Z</time>
      </trkpt>
      <trkpt lat="46.36372" lon="5.6799">
        <ele>674.8</ele>
        <time>2022-02-28T13:43:51Z</time>
      </trkpt>
      <trkpt lat="46.36374" lon="5.67992">
        <ele>675</ele>
        <time>2022-02-28T13:43:52Z</time>
      </trkpt>
      <trkpt lat="46.36376" lon="5.67995">
        <ele>675.2</ele>
        <time>2022-02-28T13:43:53Z</time>
      </trkpt>
      <trkpt lat="46.36378" lon="5.67998">
        <ele>675.4</ele>
        <time>2022-02-28T13:43:54Z</time>
      </trkpt>
      <trkpt lat="46.36379" lon="5.68002">
        <ele>675.8</ele>
        <time>2022-02-28T13:43:55Z</time>
      </trkpt>
      <trkpt lat="46.36381" lon="5.68005">
        <ele>676</ele>
        <time>2022-02-28T13:43:56Z</time>
      </trkpt>
      <trkpt lat="46.36382" lon="5.68007">
        <ele>676.4</ele>
        <time>2022-02-28T13:43:57Z</time>
      </trkpt>
      <trkpt lat="46.36384" lon="5.6801">
        <ele>676.6</ele>
        <time>2022-02-28T13:43:58Z</time>
      </trkpt>
      <trkpt lat="46.36386" lon="5.68013">
        <ele>677</ele>
        <time>2022-02-28T13:43:59Z</time>
      </trkpt>
      <trkpt lat="46.36387" lon="5.68016">
        <ele>677.2</ele>
        <time>2022-02-28T13:44:00Z</time>
      </trkpt>
      <trkpt lat="46.36388" lon="5.68019">
        <ele>677.4</ele>
        <time>2022-02-28T13:44:01Z</time>
      </trkpt>
      <trkpt lat="46.36389" lon="5.68022">
        <ele>677.4</ele>
        <time>2022-02-28T13:44:02Z</time>
      </trkpt>
      <trkpt lat="46.3639" lon="5.68025">
        <ele>677.8</ele>
        <time>2022-02-28T13:44:03Z</time>
      </trkpt>
      <trkpt lat="46.36392" lon="5.68028">
        <ele>677.8</ele>
        <time>2022-02-28T13:44:04Z</time>
      </trkpt>
      <trkpt lat="46.36393" lon="5.68031">
        <ele>678</ele>
        <time>2022-02-28T13:44:05Z</time>
      </trkpt>
      <trkpt lat="46.36394" lon="5.68033">
        <ele>678</ele>
        <time>2022-02-28T13:44:06Z</time>
      </trkpt>
      <trkpt lat="46.36395" lon="5.68036">
        <ele>678.2</ele>
        <time>2022-02-28T13:44:07Z</time>
      </trkpt>
      <trkpt lat="46.36396" lon="5.68039">
        <ele>678.2</ele>
        <time>2022-02-28T13:44:08Z</time>
      </trkpt>
      <trkpt lat="46.36398" lon="5.68042">
        <ele>678.6</ele>
        <time>2022-02-28T13:44:09Z</time>
      </trkpt>
      <trkpt lat="46.36399" lon="5.68045">
        <ele>678.6</ele>
        <time>2022-02-28T13:44:10Z</time>
      </trkpt>
      <trkpt lat="46.36401" lon="5.68048">
        <ele>678.8</ele>
        <time>2022-02-28T13:44:11Z</time>
      </trkpt>
      <trkpt lat="46.36402" lon="5.68051">
        <ele>678.8</ele>
        <time>2022-02-28T13:44:12Z</time>
      </trkpt>
      <trkpt lat="46.36404" lon="5.68053">
        <ele>679.2</ele>
        <time>2022-02-28T13:44:13Z</time>
      </trkpt>
      <trkpt lat="46.36405" lon="5.68056">
        <ele>679.4</ele>
        <time>2022-02-28T13:44:14Z</time>
      </trkpt>
      <trkpt lat="46.36407" lon="5.68059">
        <ele>679.6</ele>
        <time>2022-02-28T13:44:15Z</time>
      </trkpt>
      <trkpt lat="46.36409" lon="5.68061">
        <ele>680</ele>
        <time>2022-02-28T13:44:16Z</time>
      </trkpt>
      <trkpt lat="46.3641" lon="5.68064">
        <ele>680.2</ele>
        <time>2022-02-28T13:44:17Z</time>
      </trkpt>
      <trkpt lat="46.36412" lon="5.68066">
        <ele>680.2</ele>
        <time>2022-02-28T13:44:18Z</time>
      </trkpt>
      <trkpt lat="46.36414" lon="5.68069">
        <ele>680.6</ele>
        <time>2022-02-28T13:44:19Z</time>
      </trkpt>
      <trkpt lat="46.36416" lon="5.68071">
        <ele>680.8</ele>
        <time>2022-02-28T13:44:20Z</time>
      </trkpt>
      <trkpt lat="46.36417" lon="5.68074">
        <ele>680.8</ele>
        <time>2022-02-28T13:44:21Z</time>
      </trkpt>
      <trkpt lat="46.36419" lon="5.68076">
        <ele>681</ele>
        <time>2022-02-28T13:44:22Z</time>
      </trkpt>
      <trkpt lat="46.3642" lon="5.68078">
        <ele>681</ele>
        <time>2022-02-28T13:44:23Z</time>
      </trkpt>
      <trkpt lat="46.36422" lon="5.6808">
        <ele>681.4</ele>
        <time>2022-02-28T13:44:24Z</time>
      </trkpt>
      <trkpt lat="46.36424" lon="5.68082">
        <ele>681.4</ele>
        <time>2022-02-28T13:44:25Z</time>
      </trkpt>
      <trkpt lat="46.36426" lon="5.68084">
        <ele>681.6</ele>
        <time>2022-02-28T13:44:26Z</time>
      </trkpt>
      <trkpt lat="46.36428" lon="5.68086">
        <ele>681.8</ele>
        <time>2022-02-28T13:44:27Z</time>
      </trkpt>
      <trkpt lat="46.3643" lon="5.68087">
        <ele>682</ele>
        <time>2022-02-28T13:44:28Z</time>
      </trkpt>
      <trkpt lat="46.36432" lon="5.68089">
        <ele>682</ele>
        <time>2022-02-28T13:44:29Z</time>
      </trkpt>
      <trkpt lat="46.36434" lon="5.6809">
        <ele>682</ele>
        <time>2022-02-28T13:44:30Z</time>
      </trkpt>
      <trkpt lat="46.36436" lon="5.68092">
        <ele>682.4</ele>
        <time>2022-02-28T13:44:31Z</time>
      </trkpt>
      <trkpt lat="46.36438" lon="5.68093">
        <ele>682.4</ele>
        <time>2022-02-28T13:44:32Z</time>
      </trkpt>
      <trkpt lat="46.3644" lon="5.68095">
        <ele>682.4</ele>
        <time>2022-02-28T13:44:33Z</time>
      </trkpt>
      <trkpt lat="46.36442" lon="5.68098">
        <ele>682.6</ele>
        <time>2022-02-28T13:44:34Z</time>
      </trkpt>
      <trkpt lat="46.36445" lon="5.681">
        <ele>682.6</ele>
        <time>2022-02-28T13:44:35Z</time>
      </trkpt>
      <trkpt lat="46.36447" lon="5.68102">
        <ele>682.8</ele>
        <time>2022-02-28T13:44:36Z</time>
      </trkpt>
      <trkpt lat="46.36449" lon="5.68104">
        <ele>682.8</ele>
        <time>2022-02-28T13:44:37Z</time>
      </trkpt>
      <trkpt lat="46.36452" lon="5.68106">
        <ele>682.8</ele>
        <time>2022-02-28T13:44:38Z</time>
      </trkpt>
      <trkpt lat="46.36454" lon="5.68109">
        <ele>682.8</ele>
        <time>2022-02-28T13:44:39Z</time>
      </trkpt>
      <trkpt lat="46.36457" lon="5.68111">
        <ele>683</ele>
        <time>2022-02-28T13:44:40Z</time>
      </trkpt>
      <trkpt lat="46.3646" lon="5.68113">
        <ele>683</ele>
        <time>2022-02-28T13:44:41Z</time>
      </trkpt>
      <trkpt lat="46.36462" lon="5.68115">
        <ele>683</ele>
        <time>2022-02-28T13:44:42Z</time>
      </trkpt>
      <trkpt lat="46.36465" lon="5.68117">
        <ele>683</ele>
        <time>2022-02-28T13:44:43Z</time>
      </trkpt>
      <trkpt lat="46.36468" lon="5.68119">
        <ele>683.4</ele>
        <time>2022-02-28T13:44:44Z</time>
      </trkpt>
      <trkpt lat="46.36472" lon="5.6812">
        <ele>683.4</ele>
        <time>2022-02-28T13:44:45Z</time>
      </trkpt>
      <trkpt lat="46.36475" lon="5.68121">
        <ele>683.4</ele>
        <time>2022-02-28T13:44:46Z</time>
      </trkpt>
      <trkpt lat="46.36478" lon="5.68123">
        <ele>683.6</ele>
        <time>2022-02-28T13:44:47Z</time>
      </trkpt>
      <trkpt lat="46.36482" lon="5.68125">
        <ele>683.6</ele>
        <time>2022-02-28T13:44:48Z</time>
      </trkpt>
      <trkpt lat="46.36485" lon="5.68127">
        <ele>683.6</ele>
        <time>2022-02-28T13:44:49Z</time>
      </trkpt>
      <trkpt lat="46.36492" lon="5.6813">
        <ele>683.6</ele>
        <time>2022-02-28T13:44:50Z</time>
      </trkpt>
      <trkpt lat="46.36495" lon="5.68131">
        <ele>683.6</ele>
        <time>2022-02-28T13:44:51Z</time>
      </trkpt>
      <trkpt lat="46.36498" lon="5.68132">
        <ele>683.6</ele>
        <time>2022-02-28T13:44:52Z</time>
      </trkpt>
      <trkpt lat="46.36502" lon="5.68133">
        <ele>683.6</ele>
        <time>2022-02-28T13:44:53Z</time>
      </trkpt>
      <trkpt lat="46.36505" lon="5.68135">
        <ele>683.6</ele>
        <time>2022-02-28T13:44:54Z</time>
      </trkpt>
      <trkpt lat="46.36509" lon="5.68136">
        <ele>683.6</ele>
        <time>2022-02-28T13:44:55Z</time>
      </trkpt>
      <trkpt lat="46.36512" lon="5.68137">
        <ele>683.6</ele>
        <time>2022-02-28T13:44:56Z</time>
      </trkpt>
      <trkpt lat="46.36516" lon="5.68139">
        <ele>683.6</ele>
        <time>2022-02-28T13:44:57Z</time>
      </trkpt>
      <trkpt lat="46.36519" lon="5.6814">
        <ele>683.6</ele>
        <time>2022-02-28T13:44:58Z</time>
      </trkpt>
      <trkpt lat="46.36523" lon="5.68142">
        <ele>683.6</ele>
        <time>2022-02-28T13:44:59Z</time>
      </trkpt>
      <trkpt lat="46.36527" lon="5.68144">
        <ele>683.6</ele>
        <time>2022-02-28T13:45:00Z</time>
      </trkpt>
      <trkpt lat="46.3653" lon="5.68147">
        <ele>683.6</ele>
        <time>2022-02-28T13:45:01Z</time>
      </trkpt>
      <trkpt lat="46.36535" lon="5.68149">
        <ele>683.4</ele>
        <time>2022-02-28T13:45:02Z</time>
      </trkpt>
      <trkpt lat="46.36539" lon="5.68151">
        <ele>683.4</ele>
        <time>2022-02-28T13:45:03Z</time>
      </trkpt>
      <trkpt lat="46.36544" lon="5.68154">
        <ele>683</ele>
        <time>2022-02-28T13:45:04Z</time>
      </trkpt>
      <trkpt lat="46.36548" lon="5.68156">
        <ele>683</ele>
        <time>2022-02-28T13:45:05Z</time>
      </trkpt>
      <trkpt lat="46.36553" lon="5.68159">
        <ele>682.8</ele>
        <time>2022-02-28T13:45:06Z</time>
      </trkpt>
      <trkpt lat="46.36558" lon="5.68162">
        <ele>682.4</ele>
        <time>2022-02-28T13:45:07Z</time>
      </trkpt>
      <trkpt lat="46.36564" lon="5.68166">
        <ele>682.2</ele>
        <time>2022-02-28T13:45:08Z</time>
      </trkpt>
      <trkpt lat="46.3657" lon="5.6817">
        <ele>681.8</ele>
        <time>2022-02-28T13:45:09Z</time>
      </trkpt>
      <trkpt lat="46.36576" lon="5.68175">
        <ele>681.4</ele>
        <time>2022-02-28T13:45:10Z</time>
      </trkpt>
      <trkpt lat="46.36582" lon="5.6818">
        <ele>681.2</ele>
        <time>2022-02-28T13:45:11Z</time>
      </trkpt>
      <trkpt lat="46.36589" lon="5.68185">
        <ele>680.8</ele>
        <time>2022-02-28T13:45:12Z</time>
      </trkpt>
      <trkpt lat="46.36596" lon="5.68191">
        <ele>680.4</ele>
        <time>2022-02-28T13:45:13Z</time>
      </trkpt>
      <trkpt lat="46.36602" lon="5.68197">
        <ele>680.2</ele>
        <time>2022-02-28T13:45:14Z</time>
      </trkpt>
      <trkpt lat="46.36609" lon="5.68203">
        <ele>680</ele>
        <time>2022-02-28T13:45:15Z</time>
      </trkpt>
      <trkpt lat="46.36616" lon="5.6821">
        <ele>679.4</ele>
        <time>2022-02-28T13:45:16Z</time>
      </trkpt>
      <trkpt lat="46.36623" lon="5.68216">
        <ele>679</ele>
        <time>2022-02-28T13:45:17Z</time>
      </trkpt>
      <trkpt lat="46.36631" lon="5.68223">
        <ele>678.4</ele>
        <time>2022-02-28T13:45:18Z</time>
      </trkpt>
      <trkpt lat="46.36639" lon="5.68229">
        <ele>678</ele>
        <time>2022-02-28T13:45:19Z</time>
      </trkpt>
      <trkpt lat="46.36646" lon="5.68234">
        <ele>677.4</ele>
        <time>2022-02-28T13:45:20Z</time>
      </trkpt>
      <trkpt lat="46.36654" lon="5.68239">
        <ele>677</ele>
        <time>2022-02-28T13:45:21Z</time>
      </trkpt>
      <trkpt lat="46.36662" lon="5.68243">
        <ele>676.8</ele>
        <time>2022-02-28T13:45:22Z</time>
      </trkpt>
      <trkpt lat="46.36671" lon="5.68247">
        <ele>676.4</ele>
        <time>2022-02-28T13:45:23Z</time>
      </trkpt>
      <trkpt lat="46.36679" lon="5.68251">
        <ele>676</ele>
        <time>2022-02-28T13:45:24Z</time>
      </trkpt>
      <trkpt lat="46.36687" lon="5.68254">
        <ele>675.6</ele>
        <time>2022-02-28T13:45:25Z</time>
      </trkpt>
      <trkpt lat="46.36695" lon="5.68257">
        <ele>675.4</ele>
        <time>2022-02-28T13:45:26Z</time>
      </trkpt>
      <trkpt lat="46.36704" lon="5.6826">
        <ele>675.2</ele>
        <time>2022-02-28T13:45:27Z</time>
      </trkpt>
      <trkpt lat="46.36712" lon="5.68263">
        <ele>674.8</ele>
        <time>2022-02-28T13:45:28Z</time>
      </trkpt>
      <trkpt lat="46.3672" lon="5.68265">
        <ele>674.6</ele>
        <time>2022-02-28T13:45:29Z</time>
      </trkpt>
      <trkpt lat="46.36727" lon="5.68268">
        <ele>674.6</ele>
        <time>2022-02-28T13:45:30Z</time>
      </trkpt>
      <trkpt lat="46.36734" lon="5.68272">
        <ele>674.4</ele>
        <time>2022-02-28T13:45:31Z</time>
      </trkpt>
      <trkpt lat="46.36741" lon="5.68275">
        <ele>674.4</ele>
        <time>2022-02-28T13:45:32Z</time>
      </trkpt>
      <trkpt lat="46.36748" lon="5.68278">
        <ele>674.4</ele>
        <time>2022-02-28T13:45:33Z</time>
      </trkpt>
      <trkpt lat="46.36755" lon="5.68282">
        <ele>674.4</ele>
        <time>2022-02-28T13:45:34Z</time>
      </trkpt>
      <trkpt lat="46.36761" lon="5.68287">
        <ele>674.4</ele>
        <time>2022-02-28T13:45:35Z</time>
      </trkpt>
      <trkpt lat="46.36767" lon="5.68292">
        <ele>674.4</ele>
        <time>2022-02-28T13:45:36Z</time>
      </trkpt>
      <trkpt lat="46.36772" lon="5.68298">
        <ele>674.4</ele>
        <time>2022-02-28T13:45:37Z</time>
      </trkpt>
      <trkpt lat="46.36777" lon="5.68304">
        <ele>674.6</ele>
        <time>2022-02-28T13:45:38Z</time>
      </trkpt>
      <trkpt lat="46.36781" lon="5.6831">
        <ele>674.6</ele>
        <time>2022-02-28T13:45:39Z</time>
      </trkpt>
      <trkpt lat="46.36784" lon="5.68317">
        <ele>675</ele>
        <time>2022-02-28T13:45:40Z</time>
      </trkpt>
      <trkpt lat="46.36786" lon="5.68324">
        <ele>675.2</ele>
        <time>2022-02-28T13:45:41Z</time>
      </trkpt>
      <trkpt lat="46.36789" lon="5.6833">
        <ele>675.6</ele>
        <time>2022-02-28T13:45:42Z</time>
      </trkpt>
      <trkpt lat="46.36791" lon="5.68336">
        <ele>676</ele>
        <time>2022-02-28T13:45:43Z</time>
      </trkpt>
      <trkpt lat="46.36794" lon="5.68342">
        <ele>676.2</ele>
        <time>2022-02-28T13:45:44Z</time>
      </trkpt>
      <trkpt lat="46.36797" lon="5.68349">
        <ele>676.4</ele>
        <time>2022-02-28T13:45:45Z</time>
      </trkpt>
      <trkpt lat="46.368" lon="5.68355">
        <ele>676.4</ele>
        <time>2022-02-28T13:45:46Z</time>
      </trkpt>
      <trkpt lat="46.36803" lon="5.6836">
        <ele>676.8</ele>
        <time>2022-02-28T13:45:47Z</time>
      </trkpt>
      <trkpt lat="46.36806" lon="5.68366">
        <ele>676.8</ele>
        <time>2022-02-28T13:45:48Z</time>
      </trkpt>
      <trkpt lat="46.3681" lon="5.68371">
        <ele>677</ele>
        <time>2022-02-28T13:45:49Z</time>
      </trkpt>
      <trkpt lat="46.36813" lon="5.68376">
        <ele>677</ele>
        <time>2022-02-28T13:45:50Z</time>
      </trkpt>
      <trkpt lat="46.36816" lon="5.68381">
        <ele>677.4</ele>
        <time>2022-02-28T13:45:51Z</time>
      </trkpt>
      <trkpt lat="46.36816" lon="5.68381">
        <ele>677.4</ele>
        <time>2022-02-28T13:45:52Z</time>
      </trkpt>
      <trkpt lat="46.3682" lon="5.68386">
        <ele>677.6</ele>
        <time>2022-02-28T13:45:53Z</time>
      </trkpt>
      <trkpt lat="46.36823" lon="5.68391">
        <ele>677.6</ele>
        <time>2022-02-28T13:45:54Z</time>
      </trkpt>
      <trkpt lat="46.36827" lon="5.68396">
        <ele>677.8</ele>
        <time>2022-02-28T13:45:55Z</time>
      </trkpt>
      <trkpt lat="46.3683" lon="5.68401">
        <ele>677.8</ele>
        <time>2022-02-28T13:45:56Z</time>
      </trkpt>
      <trkpt lat="46.36833" lon="5.68407">
        <ele>678.2</ele>
        <time>2022-02-28T13:45:57Z</time>
      </trkpt>
      <trkpt lat="46.36836" lon="5.68412">
        <ele>678.2</ele>
        <time>2022-02-28T13:45:58Z</time>
      </trkpt>
      <trkpt lat="46.36838" lon="5.68417">
        <ele>678.6</ele>
        <time>2022-02-28T13:45:59Z</time>
      </trkpt>
      <trkpt lat="46.36841" lon="5.68423">
        <ele>678.6</ele>
        <time>2022-02-28T13:46:00Z</time>
      </trkpt>
      <trkpt lat="46.36844" lon="5.68427">
        <ele>678.8</ele>
        <time>2022-02-28T13:46:01Z</time>
      </trkpt>
      <trkpt lat="46.36847" lon="5.68432">
        <ele>678.8</ele>
        <time>2022-02-28T13:46:02Z</time>
      </trkpt>
      <trkpt lat="46.36849" lon="5.68437">
        <ele>679.2</ele>
        <time>2022-02-28T13:46:03Z</time>
      </trkpt>
      <trkpt lat="46.36852" lon="5.68442">
        <ele>679.2</ele>
        <time>2022-02-28T13:46:04Z</time>
      </trkpt>
      <trkpt lat="46.36856" lon="5.68446">
        <ele>679.6</ele>
        <time>2022-02-28T13:46:05Z</time>
      </trkpt>
      <trkpt lat="46.36859" lon="5.6845">
        <ele>679.6</ele>
        <time>2022-02-28T13:46:06Z</time>
      </trkpt>
      <trkpt lat="46.36863" lon="5.68455">
        <ele>679.6</ele>
        <time>2022-02-28T13:46:07Z</time>
      </trkpt>
      <trkpt lat="46.36868" lon="5.68459">
        <ele>679.6</ele>
        <time>2022-02-28T13:46:08Z</time>
      </trkpt>
      <trkpt lat="46.36873" lon="5.68463">
        <ele>679.6</ele>
        <time>2022-02-28T13:46:09Z</time>
      </trkpt>
      <trkpt lat="46.36878" lon="5.68467">
        <ele>679.8</ele>
        <time>2022-02-28T13:46:10Z</time>
      </trkpt>
      <trkpt lat="46.36882" lon="5.68471">
        <ele>679.8</ele>
        <time>2022-02-28T13:46:11Z</time>
      </trkpt>
      <trkpt lat="46.36887" lon="5.68474">
        <ele>680</ele>
        <time>2022-02-28T13:46:12Z</time>
      </trkpt>
      <trkpt lat="46.36891" lon="5.68478">
        <ele>680</ele>
        <time>2022-02-28T13:46:13Z</time>
      </trkpt>
      <trkpt lat="46.36896" lon="5.68481">
        <ele>680</ele>
        <time>2022-02-28T13:46:14Z</time>
      </trkpt>
      <trkpt lat="46.36901" lon="5.68485">
        <ele>680.4</ele>
        <time>2022-02-28T13:46:15Z</time>
      </trkpt>
      <trkpt lat="46.36906" lon="5.68489">
        <ele>680.4</ele>
        <time>2022-02-28T13:46:16Z</time>
      </trkpt>
      <trkpt lat="46.36911" lon="5.68492">
        <ele>680.4</ele>
        <time>2022-02-28T13:46:17Z</time>
      </trkpt>
      <trkpt lat="46.36915" lon="5.68496">
        <ele>680.2</ele>
        <time>2022-02-28T13:46:18Z</time>
      </trkpt>
      <trkpt lat="46.3692" lon="5.685">
        <ele>680.2</ele>
        <time>2022-02-28T13:46:19Z</time>
      </trkpt>
      <trkpt lat="46.36926" lon="5.68504">
        <ele>680.2</ele>
        <time>2022-02-28T13:46:20Z</time>
      </trkpt>
      <trkpt lat="46.36931" lon="5.68508">
        <ele>680.2</ele>
        <time>2022-02-28T13:46:21Z</time>
      </trkpt>
      <trkpt lat="46.36936" lon="5.68511">
        <ele>680.2</ele>
        <time>2022-02-28T13:46:22Z</time>
      </trkpt>
      <trkpt lat="46.3694" lon="5.68515">
        <ele>680.2</ele>
        <time>2022-02-28T13:46:23Z</time>
      </trkpt>
      <trkpt lat="46.36945" lon="5.68519">
        <ele>680.4</ele>
        <time>2022-02-28T13:46:24Z</time>
      </trkpt>
      <trkpt lat="46.36949" lon="5.68522">
        <ele>680.4</ele>
        <time>2022-02-28T13:46:25Z</time>
      </trkpt>
      <trkpt lat="46.36954" lon="5.68526">
        <ele>680.6</ele>
        <time>2022-02-28T13:46:26Z</time>
      </trkpt>
      <trkpt lat="46.36958" lon="5.6853">
        <ele>681</ele>
        <time>2022-02-28T13:46:27Z</time>
      </trkpt>
      <trkpt lat="46.36961" lon="5.68534">
        <ele>681.2</ele>
        <time>2022-02-28T13:46:28Z</time>
      </trkpt>
      <trkpt lat="46.36965" lon="5.68537">
        <ele>681.4</ele>
        <time>2022-02-28T13:46:29Z</time>
      </trkpt>
      <trkpt lat="46.36968" lon="5.68539">
        <ele>681.8</ele>
        <time>2022-02-28T13:46:30Z</time>
      </trkpt>
      <trkpt lat="46.36971" lon="5.68542">
        <ele>682</ele>
        <time>2022-02-28T13:46:31Z</time>
      </trkpt>
      <trkpt lat="46.36974" lon="5.68546">
        <ele>682.2</ele>
        <time>2022-02-28T13:46:32Z</time>
      </trkpt>
      <trkpt lat="46.36977" lon="5.68549">
        <ele>682.6</ele>
        <time>2022-02-28T13:46:33Z</time>
      </trkpt>
      <trkpt lat="46.3698" lon="5.68552">
        <ele>682.8</ele>
        <time>2022-02-28T13:46:34Z</time>
      </trkpt>
      <trkpt lat="46.36982" lon="5.68556">
        <ele>683</ele>
        <time>2022-02-28T13:46:35Z</time>
      </trkpt>
      <trkpt lat="46.36984" lon="5.68561">
        <ele>683.4</ele>
        <time>2022-02-28T13:46:36Z</time>
      </trkpt>
      <trkpt lat="46.36986" lon="5.68565">
        <ele>683.6</ele>
        <time>2022-02-28T13:46:37Z</time>
      </trkpt>
      <trkpt lat="46.36987" lon="5.6857">
        <ele>683.8</ele>
        <time>2022-02-28T13:46:38Z</time>
      </trkpt>
      <trkpt lat="46.36988" lon="5.68575">
        <ele>684.2</ele>
        <time>2022-02-28T13:46:39Z</time>
      </trkpt>
      <trkpt lat="46.36989" lon="5.68579">
        <ele>684.4</ele>
        <time>2022-02-28T13:46:40Z</time>
      </trkpt>
      <trkpt lat="46.36991" lon="5.68584">
        <ele>684.8</ele>
        <time>2022-02-28T13:46:41Z</time>
      </trkpt>
      <trkpt lat="46.36992" lon="5.68589">
        <ele>684.8</ele>
        <time>2022-02-28T13:46:42Z</time>
      </trkpt>
      <trkpt lat="46.36993" lon="5.68594">
        <ele>685.2</ele>
        <time>2022-02-28T13:46:43Z</time>
      </trkpt>
      <trkpt lat="46.36994" lon="5.68599">
        <ele>685.4</ele>
        <time>2022-02-28T13:46:44Z</time>
      </trkpt>
      <trkpt lat="46.36995" lon="5.68603">
        <ele>685.6</ele>
        <time>2022-02-28T13:46:45Z</time>
      </trkpt>
      <trkpt lat="46.36996" lon="5.68608">
        <ele>685.6</ele>
        <time>2022-02-28T13:46:46Z</time>
      </trkpt>
      <trkpt lat="46.36997" lon="5.68612">
        <ele>685.8</ele>
        <time>2022-02-28T13:46:47Z</time>
      </trkpt>
      <trkpt lat="46.36997" lon="5.68617">
        <ele>685.8</ele>
        <time>2022-02-28T13:46:48Z</time>
      </trkpt>
      <trkpt lat="46.36998" lon="5.68622">
        <ele>686.2</ele>
        <time>2022-02-28T13:46:49Z</time>
      </trkpt>
      <trkpt lat="46.36998" lon="5.68626">
        <ele>686.2</ele>
        <time>2022-02-28T13:46:50Z</time>
      </trkpt>
      <trkpt lat="46.36998" lon="5.68632">
        <ele>686.2</ele>
        <time>2022-02-28T13:46:51Z</time>
      </trkpt>
      <trkpt lat="46.36998" lon="5.68637">
        <ele>686.2</ele>
        <time>2022-02-28T13:46:52Z</time>
      </trkpt>
      <trkpt lat="46.36998" lon="5.68643">
        <ele>686.2</ele>
        <time>2022-02-28T13:46:53Z</time>
      </trkpt>
      <trkpt lat="46.36998" lon="5.68649">
        <ele>686.2</ele>
        <time>2022-02-28T13:46:54Z</time>
      </trkpt>
      <trkpt lat="46.36998" lon="5.68655">
        <ele>686</ele>
        <time>2022-02-28T13:46:55Z</time>
      </trkpt>
      <trkpt lat="46.36999" lon="5.68661">
        <ele>686</ele>
        <time>2022-02-28T13:46:56Z</time>
      </trkpt>
      <trkpt lat="46.36999" lon="5.68665">
        <ele>685.6</ele>
        <time>2022-02-28T13:46:57Z</time>
      </trkpt>
      <trkpt lat="46.37" lon="5.68669">
        <ele>685.6</ele>
        <time>2022-02-28T13:46:58Z</time>
      </trkpt>
      <trkpt lat="46.37" lon="5.68672">
        <ele>685.2</ele>
        <time>2022-02-28T13:46:59Z</time>
      </trkpt>
      <trkpt lat="46.37001" lon="5.68675">
        <ele>685.2</ele>
        <time>2022-02-28T13:47:00Z</time>
      </trkpt>
      <trkpt lat="46.37001" lon="5.68676">
        <ele>685</ele>
        <time>2022-02-28T13:47:01Z</time>
      </trkpt>
      <trkpt lat="46.37001" lon="5.68676">
        <ele>685</ele>
        <time>2022-02-28T13:47:02Z</time>
      </trkpt>
      <trkpt lat="46.37001" lon="5.68676">
        <ele>685</ele>
        <time>2022-02-28T13:47:03Z</time>
      </trkpt>
      <trkpt lat="46.37001" lon="5.68677">
        <ele>684.6</ele>
        <time>2022-02-28T13:47:04Z</time>
      </trkpt>
      <trkpt lat="46.37001" lon="5.68677">
        <ele>684.6</ele>
        <time>2022-02-28T13:47:06Z</time>
      </trkpt>
      <trkpt lat="46.37001" lon="5.68678">
        <ele>684.6</ele>
        <time>2022-02-28T13:47:07Z</time>
      </trkpt>
      <trkpt lat="46.37001" lon="5.68678">
        <ele>684.6</ele>
        <time>2022-02-28T13:47:08Z</time>
      </trkpt>
      <trkpt lat="46.37001" lon="5.68679">
        <ele>684.6</ele>
        <time>2022-02-28T13:47:11Z</time>
      </trkpt>
      <trkpt lat="46.37001" lon="5.68679">
        <ele>684.6</ele>
        <time>2022-02-28T13:47:12Z</time>
      </trkpt>
      <trkpt lat="46.37001" lon="5.6868">
        <ele>684.6</ele>
        <time>2022-02-28T13:47:13Z</time>
      </trkpt>
      <trkpt lat="46.37001" lon="5.6868">
        <ele>684.6</ele>
        <time>2022-02-28T13:47:14Z</time>
      </trkpt>
      <trkpt lat="46.37001" lon="5.68681">
        <ele>684.6</ele>
        <time>2022-02-28T13:47:16Z</time>
      </trkpt>
      <trkpt lat="46.37001" lon="5.68681">
        <ele>684.6</ele>
        <time>2022-02-28T13:47:17Z</time>
      </trkpt>
      <trkpt lat="46.37001" lon="5.68681">
        <ele>684.6</ele>
        <time>2022-02-28T13:47:18Z</time>
      </trkpt>
      <trkpt lat="46.37001" lon="5.68682">
        <ele>684.6</ele>
        <time>2022-02-28T13:47:19Z</time>
      </trkpt>
      <trkpt lat="46.37001" lon="5.68682">
        <ele>684.6</ele>
        <time>2022-02-28T13:47:20Z</time>
      </trkpt>
      <trkpt lat="46.37001" lon="5.68683">
        <ele>684.6</ele>
        <time>2022-02-28T13:47:21Z</time>
      </trkpt>
      <trkpt lat="46.37001" lon="5.68683">
        <ele>684.6</ele>
        <time>2022-02-28T13:47:22Z</time>
      </trkpt>
      <trkpt lat="46.37001" lon="5.68684">
        <ele>684.6</ele>
        <time>2022-02-28T13:48:36Z</time>
      </trkpt>
      <trkpt lat="46.37001" lon="5.68684">
        <ele>684.6</ele>
        <time>2022-02-28T13:48:37Z</time>
      </trkpt>
      <trkpt lat="46.37001" lon="5.68685">
        <ele>684.6</ele>
        <time>2022-02-28T13:48:38Z</time>
      </trkpt>
      <trkpt lat="46.37002" lon="5.68685">
        <ele>684.6</ele>
        <time>2022-02-28T13:48:39Z</time>
      </trkpt>
      <trkpt lat="46.37002" lon="5.68685">
        <ele>684.6</ele>
        <time>2022-02-28T13:48:40Z</time>
      </trkpt>
      <trkpt lat="46.37002" lon="5.68686">
        <ele>685</ele>
        <time>2022-02-28T13:48:44Z</time>
      </trkpt>
      <trkpt lat="46.37002" lon="5.68686">
        <ele>685</ele>
        <time>2022-02-28T13:48:45Z</time>
      </trkpt>
      <trkpt lat="46.37002" lon="5.68687">
        <ele>685</ele>
        <time>2022-02-28T13:48:46Z</time>
      </trkpt>
      <trkpt lat="46.37002" lon="5.68687">
        <ele>685</ele>
        <time>2022-02-28T13:48:47Z</time>
      </trkpt>
      <trkpt lat="46.37003" lon="5.6869">
        <ele>684.6</ele>
        <time>2022-02-28T13:48:48Z</time>
      </trkpt>
      <trkpt lat="46.37004" lon="5.68693">
        <ele>684.6</ele>
        <time>2022-02-28T13:48:49Z</time>
      </trkpt>
      <trkpt lat="46.37005" lon="5.68696">
        <ele>684.2</ele>
        <time>2022-02-28T13:48:50Z</time>
      </trkpt>
      <trkpt lat="46.37007" lon="5.68698">
        <ele>684.2</ele>
        <time>2022-02-28T13:48:51Z</time>
      </trkpt>
      <trkpt lat="46.3701" lon="5.687">
        <ele>683.8</ele>
        <time>2022-02-28T13:48:52Z</time>
      </trkpt>
      <trkpt lat="46.37013" lon="5.68702">
        <ele>683.6</ele>
        <time>2022-02-28T13:48:53Z</time>
      </trkpt>
      <trkpt lat="46.37016" lon="5.68704">
        <ele>683.4</ele>
        <time>2022-02-28T13:48:54Z</time>
      </trkpt>
      <trkpt lat="46.3702" lon="5.68708">
        <ele>683</ele>
        <time>2022-02-28T13:48:55Z</time>
      </trkpt>
      <trkpt lat="46.37024" lon="5.68713">
        <ele>682.8</ele>
        <time>2022-02-28T13:48:56Z</time>
      </trkpt>
      <trkpt lat="46.37028" lon="5.68717">
        <ele>682.4</ele>
        <time>2022-02-28T13:48:57Z</time>
      </trkpt>
      <trkpt lat="46.37034" lon="5.68722">
        <ele>682</ele>
        <time>2022-02-28T13:48:58Z</time>
      </trkpt>
      <trkpt lat="46.37039" lon="5.68727">
        <ele>681.4</ele>
        <time>2022-02-28T13:48:59Z</time>
      </trkpt>
      <trkpt lat="46.37046" lon="5.68733">
        <ele>680.8</ele>
        <time>2022-02-28T13:49:00Z</time>
      </trkpt>
      <trkpt lat="46.37052" lon="5.6874">
        <ele>680.2</ele>
        <time>2022-02-28T13:49:01Z</time>
      </trkpt>
      <trkpt lat="46.37059" lon="5.68748">
        <ele>679.4</ele>
        <time>2022-02-28T13:49:02Z</time>
      </trkpt>
      <trkpt lat="46.37067" lon="5.68755">
        <ele>678.6</ele>
        <time>2022-02-28T13:49:03Z</time>
      </trkpt>
      <trkpt lat="46.37074" lon="5.68764">
        <ele>678</ele>
        <time>2022-02-28T13:49:04Z</time>
      </trkpt>
      <trkpt lat="46.37082" lon="5.68772">
        <ele>677</ele>
        <time>2022-02-28T13:49:05Z</time>
      </trkpt>
      <trkpt lat="46.37091" lon="5.68781">
        <ele>676</ele>
        <time>2022-02-28T13:49:06Z</time>
      </trkpt>
      <trkpt lat="46.371" lon="5.6879">
        <ele>675</ele>
        <time>2022-02-28T13:49:07Z</time>
      </trkpt>
      <trkpt lat="46.37109" lon="5.688">
        <ele>673.8</ele>
        <time>2022-02-28T13:49:08Z</time>
      </trkpt>
      <trkpt lat="46.37119" lon="5.68811">
        <ele>672.4</ele>
        <time>2022-02-28T13:49:09Z</time>
      </trkpt>
      <trkpt lat="46.37131" lon="5.68824">
        <ele>671.2</ele>
        <time>2022-02-28T13:49:10Z</time>
      </trkpt>
      <trkpt lat="46.37141" lon="5.68836">
        <ele>670</ele>
        <time>2022-02-28T13:49:11Z</time>
      </trkpt>
      <trkpt lat="46.37152" lon="5.68849">
        <ele>669</ele>
        <time>2022-02-28T13:49:12Z</time>
      </trkpt>
      <trkpt lat="46.37163" lon="5.68862">
        <ele>667.8</ele>
        <time>2022-02-28T13:49:13Z</time>
      </trkpt>
      <trkpt lat="46.37174" lon="5.68874">
        <ele>666.6</ele>
        <time>2022-02-28T13:49:14Z</time>
      </trkpt>
      <trkpt lat="46.37186" lon="5.68884">
        <ele>665.6</ele>
        <time>2022-02-28T13:49:15Z</time>
      </trkpt>
      <trkpt lat="46.37198" lon="5.68895">
        <ele>664.4</ele>
        <time>2022-02-28T13:49:16Z</time>
      </trkpt>
      <trkpt lat="46.3721" lon="5.68905">
        <ele>663.4</ele>
        <time>2022-02-28T13:49:17Z</time>
      </trkpt>
      <trkpt lat="46.37223" lon="5.68914">
        <ele>662.6</ele>
        <time>2022-02-28T13:49:18Z</time>
      </trkpt>
      <trkpt lat="46.37235" lon="5.68923">
        <ele>661.6</ele>
        <time>2022-02-28T13:49:19Z</time>
      </trkpt>
      <trkpt lat="46.37247" lon="5.68931">
        <ele>660.4</ele>
        <time>2022-02-28T13:49:20Z</time>
      </trkpt>
      <trkpt lat="46.3726" lon="5.68939">
        <ele>659.6</ele>
        <time>2022-02-28T13:49:21Z</time>
      </trkpt>
      <trkpt lat="46.37273" lon="5.68947">
        <ele>658.6</ele>
        <time>2022-02-28T13:49:22Z</time>
      </trkpt>
      <trkpt lat="46.37286" lon="5.68953">
        <ele>657.8</ele>
        <time>2022-02-28T13:49:23Z</time>
      </trkpt>
      <trkpt lat="46.37299" lon="5.68959">
        <ele>656.8</ele>
        <time>2022-02-28T13:49:24Z</time>
      </trkpt>
      <trkpt lat="46.37312" lon="5.68963">
        <ele>655.8</ele>
        <time>2022-02-28T13:49:25Z</time>
      </trkpt>
      <trkpt lat="46.37326" lon="5.68966">
        <ele>655</ele>
        <time>2022-02-28T13:49:26Z</time>
      </trkpt>
      <trkpt lat="46.3734" lon="5.68967">
        <ele>654.2</ele>
        <time>2022-02-28T13:49:27Z</time>
      </trkpt>
      <trkpt lat="46.37353" lon="5.68969">
        <ele>653.2</ele>
        <time>2022-02-28T13:49:28Z</time>
      </trkpt>
      <trkpt lat="46.37366" lon="5.68971">
        <ele>652.4</ele>
        <time>2022-02-28T13:49:29Z</time>
      </trkpt>
      <trkpt lat="46.37379" lon="5.68974">
        <ele>651.8</ele>
        <time>2022-02-28T13:49:30Z</time>
      </trkpt>
      <trkpt lat="46.37392" lon="5.68978">
        <ele>651</ele>
        <time>2022-02-28T13:49:31Z</time>
      </trkpt>
      <trkpt lat="46.37404" lon="5.68983">
        <ele>650.4</ele>
        <time>2022-02-28T13:49:32Z</time>
      </trkpt>
      <trkpt lat="46.37417" lon="5.68988">
        <ele>649.8</ele>
        <time>2022-02-28T13:49:33Z</time>
      </trkpt>
      <trkpt lat="46.37429" lon="5.68993">
        <ele>649</ele>
        <time>2022-02-28T13:49:34Z</time>
      </trkpt>
      <trkpt lat="46.37441" lon="5.68997">
        <ele>648.4</ele>
        <time>2022-02-28T13:49:35Z</time>
      </trkpt>
      <trkpt lat="46.37453" lon="5.69002">
        <ele>647.6</ele>
        <time>2022-02-28T13:49:36Z</time>
      </trkpt>
      <trkpt lat="46.37464" lon="5.69007">
        <ele>646.8</ele>
        <time>2022-02-28T13:49:37Z</time>
      </trkpt>
      <trkpt lat="46.37476" lon="5.69014">
        <ele>646</ele>
        <time>2022-02-28T13:49:38Z</time>
      </trkpt>
      <trkpt lat="46.37487" lon="5.6902">
        <ele>645.4</ele>
        <time>2022-02-28T13:49:39Z</time>
      </trkpt>
      <trkpt lat="46.37498" lon="5.69027">
        <ele>644.8</ele>
        <time>2022-02-28T13:49:40Z</time>
      </trkpt>
      <trkpt lat="46.37509" lon="5.69033">
        <ele>644</ele>
        <time>2022-02-28T13:49:41Z</time>
      </trkpt>
      <trkpt lat="46.37521" lon="5.69041">
        <ele>643.4</ele>
        <time>2022-02-28T13:49:42Z</time>
      </trkpt>
      <trkpt lat="46.37531" lon="5.69049">
        <ele>643.4</ele>
        <time>2022-02-28T13:49:43Z</time>
      </trkpt>
      <trkpt lat="46.3754" lon="5.69058">
        <ele>642.8</ele>
        <time>2022-02-28T13:49:44Z</time>
      </trkpt>
      <trkpt lat="46.37549" lon="5.69072">
        <ele>642.2</ele>
        <time>2022-02-28T13:49:45Z</time>
      </trkpt>
      <trkpt lat="46.37554" lon="5.69089">
        <ele>641.6</ele>
        <time>2022-02-28T13:49:46Z</time>
      </trkpt>
      <trkpt lat="46.37558" lon="5.69107">
        <ele>641.2</ele>
        <time>2022-02-28T13:49:47Z</time>
      </trkpt>
      <trkpt lat="46.3756" lon="5.69127">
        <ele>640.6</ele>
        <time>2022-02-28T13:49:48Z</time>
      </trkpt>
      <trkpt lat="46.37562" lon="5.69143">
        <ele>640</ele>
        <time>2022-02-28T13:49:49Z</time>
      </trkpt>
      <trkpt lat="46.37563" lon="5.69159">
        <ele>639.2</ele>
        <time>2022-02-28T13:49:50Z</time>
      </trkpt>
      <trkpt lat="46.37563" lon="5.69175">
        <ele>638.4</ele>
        <time>2022-02-28T13:49:51Z</time>
      </trkpt>
      <trkpt lat="46.37566" lon="5.69192">
        <ele>637.6</ele>
        <time>2022-02-28T13:49:52Z</time>
      </trkpt>
      <trkpt lat="46.37569" lon="5.69209">
        <ele>636.8</ele>
        <time>2022-02-28T13:49:53Z</time>
      </trkpt>
      <trkpt lat="46.37573" lon="5.69228">
        <ele>636</ele>
        <time>2022-02-28T13:49:54Z</time>
      </trkpt>
      <trkpt lat="46.37576" lon="5.69246">
        <ele>634.6</ele>
        <time>2022-02-28T13:49:55Z</time>
      </trkpt>
      <trkpt lat="46.3758" lon="5.69265">
        <ele>633.8</ele>
        <time>2022-02-28T13:49:56Z</time>
      </trkpt>
      <trkpt lat="46.37581" lon="5.69282">
        <ele>633</ele>
        <time>2022-02-28T13:49:57Z</time>
      </trkpt>
      <trkpt lat="46.37581" lon="5.693">
        <ele>632</ele>
        <time>2022-02-28T13:49:58Z</time>
      </trkpt>
      <trkpt lat="46.37583" lon="5.69326">
        <ele>631.2</ele>
        <time>2022-02-28T13:49:59Z</time>
      </trkpt>
      <trkpt lat="46.37585" lon="5.69336">
        <ele>630.4</ele>
        <time>2022-02-28T13:50:00Z</time>
      </trkpt>
      <trkpt lat="46.37589" lon="5.69363">
        <ele>630.4</ele>
        <time>2022-02-28T13:50:01Z</time>
      </trkpt>
      <trkpt lat="46.37591" lon="5.69373">
        <ele>629.8</ele>
        <time>2022-02-28T13:50:02Z</time>
      </trkpt>
      <trkpt lat="46.37595" lon="5.69391">
        <ele>629.2</ele>
        <time>2022-02-28T13:50:03Z</time>
      </trkpt>
      <trkpt lat="46.37598" lon="5.69408">
        <ele>628.6</ele>
        <time>2022-02-28T13:50:04Z</time>
      </trkpt>
      <trkpt lat="46.37602" lon="5.69422">
        <ele>628</ele>
        <time>2022-02-28T13:50:05Z</time>
      </trkpt>
      <trkpt lat="46.37605" lon="5.69437">
        <ele>627.4</ele>
        <time>2022-02-28T13:50:06Z</time>
      </trkpt>
      <trkpt lat="46.37609" lon="5.69453">
        <ele>627</ele>
        <time>2022-02-28T13:50:07Z</time>
      </trkpt>
      <trkpt lat="46.3762" lon="5.69481">
        <ele>626</ele>
        <time>2022-02-28T13:50:08Z</time>
      </trkpt>
      <trkpt lat="46.37626" lon="5.69495">
        <ele>625.6</ele>
        <time>2022-02-28T13:50:09Z</time>
      </trkpt>
      <trkpt lat="46.37632" lon="5.69508">
        <ele>625.2</ele>
        <time>2022-02-28T13:50:10Z</time>
      </trkpt>
      <trkpt lat="46.37638" lon="5.69521">
        <ele>624.8</ele>
        <time>2022-02-28T13:50:11Z</time>
      </trkpt>
      <trkpt lat="46.37644" lon="5.69532">
        <ele>624.4</ele>
        <time>2022-02-28T13:50:12Z</time>
      </trkpt>
      <trkpt lat="46.3765" lon="5.69543">
        <ele>623.8</ele>
        <time>2022-02-28T13:50:13Z</time>
      </trkpt>
      <trkpt lat="46.37658" lon="5.69552">
        <ele>623.4</ele>
        <time>2022-02-28T13:50:14Z</time>
      </trkpt>
      <trkpt lat="46.37667" lon="5.69561">
        <ele>622.8</ele>
        <time>2022-02-28T13:50:15Z</time>
      </trkpt>
      <trkpt lat="46.37667" lon="5.69561">
        <ele>622.2</ele>
        <time>2022-02-28T13:50:16Z</time>
      </trkpt>
      <trkpt lat="46.37677" lon="5.6957">
        <ele>621.6</ele>
        <time>2022-02-28T13:50:17Z</time>
      </trkpt>
      <trkpt lat="46.37686" lon="5.69577">
        <ele>620.8</ele>
        <time>2022-02-28T13:50:18Z</time>
      </trkpt>
      <trkpt lat="46.37695" lon="5.69585">
        <ele>620.2</ele>
        <time>2022-02-28T13:50:19Z</time>
      </trkpt>
      <trkpt lat="46.37705" lon="5.69592">
        <ele>619.8</ele>
        <time>2022-02-28T13:50:20Z</time>
      </trkpt>
      <trkpt lat="46.37714" lon="5.69599">
        <ele>619.4</ele>
        <time>2022-02-28T13:50:21Z</time>
      </trkpt>
      <trkpt lat="46.37724" lon="5.69606">
        <ele>619.4</ele>
        <time>2022-02-28T13:50:22Z</time>
      </trkpt>
      <trkpt lat="46.37732" lon="5.69613">
        <ele>619</ele>
        <time>2022-02-28T13:50:23Z</time>
      </trkpt>
      <trkpt lat="46.37741" lon="5.69617">
        <ele>619</ele>
        <time>2022-02-28T13:50:24Z</time>
      </trkpt>
      <trkpt lat="46.37749" lon="5.69621">
        <ele>619</ele>
        <time>2022-02-28T13:50:25Z</time>
      </trkpt>
      <trkpt lat="46.37757" lon="5.69625">
        <ele>619</ele>
        <time>2022-02-28T13:50:26Z</time>
      </trkpt>
      <trkpt lat="46.37764" lon="5.69628">
        <ele>619</ele>
        <time>2022-02-28T13:50:27Z</time>
      </trkpt>
      <trkpt lat="46.37773" lon="5.69631">
        <ele>618.6</ele>
        <time>2022-02-28T13:50:28Z</time>
      </trkpt>
      <trkpt lat="46.37781" lon="5.69635">
        <ele>618.2</ele>
        <time>2022-02-28T13:50:29Z</time>
      </trkpt>
      <trkpt lat="46.3779" lon="5.69638">
        <ele>617.8</ele>
        <time>2022-02-28T13:50:30Z</time>
      </trkpt>
      <trkpt lat="46.37799" lon="5.69641">
        <ele>617.4</ele>
        <time>2022-02-28T13:50:31Z</time>
      </trkpt>
      <trkpt lat="46.37808" lon="5.69644">
        <ele>617.2</ele>
        <time>2022-02-28T13:50:32Z</time>
      </trkpt>
      <trkpt lat="46.37816" lon="5.69647">
        <ele>617.2</ele>
        <time>2022-02-28T13:50:33Z</time>
      </trkpt>
      <trkpt lat="46.37825" lon="5.6965">
        <ele>617</ele>
        <time>2022-02-28T13:50:34Z</time>
      </trkpt>
      <trkpt lat="46.37833" lon="5.69655">
        <ele>617</ele>
        <time>2022-02-28T13:50:35Z</time>
      </trkpt>
      <trkpt lat="46.3784" lon="5.69659">
        <ele>617</ele>
        <time>2022-02-28T13:50:36Z</time>
      </trkpt>
      <trkpt lat="46.37847" lon="5.69664">
        <ele>617</ele>
        <time>2022-02-28T13:50:37Z</time>
      </trkpt>
      <trkpt lat="46.37854" lon="5.69667">
        <ele>617</ele>
        <time>2022-02-28T13:50:38Z</time>
      </trkpt>
      <trkpt lat="46.3786" lon="5.6967">
        <ele>617.2</ele>
        <time>2022-02-28T13:50:39Z</time>
      </trkpt>
      <trkpt lat="46.37867" lon="5.69671">
        <ele>617.2</ele>
        <time>2022-02-28T13:50:40Z</time>
      </trkpt>
      <trkpt lat="46.37873" lon="5.69671">
        <ele>617.8</ele>
        <time>2022-02-28T13:50:41Z</time>
      </trkpt>
      <trkpt lat="46.37879" lon="5.6967">
        <ele>617.8</ele>
        <time>2022-02-28T13:50:42Z</time>
      </trkpt>
      <trkpt lat="46.37884" lon="5.69669">
        <ele>618.2</ele>
        <time>2022-02-28T13:50:43Z</time>
      </trkpt>
      <trkpt lat="46.3789" lon="5.69667">
        <ele>618.2</ele>
        <time>2022-02-28T13:50:44Z</time>
      </trkpt>
      <trkpt lat="46.37896" lon="5.69665">
        <ele>618.4</ele>
        <time>2022-02-28T13:50:45Z</time>
      </trkpt>
      <trkpt lat="46.37901" lon="5.69663">
        <ele>618.4</ele>
        <time>2022-02-28T13:50:46Z</time>
      </trkpt>
      <trkpt lat="46.37907" lon="5.69662">
        <ele>618.4</ele>
        <time>2022-02-28T13:50:47Z</time>
      </trkpt>
      <trkpt lat="46.37912" lon="5.6966">
        <ele>618.4</ele>
        <time>2022-02-28T13:50:48Z</time>
      </trkpt>
      <trkpt lat="46.37918" lon="5.69658">
        <ele>618.4</ele>
        <time>2022-02-28T13:50:49Z</time>
      </trkpt>
      <trkpt lat="46.37924" lon="5.69656">
        <ele>618.6</ele>
        <time>2022-02-28T13:50:50Z</time>
      </trkpt>
      <trkpt lat="46.37929" lon="5.69655">
        <ele>618.6</ele>
        <time>2022-02-28T13:50:51Z</time>
      </trkpt>
      <trkpt lat="46.37935" lon="5.69654">
        <ele>618.6</ele>
        <time>2022-02-28T13:50:52Z</time>
      </trkpt>
      <trkpt lat="46.37941" lon="5.69653">
        <ele>618.6</ele>
        <time>2022-02-28T13:50:53Z</time>
      </trkpt>
      <trkpt lat="46.37947" lon="5.69652">
        <ele>618.4</ele>
        <time>2022-02-28T13:50:54Z</time>
      </trkpt>
      <trkpt lat="46.37953" lon="5.69651">
        <ele>618.2</ele>
        <time>2022-02-28T13:50:55Z</time>
      </trkpt>
      <trkpt lat="46.37959" lon="5.69649">
        <ele>617.8</ele>
        <time>2022-02-28T13:50:56Z</time>
      </trkpt>
      <trkpt lat="46.37965" lon="5.69645">
        <ele>617.4</ele>
        <time>2022-02-28T13:50:57Z</time>
      </trkpt>
      <trkpt lat="46.37972" lon="5.69641">
        <ele>617</ele>
        <time>2022-02-28T13:50:58Z</time>
      </trkpt>
      <trkpt lat="46.37978" lon="5.69636">
        <ele>616.4</ele>
        <time>2022-02-28T13:50:59Z</time>
      </trkpt>
      <trkpt lat="46.37985" lon="5.6963">
        <ele>615.8</ele>
        <time>2022-02-28T13:51:00Z</time>
      </trkpt>
      <trkpt lat="46.37992" lon="5.69623">
        <ele>615.2</ele>
        <time>2022-02-28T13:51:01Z</time>
      </trkpt>
      <trkpt lat="46.38" lon="5.69616">
        <ele>614.6</ele>
        <time>2022-02-28T13:51:02Z</time>
      </trkpt>
      <trkpt lat="46.38008" lon="5.69609">
        <ele>613.8</ele>
        <time>2022-02-28T13:51:03Z</time>
      </trkpt>
      <trkpt lat="46.38016" lon="5.696">
        <ele>613.2</ele>
        <time>2022-02-28T13:51:04Z</time>
      </trkpt>
      <trkpt lat="46.38023" lon="5.69591">
        <ele>612.4</ele>
        <time>2022-02-28T13:51:05Z</time>
      </trkpt>
      <trkpt lat="46.3803" lon="5.6958">
        <ele>611.4</ele>
        <time>2022-02-28T13:51:06Z</time>
      </trkpt>
      <trkpt lat="46.38036" lon="5.69568">
        <ele>610.4</ele>
        <time>2022-02-28T13:51:07Z</time>
      </trkpt>
      <trkpt lat="46.38042" lon="5.69555">
        <ele>609.4</ele>
        <time>2022-02-28T13:51:08Z</time>
      </trkpt>
      <trkpt lat="46.38049" lon="5.69542">
        <ele>608.4</ele>
        <time>2022-02-28T13:51:09Z</time>
      </trkpt>
      <trkpt lat="46.38057" lon="5.6953">
        <ele>607.4</ele>
        <time>2022-02-28T13:51:10Z</time>
      </trkpt>
      <trkpt lat="46.38065" lon="5.69519">
        <ele>606.6</ele>
        <time>2022-02-28T13:51:11Z</time>
      </trkpt>
      <trkpt lat="46.38075" lon="5.6951">
        <ele>606</ele>
        <time>2022-02-28T13:51:12Z</time>
      </trkpt>
      <trkpt lat="46.38086" lon="5.69504">
        <ele>605.6</ele>
        <time>2022-02-28T13:51:13Z</time>
      </trkpt>
      <trkpt lat="46.38097" lon="5.695">
        <ele>605.2</ele>
        <time>2022-02-28T13:51:14Z</time>
      </trkpt>
      <trkpt lat="46.38108" lon="5.69498">
        <ele>605</ele>
        <time>2022-02-28T13:51:15Z</time>
      </trkpt>
      <trkpt lat="46.38118" lon="5.69498">
        <ele>604.8</ele>
        <time>2022-02-28T13:51:16Z</time>
      </trkpt>
      <trkpt lat="46.38129" lon="5.695">
        <ele>604.8</ele>
        <time>2022-02-28T13:51:17Z</time>
      </trkpt>
      <trkpt lat="46.38139" lon="5.69502">
        <ele>604.8</ele>
        <time>2022-02-28T13:51:18Z</time>
      </trkpt>
      <trkpt lat="46.38149" lon="5.69501">
        <ele>604.8</ele>
        <time>2022-02-28T13:51:19Z</time>
      </trkpt>
      <trkpt lat="46.38157" lon="5.695">
        <ele>605</ele>
        <time>2022-02-28T13:51:20Z</time>
      </trkpt>
      <trkpt lat="46.38165" lon="5.69499">
        <ele>605</ele>
        <time>2022-02-28T13:51:21Z</time>
      </trkpt>
      <trkpt lat="46.38172" lon="5.69497">
        <ele>605.4</ele>
        <time>2022-02-28T13:51:22Z</time>
      </trkpt>
      <trkpt lat="46.38179" lon="5.69496">
        <ele>605.4</ele>
        <time>2022-02-28T13:51:23Z</time>
      </trkpt>
      <trkpt lat="46.38187" lon="5.69494">
        <ele>605.6</ele>
        <time>2022-02-28T13:51:24Z</time>
      </trkpt>
      <trkpt lat="46.38193" lon="5.69492">
        <ele>605.6</ele>
        <time>2022-02-28T13:51:25Z</time>
      </trkpt>
      <trkpt lat="46.382" lon="5.69488">
        <ele>606</ele>
        <time>2022-02-28T13:51:26Z</time>
      </trkpt>
      <trkpt lat="46.38205" lon="5.69484">
        <ele>606.2</ele>
        <time>2022-02-28T13:51:27Z</time>
      </trkpt>
      <trkpt lat="46.3821" lon="5.69479">
        <ele>606.6</ele>
        <time>2022-02-28T13:51:28Z</time>
      </trkpt>
      <trkpt lat="46.38214" lon="5.69474">
        <ele>606.8</ele>
        <time>2022-02-28T13:51:29Z</time>
      </trkpt>
      <trkpt lat="46.38217" lon="5.69468">
        <ele>607.2</ele>
        <time>2022-02-28T13:51:30Z</time>
      </trkpt>
      <trkpt lat="46.3822" lon="5.69463">
        <ele>607.4</ele>
        <time>2022-02-28T13:51:31Z</time>
      </trkpt>
      <trkpt lat="46.38223" lon="5.69458">
        <ele>607.8</ele>
        <time>2022-02-28T13:51:32Z</time>
      </trkpt>
      <trkpt lat="46.38226" lon="5.69454">
        <ele>608</ele>
        <time>2022-02-28T13:51:33Z</time>
      </trkpt>
      <trkpt lat="46.38228" lon="5.69451">
        <ele>608.2</ele>
        <time>2022-02-28T13:51:34Z</time>
      </trkpt>
      <trkpt lat="46.38231" lon="5.69448">
        <ele>608.6</ele>
        <time>2022-02-28T13:51:35Z</time>
      </trkpt>
      <trkpt lat="46.38234" lon="5.69445">
        <ele>608.6</ele>
        <time>2022-02-28T13:51:36Z</time>
      </trkpt>
      <trkpt lat="46.38237" lon="5.69443">
        <ele>608.8</ele>
        <time>2022-02-28T13:51:37Z</time>
      </trkpt>
      <trkpt lat="46.38239" lon="5.69442">
        <ele>609.2</ele>
        <time>2022-02-28T13:51:38Z</time>
      </trkpt>
      <trkpt lat="46.38242" lon="5.69441">
        <ele>609.4</ele>
        <time>2022-02-28T13:51:39Z</time>
      </trkpt>
      <trkpt lat="46.38244" lon="5.6944">
        <ele>609.8</ele>
        <time>2022-02-28T13:51:40Z</time>
      </trkpt>
      <trkpt lat="46.38247" lon="5.6944">
        <ele>610</ele>
        <time>2022-02-28T13:51:41Z</time>
      </trkpt>
      <trkpt lat="46.3825" lon="5.69441">
        <ele>610.2</ele>
        <time>2022-02-28T13:51:42Z</time>
      </trkpt>
      <trkpt lat="46.38253" lon="5.69441">
        <ele>610.4</ele>
        <time>2022-02-28T13:51:43Z</time>
      </trkpt>
      <trkpt lat="46.38256" lon="5.69442">
        <ele>610.8</ele>
        <time>2022-02-28T13:51:44Z</time>
      </trkpt>
      <trkpt lat="46.38258" lon="5.69442">
        <ele>610.8</ele>
        <time>2022-02-28T13:51:45Z</time>
      </trkpt>
      <trkpt lat="46.38261" lon="5.69443">
        <ele>611.4</ele>
        <time>2022-02-28T13:51:46Z</time>
      </trkpt>
      <trkpt lat="46.38263" lon="5.69444">
        <ele>611.6</ele>
        <time>2022-02-28T13:51:47Z</time>
      </trkpt>
      <trkpt lat="46.38266" lon="5.69444">
        <ele>612</ele>
        <time>2022-02-28T13:51:48Z</time>
      </trkpt>
      <trkpt lat="46.38268" lon="5.69445">
        <ele>612.2</ele>
        <time>2022-02-28T13:51:49Z</time>
      </trkpt>
      <trkpt lat="46.3827" lon="5.69447">
        <ele>612.6</ele>
        <time>2022-02-28T13:51:50Z</time>
      </trkpt>
      <trkpt lat="46.38272" lon="5.69448">
        <ele>612.8</ele>
        <time>2022-02-28T13:51:51Z</time>
      </trkpt>
      <trkpt lat="46.38274" lon="5.69449">
        <ele>612.8</ele>
        <time>2022-02-28T13:51:52Z</time>
      </trkpt>
      <trkpt lat="46.38276" lon="5.69449">
        <ele>613.2</ele>
        <time>2022-02-28T13:51:53Z</time>
      </trkpt>
      <trkpt lat="46.38277" lon="5.69451">
        <ele>613.2</ele>
        <time>2022-02-28T13:51:54Z</time>
      </trkpt>
      <trkpt lat="46.38279" lon="5.69452">
        <ele>613.4</ele>
        <time>2022-02-28T13:51:55Z</time>
      </trkpt>
      <trkpt lat="46.38281" lon="5.69453">
        <ele>613.6</ele>
        <time>2022-02-28T13:51:56Z</time>
      </trkpt>
      <trkpt lat="46.38283" lon="5.69454">
        <ele>613.6</ele>
        <time>2022-02-28T13:51:57Z</time>
      </trkpt>
      <trkpt lat="46.38285" lon="5.69455">
        <ele>614</ele>
        <time>2022-02-28T13:51:58Z</time>
      </trkpt>
      <trkpt lat="46.38286" lon="5.69456">
        <ele>614.4</ele>
        <time>2022-02-28T13:51:59Z</time>
      </trkpt>
      <trkpt lat="46.38288" lon="5.69456">
        <ele>614.6</ele>
        <time>2022-02-28T13:52:00Z</time>
      </trkpt>
      <trkpt lat="46.3829" lon="5.69457">
        <ele>614.6</ele>
        <time>2022-02-28T13:52:01Z</time>
      </trkpt>
      <trkpt lat="46.38291" lon="5.69458">
        <ele>614.8</ele>
        <time>2022-02-28T13:52:02Z</time>
      </trkpt>
      <trkpt lat="46.38293" lon="5.6946">
        <ele>614.8</ele>
        <time>2022-02-28T13:52:03Z</time>
      </trkpt>
      <trkpt lat="46.38295" lon="5.69461">
        <ele>615.2</ele>
        <time>2022-02-28T13:52:04Z</time>
      </trkpt>
      <trkpt lat="46.38297" lon="5.69462">
        <ele>615.4</ele>
        <time>2022-02-28T13:52:05Z</time>
      </trkpt>
      <trkpt lat="46.38299" lon="5.69464">
        <ele>615.6</ele>
        <time>2022-02-28T13:52:06Z</time>
      </trkpt>
      <trkpt lat="46.38301" lon="5.69465">
        <ele>615.6</ele>
        <time>2022-02-28T13:52:07Z</time>
      </trkpt>
      <trkpt lat="46.38303" lon="5.69466">
        <ele>616</ele>
        <time>2022-02-28T13:52:08Z</time>
      </trkpt>
      <trkpt lat="46.38304" lon="5.69468">
        <ele>616</ele>
        <time>2022-02-28T13:52:09Z</time>
      </trkpt>
      <trkpt lat="46.38306" lon="5.69469">
        <ele>616.4</ele>
        <time>2022-02-28T13:52:10Z</time>
      </trkpt>
      <trkpt lat="46.38308" lon="5.69471">
        <ele>616.6</ele>
        <time>2022-02-28T13:52:11Z</time>
      </trkpt>
      <trkpt lat="46.3831" lon="5.69473">
        <ele>617</ele>
        <time>2022-02-28T13:52:12Z</time>
      </trkpt>
      <trkpt lat="46.38312" lon="5.69475">
        <ele>617.4</ele>
        <time>2022-02-28T13:52:13Z</time>
      </trkpt>
      <trkpt lat="46.38314" lon="5.69478">
        <ele>617.6</ele>
        <time>2022-02-28T13:52:14Z</time>
      </trkpt>
      <trkpt lat="46.38316" lon="5.6948">
        <ele>618</ele>
        <time>2022-02-28T13:52:15Z</time>
      </trkpt>
      <trkpt lat="46.38317" lon="5.69482">
        <ele>618.2</ele>
        <time>2022-02-28T13:52:16Z</time>
      </trkpt>
      <trkpt lat="46.38319" lon="5.69484">
        <ele>618.6</ele>
        <time>2022-02-28T13:52:17Z</time>
      </trkpt>
      <trkpt lat="46.3832" lon="5.69486">
        <ele>618.8</ele>
        <time>2022-02-28T13:52:18Z</time>
      </trkpt>
      <trkpt lat="46.38321" lon="5.69488">
        <ele>618.8</ele>
        <time>2022-02-28T13:52:19Z</time>
      </trkpt>
      <trkpt lat="46.38323" lon="5.69491">
        <ele>619.2</ele>
        <time>2022-02-28T13:52:20Z</time>
      </trkpt>
      <trkpt lat="46.38324" lon="5.69493">
        <ele>619.4</ele>
        <time>2022-02-28T13:52:21Z</time>
      </trkpt>
      <trkpt lat="46.38326" lon="5.69496">
        <ele>619.6</ele>
        <time>2022-02-28T13:52:22Z</time>
      </trkpt>
      <trkpt lat="46.38327" lon="5.69498">
        <ele>620</ele>
        <time>2022-02-28T13:52:23Z</time>
      </trkpt>
      <trkpt lat="46.38329" lon="5.69501">
        <ele>620.2</ele>
        <time>2022-02-28T13:52:24Z</time>
      </trkpt>
      <trkpt lat="46.38331" lon="5.69505">
        <ele>620.4</ele>
        <time>2022-02-28T13:52:25Z</time>
      </trkpt>
      <trkpt lat="46.38333" lon="5.69509">
        <ele>620.6</ele>
        <time>2022-02-28T13:52:26Z</time>
      </trkpt>
      <trkpt lat="46.38334" lon="5.69512">
        <ele>620.6</ele>
        <time>2022-02-28T13:52:27Z</time>
      </trkpt>
      <trkpt lat="46.38336" lon="5.69515">
        <ele>621.2</ele>
        <time>2022-02-28T13:52:28Z</time>
      </trkpt>
      <trkpt lat="46.38338" lon="5.69519">
        <ele>621.4</ele>
        <time>2022-02-28T13:52:29Z</time>
      </trkpt>
      <trkpt lat="46.38339" lon="5.69522">
        <ele>621.6</ele>
        <time>2022-02-28T13:52:30Z</time>
      </trkpt>
      <trkpt lat="46.38341" lon="5.69525">
        <ele>622</ele>
        <time>2022-02-28T13:52:31Z</time>
      </trkpt>
      <trkpt lat="46.38342" lon="5.69528">
        <ele>622.2</ele>
        <time>2022-02-28T13:52:32Z</time>
      </trkpt>
      <trkpt lat="46.38343" lon="5.69531">
        <ele>622.4</ele>
        <time>2022-02-28T13:52:33Z</time>
      </trkpt>
      <trkpt lat="46.38344" lon="5.69534">
        <ele>622.6</ele>
        <time>2022-02-28T13:52:34Z</time>
      </trkpt>
      <trkpt lat="46.38345" lon="5.69537">
        <ele>623</ele>
        <time>2022-02-28T13:52:35Z</time>
      </trkpt>
      <trkpt lat="46.38347" lon="5.6954">
        <ele>623.2</ele>
        <time>2022-02-28T13:52:36Z</time>
      </trkpt>
      <trkpt lat="46.38348" lon="5.69543">
        <ele>623.4</ele>
        <time>2022-02-28T13:52:37Z</time>
      </trkpt>
      <trkpt lat="46.38349" lon="5.69546">
        <ele>623.4</ele>
        <time>2022-02-28T13:52:38Z</time>
      </trkpt>
      <trkpt lat="46.3835" lon="5.6955">
        <ele>623.8</ele>
        <time>2022-02-28T13:52:39Z</time>
      </trkpt>
      <trkpt lat="46.38351" lon="5.69553">
        <ele>623.8</ele>
        <time>2022-02-28T13:52:40Z</time>
      </trkpt>
      <trkpt lat="46.38352" lon="5.69557">
        <ele>624.2</ele>
        <time>2022-02-28T13:52:41Z</time>
      </trkpt>
      <trkpt lat="46.38353" lon="5.69561">
        <ele>624.2</ele>
        <time>2022-02-28T13:52:42Z</time>
      </trkpt>
      <trkpt lat="46.38354" lon="5.69564">
        <ele>624.6</ele>
        <time>2022-02-28T13:52:43Z</time>
      </trkpt>
      <trkpt lat="46.38355" lon="5.69567">
        <ele>624.8</ele>
        <time>2022-02-28T13:52:44Z</time>
      </trkpt>
      <trkpt lat="46.38356" lon="5.69571">
        <ele>624.8</ele>
        <time>2022-02-28T13:52:45Z</time>
      </trkpt>
      <trkpt lat="46.38357" lon="5.69574">
        <ele>625.2</ele>
        <time>2022-02-28T13:52:46Z</time>
      </trkpt>
      <trkpt lat="46.38358" lon="5.69577">
        <ele>625.2</ele>
        <time>2022-02-28T13:52:47Z</time>
      </trkpt>
      <trkpt lat="46.38359" lon="5.6958">
        <ele>625.6</ele>
        <time>2022-02-28T13:52:48Z</time>
      </trkpt>
      <trkpt lat="46.3836" lon="5.69583">
        <ele>625.8</ele>
        <time>2022-02-28T13:52:49Z</time>
      </trkpt>
      <trkpt lat="46.38361" lon="5.69587">
        <ele>626.2</ele>
        <time>2022-02-28T13:52:50Z</time>
      </trkpt>
      <trkpt lat="46.38362" lon="5.6959">
        <ele>626.2</ele>
        <time>2022-02-28T13:52:51Z</time>
      </trkpt>
      <trkpt lat="46.38363" lon="5.69594">
        <ele>626.4</ele>
        <time>2022-02-28T13:52:52Z</time>
      </trkpt>
      <trkpt lat="46.38365" lon="5.69597">
        <ele>626.4</ele>
        <time>2022-02-28T13:52:53Z</time>
      </trkpt>
      <trkpt lat="46.38366" lon="5.69601">
        <ele>626.8</ele>
        <time>2022-02-28T13:52:54Z</time>
      </trkpt>
      <trkpt lat="46.38367" lon="5.69604">
        <ele>627</ele>
        <time>2022-02-28T13:52:55Z</time>
      </trkpt>
      <trkpt lat="46.38368" lon="5.69607">
        <ele>627.2</ele>
        <time>2022-02-28T13:52:56Z</time>
      </trkpt>
      <trkpt lat="46.3837" lon="5.6961">
        <ele>627.2</ele>
        <time>2022-02-28T13:52:57Z</time>
      </trkpt>
      <trkpt lat="46.38371" lon="5.69613">
        <ele>627.6</ele>
        <time>2022-02-28T13:52:58Z</time>
      </trkpt>
      <trkpt lat="46.38372" lon="5.69615">
        <ele>627.8</ele>
        <time>2022-02-28T13:52:59Z</time>
      </trkpt>
      <trkpt lat="46.38374" lon="5.69618">
        <ele>628</ele>
        <time>2022-02-28T13:53:00Z</time>
      </trkpt>
      <trkpt lat="46.38375" lon="5.6962">
        <ele>628.4</ele>
        <time>2022-02-28T13:53:01Z</time>
      </trkpt>
      <trkpt lat="46.38376" lon="5.69623">
        <ele>628.6</ele>
        <time>2022-02-28T13:53:02Z</time>
      </trkpt>
      <trkpt lat="46.38378" lon="5.69625">
        <ele>628.8</ele>
        <time>2022-02-28T13:53:03Z</time>
      </trkpt>
      <trkpt lat="46.38379" lon="5.69628">
        <ele>629.2</ele>
        <time>2022-02-28T13:53:04Z</time>
      </trkpt>
      <trkpt lat="46.3838" lon="5.69631">
        <ele>629.2</ele>
        <time>2022-02-28T13:53:05Z</time>
      </trkpt>
      <trkpt lat="46.38381" lon="5.69633">
        <ele>629.6</ele>
        <time>2022-02-28T13:53:06Z</time>
      </trkpt>
      <trkpt lat="46.38382" lon="5.69636">
        <ele>629.6</ele>
        <time>2022-02-28T13:53:07Z</time>
      </trkpt>
      <trkpt lat="46.38384" lon="5.69638">
        <ele>630</ele>
        <time>2022-02-28T13:53:08Z</time>
      </trkpt>
      <trkpt lat="46.38385" lon="5.69641">
        <ele>630</ele>
        <time>2022-02-28T13:53:09Z</time>
      </trkpt>
      <trkpt lat="46.38387" lon="5.69643">
        <ele>630.2</ele>
        <time>2022-02-28T13:53:10Z</time>
      </trkpt>
      <trkpt lat="46.38388" lon="5.69645">
        <ele>630.2</ele>
        <time>2022-02-28T13:53:11Z</time>
      </trkpt>
      <trkpt lat="46.38389" lon="5.69647">
        <ele>630.6</ele>
        <time>2022-02-28T13:53:12Z</time>
      </trkpt>
      <trkpt lat="46.38391" lon="5.69649">
        <ele>630.6</ele>
        <time>2022-02-28T13:53:13Z</time>
      </trkpt>
      <trkpt lat="46.38392" lon="5.69651">
        <ele>631</ele>
        <time>2022-02-28T13:53:14Z</time>
      </trkpt>
      <trkpt lat="46.38393" lon="5.69653">
        <ele>631.2</ele>
        <time>2022-02-28T13:53:15Z</time>
      </trkpt>
      <trkpt lat="46.38395" lon="5.69655">
        <ele>631.4</ele>
        <time>2022-02-28T13:53:16Z</time>
      </trkpt>
      <trkpt lat="46.38396" lon="5.69657">
        <ele>631.6</ele>
        <time>2022-02-28T13:53:17Z</time>
      </trkpt>
      <trkpt lat="46.38397" lon="5.69659">
        <ele>631.8</ele>
        <time>2022-02-28T13:53:18Z</time>
      </trkpt>
      <trkpt lat="46.38398" lon="5.69662">
        <ele>632</ele>
        <time>2022-02-28T13:53:19Z</time>
      </trkpt>
      <trkpt lat="46.384" lon="5.69663">
        <ele>632</ele>
        <time>2022-02-28T13:53:20Z</time>
      </trkpt>
      <trkpt lat="46.38403" lon="5.69667">
        <ele>632.4</ele>
        <time>2022-02-28T13:53:21Z</time>
      </trkpt>
      <trkpt lat="46.38404" lon="5.69669">
        <ele>632.4</ele>
        <time>2022-02-28T13:53:22Z</time>
      </trkpt>
      <trkpt lat="46.38406" lon="5.69671">
        <ele>632.8</ele>
        <time>2022-02-28T13:53:23Z</time>
      </trkpt>
      <trkpt lat="46.38407" lon="5.69672">
        <ele>632.8</ele>
        <time>2022-02-28T13:53:24Z</time>
      </trkpt>
      <trkpt lat="46.38409" lon="5.69674">
        <ele>633</ele>
        <time>2022-02-28T13:53:25Z</time>
      </trkpt>
      <trkpt lat="46.3841" lon="5.69676">
        <ele>633</ele>
        <time>2022-02-28T13:53:26Z</time>
      </trkpt>
      <trkpt lat="46.38411" lon="5.69678">
        <ele>633.4</ele>
        <time>2022-02-28T13:53:27Z</time>
      </trkpt>
      <trkpt lat="46.38413" lon="5.69679">
        <ele>633.4</ele>
        <time>2022-02-28T13:53:28Z</time>
      </trkpt>
      <trkpt lat="46.38415" lon="5.69681">
        <ele>633.8</ele>
        <time>2022-02-28T13:53:29Z</time>
      </trkpt>
      <trkpt lat="46.38416" lon="5.69683">
        <ele>634</ele>
        <time>2022-02-28T13:53:30Z</time>
      </trkpt>
      <trkpt lat="46.38418" lon="5.69684">
        <ele>634.2</ele>
        <time>2022-02-28T13:53:31Z</time>
      </trkpt>
      <trkpt lat="46.3842" lon="5.69686">
        <ele>634.6</ele>
        <time>2022-02-28T13:53:32Z</time>
      </trkpt>
      <trkpt lat="46.38421" lon="5.69688">
        <ele>634.6</ele>
        <time>2022-02-28T13:53:33Z</time>
      </trkpt>
      <trkpt lat="46.38423" lon="5.6969">
        <ele>634.8</ele>
        <time>2022-02-28T13:53:34Z</time>
      </trkpt>
      <trkpt lat="46.38424" lon="5.69692">
        <ele>634.8</ele>
        <time>2022-02-28T13:53:35Z</time>
      </trkpt>
      <trkpt lat="46.38426" lon="5.69693">
        <ele>635.2</ele>
        <time>2022-02-28T13:53:36Z</time>
      </trkpt>
      <trkpt lat="46.38428" lon="5.69695">
        <ele>635.2</ele>
        <time>2022-02-28T13:53:37Z</time>
      </trkpt>
      <trkpt lat="46.38429" lon="5.69697">
        <ele>635.4</ele>
        <time>2022-02-28T13:53:38Z</time>
      </trkpt>
      <trkpt lat="46.38431" lon="5.69698">
        <ele>635.4</ele>
        <time>2022-02-28T13:53:39Z</time>
      </trkpt>
      <trkpt lat="46.38433" lon="5.697">
        <ele>635.8</ele>
        <time>2022-02-28T13:53:40Z</time>
      </trkpt>
      <trkpt lat="46.38435" lon="5.69701">
        <ele>636</ele>
        <time>2022-02-28T13:53:41Z</time>
      </trkpt>
      <trkpt lat="46.38436" lon="5.69702">
        <ele>636.4</ele>
        <time>2022-02-28T13:53:42Z</time>
      </trkpt>
      <trkpt lat="46.38438" lon="5.69704">
        <ele>636.6</ele>
        <time>2022-02-28T13:53:43Z</time>
      </trkpt>
      <trkpt lat="46.3844" lon="5.69705">
        <ele>636.6</ele>
        <time>2022-02-28T13:53:44Z</time>
      </trkpt>
      <trkpt lat="46.38442" lon="5.69707">
        <ele>637</ele>
        <time>2022-02-28T13:53:45Z</time>
      </trkpt>
      <trkpt lat="46.38444" lon="5.69709">
        <ele>637.2</ele>
        <time>2022-02-28T13:53:46Z</time>
      </trkpt>
      <trkpt lat="46.38445" lon="5.69711">
        <ele>637.4</ele>
        <time>2022-02-28T13:53:47Z</time>
      </trkpt>
      <trkpt lat="46.38447" lon="5.69713">
        <ele>637.4</ele>
        <time>2022-02-28T13:53:48Z</time>
      </trkpt>
      <trkpt lat="46.38449" lon="5.69715">
        <ele>637.8</ele>
        <time>2022-02-28T13:53:49Z</time>
      </trkpt>
      <trkpt lat="46.38451" lon="5.69716">
        <ele>638</ele>
        <time>2022-02-28T13:53:50Z</time>
      </trkpt>
      <trkpt lat="46.38453" lon="5.69718">
        <ele>638</ele>
        <time>2022-02-28T13:53:51Z</time>
      </trkpt>
      <trkpt lat="46.38455" lon="5.6972">
        <ele>638.2</ele>
        <time>2022-02-28T13:53:52Z</time>
      </trkpt>
      <trkpt lat="46.38457" lon="5.69722">
        <ele>638.2</ele>
        <time>2022-02-28T13:53:53Z</time>
      </trkpt>
      <trkpt lat="46.38459" lon="5.69724">
        <ele>638.6</ele>
        <time>2022-02-28T13:53:54Z</time>
      </trkpt>
      <trkpt lat="46.38461" lon="5.69726">
        <ele>638.8</ele>
        <time>2022-02-28T13:53:55Z</time>
      </trkpt>
      <trkpt lat="46.38463" lon="5.69728">
        <ele>638.8</ele>
        <time>2022-02-28T13:53:56Z</time>
      </trkpt>
      <trkpt lat="46.38465" lon="5.6973">
        <ele>639.2</ele>
        <time>2022-02-28T13:53:57Z</time>
      </trkpt>
      <trkpt lat="46.38467" lon="5.69732">
        <ele>639.4</ele>
        <time>2022-02-28T13:53:58Z</time>
      </trkpt>
      <trkpt lat="46.38469" lon="5.69734">
        <ele>639.4</ele>
        <time>2022-02-28T13:53:59Z</time>
      </trkpt>
      <trkpt lat="46.3847" lon="5.69736">
        <ele>639.6</ele>
        <time>2022-02-28T13:54:00Z</time>
      </trkpt>
      <trkpt lat="46.38472" lon="5.69737">
        <ele>639.6</ele>
        <time>2022-02-28T13:54:01Z</time>
      </trkpt>
      <trkpt lat="46.38475" lon="5.69738">
        <ele>640</ele>
        <time>2022-02-28T13:54:02Z</time>
      </trkpt>
      <trkpt lat="46.38477" lon="5.69739">
        <ele>640.2</ele>
        <time>2022-02-28T13:54:03Z</time>
      </trkpt>
      <trkpt lat="46.38478" lon="5.6974">
        <ele>640.6</ele>
        <time>2022-02-28T13:54:04Z</time>
      </trkpt>
      <trkpt lat="46.3848" lon="5.69742">
        <ele>640.8</ele>
        <time>2022-02-28T13:54:05Z</time>
      </trkpt>
      <trkpt lat="46.38482" lon="5.69744">
        <ele>640.8</ele>
        <time>2022-02-28T13:54:06Z</time>
      </trkpt>
      <trkpt lat="46.38483" lon="5.69746">
        <ele>641</ele>
        <time>2022-02-28T13:54:07Z</time>
      </trkpt>
      <trkpt lat="46.38485" lon="5.69747">
        <ele>641</ele>
        <time>2022-02-28T13:54:08Z</time>
      </trkpt>
      <trkpt lat="46.38487" lon="5.69748">
        <ele>641.4</ele>
        <time>2022-02-28T13:54:09Z</time>
      </trkpt>
      <trkpt lat="46.38489" lon="5.6975">
        <ele>641.4</ele>
        <time>2022-02-28T13:54:10Z</time>
      </trkpt>
      <trkpt lat="46.3849" lon="5.69751">
        <ele>641.6</ele>
        <time>2022-02-28T13:54:11Z</time>
      </trkpt>
      <trkpt lat="46.38492" lon="5.69753">
        <ele>641.6</ele>
        <time>2022-02-28T13:54:12Z</time>
      </trkpt>
      <trkpt lat="46.38494" lon="5.69754">
        <ele>642</ele>
        <time>2022-02-28T13:54:13Z</time>
      </trkpt>
      <trkpt lat="46.38496" lon="5.69755">
        <ele>642</ele>
        <time>2022-02-28T13:54:14Z</time>
      </trkpt>
      <trkpt lat="46.38497" lon="5.69757">
        <ele>642.2</ele>
        <time>2022-02-28T13:54:15Z</time>
      </trkpt>
      <trkpt lat="46.38499" lon="5.69758">
        <ele>642.4</ele>
        <time>2022-02-28T13:54:16Z</time>
      </trkpt>
      <trkpt lat="46.385" lon="5.6976">
        <ele>642.4</ele>
        <time>2022-02-28T13:54:17Z</time>
      </trkpt>
      <trkpt lat="46.38502" lon="5.69761">
        <ele>642.8</ele>
        <time>2022-02-28T13:54:18Z</time>
      </trkpt>
      <trkpt lat="46.38504" lon="5.69762">
        <ele>642.8</ele>
        <time>2022-02-28T13:54:19Z</time>
      </trkpt>
      <trkpt lat="46.38505" lon="5.69764">
        <ele>643</ele>
        <time>2022-02-28T13:54:20Z</time>
      </trkpt>
      <trkpt lat="46.38507" lon="5.69765">
        <ele>643</ele>
        <time>2022-02-28T13:54:21Z</time>
      </trkpt>
      <trkpt lat="46.38509" lon="5.69767">
        <ele>643.4</ele>
        <time>2022-02-28T13:54:22Z</time>
      </trkpt>
      <trkpt lat="46.3851" lon="5.69768">
        <ele>643.6</ele>
        <time>2022-02-28T13:54:23Z</time>
      </trkpt>
      <trkpt lat="46.38512" lon="5.6977">
        <ele>643.8</ele>
        <time>2022-02-28T13:54:24Z</time>
      </trkpt>
      <trkpt lat="46.38513" lon="5.69771">
        <ele>644</ele>
        <time>2022-02-28T13:54:25Z</time>
      </trkpt>
      <trkpt lat="46.38515" lon="5.69773">
        <ele>644.4</ele>
        <time>2022-02-28T13:54:26Z</time>
      </trkpt>
      <trkpt lat="46.38517" lon="5.69774">
        <ele>644.6</ele>
        <time>2022-02-28T13:54:27Z</time>
      </trkpt>
      <trkpt lat="46.38519" lon="5.69776">
        <ele>645</ele>
        <time>2022-02-28T13:54:28Z</time>
      </trkpt>
      <trkpt lat="46.38521" lon="5.69778">
        <ele>645.2</ele>
        <time>2022-02-28T13:54:29Z</time>
      </trkpt>
      <trkpt lat="46.38524" lon="5.69779">
        <ele>645.4</ele>
        <time>2022-02-28T13:54:30Z</time>
      </trkpt>
      <trkpt lat="46.38526" lon="5.6978">
        <ele>645.6</ele>
        <time>2022-02-28T13:54:31Z</time>
      </trkpt>
      <trkpt lat="46.38528" lon="5.69782">
        <ele>646</ele>
        <time>2022-02-28T13:54:32Z</time>
      </trkpt>
      <trkpt lat="46.38531" lon="5.69783">
        <ele>646.2</ele>
        <time>2022-02-28T13:54:33Z</time>
      </trkpt>
      <trkpt lat="46.38533" lon="5.69784">
        <ele>646.4</ele>
        <time>2022-02-28T13:54:34Z</time>
      </trkpt>
      <trkpt lat="46.38535" lon="5.69785">
        <ele>646.4</ele>
        <time>2022-02-28T13:54:35Z</time>
      </trkpt>
      <trkpt lat="46.38537" lon="5.69786">
        <ele>646.8</ele>
        <time>2022-02-28T13:54:36Z</time>
      </trkpt>
      <trkpt lat="46.3854" lon="5.69786">
        <ele>646.8</ele>
        <time>2022-02-28T13:54:37Z</time>
      </trkpt>
      <trkpt lat="46.38542" lon="5.69787">
        <ele>647.2</ele>
        <time>2022-02-28T13:54:38Z</time>
      </trkpt>
      <trkpt lat="46.38545" lon="5.69787">
        <ele>647.4</ele>
        <time>2022-02-28T13:54:39Z</time>
      </trkpt>
      <trkpt lat="46.38547" lon="5.69788">
        <ele>647.4</ele>
        <time>2022-02-28T13:54:40Z</time>
      </trkpt>
      <trkpt lat="46.3855" lon="5.69789">
        <ele>647.8</ele>
        <time>2022-02-28T13:54:41Z</time>
      </trkpt>
      <trkpt lat="46.38552" lon="5.69789">
        <ele>647.8</ele>
        <time>2022-02-28T13:54:42Z</time>
      </trkpt>
      <trkpt lat="46.38555" lon="5.6979">
        <ele>648</ele>
        <time>2022-02-28T13:54:43Z</time>
      </trkpt>
      <trkpt lat="46.38557" lon="5.69791">
        <ele>648</ele>
        <time>2022-02-28T13:54:44Z</time>
      </trkpt>
      <trkpt lat="46.3856" lon="5.69791">
        <ele>648.4</ele>
        <time>2022-02-28T13:54:45Z</time>
      </trkpt>
      <trkpt lat="46.38562" lon="5.69791">
        <ele>648.4</ele>
        <time>2022-02-28T13:54:46Z</time>
      </trkpt>
      <trkpt lat="46.38565" lon="5.69791">
        <ele>648.6</ele>
        <time>2022-02-28T13:54:47Z</time>
      </trkpt>
      <trkpt lat="46.38567" lon="5.6979">
        <ele>648.6</ele>
        <time>2022-02-28T13:54:48Z</time>
      </trkpt>
      <trkpt lat="46.3857" lon="5.6979">
        <ele>648.8</ele>
        <time>2022-02-28T13:54:49Z</time>
      </trkpt>
      <trkpt lat="46.38573" lon="5.6979">
        <ele>648.8</ele>
        <time>2022-02-28T13:54:50Z</time>
      </trkpt>
      <trkpt lat="46.38576" lon="5.69789">
        <ele>649.2</ele>
        <time>2022-02-28T13:54:51Z</time>
      </trkpt>
      <trkpt lat="46.38579" lon="5.69789">
        <ele>649.2</ele>
        <time>2022-02-28T13:54:52Z</time>
      </trkpt>
      <trkpt lat="46.38581" lon="5.69789">
        <ele>649.4</ele>
        <time>2022-02-28T13:54:53Z</time>
      </trkpt>
      <trkpt lat="46.38581" lon="5.69789">
        <ele>649.4</ele>
        <time>2022-02-28T13:54:54Z</time>
      </trkpt>
      <trkpt lat="46.38584" lon="5.69789">
        <ele>649.8</ele>
        <time>2022-02-28T13:54:55Z</time>
      </trkpt>
      <trkpt lat="46.38587" lon="5.69788">
        <ele>649.8</ele>
        <time>2022-02-28T13:54:56Z</time>
      </trkpt>
      <trkpt lat="46.3859" lon="5.69788">
        <ele>650</ele>
        <time>2022-02-28T13:54:57Z</time>
      </trkpt>
      <trkpt lat="46.38593" lon="5.69788">
        <ele>650</ele>
        <time>2022-02-28T13:54:58Z</time>
      </trkpt>
      <trkpt lat="46.38596" lon="5.69787">
        <ele>650.4</ele>
        <time>2022-02-28T13:54:59Z</time>
      </trkpt>
      <trkpt lat="46.38598" lon="5.69787">
        <ele>650.4</ele>
        <time>2022-02-28T13:55:00Z</time>
      </trkpt>
      <trkpt lat="46.38601" lon="5.69787">
        <ele>650.8</ele>
        <time>2022-02-28T13:55:01Z</time>
      </trkpt>
      <trkpt lat="46.38604" lon="5.69786">
        <ele>650.8</ele>
        <time>2022-02-28T13:55:02Z</time>
      </trkpt>
      <trkpt lat="46.38607" lon="5.69786">
        <ele>651</ele>
        <time>2022-02-28T13:55:03Z</time>
      </trkpt>
      <trkpt lat="46.38609" lon="5.69786">
        <ele>651</ele>
        <time>2022-02-28T13:55:04Z</time>
      </trkpt>
      <trkpt lat="46.38612" lon="5.69786">
        <ele>651.2</ele>
        <time>2022-02-28T13:55:05Z</time>
      </trkpt>
      <trkpt lat="46.38615" lon="5.69785">
        <ele>651.2</ele>
        <time>2022-02-28T13:55:06Z</time>
      </trkpt>
      <trkpt lat="46.38617" lon="5.69785">
        <ele>651.4</ele>
        <time>2022-02-28T13:55:07Z</time>
      </trkpt>
      <trkpt lat="46.3862" lon="5.69785">
        <ele>651.4</ele>
        <time>2022-02-28T13:55:08Z</time>
      </trkpt>
      <trkpt lat="46.38623" lon="5.69785">
        <ele>651.8</ele>
        <time>2022-02-28T13:55:09Z</time>
      </trkpt>
      <trkpt lat="46.38626" lon="5.69785">
        <ele>652</ele>
        <time>2022-02-28T13:55:10Z</time>
      </trkpt>
      <trkpt lat="46.38628" lon="5.69784">
        <ele>652.2</ele>
        <time>2022-02-28T13:55:11Z</time>
      </trkpt>
      <trkpt lat="46.38631" lon="5.69784">
        <ele>652.2</ele>
        <time>2022-02-28T13:55:12Z</time>
      </trkpt>
      <trkpt lat="46.38634" lon="5.69784">
        <ele>652.6</ele>
        <time>2022-02-28T13:55:13Z</time>
      </trkpt>
      <trkpt lat="46.38636" lon="5.69784">
        <ele>652.6</ele>
        <time>2022-02-28T13:55:14Z</time>
      </trkpt>
      <trkpt lat="46.38639" lon="5.69784">
        <ele>653</ele>
        <time>2022-02-28T13:55:15Z</time>
      </trkpt>
      <trkpt lat="46.38642" lon="5.69784">
        <ele>653.4</ele>
        <time>2022-02-28T13:55:16Z</time>
      </trkpt>
      <trkpt lat="46.38647" lon="5.69785">
        <ele>653.6</ele>
        <time>2022-02-28T13:55:17Z</time>
      </trkpt>
      <trkpt lat="46.38649" lon="5.69786">
        <ele>653.8</ele>
        <time>2022-02-28T13:55:18Z</time>
      </trkpt>
      <trkpt lat="46.38649" lon="5.69786">
        <ele>653.8</ele>
        <time>2022-02-28T13:55:19Z</time>
      </trkpt>
      <trkpt lat="46.38652" lon="5.69787">
        <ele>653.8</ele>
        <time>2022-02-28T13:55:20Z</time>
      </trkpt>
      <trkpt lat="46.38654" lon="5.69788">
        <ele>654.2</ele>
        <time>2022-02-28T13:55:21Z</time>
      </trkpt>
      <trkpt lat="46.38657" lon="5.69789">
        <ele>654.2</ele>
        <time>2022-02-28T13:55:22Z</time>
      </trkpt>
      <trkpt lat="46.3866" lon="5.69789">
        <ele>654.6</ele>
        <time>2022-02-28T13:55:23Z</time>
      </trkpt>
      <trkpt lat="46.38663" lon="5.6979">
        <ele>654.6</ele>
        <time>2022-02-28T13:55:24Z</time>
      </trkpt>
      <trkpt lat="46.38665" lon="5.69791">
        <ele>654.8</ele>
        <time>2022-02-28T13:55:25Z</time>
      </trkpt>
      <trkpt lat="46.38668" lon="5.69792">
        <ele>655</ele>
        <time>2022-02-28T13:55:26Z</time>
      </trkpt>
      <trkpt lat="46.3867" lon="5.69793">
        <ele>655.2</ele>
        <time>2022-02-28T13:55:27Z</time>
      </trkpt>
      <trkpt lat="46.38673" lon="5.69794">
        <ele>655.6</ele>
        <time>2022-02-28T13:55:28Z</time>
      </trkpt>
      <trkpt lat="46.38675" lon="5.69795">
        <ele>655.8</ele>
        <time>2022-02-28T13:55:29Z</time>
      </trkpt>
      <trkpt lat="46.38678" lon="5.69797">
        <ele>656</ele>
        <time>2022-02-28T13:55:30Z</time>
      </trkpt>
      <trkpt lat="46.3868" lon="5.69798">
        <ele>656</ele>
        <time>2022-02-28T13:55:31Z</time>
      </trkpt>
      <trkpt lat="46.38683" lon="5.69799">
        <ele>656.2</ele>
        <time>2022-02-28T13:55:32Z</time>
      </trkpt>
      <trkpt lat="46.38685" lon="5.698">
        <ele>656.2</ele>
        <time>2022-02-28T13:55:33Z</time>
      </trkpt>
      <trkpt lat="46.38688" lon="5.69802">
        <ele>656.6</ele>
        <time>2022-02-28T13:55:34Z</time>
      </trkpt>
      <trkpt lat="46.3869" lon="5.69803">
        <ele>656.8</ele>
        <time>2022-02-28T13:55:35Z</time>
      </trkpt>
      <trkpt lat="46.38693" lon="5.69805">
        <ele>657</ele>
        <time>2022-02-28T13:55:36Z</time>
      </trkpt>
      <trkpt lat="46.38695" lon="5.69807">
        <ele>657</ele>
        <time>2022-02-28T13:55:37Z</time>
      </trkpt>
      <trkpt lat="46.38697" lon="5.69808">
        <ele>657.4</ele>
        <time>2022-02-28T13:55:38Z</time>
      </trkpt>
      <trkpt lat="46.387" lon="5.6981">
        <ele>657.6</ele>
        <time>2022-02-28T13:55:39Z</time>
      </trkpt>
      <trkpt lat="46.38702" lon="5.69811">
        <ele>657.6</ele>
        <time>2022-02-28T13:55:40Z</time>
      </trkpt>
      <trkpt lat="46.38704" lon="5.69813">
        <ele>658</ele>
        <time>2022-02-28T13:55:41Z</time>
      </trkpt>
      <trkpt lat="46.38706" lon="5.69815">
        <ele>658.2</ele>
        <time>2022-02-28T13:55:42Z</time>
      </trkpt>
      <trkpt lat="46.38708" lon="5.69818">
        <ele>658.4</ele>
        <time>2022-02-28T13:55:43Z</time>
      </trkpt>
      <trkpt lat="46.3871" lon="5.69821">
        <ele>658.4</ele>
        <time>2022-02-28T13:55:44Z</time>
      </trkpt>
      <trkpt lat="46.38711" lon="5.69823">
        <ele>658.8</ele>
        <time>2022-02-28T13:55:45Z</time>
      </trkpt>
      <trkpt lat="46.38713" lon="5.69826">
        <ele>659</ele>
        <time>2022-02-28T13:55:46Z</time>
      </trkpt>
      <trkpt lat="46.38714" lon="5.69829">
        <ele>659.2</ele>
        <time>2022-02-28T13:55:47Z</time>
      </trkpt>
      <trkpt lat="46.38716" lon="5.69832">
        <ele>659.2</ele>
        <time>2022-02-28T13:55:48Z</time>
      </trkpt>
      <trkpt lat="46.38718" lon="5.69834">
        <ele>659.6</ele>
        <time>2022-02-28T13:55:49Z</time>
      </trkpt>
      <trkpt lat="46.38719" lon="5.69837">
        <ele>659.6</ele>
        <time>2022-02-28T13:55:50Z</time>
      </trkpt>
      <trkpt lat="46.38721" lon="5.69839">
        <ele>660</ele>
        <time>2022-02-28T13:55:51Z</time>
      </trkpt>
      <trkpt lat="46.38723" lon="5.69841">
        <ele>660</ele>
        <time>2022-02-28T13:55:52Z</time>
      </trkpt>
      <trkpt lat="46.38725" lon="5.69843">
        <ele>660.4</ele>
        <time>2022-02-28T13:55:53Z</time>
      </trkpt>
      <trkpt lat="46.38727" lon="5.69845">
        <ele>660.4</ele>
        <time>2022-02-28T13:55:54Z</time>
      </trkpt>
      <trkpt lat="46.38729" lon="5.69846">
        <ele>660.8</ele>
        <time>2022-02-28T13:55:55Z</time>
      </trkpt>
      <trkpt lat="46.38731" lon="5.69848">
        <ele>660.8</ele>
        <time>2022-02-28T13:55:56Z</time>
      </trkpt>
      <trkpt lat="46.38733" lon="5.6985">
        <ele>661.2</ele>
        <time>2022-02-28T13:55:57Z</time>
      </trkpt>
      <trkpt lat="46.38735" lon="5.69851">
        <ele>661.2</ele>
        <time>2022-02-28T13:55:58Z</time>
      </trkpt>
      <trkpt lat="46.38737" lon="5.69853">
        <ele>661.6</ele>
        <time>2022-02-28T13:55:59Z</time>
      </trkpt>
      <trkpt lat="46.38739" lon="5.69855">
        <ele>661.6</ele>
        <time>2022-02-28T13:56:00Z</time>
      </trkpt>
      <trkpt lat="46.38741" lon="5.69856">
        <ele>662</ele>
        <time>2022-02-28T13:56:01Z</time>
      </trkpt>
      <trkpt lat="46.38742" lon="5.69858">
        <ele>662.2</ele>
        <time>2022-02-28T13:56:02Z</time>
      </trkpt>
      <trkpt lat="46.38744" lon="5.69859">
        <ele>662.2</ele>
        <time>2022-02-28T13:56:03Z</time>
      </trkpt>
      <trkpt lat="46.38746" lon="5.69861">
        <ele>662.4</ele>
        <time>2022-02-28T13:56:04Z</time>
      </trkpt>
      <trkpt lat="46.38748" lon="5.69862">
        <ele>662.6</ele>
        <time>2022-02-28T13:56:05Z</time>
      </trkpt>
      <trkpt lat="46.38749" lon="5.69863">
        <ele>662.6</ele>
        <time>2022-02-28T13:56:06Z</time>
      </trkpt>
      <trkpt lat="46.38751" lon="5.69865">
        <ele>663</ele>
        <time>2022-02-28T13:56:07Z</time>
      </trkpt>
      <trkpt lat="46.38752" lon="5.69866">
        <ele>663.2</ele>
        <time>2022-02-28T13:56:08Z</time>
      </trkpt>
      <trkpt lat="46.38754" lon="5.69867">
        <ele>663.2</ele>
        <time>2022-02-28T13:56:09Z</time>
      </trkpt>
      <trkpt lat="46.38756" lon="5.69869">
        <ele>663.4</ele>
        <time>2022-02-28T13:56:10Z</time>
      </trkpt>
      <trkpt lat="46.38757" lon="5.6987">
        <ele>663.4</ele>
        <time>2022-02-28T13:56:11Z</time>
      </trkpt>
      <trkpt lat="46.38759" lon="5.69871">
        <ele>663.8</ele>
        <time>2022-02-28T13:56:12Z</time>
      </trkpt>
      <trkpt lat="46.38761" lon="5.69872">
        <ele>664.2</ele>
        <time>2022-02-28T13:56:13Z</time>
      </trkpt>
      <trkpt lat="46.38762" lon="5.69873">
        <ele>664.2</ele>
        <time>2022-02-28T13:56:14Z</time>
      </trkpt>
      <trkpt lat="46.38764" lon="5.69874">
        <ele>664.6</ele>
        <time>2022-02-28T13:56:15Z</time>
      </trkpt>
      <trkpt lat="46.38766" lon="5.69875">
        <ele>664.6</ele>
        <time>2022-02-28T13:56:16Z</time>
      </trkpt>
      <trkpt lat="46.38768" lon="5.69876">
        <ele>664.8</ele>
        <time>2022-02-28T13:56:17Z</time>
      </trkpt>
      <trkpt lat="46.3877" lon="5.69878">
        <ele>664.8</ele>
        <time>2022-02-28T13:56:18Z</time>
      </trkpt>
      <trkpt lat="46.38771" lon="5.6988">
        <ele>665.2</ele>
        <time>2022-02-28T13:56:19Z</time>
      </trkpt>
      <trkpt lat="46.38773" lon="5.69881">
        <ele>665.2</ele>
        <time>2022-02-28T13:56:20Z</time>
      </trkpt>
      <trkpt lat="46.38775" lon="5.69883">
        <ele>665.4</ele>
        <time>2022-02-28T13:56:21Z</time>
      </trkpt>
      <trkpt lat="46.38777" lon="5.69885">
        <ele>665.4</ele>
        <time>2022-02-28T13:56:22Z</time>
      </trkpt>
      <trkpt lat="46.38779" lon="5.69886">
        <ele>665.8</ele>
        <time>2022-02-28T13:56:23Z</time>
      </trkpt>
      <trkpt lat="46.38782" lon="5.69887">
        <ele>666</ele>
        <time>2022-02-28T13:56:24Z</time>
      </trkpt>
      <trkpt lat="46.38784" lon="5.69889">
        <ele>666</ele>
        <time>2022-02-28T13:56:25Z</time>
      </trkpt>
      <trkpt lat="46.38786" lon="5.6989">
        <ele>666.2</ele>
        <time>2022-02-28T13:56:26Z</time>
      </trkpt>
      <trkpt lat="46.38787" lon="5.69892">
        <ele>666.2</ele>
        <time>2022-02-28T13:56:27Z</time>
      </trkpt>
      <trkpt lat="46.38789" lon="5.69893">
        <ele>666.4</ele>
        <time>2022-02-28T13:56:28Z</time>
      </trkpt>
      <trkpt lat="46.38792" lon="5.69894">
        <ele>666.4</ele>
        <time>2022-02-28T13:56:29Z</time>
      </trkpt>
      <trkpt lat="46.38794" lon="5.69896">
        <ele>666.6</ele>
        <time>2022-02-28T13:56:30Z</time>
      </trkpt>
      <trkpt lat="46.38796" lon="5.69897">
        <ele>666.6</ele>
        <time>2022-02-28T13:56:31Z</time>
      </trkpt>
      <trkpt lat="46.38798" lon="5.69899">
        <ele>667</ele>
        <time>2022-02-28T13:56:32Z</time>
      </trkpt>
      <trkpt lat="46.388" lon="5.699">
        <ele>667</ele>
        <time>2022-02-28T13:56:33Z</time>
      </trkpt>
      <trkpt lat="46.38803" lon="5.69902">
        <ele>667</ele>
        <time>2022-02-28T13:56:34Z</time>
      </trkpt>
      <trkpt lat="46.38805" lon="5.69904">
        <ele>667.2</ele>
        <time>2022-02-28T13:56:35Z</time>
      </trkpt>
      <trkpt lat="46.38807" lon="5.69907">
        <ele>667.2</ele>
        <time>2022-02-28T13:56:36Z</time>
      </trkpt>
      <trkpt lat="46.38809" lon="5.69909">
        <ele>667.4</ele>
        <time>2022-02-28T13:56:37Z</time>
      </trkpt>
      <trkpt lat="46.38811" lon="5.69912">
        <ele>667.4</ele>
        <time>2022-02-28T13:56:38Z</time>
      </trkpt>
      <trkpt lat="46.38814" lon="5.69914">
        <ele>667.4</ele>
        <time>2022-02-28T13:56:39Z</time>
      </trkpt>
      <trkpt lat="46.38816" lon="5.69917">
        <ele>667.6</ele>
        <time>2022-02-28T13:56:40Z</time>
      </trkpt>
      <trkpt lat="46.38818" lon="5.6992">
        <ele>667.6</ele>
        <time>2022-02-28T13:56:41Z</time>
      </trkpt>
      <trkpt lat="46.38821" lon="5.69922">
        <ele>667.6</ele>
        <time>2022-02-28T13:56:42Z</time>
      </trkpt>
      <trkpt lat="46.38824" lon="5.69925">
        <ele>667.8</ele>
        <time>2022-02-28T13:56:43Z</time>
      </trkpt>
      <trkpt lat="46.38827" lon="5.69927">
        <ele>667.8</ele>
        <time>2022-02-28T13:56:44Z</time>
      </trkpt>
      <trkpt lat="46.3883" lon="5.69929">
        <ele>667.8</ele>
        <time>2022-02-28T13:56:45Z</time>
      </trkpt>
      <trkpt lat="46.38833" lon="5.6993">
        <ele>667.8</ele>
        <time>2022-02-28T13:56:46Z</time>
      </trkpt>
      <trkpt lat="46.38836" lon="5.6993">
        <ele>667.8</ele>
        <time>2022-02-28T13:56:47Z</time>
      </trkpt>
      <trkpt lat="46.38839" lon="5.6993">
        <ele>668.2</ele>
        <time>2022-02-28T13:56:48Z</time>
      </trkpt>
      <trkpt lat="46.38841" lon="5.69929">
        <ele>668.2</ele>
        <time>2022-02-28T13:56:49Z</time>
      </trkpt>
      <trkpt lat="46.38844" lon="5.69928">
        <ele>668.2</ele>
        <time>2022-02-28T13:56:50Z</time>
      </trkpt>
      <trkpt lat="46.38847" lon="5.69927">
        <ele>668.4</ele>
        <time>2022-02-28T13:56:51Z</time>
      </trkpt>
      <trkpt lat="46.38849" lon="5.69925">
        <ele>668.4</ele>
        <time>2022-02-28T13:56:52Z</time>
      </trkpt>
      <trkpt lat="46.38852" lon="5.69924">
        <ele>668.4</ele>
        <time>2022-02-28T13:56:53Z</time>
      </trkpt>
      <trkpt lat="46.38854" lon="5.69923">
        <ele>668.6</ele>
        <time>2022-02-28T13:56:54Z</time>
      </trkpt>
      <trkpt lat="46.38856" lon="5.69923">
        <ele>668.6</ele>
        <time>2022-02-28T13:56:55Z</time>
      </trkpt>
      <trkpt lat="46.38858" lon="5.69923">
        <ele>668.6</ele>
        <time>2022-02-28T13:56:56Z</time>
      </trkpt>
      <trkpt lat="46.38861" lon="5.69923">
        <ele>669</ele>
        <time>2022-02-28T13:56:57Z</time>
      </trkpt>
      <trkpt lat="46.38861" lon="5.69923">
        <ele>669</ele>
        <time>2022-02-28T13:56:58Z</time>
      </trkpt>
      <trkpt lat="46.38862" lon="5.69923">
        <ele>669</ele>
        <time>2022-02-28T13:56:59Z</time>
      </trkpt>
      <trkpt lat="46.38862" lon="5.69923">
        <ele>669</ele>
        <time>2022-02-28T13:57:00Z</time>
      </trkpt>
      <trkpt lat="46.38862" lon="5.69923">
        <ele>669</ele>
        <time>2022-02-28T13:57:01Z</time>
      </trkpt>
      <trkpt lat="46.38863" lon="5.69923">
        <ele>669</ele>
        <time>2022-02-28T13:57:02Z</time>
      </trkpt>
      <trkpt lat="46.38863" lon="5.69923">
        <ele>669</ele>
        <time>2022-02-28T13:57:04Z</time>
      </trkpt>
      <trkpt lat="46.38864" lon="5.69923">
        <ele>669</ele>
        <time>2022-02-28T13:57:05Z</time>
      </trkpt>
      <trkpt lat="46.38864" lon="5.69923">
        <ele>669</ele>
        <time>2022-02-28T13:57:06Z</time>
      </trkpt>
      <trkpt lat="46.38865" lon="5.69923">
        <ele>669</ele>
        <time>2022-02-28T13:57:07Z</time>
      </trkpt>
      <trkpt lat="46.38865" lon="5.69923">
        <ele>669</ele>
        <time>2022-02-28T13:57:08Z</time>
      </trkpt>
      <trkpt lat="46.38865" lon="5.69923">
        <ele>669.2</ele>
        <time>2022-02-28T13:57:09Z</time>
      </trkpt>
      <trkpt lat="46.38866" lon="5.69923">
        <ele>669.2</ele>
        <time>2022-02-28T13:57:10Z</time>
      </trkpt>
      <trkpt lat="46.38866" lon="5.69923">
        <ele>669.2</ele>
        <time>2022-02-28T13:57:11Z</time>
      </trkpt>
      <trkpt lat="46.38867" lon="5.69923">
        <ele>669.2</ele>
        <time>2022-02-28T13:57:12Z</time>
      </trkpt>
      <trkpt lat="46.38867" lon="5.69923">
        <ele>669.2</ele>
        <time>2022-02-28T13:57:13Z</time>
      </trkpt>
      <trkpt lat="46.38868" lon="5.69923">
        <ele>669.2</ele>
        <time>2022-02-28T13:57:14Z</time>
      </trkpt>
      <trkpt lat="46.38868" lon="5.69923">
        <ele>669.2</ele>
        <time>2022-02-28T13:57:15Z</time>
      </trkpt>
      <trkpt lat="46.3887" lon="5.69923">
        <ele>669.2</ele>
        <time>2022-02-28T13:57:16Z</time>
      </trkpt>
      <trkpt lat="46.38872" lon="5.69923">
        <ele>669.2</ele>
        <time>2022-02-28T13:57:17Z</time>
      </trkpt>
      <trkpt lat="46.38874" lon="5.69923">
        <ele>669.2</ele>
        <time>2022-02-28T13:57:18Z</time>
      </trkpt>
      <trkpt lat="46.38877" lon="5.69922">
        <ele>669.2</ele>
        <time>2022-02-28T13:57:19Z</time>
      </trkpt>
      <trkpt lat="46.38879" lon="5.69921">
        <ele>669.2</ele>
        <time>2022-02-28T13:57:20Z</time>
      </trkpt>
      <trkpt lat="46.38882" lon="5.69921">
        <ele>669.4</ele>
        <time>2022-02-28T13:57:21Z</time>
      </trkpt>
      <trkpt lat="46.38885" lon="5.6992">
        <ele>669.4</ele>
        <time>2022-02-28T13:57:22Z</time>
      </trkpt>
      <trkpt lat="46.38887" lon="5.6992">
        <ele>669.4</ele>
        <time>2022-02-28T13:57:23Z</time>
      </trkpt>
      <trkpt lat="46.38889" lon="5.69919">
        <ele>669.8</ele>
        <time>2022-02-28T13:57:24Z</time>
      </trkpt>
      <trkpt lat="46.38892" lon="5.69919">
        <ele>669.8</ele>
        <time>2022-02-28T13:57:25Z</time>
      </trkpt>
      <trkpt lat="46.38894" lon="5.69919">
        <ele>669.8</ele>
        <time>2022-02-28T13:57:26Z</time>
      </trkpt>
      <trkpt lat="46.38897" lon="5.69918">
        <ele>669.8</ele>
        <time>2022-02-28T13:57:27Z</time>
      </trkpt>
      <trkpt lat="46.38899" lon="5.69918">
        <ele>669.8</ele>
        <time>2022-02-28T13:57:28Z</time>
      </trkpt>
      <trkpt lat="46.38902" lon="5.69918">
        <ele>669.8</ele>
        <time>2022-02-28T13:57:29Z</time>
      </trkpt>
      <trkpt lat="46.38905" lon="5.69917">
        <ele>670</ele>
        <time>2022-02-28T13:57:30Z</time>
      </trkpt>
      <trkpt lat="46.38908" lon="5.69916">
        <ele>670</ele>
        <time>2022-02-28T13:57:31Z</time>
      </trkpt>
      <trkpt lat="46.38911" lon="5.69915">
        <ele>670</ele>
        <time>2022-02-28T13:57:32Z</time>
      </trkpt>
      <trkpt lat="46.38915" lon="5.69915">
        <ele>670</ele>
        <time>2022-02-28T13:57:33Z</time>
      </trkpt>
      <trkpt lat="46.38918" lon="5.69915">
        <ele>670.2</ele>
        <time>2022-02-28T13:57:34Z</time>
      </trkpt>
      <trkpt lat="46.38922" lon="5.69914">
        <ele>670.2</ele>
        <time>2022-02-28T13:57:35Z</time>
      </trkpt>
      <trkpt lat="46.38925" lon="5.69913">
        <ele>670.2</ele>
        <time>2022-02-28T13:57:36Z</time>
      </trkpt>
      <trkpt lat="46.38929" lon="5.69912">
        <ele>670.6</ele>
        <time>2022-02-28T13:57:37Z</time>
      </trkpt>
      <trkpt lat="46.38932" lon="5.69911">
        <ele>670.6</ele>
        <time>2022-02-28T13:57:38Z</time>
      </trkpt>
      <trkpt lat="46.38936" lon="5.6991">
        <ele>670.6</ele>
        <time>2022-02-28T13:57:39Z</time>
      </trkpt>
      <trkpt lat="46.38939" lon="5.6991">
        <ele>670.8</ele>
        <time>2022-02-28T13:57:40Z</time>
      </trkpt>
      <trkpt lat="46.38943" lon="5.6991">
        <ele>670.8</ele>
        <time>2022-02-28T13:57:41Z</time>
      </trkpt>
      <trkpt lat="46.38947" lon="5.69909">
        <ele>671.2</ele>
        <time>2022-02-28T13:57:42Z</time>
      </trkpt>
      <trkpt lat="46.38951" lon="5.69909">
        <ele>671.2</ele>
        <time>2022-02-28T13:57:43Z</time>
      </trkpt>
      <trkpt lat="46.38955" lon="5.69909">
        <ele>671.2</ele>
        <time>2022-02-28T13:57:44Z</time>
      </trkpt>
      <trkpt lat="46.38958" lon="5.69908">
        <ele>671.4</ele>
        <time>2022-02-28T13:57:45Z</time>
      </trkpt>
      <trkpt lat="46.38962" lon="5.69907">
        <ele>671.4</ele>
        <time>2022-02-28T13:57:46Z</time>
      </trkpt>
      <trkpt lat="46.38965" lon="5.69907">
        <ele>671.4</ele>
        <time>2022-02-28T13:57:47Z</time>
      </trkpt>
      <trkpt lat="46.38969" lon="5.69908">
        <ele>671.6</ele>
        <time>2022-02-28T13:57:48Z</time>
      </trkpt>
      <trkpt lat="46.38973" lon="5.69908">
        <ele>671.8</ele>
        <time>2022-02-28T13:57:49Z</time>
      </trkpt>
      <trkpt lat="46.38977" lon="5.69907">
        <ele>672</ele>
        <time>2022-02-28T13:57:50Z</time>
      </trkpt>
      <trkpt lat="46.38981" lon="5.69908">
        <ele>672</ele>
        <time>2022-02-28T13:57:51Z</time>
      </trkpt>
      <trkpt lat="46.38985" lon="5.69909">
        <ele>672</ele>
        <time>2022-02-28T13:57:52Z</time>
      </trkpt>
      <trkpt lat="46.38989" lon="5.69909">
        <ele>672</ele>
        <time>2022-02-28T13:57:53Z</time>
      </trkpt>
      <trkpt lat="46.38993" lon="5.69911">
        <ele>672.2</ele>
        <time>2022-02-28T13:57:54Z</time>
      </trkpt>
      <trkpt lat="46.38997" lon="5.69912">
        <ele>672.2</ele>
        <time>2022-02-28T13:57:55Z</time>
      </trkpt>
      <trkpt lat="46.38997" lon="5.69912">
        <ele>672.2</ele>
        <time>2022-02-28T13:57:56Z</time>
      </trkpt>
      <trkpt lat="46.39" lon="5.69914">
        <ele>672.4</ele>
        <time>2022-02-28T13:57:57Z</time>
      </trkpt>
      <trkpt lat="46.39004" lon="5.69916">
        <ele>672.4</ele>
        <time>2022-02-28T13:57:58Z</time>
      </trkpt>
      <trkpt lat="46.39008" lon="5.69917">
        <ele>672.4</ele>
        <time>2022-02-28T13:57:59Z</time>
      </trkpt>
      <trkpt lat="46.39012" lon="5.69918">
        <ele>672.4</ele>
        <time>2022-02-28T13:58:00Z</time>
      </trkpt>
      <trkpt lat="46.39015" lon="5.6992">
        <ele>672.8</ele>
        <time>2022-02-28T13:58:01Z</time>
      </trkpt>
      <trkpt lat="46.39019" lon="5.69922">
        <ele>672.8</ele>
        <time>2022-02-28T13:58:02Z</time>
      </trkpt>
      <trkpt lat="46.39022" lon="5.69924">
        <ele>673</ele>
        <time>2022-02-28T13:58:03Z</time>
      </trkpt>
      <trkpt lat="46.39025" lon="5.69926">
        <ele>673</ele>
        <time>2022-02-28T13:58:04Z</time>
      </trkpt>
      <trkpt lat="46.39029" lon="5.69929">
        <ele>673.4</ele>
        <time>2022-02-28T13:58:05Z</time>
      </trkpt>
      <trkpt lat="46.39032" lon="5.69931">
        <ele>673.4</ele>
        <time>2022-02-28T13:58:06Z</time>
      </trkpt>
      <trkpt lat="46.39036" lon="5.69933">
        <ele>673.4</ele>
        <time>2022-02-28T13:58:07Z</time>
      </trkpt>
      <trkpt lat="46.39039" lon="5.69935">
        <ele>673.6</ele>
        <time>2022-02-28T13:58:08Z</time>
      </trkpt>
      <trkpt lat="46.39043" lon="5.69938">
        <ele>673.6</ele>
        <time>2022-02-28T13:58:09Z</time>
      </trkpt>
      <trkpt lat="46.39047" lon="5.69941">
        <ele>673.6</ele>
        <time>2022-02-28T13:58:10Z</time>
      </trkpt>
      <trkpt lat="46.3905" lon="5.69944">
        <ele>674</ele>
        <time>2022-02-28T13:58:11Z</time>
      </trkpt>
      <trkpt lat="46.39053" lon="5.69948">
        <ele>674</ele>
        <time>2022-02-28T13:58:12Z</time>
      </trkpt>
      <trkpt lat="46.39056" lon="5.69951">
        <ele>674</ele>
        <time>2022-02-28T13:58:13Z</time>
      </trkpt>
      <trkpt lat="46.39059" lon="5.69955">
        <ele>674.2</ele>
        <time>2022-02-28T13:58:14Z</time>
      </trkpt>
      <trkpt lat="46.39062" lon="5.69959">
        <ele>674.2</ele>
        <time>2022-02-28T13:58:15Z</time>
      </trkpt>
      <trkpt lat="46.39065" lon="5.69963">
        <ele>674.4</ele>
        <time>2022-02-28T13:58:16Z</time>
      </trkpt>
      <trkpt lat="46.39068" lon="5.69967">
        <ele>674.4</ele>
        <time>2022-02-28T13:58:17Z</time>
      </trkpt>
      <trkpt lat="46.39071" lon="5.69971">
        <ele>674.8</ele>
        <time>2022-02-28T13:58:18Z</time>
      </trkpt>
      <trkpt lat="46.39073" lon="5.69975">
        <ele>674.8</ele>
        <time>2022-02-28T13:58:19Z</time>
      </trkpt>
      <trkpt lat="46.39075" lon="5.69979">
        <ele>675</ele>
        <time>2022-02-28T13:58:20Z</time>
      </trkpt>
      <trkpt lat="46.39078" lon="5.69984">
        <ele>675.4</ele>
        <time>2022-02-28T13:58:21Z</time>
      </trkpt>
      <trkpt lat="46.3908" lon="5.69988">
        <ele>675.6</ele>
        <time>2022-02-28T13:58:22Z</time>
      </trkpt>
      <trkpt lat="46.39082" lon="5.69993">
        <ele>675.6</ele>
        <time>2022-02-28T13:58:23Z</time>
      </trkpt>
      <trkpt lat="46.39085" lon="5.69997">
        <ele>676</ele>
        <time>2022-02-28T13:58:24Z</time>
      </trkpt>
      <trkpt lat="46.39087" lon="5.70001">
        <ele>676</ele>
        <time>2022-02-28T13:58:25Z</time>
      </trkpt>
      <trkpt lat="46.3909" lon="5.70005">
        <ele>676.4</ele>
        <time>2022-02-28T13:58:26Z</time>
      </trkpt>
      <trkpt lat="46.39092" lon="5.70009">
        <ele>676.4</ele>
        <time>2022-02-28T13:58:27Z</time>
      </trkpt>
      <trkpt lat="46.39094" lon="5.70014">
        <ele>676.4</ele>
        <time>2022-02-28T13:58:28Z</time>
      </trkpt>
      <trkpt lat="46.39096" lon="5.70018">
        <ele>676.6</ele>
        <time>2022-02-28T13:58:29Z</time>
      </trkpt>
      <trkpt lat="46.39098" lon="5.70023">
        <ele>676.6</ele>
        <time>2022-02-28T13:58:30Z</time>
      </trkpt>
      <trkpt lat="46.391" lon="5.70027">
        <ele>676.6</ele>
        <time>2022-02-28T13:58:31Z</time>
      </trkpt>
      <trkpt lat="46.39102" lon="5.70032">
        <ele>676.6</ele>
        <time>2022-02-28T13:58:32Z</time>
      </trkpt>
      <trkpt lat="46.39104" lon="5.70036">
        <ele>676.8</ele>
        <time>2022-02-28T13:58:33Z</time>
      </trkpt>
      <trkpt lat="46.39106" lon="5.70041">
        <ele>676.8</ele>
        <time>2022-02-28T13:58:34Z</time>
      </trkpt>
      <trkpt lat="46.39108" lon="5.70046">
        <ele>677</ele>
        <time>2022-02-28T13:58:35Z</time>
      </trkpt>
      <trkpt lat="46.3911" lon="5.70051">
        <ele>677</ele>
        <time>2022-02-28T13:58:36Z</time>
      </trkpt>
      <trkpt lat="46.39111" lon="5.70056">
        <ele>677</ele>
        <time>2022-02-28T13:58:37Z</time>
      </trkpt>
      <trkpt lat="46.39113" lon="5.70062">
        <ele>677</ele>
        <time>2022-02-28T13:58:38Z</time>
      </trkpt>
      <trkpt lat="46.39115" lon="5.70067">
        <ele>677</ele>
        <time>2022-02-28T13:58:39Z</time>
      </trkpt>
      <trkpt lat="46.39117" lon="5.70073">
        <ele>677</ele>
        <time>2022-02-28T13:58:40Z</time>
      </trkpt>
      <trkpt lat="46.39119" lon="5.70079">
        <ele>677</ele>
        <time>2022-02-28T13:58:41Z</time>
      </trkpt>
      <trkpt lat="46.39121" lon="5.70085">
        <ele>677.2</ele>
        <time>2022-02-28T13:58:42Z</time>
      </trkpt>
      <trkpt lat="46.39123" lon="5.70091">
        <ele>677.2</ele>
        <time>2022-02-28T13:58:43Z</time>
      </trkpt>
      <trkpt lat="46.39126" lon="5.70097">
        <ele>677.2</ele>
        <time>2022-02-28T13:58:44Z</time>
      </trkpt>
      <trkpt lat="46.39128" lon="5.70102">
        <ele>677.2</ele>
        <time>2022-02-28T13:58:45Z</time>
      </trkpt>
      <trkpt lat="46.39131" lon="5.70108">
        <ele>677.2</ele>
        <time>2022-02-28T13:58:46Z</time>
      </trkpt>
      <trkpt lat="46.39133" lon="5.70114">
        <ele>677.2</ele>
        <time>2022-02-28T13:58:47Z</time>
      </trkpt>
      <trkpt lat="46.39135" lon="5.70119">
        <ele>677.2</ele>
        <time>2022-02-28T13:58:48Z</time>
      </trkpt>
      <trkpt lat="46.39137" lon="5.70124">
        <ele>677.2</ele>
        <time>2022-02-28T13:58:49Z</time>
      </trkpt>
      <trkpt lat="46.3914" lon="5.70129">
        <ele>677.2</ele>
        <time>2022-02-28T13:58:50Z</time>
      </trkpt>
      <trkpt lat="46.39142" lon="5.70134">
        <ele>677.2</ele>
        <time>2022-02-28T13:58:51Z</time>
      </trkpt>
      <trkpt lat="46.39144" lon="5.70138">
        <ele>677.2</ele>
        <time>2022-02-28T13:58:52Z</time>
      </trkpt>
      <trkpt lat="46.39146" lon="5.70143">
        <ele>677.2</ele>
        <time>2022-02-28T13:58:53Z</time>
      </trkpt>
      <trkpt lat="46.39148" lon="5.70146">
        <ele>677.2</ele>
        <time>2022-02-28T13:58:54Z</time>
      </trkpt>
      <trkpt lat="46.39151" lon="5.7015">
        <ele>677.2</ele>
        <time>2022-02-28T13:58:55Z</time>
      </trkpt>
      <trkpt lat="46.39153" lon="5.70153">
        <ele>677.2</ele>
        <time>2022-02-28T13:58:56Z</time>
      </trkpt>
      <trkpt lat="46.39154" lon="5.70157">
        <ele>677.2</ele>
        <time>2022-02-28T13:58:57Z</time>
      </trkpt>
      <trkpt lat="46.39156" lon="5.70161">
        <ele>677.6</ele>
        <time>2022-02-28T13:58:58Z</time>
      </trkpt>
      <trkpt lat="46.39158" lon="5.70164">
        <ele>677.6</ele>
        <time>2022-02-28T13:58:59Z</time>
      </trkpt>
      <trkpt lat="46.39159" lon="5.70168">
        <ele>677.6</ele>
        <time>2022-02-28T13:59:00Z</time>
      </trkpt>
      <trkpt lat="46.39161" lon="5.70171">
        <ele>677.8</ele>
        <time>2022-02-28T13:59:01Z</time>
      </trkpt>
      <trkpt lat="46.39163" lon="5.70173">
        <ele>677.8</ele>
        <time>2022-02-28T13:59:02Z</time>
      </trkpt>
      <trkpt lat="46.39164" lon="5.70176">
        <ele>678.2</ele>
        <time>2022-02-28T13:59:03Z</time>
      </trkpt>
      <trkpt lat="46.39166" lon="5.70179">
        <ele>678.2</ele>
        <time>2022-02-28T13:59:04Z</time>
      </trkpt>
      <trkpt lat="46.39166" lon="5.70181">
        <ele>678.4</ele>
        <time>2022-02-28T13:59:05Z</time>
      </trkpt>
      <trkpt lat="46.39167" lon="5.70182">
        <ele>678.4</ele>
        <time>2022-02-28T13:59:06Z</time>
      </trkpt>
      <trkpt lat="46.39166" lon="5.70182">
        <ele>678.4</ele>
        <time>2022-02-28T13:59:07Z</time>
      </trkpt>
      <trkpt lat="46.39166" lon="5.70182">
        <ele>678.4</ele>
        <time>2022-02-28T13:59:08Z</time>
      </trkpt>
      <trkpt lat="46.39166" lon="5.70182">
        <ele>678.6</ele>
        <time>2022-02-28T13:59:14Z</time>
      </trkpt>
      <trkpt lat="46.39166" lon="5.70182">
        <ele>678.6</ele>
        <time>2022-02-28T13:59:15Z</time>
      </trkpt>
      <trkpt lat="46.39166" lon="5.70182">
        <ele>678.6</ele>
        <time>2022-02-28T13:59:16Z</time>
      </trkpt>
      <trkpt lat="46.39166" lon="5.70182">
        <ele>678.6</ele>
        <time>2022-02-28T13:59:17Z</time>
      </trkpt>
      <trkpt lat="46.39166" lon="5.70182">
        <ele>678.6</ele>
        <time>2022-02-28T13:59:18Z</time>
      </trkpt>
      <trkpt lat="46.39166" lon="5.70182">
        <ele>678.8</ele>
        <time>2022-02-28T13:59:19Z</time>
      </trkpt>
      <trkpt lat="46.39166" lon="5.70182">
        <ele>678.8</ele>
        <time>2022-02-28T13:59:44Z</time>
      </trkpt>
      <trkpt lat="46.39166" lon="5.70182">
        <ele>678.8</ele>
        <time>2022-02-28T13:59:45Z</time>
      </trkpt>
      <trkpt lat="46.39166" lon="5.70182">
        <ele>678.8</ele>
        <time>2022-02-28T13:59:47Z</time>
      </trkpt>
      <trkpt lat="46.39166" lon="5.70182">
        <ele>678.8</ele>
        <time>2022-02-28T13:59:48Z</time>
      </trkpt>
      <trkpt lat="46.39166" lon="5.70182">
        <ele>679</ele>
        <time>2022-02-28T13:59:51Z</time>
      </trkpt>
      <trkpt lat="46.39166" lon="5.70182">
        <ele>679</ele>
        <time>2022-02-28T13:59:52Z</time>
      </trkpt>
      <trkpt lat="46.39166" lon="5.70182">
        <ele>679</ele>
        <time>2022-02-28T13:59:53Z</time>
      </trkpt>
      <trkpt lat="46.39166" lon="5.70182">
        <ele>679</ele>
        <time>2022-02-28T13:59:54Z</time>
      </trkpt>
      <trkpt lat="46.39166" lon="5.70182">
        <ele>679</ele>
        <time>2022-02-28T13:59:55Z</time>
      </trkpt>
      <trkpt lat="46.39166" lon="5.70182">
        <ele>679</ele>
        <time>2022-02-28T13:59:56Z</time>
      </trkpt>
      <trkpt lat="46.39166" lon="5.70182">
        <ele>679</ele>
        <time>2022-02-28T13:59:57Z</time>
      </trkpt>
      <trkpt lat="46.39166" lon="5.70182">
        <ele>679</ele>
        <time>2022-02-28T13:59:58Z</time>
      </trkpt>
      <trkpt lat="46.39166" lon="5.70182">
        <ele>679</ele>
        <time>2022-02-28T13:59:59Z</time>
      </trkpt>
      <trkpt lat="46.39166" lon="5.70182">
        <ele>679</ele>
        <time>2022-02-28T14:00:00Z</time>
      </trkpt>
      <trkpt lat="46.39166" lon="5.70182">
        <ele>679</ele>
        <time>2022-02-28T14:00:01Z</time>
      </trkpt>
      <trkpt lat="46.39166" lon="5.70182">
        <ele>679</ele>
        <time>2022-02-28T14:00:02Z</time>
      </trkpt>
      <trkpt lat="46.39169" lon="5.70185">
        <ele>679</ele>
        <time>2022-02-28T14:00:03Z</time>
      </trkpt>
      <trkpt lat="46.39171" lon="5.70187">
        <ele>679</ele>
        <time>2022-02-28T14:00:04Z</time>
      </trkpt>
      <trkpt lat="46.39172" lon="5.7019">
        <ele>679</ele>
        <time>2022-02-28T14:00:05Z</time>
      </trkpt>
      <trkpt lat="46.39174" lon="5.70192">
        <ele>679.4</ele>
        <time>2022-02-28T14:00:06Z</time>
      </trkpt>
      <trkpt lat="46.39175" lon="5.70195">
        <ele>679.4</ele>
        <time>2022-02-28T14:00:07Z</time>
      </trkpt>
      <trkpt lat="46.39177" lon="5.70198">
        <ele>679.6</ele>
        <time>2022-02-28T14:00:08Z</time>
      </trkpt>
      <trkpt lat="46.39178" lon="5.70201">
        <ele>679.6</ele>
        <time>2022-02-28T14:00:09Z</time>
      </trkpt>
      <trkpt lat="46.39179" lon="5.70205">
        <ele>679.6</ele>
        <time>2022-02-28T14:00:10Z</time>
      </trkpt>
      <trkpt lat="46.39181" lon="5.70209">
        <ele>679.8</ele>
        <time>2022-02-28T14:00:11Z</time>
      </trkpt>
      <trkpt lat="46.39183" lon="5.70212">
        <ele>680</ele>
        <time>2022-02-28T14:00:12Z</time>
      </trkpt>
      <trkpt lat="46.39183" lon="5.70212">
        <ele>680.4</ele>
        <time>2022-02-28T14:00:13Z</time>
      </trkpt>
      <trkpt lat="46.39185" lon="5.70216">
        <ele>680.8</ele>
        <time>2022-02-28T14:00:14Z</time>
      </trkpt>
      <trkpt lat="46.39187" lon="5.70219">
        <ele>681</ele>
        <time>2022-02-28T14:00:15Z</time>
      </trkpt>
      <trkpt lat="46.39189" lon="5.70223">
        <ele>681</ele>
        <time>2022-02-28T14:00:16Z</time>
      </trkpt>
      <trkpt lat="46.39191" lon="5.70226">
        <ele>681.4</ele>
        <time>2022-02-28T14:00:17Z</time>
      </trkpt>
      <trkpt lat="46.39193" lon="5.7023">
        <ele>681.8</ele>
        <time>2022-02-28T14:00:18Z</time>
      </trkpt>
      <trkpt lat="46.39194" lon="5.70233">
        <ele>681.8</ele>
        <time>2022-02-28T14:00:19Z</time>
      </trkpt>
      <trkpt lat="46.39196" lon="5.70237">
        <ele>682</ele>
        <time>2022-02-28T14:00:20Z</time>
      </trkpt>
      <trkpt lat="46.39198" lon="5.7024">
        <ele>682.2</ele>
        <time>2022-02-28T14:00:21Z</time>
      </trkpt>
      <trkpt lat="46.392" lon="5.70243">
        <ele>682.2</ele>
        <time>2022-02-28T14:00:22Z</time>
      </trkpt>
      <trkpt lat="46.39202" lon="5.70246">
        <ele>682.6</ele>
        <time>2022-02-28T14:00:23Z</time>
      </trkpt>
      <trkpt lat="46.39203" lon="5.70249">
        <ele>682.8</ele>
        <time>2022-02-28T14:00:24Z</time>
      </trkpt>
      <trkpt lat="46.39205" lon="5.70253">
        <ele>683</ele>
        <time>2022-02-28T14:00:25Z</time>
      </trkpt>
      <trkpt lat="46.39207" lon="5.70256">
        <ele>683.4</ele>
        <time>2022-02-28T14:00:26Z</time>
      </trkpt>
      <trkpt lat="46.39209" lon="5.70259">
        <ele>683.6</ele>
        <time>2022-02-28T14:00:27Z</time>
      </trkpt>
      <trkpt lat="46.39211" lon="5.70262">
        <ele>684</ele>
        <time>2022-02-28T14:00:28Z</time>
      </trkpt>
      <trkpt lat="46.39213" lon="5.70266">
        <ele>684.2</ele>
        <time>2022-02-28T14:00:29Z</time>
      </trkpt>
      <trkpt lat="46.39215" lon="5.70269">
        <ele>684.4</ele>
        <time>2022-02-28T14:00:30Z</time>
      </trkpt>
      <trkpt lat="46.39217" lon="5.70272">
        <ele>684.8</ele>
        <time>2022-02-28T14:00:31Z</time>
      </trkpt>
      <trkpt lat="46.39219" lon="5.70275">
        <ele>685</ele>
        <time>2022-02-28T14:00:32Z</time>
      </trkpt>
      <trkpt lat="46.39221" lon="5.70278">
        <ele>685</ele>
        <time>2022-02-28T14:00:33Z</time>
      </trkpt>
      <trkpt lat="46.39223" lon="5.70281">
        <ele>685.4</ele>
        <time>2022-02-28T14:00:34Z</time>
      </trkpt>
      <trkpt lat="46.39224" lon="5.70284">
        <ele>685.8</ele>
        <time>2022-02-28T14:00:35Z</time>
      </trkpt>
      <trkpt lat="46.39226" lon="5.70287">
        <ele>686</ele>
        <time>2022-02-28T14:00:36Z</time>
      </trkpt>
      <trkpt lat="46.39227" lon="5.7029">
        <ele>686.2</ele>
        <time>2022-02-28T14:00:37Z</time>
      </trkpt>
      <trkpt lat="46.39229" lon="5.70293">
        <ele>686.4</ele>
        <time>2022-02-28T14:00:38Z</time>
      </trkpt>
      <trkpt lat="46.39231" lon="5.70295">
        <ele>686.6</ele>
        <time>2022-02-28T14:00:39Z</time>
      </trkpt>
      <trkpt lat="46.39233" lon="5.70298">
        <ele>687</ele>
        <time>2022-02-28T14:00:40Z</time>
      </trkpt>
      <trkpt lat="46.39234" lon="5.70301">
        <ele>687.2</ele>
        <time>2022-02-28T14:00:41Z</time>
      </trkpt>
      <trkpt lat="46.39236" lon="5.70304">
        <ele>687.6</ele>
        <time>2022-02-28T14:00:42Z</time>
      </trkpt>
      <trkpt lat="46.39238" lon="5.70307">
        <ele>687.8</ele>
        <time>2022-02-28T14:00:43Z</time>
      </trkpt>
      <trkpt lat="46.3924" lon="5.7031">
        <ele>688</ele>
        <time>2022-02-28T14:00:44Z</time>
      </trkpt>
      <trkpt lat="46.39242" lon="5.70313">
        <ele>688</ele>
        <time>2022-02-28T14:00:45Z</time>
      </trkpt>
      <trkpt lat="46.39244" lon="5.70315">
        <ele>688.2</ele>
        <time>2022-02-28T14:00:46Z</time>
      </trkpt>
      <trkpt lat="46.39246" lon="5.70318">
        <ele>688.2</ele>
        <time>2022-02-28T14:00:47Z</time>
      </trkpt>
      <trkpt lat="46.39248" lon="5.70321">
        <ele>688.6</ele>
        <time>2022-02-28T14:00:48Z</time>
      </trkpt>
      <trkpt lat="46.3925" lon="5.70324">
        <ele>688.8</ele>
        <time>2022-02-28T14:00:49Z</time>
      </trkpt>
      <trkpt lat="46.39252" lon="5.70327">
        <ele>688.8</ele>
        <time>2022-02-28T14:00:50Z</time>
      </trkpt>
      <trkpt lat="46.39254" lon="5.70329">
        <ele>689</ele>
        <time>2022-02-28T14:00:51Z</time>
      </trkpt>
      <trkpt lat="46.39256" lon="5.70332">
        <ele>689</ele>
        <time>2022-02-28T14:00:52Z</time>
      </trkpt>
      <trkpt lat="46.39259" lon="5.70335">
        <ele>689.2</ele>
        <time>2022-02-28T14:00:53Z</time>
      </trkpt>
      <trkpt lat="46.39261" lon="5.70338">
        <ele>689.2</ele>
        <time>2022-02-28T14:00:54Z</time>
      </trkpt>
      <trkpt lat="46.39264" lon="5.7034">
        <ele>689.6</ele>
        <time>2022-02-28T14:00:55Z</time>
      </trkpt>
      <trkpt lat="46.39266" lon="5.70343">
        <ele>689.6</ele>
        <time>2022-02-28T14:00:56Z</time>
      </trkpt>
      <trkpt lat="46.39268" lon="5.70346">
        <ele>689.6</ele>
        <time>2022-02-28T14:00:57Z</time>
      </trkpt>
      <trkpt lat="46.39271" lon="5.70348">
        <ele>689.8</ele>
        <time>2022-02-28T14:00:58Z</time>
      </trkpt>
      <trkpt lat="46.39274" lon="5.7035">
        <ele>689.8</ele>
        <time>2022-02-28T14:00:59Z</time>
      </trkpt>
      <trkpt lat="46.39276" lon="5.70352">
        <ele>689.8</ele>
        <time>2022-02-28T14:01:00Z</time>
      </trkpt>
      <trkpt lat="46.39279" lon="5.70353">
        <ele>690</ele>
        <time>2022-02-28T14:01:01Z</time>
      </trkpt>
      <trkpt lat="46.39282" lon="5.70355">
        <ele>690</ele>
        <time>2022-02-28T14:01:02Z</time>
      </trkpt>
      <trkpt lat="46.39285" lon="5.70356">
        <ele>690</ele>
        <time>2022-02-28T14:01:03Z</time>
      </trkpt>
      <trkpt lat="46.39288" lon="5.70358">
        <ele>690</ele>
        <time>2022-02-28T14:01:04Z</time>
      </trkpt>
      <trkpt lat="46.39291" lon="5.7036">
        <ele>690</ele>
        <time>2022-02-28T14:01:05Z</time>
      </trkpt>
      <trkpt lat="46.39294" lon="5.70361">
        <ele>690</ele>
        <time>2022-02-28T14:01:06Z</time>
      </trkpt>
      <trkpt lat="46.39298" lon="5.70363">
        <ele>690</ele>
        <time>2022-02-28T14:01:07Z</time>
      </trkpt>
      <trkpt lat="46.39301" lon="5.70364">
        <ele>690</ele>
        <time>2022-02-28T14:01:08Z</time>
      </trkpt>
      <trkpt lat="46.39305" lon="5.70365">
        <ele>690</ele>
        <time>2022-02-28T14:01:09Z</time>
      </trkpt>
      <trkpt lat="46.3931" lon="5.70366">
        <ele>690</ele>
        <time>2022-02-28T14:01:10Z</time>
      </trkpt>
      <trkpt lat="46.39315" lon="5.70368">
        <ele>689.8</ele>
        <time>2022-02-28T14:01:11Z</time>
      </trkpt>
      <trkpt lat="46.3932" lon="5.7037">
        <ele>689.6</ele>
        <time>2022-02-28T14:01:12Z</time>
      </trkpt>
      <trkpt lat="46.39325" lon="5.70371">
        <ele>689.4</ele>
        <time>2022-02-28T14:01:13Z</time>
      </trkpt>
      <trkpt lat="46.39331" lon="5.70372">
        <ele>689.2</ele>
        <time>2022-02-28T14:01:14Z</time>
      </trkpt>
      <trkpt lat="46.39338" lon="5.70374">
        <ele>689</ele>
        <time>2022-02-28T14:01:15Z</time>
      </trkpt>
      <trkpt lat="46.39344" lon="5.70374">
        <ele>688.6</ele>
        <time>2022-02-28T14:01:16Z</time>
      </trkpt>
      <trkpt lat="46.39351" lon="5.70375">
        <ele>688.4</ele>
        <time>2022-02-28T14:01:17Z</time>
      </trkpt>
      <trkpt lat="46.39358" lon="5.70375">
        <ele>688</ele>
        <time>2022-02-28T14:01:18Z</time>
      </trkpt>
      <trkpt lat="46.39365" lon="5.70376">
        <ele>687.8</ele>
        <time>2022-02-28T14:01:19Z</time>
      </trkpt>
      <trkpt lat="46.39372" lon="5.70377">
        <ele>687.4</ele>
        <time>2022-02-28T14:01:20Z</time>
      </trkpt>
      <trkpt lat="46.39379" lon="5.70377">
        <ele>687.2</ele>
        <time>2022-02-28T14:01:21Z</time>
      </trkpt>
      <trkpt lat="46.39387" lon="5.70378">
        <ele>686.8</ele>
        <time>2022-02-28T14:01:22Z</time>
      </trkpt>
      <trkpt lat="46.39394" lon="5.70378">
        <ele>686.6</ele>
        <time>2022-02-28T14:01:23Z</time>
      </trkpt>
      <trkpt lat="46.39401" lon="5.70379">
        <ele>686.4</ele>
        <time>2022-02-28T14:01:24Z</time>
      </trkpt>
      <trkpt lat="46.39408" lon="5.7038">
        <ele>686.2</ele>
        <time>2022-02-28T14:01:25Z</time>
      </trkpt>
      <trkpt lat="46.39415" lon="5.70382">
        <ele>686.2</ele>
        <time>2022-02-28T14:01:26Z</time>
      </trkpt>
      <trkpt lat="46.39421" lon="5.70383">
        <ele>685.8</ele>
        <time>2022-02-28T14:01:27Z</time>
      </trkpt>
      <trkpt lat="46.39428" lon="5.70384">
        <ele>685.8</ele>
        <time>2022-02-28T14:01:28Z</time>
      </trkpt>
      <trkpt lat="46.39434" lon="5.70387">
        <ele>685.4</ele>
        <time>2022-02-28T14:01:29Z</time>
      </trkpt>
      <trkpt lat="46.3944" lon="5.70389">
        <ele>685.4</ele>
        <time>2022-02-28T14:01:30Z</time>
      </trkpt>
      <trkpt lat="46.39446" lon="5.70392">
        <ele>685.2</ele>
        <time>2022-02-28T14:01:31Z</time>
      </trkpt>
      <trkpt lat="46.39453" lon="5.70394">
        <ele>685.2</ele>
        <time>2022-02-28T14:01:32Z</time>
      </trkpt>
      <trkpt lat="46.39459" lon="5.70397">
        <ele>685</ele>
        <time>2022-02-28T14:01:33Z</time>
      </trkpt>
      <trkpt lat="46.39466" lon="5.704">
        <ele>684.8</ele>
        <time>2022-02-28T14:01:34Z</time>
      </trkpt>
      <trkpt lat="46.39472" lon="5.70403">
        <ele>684.8</ele>
        <time>2022-02-28T14:01:35Z</time>
      </trkpt>
      <trkpt lat="46.39478" lon="5.70406">
        <ele>684.6</ele>
        <time>2022-02-28T14:01:36Z</time>
      </trkpt>
      <trkpt lat="46.39485" lon="5.70409">
        <ele>684.6</ele>
        <time>2022-02-28T14:01:37Z</time>
      </trkpt>
      <trkpt lat="46.39491" lon="5.70412">
        <ele>684.2</ele>
        <time>2022-02-28T14:01:38Z</time>
      </trkpt>
      <trkpt lat="46.39497" lon="5.70416">
        <ele>684.2</ele>
        <time>2022-02-28T14:01:39Z</time>
      </trkpt>
      <trkpt lat="46.39503" lon="5.7042">
        <ele>684.2</ele>
        <time>2022-02-28T14:01:40Z</time>
      </trkpt>
      <trkpt lat="46.39509" lon="5.70424">
        <ele>684.2</ele>
        <time>2022-02-28T14:01:41Z</time>
      </trkpt>
      <trkpt lat="46.39514" lon="5.70429">
        <ele>684</ele>
        <time>2022-02-28T14:01:42Z</time>
      </trkpt>
      <trkpt lat="46.3952" lon="5.70434">
        <ele>684</ele>
        <time>2022-02-28T14:01:43Z</time>
      </trkpt>
      <trkpt lat="46.39526" lon="5.70439">
        <ele>683.6</ele>
        <time>2022-02-28T14:01:44Z</time>
      </trkpt>
      <trkpt lat="46.39531" lon="5.70445">
        <ele>683.6</ele>
        <time>2022-02-28T14:01:45Z</time>
      </trkpt>
      <trkpt lat="46.39536" lon="5.70452">
        <ele>683.6</ele>
        <time>2022-02-28T14:01:46Z</time>
      </trkpt>
      <trkpt lat="46.39541" lon="5.70459">
        <ele>683.6</ele>
        <time>2022-02-28T14:01:47Z</time>
      </trkpt>
      <trkpt lat="46.39545" lon="5.70465">
        <ele>683.6</ele>
        <time>2022-02-28T14:01:48Z</time>
      </trkpt>
      <trkpt lat="46.39549" lon="5.70471">
        <ele>684</ele>
        <time>2022-02-28T14:01:49Z</time>
      </trkpt>
      <trkpt lat="46.39552" lon="5.70476">
        <ele>684.4</ele>
        <time>2022-02-28T14:01:50Z</time>
      </trkpt>
      <trkpt lat="46.39556" lon="5.7048">
        <ele>684.8</ele>
        <time>2022-02-28T14:01:51Z</time>
      </trkpt>
      <trkpt lat="46.39559" lon="5.70484">
        <ele>685.2</ele>
        <time>2022-02-28T14:01:52Z</time>
      </trkpt>
      <trkpt lat="46.39562" lon="5.70488">
        <ele>685.2</ele>
        <time>2022-02-28T14:01:53Z</time>
      </trkpt>
      <trkpt lat="46.39565" lon="5.70491">
        <ele>685.4</ele>
        <time>2022-02-28T14:01:54Z</time>
      </trkpt>
      <trkpt lat="46.39568" lon="5.70495">
        <ele>685.6</ele>
        <time>2022-02-28T14:01:55Z</time>
      </trkpt>
      <trkpt lat="46.3957" lon="5.70498">
        <ele>686</ele>
        <time>2022-02-28T14:01:56Z</time>
      </trkpt>
      <trkpt lat="46.39573" lon="5.705">
        <ele>686.4</ele>
        <time>2022-02-28T14:01:57Z</time>
      </trkpt>
      <trkpt lat="46.39577" lon="5.70503">
        <ele>686.8</ele>
        <time>2022-02-28T14:01:58Z</time>
      </trkpt>
      <trkpt lat="46.3958" lon="5.70506">
        <ele>687.2</ele>
        <time>2022-02-28T14:01:59Z</time>
      </trkpt>
      <trkpt lat="46.39583" lon="5.70509">
        <ele>687.6</ele>
        <time>2022-02-28T14:02:00Z</time>
      </trkpt>
      <trkpt lat="46.39586" lon="5.70512">
        <ele>687.8</ele>
        <time>2022-02-28T14:02:01Z</time>
      </trkpt>
      <trkpt lat="46.3959" lon="5.70516">
        <ele>688</ele>
        <time>2022-02-28T14:02:02Z</time>
      </trkpt>
      <trkpt lat="46.39593" lon="5.70518">
        <ele>688.4</ele>
        <time>2022-02-28T14:02:03Z</time>
      </trkpt>
      <trkpt lat="46.39597" lon="5.70521">
        <ele>688.6</ele>
        <time>2022-02-28T14:02:04Z</time>
      </trkpt>
      <trkpt lat="46.396" lon="5.70524">
        <ele>688.8</ele>
        <time>2022-02-28T14:02:05Z</time>
      </trkpt>
      <trkpt lat="46.39603" lon="5.70528">
        <ele>688.8</ele>
        <time>2022-02-28T14:02:06Z</time>
      </trkpt>
      <trkpt lat="46.39607" lon="5.70531">
        <ele>689.2</ele>
        <time>2022-02-28T14:02:07Z</time>
      </trkpt>
      <trkpt lat="46.3961" lon="5.70534">
        <ele>689.2</ele>
        <time>2022-02-28T14:02:08Z</time>
      </trkpt>
      <trkpt lat="46.39614" lon="5.70537">
        <ele>689.4</ele>
        <time>2022-02-28T14:02:09Z</time>
      </trkpt>
      <trkpt lat="46.39619" lon="5.7054">
        <ele>689.4</ele>
        <time>2022-02-28T14:02:10Z</time>
      </trkpt>
      <trkpt lat="46.39623" lon="5.70543">
        <ele>689.4</ele>
        <time>2022-02-28T14:02:11Z</time>
      </trkpt>
      <trkpt lat="46.39628" lon="5.70546">
        <ele>689.4</ele>
        <time>2022-02-28T14:02:12Z</time>
      </trkpt>
      <trkpt lat="46.39634" lon="5.7055">
        <ele>689.4</ele>
        <time>2022-02-28T14:02:13Z</time>
      </trkpt>
      <trkpt lat="46.3964" lon="5.70553">
        <ele>689</ele>
        <time>2022-02-28T14:02:14Z</time>
      </trkpt>
      <trkpt lat="46.39646" lon="5.70556">
        <ele>688.6</ele>
        <time>2022-02-28T14:02:15Z</time>
      </trkpt>
      <trkpt lat="46.39653" lon="5.70559">
        <ele>688.2</ele>
        <time>2022-02-28T14:02:16Z</time>
      </trkpt>
      <trkpt lat="46.3966" lon="5.70562">
        <ele>687.8</ele>
        <time>2022-02-28T14:02:17Z</time>
      </trkpt>
      <trkpt lat="46.39667" lon="5.70566">
        <ele>687.4</ele>
        <time>2022-02-28T14:02:18Z</time>
      </trkpt>
      <trkpt lat="46.39674" lon="5.70569">
        <ele>687.2</ele>
        <time>2022-02-28T14:02:19Z</time>
      </trkpt>
      <trkpt lat="46.39681" lon="5.70573">
        <ele>687</ele>
        <time>2022-02-28T14:02:20Z</time>
      </trkpt>
      <trkpt lat="46.39688" lon="5.70578">
        <ele>686.8</ele>
        <time>2022-02-28T14:02:21Z</time>
      </trkpt>
      <trkpt lat="46.39696" lon="5.70583">
        <ele>686.4</ele>
        <time>2022-02-28T14:02:22Z</time>
      </trkpt>
      <trkpt lat="46.39703" lon="5.70588">
        <ele>686.4</ele>
        <time>2022-02-28T14:02:23Z</time>
      </trkpt>
      <trkpt lat="46.3971" lon="5.70593">
        <ele>686.2</ele>
        <time>2022-02-28T14:02:24Z</time>
      </trkpt>
      <trkpt lat="46.39717" lon="5.70598">
        <ele>686.2</ele>
        <time>2022-02-28T14:02:25Z</time>
      </trkpt>
      <trkpt lat="46.39724" lon="5.70602">
        <ele>686.2</ele>
        <time>2022-02-28T14:02:26Z</time>
      </trkpt>
      <trkpt lat="46.39731" lon="5.70606">
        <ele>686.2</ele>
        <time>2022-02-28T14:02:27Z</time>
      </trkpt>
      <trkpt lat="46.39737" lon="5.7061">
        <ele>686.2</ele>
        <time>2022-02-28T14:02:28Z</time>
      </trkpt>
      <trkpt lat="46.39743" lon="5.70613">
        <ele>686.4</ele>
        <time>2022-02-28T14:02:29Z</time>
      </trkpt>
      <trkpt lat="46.39749" lon="5.70615">
        <ele>686.4</ele>
        <time>2022-02-28T14:02:30Z</time>
      </trkpt>
      <trkpt lat="46.39754" lon="5.70615">
        <ele>686.8</ele>
        <time>2022-02-28T14:02:31Z</time>
      </trkpt>
      <trkpt lat="46.3976" lon="5.70615">
        <ele>686.8</ele>
        <time>2022-02-28T14:02:32Z</time>
      </trkpt>
      <trkpt lat="46.39766" lon="5.70615">
        <ele>686.8</ele>
        <time>2022-02-28T14:02:33Z</time>
      </trkpt>
      <trkpt lat="46.39772" lon="5.70613">
        <ele>686.8</ele>
        <time>2022-02-28T14:02:34Z</time>
      </trkpt>
      <trkpt lat="46.39778" lon="5.70611">
        <ele>686.6</ele>
        <time>2022-02-28T14:02:35Z</time>
      </trkpt>
      <trkpt lat="46.39785" lon="5.70609">
        <ele>686.4</ele>
        <time>2022-02-28T14:02:36Z</time>
      </trkpt>
      <trkpt lat="46.39791" lon="5.70607">
        <ele>686.4</ele>
        <time>2022-02-28T14:02:37Z</time>
      </trkpt>
      <trkpt lat="46.39798" lon="5.70605">
        <ele>686</ele>
        <time>2022-02-28T14:02:38Z</time>
      </trkpt>
      <trkpt lat="46.39805" lon="5.70604">
        <ele>686</ele>
        <time>2022-02-28T14:02:39Z</time>
      </trkpt>
      <trkpt lat="46.39811" lon="5.70603">
        <ele>685.6</ele>
        <time>2022-02-28T14:02:40Z</time>
      </trkpt>
      <trkpt lat="46.39818" lon="5.70602">
        <ele>685.6</ele>
        <time>2022-02-28T14:02:41Z</time>
      </trkpt>
      <trkpt lat="46.39824" lon="5.70601">
        <ele>685.6</ele>
        <time>2022-02-28T14:02:42Z</time>
      </trkpt>
      <trkpt lat="46.3983" lon="5.706">
        <ele>685.6</ele>
        <time>2022-02-28T14:02:43Z</time>
      </trkpt>
      <trkpt lat="46.39835" lon="5.706">
        <ele>685.6</ele>
        <time>2022-02-28T14:02:44Z</time>
      </trkpt>
      <trkpt lat="46.39841" lon="5.70599">
        <ele>685.6</ele>
        <time>2022-02-28T14:02:45Z</time>
      </trkpt>
      <trkpt lat="46.39847" lon="5.70599">
        <ele>685.6</ele>
        <time>2022-02-28T14:02:46Z</time>
      </trkpt>
      <trkpt lat="46.39853" lon="5.70599">
        <ele>685.6</ele>
        <time>2022-02-28T14:02:47Z</time>
      </trkpt>
      <trkpt lat="46.39859" lon="5.70599">
        <ele>685.4</ele>
        <time>2022-02-28T14:02:48Z</time>
      </trkpt>
      <trkpt lat="46.39865" lon="5.70599">
        <ele>685.4</ele>
        <time>2022-02-28T14:02:49Z</time>
      </trkpt>
      <trkpt lat="46.39871" lon="5.70599">
        <ele>685.4</ele>
        <time>2022-02-28T14:02:50Z</time>
      </trkpt>
      <trkpt lat="46.39877" lon="5.70599">
        <ele>685.4</ele>
        <time>2022-02-28T14:02:51Z</time>
      </trkpt>
      <trkpt lat="46.39882" lon="5.706">
        <ele>685.4</ele>
        <time>2022-02-28T14:02:52Z</time>
      </trkpt>
      <trkpt lat="46.39888" lon="5.70601">
        <ele>685.4</ele>
        <time>2022-02-28T14:02:53Z</time>
      </trkpt>
      <trkpt lat="46.39893" lon="5.70602">
        <ele>685.4</ele>
        <time>2022-02-28T14:02:54Z</time>
      </trkpt>
      <trkpt lat="46.39898" lon="5.70603">
        <ele>685.4</ele>
        <time>2022-02-28T14:02:55Z</time>
      </trkpt>
      <trkpt lat="46.39903" lon="5.70605">
        <ele>685.4</ele>
        <time>2022-02-28T14:02:56Z</time>
      </trkpt>
      <trkpt lat="46.39908" lon="5.70607">
        <ele>685.6</ele>
        <time>2022-02-28T14:02:57Z</time>
      </trkpt>
      <trkpt lat="46.39913" lon="5.70609">
        <ele>685.6</ele>
        <time>2022-02-28T14:02:58Z</time>
      </trkpt>
      <trkpt lat="46.39917" lon="5.70611">
        <ele>685.6</ele>
        <time>2022-02-28T14:02:59Z</time>
      </trkpt>
      <trkpt lat="46.39922" lon="5.70613">
        <ele>685.6</ele>
        <time>2022-02-28T14:03:00Z</time>
      </trkpt>
      <trkpt lat="46.39926" lon="5.70615">
        <ele>685.6</ele>
        <time>2022-02-28T14:03:01Z</time>
      </trkpt>
      <trkpt lat="46.39931" lon="5.70617">
        <ele>686</ele>
        <time>2022-02-28T14:03:02Z</time>
      </trkpt>
      <trkpt lat="46.39936" lon="5.7062">
        <ele>686</ele>
        <time>2022-02-28T14:03:03Z</time>
      </trkpt>
      <trkpt lat="46.39943" lon="5.70624">
        <ele>686</ele>
        <time>2022-02-28T14:03:04Z</time>
      </trkpt>
      <trkpt lat="46.39945" lon="5.70625">
        <ele>686.2</ele>
        <time>2022-02-28T14:03:05Z</time>
      </trkpt>
      <trkpt lat="46.39952" lon="5.70629">
        <ele>686.2</ele>
        <time>2022-02-28T14:03:06Z</time>
      </trkpt>
      <trkpt lat="46.39955" lon="5.7063">
        <ele>686.6</ele>
        <time>2022-02-28T14:03:07Z</time>
      </trkpt>
      <trkpt lat="46.39959" lon="5.70633">
        <ele>686.8</ele>
        <time>2022-02-28T14:03:08Z</time>
      </trkpt>
      <trkpt lat="46.39964" lon="5.70635">
        <ele>687.2</ele>
        <time>2022-02-28T14:03:09Z</time>
      </trkpt>
      <trkpt lat="46.39969" lon="5.70637">
        <ele>687.4</ele>
        <time>2022-02-28T14:03:10Z</time>
      </trkpt>
      <trkpt lat="46.39973" lon="5.70639">
        <ele>687.4</ele>
        <time>2022-02-28T14:03:11Z</time>
      </trkpt>
      <trkpt lat="46.39978" lon="5.70641">
        <ele>687.8</ele>
        <time>2022-02-28T14:03:12Z</time>
      </trkpt>
      <trkpt lat="46.39982" lon="5.70643">
        <ele>688</ele>
        <time>2022-02-28T14:03:13Z</time>
      </trkpt>
      <trkpt lat="46.39986" lon="5.70645">
        <ele>688.2</ele>
        <time>2022-02-28T14:03:14Z</time>
      </trkpt>
      <trkpt lat="46.3999" lon="5.70648">
        <ele>688.6</ele>
        <time>2022-02-28T14:03:15Z</time>
      </trkpt>
      <trkpt lat="46.39994" lon="5.7065">
        <ele>688.6</ele>
        <time>2022-02-28T14:03:16Z</time>
      </trkpt>
      <trkpt lat="46.39998" lon="5.70652">
        <ele>688.8</ele>
        <time>2022-02-28T14:03:17Z</time>
      </trkpt>
      <trkpt lat="46.40002" lon="5.70654">
        <ele>688.8</ele>
        <time>2022-02-28T14:03:18Z</time>
      </trkpt>
      <trkpt lat="46.40006" lon="5.70656">
        <ele>689</ele>
        <time>2022-02-28T14:03:19Z</time>
      </trkpt>
      <trkpt lat="46.4001" lon="5.70658">
        <ele>689</ele>
        <time>2022-02-28T14:03:20Z</time>
      </trkpt>
      <trkpt lat="46.40015" lon="5.7066">
        <ele>689.4</ele>
        <time>2022-02-28T14:03:21Z</time>
      </trkpt>
      <trkpt lat="46.40019" lon="5.70663">
        <ele>689.4</ele>
        <time>2022-02-28T14:03:22Z</time>
      </trkpt>
      <trkpt lat="46.40024" lon="5.70665">
        <ele>689.8</ele>
        <time>2022-02-28T14:03:23Z</time>
      </trkpt>
      <trkpt lat="46.40028" lon="5.70667">
        <ele>690</ele>
        <time>2022-02-28T14:03:24Z</time>
      </trkpt>
      <trkpt lat="46.40032" lon="5.70669">
        <ele>690.2</ele>
        <time>2022-02-28T14:03:25Z</time>
      </trkpt>
      <trkpt lat="46.40036" lon="5.70671">
        <ele>690.6</ele>
        <time>2022-02-28T14:03:26Z</time>
      </trkpt>
      <trkpt lat="46.4004" lon="5.70673">
        <ele>690.8</ele>
        <time>2022-02-28T14:03:27Z</time>
      </trkpt>
      <trkpt lat="46.40044" lon="5.70675">
        <ele>690.8</ele>
        <time>2022-02-28T14:03:28Z</time>
      </trkpt>
      <trkpt lat="46.40048" lon="5.70677">
        <ele>691.2</ele>
        <time>2022-02-28T14:03:29Z</time>
      </trkpt>
      <trkpt lat="46.40052" lon="5.70679">
        <ele>691.2</ele>
        <time>2022-02-28T14:03:30Z</time>
      </trkpt>
      <trkpt lat="46.40056" lon="5.70682">
        <ele>691.2</ele>
        <time>2022-02-28T14:03:31Z</time>
      </trkpt>
      <trkpt lat="46.40061" lon="5.70684">
        <ele>691.2</ele>
        <time>2022-02-28T14:03:32Z</time>
      </trkpt>
      <trkpt lat="46.40066" lon="5.70686">
        <ele>691.2</ele>
        <time>2022-02-28T14:03:33Z</time>
      </trkpt>
      <trkpt lat="46.40071" lon="5.70688">
        <ele>690.8</ele>
        <time>2022-02-28T14:03:34Z</time>
      </trkpt>
      <trkpt lat="46.40076" lon="5.70691">
        <ele>690.8</ele>
        <time>2022-02-28T14:03:35Z</time>
      </trkpt>
      <trkpt lat="46.40082" lon="5.70694">
        <ele>690.8</ele>
        <time>2022-02-28T14:03:36Z</time>
      </trkpt>
      <trkpt lat="46.40087" lon="5.70698">
        <ele>690.6</ele>
        <time>2022-02-28T14:03:37Z</time>
      </trkpt>
      <trkpt lat="46.40093" lon="5.70701">
        <ele>690.6</ele>
        <time>2022-02-28T14:03:38Z</time>
      </trkpt>
      <trkpt lat="46.40098" lon="5.70706">
        <ele>690.4</ele>
        <time>2022-02-28T14:03:39Z</time>
      </trkpt>
      <trkpt lat="46.40103" lon="5.7071">
        <ele>690.4</ele>
        <time>2022-02-28T14:03:40Z</time>
      </trkpt>
      <trkpt lat="46.40109" lon="5.70714">
        <ele>690.4</ele>
        <time>2022-02-28T14:03:41Z</time>
      </trkpt>
      <trkpt lat="46.40114" lon="5.70718">
        <ele>690.2</ele>
        <time>2022-02-28T14:03:42Z</time>
      </trkpt>
      <trkpt lat="46.40119" lon="5.70723">
        <ele>690.2</ele>
        <time>2022-02-28T14:03:43Z</time>
      </trkpt>
      <trkpt lat="46.40124" lon="5.70727">
        <ele>690.2</ele>
        <time>2022-02-28T14:03:44Z</time>
      </trkpt>
      <trkpt lat="46.4013" lon="5.70732">
        <ele>690.2</ele>
        <time>2022-02-28T14:03:45Z</time>
      </trkpt>
      <trkpt lat="46.4013" lon="5.70732">
        <ele>689.8</ele>
        <time>2022-02-28T14:03:46Z</time>
      </trkpt>
      <trkpt lat="46.40135" lon="5.70737">
        <ele>689.8</ele>
        <time>2022-02-28T14:03:47Z</time>
      </trkpt>
      <trkpt lat="46.4014" lon="5.70742">
        <ele>689.6</ele>
        <time>2022-02-28T14:03:48Z</time>
      </trkpt>
      <trkpt lat="46.40146" lon="5.70747">
        <ele>689.6</ele>
        <time>2022-02-28T14:03:49Z</time>
      </trkpt>
      <trkpt lat="46.40151" lon="5.70752">
        <ele>689.6</ele>
        <time>2022-02-28T14:03:50Z</time>
      </trkpt>
      <trkpt lat="46.40156" lon="5.70757">
        <ele>689.4</ele>
        <time>2022-02-28T14:03:51Z</time>
      </trkpt>
      <trkpt lat="46.40162" lon="5.70763">
        <ele>689.4</ele>
        <time>2022-02-28T14:03:52Z</time>
      </trkpt>
      <trkpt lat="46.40167" lon="5.70769">
        <ele>689.4</ele>
        <time>2022-02-28T14:03:53Z</time>
      </trkpt>
      <trkpt lat="46.40171" lon="5.70776">
        <ele>689.4</ele>
        <time>2022-02-28T14:03:54Z</time>
      </trkpt>
      <trkpt lat="46.40176" lon="5.70782">
        <ele>689.4</ele>
        <time>2022-02-28T14:03:55Z</time>
      </trkpt>
      <trkpt lat="46.40179" lon="5.70789">
        <ele>689.4</ele>
        <time>2022-02-28T14:03:56Z</time>
      </trkpt>
      <trkpt lat="46.40183" lon="5.70796">
        <ele>689.6</ele>
        <time>2022-02-28T14:03:57Z</time>
      </trkpt>
      <trkpt lat="46.40186" lon="5.70802">
        <ele>689.6</ele>
        <time>2022-02-28T14:03:58Z</time>
      </trkpt>
      <trkpt lat="46.4019" lon="5.70808">
        <ele>690</ele>
        <time>2022-02-28T14:03:59Z</time>
      </trkpt>
      <trkpt lat="46.40192" lon="5.70813">
        <ele>690</ele>
        <time>2022-02-28T14:04:00Z</time>
      </trkpt>
      <trkpt lat="46.40195" lon="5.70818">
        <ele>690.2</ele>
        <time>2022-02-28T14:04:01Z</time>
      </trkpt>
      <trkpt lat="46.40197" lon="5.70823">
        <ele>690.6</ele>
        <time>2022-02-28T14:04:02Z</time>
      </trkpt>
      <trkpt lat="46.40199" lon="5.70827">
        <ele>690.8</ele>
        <time>2022-02-28T14:04:03Z</time>
      </trkpt>
      <trkpt lat="46.40201" lon="5.70832">
        <ele>690.8</ele>
        <time>2022-02-28T14:04:04Z</time>
      </trkpt>
      <trkpt lat="46.40203" lon="5.70835">
        <ele>691.2</ele>
        <time>2022-02-28T14:04:05Z</time>
      </trkpt>
      <trkpt lat="46.40206" lon="5.70843">
        <ele>691.6</ele>
        <time>2022-02-28T14:04:06Z</time>
      </trkpt>
      <trkpt lat="46.40207" lon="5.70847">
        <ele>691.8</ele>
        <time>2022-02-28T14:04:07Z</time>
      </trkpt>
      <trkpt lat="46.40208" lon="5.7085">
        <ele>691.8</ele>
        <time>2022-02-28T14:04:08Z</time>
      </trkpt>
      <trkpt lat="46.4021" lon="5.70854">
        <ele>692.2</ele>
        <time>2022-02-28T14:04:09Z</time>
      </trkpt>
      <trkpt lat="46.40212" lon="5.70858">
        <ele>692.4</ele>
        <time>2022-02-28T14:04:10Z</time>
      </trkpt>
      <trkpt lat="46.40214" lon="5.70861">
        <ele>692.6</ele>
        <time>2022-02-28T14:04:11Z</time>
      </trkpt>
      <trkpt lat="46.40216" lon="5.70864">
        <ele>693</ele>
        <time>2022-02-28T14:04:12Z</time>
      </trkpt>
      <trkpt lat="46.40217" lon="5.70867">
        <ele>693.2</ele>
        <time>2022-02-28T14:04:13Z</time>
      </trkpt>
      <trkpt lat="46.40219" lon="5.70871">
        <ele>693.6</ele>
        <time>2022-02-28T14:04:14Z</time>
      </trkpt>
      <trkpt lat="46.4022" lon="5.70874">
        <ele>693.8</ele>
        <time>2022-02-28T14:04:15Z</time>
      </trkpt>
      <trkpt lat="46.40221" lon="5.70876">
        <ele>694.2</ele>
        <time>2022-02-28T14:04:16Z</time>
      </trkpt>
      <trkpt lat="46.40223" lon="5.70879">
        <ele>694.4</ele>
        <time>2022-02-28T14:04:17Z</time>
      </trkpt>
      <trkpt lat="46.40225" lon="5.70882">
        <ele>694.6</ele>
        <time>2022-02-28T14:04:18Z</time>
      </trkpt>
      <trkpt lat="46.40226" lon="5.70884">
        <ele>694.8</ele>
        <time>2022-02-28T14:04:19Z</time>
      </trkpt>
      <trkpt lat="46.40228" lon="5.70887">
        <ele>695.2</ele>
        <time>2022-02-28T14:04:20Z</time>
      </trkpt>
      <trkpt lat="46.4023" lon="5.7089">
        <ele>695.6</ele>
        <time>2022-02-28T14:04:21Z</time>
      </trkpt>
      <trkpt lat="46.40232" lon="5.70893">
        <ele>695.8</ele>
        <time>2022-02-28T14:04:22Z</time>
      </trkpt>
      <trkpt lat="46.40234" lon="5.70896">
        <ele>696</ele>
        <time>2022-02-28T14:04:23Z</time>
      </trkpt>
      <trkpt lat="46.40237" lon="5.70899">
        <ele>696.4</ele>
        <time>2022-02-28T14:04:24Z</time>
      </trkpt>
      <trkpt lat="46.40239" lon="5.709">
        <ele>696.6</ele>
        <time>2022-02-28T14:04:25Z</time>
      </trkpt>
      <trkpt lat="46.40241" lon="5.70903">
        <ele>696.8</ele>
        <time>2022-02-28T14:04:26Z</time>
      </trkpt>
      <trkpt lat="46.40244" lon="5.70905">
        <ele>696.8</ele>
        <time>2022-02-28T14:04:27Z</time>
      </trkpt>
      <trkpt lat="46.40246" lon="5.70908">
        <ele>697.2</ele>
        <time>2022-02-28T14:04:28Z</time>
      </trkpt>
      <trkpt lat="46.40248" lon="5.7091">
        <ele>697.4</ele>
        <time>2022-02-28T14:04:29Z</time>
      </trkpt>
      <trkpt lat="46.4025" lon="5.70913">
        <ele>697.4</ele>
        <time>2022-02-28T14:04:30Z</time>
      </trkpt>
      <trkpt lat="46.40253" lon="5.70915">
        <ele>698</ele>
        <time>2022-02-28T14:04:31Z</time>
      </trkpt>
      <trkpt lat="46.40255" lon="5.70916">
        <ele>698.2</ele>
        <time>2022-02-28T14:04:32Z</time>
      </trkpt>
      <trkpt lat="46.40257" lon="5.70918">
        <ele>698.4</ele>
        <time>2022-02-28T14:04:33Z</time>
      </trkpt>
      <trkpt lat="46.40259" lon="5.7092">
        <ele>698.4</ele>
        <time>2022-02-28T14:04:34Z</time>
      </trkpt>
      <trkpt lat="46.40261" lon="5.70922">
        <ele>698.8</ele>
        <time>2022-02-28T14:04:35Z</time>
      </trkpt>
      <trkpt lat="46.40264" lon="5.70925">
        <ele>698.8</ele>
        <time>2022-02-28T14:04:36Z</time>
      </trkpt>
      <trkpt lat="46.40266" lon="5.70928">
        <ele>698.8</ele>
        <time>2022-02-28T14:04:37Z</time>
      </trkpt>
      <trkpt lat="46.40269" lon="5.70931">
        <ele>699</ele>
        <time>2022-02-28T14:04:38Z</time>
      </trkpt>
      <trkpt lat="46.40272" lon="5.70934">
        <ele>699</ele>
        <time>2022-02-28T14:04:39Z</time>
      </trkpt>
      <trkpt lat="46.40274" lon="5.70937">
        <ele>699</ele>
        <time>2022-02-28T14:04:40Z</time>
      </trkpt>
      <trkpt lat="46.40277" lon="5.70939">
        <ele>699</ele>
        <time>2022-02-28T14:04:41Z</time>
      </trkpt>
      <trkpt lat="46.40281" lon="5.70942">
        <ele>699</ele>
        <time>2022-02-28T14:04:42Z</time>
      </trkpt>
      <trkpt lat="46.40284" lon="5.70945">
        <ele>699</ele>
        <time>2022-02-28T14:04:43Z</time>
      </trkpt>
      <trkpt lat="46.40287" lon="5.70947">
        <ele>699.2</ele>
        <time>2022-02-28T14:04:44Z</time>
      </trkpt>
      <trkpt lat="46.4029" lon="5.7095">
        <ele>699.2</ele>
        <time>2022-02-28T14:04:45Z</time>
      </trkpt>
      <trkpt lat="46.40294" lon="5.70952">
        <ele>699.2</ele>
        <time>2022-02-28T14:04:46Z</time>
      </trkpt>
      <trkpt lat="46.40297" lon="5.70954">
        <ele>699.4</ele>
        <time>2022-02-28T14:04:47Z</time>
      </trkpt>
      <trkpt lat="46.403" lon="5.70956">
        <ele>699.4</ele>
        <time>2022-02-28T14:04:48Z</time>
      </trkpt>
      <trkpt lat="46.40303" lon="5.70958">
        <ele>699.8</ele>
        <time>2022-02-28T14:04:49Z</time>
      </trkpt>
      <trkpt lat="46.40306" lon="5.7096">
        <ele>699.8</ele>
        <time>2022-02-28T14:04:50Z</time>
      </trkpt>
      <trkpt lat="46.40309" lon="5.70961">
        <ele>700.2</ele>
        <time>2022-02-28T14:04:51Z</time>
      </trkpt>
      <trkpt lat="46.40312" lon="5.70963">
        <ele>700.4</ele>
        <time>2022-02-28T14:04:52Z</time>
      </trkpt>
      <trkpt lat="46.40315" lon="5.70964">
        <ele>700.8</ele>
        <time>2022-02-28T14:04:53Z</time>
      </trkpt>
      <trkpt lat="46.40318" lon="5.70966">
        <ele>701</ele>
        <time>2022-02-28T14:04:54Z</time>
      </trkpt>
      <trkpt lat="46.40321" lon="5.70968">
        <ele>701.2</ele>
        <time>2022-02-28T14:04:55Z</time>
      </trkpt>
      <trkpt lat="46.40324" lon="5.70969">
        <ele>701.6</ele>
        <time>2022-02-28T14:04:56Z</time>
      </trkpt>
      <trkpt lat="46.40326" lon="5.7097">
        <ele>702</ele>
        <time>2022-02-28T14:04:57Z</time>
      </trkpt>
      <trkpt lat="46.40329" lon="5.70972">
        <ele>702.2</ele>
        <time>2022-02-28T14:04:58Z</time>
      </trkpt>
      <trkpt lat="46.40332" lon="5.70973">
        <ele>702.6</ele>
        <time>2022-02-28T14:04:59Z</time>
      </trkpt>
      <trkpt lat="46.40335" lon="5.70975">
        <ele>702.8</ele>
        <time>2022-02-28T14:05:00Z</time>
      </trkpt>
      <trkpt lat="46.40339" lon="5.70977">
        <ele>703</ele>
        <time>2022-02-28T14:05:01Z</time>
      </trkpt>
      <trkpt lat="46.40342" lon="5.70979">
        <ele>703.4</ele>
        <time>2022-02-28T14:05:02Z</time>
      </trkpt>
      <trkpt lat="46.40345" lon="5.70981">
        <ele>703.6</ele>
        <time>2022-02-28T14:05:03Z</time>
      </trkpt>
      <trkpt lat="46.40348" lon="5.70982">
        <ele>703.8</ele>
        <time>2022-02-28T14:05:04Z</time>
      </trkpt>
      <trkpt lat="46.4035" lon="5.70983">
        <ele>704</ele>
        <time>2022-02-28T14:05:05Z</time>
      </trkpt>
      <trkpt lat="46.40353" lon="5.70984">
        <ele>704.4</ele>
        <time>2022-02-28T14:05:06Z</time>
      </trkpt>
      <trkpt lat="46.40355" lon="5.70986">
        <ele>704.6</ele>
        <time>2022-02-28T14:05:07Z</time>
      </trkpt>
      <trkpt lat="46.40358" lon="5.70987">
        <ele>704.6</ele>
        <time>2022-02-28T14:05:08Z</time>
      </trkpt>
      <trkpt lat="46.4036" lon="5.70989">
        <ele>705</ele>
        <time>2022-02-28T14:05:09Z</time>
      </trkpt>
      <trkpt lat="46.40362" lon="5.7099">
        <ele>705</ele>
        <time>2022-02-28T14:05:10Z</time>
      </trkpt>
      <trkpt lat="46.40364" lon="5.70992">
        <ele>705.2</ele>
        <time>2022-02-28T14:05:11Z</time>
      </trkpt>
      <trkpt lat="46.40367" lon="5.70993">
        <ele>705.6</ele>
        <time>2022-02-28T14:05:12Z</time>
      </trkpt>
      <trkpt lat="46.40369" lon="5.70995">
        <ele>705.8</ele>
        <time>2022-02-28T14:05:13Z</time>
      </trkpt>
      <trkpt lat="46.40371" lon="5.70996">
        <ele>706</ele>
        <time>2022-02-28T14:05:14Z</time>
      </trkpt>
      <trkpt lat="46.40373" lon="5.70998">
        <ele>706</ele>
        <time>2022-02-28T14:05:15Z</time>
      </trkpt>
      <trkpt lat="46.40375" lon="5.71">
        <ele>706.4</ele>
        <time>2022-02-28T14:05:16Z</time>
      </trkpt>
      <trkpt lat="46.40378" lon="5.71001">
        <ele>706.4</ele>
        <time>2022-02-28T14:05:17Z</time>
      </trkpt>
      <trkpt lat="46.4038" lon="5.71003">
        <ele>706.8</ele>
        <time>2022-02-28T14:05:18Z</time>
      </trkpt>
      <trkpt lat="46.40383" lon="5.71004">
        <ele>706.8</ele>
        <time>2022-02-28T14:05:19Z</time>
      </trkpt>
      <trkpt lat="46.40385" lon="5.71006">
        <ele>707</ele>
        <time>2022-02-28T14:05:20Z</time>
      </trkpt>
      <trkpt lat="46.40388" lon="5.71008">
        <ele>707</ele>
        <time>2022-02-28T14:05:21Z</time>
      </trkpt>
      <trkpt lat="46.4039" lon="5.7101">
        <ele>707.2</ele>
        <time>2022-02-28T14:05:22Z</time>
      </trkpt>
      <trkpt lat="46.40393" lon="5.71011">
        <ele>707.2</ele>
        <time>2022-02-28T14:05:23Z</time>
      </trkpt>
      <trkpt lat="46.40395" lon="5.71013">
        <ele>707.4</ele>
        <time>2022-02-28T14:05:24Z</time>
      </trkpt>
      <trkpt lat="46.40397" lon="5.71014">
        <ele>707.4</ele>
        <time>2022-02-28T14:05:25Z</time>
      </trkpt>
      <trkpt lat="46.404" lon="5.71016">
        <ele>707.8</ele>
        <time>2022-02-28T14:05:26Z</time>
      </trkpt>
      <trkpt lat="46.40402" lon="5.71017">
        <ele>707.8</ele>
        <time>2022-02-28T14:05:27Z</time>
      </trkpt>
      <trkpt lat="46.40403" lon="5.71019">
        <ele>708</ele>
        <time>2022-02-28T14:05:28Z</time>
      </trkpt>
      <trkpt lat="46.40405" lon="5.71021">
        <ele>708</ele>
        <time>2022-02-28T14:05:29Z</time>
      </trkpt>
      <trkpt lat="46.40407" lon="5.71023">
        <ele>708.4</ele>
        <time>2022-02-28T14:05:30Z</time>
      </trkpt>
      <trkpt lat="46.40409" lon="5.71024">
        <ele>708.4</ele>
        <time>2022-02-28T14:05:31Z</time>
      </trkpt>
      <trkpt lat="46.40411" lon="5.71025">
        <ele>708.6</ele>
        <time>2022-02-28T14:05:32Z</time>
      </trkpt>
      <trkpt lat="46.40413" lon="5.71026">
        <ele>708.6</ele>
        <time>2022-02-28T14:05:33Z</time>
      </trkpt>
      <trkpt lat="46.40415" lon="5.71028">
        <ele>709</ele>
        <time>2022-02-28T14:05:34Z</time>
      </trkpt>
      <trkpt lat="46.40417" lon="5.7103">
        <ele>709</ele>
        <time>2022-02-28T14:05:35Z</time>
      </trkpt>
      <trkpt lat="46.40419" lon="5.71031">
        <ele>709</ele>
        <time>2022-02-28T14:05:36Z</time>
      </trkpt>
      <trkpt lat="46.4042" lon="5.71033">
        <ele>709.2</ele>
        <time>2022-02-28T14:05:37Z</time>
      </trkpt>
      <trkpt lat="46.40422" lon="5.71035">
        <ele>709.2</ele>
        <time>2022-02-28T14:05:38Z</time>
      </trkpt>
      <trkpt lat="46.40425" lon="5.71037">
        <ele>709.2</ele>
        <time>2022-02-28T14:05:39Z</time>
      </trkpt>
      <trkpt lat="46.40427" lon="5.7104">
        <ele>709.2</ele>
        <time>2022-02-28T14:05:40Z</time>
      </trkpt>
      <trkpt lat="46.40429" lon="5.71043">
        <ele>709.2</ele>
        <time>2022-02-28T14:05:41Z</time>
      </trkpt>
      <trkpt lat="46.40432" lon="5.71046">
        <ele>709.2</ele>
        <time>2022-02-28T14:05:42Z</time>
      </trkpt>
      <trkpt lat="46.40435" lon="5.7105">
        <ele>709.2</ele>
        <time>2022-02-28T14:05:43Z</time>
      </trkpt>
      <trkpt lat="46.40438" lon="5.71054">
        <ele>709.2</ele>
        <time>2022-02-28T14:05:44Z</time>
      </trkpt>
      <trkpt lat="46.40442" lon="5.71057">
        <ele>709.2</ele>
        <time>2022-02-28T14:05:45Z</time>
      </trkpt>
      <trkpt lat="46.40445" lon="5.71061">
        <ele>708.8</ele>
        <time>2022-02-28T14:05:46Z</time>
      </trkpt>
      <trkpt lat="46.40448" lon="5.71065">
        <ele>708.8</ele>
        <time>2022-02-28T14:05:47Z</time>
      </trkpt>
      <trkpt lat="46.40452" lon="5.7107">
        <ele>708.6</ele>
        <time>2022-02-28T14:05:48Z</time>
      </trkpt>
      <trkpt lat="46.40456" lon="5.71074">
        <ele>708.6</ele>
        <time>2022-02-28T14:05:49Z</time>
      </trkpt>
      <trkpt lat="46.4046" lon="5.71079">
        <ele>708.4</ele>
        <time>2022-02-28T14:05:50Z</time>
      </trkpt>
      <trkpt lat="46.40464" lon="5.71084">
        <ele>708.4</ele>
        <time>2022-02-28T14:05:51Z</time>
      </trkpt>
      <trkpt lat="46.40469" lon="5.71089">
        <ele>708.2</ele>
        <time>2022-02-28T14:05:52Z</time>
      </trkpt>
      <trkpt lat="46.40474" lon="5.71094">
        <ele>708.2</ele>
        <time>2022-02-28T14:05:53Z</time>
      </trkpt>
      <trkpt lat="46.4048" lon="5.71099">
        <ele>707.8</ele>
        <time>2022-02-28T14:05:54Z</time>
      </trkpt>
      <trkpt lat="46.40486" lon="5.71104">
        <ele>707.6</ele>
        <time>2022-02-28T14:05:55Z</time>
      </trkpt>
      <trkpt lat="46.40492" lon="5.7111">
        <ele>707.4</ele>
        <time>2022-02-28T14:05:56Z</time>
      </trkpt>
      <trkpt lat="46.40498" lon="5.71116">
        <ele>707.4</ele>
        <time>2022-02-28T14:05:57Z</time>
      </trkpt>
      <trkpt lat="46.40511" lon="5.71129">
        <ele>707</ele>
        <time>2022-02-28T14:05:58Z</time>
      </trkpt>
      <trkpt lat="46.40518" lon="5.71136">
        <ele>706.8</ele>
        <time>2022-02-28T14:05:59Z</time>
      </trkpt>
      <trkpt lat="46.40524" lon="5.71142">
        <ele>706.8</ele>
        <time>2022-02-28T14:06:00Z</time>
      </trkpt>
      <trkpt lat="46.40531" lon="5.71148">
        <ele>706.4</ele>
        <time>2022-02-28T14:06:01Z</time>
      </trkpt>
      <trkpt lat="46.40537" lon="5.71155">
        <ele>706</ele>
        <time>2022-02-28T14:06:02Z</time>
      </trkpt>
      <trkpt lat="46.40544" lon="5.71161">
        <ele>705.8</ele>
        <time>2022-02-28T14:06:03Z</time>
      </trkpt>
      <trkpt lat="46.4055" lon="5.71167">
        <ele>705.8</ele>
        <time>2022-02-28T14:06:04Z</time>
      </trkpt>
      <trkpt lat="46.40556" lon="5.71173">
        <ele>705.6</ele>
        <time>2022-02-28T14:06:05Z</time>
      </trkpt>
      <trkpt lat="46.40562" lon="5.71179">
        <ele>705.6</ele>
        <time>2022-02-28T14:06:06Z</time>
      </trkpt>
      <trkpt lat="46.40568" lon="5.71185">
        <ele>705.6</ele>
        <time>2022-02-28T14:06:07Z</time>
      </trkpt>
      <trkpt lat="46.40573" lon="5.71191">
        <ele>705.6</ele>
        <time>2022-02-28T14:06:08Z</time>
      </trkpt>
      <trkpt lat="46.40578" lon="5.71196">
        <ele>705.6</ele>
        <time>2022-02-28T14:06:09Z</time>
      </trkpt>
      <trkpt lat="46.40583" lon="5.71202">
        <ele>705.6</ele>
        <time>2022-02-28T14:06:10Z</time>
      </trkpt>
      <trkpt lat="46.40588" lon="5.71208">
        <ele>705.6</ele>
        <time>2022-02-28T14:06:11Z</time>
      </trkpt>
      <trkpt lat="46.40592" lon="5.71213">
        <ele>705.8</ele>
        <time>2022-02-28T14:06:12Z</time>
      </trkpt>
      <trkpt lat="46.40596" lon="5.71218">
        <ele>705.8</ele>
        <time>2022-02-28T14:06:13Z</time>
      </trkpt>
      <trkpt lat="46.406" lon="5.71223">
        <ele>705.8</ele>
        <time>2022-02-28T14:06:14Z</time>
      </trkpt>
      <trkpt lat="46.40605" lon="5.71228">
        <ele>706</ele>
        <time>2022-02-28T14:06:15Z</time>
      </trkpt>
      <trkpt lat="46.40609" lon="5.71232">
        <ele>706</ele>
        <time>2022-02-28T14:06:16Z</time>
      </trkpt>
      <trkpt lat="46.40613" lon="5.71237">
        <ele>706.4</ele>
        <time>2022-02-28T14:06:17Z</time>
      </trkpt>
      <trkpt lat="46.40617" lon="5.71241">
        <ele>706.4</ele>
        <time>2022-02-28T14:06:18Z</time>
      </trkpt>
      <trkpt lat="46.4062" lon="5.71245">
        <ele>706.6</ele>
        <time>2022-02-28T14:06:19Z</time>
      </trkpt>
      <trkpt lat="46.40624" lon="5.71248">
        <ele>706.6</ele>
        <time>2022-02-28T14:06:20Z</time>
      </trkpt>
      <trkpt lat="46.40628" lon="5.71252">
        <ele>706.8</ele>
        <time>2022-02-28T14:06:21Z</time>
      </trkpt>
      <trkpt lat="46.40632" lon="5.71255">
        <ele>706.8</ele>
        <time>2022-02-28T14:06:22Z</time>
      </trkpt>
      <trkpt lat="46.40635" lon="5.71259">
        <ele>707.2</ele>
        <time>2022-02-28T14:06:23Z</time>
      </trkpt>
      <trkpt lat="46.40639" lon="5.71262">
        <ele>707.2</ele>
        <time>2022-02-28T14:06:24Z</time>
      </trkpt>
      <trkpt lat="46.40642" lon="5.71265">
        <ele>707.4</ele>
        <time>2022-02-28T14:06:25Z</time>
      </trkpt>
      <trkpt lat="46.40646" lon="5.71267">
        <ele>707.4</ele>
        <time>2022-02-28T14:06:26Z</time>
      </trkpt>
      <trkpt lat="46.40649" lon="5.7127">
        <ele>707.6</ele>
        <time>2022-02-28T14:06:27Z</time>
      </trkpt>
      <trkpt lat="46.40653" lon="5.71273">
        <ele>707.6</ele>
        <time>2022-02-28T14:06:28Z</time>
      </trkpt>
      <trkpt lat="46.40656" lon="5.71276">
        <ele>707.8</ele>
        <time>2022-02-28T14:06:29Z</time>
      </trkpt>
      <trkpt lat="46.4066" lon="5.71279">
        <ele>707.8</ele>
        <time>2022-02-28T14:06:30Z</time>
      </trkpt>
      <trkpt lat="46.40663" lon="5.71282">
        <ele>707.8</ele>
        <time>2022-02-28T14:06:31Z</time>
      </trkpt>
      <trkpt lat="46.40667" lon="5.71284">
        <ele>708.2</ele>
        <time>2022-02-28T14:06:32Z</time>
      </trkpt>
      <trkpt lat="46.40671" lon="5.71286">
        <ele>708.2</ele>
        <time>2022-02-28T14:06:33Z</time>
      </trkpt>
      <trkpt lat="46.40674" lon="5.71288">
        <ele>708.4</ele>
        <time>2022-02-28T14:06:34Z</time>
      </trkpt>
      <trkpt lat="46.40678" lon="5.71291">
        <ele>708.4</ele>
        <time>2022-02-28T14:06:35Z</time>
      </trkpt>
      <trkpt lat="46.40682" lon="5.71293">
        <ele>708.6</ele>
        <time>2022-02-28T14:06:36Z</time>
      </trkpt>
      <trkpt lat="46.40686" lon="5.71295">
        <ele>708.6</ele>
        <time>2022-02-28T14:06:37Z</time>
      </trkpt>
      <trkpt lat="46.4069" lon="5.71296">
        <ele>708.6</ele>
        <time>2022-02-28T14:06:38Z</time>
      </trkpt>
      <trkpt lat="46.40694" lon="5.71297">
        <ele>708.8</ele>
        <time>2022-02-28T14:06:39Z</time>
      </trkpt>
      <trkpt lat="46.40699" lon="5.71297">
        <ele>708.8</ele>
        <time>2022-02-28T14:06:40Z</time>
      </trkpt>
      <trkpt lat="46.40704" lon="5.71298">
        <ele>708.8</ele>
        <time>2022-02-28T14:06:41Z</time>
      </trkpt>
      <trkpt lat="46.40708" lon="5.71298">
        <ele>708.8</ele>
        <time>2022-02-28T14:06:42Z</time>
      </trkpt>
      <trkpt lat="46.40713" lon="5.71299">
        <ele>708.8</ele>
        <time>2022-02-28T14:06:43Z</time>
      </trkpt>
      <trkpt lat="46.40718" lon="5.71299">
        <ele>708.8</ele>
        <time>2022-02-28T14:06:44Z</time>
      </trkpt>
      <trkpt lat="46.40724" lon="5.71299">
        <ele>708.8</ele>
        <time>2022-02-28T14:06:45Z</time>
      </trkpt>
      <trkpt lat="46.40729" lon="5.71299">
        <ele>708.8</ele>
        <time>2022-02-28T14:06:46Z</time>
      </trkpt>
      <trkpt lat="46.40734" lon="5.71298">
        <ele>708.6</ele>
        <time>2022-02-28T14:06:47Z</time>
      </trkpt>
      <trkpt lat="46.4074" lon="5.71298">
        <ele>708.6</ele>
        <time>2022-02-28T14:06:48Z</time>
      </trkpt>
      <trkpt lat="46.40746" lon="5.71297">
        <ele>708.6</ele>
        <time>2022-02-28T14:06:49Z</time>
      </trkpt>
      <trkpt lat="46.40752" lon="5.71296">
        <ele>708.6</ele>
        <time>2022-02-28T14:06:50Z</time>
      </trkpt>
      <trkpt lat="46.40758" lon="5.71295">
        <ele>708.4</ele>
        <time>2022-02-28T14:06:51Z</time>
      </trkpt>
      <trkpt lat="46.40764" lon="5.71293">
        <ele>708.4</ele>
        <time>2022-02-28T14:06:52Z</time>
      </trkpt>
      <trkpt lat="46.4077" lon="5.7129">
        <ele>708</ele>
        <time>2022-02-28T14:06:53Z</time>
      </trkpt>
      <trkpt lat="46.40776" lon="5.71287">
        <ele>707.8</ele>
        <time>2022-02-28T14:06:54Z</time>
      </trkpt>
      <trkpt lat="46.40783" lon="5.71283">
        <ele>707.6</ele>
        <time>2022-02-28T14:06:55Z</time>
      </trkpt>
      <trkpt lat="46.40783" lon="5.71283">
        <ele>707.2</ele>
        <time>2022-02-28T14:06:56Z</time>
      </trkpt>
      <trkpt lat="46.40789" lon="5.71279">
        <ele>707</ele>
        <time>2022-02-28T14:06:57Z</time>
      </trkpt>
      <trkpt lat="46.40796" lon="5.71275">
        <ele>706.8</ele>
        <time>2022-02-28T14:06:58Z</time>
      </trkpt>
      <trkpt lat="46.40804" lon="5.71271">
        <ele>706.4</ele>
        <time>2022-02-28T14:06:59Z</time>
      </trkpt>
      <trkpt lat="46.40812" lon="5.71267">
        <ele>705.8</ele>
        <time>2022-02-28T14:07:00Z</time>
      </trkpt>
      <trkpt lat="46.4082" lon="5.71265">
        <ele>705.4</ele>
        <time>2022-02-28T14:07:01Z</time>
      </trkpt>
      <trkpt lat="46.40829" lon="5.71264">
        <ele>704.8</ele>
        <time>2022-02-28T14:07:02Z</time>
      </trkpt>
      <trkpt lat="46.40838" lon="5.71265">
        <ele>704.4</ele>
        <time>2022-02-28T14:07:03Z</time>
      </trkpt>
      <trkpt lat="46.40847" lon="5.71268">
        <ele>703.8</ele>
        <time>2022-02-28T14:07:04Z</time>
      </trkpt>
      <trkpt lat="46.40856" lon="5.71272">
        <ele>703.4</ele>
        <time>2022-02-28T14:07:05Z</time>
      </trkpt>
      <trkpt lat="46.40865" lon="5.71279">
        <ele>703</ele>
        <time>2022-02-28T14:07:06Z</time>
      </trkpt>
      <trkpt lat="46.40873" lon="5.71286">
        <ele>702.6</ele>
        <time>2022-02-28T14:07:07Z</time>
      </trkpt>
      <trkpt lat="46.40881" lon="5.71293">
        <ele>702</ele>
        <time>2022-02-28T14:07:08Z</time>
      </trkpt>
      <trkpt lat="46.4089" lon="5.71298">
        <ele>701.4</ele>
        <time>2022-02-28T14:07:09Z</time>
      </trkpt>
      <trkpt lat="46.409" lon="5.713">
        <ele>700.8</ele>
        <time>2022-02-28T14:07:10Z</time>
      </trkpt>
      <trkpt lat="46.40911" lon="5.71301">
        <ele>700.2</ele>
        <time>2022-02-28T14:07:11Z</time>
      </trkpt>
      <trkpt lat="46.40922" lon="5.713">
        <ele>699.4</ele>
        <time>2022-02-28T14:07:12Z</time>
      </trkpt>
      <trkpt lat="46.40933" lon="5.713">
        <ele>698.6</ele>
        <time>2022-02-28T14:07:13Z</time>
      </trkpt>
      <trkpt lat="46.40945" lon="5.71302">
        <ele>698</ele>
        <time>2022-02-28T14:07:14Z</time>
      </trkpt>
      <trkpt lat="46.40958" lon="5.71304">
        <ele>697.2</ele>
        <time>2022-02-28T14:07:15Z</time>
      </trkpt>
      <trkpt lat="46.4097" lon="5.71308">
        <ele>696.4</ele>
        <time>2022-02-28T14:07:16Z</time>
      </trkpt>
      <trkpt lat="46.40982" lon="5.71312">
        <ele>695.6</ele>
        <time>2022-02-28T14:07:17Z</time>
      </trkpt>
      <trkpt lat="46.40993" lon="5.71315">
        <ele>694.8</ele>
        <time>2022-02-28T14:07:18Z</time>
      </trkpt>
      <trkpt lat="46.41005" lon="5.7132">
        <ele>694</ele>
        <time>2022-02-28T14:07:19Z</time>
      </trkpt>
      <trkpt lat="46.41016" lon="5.71325">
        <ele>693.2</ele>
        <time>2022-02-28T14:07:20Z</time>
      </trkpt>
      <trkpt lat="46.41028" lon="5.71329">
        <ele>692.6</ele>
        <time>2022-02-28T14:07:21Z</time>
      </trkpt>
      <trkpt lat="46.41039" lon="5.71333">
        <ele>692</ele>
        <time>2022-02-28T14:07:22Z</time>
      </trkpt>
      <trkpt lat="46.41051" lon="5.71338">
        <ele>691.6</ele>
        <time>2022-02-28T14:07:23Z</time>
      </trkpt>
      <trkpt lat="46.41062" lon="5.71343">
        <ele>691.4</ele>
        <time>2022-02-28T14:07:24Z</time>
      </trkpt>
      <trkpt lat="46.41072" lon="5.71347">
        <ele>691</ele>
        <time>2022-02-28T14:07:25Z</time>
      </trkpt>
      <trkpt lat="46.41083" lon="5.7135">
        <ele>690.6</ele>
        <time>2022-02-28T14:07:26Z</time>
      </trkpt>
      <trkpt lat="46.41094" lon="5.71354">
        <ele>690</ele>
        <time>2022-02-28T14:07:27Z</time>
      </trkpt>
      <trkpt lat="46.41105" lon="5.71357">
        <ele>689.2</ele>
        <time>2022-02-28T14:07:28Z</time>
      </trkpt>
      <trkpt lat="46.41116" lon="5.7136">
        <ele>688.6</ele>
        <time>2022-02-28T14:07:29Z</time>
      </trkpt>
      <trkpt lat="46.41128" lon="5.71363">
        <ele>687.8</ele>
        <time>2022-02-28T14:07:30Z</time>
      </trkpt>
      <trkpt lat="46.4114" lon="5.71365">
        <ele>687</ele>
        <time>2022-02-28T14:07:31Z</time>
      </trkpt>
      <trkpt lat="46.41152" lon="5.71365">
        <ele>686</ele>
        <time>2022-02-28T14:07:32Z</time>
      </trkpt>
      <trkpt lat="46.41164" lon="5.71364">
        <ele>685.2</ele>
        <time>2022-02-28T14:07:33Z</time>
      </trkpt>
      <trkpt lat="46.41176" lon="5.71364">
        <ele>684.2</ele>
        <time>2022-02-28T14:07:34Z</time>
      </trkpt>
      <trkpt lat="46.41188" lon="5.71365">
        <ele>683.4</ele>
        <time>2022-02-28T14:07:35Z</time>
      </trkpt>
      <trkpt lat="46.41198" lon="5.71366">
        <ele>682.4</ele>
        <time>2022-02-28T14:07:36Z</time>
      </trkpt>
      <trkpt lat="46.41208" lon="5.71373">
        <ele>681.4</ele>
        <time>2022-02-28T14:07:37Z</time>
      </trkpt>
      <trkpt lat="46.41216" lon="5.71386">
        <ele>680.8</ele>
        <time>2022-02-28T14:07:38Z</time>
      </trkpt>
      <trkpt lat="46.41223" lon="5.714">
        <ele>680.2</ele>
        <time>2022-02-28T14:07:39Z</time>
      </trkpt>
      <trkpt lat="46.41227" lon="5.71417">
        <ele>679.6</ele>
        <time>2022-02-28T14:07:40Z</time>
      </trkpt>
      <trkpt lat="46.41231" lon="5.71433">
        <ele>679</ele>
        <time>2022-02-28T14:07:41Z</time>
      </trkpt>
      <trkpt lat="46.41235" lon="5.7145">
        <ele>678.4</ele>
        <time>2022-02-28T14:07:42Z</time>
      </trkpt>
      <trkpt lat="46.41239" lon="5.71466">
        <ele>677.8</ele>
        <time>2022-02-28T14:07:43Z</time>
      </trkpt>
      <trkpt lat="46.41243" lon="5.71482">
        <ele>677.4</ele>
        <time>2022-02-28T14:07:44Z</time>
      </trkpt>
      <trkpt lat="46.41246" lon="5.71496">
        <ele>677</ele>
        <time>2022-02-28T14:07:45Z</time>
      </trkpt>
      <trkpt lat="46.41249" lon="5.71511">
        <ele>676.6</ele>
        <time>2022-02-28T14:07:46Z</time>
      </trkpt>
      <trkpt lat="46.41252" lon="5.71524">
        <ele>676.4</ele>
        <time>2022-02-28T14:07:47Z</time>
      </trkpt>
      <trkpt lat="46.41256" lon="5.71537">
        <ele>676.4</ele>
        <time>2022-02-28T14:07:48Z</time>
      </trkpt>
      <trkpt lat="46.41259" lon="5.71549">
        <ele>676.2</ele>
        <time>2022-02-28T14:07:49Z</time>
      </trkpt>
      <trkpt lat="46.41262" lon="5.71561">
        <ele>676</ele>
        <time>2022-02-28T14:07:50Z</time>
      </trkpt>
      <trkpt lat="46.41264" lon="5.71574">
        <ele>676</ele>
        <time>2022-02-28T14:07:51Z</time>
      </trkpt>
      <trkpt lat="46.41266" lon="5.71587">
        <ele>675.6</ele>
        <time>2022-02-28T14:07:52Z</time>
      </trkpt>
      <trkpt lat="46.41266" lon="5.716">
        <ele>675.4</ele>
        <time>2022-02-28T14:07:53Z</time>
      </trkpt>
      <trkpt lat="46.41266" lon="5.71613">
        <ele>674.8</ele>
        <time>2022-02-28T14:07:54Z</time>
      </trkpt>
      <trkpt lat="46.41265" lon="5.71627">
        <ele>674.6</ele>
        <time>2022-02-28T14:07:55Z</time>
      </trkpt>
      <trkpt lat="46.41264" lon="5.71641">
        <ele>674.2</ele>
        <time>2022-02-28T14:07:56Z</time>
      </trkpt>
      <trkpt lat="46.41264" lon="5.71656">
        <ele>673.6</ele>
        <time>2022-02-28T14:07:57Z</time>
      </trkpt>
      <trkpt lat="46.41265" lon="5.71671">
        <ele>673.2</ele>
        <time>2022-02-28T14:07:58Z</time>
      </trkpt>
      <trkpt lat="46.41267" lon="5.71686">
        <ele>672.8</ele>
        <time>2022-02-28T14:07:59Z</time>
      </trkpt>
      <trkpt lat="46.41271" lon="5.71699">
        <ele>672.2</ele>
        <time>2022-02-28T14:08:00Z</time>
      </trkpt>
      <trkpt lat="46.41277" lon="5.7171">
        <ele>671.8</ele>
        <time>2022-02-28T14:08:01Z</time>
      </trkpt>
      <trkpt lat="46.41285" lon="5.71719">
        <ele>671.6</ele>
        <time>2022-02-28T14:08:02Z</time>
      </trkpt>
      <trkpt lat="46.41294" lon="5.71726">
        <ele>671.4</ele>
        <time>2022-02-28T14:08:03Z</time>
      </trkpt>
      <trkpt lat="46.41302" lon="5.71735">
        <ele>671.4</ele>
        <time>2022-02-28T14:08:04Z</time>
      </trkpt>
      <trkpt lat="46.4131" lon="5.71746">
        <ele>671.2</ele>
        <time>2022-02-28T14:08:05Z</time>
      </trkpt>
      <trkpt lat="46.41317" lon="5.71756">
        <ele>671.2</ele>
        <time>2022-02-28T14:08:06Z</time>
      </trkpt>
      <trkpt lat="46.41325" lon="5.71765">
        <ele>671.2</ele>
        <time>2022-02-28T14:08:07Z</time>
      </trkpt>
      <trkpt lat="46.41333" lon="5.71772">
        <ele>671.2</ele>
        <time>2022-02-28T14:08:08Z</time>
      </trkpt>
      <trkpt lat="46.4134" lon="5.71779">
        <ele>671.2</ele>
        <time>2022-02-28T14:08:09Z</time>
      </trkpt>
      <trkpt lat="46.41346" lon="5.71787">
        <ele>671.2</ele>
        <time>2022-02-28T14:08:10Z</time>
      </trkpt>
      <trkpt lat="46.41351" lon="5.71795">
        <ele>671.2</ele>
        <time>2022-02-28T14:08:11Z</time>
      </trkpt>
      <trkpt lat="46.41355" lon="5.71805">
        <ele>671.2</ele>
        <time>2022-02-28T14:08:12Z</time>
      </trkpt>
      <trkpt lat="46.41359" lon="5.71815">
        <ele>671.2</ele>
        <time>2022-02-28T14:08:13Z</time>
      </trkpt>
      <trkpt lat="46.41363" lon="5.71826">
        <ele>671.2</ele>
        <time>2022-02-28T14:08:14Z</time>
      </trkpt>
      <trkpt lat="46.41366" lon="5.71838">
        <ele>671.2</ele>
        <time>2022-02-28T14:08:15Z</time>
      </trkpt>
      <trkpt lat="46.41369" lon="5.71849">
        <ele>671.2</ele>
        <time>2022-02-28T14:08:16Z</time>
      </trkpt>
      <trkpt lat="46.41371" lon="5.71859">
        <ele>671.2</ele>
        <time>2022-02-28T14:08:17Z</time>
      </trkpt>
      <trkpt lat="46.41373" lon="5.7187">
        <ele>671.2</ele>
        <time>2022-02-28T14:08:18Z</time>
      </trkpt>
      <trkpt lat="46.41374" lon="5.71893">
        <ele>671.2</ele>
        <time>2022-02-28T14:08:19Z</time>
      </trkpt>
      <trkpt lat="46.41373" lon="5.71903">
        <ele>671.2</ele>
        <time>2022-02-28T14:08:20Z</time>
      </trkpt>
      <trkpt lat="46.41371" lon="5.71914">
        <ele>671.2</ele>
        <time>2022-02-28T14:08:21Z</time>
      </trkpt>
      <trkpt lat="46.41367" lon="5.71924">
        <ele>671.2</ele>
        <time>2022-02-28T14:08:22Z</time>
      </trkpt>
      <trkpt lat="46.41364" lon="5.71934">
        <ele>671.2</ele>
        <time>2022-02-28T14:08:23Z</time>
      </trkpt>
      <trkpt lat="46.41361" lon="5.71943">
        <ele>671.2</ele>
        <time>2022-02-28T14:08:24Z</time>
      </trkpt>
      <trkpt lat="46.41357" lon="5.71953">
        <ele>671.2</ele>
        <time>2022-02-28T14:08:25Z</time>
      </trkpt>
      <trkpt lat="46.41354" lon="5.71962">
        <ele>671.2</ele>
        <time>2022-02-28T14:08:26Z</time>
      </trkpt>
      <trkpt lat="46.41351" lon="5.71971">
        <ele>671.2</ele>
        <time>2022-02-28T14:08:27Z</time>
      </trkpt>
      <trkpt lat="46.41347" lon="5.71981">
        <ele>671.2</ele>
        <time>2022-02-28T14:08:28Z</time>
      </trkpt>
      <trkpt lat="46.41344" lon="5.7199">
        <ele>671.2</ele>
        <time>2022-02-28T14:08:29Z</time>
      </trkpt>
      <trkpt lat="46.41341" lon="5.72">
        <ele>671.2</ele>
        <time>2022-02-28T14:08:30Z</time>
      </trkpt>
      <trkpt lat="46.41338" lon="5.7201">
        <ele>671.2</ele>
        <time>2022-02-28T14:08:31Z</time>
      </trkpt>
      <trkpt lat="46.41335" lon="5.7202">
        <ele>671.2</ele>
        <time>2022-02-28T14:08:32Z</time>
      </trkpt>
      <trkpt lat="46.41332" lon="5.72031">
        <ele>670.8</ele>
        <time>2022-02-28T14:08:33Z</time>
      </trkpt>
      <trkpt lat="46.41329" lon="5.72041">
        <ele>670.6</ele>
        <time>2022-02-28T14:08:34Z</time>
      </trkpt>
      <trkpt lat="46.41327" lon="5.72053">
        <ele>670.2</ele>
        <time>2022-02-28T14:08:35Z</time>
      </trkpt>
      <trkpt lat="46.41325" lon="5.72064">
        <ele>670</ele>
        <time>2022-02-28T14:08:36Z</time>
      </trkpt>
      <trkpt lat="46.41322" lon="5.72076">
        <ele>669.8</ele>
        <time>2022-02-28T14:08:37Z</time>
      </trkpt>
      <trkpt lat="46.4132" lon="5.72088">
        <ele>669.4</ele>
        <time>2022-02-28T14:08:38Z</time>
      </trkpt>
      <trkpt lat="46.41318" lon="5.721">
        <ele>669</ele>
        <time>2022-02-28T14:08:39Z</time>
      </trkpt>
      <trkpt lat="46.41316" lon="5.72113">
        <ele>668.6</ele>
        <time>2022-02-28T14:08:40Z</time>
      </trkpt>
      <trkpt lat="46.41314" lon="5.72126">
        <ele>668.4</ele>
        <time>2022-02-28T14:08:41Z</time>
      </trkpt>
      <trkpt lat="46.41312" lon="5.72138">
        <ele>668.2</ele>
        <time>2022-02-28T14:08:42Z</time>
      </trkpt>
      <trkpt lat="46.4131" lon="5.72151">
        <ele>667.6</ele>
        <time>2022-02-28T14:08:43Z</time>
      </trkpt>
      <trkpt lat="46.41308" lon="5.72165">
        <ele>667.2</ele>
        <time>2022-02-28T14:08:44Z</time>
      </trkpt>
      <trkpt lat="46.41305" lon="5.72178">
        <ele>666.8</ele>
        <time>2022-02-28T14:08:45Z</time>
      </trkpt>
      <trkpt lat="46.41302" lon="5.72191">
        <ele>666.4</ele>
        <time>2022-02-28T14:08:46Z</time>
      </trkpt>
      <trkpt lat="46.41299" lon="5.72205">
        <ele>666</ele>
        <time>2022-02-28T14:08:47Z</time>
      </trkpt>
      <trkpt lat="46.41296" lon="5.72218">
        <ele>665.8</ele>
        <time>2022-02-28T14:08:48Z</time>
      </trkpt>
      <trkpt lat="46.41293" lon="5.72231">
        <ele>665.4</ele>
        <time>2022-02-28T14:08:49Z</time>
      </trkpt>
      <trkpt lat="46.41289" lon="5.72244">
        <ele>665.4</ele>
        <time>2022-02-28T14:08:50Z</time>
      </trkpt>
      <trkpt lat="46.41285" lon="5.72258">
        <ele>665</ele>
        <time>2022-02-28T14:08:51Z</time>
      </trkpt>
      <trkpt lat="46.41283" lon="5.72272">
        <ele>665</ele>
        <time>2022-02-28T14:08:52Z</time>
      </trkpt>
      <trkpt lat="46.41282" lon="5.72285">
        <ele>664.8</ele>
        <time>2022-02-28T14:08:53Z</time>
      </trkpt>
      <trkpt lat="46.41285" lon="5.72297">
        <ele>664.8</ele>
        <time>2022-02-28T14:08:54Z</time>
      </trkpt>
      <trkpt lat="46.4129" lon="5.72307">
        <ele>664.8</ele>
        <time>2022-02-28T14:08:55Z</time>
      </trkpt>
      <trkpt lat="46.41295" lon="5.72316">
        <ele>665.2</ele>
        <time>2022-02-28T14:08:56Z</time>
      </trkpt>
      <trkpt lat="46.413" lon="5.72325">
        <ele>665.2</ele>
        <time>2022-02-28T14:08:57Z</time>
      </trkpt>
      <trkpt lat="46.41304" lon="5.72335">
        <ele>665.2</ele>
        <time>2022-02-28T14:08:58Z</time>
      </trkpt>
      <trkpt lat="46.41306" lon="5.72345">
        <ele>665.4</ele>
        <time>2022-02-28T14:09:00Z</time>
      </trkpt>
      <trkpt lat="46.41308" lon="5.72356">
        <ele>665.8</ele>
        <time>2022-02-28T14:09:01Z</time>
      </trkpt>
      <trkpt lat="46.41309" lon="5.72366">
        <ele>665.8</ele>
        <time>2022-02-28T14:09:02Z</time>
      </trkpt>
      <trkpt lat="46.41311" lon="5.72374">
        <ele>666.2</ele>
        <time>2022-02-28T14:09:03Z</time>
      </trkpt>
      <trkpt lat="46.41314" lon="5.72381">
        <ele>666.2</ele>
        <time>2022-02-28T14:09:04Z</time>
      </trkpt>
      <trkpt lat="46.41318" lon="5.72387">
        <ele>666.4</ele>
        <time>2022-02-28T14:09:05Z</time>
      </trkpt>
      <trkpt lat="46.41322" lon="5.72392">
        <ele>666.4</ele>
        <time>2022-02-28T14:09:06Z</time>
      </trkpt>
      <trkpt lat="46.41327" lon="5.72396">
        <ele>666.6</ele>
        <time>2022-02-28T14:09:07Z</time>
      </trkpt>
      <trkpt lat="46.41332" lon="5.72399">
        <ele>666.6</ele>
        <time>2022-02-28T14:09:08Z</time>
      </trkpt>
      <trkpt lat="46.41337" lon="5.72401">
        <ele>667</ele>
        <time>2022-02-28T14:09:09Z</time>
      </trkpt>
      <trkpt lat="46.41343" lon="5.72402">
        <ele>667</ele>
        <time>2022-02-28T14:09:10Z</time>
      </trkpt>
      <trkpt lat="46.41349" lon="5.724">
        <ele>667</ele>
        <time>2022-02-28T14:09:11Z</time>
      </trkpt>
      <trkpt lat="46.41354" lon="5.72397">
        <ele>667</ele>
        <time>2022-02-28T14:09:12Z</time>
      </trkpt>
      <trkpt lat="46.4136" lon="5.72391">
        <ele>667</ele>
        <time>2022-02-28T14:09:13Z</time>
      </trkpt>
      <trkpt lat="46.41365" lon="5.72385">
        <ele>666.6</ele>
        <time>2022-02-28T14:09:14Z</time>
      </trkpt>
      <trkpt lat="46.4137" lon="5.72378">
        <ele>666.6</ele>
        <time>2022-02-28T14:09:15Z</time>
      </trkpt>
      <trkpt lat="46.41375" lon="5.72371">
        <ele>666.2</ele>
        <time>2022-02-28T14:09:16Z</time>
      </trkpt>
      <trkpt lat="46.41382" lon="5.72366">
        <ele>666</ele>
        <time>2022-02-28T14:09:17Z</time>
      </trkpt>
      <trkpt lat="46.4139" lon="5.72364">
        <ele>665.8</ele>
        <time>2022-02-28T14:09:18Z</time>
      </trkpt>
      <trkpt lat="46.41398" lon="5.72364">
        <ele>665.8</ele>
        <time>2022-02-28T14:09:19Z</time>
      </trkpt>
      <trkpt lat="46.41406" lon="5.72365">
        <ele>665.4</ele>
        <time>2022-02-28T14:09:20Z</time>
      </trkpt>
      <trkpt lat="46.41414" lon="5.72365">
        <ele>665</ele>
        <time>2022-02-28T14:09:21Z</time>
      </trkpt>
      <trkpt lat="46.41423" lon="5.72364">
        <ele>665</ele>
        <time>2022-02-28T14:09:22Z</time>
      </trkpt>
      <trkpt lat="46.41431" lon="5.72363">
        <ele>664.6</ele>
        <time>2022-02-28T14:09:23Z</time>
      </trkpt>
      <trkpt lat="46.4144" lon="5.7236">
        <ele>664.4</ele>
        <time>2022-02-28T14:09:24Z</time>
      </trkpt>
      <trkpt lat="46.41448" lon="5.72357">
        <ele>664</ele>
        <time>2022-02-28T14:09:25Z</time>
      </trkpt>
      <trkpt lat="46.41457" lon="5.72352">
        <ele>663.8</ele>
        <time>2022-02-28T14:09:26Z</time>
      </trkpt>
      <trkpt lat="46.41466" lon="5.72347">
        <ele>663.2</ele>
        <time>2022-02-28T14:09:27Z</time>
      </trkpt>
      <trkpt lat="46.41475" lon="5.72342">
        <ele>663</ele>
        <time>2022-02-28T14:09:28Z</time>
      </trkpt>
      <trkpt lat="46.41484" lon="5.72337">
        <ele>662.4</ele>
        <time>2022-02-28T14:09:29Z</time>
      </trkpt>
      <trkpt lat="46.41493" lon="5.72331">
        <ele>661.8</ele>
        <time>2022-02-28T14:09:30Z</time>
      </trkpt>
      <trkpt lat="46.41501" lon="5.72325">
        <ele>661.2</ele>
        <time>2022-02-28T14:09:31Z</time>
      </trkpt>
      <trkpt lat="46.41511" lon="5.72319">
        <ele>660.6</ele>
        <time>2022-02-28T14:09:32Z</time>
      </trkpt>
      <trkpt lat="46.41521" lon="5.72315">
        <ele>659.8</ele>
        <time>2022-02-28T14:09:33Z</time>
      </trkpt>
      <trkpt lat="46.41531" lon="5.7231">
        <ele>659.2</ele>
        <time>2022-02-28T14:09:34Z</time>
      </trkpt>
      <trkpt lat="46.41542" lon="5.72308">
        <ele>658.4</ele>
        <time>2022-02-28T14:09:35Z</time>
      </trkpt>
      <trkpt lat="46.41552" lon="5.72307">
        <ele>657.8</ele>
        <time>2022-02-28T14:09:36Z</time>
      </trkpt>
      <trkpt lat="46.41563" lon="5.72307">
        <ele>657</ele>
        <time>2022-02-28T14:09:37Z</time>
      </trkpt>
      <trkpt lat="46.41575" lon="5.72307">
        <ele>656.2</ele>
        <time>2022-02-28T14:09:38Z</time>
      </trkpt>
      <trkpt lat="46.41586" lon="5.72307">
        <ele>655.4</ele>
        <time>2022-02-28T14:09:39Z</time>
      </trkpt>
      <trkpt lat="46.41598" lon="5.7231">
        <ele>654.4</ele>
        <time>2022-02-28T14:09:40Z</time>
      </trkpt>
      <trkpt lat="46.41609" lon="5.72313">
        <ele>654</ele>
        <time>2022-02-28T14:09:41Z</time>
      </trkpt>
      <trkpt lat="46.4162" lon="5.72316">
        <ele>653.4</ele>
        <time>2022-02-28T14:09:42Z</time>
      </trkpt>
      <trkpt lat="46.41632" lon="5.72318">
        <ele>652.8</ele>
        <time>2022-02-28T14:09:43Z</time>
      </trkpt>
      <trkpt lat="46.41643" lon="5.7232">
        <ele>652.2</ele>
        <time>2022-02-28T14:09:44Z</time>
      </trkpt>
      <trkpt lat="46.41654" lon="5.72323">
        <ele>651.6</ele>
        <time>2022-02-28T14:09:45Z</time>
      </trkpt>
      <trkpt lat="46.41665" lon="5.72325">
        <ele>651.2</ele>
        <time>2022-02-28T14:09:46Z</time>
      </trkpt>
      <trkpt lat="46.41676" lon="5.72327">
        <ele>650.6</ele>
        <time>2022-02-28T14:09:47Z</time>
      </trkpt>
      <trkpt lat="46.41687" lon="5.7233">
        <ele>650.2</ele>
        <time>2022-02-28T14:09:48Z</time>
      </trkpt>
      <trkpt lat="46.41699" lon="5.72333">
        <ele>650</ele>
        <time>2022-02-28T14:09:49Z</time>
      </trkpt>
      <trkpt lat="46.4171" lon="5.72336">
        <ele>649.6</ele>
        <time>2022-02-28T14:09:50Z</time>
      </trkpt>
      <trkpt lat="46.41719" lon="5.72339">
        <ele>649.6</ele>
        <time>2022-02-28T14:09:51Z</time>
      </trkpt>
      <trkpt lat="46.41728" lon="5.72341">
        <ele>649</ele>
        <time>2022-02-28T14:09:52Z</time>
      </trkpt>
      <trkpt lat="46.41738" lon="5.72343">
        <ele>649</ele>
        <time>2022-02-28T14:09:53Z</time>
      </trkpt>
      <trkpt lat="46.41747" lon="5.72345">
        <ele>648.6</ele>
        <time>2022-02-28T14:09:54Z</time>
      </trkpt>
      <trkpt lat="46.41756" lon="5.72347">
        <ele>648.4</ele>
        <time>2022-02-28T14:09:55Z</time>
      </trkpt>
      <trkpt lat="46.41766" lon="5.72348">
        <ele>648.4</ele>
        <time>2022-02-28T14:09:56Z</time>
      </trkpt>
      <trkpt lat="46.41775" lon="5.72349">
        <ele>648.2</ele>
        <time>2022-02-28T14:09:57Z</time>
      </trkpt>
      <trkpt lat="46.41783" lon="5.72351">
        <ele>648.2</ele>
        <time>2022-02-28T14:09:58Z</time>
      </trkpt>
      <trkpt lat="46.418" lon="5.72355">
        <ele>647.8</ele>
        <time>2022-02-28T14:09:59Z</time>
      </trkpt>
      <trkpt lat="46.41808" lon="5.72357">
        <ele>647.8</ele>
        <time>2022-02-28T14:10:00Z</time>
      </trkpt>
      <trkpt lat="46.41815" lon="5.72359">
        <ele>647.6</ele>
        <time>2022-02-28T14:10:01Z</time>
      </trkpt>
      <trkpt lat="46.41823" lon="5.72361">
        <ele>647.6</ele>
        <time>2022-02-28T14:10:02Z</time>
      </trkpt>
      <trkpt lat="46.41831" lon="5.72363">
        <ele>647.6</ele>
        <time>2022-02-28T14:10:03Z</time>
      </trkpt>
      <trkpt lat="46.41838" lon="5.72365">
        <ele>647.4</ele>
        <time>2022-02-28T14:10:04Z</time>
      </trkpt>
      <trkpt lat="46.41845" lon="5.72366">
        <ele>647.4</ele>
        <time>2022-02-28T14:10:05Z</time>
      </trkpt>
      <trkpt lat="46.41853" lon="5.72368">
        <ele>647</ele>
        <time>2022-02-28T14:10:06Z</time>
      </trkpt>
      <trkpt lat="46.4186" lon="5.7237">
        <ele>647</ele>
        <time>2022-02-28T14:10:07Z</time>
      </trkpt>
      <trkpt lat="46.41867" lon="5.72372">
        <ele>647</ele>
        <time>2022-02-28T14:10:08Z</time>
      </trkpt>
      <trkpt lat="46.41875" lon="5.72373">
        <ele>647</ele>
        <time>2022-02-28T14:10:09Z</time>
      </trkpt>
      <trkpt lat="46.41882" lon="5.72375">
        <ele>646.8</ele>
        <time>2022-02-28T14:10:10Z</time>
      </trkpt>
      <trkpt lat="46.41889" lon="5.72377">
        <ele>646.8</ele>
        <time>2022-02-28T14:10:11Z</time>
      </trkpt>
      <trkpt lat="46.41893" lon="5.72378">
        <ele>646.8</ele>
        <time>2022-02-28T14:10:12Z</time>
      </trkpt>
      <trkpt lat="46.41896" lon="5.72379">
        <ele>646.8</ele>
        <time>2022-02-28T14:10:13Z</time>
      </trkpt>
      <trkpt lat="46.41904" lon="5.72381">
        <ele>646.6</ele>
        <time>2022-02-28T14:10:14Z</time>
      </trkpt>
      <trkpt lat="46.41911" lon="5.72383">
        <ele>646.6</ele>
        <time>2022-02-28T14:10:15Z</time>
      </trkpt>
      <trkpt lat="46.41918" lon="5.72385">
        <ele>646.2</ele>
        <time>2022-02-28T14:10:16Z</time>
      </trkpt>
      <trkpt lat="46.41926" lon="5.72387">
        <ele>646.2</ele>
        <time>2022-02-28T14:10:17Z</time>
      </trkpt>
      <trkpt lat="46.41933" lon="5.72388">
        <ele>646.2</ele>
        <time>2022-02-28T14:10:18Z</time>
      </trkpt>
      <trkpt lat="46.4194" lon="5.7239">
        <ele>646.2</ele>
        <time>2022-02-28T14:10:19Z</time>
      </trkpt>
      <trkpt lat="46.41947" lon="5.72392">
        <ele>645.8</ele>
        <time>2022-02-28T14:10:20Z</time>
      </trkpt>
      <trkpt lat="46.41954" lon="5.72394">
        <ele>645.8</ele>
        <time>2022-02-28T14:10:21Z</time>
      </trkpt>
      <trkpt lat="46.41961" lon="5.72396">
        <ele>645.6</ele>
        <time>2022-02-28T14:10:22Z</time>
      </trkpt>
      <trkpt lat="46.41968" lon="5.72398">
        <ele>645.6</ele>
        <time>2022-02-28T14:10:23Z</time>
      </trkpt>
      <trkpt lat="46.41975" lon="5.72401">
        <ele>645.6</ele>
        <time>2022-02-28T14:10:24Z</time>
      </trkpt>
      <trkpt lat="46.41982" lon="5.72403">
        <ele>645.6</ele>
        <time>2022-02-28T14:10:25Z</time>
      </trkpt>
      <trkpt lat="46.41988" lon="5.72405">
        <ele>645.6</ele>
        <time>2022-02-28T14:10:26Z</time>
      </trkpt>
      <trkpt lat="46.41995" lon="5.72408">
        <ele>645.6</ele>
        <time>2022-02-28T14:10:27Z</time>
      </trkpt>
      <trkpt lat="46.42001" lon="5.7241">
        <ele>645.4</ele>
        <time>2022-02-28T14:10:28Z</time>
      </trkpt>
      <trkpt lat="46.42008" lon="5.72412">
        <ele>645.4</ele>
        <time>2022-02-28T14:10:29Z</time>
      </trkpt>
      <trkpt lat="46.42014" lon="5.72414">
        <ele>645.4</ele>
        <time>2022-02-28T14:10:30Z</time>
      </trkpt>
      <trkpt lat="46.4202" lon="5.72416">
        <ele>645.4</ele>
        <time>2022-02-28T14:10:31Z</time>
      </trkpt>
      <trkpt lat="46.42026" lon="5.72418">
        <ele>645.4</ele>
        <time>2022-02-28T14:10:32Z</time>
      </trkpt>
      <trkpt lat="46.42032" lon="5.72419">
        <ele>645.4</ele>
        <time>2022-02-28T14:10:33Z</time>
      </trkpt>
      <trkpt lat="46.42038" lon="5.72421">
        <ele>645.4</ele>
        <time>2022-02-28T14:10:34Z</time>
      </trkpt>
      <trkpt lat="46.42044" lon="5.72423">
        <ele>645.4</ele>
        <time>2022-02-28T14:10:35Z</time>
      </trkpt>
      <trkpt lat="46.4205" lon="5.72425">
        <ele>645.4</ele>
        <time>2022-02-28T14:10:36Z</time>
      </trkpt>
      <trkpt lat="46.42056" lon="5.72426">
        <ele>645.4</ele>
        <time>2022-02-28T14:10:37Z</time>
      </trkpt>
      <trkpt lat="46.42062" lon="5.72428">
        <ele>645.4</ele>
        <time>2022-02-28T14:10:38Z</time>
      </trkpt>
      <trkpt lat="46.42067" lon="5.7243">
        <ele>645.6</ele>
        <time>2022-02-28T14:10:39Z</time>
      </trkpt>
      <trkpt lat="46.42073" lon="5.72431">
        <ele>645.6</ele>
        <time>2022-02-28T14:10:40Z</time>
      </trkpt>
      <trkpt lat="46.42079" lon="5.72433">
        <ele>645.6</ele>
        <time>2022-02-28T14:10:41Z</time>
      </trkpt>
      <trkpt lat="46.42085" lon="5.72434">
        <ele>646</ele>
        <time>2022-02-28T14:10:42Z</time>
      </trkpt>
      <trkpt lat="46.42091" lon="5.72436">
        <ele>646</ele>
        <time>2022-02-28T14:10:43Z</time>
      </trkpt>
      <trkpt lat="46.42096" lon="5.72438">
        <ele>646</ele>
        <time>2022-02-28T14:10:44Z</time>
      </trkpt>
      <trkpt lat="46.42102" lon="5.7244">
        <ele>646</ele>
        <time>2022-02-28T14:10:45Z</time>
      </trkpt>
      <trkpt lat="46.42108" lon="5.72441">
        <ele>646.2</ele>
        <time>2022-02-28T14:10:46Z</time>
      </trkpt>
      <trkpt lat="46.42115" lon="5.72443">
        <ele>646.2</ele>
        <time>2022-02-28T14:10:47Z</time>
      </trkpt>
      <trkpt lat="46.4212" lon="5.72445">
        <ele>646.2</ele>
        <time>2022-02-28T14:10:48Z</time>
      </trkpt>
      <trkpt lat="46.42127" lon="5.72446">
        <ele>646.2</ele>
        <time>2022-02-28T14:10:49Z</time>
      </trkpt>
      <trkpt lat="46.42133" lon="5.72448">
        <ele>646.2</ele>
        <time>2022-02-28T14:10:50Z</time>
      </trkpt>
      <trkpt lat="46.42139" lon="5.7245">
        <ele>646.2</ele>
        <time>2022-02-28T14:10:51Z</time>
      </trkpt>
      <trkpt lat="46.42145" lon="5.72452">
        <ele>646.2</ele>
        <time>2022-02-28T14:10:52Z</time>
      </trkpt>
      <trkpt lat="46.42152" lon="5.72453">
        <ele>646.2</ele>
        <time>2022-02-28T14:10:53Z</time>
      </trkpt>
      <trkpt lat="46.42158" lon="5.72455">
        <ele>646.2</ele>
        <time>2022-02-28T14:10:54Z</time>
      </trkpt>
      <trkpt lat="46.42165" lon="5.72457">
        <ele>646</ele>
        <time>2022-02-28T14:10:55Z</time>
      </trkpt>
      <trkpt lat="46.42171" lon="5.72458">
        <ele>646</ele>
        <time>2022-02-28T14:10:56Z</time>
      </trkpt>
      <trkpt lat="46.42178" lon="5.7246">
        <ele>645.6</ele>
        <time>2022-02-28T14:10:57Z</time>
      </trkpt>
      <trkpt lat="46.42185" lon="5.72461">
        <ele>645.6</ele>
        <time>2022-02-28T14:10:58Z</time>
      </trkpt>
      <trkpt lat="46.42192" lon="5.72462">
        <ele>645.4</ele>
        <time>2022-02-28T14:10:59Z</time>
      </trkpt>
      <trkpt lat="46.42199" lon="5.72464">
        <ele>645.4</ele>
        <time>2022-02-28T14:11:00Z</time>
      </trkpt>
      <trkpt lat="46.42205" lon="5.72465">
        <ele>645.4</ele>
        <time>2022-02-28T14:11:01Z</time>
      </trkpt>
      <trkpt lat="46.42213" lon="5.72466">
        <ele>645</ele>
        <time>2022-02-28T14:11:02Z</time>
      </trkpt>
      <trkpt lat="46.4222" lon="5.72468">
        <ele>645</ele>
        <time>2022-02-28T14:11:03Z</time>
      </trkpt>
      <trkpt lat="46.42227" lon="5.72469">
        <ele>644.8</ele>
        <time>2022-02-28T14:11:04Z</time>
      </trkpt>
      <trkpt lat="46.42234" lon="5.72471">
        <ele>644.4</ele>
        <time>2022-02-28T14:11:05Z</time>
      </trkpt>
      <trkpt lat="46.42242" lon="5.72472">
        <ele>644.2</ele>
        <time>2022-02-28T14:11:06Z</time>
      </trkpt>
      <trkpt lat="46.42249" lon="5.72473">
        <ele>643.8</ele>
        <time>2022-02-28T14:11:07Z</time>
      </trkpt>
      <trkpt lat="46.42257" lon="5.72475">
        <ele>643.6</ele>
        <time>2022-02-28T14:11:08Z</time>
      </trkpt>
      <trkpt lat="46.42264" lon="5.72477">
        <ele>643.4</ele>
        <time>2022-02-28T14:11:09Z</time>
      </trkpt>
      <trkpt lat="46.42272" lon="5.72478">
        <ele>643</ele>
        <time>2022-02-28T14:11:10Z</time>
      </trkpt>
      <trkpt lat="46.42279" lon="5.7248">
        <ele>642.8</ele>
        <time>2022-02-28T14:11:11Z</time>
      </trkpt>
      <trkpt lat="46.42287" lon="5.72482">
        <ele>642.6</ele>
        <time>2022-02-28T14:11:12Z</time>
      </trkpt>
      <trkpt lat="46.42295" lon="5.72484">
        <ele>642.4</ele>
        <time>2022-02-28T14:11:13Z</time>
      </trkpt>
      <trkpt lat="46.42303" lon="5.72486">
        <ele>642.2</ele>
        <time>2022-02-28T14:11:14Z</time>
      </trkpt>
      <trkpt lat="46.4231" lon="5.72488">
        <ele>642.2</ele>
        <time>2022-02-28T14:11:15Z</time>
      </trkpt>
      <trkpt lat="46.42318" lon="5.72489">
        <ele>641.8</ele>
        <time>2022-02-28T14:11:16Z</time>
      </trkpt>
      <trkpt lat="46.42326" lon="5.72491">
        <ele>641.8</ele>
        <time>2022-02-28T14:11:17Z</time>
      </trkpt>
      <trkpt lat="46.42333" lon="5.72493">
        <ele>641.4</ele>
        <time>2022-02-28T14:11:18Z</time>
      </trkpt>
      <trkpt lat="46.4234" lon="5.72494">
        <ele>641.2</ele>
        <time>2022-02-28T14:11:19Z</time>
      </trkpt>
      <trkpt lat="46.42348" lon="5.72495">
        <ele>641.2</ele>
        <time>2022-02-28T14:11:20Z</time>
      </trkpt>
      <trkpt lat="46.42355" lon="5.72497">
        <ele>641</ele>
        <time>2022-02-28T14:11:21Z</time>
      </trkpt>
      <trkpt lat="46.42362" lon="5.72499">
        <ele>640.8</ele>
        <time>2022-02-28T14:11:22Z</time>
      </trkpt>
      <trkpt lat="46.42369" lon="5.72501">
        <ele>640.6</ele>
        <time>2022-02-28T14:11:23Z</time>
      </trkpt>
      <trkpt lat="46.42377" lon="5.72502">
        <ele>640.2</ele>
        <time>2022-02-28T14:11:24Z</time>
      </trkpt>
      <trkpt lat="46.42384" lon="5.72504">
        <ele>640.2</ele>
        <time>2022-02-28T14:11:25Z</time>
      </trkpt>
      <trkpt lat="46.42392" lon="5.72505">
        <ele>640</ele>
        <time>2022-02-28T14:11:26Z</time>
      </trkpt>
      <trkpt lat="46.424" lon="5.72507">
        <ele>640</ele>
        <time>2022-02-28T14:11:27Z</time>
      </trkpt>
      <trkpt lat="46.42407" lon="5.72508">
        <ele>639.6</ele>
        <time>2022-02-28T14:11:28Z</time>
      </trkpt>
      <trkpt lat="46.42415" lon="5.7251">
        <ele>639.6</ele>
        <time>2022-02-28T14:11:29Z</time>
      </trkpt>
      <trkpt lat="46.42423" lon="5.72512">
        <ele>639.6</ele>
        <time>2022-02-28T14:11:30Z</time>
      </trkpt>
      <trkpt lat="46.42431" lon="5.72513">
        <ele>639.2</ele>
        <time>2022-02-28T14:11:31Z</time>
      </trkpt>
      <trkpt lat="46.42438" lon="5.72515">
        <ele>639</ele>
        <time>2022-02-28T14:11:32Z</time>
      </trkpt>
      <trkpt lat="46.42446" lon="5.72517">
        <ele>638.6</ele>
        <time>2022-02-28T14:11:33Z</time>
      </trkpt>
      <trkpt lat="46.42453" lon="5.72518">
        <ele>638.4</ele>
        <time>2022-02-28T14:11:34Z</time>
      </trkpt>
      <trkpt lat="46.42461" lon="5.7252">
        <ele>638.4</ele>
        <time>2022-02-28T14:11:35Z</time>
      </trkpt>
      <trkpt lat="46.42468" lon="5.72521">
        <ele>638</ele>
        <time>2022-02-28T14:11:36Z</time>
      </trkpt>
      <trkpt lat="46.42475" lon="5.72523">
        <ele>638</ele>
        <time>2022-02-28T14:11:37Z</time>
      </trkpt>
      <trkpt lat="46.42482" lon="5.72525">
        <ele>637.6</ele>
        <time>2022-02-28T14:11:38Z</time>
      </trkpt>
      <trkpt lat="46.42489" lon="5.72526">
        <ele>637.6</ele>
        <time>2022-02-28T14:11:39Z</time>
      </trkpt>
      <trkpt lat="46.42497" lon="5.72528">
        <ele>637.4</ele>
        <time>2022-02-28T14:11:40Z</time>
      </trkpt>
      <trkpt lat="46.42504" lon="5.7253">
        <ele>637.4</ele>
        <time>2022-02-28T14:11:41Z</time>
      </trkpt>
      <trkpt lat="46.42511" lon="5.72531">
        <ele>637.2</ele>
        <time>2022-02-28T14:11:42Z</time>
      </trkpt>
      <trkpt lat="46.42518" lon="5.72533">
        <ele>637.2</ele>
        <time>2022-02-28T14:11:43Z</time>
      </trkpt>
      <trkpt lat="46.42525" lon="5.72534">
        <ele>637.2</ele>
        <time>2022-02-28T14:11:44Z</time>
      </trkpt>
      <trkpt lat="46.42533" lon="5.72536">
        <ele>637.2</ele>
        <time>2022-02-28T14:11:45Z</time>
      </trkpt>
      <trkpt lat="46.4254" lon="5.72537">
        <ele>636.8</ele>
        <time>2022-02-28T14:11:46Z</time>
      </trkpt>
      <trkpt lat="46.42547" lon="5.72538">
        <ele>636.8</ele>
        <time>2022-02-28T14:11:47Z</time>
      </trkpt>
      <trkpt lat="46.42554" lon="5.72539">
        <ele>636.6</ele>
        <time>2022-02-28T14:11:48Z</time>
      </trkpt>
      <trkpt lat="46.42561" lon="5.72541">
        <ele>636.6</ele>
        <time>2022-02-28T14:11:49Z</time>
      </trkpt>
      <trkpt lat="46.42568" lon="5.72542">
        <ele>636.4</ele>
        <time>2022-02-28T14:11:50Z</time>
      </trkpt>
      <trkpt lat="46.42575" lon="5.72543">
        <ele>636.4</ele>
        <time>2022-02-28T14:11:51Z</time>
      </trkpt>
      <trkpt lat="46.42582" lon="5.72544">
        <ele>636.4</ele>
        <time>2022-02-28T14:11:52Z</time>
      </trkpt>
      <trkpt lat="46.42589" lon="5.72545">
        <ele>636.4</ele>
        <time>2022-02-28T14:11:53Z</time>
      </trkpt>
      <trkpt lat="46.42596" lon="5.72546">
        <ele>636.2</ele>
        <time>2022-02-28T14:11:54Z</time>
      </trkpt>
      <trkpt lat="46.42602" lon="5.72547">
        <ele>636.2</ele>
        <time>2022-02-28T14:11:55Z</time>
      </trkpt>
      <trkpt lat="46.42609" lon="5.72548">
        <ele>636.2</ele>
        <time>2022-02-28T14:11:56Z</time>
      </trkpt>
      <trkpt lat="46.42615" lon="5.7255">
        <ele>636.2</ele>
        <time>2022-02-28T14:11:57Z</time>
      </trkpt>
      <trkpt lat="46.42621" lon="5.72551">
        <ele>636.2</ele>
        <time>2022-02-28T14:11:58Z</time>
      </trkpt>
      <trkpt lat="46.42628" lon="5.72552">
        <ele>635.8</ele>
        <time>2022-02-28T14:11:59Z</time>
      </trkpt>
      <trkpt lat="46.42634" lon="5.72553">
        <ele>635.8</ele>
        <time>2022-02-28T14:12:00Z</time>
      </trkpt>
      <trkpt lat="46.4264" lon="5.72554">
        <ele>635.8</ele>
        <time>2022-02-28T14:12:01Z</time>
      </trkpt>
      <trkpt lat="46.42646" lon="5.72556">
        <ele>635.8</ele>
        <time>2022-02-28T14:12:02Z</time>
      </trkpt>
      <trkpt lat="46.42653" lon="5.72557">
        <ele>635.8</ele>
        <time>2022-02-28T14:12:03Z</time>
      </trkpt>
      <trkpt lat="46.42659" lon="5.72559">
        <ele>635.8</ele>
        <time>2022-02-28T14:12:04Z</time>
      </trkpt>
      <trkpt lat="46.42665" lon="5.7256">
        <ele>635.8</ele>
        <time>2022-02-28T14:12:05Z</time>
      </trkpt>
      <trkpt lat="46.42672" lon="5.72561">
        <ele>635.8</ele>
        <time>2022-02-28T14:12:06Z</time>
      </trkpt>
      <trkpt lat="46.42678" lon="5.72562">
        <ele>635.6</ele>
        <time>2022-02-28T14:12:07Z</time>
      </trkpt>
      <trkpt lat="46.42685" lon="5.72564">
        <ele>635.6</ele>
        <time>2022-02-28T14:12:08Z</time>
      </trkpt>
      <trkpt lat="46.42691" lon="5.72565">
        <ele>635.6</ele>
        <time>2022-02-28T14:12:09Z</time>
      </trkpt>
      <trkpt lat="46.42697" lon="5.72567">
        <ele>635.6</ele>
        <time>2022-02-28T14:12:10Z</time>
      </trkpt>
      <trkpt lat="46.42703" lon="5.72568">
        <ele>635.6</ele>
        <time>2022-02-28T14:12:11Z</time>
      </trkpt>
      <trkpt lat="46.42709" lon="5.72569">
        <ele>635.6</ele>
        <time>2022-02-28T14:12:12Z</time>
      </trkpt>
      <trkpt lat="46.42716" lon="5.7257">
        <ele>635.6</ele>
        <time>2022-02-28T14:12:13Z</time>
      </trkpt>
      <trkpt lat="46.42722" lon="5.72571">
        <ele>635.6</ele>
        <time>2022-02-28T14:12:14Z</time>
      </trkpt>
      <trkpt lat="46.42728" lon="5.72572">
        <ele>635.6</ele>
        <time>2022-02-28T14:12:15Z</time>
      </trkpt>
      <trkpt lat="46.42734" lon="5.72573">
        <ele>635.6</ele>
        <time>2022-02-28T14:12:16Z</time>
      </trkpt>
      <trkpt lat="46.4274" lon="5.72574">
        <ele>635.6</ele>
        <time>2022-02-28T14:12:17Z</time>
      </trkpt>
      <trkpt lat="46.42746" lon="5.72576">
        <ele>635.6</ele>
        <time>2022-02-28T14:12:18Z</time>
      </trkpt>
      <trkpt lat="46.42752" lon="5.72577">
        <ele>635.4</ele>
        <time>2022-02-28T14:12:19Z</time>
      </trkpt>
      <trkpt lat="46.42758" lon="5.72578">
        <ele>635.4</ele>
        <time>2022-02-28T14:12:20Z</time>
      </trkpt>
      <trkpt lat="46.42764" lon="5.72579">
        <ele>635.4</ele>
        <time>2022-02-28T14:12:21Z</time>
      </trkpt>
      <trkpt lat="46.4277" lon="5.7258">
        <ele>635.2</ele>
        <time>2022-02-28T14:12:22Z</time>
      </trkpt>
      <trkpt lat="46.42776" lon="5.72582">
        <ele>635.2</ele>
        <time>2022-02-28T14:12:23Z</time>
      </trkpt>
      <trkpt lat="46.42782" lon="5.72583">
        <ele>635.2</ele>
        <time>2022-02-28T14:12:24Z</time>
      </trkpt>
      <trkpt lat="46.42787" lon="5.72585">
        <ele>635</ele>
        <time>2022-02-28T14:12:25Z</time>
      </trkpt>
      <trkpt lat="46.42793" lon="5.72586">
        <ele>635</ele>
        <time>2022-02-28T14:12:26Z</time>
      </trkpt>
      <trkpt lat="46.42799" lon="5.72587">
        <ele>635</ele>
        <time>2022-02-28T14:12:27Z</time>
      </trkpt>
      <trkpt lat="46.42805" lon="5.72588">
        <ele>635</ele>
        <time>2022-02-28T14:12:28Z</time>
      </trkpt>
      <trkpt lat="46.42811" lon="5.7259">
        <ele>635</ele>
        <time>2022-02-28T14:12:29Z</time>
      </trkpt>
      <trkpt lat="46.42816" lon="5.72591">
        <ele>635</ele>
        <time>2022-02-28T14:12:30Z</time>
      </trkpt>
      <trkpt lat="46.42822" lon="5.72592">
        <ele>635</ele>
        <time>2022-02-28T14:12:31Z</time>
      </trkpt>
      <trkpt lat="46.42828" lon="5.72594">
        <ele>635</ele>
        <time>2022-02-28T14:12:32Z</time>
      </trkpt>
      <trkpt lat="46.42833" lon="5.72595">
        <ele>635</ele>
        <time>2022-02-28T14:12:33Z</time>
      </trkpt>
      <trkpt lat="46.42838" lon="5.72596">
        <ele>635</ele>
        <time>2022-02-28T14:12:34Z</time>
      </trkpt>
      <trkpt lat="46.42844" lon="5.72598">
        <ele>635</ele>
        <time>2022-02-28T14:12:35Z</time>
      </trkpt>
      <trkpt lat="46.42849" lon="5.72599">
        <ele>635</ele>
        <time>2022-02-28T14:12:36Z</time>
      </trkpt>
      <trkpt lat="46.42849" lon="5.72599">
        <ele>635</ele>
        <time>2022-02-28T14:12:37Z</time>
      </trkpt>
      <trkpt lat="46.42855" lon="5.726">
        <ele>635</ele>
        <time>2022-02-28T14:12:38Z</time>
      </trkpt>
      <trkpt lat="46.4286" lon="5.72601">
        <ele>635</ele>
        <time>2022-02-28T14:12:39Z</time>
      </trkpt>
      <trkpt lat="46.42866" lon="5.72602">
        <ele>635</ele>
        <time>2022-02-28T14:12:40Z</time>
      </trkpt>
      <trkpt lat="46.42871" lon="5.72604">
        <ele>635</ele>
        <time>2022-02-28T14:12:41Z</time>
      </trkpt>
      <trkpt lat="46.42877" lon="5.72605">
        <ele>635</ele>
        <time>2022-02-28T14:12:42Z</time>
      </trkpt>
      <trkpt lat="46.42881" lon="5.72605">
        <ele>635</ele>
        <time>2022-02-28T14:12:43Z</time>
      </trkpt>
      <trkpt lat="46.4289" lon="5.72606">
        <ele>635</ele>
        <time>2022-02-28T14:12:44Z</time>
      </trkpt>
      <trkpt lat="46.42896" lon="5.72607">
        <ele>635</ele>
        <time>2022-02-28T14:12:45Z</time>
      </trkpt>
      <trkpt lat="46.42901" lon="5.72608">
        <ele>635</ele>
        <time>2022-02-28T14:12:46Z</time>
      </trkpt>
      <trkpt lat="46.42906" lon="5.72609">
        <ele>635</ele>
        <time>2022-02-28T14:12:47Z</time>
      </trkpt>
      <trkpt lat="46.42909" lon="5.7261">
        <ele>635</ele>
        <time>2022-02-28T14:12:48Z</time>
      </trkpt>
      <trkpt lat="46.42912" lon="5.7261">
        <ele>635</ele>
        <time>2022-02-28T14:12:49Z</time>
      </trkpt>
      <trkpt lat="46.42912" lon="5.7261">
        <ele>635</ele>
        <time>2022-02-28T14:12:50Z</time>
      </trkpt>
      <trkpt lat="46.42913" lon="5.72611">
        <ele>635</ele>
        <time>2022-02-28T14:12:51Z</time>
      </trkpt>
      <trkpt lat="46.42913" lon="5.7261">
        <ele>635</ele>
        <time>2022-02-28T14:12:52Z</time>
      </trkpt>
      <trkpt lat="46.42913" lon="5.7261">
        <ele>635</ele>
        <time>2022-02-28T14:12:53Z</time>
      </trkpt>
      <trkpt lat="46.42916" lon="5.72611">
        <ele>635</ele>
        <time>2022-02-28T14:12:54Z</time>
      </trkpt>
      <trkpt lat="46.42917" lon="5.72611">
        <ele>635</ele>
        <time>2022-02-28T14:12:55Z</time>
      </trkpt>
      <trkpt lat="46.42919" lon="5.72611">
        <ele>635</ele>
        <time>2022-02-28T14:12:56Z</time>
      </trkpt>
      <trkpt lat="46.42921" lon="5.72611">
        <ele>635</ele>
        <time>2022-02-28T14:12:57Z</time>
      </trkpt>
      <trkpt lat="46.42923" lon="5.72611">
        <ele>635</ele>
        <time>2022-02-28T14:12:58Z</time>
      </trkpt>
      <trkpt lat="46.42925" lon="5.72612">
        <ele>635.2</ele>
        <time>2022-02-28T14:12:59Z</time>
      </trkpt>
      <trkpt lat="46.42928" lon="5.72612">
        <ele>635.2</ele>
        <time>2022-02-28T14:13:00Z</time>
      </trkpt>
      <trkpt lat="46.4293" lon="5.72611">
        <ele>635.2</ele>
        <time>2022-02-28T14:13:01Z</time>
      </trkpt>
      <trkpt lat="46.42933" lon="5.72611">
        <ele>635.2</ele>
        <time>2022-02-28T14:13:02Z</time>
      </trkpt>
      <trkpt lat="46.42935" lon="5.7261">
        <ele>635.2</ele>
        <time>2022-02-28T14:13:03Z</time>
      </trkpt>
      <trkpt lat="46.42938" lon="5.72609">
        <ele>635.4</ele>
        <time>2022-02-28T14:13:04Z</time>
      </trkpt>
      <trkpt lat="46.42941" lon="5.72607">
        <ele>635.4</ele>
        <time>2022-02-28T14:13:05Z</time>
      </trkpt>
      <trkpt lat="46.42943" lon="5.72605">
        <ele>635.4</ele>
        <time>2022-02-28T14:13:06Z</time>
      </trkpt>
      <trkpt lat="46.42947" lon="5.72602">
        <ele>635.6</ele>
        <time>2022-02-28T14:13:07Z</time>
      </trkpt>
      <trkpt lat="46.4295" lon="5.72599">
        <ele>635.6</ele>
        <time>2022-02-28T14:13:08Z</time>
      </trkpt>
      <trkpt lat="46.42953" lon="5.72596">
        <ele>635.6</ele>
        <time>2022-02-28T14:13:09Z</time>
      </trkpt>
      <trkpt lat="46.42956" lon="5.72592">
        <ele>635.6</ele>
        <time>2022-02-28T14:13:10Z</time>
      </trkpt>
      <trkpt lat="46.42959" lon="5.72589">
        <ele>635.6</ele>
        <time>2022-02-28T14:13:11Z</time>
      </trkpt>
      <trkpt lat="46.42961" lon="5.72586">
        <ele>635.6</ele>
        <time>2022-02-28T14:13:12Z</time>
      </trkpt>
      <trkpt lat="46.42963" lon="5.72582">
        <ele>635.6</ele>
        <time>2022-02-28T14:13:13Z</time>
      </trkpt>
      <trkpt lat="46.42966" lon="5.72579">
        <ele>635.8</ele>
        <time>2022-02-28T14:13:14Z</time>
      </trkpt>
      <trkpt lat="46.42969" lon="5.72576">
        <ele>635.8</ele>
        <time>2022-02-28T14:13:15Z</time>
      </trkpt>
      <trkpt lat="46.42971" lon="5.72572">
        <ele>635.8</ele>
        <time>2022-02-28T14:13:16Z</time>
      </trkpt>
      <trkpt lat="46.42973" lon="5.72569">
        <ele>635.8</ele>
        <time>2022-02-28T14:13:17Z</time>
      </trkpt>
      <trkpt lat="46.42975" lon="5.72566">
        <ele>636</ele>
        <time>2022-02-28T14:13:18Z</time>
      </trkpt>
      <trkpt lat="46.42978" lon="5.72563">
        <ele>636</ele>
        <time>2022-02-28T14:13:19Z</time>
      </trkpt>
      <trkpt lat="46.42981" lon="5.72561">
        <ele>636</ele>
        <time>2022-02-28T14:13:20Z</time>
      </trkpt>
      <trkpt lat="46.42985" lon="5.72559">
        <ele>636</ele>
        <time>2022-02-28T14:13:21Z</time>
      </trkpt>
      <trkpt lat="46.42988" lon="5.72558">
        <ele>636</ele>
        <time>2022-02-28T14:13:22Z</time>
      </trkpt>
      <trkpt lat="46.42992" lon="5.72557">
        <ele>636</ele>
        <time>2022-02-28T14:13:23Z</time>
      </trkpt>
      <trkpt lat="46.42995" lon="5.72556">
        <ele>636</ele>
        <time>2022-02-28T14:13:24Z</time>
      </trkpt>
      <trkpt lat="46.42999" lon="5.72555">
        <ele>636</ele>
        <time>2022-02-28T14:13:25Z</time>
      </trkpt>
      <trkpt lat="46.43003" lon="5.72555">
        <ele>636</ele>
        <time>2022-02-28T14:13:26Z</time>
      </trkpt>
      <trkpt lat="46.43007" lon="5.72555">
        <ele>635.8</ele>
        <time>2022-02-28T14:13:27Z</time>
      </trkpt>
      <trkpt lat="46.43013" lon="5.72555">
        <ele>635.8</ele>
        <time>2022-02-28T14:13:28Z</time>
      </trkpt>
      <trkpt lat="46.43018" lon="5.72556">
        <ele>635.4</ele>
        <time>2022-02-28T14:13:29Z</time>
      </trkpt>
      <trkpt lat="46.43023" lon="5.72556">
        <ele>635.2</ele>
        <time>2022-02-28T14:13:30Z</time>
      </trkpt>
      <trkpt lat="46.43029" lon="5.72556">
        <ele>635</ele>
        <time>2022-02-28T14:13:31Z</time>
      </trkpt>
      <trkpt lat="46.43033" lon="5.72557">
        <ele>634.8</ele>
        <time>2022-02-28T14:13:32Z</time>
      </trkpt>
      <trkpt lat="46.43037" lon="5.72558">
        <ele>634.8</ele>
        <time>2022-02-28T14:13:33Z</time>
      </trkpt>
      <trkpt lat="46.43042" lon="5.7256">
        <ele>634.4</ele>
        <time>2022-02-28T14:13:34Z</time>
      </trkpt>
      <trkpt lat="46.43047" lon="5.72562">
        <ele>634.4</ele>
        <time>2022-02-28T14:13:35Z</time>
      </trkpt>
      <trkpt lat="46.43051" lon="5.7256">
        <ele>634.2</ele>
        <time>2022-02-28T14:13:36Z</time>
      </trkpt>
      <trkpt lat="46.43056" lon="5.7256">
        <ele>634.2</ele>
        <time>2022-02-28T14:13:37Z</time>
      </trkpt>
      <trkpt lat="46.4306" lon="5.7256">
        <ele>633.8</ele>
        <time>2022-02-28T14:13:38Z</time>
      </trkpt>
      <trkpt lat="46.43065" lon="5.72561">
        <ele>633.8</ele>
        <time>2022-02-28T14:13:39Z</time>
      </trkpt>
      <trkpt lat="46.43069" lon="5.72561">
        <ele>633.8</ele>
        <time>2022-02-28T14:13:40Z</time>
      </trkpt>
      <trkpt lat="46.43073" lon="5.72561">
        <ele>633.8</ele>
        <time>2022-02-28T14:13:41Z</time>
      </trkpt>
      <trkpt lat="46.43077" lon="5.72562">
        <ele>633.8</ele>
        <time>2022-02-28T14:13:42Z</time>
      </trkpt>
      <trkpt lat="46.43082" lon="5.72562">
        <ele>633.8</ele>
        <time>2022-02-28T14:13:43Z</time>
      </trkpt>
      <trkpt lat="46.43087" lon="5.72563">
        <ele>633.6</ele>
        <time>2022-02-28T14:13:44Z</time>
      </trkpt>
      <trkpt lat="46.43091" lon="5.72564">
        <ele>633.6</ele>
        <time>2022-02-28T14:13:45Z</time>
      </trkpt>
      <trkpt lat="46.43096" lon="5.72566">
        <ele>633.6</ele>
        <time>2022-02-28T14:13:46Z</time>
      </trkpt>
      <trkpt lat="46.431" lon="5.72567">
        <ele>633.6</ele>
        <time>2022-02-28T14:13:47Z</time>
      </trkpt>
      <trkpt lat="46.43106" lon="5.72566">
        <ele>633.4</ele>
        <time>2022-02-28T14:13:48Z</time>
      </trkpt>
      <trkpt lat="46.43111" lon="5.72564">
        <ele>633.4</ele>
        <time>2022-02-28T14:13:49Z</time>
      </trkpt>
      <trkpt lat="46.43116" lon="5.72563">
        <ele>633.4</ele>
        <time>2022-02-28T14:13:50Z</time>
      </trkpt>
      <trkpt lat="46.43121" lon="5.72563">
        <ele>633</ele>
        <time>2022-02-28T14:13:51Z</time>
      </trkpt>
      <trkpt lat="46.43127" lon="5.72563">
        <ele>633</ele>
        <time>2022-02-28T14:13:52Z</time>
      </trkpt>
      <trkpt lat="46.43132" lon="5.72562">
        <ele>632.8</ele>
        <time>2022-02-28T14:13:53Z</time>
      </trkpt>
      <trkpt lat="46.43137" lon="5.72562">
        <ele>632.8</ele>
        <time>2022-02-28T14:13:54Z</time>
      </trkpt>
      <trkpt lat="46.43142" lon="5.72561">
        <ele>632.6</ele>
        <time>2022-02-28T14:13:55Z</time>
      </trkpt>
      <trkpt lat="46.43148" lon="5.7256">
        <ele>632.6</ele>
        <time>2022-02-28T14:13:56Z</time>
      </trkpt>
      <trkpt lat="46.43154" lon="5.72559">
        <ele>632.4</ele>
        <time>2022-02-28T14:13:57Z</time>
      </trkpt>
      <trkpt lat="46.4316" lon="5.72558">
        <ele>632.4</ele>
        <time>2022-02-28T14:13:58Z</time>
      </trkpt>
      <trkpt lat="46.43166" lon="5.72557">
        <ele>631.8</ele>
        <time>2022-02-28T14:13:59Z</time>
      </trkpt>
      <trkpt lat="46.43172" lon="5.72557">
        <ele>631.8</ele>
        <time>2022-02-28T14:14:00Z</time>
      </trkpt>
      <trkpt lat="46.43178" lon="5.72557">
        <ele>631.6</ele>
        <time>2022-02-28T14:14:01Z</time>
      </trkpt>
      <trkpt lat="46.43184" lon="5.72556">
        <ele>631.6</ele>
        <time>2022-02-28T14:14:02Z</time>
      </trkpt>
      <trkpt lat="46.43191" lon="5.72556">
        <ele>631.6</ele>
        <time>2022-02-28T14:14:03Z</time>
      </trkpt>
      <trkpt lat="46.43197" lon="5.72556">
        <ele>631.4</ele>
        <time>2022-02-28T14:14:04Z</time>
      </trkpt>
      <trkpt lat="46.43204" lon="5.72556">
        <ele>631.4</ele>
        <time>2022-02-28T14:14:05Z</time>
      </trkpt>
      <trkpt lat="46.43211" lon="5.72556">
        <ele>631.2</ele>
        <time>2022-02-28T14:14:06Z</time>
      </trkpt>
      <trkpt lat="46.43217" lon="5.72556">
        <ele>631.2</ele>
        <time>2022-02-28T14:14:07Z</time>
      </trkpt>
      <trkpt lat="46.43223" lon="5.72555">
        <ele>630.8</ele>
        <time>2022-02-28T14:14:08Z</time>
      </trkpt>
      <trkpt lat="46.43229" lon="5.72555">
        <ele>630.8</ele>
        <time>2022-02-28T14:14:09Z</time>
      </trkpt>
      <trkpt lat="46.43235" lon="5.72555">
        <ele>630.8</ele>
        <time>2022-02-28T14:14:10Z</time>
      </trkpt>
      <trkpt lat="46.4324" lon="5.72555">
        <ele>630.8</ele>
        <time>2022-02-28T14:14:11Z</time>
      </trkpt>
      <trkpt lat="46.43246" lon="5.72556">
        <ele>630.6</ele>
        <time>2022-02-28T14:14:12Z</time>
      </trkpt>
      <trkpt lat="46.43251" lon="5.72556">
        <ele>630.6</ele>
        <time>2022-02-28T14:14:13Z</time>
      </trkpt>
      <trkpt lat="46.43258" lon="5.72558">
        <ele>630.4</ele>
        <time>2022-02-28T14:14:14Z</time>
      </trkpt>
      <trkpt lat="46.43264" lon="5.7256">
        <ele>630.4</ele>
        <time>2022-02-28T14:14:15Z</time>
      </trkpt>
      <trkpt lat="46.4327" lon="5.7256">
        <ele>630.4</ele>
        <time>2022-02-28T14:14:16Z</time>
      </trkpt>
      <trkpt lat="46.43275" lon="5.7256">
        <ele>630.2</ele>
        <time>2022-02-28T14:14:17Z</time>
      </trkpt>
      <trkpt lat="46.4328" lon="5.7256">
        <ele>630.2</ele>
        <time>2022-02-28T14:14:18Z</time>
      </trkpt>
      <trkpt lat="46.43286" lon="5.7256">
        <ele>629.8</ele>
        <time>2022-02-28T14:14:19Z</time>
      </trkpt>
      <trkpt lat="46.43291" lon="5.7256">
        <ele>629.8</ele>
        <time>2022-02-28T14:14:20Z</time>
      </trkpt>
      <trkpt lat="46.43296" lon="5.72561">
        <ele>629.8</ele>
        <time>2022-02-28T14:14:21Z</time>
      </trkpt>
      <trkpt lat="46.43302" lon="5.72561">
        <ele>629.8</ele>
        <time>2022-02-28T14:14:22Z</time>
      </trkpt>
      <trkpt lat="46.43308" lon="5.72563">
        <ele>629.8</ele>
        <time>2022-02-28T14:14:23Z</time>
      </trkpt>
      <trkpt lat="46.43314" lon="5.72564">
        <ele>629.8</ele>
        <time>2022-02-28T14:14:24Z</time>
      </trkpt>
      <trkpt lat="46.4332" lon="5.72565">
        <ele>629.8</ele>
        <time>2022-02-28T14:14:25Z</time>
      </trkpt>
      <trkpt lat="46.43326" lon="5.72566">
        <ele>629.6</ele>
        <time>2022-02-28T14:14:26Z</time>
      </trkpt>
      <trkpt lat="46.43331" lon="5.72568">
        <ele>629.6</ele>
        <time>2022-02-28T14:14:27Z</time>
      </trkpt>
      <trkpt lat="46.43337" lon="5.7257">
        <ele>629.6</ele>
        <time>2022-02-28T14:14:28Z</time>
      </trkpt>
      <trkpt lat="46.43343" lon="5.7257">
        <ele>629.6</ele>
        <time>2022-02-28T14:14:29Z</time>
      </trkpt>
      <trkpt lat="46.43349" lon="5.72571">
        <ele>629.6</ele>
        <time>2022-02-28T14:14:30Z</time>
      </trkpt>
      <trkpt lat="46.43354" lon="5.72573">
        <ele>629.6</ele>
        <time>2022-02-28T14:14:31Z</time>
      </trkpt>
      <trkpt lat="46.43359" lon="5.72574">
        <ele>629.6</ele>
        <time>2022-02-28T14:14:32Z</time>
      </trkpt>
      <trkpt lat="46.43364" lon="5.72574">
        <ele>629.6</ele>
        <time>2022-02-28T14:14:33Z</time>
      </trkpt>
      <trkpt lat="46.43369" lon="5.72572">
        <ele>629.6</ele>
        <time>2022-02-28T14:14:34Z</time>
      </trkpt>
      <trkpt lat="46.43373" lon="5.7257">
        <ele>629.4</ele>
        <time>2022-02-28T14:14:35Z</time>
      </trkpt>
      <trkpt lat="46.43378" lon="5.72568">
        <ele>629.4</ele>
        <time>2022-02-28T14:14:36Z</time>
      </trkpt>
      <trkpt lat="46.43383" lon="5.72566">
        <ele>629.4</ele>
        <time>2022-02-28T14:14:37Z</time>
      </trkpt>
      <trkpt lat="46.43388" lon="5.72564">
        <ele>629.4</ele>
        <time>2022-02-28T14:14:38Z</time>
      </trkpt>
      <trkpt lat="46.43393" lon="5.72562">
        <ele>629.2</ele>
        <time>2022-02-28T14:14:39Z</time>
      </trkpt>
      <trkpt lat="46.43399" lon="5.7256">
        <ele>629.2</ele>
        <time>2022-02-28T14:14:40Z</time>
      </trkpt>
      <trkpt lat="46.43404" lon="5.72557">
        <ele>629</ele>
        <time>2022-02-28T14:14:41Z</time>
      </trkpt>
      <trkpt lat="46.4341" lon="5.72554">
        <ele>629</ele>
        <time>2022-02-28T14:14:42Z</time>
      </trkpt>
      <trkpt lat="46.43416" lon="5.72552">
        <ele>628.6</ele>
        <time>2022-02-28T14:14:43Z</time>
      </trkpt>
      <trkpt lat="46.43422" lon="5.72549">
        <ele>628.6</ele>
        <time>2022-02-28T14:14:44Z</time>
      </trkpt>
      <trkpt lat="46.43429" lon="5.72547">
        <ele>628.2</ele>
        <time>2022-02-28T14:14:45Z</time>
      </trkpt>
      <trkpt lat="46.43435" lon="5.72544">
        <ele>628.2</ele>
        <time>2022-02-28T14:14:46Z</time>
      </trkpt>
      <trkpt lat="46.43442" lon="5.7254">
        <ele>627.8</ele>
        <time>2022-02-28T14:14:47Z</time>
      </trkpt>
      <trkpt lat="46.43449" lon="5.72537">
        <ele>627.6</ele>
        <time>2022-02-28T14:14:48Z</time>
      </trkpt>
      <trkpt lat="46.43455" lon="5.72534">
        <ele>627.4</ele>
        <time>2022-02-28T14:14:49Z</time>
      </trkpt>
      <trkpt lat="46.43462" lon="5.72531">
        <ele>627.2</ele>
        <time>2022-02-28T14:14:50Z</time>
      </trkpt>
      <trkpt lat="46.43469" lon="5.72528">
        <ele>627</ele>
        <time>2022-02-28T14:14:51Z</time>
      </trkpt>
      <trkpt lat="46.43476" lon="5.72524">
        <ele>626.8</ele>
        <time>2022-02-28T14:14:52Z</time>
      </trkpt>
      <trkpt lat="46.43482" lon="5.72521">
        <ele>626.6</ele>
        <time>2022-02-28T14:14:53Z</time>
      </trkpt>
      <trkpt lat="46.43489" lon="5.72518">
        <ele>626.6</ele>
        <time>2022-02-28T14:14:54Z</time>
      </trkpt>
      <trkpt lat="46.43496" lon="5.72514">
        <ele>626.2</ele>
        <time>2022-02-28T14:14:55Z</time>
      </trkpt>
      <trkpt lat="46.43502" lon="5.72511">
        <ele>626.2</ele>
        <time>2022-02-28T14:14:56Z</time>
      </trkpt>
      <trkpt lat="46.43509" lon="5.72508">
        <ele>625.8</ele>
        <time>2022-02-28T14:14:57Z</time>
      </trkpt>
      <trkpt lat="46.43516" lon="5.72505">
        <ele>625.8</ele>
        <time>2022-02-28T14:14:58Z</time>
      </trkpt>
      <trkpt lat="46.43522" lon="5.72502">
        <ele>625.8</ele>
        <time>2022-02-28T14:14:59Z</time>
      </trkpt>
      <trkpt lat="46.43529" lon="5.72499">
        <ele>625.6</ele>
        <time>2022-02-28T14:15:00Z</time>
      </trkpt>
      <trkpt lat="46.43535" lon="5.72496">
        <ele>625.4</ele>
        <time>2022-02-28T14:15:01Z</time>
      </trkpt>
      <trkpt lat="46.43542" lon="5.72493">
        <ele>625.4</ele>
        <time>2022-02-28T14:15:02Z</time>
      </trkpt>
      <trkpt lat="46.43548" lon="5.7249">
        <ele>625</ele>
        <time>2022-02-28T14:15:03Z</time>
      </trkpt>
      <trkpt lat="46.43554" lon="5.72487">
        <ele>625</ele>
        <time>2022-02-28T14:15:04Z</time>
      </trkpt>
      <trkpt lat="46.4356" lon="5.72484">
        <ele>624.6</ele>
        <time>2022-02-28T14:15:05Z</time>
      </trkpt>
      <trkpt lat="46.43566" lon="5.72481">
        <ele>624.6</ele>
        <time>2022-02-28T14:15:06Z</time>
      </trkpt>
      <trkpt lat="46.43573" lon="5.72478">
        <ele>624.2</ele>
        <time>2022-02-28T14:15:07Z</time>
      </trkpt>
      <trkpt lat="46.43579" lon="5.72474">
        <ele>624.2</ele>
        <time>2022-02-28T14:15:08Z</time>
      </trkpt>
      <trkpt lat="46.43585" lon="5.72471">
        <ele>624.2</ele>
        <time>2022-02-28T14:15:09Z</time>
      </trkpt>
      <trkpt lat="46.43592" lon="5.72468">
        <ele>624</ele>
        <time>2022-02-28T14:15:10Z</time>
      </trkpt>
      <trkpt lat="46.43598" lon="5.72464">
        <ele>624</ele>
        <time>2022-02-28T14:15:11Z</time>
      </trkpt>
      <trkpt lat="46.43603" lon="5.72461">
        <ele>624</ele>
        <time>2022-02-28T14:15:12Z</time>
      </trkpt>
      <trkpt lat="46.43609" lon="5.72458">
        <ele>624</ele>
        <time>2022-02-28T14:15:13Z</time>
      </trkpt>
      <trkpt lat="46.43615" lon="5.72455">
        <ele>624</ele>
        <time>2022-02-28T14:15:14Z</time>
      </trkpt>
      <trkpt lat="46.43621" lon="5.72452">
        <ele>624</ele>
        <time>2022-02-28T14:15:15Z</time>
      </trkpt>
      <trkpt lat="46.43627" lon="5.7245">
        <ele>624</ele>
        <time>2022-02-28T14:15:16Z</time>
      </trkpt>
      <trkpt lat="46.43633" lon="5.72447">
        <ele>624</ele>
        <time>2022-02-28T14:15:17Z</time>
      </trkpt>
      <trkpt lat="46.43639" lon="5.72443">
        <ele>624</ele>
        <time>2022-02-28T14:15:18Z</time>
      </trkpt>
      <trkpt lat="46.43645" lon="5.72441">
        <ele>624</ele>
        <time>2022-02-28T14:15:19Z</time>
      </trkpt>
      <trkpt lat="46.43651" lon="5.72438">
        <ele>624</ele>
        <time>2022-02-28T14:15:20Z</time>
      </trkpt>
      <trkpt lat="46.43657" lon="5.72435">
        <ele>623.6</ele>
        <time>2022-02-28T14:15:21Z</time>
      </trkpt>
      <trkpt lat="46.43663" lon="5.72432">
        <ele>623.6</ele>
        <time>2022-02-28T14:15:22Z</time>
      </trkpt>
      <trkpt lat="46.43669" lon="5.72429">
        <ele>623.6</ele>
        <time>2022-02-28T14:15:23Z</time>
      </trkpt>
      <trkpt lat="46.43675" lon="5.72426">
        <ele>623.6</ele>
        <time>2022-02-28T14:15:24Z</time>
      </trkpt>
      <trkpt lat="46.43682" lon="5.72423">
        <ele>623.4</ele>
        <time>2022-02-28T14:15:25Z</time>
      </trkpt>
      <trkpt lat="46.43688" lon="5.7242">
        <ele>623.4</ele>
        <time>2022-02-28T14:15:26Z</time>
      </trkpt>
      <trkpt lat="46.43694" lon="5.72417">
        <ele>623.2</ele>
        <time>2022-02-28T14:15:27Z</time>
      </trkpt>
      <trkpt lat="46.437" lon="5.72414">
        <ele>623.2</ele>
        <time>2022-02-28T14:15:28Z</time>
      </trkpt>
      <trkpt lat="46.43707" lon="5.7241">
        <ele>623.2</ele>
        <time>2022-02-28T14:15:29Z</time>
      </trkpt>
      <trkpt lat="46.43713" lon="5.72407">
        <ele>622.8</ele>
        <time>2022-02-28T14:15:30Z</time>
      </trkpt>
      <trkpt lat="46.43719" lon="5.72404">
        <ele>622.8</ele>
        <time>2022-02-28T14:15:31Z</time>
      </trkpt>
      <trkpt lat="46.43725" lon="5.724">
        <ele>622.8</ele>
        <time>2022-02-28T14:15:32Z</time>
      </trkpt>
      <trkpt lat="46.43731" lon="5.72397">
        <ele>622.6</ele>
        <time>2022-02-28T14:15:33Z</time>
      </trkpt>
      <trkpt lat="46.43737" lon="5.72394">
        <ele>622.6</ele>
        <time>2022-02-28T14:15:34Z</time>
      </trkpt>
      <trkpt lat="46.43742" lon="5.7239">
        <ele>622.6</ele>
        <time>2022-02-28T14:15:35Z</time>
      </trkpt>
      <trkpt lat="46.43748" lon="5.72386">
        <ele>622.6</ele>
        <time>2022-02-28T14:15:36Z</time>
      </trkpt>
      <trkpt lat="46.43754" lon="5.72381">
        <ele>622.6</ele>
        <time>2022-02-28T14:15:37Z</time>
      </trkpt>
      <trkpt lat="46.43759" lon="5.72377">
        <ele>622.6</ele>
        <time>2022-02-28T14:15:38Z</time>
      </trkpt>
      <trkpt lat="46.43764" lon="5.72372">
        <ele>622.6</ele>
        <time>2022-02-28T14:15:39Z</time>
      </trkpt>
      <trkpt lat="46.4377" lon="5.72367">
        <ele>622.6</ele>
        <time>2022-02-28T14:15:40Z</time>
      </trkpt>
      <trkpt lat="46.43775" lon="5.72361">
        <ele>622.6</ele>
        <time>2022-02-28T14:15:41Z</time>
      </trkpt>
      <trkpt lat="46.43779" lon="5.72355">
        <ele>622.6</ele>
        <time>2022-02-28T14:15:42Z</time>
      </trkpt>
      <trkpt lat="46.43784" lon="5.72349">
        <ele>622.6</ele>
        <time>2022-02-28T14:15:43Z</time>
      </trkpt>
      <trkpt lat="46.43788" lon="5.72343">
        <ele>622.6</ele>
        <time>2022-02-28T14:15:44Z</time>
      </trkpt>
      <trkpt lat="46.43792" lon="5.72336">
        <ele>622.6</ele>
        <time>2022-02-28T14:15:45Z</time>
      </trkpt>
      <trkpt lat="46.43797" lon="5.7233">
        <ele>622.6</ele>
        <time>2022-02-28T14:15:46Z</time>
      </trkpt>
      <trkpt lat="46.43801" lon="5.72324">
        <ele>622.8</ele>
        <time>2022-02-28T14:15:47Z</time>
      </trkpt>
      <trkpt lat="46.43805" lon="5.72317">
        <ele>622.8</ele>
        <time>2022-02-28T14:15:48Z</time>
      </trkpt>
      <trkpt lat="46.43809" lon="5.72311">
        <ele>622.8</ele>
        <time>2022-02-28T14:15:49Z</time>
      </trkpt>
      <trkpt lat="46.43813" lon="5.72305">
        <ele>622.8</ele>
        <time>2022-02-28T14:15:50Z</time>
      </trkpt>
      <trkpt lat="46.43816" lon="5.72299">
        <ele>622.8</ele>
        <time>2022-02-28T14:15:51Z</time>
      </trkpt>
      <trkpt lat="46.4382" lon="5.72293">
        <ele>623</ele>
        <time>2022-02-28T14:15:52Z</time>
      </trkpt>
      <trkpt lat="46.43824" lon="5.72287">
        <ele>623</ele>
        <time>2022-02-28T14:15:53Z</time>
      </trkpt>
      <trkpt lat="46.43828" lon="5.72281">
        <ele>623</ele>
        <time>2022-02-28T14:15:54Z</time>
      </trkpt>
      <trkpt lat="46.43831" lon="5.72274">
        <ele>623</ele>
        <time>2022-02-28T14:15:55Z</time>
      </trkpt>
      <trkpt lat="46.43835" lon="5.72268">
        <ele>623</ele>
        <time>2022-02-28T14:15:56Z</time>
      </trkpt>
      <trkpt lat="46.43838" lon="5.72262">
        <ele>623.2</ele>
        <time>2022-02-28T14:15:57Z</time>
      </trkpt>
      <trkpt lat="46.43842" lon="5.72255">
        <ele>623.2</ele>
        <time>2022-02-28T14:15:58Z</time>
      </trkpt>
      <trkpt lat="46.43845" lon="5.72249">
        <ele>623.2</ele>
        <time>2022-02-28T14:15:59Z</time>
      </trkpt>
      <trkpt lat="46.43848" lon="5.72242">
        <ele>623.2</ele>
        <time>2022-02-28T14:16:00Z</time>
      </trkpt>
      <trkpt lat="46.43852" lon="5.72236">
        <ele>623.2</ele>
        <time>2022-02-28T14:16:01Z</time>
      </trkpt>
      <trkpt lat="46.43855" lon="5.72229">
        <ele>623.2</ele>
        <time>2022-02-28T14:16:02Z</time>
      </trkpt>
      <trkpt lat="46.43858" lon="5.72222">
        <ele>623.2</ele>
        <time>2022-02-28T14:16:03Z</time>
      </trkpt>
      <trkpt lat="46.43861" lon="5.72215">
        <ele>623.2</ele>
        <time>2022-02-28T14:16:04Z</time>
      </trkpt>
      <trkpt lat="46.43864" lon="5.72208">
        <ele>623.2</ele>
        <time>2022-02-28T14:16:05Z</time>
      </trkpt>
      <trkpt lat="46.43867" lon="5.722">
        <ele>623.2</ele>
        <time>2022-02-28T14:16:06Z</time>
      </trkpt>
      <trkpt lat="46.4387" lon="5.72193">
        <ele>623.2</ele>
        <time>2022-02-28T14:16:07Z</time>
      </trkpt>
      <trkpt lat="46.43872" lon="5.72185">
        <ele>623.2</ele>
        <time>2022-02-28T14:16:08Z</time>
      </trkpt>
      <trkpt lat="46.43875" lon="5.72178">
        <ele>623.2</ele>
        <time>2022-02-28T14:16:09Z</time>
      </trkpt>
      <trkpt lat="46.43877" lon="5.72171">
        <ele>623.2</ele>
        <time>2022-02-28T14:16:10Z</time>
      </trkpt>
      <trkpt lat="46.4388" lon="5.72163">
        <ele>623.2</ele>
        <time>2022-02-28T14:16:11Z</time>
      </trkpt>
      <trkpt lat="46.43883" lon="5.72156">
        <ele>623.2</ele>
        <time>2022-02-28T14:16:12Z</time>
      </trkpt>
      <trkpt lat="46.43885" lon="5.72148">
        <ele>623.2</ele>
        <time>2022-02-28T14:16:13Z</time>
      </trkpt>
      <trkpt lat="46.43888" lon="5.7214">
        <ele>623.2</ele>
        <time>2022-02-28T14:16:14Z</time>
      </trkpt>
      <trkpt lat="46.43891" lon="5.72133">
        <ele>623</ele>
        <time>2022-02-28T14:16:15Z</time>
      </trkpt>
      <trkpt lat="46.43894" lon="5.72127">
        <ele>623</ele>
        <time>2022-02-28T14:16:16Z</time>
      </trkpt>
      <trkpt lat="46.43899" lon="5.72123">
        <ele>623</ele>
        <time>2022-02-28T14:16:17Z</time>
      </trkpt>
      <trkpt lat="46.43904" lon="5.7212">
        <ele>623</ele>
        <time>2022-02-28T14:16:18Z</time>
      </trkpt>
      <trkpt lat="46.43909" lon="5.72117">
        <ele>623.4</ele>
        <time>2022-02-28T14:16:19Z</time>
      </trkpt>
      <trkpt lat="46.43913" lon="5.72113">
        <ele>623.6</ele>
        <time>2022-02-28T14:16:20Z</time>
      </trkpt>
      <trkpt lat="46.43916" lon="5.72108">
        <ele>623.8</ele>
        <time>2022-02-28T14:16:21Z</time>
      </trkpt>
      <trkpt lat="46.43919" lon="5.72104">
        <ele>623.8</ele>
        <time>2022-02-28T14:16:22Z</time>
      </trkpt>
      <trkpt lat="46.43922" lon="5.72099">
        <ele>624.2</ele>
        <time>2022-02-28T14:16:23Z</time>
      </trkpt>
      <trkpt lat="46.43924" lon="5.72094">
        <ele>624.2</ele>
        <time>2022-02-28T14:16:24Z</time>
      </trkpt>
      <trkpt lat="46.43927" lon="5.72089">
        <ele>624.4</ele>
        <time>2022-02-28T14:16:25Z</time>
      </trkpt>
      <trkpt lat="46.4393" lon="5.72084">
        <ele>624.4</ele>
        <time>2022-02-28T14:16:26Z</time>
      </trkpt>
      <trkpt lat="46.43932" lon="5.72079">
        <ele>624.4</ele>
        <time>2022-02-28T14:16:27Z</time>
      </trkpt>
      <trkpt lat="46.43935" lon="5.72074">
        <ele>624.4</ele>
        <time>2022-02-28T14:16:28Z</time>
      </trkpt>
      <trkpt lat="46.43938" lon="5.72069">
        <ele>624.4</ele>
        <time>2022-02-28T14:16:29Z</time>
      </trkpt>
      <trkpt lat="46.43941" lon="5.72064">
        <ele>624.4</ele>
        <time>2022-02-28T14:16:30Z</time>
      </trkpt>
      <trkpt lat="46.43944" lon="5.72059">
        <ele>624.4</ele>
        <time>2022-02-28T14:16:31Z</time>
      </trkpt>
      <trkpt lat="46.43947" lon="5.72053">
        <ele>624.6</ele>
        <time>2022-02-28T14:16:32Z</time>
      </trkpt>
      <trkpt lat="46.4395" lon="5.72048">
        <ele>624.6</ele>
        <time>2022-02-28T14:16:33Z</time>
      </trkpt>
      <trkpt lat="46.43953" lon="5.72042">
        <ele>624.6</ele>
        <time>2022-02-28T14:16:34Z</time>
      </trkpt>
      <trkpt lat="46.43956" lon="5.72037">
        <ele>624.6</ele>
        <time>2022-02-28T14:16:35Z</time>
      </trkpt>
      <trkpt lat="46.43959" lon="5.72031">
        <ele>624.6</ele>
        <time>2022-02-28T14:16:36Z</time>
      </trkpt>
      <trkpt lat="46.43963" lon="5.72026">
        <ele>624.6</ele>
        <time>2022-02-28T14:16:37Z</time>
      </trkpt>
      <trkpt lat="46.43966" lon="5.7202">
        <ele>624.6</ele>
        <time>2022-02-28T14:16:38Z</time>
      </trkpt>
      <trkpt lat="46.43969" lon="5.72015">
        <ele>624.6</ele>
        <time>2022-02-28T14:16:39Z</time>
      </trkpt>
      <trkpt lat="46.43972" lon="5.7201">
        <ele>624.6</ele>
        <time>2022-02-28T14:16:40Z</time>
      </trkpt>
      <trkpt lat="46.43975" lon="5.72004">
        <ele>624.6</ele>
        <time>2022-02-28T14:16:41Z</time>
      </trkpt>
      <trkpt lat="46.43978" lon="5.71999">
        <ele>624.6</ele>
        <time>2022-02-28T14:16:42Z</time>
      </trkpt>
      <trkpt lat="46.43981" lon="5.71994">
        <ele>624.6</ele>
        <time>2022-02-28T14:16:43Z</time>
      </trkpt>
      <trkpt lat="46.43984" lon="5.71989">
        <ele>624.8</ele>
        <time>2022-02-28T14:16:44Z</time>
      </trkpt>
      <trkpt lat="46.43987" lon="5.71984">
        <ele>624.8</ele>
        <time>2022-02-28T14:16:45Z</time>
      </trkpt>
      <trkpt lat="46.4399" lon="5.71979">
        <ele>624.8</ele>
        <time>2022-02-28T14:16:46Z</time>
      </trkpt>
      <trkpt lat="46.43993" lon="5.71974">
        <ele>625.2</ele>
        <time>2022-02-28T14:16:47Z</time>
      </trkpt>
      <trkpt lat="46.43996" lon="5.71969">
        <ele>625.2</ele>
        <time>2022-02-28T14:16:48Z</time>
      </trkpt>
      <trkpt lat="46.43999" lon="5.71965">
        <ele>625.6</ele>
        <time>2022-02-28T14:16:49Z</time>
      </trkpt>
      <trkpt lat="46.44002" lon="5.7196">
        <ele>625.6</ele>
        <time>2022-02-28T14:16:50Z</time>
      </trkpt>
      <trkpt lat="46.44004" lon="5.71956">
        <ele>625.8</ele>
        <time>2022-02-28T14:16:51Z</time>
      </trkpt>
      <trkpt lat="46.44007" lon="5.71953">
        <ele>625.8</ele>
        <time>2022-02-28T14:16:52Z</time>
      </trkpt>
      <trkpt lat="46.44009" lon="5.71948">
        <ele>626.2</ele>
        <time>2022-02-28T14:16:53Z</time>
      </trkpt>
      <trkpt lat="46.44011" lon="5.71944">
        <ele>626.4</ele>
        <time>2022-02-28T14:16:54Z</time>
      </trkpt>
      <trkpt lat="46.44013" lon="5.7194">
        <ele>626.4</ele>
        <time>2022-02-28T14:16:55Z</time>
      </trkpt>
      <trkpt lat="46.44016" lon="5.71935">
        <ele>626.8</ele>
        <time>2022-02-28T14:16:56Z</time>
      </trkpt>
      <trkpt lat="46.44018" lon="5.71932">
        <ele>626.8</ele>
        <time>2022-02-28T14:16:57Z</time>
      </trkpt>
      <trkpt lat="46.44021" lon="5.71928">
        <ele>627.2</ele>
        <time>2022-02-28T14:16:58Z</time>
      </trkpt>
      <trkpt lat="46.44023" lon="5.71924">
        <ele>627.2</ele>
        <time>2022-02-28T14:16:59Z</time>
      </trkpt>
      <trkpt lat="46.44026" lon="5.7192">
        <ele>627.4</ele>
        <time>2022-02-28T14:17:00Z</time>
      </trkpt>
      <trkpt lat="46.44029" lon="5.71916">
        <ele>627.4</ele>
        <time>2022-02-28T14:17:01Z</time>
      </trkpt>
      <trkpt lat="46.44031" lon="5.71912">
        <ele>627.6</ele>
        <time>2022-02-28T14:17:02Z</time>
      </trkpt>
      <trkpt lat="46.44034" lon="5.71908">
        <ele>627.6</ele>
        <time>2022-02-28T14:17:03Z</time>
      </trkpt>
      <trkpt lat="46.44037" lon="5.71905">
        <ele>627.6</ele>
        <time>2022-02-28T14:17:04Z</time>
      </trkpt>
      <trkpt lat="46.44041" lon="5.71902">
        <ele>627.6</ele>
        <time>2022-02-28T14:17:05Z</time>
      </trkpt>
      <trkpt lat="46.44044" lon="5.71899">
        <ele>627.6</ele>
        <time>2022-02-28T14:17:06Z</time>
      </trkpt>
      <trkpt lat="46.44048" lon="5.71895">
        <ele>627.6</ele>
        <time>2022-02-28T14:17:07Z</time>
      </trkpt>
      <trkpt lat="46.44053" lon="5.71892">
        <ele>627.6</ele>
        <time>2022-02-28T14:17:08Z</time>
      </trkpt>
      <trkpt lat="46.44057" lon="5.7189">
        <ele>627.6</ele>
        <time>2022-02-28T14:17:09Z</time>
      </trkpt>
      <trkpt lat="46.44062" lon="5.71887">
        <ele>627.6</ele>
        <time>2022-02-28T14:17:10Z</time>
      </trkpt>
      <trkpt lat="46.44067" lon="5.71884">
        <ele>627.4</ele>
        <time>2022-02-28T14:17:11Z</time>
      </trkpt>
      <trkpt lat="46.44071" lon="5.71881">
        <ele>627.4</ele>
        <time>2022-02-28T14:17:12Z</time>
      </trkpt>
      <trkpt lat="46.44076" lon="5.71878">
        <ele>627.4</ele>
        <time>2022-02-28T14:17:13Z</time>
      </trkpt>
      <trkpt lat="46.44081" lon="5.71875">
        <ele>627.4</ele>
        <time>2022-02-28T14:17:14Z</time>
      </trkpt>
      <trkpt lat="46.44085" lon="5.71873">
        <ele>627.6</ele>
        <time>2022-02-28T14:17:15Z</time>
      </trkpt>
      <trkpt lat="46.44085" lon="5.71873">
        <ele>627.6</ele>
        <time>2022-02-28T14:17:16Z</time>
      </trkpt>
      <trkpt lat="46.4409" lon="5.7187">
        <ele>627.6</ele>
        <time>2022-02-28T14:17:17Z</time>
      </trkpt>
      <trkpt lat="46.44094" lon="5.71868">
        <ele>627.8</ele>
        <time>2022-02-28T14:17:18Z</time>
      </trkpt>
      <trkpt lat="46.44099" lon="5.71866">
        <ele>627.8</ele>
        <time>2022-02-28T14:17:19Z</time>
      </trkpt>
      <trkpt lat="46.44103" lon="5.71863">
        <ele>627.8</ele>
        <time>2022-02-28T14:17:20Z</time>
      </trkpt>
      <trkpt lat="46.44111" lon="5.71857">
        <ele>628.2</ele>
        <time>2022-02-28T14:17:21Z</time>
      </trkpt>
      <trkpt lat="46.44116" lon="5.71854">
        <ele>628.2</ele>
        <time>2022-02-28T14:17:22Z</time>
      </trkpt>
      <trkpt lat="46.4412" lon="5.71851">
        <ele>628.2</ele>
        <time>2022-02-28T14:17:23Z</time>
      </trkpt>
      <trkpt lat="46.44124" lon="5.71849">
        <ele>628.4</ele>
        <time>2022-02-28T14:17:24Z</time>
      </trkpt>
      <trkpt lat="46.44128" lon="5.71846">
        <ele>628.4</ele>
        <time>2022-02-28T14:17:25Z</time>
      </trkpt>
      <trkpt lat="46.44132" lon="5.71843">
        <ele>628.8</ele>
        <time>2022-02-28T14:17:26Z</time>
      </trkpt>
      <trkpt lat="46.44136" lon="5.71841">
        <ele>628.8</ele>
        <time>2022-02-28T14:17:27Z</time>
      </trkpt>
      <trkpt lat="46.4414" lon="5.71838">
        <ele>629</ele>
        <time>2022-02-28T14:17:28Z</time>
      </trkpt>
      <trkpt lat="46.44143" lon="5.71835">
        <ele>629</ele>
        <time>2022-02-28T14:17:29Z</time>
      </trkpt>
      <trkpt lat="46.44147" lon="5.71833">
        <ele>629.4</ele>
        <time>2022-02-28T14:17:30Z</time>
      </trkpt>
      <trkpt lat="46.4415" lon="5.7183">
        <ele>629.4</ele>
        <time>2022-02-28T14:17:31Z</time>
      </trkpt>
      <trkpt lat="46.44153" lon="5.71828">
        <ele>629.6</ele>
        <time>2022-02-28T14:17:32Z</time>
      </trkpt>
      <trkpt lat="46.44155" lon="5.71826">
        <ele>629.6</ele>
        <time>2022-02-28T14:17:33Z</time>
      </trkpt>
      <trkpt lat="46.44158" lon="5.71824">
        <ele>630</ele>
        <time>2022-02-28T14:17:34Z</time>
      </trkpt>
      <trkpt lat="46.44161" lon="5.71822">
        <ele>630</ele>
        <time>2022-02-28T14:17:35Z</time>
      </trkpt>
      <trkpt lat="46.44164" lon="5.7182">
        <ele>630.4</ele>
        <time>2022-02-28T14:17:36Z</time>
      </trkpt>
      <trkpt lat="46.44167" lon="5.71818">
        <ele>630.4</ele>
        <time>2022-02-28T14:17:37Z</time>
      </trkpt>
      <trkpt lat="46.4417" lon="5.71816">
        <ele>630.6</ele>
        <time>2022-02-28T14:17:38Z</time>
      </trkpt>
      <trkpt lat="46.44173" lon="5.71814">
        <ele>630.6</ele>
        <time>2022-02-28T14:17:39Z</time>
      </trkpt>
      <trkpt lat="46.44176" lon="5.71811">
        <ele>631</ele>
        <time>2022-02-28T14:17:40Z</time>
      </trkpt>
      <trkpt lat="46.44179" lon="5.71809">
        <ele>631.2</ele>
        <time>2022-02-28T14:17:41Z</time>
      </trkpt>
      <trkpt lat="46.44182" lon="5.71807">
        <ele>631.2</ele>
        <time>2022-02-28T14:17:42Z</time>
      </trkpt>
      <trkpt lat="46.44184" lon="5.71805">
        <ele>631.6</ele>
        <time>2022-02-28T14:17:43Z</time>
      </trkpt>
      <trkpt lat="46.44187" lon="5.71803">
        <ele>631.6</ele>
        <time>2022-02-28T14:17:44Z</time>
      </trkpt>
      <trkpt lat="46.4419" lon="5.718">
        <ele>631.8</ele>
        <time>2022-02-28T14:17:45Z</time>
      </trkpt>
      <trkpt lat="46.44192" lon="5.71798">
        <ele>631.8</ele>
        <time>2022-02-28T14:17:46Z</time>
      </trkpt>
      <trkpt lat="46.44195" lon="5.71796">
        <ele>631.8</ele>
        <time>2022-02-28T14:17:47Z</time>
      </trkpt>
      <trkpt lat="46.44198" lon="5.71795">
        <ele>632</ele>
        <time>2022-02-28T14:17:48Z</time>
      </trkpt>
      <trkpt lat="46.442" lon="5.71793">
        <ele>632</ele>
        <time>2022-02-28T14:17:49Z</time>
      </trkpt>
      <trkpt lat="46.44203" lon="5.71791">
        <ele>632.4</ele>
        <time>2022-02-28T14:17:50Z</time>
      </trkpt>
      <trkpt lat="46.44206" lon="5.71788">
        <ele>632.6</ele>
        <time>2022-02-28T14:17:51Z</time>
      </trkpt>
      <trkpt lat="46.44208" lon="5.71786">
        <ele>632.6</ele>
        <time>2022-02-28T14:17:52Z</time>
      </trkpt>
      <trkpt lat="46.44211" lon="5.71784">
        <ele>632.8</ele>
        <time>2022-02-28T14:17:53Z</time>
      </trkpt>
      <trkpt lat="46.44213" lon="5.71781">
        <ele>632.8</ele>
        <time>2022-02-28T14:17:54Z</time>
      </trkpt>
      <trkpt lat="46.44216" lon="5.71779">
        <ele>633.2</ele>
        <time>2022-02-28T14:17:55Z</time>
      </trkpt>
      <trkpt lat="46.44219" lon="5.71777">
        <ele>633.2</ele>
        <time>2022-02-28T14:17:56Z</time>
      </trkpt>
      <trkpt lat="46.44222" lon="5.71775">
        <ele>633.4</ele>
        <time>2022-02-28T14:17:57Z</time>
      </trkpt>
      <trkpt lat="46.44225" lon="5.71773">
        <ele>633.4</ele>
        <time>2022-02-28T14:17:58Z</time>
      </trkpt>
      <trkpt lat="46.44228" lon="5.71772">
        <ele>633.6</ele>
        <time>2022-02-28T14:17:59Z</time>
      </trkpt>
      <trkpt lat="46.44231" lon="5.7177">
        <ele>633.6</ele>
        <time>2022-02-28T14:18:00Z</time>
      </trkpt>
      <trkpt lat="46.44234" lon="5.71768">
        <ele>634</ele>
        <time>2022-02-28T14:18:01Z</time>
      </trkpt>
      <trkpt lat="46.44237" lon="5.71766">
        <ele>634</ele>
        <time>2022-02-28T14:18:02Z</time>
      </trkpt>
      <trkpt lat="46.4424" lon="5.71764">
        <ele>634.2</ele>
        <time>2022-02-28T14:18:03Z</time>
      </trkpt>
      <trkpt lat="46.44243" lon="5.71762">
        <ele>634.4</ele>
        <time>2022-02-28T14:18:04Z</time>
      </trkpt>
      <trkpt lat="46.44246" lon="5.71761">
        <ele>634.4</ele>
        <time>2022-02-28T14:18:05Z</time>
      </trkpt>
      <trkpt lat="46.44249" lon="5.71759">
        <ele>634.8</ele>
        <time>2022-02-28T14:18:06Z</time>
      </trkpt>
      <trkpt lat="46.44252" lon="5.71757">
        <ele>635</ele>
        <time>2022-02-28T14:18:07Z</time>
      </trkpt>
      <trkpt lat="46.44255" lon="5.71756">
        <ele>635</ele>
        <time>2022-02-28T14:18:08Z</time>
      </trkpt>
      <trkpt lat="46.44257" lon="5.71754">
        <ele>635.4</ele>
        <time>2022-02-28T14:18:09Z</time>
      </trkpt>
      <trkpt lat="46.4426" lon="5.71752">
        <ele>635.4</ele>
        <time>2022-02-28T14:18:10Z</time>
      </trkpt>
      <trkpt lat="46.44263" lon="5.71751">
        <ele>635.6</ele>
        <time>2022-02-28T14:18:11Z</time>
      </trkpt>
      <trkpt lat="46.44266" lon="5.7175">
        <ele>635.8</ele>
        <time>2022-02-28T14:18:12Z</time>
      </trkpt>
      <trkpt lat="46.44268" lon="5.71749">
        <ele>636</ele>
        <time>2022-02-28T14:18:13Z</time>
      </trkpt>
      <trkpt lat="46.44271" lon="5.71748">
        <ele>636</ele>
        <time>2022-02-28T14:18:14Z</time>
      </trkpt>
      <trkpt lat="46.44274" lon="5.71748">
        <ele>636.2</ele>
        <time>2022-02-28T14:18:15Z</time>
      </trkpt>
      <trkpt lat="46.44277" lon="5.71747">
        <ele>636.2</ele>
        <time>2022-02-28T14:18:16Z</time>
      </trkpt>
      <trkpt lat="46.44279" lon="5.71745">
        <ele>636.2</ele>
        <time>2022-02-28T14:18:17Z</time>
      </trkpt>
      <trkpt lat="46.44283" lon="5.71744">
        <ele>636.6</ele>
        <time>2022-02-28T14:18:18Z</time>
      </trkpt>
      <trkpt lat="46.44286" lon="5.71743">
        <ele>636.6</ele>
        <time>2022-02-28T14:18:19Z</time>
      </trkpt>
      <trkpt lat="46.44289" lon="5.71743">
        <ele>636.8</ele>
        <time>2022-02-28T14:18:20Z</time>
      </trkpt>
      <trkpt lat="46.44292" lon="5.71742">
        <ele>636.8</ele>
        <time>2022-02-28T14:18:21Z</time>
      </trkpt>
      <trkpt lat="46.44295" lon="5.71741">
        <ele>636.8</ele>
        <time>2022-02-28T14:18:22Z</time>
      </trkpt>
      <trkpt lat="46.44298" lon="5.7174">
        <ele>637</ele>
        <time>2022-02-28T14:18:23Z</time>
      </trkpt>
      <trkpt lat="46.44302" lon="5.7174">
        <ele>637.2</ele>
        <time>2022-02-28T14:18:24Z</time>
      </trkpt>
      <trkpt lat="46.44304" lon="5.71739">
        <ele>637.2</ele>
        <time>2022-02-28T14:18:25Z</time>
      </trkpt>
      <trkpt lat="46.44307" lon="5.71739">
        <ele>637.4</ele>
        <time>2022-02-28T14:18:26Z</time>
      </trkpt>
      <trkpt lat="46.44308" lon="5.71738">
        <ele>637.4</ele>
        <time>2022-02-28T14:18:27Z</time>
      </trkpt>
      <trkpt lat="46.44309" lon="5.71738">
        <ele>637.8</ele>
        <time>2022-02-28T14:18:28Z</time>
      </trkpt>
      <trkpt lat="46.44309" lon="5.71738">
        <ele>637.8</ele>
        <time>2022-02-28T14:18:29Z</time>
      </trkpt>
      <trkpt lat="46.44309" lon="5.71738">
        <ele>637.8</ele>
        <time>2022-02-28T14:18:30Z</time>
      </trkpt>
      <trkpt lat="46.44309" lon="5.71738">
        <ele>637.8</ele>
        <time>2022-02-28T14:18:31Z</time>
      </trkpt>
      <trkpt lat="46.4431" lon="5.71738">
        <ele>637.8</ele>
        <time>2022-02-28T14:18:32Z</time>
      </trkpt>
      <trkpt lat="46.4431" lon="5.71738">
        <ele>638</ele>
        <time>2022-02-28T14:18:33Z</time>
      </trkpt>
      <trkpt lat="46.4431" lon="5.71738">
        <ele>638</ele>
        <time>2022-02-28T14:18:34Z</time>
      </trkpt>
      <trkpt lat="46.4431" lon="5.71738">
        <ele>638</ele>
        <time>2022-02-28T14:18:35Z</time>
      </trkpt>
      <trkpt lat="46.4431" lon="5.71738">
        <ele>638</ele>
        <time>2022-02-28T14:18:37Z</time>
      </trkpt>
      <trkpt lat="46.44311" lon="5.71738">
        <ele>638</ele>
        <time>2022-02-28T14:18:38Z</time>
      </trkpt>
      <trkpt lat="46.44311" lon="5.71738">
        <ele>638</ele>
        <time>2022-02-28T14:18:39Z</time>
      </trkpt>
      <trkpt lat="46.44311" lon="5.71738">
        <ele>638</ele>
        <time>2022-02-28T14:18:40Z</time>
      </trkpt>
      <trkpt lat="46.44311" lon="5.71738">
        <ele>638</ele>
        <time>2022-02-28T14:18:42Z</time>
      </trkpt>
      <trkpt lat="46.44312" lon="5.71738">
        <ele>638</ele>
        <time>2022-02-28T14:18:43Z</time>
      </trkpt>
      <trkpt lat="46.44312" lon="5.71738">
        <ele>638.2</ele>
        <time>2022-02-28T14:19:22Z</time>
      </trkpt>
      <trkpt lat="46.44312" lon="5.71738">
        <ele>638.2</ele>
        <time>2022-02-28T14:19:23Z</time>
      </trkpt>
      <trkpt lat="46.44312" lon="5.71738">
        <ele>638.2</ele>
        <time>2022-02-28T14:19:24Z</time>
      </trkpt>
      <trkpt lat="46.44313" lon="5.71738">
        <ele>638.2</ele>
        <time>2022-02-28T14:19:25Z</time>
      </trkpt>
      <trkpt lat="46.44313" lon="5.71738">
        <ele>638.2</ele>
        <time>2022-02-28T14:19:26Z</time>
      </trkpt>
      <trkpt lat="46.44313" lon="5.71738">
        <ele>638.2</ele>
        <time>2022-02-28T14:19:29Z</time>
      </trkpt>
      <trkpt lat="46.44313" lon="5.71738">
        <ele>638.2</ele>
        <time>2022-02-28T14:19:30Z</time>
      </trkpt>
      <trkpt lat="46.44313" lon="5.71738">
        <ele>638.2</ele>
        <time>2022-02-28T14:19:31Z</time>
      </trkpt>
      <trkpt lat="46.44314" lon="5.71738">
        <ele>638.4</ele>
        <time>2022-02-28T14:19:32Z</time>
      </trkpt>
      <trkpt lat="46.44314" lon="5.71738">
        <ele>638.4</ele>
        <time>2022-02-28T14:19:33Z</time>
      </trkpt>
      <trkpt lat="46.44316" lon="5.71738">
        <ele>638.4</ele>
        <time>2022-02-28T14:19:34Z</time>
      </trkpt>
      <trkpt lat="46.44318" lon="5.71737">
        <ele>638.4</ele>
        <time>2022-02-28T14:19:35Z</time>
      </trkpt>
      <trkpt lat="46.4432" lon="5.71737">
        <ele>638.6</ele>
        <time>2022-02-28T14:19:36Z</time>
      </trkpt>
      <trkpt lat="46.44322" lon="5.71737">
        <ele>638.6</ele>
        <time>2022-02-28T14:19:37Z</time>
      </trkpt>
      <trkpt lat="46.44324" lon="5.71737">
        <ele>638.8</ele>
        <time>2022-02-28T14:19:38Z</time>
      </trkpt>
      <trkpt lat="46.44326" lon="5.71736">
        <ele>638.8</ele>
        <time>2022-02-28T14:19:39Z</time>
      </trkpt>
      <trkpt lat="46.44328" lon="5.71736">
        <ele>639</ele>
        <time>2022-02-28T14:19:40Z</time>
      </trkpt>
      <trkpt lat="46.44331" lon="5.71735">
        <ele>639</ele>
        <time>2022-02-28T14:19:41Z</time>
      </trkpt>
      <trkpt lat="46.44333" lon="5.71735">
        <ele>639.2</ele>
        <time>2022-02-28T14:19:42Z</time>
      </trkpt>
      <trkpt lat="46.44335" lon="5.71735">
        <ele>639.2</ele>
        <time>2022-02-28T14:19:43Z</time>
      </trkpt>
      <trkpt lat="46.44338" lon="5.71734">
        <ele>639.6</ele>
        <time>2022-02-28T14:19:44Z</time>
      </trkpt>
      <trkpt lat="46.4434" lon="5.71734">
        <ele>639.6</ele>
        <time>2022-02-28T14:19:45Z</time>
      </trkpt>
      <trkpt lat="46.44343" lon="5.71733">
        <ele>640</ele>
        <time>2022-02-28T14:19:46Z</time>
      </trkpt>
      <trkpt lat="46.44345" lon="5.71733">
        <ele>640</ele>
        <time>2022-02-28T14:19:47Z</time>
      </trkpt>
      <trkpt lat="46.44348" lon="5.71733">
        <ele>640.2</ele>
        <time>2022-02-28T14:19:48Z</time>
      </trkpt>
      <trkpt lat="46.4435" lon="5.71732">
        <ele>640.2</ele>
        <time>2022-02-28T14:19:49Z</time>
      </trkpt>
      <trkpt lat="46.44353" lon="5.71732">
        <ele>640.6</ele>
        <time>2022-02-28T14:19:50Z</time>
      </trkpt>
      <trkpt lat="46.44356" lon="5.71732">
        <ele>640.6</ele>
        <time>2022-02-28T14:19:51Z</time>
      </trkpt>
      <trkpt lat="46.44358" lon="5.71732">
        <ele>640.8</ele>
        <time>2022-02-28T14:19:52Z</time>
      </trkpt>
      <trkpt lat="46.44361" lon="5.71732">
        <ele>641.2</ele>
        <time>2022-02-28T14:19:53Z</time>
      </trkpt>
      <trkpt lat="46.44364" lon="5.71732">
        <ele>641.2</ele>
        <time>2022-02-28T14:19:54Z</time>
      </trkpt>
      <trkpt lat="46.44366" lon="5.71732">
        <ele>641.4</ele>
        <time>2022-02-28T14:19:55Z</time>
      </trkpt>
      <trkpt lat="46.44369" lon="5.71732">
        <ele>641.4</ele>
        <time>2022-02-28T14:19:56Z</time>
      </trkpt>
      <trkpt lat="46.44371" lon="5.71732">
        <ele>641.8</ele>
        <time>2022-02-28T14:19:57Z</time>
      </trkpt>
      <trkpt lat="46.44374" lon="5.71731">
        <ele>642</ele>
        <time>2022-02-28T14:19:58Z</time>
      </trkpt>
      <trkpt lat="46.44376" lon="5.71732">
        <ele>642</ele>
        <time>2022-02-28T14:19:59Z</time>
      </trkpt>
      <trkpt lat="46.44379" lon="5.71732">
        <ele>642.2</ele>
        <time>2022-02-28T14:20:00Z</time>
      </trkpt>
      <trkpt lat="46.44381" lon="5.71733">
        <ele>642.2</ele>
        <time>2022-02-28T14:20:01Z</time>
      </trkpt>
      <trkpt lat="46.44384" lon="5.71733">
        <ele>642.6</ele>
        <time>2022-02-28T14:20:02Z</time>
      </trkpt>
      <trkpt lat="46.44387" lon="5.71734">
        <ele>642.6</ele>
        <time>2022-02-28T14:20:03Z</time>
      </trkpt>
      <trkpt lat="46.44389" lon="5.71734">
        <ele>642.6</ele>
        <time>2022-02-28T14:20:04Z</time>
      </trkpt>
      <trkpt lat="46.44392" lon="5.71734">
        <ele>642.6</ele>
        <time>2022-02-28T14:20:05Z</time>
      </trkpt>
      <trkpt lat="46.44395" lon="5.71735">
        <ele>642.8</ele>
        <time>2022-02-28T14:20:06Z</time>
      </trkpt>
      <trkpt lat="46.44397" lon="5.71735">
        <ele>642.8</ele>
        <time>2022-02-28T14:20:07Z</time>
      </trkpt>
      <trkpt lat="46.444" lon="5.71736">
        <ele>642.8</ele>
        <time>2022-02-28T14:20:08Z</time>
      </trkpt>
      <trkpt lat="46.44402" lon="5.71736">
        <ele>643.2</ele>
        <time>2022-02-28T14:20:09Z</time>
      </trkpt>
      <trkpt lat="46.44405" lon="5.71737">
        <ele>643.2</ele>
        <time>2022-02-28T14:20:10Z</time>
      </trkpt>
      <trkpt lat="46.44408" lon="5.71737">
        <ele>643.4</ele>
        <time>2022-02-28T14:20:11Z</time>
      </trkpt>
      <trkpt lat="46.44411" lon="5.71738">
        <ele>643.4</ele>
        <time>2022-02-28T14:20:12Z</time>
      </trkpt>
      <trkpt lat="46.44413" lon="5.71738">
        <ele>643.6</ele>
        <time>2022-02-28T14:20:13Z</time>
      </trkpt>
      <trkpt lat="46.44416" lon="5.71739">
        <ele>643.6</ele>
        <time>2022-02-28T14:20:14Z</time>
      </trkpt>
      <trkpt lat="46.44419" lon="5.7174">
        <ele>643.8</ele>
        <time>2022-02-28T14:20:15Z</time>
      </trkpt>
      <trkpt lat="46.44422" lon="5.71741">
        <ele>643.8</ele>
        <time>2022-02-28T14:20:16Z</time>
      </trkpt>
      <trkpt lat="46.44424" lon="5.71742">
        <ele>644</ele>
        <time>2022-02-28T14:20:17Z</time>
      </trkpt>
      <trkpt lat="46.44427" lon="5.71742">
        <ele>644</ele>
        <time>2022-02-28T14:20:18Z</time>
      </trkpt>
      <trkpt lat="46.4443" lon="5.71743">
        <ele>644.4</ele>
        <time>2022-02-28T14:20:19Z</time>
      </trkpt>
      <trkpt lat="46.44433" lon="5.71744">
        <ele>644.4</ele>
        <time>2022-02-28T14:20:20Z</time>
      </trkpt>
      <trkpt lat="46.44435" lon="5.71745">
        <ele>644.6</ele>
        <time>2022-02-28T14:20:21Z</time>
      </trkpt>
      <trkpt lat="46.44438" lon="5.71745">
        <ele>644.6</ele>
        <time>2022-02-28T14:20:22Z</time>
      </trkpt>
      <trkpt lat="46.44441" lon="5.71745">
        <ele>644.8</ele>
        <time>2022-02-28T14:20:23Z</time>
      </trkpt>
      <trkpt lat="46.44444" lon="5.71745">
        <ele>644.8</ele>
        <time>2022-02-28T14:20:24Z</time>
      </trkpt>
      <trkpt lat="46.44447" lon="5.71746">
        <ele>645.2</ele>
        <time>2022-02-28T14:20:25Z</time>
      </trkpt>
      <trkpt lat="46.44449" lon="5.71747">
        <ele>645.2</ele>
        <time>2022-02-28T14:20:26Z</time>
      </trkpt>
      <trkpt lat="46.44452" lon="5.71748">
        <ele>645.4</ele>
        <time>2022-02-28T14:20:27Z</time>
      </trkpt>
      <trkpt lat="46.44455" lon="5.71749">
        <ele>645.4</ele>
        <time>2022-02-28T14:20:28Z</time>
      </trkpt>
      <trkpt lat="46.44458" lon="5.7175">
        <ele>645.8</ele>
        <time>2022-02-28T14:20:29Z</time>
      </trkpt>
      <trkpt lat="46.4446" lon="5.71751">
        <ele>646.2</ele>
        <time>2022-02-28T14:20:30Z</time>
      </trkpt>
      <trkpt lat="46.44463" lon="5.71751">
        <ele>646.2</ele>
        <time>2022-02-28T14:20:31Z</time>
      </trkpt>
      <trkpt lat="46.44466" lon="5.71752">
        <ele>646.4</ele>
        <time>2022-02-28T14:20:32Z</time>
      </trkpt>
      <trkpt lat="46.44468" lon="5.71752">
        <ele>646.4</ele>
        <time>2022-02-28T14:20:33Z</time>
      </trkpt>
      <trkpt lat="46.4447" lon="5.71753">
        <ele>646.8</ele>
        <time>2022-02-28T14:20:34Z</time>
      </trkpt>
      <trkpt lat="46.44473" lon="5.71754">
        <ele>646.8</ele>
        <time>2022-02-28T14:20:35Z</time>
      </trkpt>
      <trkpt lat="46.44475" lon="5.71754">
        <ele>647</ele>
        <time>2022-02-28T14:20:36Z</time>
      </trkpt>
      <trkpt lat="46.44478" lon="5.71755">
        <ele>647.4</ele>
        <time>2022-02-28T14:20:37Z</time>
      </trkpt>
      <trkpt lat="46.4448" lon="5.71755">
        <ele>647.4</ele>
        <time>2022-02-28T14:20:38Z</time>
      </trkpt>
      <trkpt lat="46.44483" lon="5.71756">
        <ele>647.6</ele>
        <time>2022-02-28T14:20:39Z</time>
      </trkpt>
      <trkpt lat="46.44485" lon="5.71756">
        <ele>648</ele>
        <time>2022-02-28T14:20:40Z</time>
      </trkpt>
      <trkpt lat="46.44488" lon="5.71757">
        <ele>648</ele>
        <time>2022-02-28T14:20:41Z</time>
      </trkpt>
      <trkpt lat="46.4449" lon="5.71758">
        <ele>648.2</ele>
        <time>2022-02-28T14:20:42Z</time>
      </trkpt>
      <trkpt lat="46.44493" lon="5.71759">
        <ele>648.4</ele>
        <time>2022-02-28T14:20:43Z</time>
      </trkpt>
      <trkpt lat="46.44495" lon="5.71759">
        <ele>648.8</ele>
        <time>2022-02-28T14:20:44Z</time>
      </trkpt>
      <trkpt lat="46.44497" lon="5.7176">
        <ele>649</ele>
        <time>2022-02-28T14:20:45Z</time>
      </trkpt>
      <trkpt lat="46.44499" lon="5.7176">
        <ele>649</ele>
        <time>2022-02-28T14:20:46Z</time>
      </trkpt>
      <trkpt lat="46.44502" lon="5.7176">
        <ele>649.6</ele>
        <time>2022-02-28T14:20:47Z</time>
      </trkpt>
      <trkpt lat="46.44504" lon="5.71761">
        <ele>649.8</ele>
        <time>2022-02-28T14:20:48Z</time>
      </trkpt>
      <trkpt lat="46.44507" lon="5.71762">
        <ele>650</ele>
        <time>2022-02-28T14:20:49Z</time>
      </trkpt>
      <trkpt lat="46.44509" lon="5.71762">
        <ele>650.2</ele>
        <time>2022-02-28T14:20:50Z</time>
      </trkpt>
      <trkpt lat="46.44512" lon="5.71763">
        <ele>650.6</ele>
        <time>2022-02-28T14:20:51Z</time>
      </trkpt>
      <trkpt lat="46.44514" lon="5.71764">
        <ele>650.8</ele>
        <time>2022-02-28T14:20:52Z</time>
      </trkpt>
      <trkpt lat="46.44517" lon="5.71765">
        <ele>650.8</ele>
        <time>2022-02-28T14:20:53Z</time>
      </trkpt>
      <trkpt lat="46.4452" lon="5.71766">
        <ele>651.2</ele>
        <time>2022-02-28T14:20:54Z</time>
      </trkpt>
      <trkpt lat="46.44523" lon="5.71767">
        <ele>651.6</ele>
        <time>2022-02-28T14:20:55Z</time>
      </trkpt>
      <trkpt lat="46.44525" lon="5.71768">
        <ele>651.8</ele>
        <time>2022-02-28T14:20:56Z</time>
      </trkpt>
      <trkpt lat="46.44527" lon="5.71768">
        <ele>652</ele>
        <time>2022-02-28T14:20:57Z</time>
      </trkpt>
      <trkpt lat="46.4453" lon="5.71768">
        <ele>652.4</ele>
        <time>2022-02-28T14:20:58Z</time>
      </trkpt>
      <trkpt lat="46.44533" lon="5.71769">
        <ele>652.6</ele>
        <time>2022-02-28T14:20:59Z</time>
      </trkpt>
      <trkpt lat="46.44536" lon="5.7177">
        <ele>653</ele>
        <time>2022-02-28T14:21:00Z</time>
      </trkpt>
      <trkpt lat="46.44539" lon="5.71771">
        <ele>653.2</ele>
        <time>2022-02-28T14:21:01Z</time>
      </trkpt>
      <trkpt lat="46.44541" lon="5.71772">
        <ele>653.4</ele>
        <time>2022-02-28T14:21:02Z</time>
      </trkpt>
      <trkpt lat="46.44544" lon="5.71773">
        <ele>653.6</ele>
        <time>2022-02-28T14:21:03Z</time>
      </trkpt>
      <trkpt lat="46.44546" lon="5.71774">
        <ele>653.8</ele>
        <time>2022-02-28T14:21:04Z</time>
      </trkpt>
      <trkpt lat="46.44549" lon="5.71776">
        <ele>654</ele>
        <time>2022-02-28T14:21:05Z</time>
      </trkpt>
      <trkpt lat="46.44551" lon="5.71777">
        <ele>654.4</ele>
        <time>2022-02-28T14:21:06Z</time>
      </trkpt>
      <trkpt lat="46.44554" lon="5.71778">
        <ele>654.4</ele>
        <time>2022-02-28T14:21:07Z</time>
      </trkpt>
      <trkpt lat="46.44556" lon="5.7178">
        <ele>654.6</ele>
        <time>2022-02-28T14:21:08Z</time>
      </trkpt>
      <trkpt lat="46.44558" lon="5.71781">
        <ele>654.8</ele>
        <time>2022-02-28T14:21:09Z</time>
      </trkpt>
      <trkpt lat="46.44561" lon="5.71782">
        <ele>654.8</ele>
        <time>2022-02-28T14:21:10Z</time>
      </trkpt>
      <trkpt lat="46.44563" lon="5.71784">
        <ele>655.2</ele>
        <time>2022-02-28T14:21:11Z</time>
      </trkpt>
      <trkpt lat="46.44566" lon="5.71785">
        <ele>655.2</ele>
        <time>2022-02-28T14:21:12Z</time>
      </trkpt>
      <trkpt lat="46.44568" lon="5.71787">
        <ele>655.6</ele>
        <time>2022-02-28T14:21:13Z</time>
      </trkpt>
      <trkpt lat="46.4457" lon="5.71789">
        <ele>655.6</ele>
        <time>2022-02-28T14:21:14Z</time>
      </trkpt>
      <trkpt lat="46.44572" lon="5.7179">
        <ele>656</ele>
        <time>2022-02-28T14:21:15Z</time>
      </trkpt>
      <trkpt lat="46.44575" lon="5.71792">
        <ele>656</ele>
        <time>2022-02-28T14:21:16Z</time>
      </trkpt>
      <trkpt lat="46.44577" lon="5.71794">
        <ele>656.2</ele>
        <time>2022-02-28T14:21:17Z</time>
      </trkpt>
      <trkpt lat="46.44579" lon="5.71796">
        <ele>656.2</ele>
        <time>2022-02-28T14:21:18Z</time>
      </trkpt>
      <trkpt lat="46.44581" lon="5.71797">
        <ele>656.6</ele>
        <time>2022-02-28T14:21:19Z</time>
      </trkpt>
      <trkpt lat="46.44583" lon="5.71799">
        <ele>656.6</ele>
        <time>2022-02-28T14:21:20Z</time>
      </trkpt>
      <trkpt lat="46.44586" lon="5.71801">
        <ele>656.8</ele>
        <time>2022-02-28T14:21:21Z</time>
      </trkpt>
      <trkpt lat="46.44588" lon="5.71803">
        <ele>656.8</ele>
        <time>2022-02-28T14:21:22Z</time>
      </trkpt>
      <trkpt lat="46.4459" lon="5.71805">
        <ele>657.2</ele>
        <time>2022-02-28T14:21:23Z</time>
      </trkpt>
      <trkpt lat="46.44592" lon="5.71807">
        <ele>657.2</ele>
        <time>2022-02-28T14:21:24Z</time>
      </trkpt>
      <trkpt lat="46.44594" lon="5.7181">
        <ele>657.6</ele>
        <time>2022-02-28T14:21:25Z</time>
      </trkpt>
      <trkpt lat="46.44596" lon="5.71812">
        <ele>657.8</ele>
        <time>2022-02-28T14:21:26Z</time>
      </trkpt>
      <trkpt lat="46.44599" lon="5.71814">
        <ele>657.8</ele>
        <time>2022-02-28T14:21:27Z</time>
      </trkpt>
      <trkpt lat="46.44601" lon="5.71816">
        <ele>658.2</ele>
        <time>2022-02-28T14:21:28Z</time>
      </trkpt>
      <trkpt lat="46.44604" lon="5.71818">
        <ele>658.2</ele>
        <time>2022-02-28T14:21:29Z</time>
      </trkpt>
      <trkpt lat="46.44606" lon="5.7182">
        <ele>658.4</ele>
        <time>2022-02-28T14:21:30Z</time>
      </trkpt>
      <trkpt lat="46.44609" lon="5.71822">
        <ele>658.4</ele>
        <time>2022-02-28T14:21:31Z</time>
      </trkpt>
      <trkpt lat="46.44611" lon="5.71825">
        <ele>658.8</ele>
        <time>2022-02-28T14:21:32Z</time>
      </trkpt>
      <trkpt lat="46.44614" lon="5.71827">
        <ele>658.8</ele>
        <time>2022-02-28T14:21:33Z</time>
      </trkpt>
      <trkpt lat="46.44616" lon="5.71829">
        <ele>658.8</ele>
        <time>2022-02-28T14:21:34Z</time>
      </trkpt>
      <trkpt lat="46.44619" lon="5.71831">
        <ele>659</ele>
        <time>2022-02-28T14:21:35Z</time>
      </trkpt>
      <trkpt lat="46.44622" lon="5.71834">
        <ele>659</ele>
        <time>2022-02-28T14:21:36Z</time>
      </trkpt>
      <trkpt lat="46.44625" lon="5.71836">
        <ele>659.2</ele>
        <time>2022-02-28T14:21:37Z</time>
      </trkpt>
      <trkpt lat="46.44627" lon="5.71839">
        <ele>659.2</ele>
        <time>2022-02-28T14:21:38Z</time>
      </trkpt>
      <trkpt lat="46.4463" lon="5.71841">
        <ele>659.2</ele>
        <time>2022-02-28T14:21:39Z</time>
      </trkpt>
      <trkpt lat="46.44633" lon="5.71843">
        <ele>659.2</ele>
        <time>2022-02-28T14:21:40Z</time>
      </trkpt>
      <trkpt lat="46.44636" lon="5.71844">
        <ele>659.6</ele>
        <time>2022-02-28T14:21:41Z</time>
      </trkpt>
      <trkpt lat="46.4464" lon="5.71846">
        <ele>659.6</ele>
        <time>2022-02-28T14:21:42Z</time>
      </trkpt>
      <trkpt lat="46.44643" lon="5.71848">
        <ele>659.6</ele>
        <time>2022-02-28T14:21:43Z</time>
      </trkpt>
      <trkpt lat="46.44646" lon="5.71849">
        <ele>659.8</ele>
        <time>2022-02-28T14:21:44Z</time>
      </trkpt>
      <trkpt lat="46.44649" lon="5.7185">
        <ele>659.8</ele>
        <time>2022-02-28T14:21:45Z</time>
      </trkpt>
      <trkpt lat="46.44653" lon="5.71851">
        <ele>660.2</ele>
        <time>2022-02-28T14:21:46Z</time>
      </trkpt>
      <trkpt lat="46.44656" lon="5.71852">
        <ele>660.2</ele>
        <time>2022-02-28T14:21:47Z</time>
      </trkpt>
      <trkpt lat="46.4466" lon="5.71853">
        <ele>660.4</ele>
        <time>2022-02-28T14:21:48Z</time>
      </trkpt>
      <trkpt lat="46.44663" lon="5.71854">
        <ele>660.4</ele>
        <time>2022-02-28T14:21:49Z</time>
      </trkpt>
      <trkpt lat="46.44667" lon="5.71854">
        <ele>660.6</ele>
        <time>2022-02-28T14:21:50Z</time>
      </trkpt>
      <trkpt lat="46.4467" lon="5.71855">
        <ele>660.6</ele>
        <time>2022-02-28T14:21:51Z</time>
      </trkpt>
      <trkpt lat="46.44674" lon="5.71856">
        <ele>660.6</ele>
        <time>2022-02-28T14:21:52Z</time>
      </trkpt>
      <trkpt lat="46.44678" lon="5.71856">
        <ele>660.8</ele>
        <time>2022-02-28T14:21:53Z</time>
      </trkpt>
      <trkpt lat="46.44682" lon="5.71856">
        <ele>660.8</ele>
        <time>2022-02-28T14:21:54Z</time>
      </trkpt>
      <trkpt lat="46.44687" lon="5.71856">
        <ele>660.8</ele>
        <time>2022-02-28T14:21:55Z</time>
      </trkpt>
      <trkpt lat="46.44691" lon="5.71857">
        <ele>660.8</ele>
        <time>2022-02-28T14:21:56Z</time>
      </trkpt>
      <trkpt lat="46.44695" lon="5.71857">
        <ele>660.8</ele>
        <time>2022-02-28T14:21:57Z</time>
      </trkpt>
      <trkpt lat="46.447" lon="5.71857">
        <ele>660.8</ele>
        <time>2022-02-28T14:21:58Z</time>
      </trkpt>
      <trkpt lat="46.44704" lon="5.71857">
        <ele>660.8</ele>
        <time>2022-02-28T14:21:59Z</time>
      </trkpt>
      <trkpt lat="46.44708" lon="5.71858">
        <ele>660.8</ele>
        <time>2022-02-28T14:22:00Z</time>
      </trkpt>
      <trkpt lat="46.44712" lon="5.71858">
        <ele>660.8</ele>
        <time>2022-02-28T14:22:01Z</time>
      </trkpt>
      <trkpt lat="46.44717" lon="5.71859">
        <ele>660.8</ele>
        <time>2022-02-28T14:22:02Z</time>
      </trkpt>
      <trkpt lat="46.44721" lon="5.71859">
        <ele>661</ele>
        <time>2022-02-28T14:22:03Z</time>
      </trkpt>
      <trkpt lat="46.44725" lon="5.71859">
        <ele>661</ele>
        <time>2022-02-28T14:22:04Z</time>
      </trkpt>
      <trkpt lat="46.4473" lon="5.7186">
        <ele>661</ele>
        <time>2022-02-28T14:22:05Z</time>
      </trkpt>
      <trkpt lat="46.44734" lon="5.71861">
        <ele>661</ele>
        <time>2022-02-28T14:22:06Z</time>
      </trkpt>
      <trkpt lat="46.44738" lon="5.71862">
        <ele>661</ele>
        <time>2022-02-28T14:22:07Z</time>
      </trkpt>
      <trkpt lat="46.44742" lon="5.71863">
        <ele>661</ele>
        <time>2022-02-28T14:22:08Z</time>
      </trkpt>
      <trkpt lat="46.44746" lon="5.71865">
        <ele>661.2</ele>
        <time>2022-02-28T14:22:09Z</time>
      </trkpt>
      <trkpt lat="46.4475" lon="5.71866">
        <ele>661.2</ele>
        <time>2022-02-28T14:22:10Z</time>
      </trkpt>
      <trkpt lat="46.44754" lon="5.71868">
        <ele>661.6</ele>
        <time>2022-02-28T14:22:11Z</time>
      </trkpt>
      <trkpt lat="46.44757" lon="5.7187">
        <ele>661.6</ele>
        <time>2022-02-28T14:22:12Z</time>
      </trkpt>
      <trkpt lat="46.44761" lon="5.71871">
        <ele>661.8</ele>
        <time>2022-02-28T14:22:13Z</time>
      </trkpt>
      <trkpt lat="46.44764" lon="5.71873">
        <ele>661.8</ele>
        <time>2022-02-28T14:22:14Z</time>
      </trkpt>
      <trkpt lat="46.44767" lon="5.71875">
        <ele>662</ele>
        <time>2022-02-28T14:22:15Z</time>
      </trkpt>
      <trkpt lat="46.4477" lon="5.71878">
        <ele>662</ele>
        <time>2022-02-28T14:22:16Z</time>
      </trkpt>
      <trkpt lat="46.44773" lon="5.7188">
        <ele>662.2</ele>
        <time>2022-02-28T14:22:17Z</time>
      </trkpt>
      <trkpt lat="46.44776" lon="5.71881">
        <ele>662.2</ele>
        <time>2022-02-28T14:22:18Z</time>
      </trkpt>
      <trkpt lat="46.44778" lon="5.71883">
        <ele>662.6</ele>
        <time>2022-02-28T14:22:19Z</time>
      </trkpt>
      <trkpt lat="46.44781" lon="5.71885">
        <ele>662.8</ele>
        <time>2022-02-28T14:22:20Z</time>
      </trkpt>
      <trkpt lat="46.44784" lon="5.71887">
        <ele>663</ele>
        <time>2022-02-28T14:22:21Z</time>
      </trkpt>
      <trkpt lat="46.44787" lon="5.71889">
        <ele>663.2</ele>
        <time>2022-02-28T14:22:22Z</time>
      </trkpt>
      <trkpt lat="46.4479" lon="5.71891">
        <ele>663.4</ele>
        <time>2022-02-28T14:22:23Z</time>
      </trkpt>
      <trkpt lat="46.44793" lon="5.71893">
        <ele>663.4</ele>
        <time>2022-02-28T14:22:24Z</time>
      </trkpt>
      <trkpt lat="46.44795" lon="5.71895">
        <ele>664</ele>
        <time>2022-02-28T14:22:25Z</time>
      </trkpt>
      <trkpt lat="46.44798" lon="5.71897">
        <ele>664</ele>
        <time>2022-02-28T14:22:26Z</time>
      </trkpt>
      <trkpt lat="46.448" lon="5.71899">
        <ele>664.4</ele>
        <time>2022-02-28T14:22:27Z</time>
      </trkpt>
      <trkpt lat="46.44803" lon="5.71901">
        <ele>664.6</ele>
        <time>2022-02-28T14:22:28Z</time>
      </trkpt>
      <trkpt lat="46.44806" lon="5.71904">
        <ele>664.6</ele>
        <time>2022-02-28T14:22:29Z</time>
      </trkpt>
      <trkpt lat="46.44808" lon="5.71906">
        <ele>665</ele>
        <time>2022-02-28T14:22:30Z</time>
      </trkpt>
      <trkpt lat="46.44811" lon="5.71908">
        <ele>665</ele>
        <time>2022-02-28T14:22:31Z</time>
      </trkpt>
      <trkpt lat="46.44814" lon="5.7191">
        <ele>665.2</ele>
        <time>2022-02-28T14:22:32Z</time>
      </trkpt>
      <trkpt lat="46.44817" lon="5.71912">
        <ele>665.2</ele>
        <time>2022-02-28T14:22:33Z</time>
      </trkpt>
      <trkpt lat="46.4482" lon="5.71914">
        <ele>665.4</ele>
        <time>2022-02-28T14:22:34Z</time>
      </trkpt>
      <trkpt lat="46.44823" lon="5.71917">
        <ele>665.4</ele>
        <time>2022-02-28T14:22:35Z</time>
      </trkpt>
      <trkpt lat="46.44826" lon="5.71919">
        <ele>665.4</ele>
        <time>2022-02-28T14:22:36Z</time>
      </trkpt>
      <trkpt lat="46.44829" lon="5.71921">
        <ele>665.4</ele>
        <time>2022-02-28T14:22:37Z</time>
      </trkpt>
      <trkpt lat="46.44833" lon="5.71923">
        <ele>665.4</ele>
        <time>2022-02-28T14:22:38Z</time>
      </trkpt>
      <trkpt lat="46.44836" lon="5.71925">
        <ele>665.6</ele>
        <time>2022-02-28T14:22:39Z</time>
      </trkpt>
      <trkpt lat="46.4484" lon="5.71927">
        <ele>665.6</ele>
        <time>2022-02-28T14:22:40Z</time>
      </trkpt>
      <trkpt lat="46.44843" lon="5.7193">
        <ele>665.6</ele>
        <time>2022-02-28T14:22:41Z</time>
      </trkpt>
      <trkpt lat="46.44847" lon="5.71932">
        <ele>665.8</ele>
        <time>2022-02-28T14:22:42Z</time>
      </trkpt>
      <trkpt lat="46.4485" lon="5.71934">
        <ele>665.8</ele>
        <time>2022-02-28T14:22:43Z</time>
      </trkpt>
      <trkpt lat="46.44854" lon="5.71936">
        <ele>665.8</ele>
        <time>2022-02-28T14:22:44Z</time>
      </trkpt>
      <trkpt lat="46.44857" lon="5.71939">
        <ele>666</ele>
        <time>2022-02-28T14:22:45Z</time>
      </trkpt>
      <trkpt lat="46.44861" lon="5.71941">
        <ele>666</ele>
        <time>2022-02-28T14:22:46Z</time>
      </trkpt>
      <trkpt lat="46.44865" lon="5.71943">
        <ele>666</ele>
        <time>2022-02-28T14:22:47Z</time>
      </trkpt>
      <trkpt lat="46.44868" lon="5.71945">
        <ele>666</ele>
        <time>2022-02-28T14:22:48Z</time>
      </trkpt>
      <trkpt lat="46.44872" lon="5.71947">
        <ele>666</ele>
        <time>2022-02-28T14:22:49Z</time>
      </trkpt>
      <trkpt lat="46.44876" lon="5.71949">
        <ele>666</ele>
        <time>2022-02-28T14:22:50Z</time>
      </trkpt>
      <trkpt lat="46.44879" lon="5.71952">
        <ele>666.4</ele>
        <time>2022-02-28T14:22:51Z</time>
      </trkpt>
      <trkpt lat="46.44883" lon="5.71954">
        <ele>666.4</ele>
        <time>2022-02-28T14:22:52Z</time>
      </trkpt>
      <trkpt lat="46.44887" lon="5.71956">
        <ele>666.4</ele>
        <time>2022-02-28T14:22:53Z</time>
      </trkpt>
      <trkpt lat="46.4489" lon="5.71958">
        <ele>666.4</ele>
        <time>2022-02-28T14:22:54Z</time>
      </trkpt>
      <trkpt lat="46.44894" lon="5.7196">
        <ele>666.6</ele>
        <time>2022-02-28T14:22:55Z</time>
      </trkpt>
      <trkpt lat="46.44898" lon="5.71962">
        <ele>666.6</ele>
        <time>2022-02-28T14:22:56Z</time>
      </trkpt>
      <trkpt lat="46.44902" lon="5.71965">
        <ele>666.6</ele>
        <time>2022-02-28T14:22:57Z</time>
      </trkpt>
      <trkpt lat="46.44906" lon="5.71967">
        <ele>666.6</ele>
        <time>2022-02-28T14:22:58Z</time>
      </trkpt>
      <trkpt lat="46.4491" lon="5.71969">
        <ele>666.6</ele>
        <time>2022-02-28T14:22:59Z</time>
      </trkpt>
      <trkpt lat="46.44914" lon="5.71971">
        <ele>666.6</ele>
        <time>2022-02-28T14:23:00Z</time>
      </trkpt>
      <trkpt lat="46.44918" lon="5.71974">
        <ele>666.6</ele>
        <time>2022-02-28T14:23:01Z</time>
      </trkpt>
      <trkpt lat="46.44923" lon="5.71976">
        <ele>666.6</ele>
        <time>2022-02-28T14:23:02Z</time>
      </trkpt>
      <trkpt lat="46.44927" lon="5.71978">
        <ele>666.6</ele>
        <time>2022-02-28T14:23:03Z</time>
      </trkpt>
      <trkpt lat="46.44932" lon="5.71981">
        <ele>666.6</ele>
        <time>2022-02-28T14:23:04Z</time>
      </trkpt>
      <trkpt lat="46.44937" lon="5.71983">
        <ele>666.2</ele>
        <time>2022-02-28T14:23:05Z</time>
      </trkpt>
      <trkpt lat="46.44942" lon="5.71986">
        <ele>666.2</ele>
        <time>2022-02-28T14:23:06Z</time>
      </trkpt>
      <trkpt lat="46.44947" lon="5.7199">
        <ele>666.2</ele>
        <time>2022-02-28T14:23:07Z</time>
      </trkpt>
      <trkpt lat="46.44952" lon="5.71994">
        <ele>666.2</ele>
        <time>2022-02-28T14:23:08Z</time>
      </trkpt>
      <trkpt lat="46.44957" lon="5.71999">
        <ele>666.2</ele>
        <time>2022-02-28T14:23:09Z</time>
      </trkpt>
      <trkpt lat="46.44961" lon="5.72004">
        <ele>666.2</ele>
        <time>2022-02-28T14:23:10Z</time>
      </trkpt>
      <trkpt lat="46.44965" lon="5.72009">
        <ele>666.2</ele>
        <time>2022-02-28T14:23:11Z</time>
      </trkpt>
      <trkpt lat="46.44969" lon="5.72014">
        <ele>666.2</ele>
        <time>2022-02-28T14:23:12Z</time>
      </trkpt>
      <trkpt lat="46.44972" lon="5.7202">
        <ele>666.2</ele>
        <time>2022-02-28T14:23:13Z</time>
      </trkpt>
      <trkpt lat="46.44976" lon="5.72026">
        <ele>666.2</ele>
        <time>2022-02-28T14:23:14Z</time>
      </trkpt>
      <trkpt lat="46.44979" lon="5.72032">
        <ele>666.2</ele>
        <time>2022-02-28T14:23:15Z</time>
      </trkpt>
      <trkpt lat="46.44982" lon="5.72039">
        <ele>666.2</ele>
        <time>2022-02-28T14:23:16Z</time>
      </trkpt>
      <trkpt lat="46.44985" lon="5.72046">
        <ele>666.2</ele>
        <time>2022-02-28T14:23:17Z</time>
      </trkpt>
      <trkpt lat="46.44987" lon="5.72053">
        <ele>666.2</ele>
        <time>2022-02-28T14:23:18Z</time>
      </trkpt>
      <trkpt lat="46.4499" lon="5.72061">
        <ele>666.2</ele>
        <time>2022-02-28T14:23:19Z</time>
      </trkpt>
      <trkpt lat="46.44993" lon="5.72069">
        <ele>666.2</ele>
        <time>2022-02-28T14:23:20Z</time>
      </trkpt>
      <trkpt lat="46.44996" lon="5.72077">
        <ele>666</ele>
        <time>2022-02-28T14:23:21Z</time>
      </trkpt>
      <trkpt lat="46.44998" lon="5.72085">
        <ele>666</ele>
        <time>2022-02-28T14:23:22Z</time>
      </trkpt>
      <trkpt lat="46.45001" lon="5.72094">
        <ele>666</ele>
        <time>2022-02-28T14:23:23Z</time>
      </trkpt>
      <trkpt lat="46.45004" lon="5.72103">
        <ele>666</ele>
        <time>2022-02-28T14:23:24Z</time>
      </trkpt>
      <trkpt lat="46.45006" lon="5.72112">
        <ele>665.6</ele>
        <time>2022-02-28T14:23:25Z</time>
      </trkpt>
      <trkpt lat="46.45009" lon="5.72122">
        <ele>665.4</ele>
        <time>2022-02-28T14:23:26Z</time>
      </trkpt>
      <trkpt lat="46.45012" lon="5.72131">
        <ele>665</ele>
        <time>2022-02-28T14:23:27Z</time>
      </trkpt>
      <trkpt lat="46.45016" lon="5.72141">
        <ele>664.8</ele>
        <time>2022-02-28T14:23:28Z</time>
      </trkpt>
      <trkpt lat="46.45021" lon="5.7215">
        <ele>664.4</ele>
        <time>2022-02-28T14:23:29Z</time>
      </trkpt>
      <trkpt lat="46.45025" lon="5.7216">
        <ele>663.8</ele>
        <time>2022-02-28T14:23:30Z</time>
      </trkpt>
      <trkpt lat="46.4503" lon="5.7217">
        <ele>663.6</ele>
        <time>2022-02-28T14:23:31Z</time>
      </trkpt>
      <trkpt lat="46.45034" lon="5.7218">
        <ele>663.2</ele>
        <time>2022-02-28T14:23:32Z</time>
      </trkpt>
      <trkpt lat="46.45039" lon="5.7219">
        <ele>662.8</ele>
        <time>2022-02-28T14:23:33Z</time>
      </trkpt>
      <trkpt lat="46.45043" lon="5.72201">
        <ele>662.4</ele>
        <time>2022-02-28T14:23:34Z</time>
      </trkpt>
      <trkpt lat="46.45048" lon="5.72211">
        <ele>662</ele>
        <time>2022-02-28T14:23:35Z</time>
      </trkpt>
      <trkpt lat="46.45053" lon="5.72222">
        <ele>661.8</ele>
        <time>2022-02-28T14:23:36Z</time>
      </trkpt>
      <trkpt lat="46.45058" lon="5.72233">
        <ele>661.4</ele>
        <time>2022-02-28T14:23:37Z</time>
      </trkpt>
      <trkpt lat="46.45064" lon="5.72245">
        <ele>661</ele>
        <time>2022-02-28T14:23:38Z</time>
      </trkpt>
      <trkpt lat="46.45068" lon="5.72258">
        <ele>660.6</ele>
        <time>2022-02-28T14:23:39Z</time>
      </trkpt>
      <trkpt lat="46.45072" lon="5.72272">
        <ele>660.2</ele>
        <time>2022-02-28T14:23:40Z</time>
      </trkpt>
      <trkpt lat="46.45076" lon="5.72286">
        <ele>659.8</ele>
        <time>2022-02-28T14:23:41Z</time>
      </trkpt>
      <trkpt lat="46.45078" lon="5.723">
        <ele>659.4</ele>
        <time>2022-02-28T14:23:42Z</time>
      </trkpt>
      <trkpt lat="46.45081" lon="5.72314">
        <ele>658.8</ele>
        <time>2022-02-28T14:23:43Z</time>
      </trkpt>
      <trkpt lat="46.45084" lon="5.72328">
        <ele>658.2</ele>
        <time>2022-02-28T14:23:44Z</time>
      </trkpt>
      <trkpt lat="46.45087" lon="5.72342">
        <ele>657.6</ele>
        <time>2022-02-28T14:23:45Z</time>
      </trkpt>
      <trkpt lat="46.45089" lon="5.72356">
        <ele>657</ele>
        <time>2022-02-28T14:23:46Z</time>
      </trkpt>
      <trkpt lat="46.45091" lon="5.72372">
        <ele>656.4</ele>
        <time>2022-02-28T14:23:47Z</time>
      </trkpt>
      <trkpt lat="46.45091" lon="5.72386">
        <ele>656</ele>
        <time>2022-02-28T14:23:48Z</time>
      </trkpt>
      <trkpt lat="46.45091" lon="5.72401">
        <ele>655.6</ele>
        <time>2022-02-28T14:23:49Z</time>
      </trkpt>
      <trkpt lat="46.4509" lon="5.72415">
        <ele>655.4</ele>
        <time>2022-02-28T14:23:50Z</time>
      </trkpt>
      <trkpt lat="46.4509" lon="5.72428">
        <ele>655.4</ele>
        <time>2022-02-28T14:23:51Z</time>
      </trkpt>
      <trkpt lat="46.4509" lon="5.7244">
        <ele>655</ele>
        <time>2022-02-28T14:23:52Z</time>
      </trkpt>
      <trkpt lat="46.45092" lon="5.72453">
        <ele>654.6</ele>
        <time>2022-02-28T14:23:53Z</time>
      </trkpt>
      <trkpt lat="46.45095" lon="5.72465">
        <ele>654.4</ele>
        <time>2022-02-28T14:23:54Z</time>
      </trkpt>
      <trkpt lat="46.45099" lon="5.72476">
        <ele>654</ele>
        <time>2022-02-28T14:23:55Z</time>
      </trkpt>
      <trkpt lat="46.45105" lon="5.72488">
        <ele>653.6</ele>
        <time>2022-02-28T14:23:56Z</time>
      </trkpt>
      <trkpt lat="46.4511" lon="5.72499">
        <ele>653.2</ele>
        <time>2022-02-28T14:23:57Z</time>
      </trkpt>
      <trkpt lat="46.45116" lon="5.72509">
        <ele>652.8</ele>
        <time>2022-02-28T14:23:58Z</time>
      </trkpt>
      <trkpt lat="46.45121" lon="5.72519">
        <ele>652.6</ele>
        <time>2022-02-28T14:23:59Z</time>
      </trkpt>
      <trkpt lat="46.45127" lon="5.72529">
        <ele>652.2</ele>
        <time>2022-02-28T14:24:00Z</time>
      </trkpt>
      <trkpt lat="46.45132" lon="5.7254">
        <ele>651.8</ele>
        <time>2022-02-28T14:24:01Z</time>
      </trkpt>
      <trkpt lat="46.45137" lon="5.72551">
        <ele>651.6</ele>
        <time>2022-02-28T14:24:02Z</time>
      </trkpt>
      <trkpt lat="46.45143" lon="5.72562">
        <ele>651.4</ele>
        <time>2022-02-28T14:24:03Z</time>
      </trkpt>
      <trkpt lat="46.45147" lon="5.72573">
        <ele>651.4</ele>
        <time>2022-02-28T14:24:04Z</time>
      </trkpt>
      <trkpt lat="46.45152" lon="5.72585">
        <ele>651.4</ele>
        <time>2022-02-28T14:24:05Z</time>
      </trkpt>
      <trkpt lat="46.45152" lon="5.72585">
        <ele>651</ele>
        <time>2022-02-28T14:24:06Z</time>
      </trkpt>
      <trkpt lat="46.45158" lon="5.72608">
        <ele>651</ele>
        <time>2022-02-28T14:24:07Z</time>
      </trkpt>
      <trkpt lat="46.45158" lon="5.72608">
        <ele>650.8</ele>
        <time>2022-02-28T14:24:08Z</time>
      </trkpt>
      <trkpt lat="46.45161" lon="5.7262">
        <ele>650.8</ele>
        <time>2022-02-28T14:24:09Z</time>
      </trkpt>
      <trkpt lat="46.45163" lon="5.72631">
        <ele>650.8</ele>
        <time>2022-02-28T14:24:10Z</time>
      </trkpt>
      <trkpt lat="46.45165" lon="5.72643">
        <ele>650.6</ele>
        <time>2022-02-28T14:24:11Z</time>
      </trkpt>
      <trkpt lat="46.45168" lon="5.72654">
        <ele>650.6</ele>
        <time>2022-02-28T14:24:12Z</time>
      </trkpt>
      <trkpt lat="46.45173" lon="5.72675">
        <ele>650.2</ele>
        <time>2022-02-28T14:24:13Z</time>
      </trkpt>
      <trkpt lat="46.45176" lon="5.72686">
        <ele>650.2</ele>
        <time>2022-02-28T14:24:14Z</time>
      </trkpt>
      <trkpt lat="46.45179" lon="5.72696">
        <ele>650</ele>
        <time>2022-02-28T14:24:15Z</time>
      </trkpt>
      <trkpt lat="46.45182" lon="5.72705">
        <ele>650</ele>
        <time>2022-02-28T14:24:16Z</time>
      </trkpt>
      <trkpt lat="46.45185" lon="5.72715">
        <ele>650</ele>
        <time>2022-02-28T14:24:17Z</time>
      </trkpt>
      <trkpt lat="46.45188" lon="5.72725">
        <ele>650</ele>
        <time>2022-02-28T14:24:18Z</time>
      </trkpt>
      <trkpt lat="46.45192" lon="5.72734">
        <ele>649.8</ele>
        <time>2022-02-28T14:24:19Z</time>
      </trkpt>
      <trkpt lat="46.45195" lon="5.72743">
        <ele>649.8</ele>
        <time>2022-02-28T14:24:20Z</time>
      </trkpt>
      <trkpt lat="46.45199" lon="5.72752">
        <ele>649.4</ele>
        <time>2022-02-28T14:24:21Z</time>
      </trkpt>
      <trkpt lat="46.45203" lon="5.7276">
        <ele>649.4</ele>
        <time>2022-02-28T14:24:22Z</time>
      </trkpt>
      <trkpt lat="46.45208" lon="5.72769">
        <ele>649.2</ele>
        <time>2022-02-28T14:24:23Z</time>
      </trkpt>
      <trkpt lat="46.45212" lon="5.72778">
        <ele>649.2</ele>
        <time>2022-02-28T14:24:24Z</time>
      </trkpt>
      <trkpt lat="46.45217" lon="5.72786">
        <ele>649.2</ele>
        <time>2022-02-28T14:24:25Z</time>
      </trkpt>
      <trkpt lat="46.45222" lon="5.72794">
        <ele>648.8</ele>
        <time>2022-02-28T14:24:26Z</time>
      </trkpt>
      <trkpt lat="46.45227" lon="5.72802">
        <ele>648.8</ele>
        <time>2022-02-28T14:24:27Z</time>
      </trkpt>
      <trkpt lat="46.45233" lon="5.7281">
        <ele>648.6</ele>
        <time>2022-02-28T14:24:28Z</time>
      </trkpt>
      <trkpt lat="46.45238" lon="5.72817">
        <ele>648.6</ele>
        <time>2022-02-28T14:24:29Z</time>
      </trkpt>
      <trkpt lat="46.45243" lon="5.72824">
        <ele>648.6</ele>
        <time>2022-02-28T14:24:30Z</time>
      </trkpt>
      <trkpt lat="46.45249" lon="5.72831">
        <ele>648.4</ele>
        <time>2022-02-28T14:24:31Z</time>
      </trkpt>
      <trkpt lat="46.45255" lon="5.72837">
        <ele>648.4</ele>
        <time>2022-02-28T14:24:32Z</time>
      </trkpt>
      <trkpt lat="46.45261" lon="5.72844">
        <ele>648</ele>
        <time>2022-02-28T14:24:33Z</time>
      </trkpt>
      <trkpt lat="46.45267" lon="5.7285">
        <ele>648</ele>
        <time>2022-02-28T14:24:34Z</time>
      </trkpt>
      <trkpt lat="46.45273" lon="5.72857">
        <ele>647.8</ele>
        <time>2022-02-28T14:24:35Z</time>
      </trkpt>
      <trkpt lat="46.45279" lon="5.72863">
        <ele>647.8</ele>
        <time>2022-02-28T14:24:36Z</time>
      </trkpt>
      <trkpt lat="46.45285" lon="5.7287">
        <ele>647.8</ele>
        <time>2022-02-28T14:24:37Z</time>
      </trkpt>
      <trkpt lat="46.4529" lon="5.72876">
        <ele>647.6</ele>
        <time>2022-02-28T14:24:38Z</time>
      </trkpt>
      <trkpt lat="46.45296" lon="5.72881">
        <ele>647.6</ele>
        <time>2022-02-28T14:24:39Z</time>
      </trkpt>
      <trkpt lat="46.45302" lon="5.72886">
        <ele>647.4</ele>
        <time>2022-02-28T14:24:40Z</time>
      </trkpt>
      <trkpt lat="46.45309" lon="5.7289">
        <ele>647</ele>
        <time>2022-02-28T14:24:41Z</time>
      </trkpt>
      <trkpt lat="46.45316" lon="5.72893">
        <ele>646.8</ele>
        <time>2022-02-28T14:24:42Z</time>
      </trkpt>
      <trkpt lat="46.45323" lon="5.72894">
        <ele>646.4</ele>
        <time>2022-02-28T14:24:43Z</time>
      </trkpt>
      <trkpt lat="46.45331" lon="5.72894">
        <ele>646</ele>
        <time>2022-02-28T14:24:44Z</time>
      </trkpt>
      <trkpt lat="46.45339" lon="5.72893">
        <ele>645.6</ele>
        <time>2022-02-28T14:24:45Z</time>
      </trkpt>
      <trkpt lat="46.45347" lon="5.7289">
        <ele>645.2</ele>
        <time>2022-02-28T14:24:46Z</time>
      </trkpt>
      <trkpt lat="46.45355" lon="5.72887">
        <ele>644.8</ele>
        <time>2022-02-28T14:24:47Z</time>
      </trkpt>
      <trkpt lat="46.45363" lon="5.72885">
        <ele>644.6</ele>
        <time>2022-02-28T14:24:48Z</time>
      </trkpt>
      <trkpt lat="46.4537" lon="5.72882">
        <ele>644.4</ele>
        <time>2022-02-28T14:24:49Z</time>
      </trkpt>
      <trkpt lat="46.45378" lon="5.72881">
        <ele>644.4</ele>
        <time>2022-02-28T14:24:50Z</time>
      </trkpt>
      <trkpt lat="46.45386" lon="5.7288">
        <ele>644</ele>
        <time>2022-02-28T14:24:51Z</time>
      </trkpt>
      <trkpt lat="46.45393" lon="5.7288">
        <ele>644</ele>
        <time>2022-02-28T14:24:52Z</time>
      </trkpt>
      <trkpt lat="46.45401" lon="5.7288">
        <ele>644</ele>
        <time>2022-02-28T14:24:53Z</time>
      </trkpt>
      <trkpt lat="46.45408" lon="5.72881">
        <ele>644</ele>
        <time>2022-02-28T14:24:54Z</time>
      </trkpt>
      <trkpt lat="46.45414" lon="5.72883">
        <ele>644</ele>
        <time>2022-02-28T14:24:55Z</time>
      </trkpt>
      <trkpt lat="46.45421" lon="5.72885">
        <ele>644.2</ele>
        <time>2022-02-28T14:24:56Z</time>
      </trkpt>
      <trkpt lat="46.45427" lon="5.72887">
        <ele>644.2</ele>
        <time>2022-02-28T14:24:57Z</time>
      </trkpt>
      <trkpt lat="46.45433" lon="5.7289">
        <ele>644.4</ele>
        <time>2022-02-28T14:24:58Z</time>
      </trkpt>
      <trkpt lat="46.45439" lon="5.72893">
        <ele>644.4</ele>
        <time>2022-02-28T14:24:59Z</time>
      </trkpt>
      <trkpt lat="46.45444" lon="5.72896">
        <ele>644.8</ele>
        <time>2022-02-28T14:25:00Z</time>
      </trkpt>
      <trkpt lat="46.45449" lon="5.729">
        <ele>645</ele>
        <time>2022-02-28T14:25:01Z</time>
      </trkpt>
      <trkpt lat="46.45455" lon="5.72903">
        <ele>645</ele>
        <time>2022-02-28T14:25:02Z</time>
      </trkpt>
      <trkpt lat="46.4546" lon="5.72908">
        <ele>645.4</ele>
        <time>2022-02-28T14:25:03Z</time>
      </trkpt>
      <trkpt lat="46.45464" lon="5.72912">
        <ele>645.6</ele>
        <time>2022-02-28T14:25:04Z</time>
      </trkpt>
      <trkpt lat="46.45469" lon="5.72916">
        <ele>645.6</ele>
        <time>2022-02-28T14:25:05Z</time>
      </trkpt>
      <trkpt lat="46.45474" lon="5.7292">
        <ele>646</ele>
        <time>2022-02-28T14:25:06Z</time>
      </trkpt>
      <trkpt lat="46.45478" lon="5.72924">
        <ele>646</ele>
        <time>2022-02-28T14:25:07Z</time>
      </trkpt>
      <trkpt lat="46.45482" lon="5.72929">
        <ele>646.2</ele>
        <time>2022-02-28T14:25:08Z</time>
      </trkpt>
      <trkpt lat="46.45486" lon="5.72933">
        <ele>646.2</ele>
        <time>2022-02-28T14:25:09Z</time>
      </trkpt>
      <trkpt lat="46.4549" lon="5.72938">
        <ele>646.6</ele>
        <time>2022-02-28T14:25:10Z</time>
      </trkpt>
      <trkpt lat="46.45494" lon="5.72942">
        <ele>646.6</ele>
        <time>2022-02-28T14:25:11Z</time>
      </trkpt>
      <trkpt lat="46.45497" lon="5.72946">
        <ele>646.8</ele>
        <time>2022-02-28T14:25:12Z</time>
      </trkpt>
      <trkpt lat="46.455" lon="5.72951">
        <ele>646.8</ele>
        <time>2022-02-28T14:25:13Z</time>
      </trkpt>
      <trkpt lat="46.45503" lon="5.72955">
        <ele>646.8</ele>
        <time>2022-02-28T14:25:14Z</time>
      </trkpt>
      <trkpt lat="46.45506" lon="5.7296">
        <ele>647</ele>
        <time>2022-02-28T14:25:15Z</time>
      </trkpt>
      <trkpt lat="46.45509" lon="5.72964">
        <ele>647</ele>
        <time>2022-02-28T14:25:16Z</time>
      </trkpt>
      <trkpt lat="46.45512" lon="5.72968">
        <ele>647.4</ele>
        <time>2022-02-28T14:25:17Z</time>
      </trkpt>
      <trkpt lat="46.45515" lon="5.72972">
        <ele>647.4</ele>
        <time>2022-02-28T14:25:18Z</time>
      </trkpt>
      <trkpt lat="46.45517" lon="5.72977">
        <ele>647.6</ele>
        <time>2022-02-28T14:25:19Z</time>
      </trkpt>
      <trkpt lat="46.45519" lon="5.72981">
        <ele>648</ele>
        <time>2022-02-28T14:25:20Z</time>
      </trkpt>
      <trkpt lat="46.45522" lon="5.72986">
        <ele>648.2</ele>
        <time>2022-02-28T14:25:21Z</time>
      </trkpt>
      <trkpt lat="46.45524" lon="5.7299">
        <ele>648.6</ele>
        <time>2022-02-28T14:25:22Z</time>
      </trkpt>
      <trkpt lat="46.45527" lon="5.72994">
        <ele>648.8</ele>
        <time>2022-02-28T14:25:23Z</time>
      </trkpt>
      <trkpt lat="46.45529" lon="5.72998">
        <ele>649.2</ele>
        <time>2022-02-28T14:25:24Z</time>
      </trkpt>
      <trkpt lat="46.45531" lon="5.73002">
        <ele>649.4</ele>
        <time>2022-02-28T14:25:25Z</time>
      </trkpt>
      <trkpt lat="46.45533" lon="5.73006">
        <ele>649.8</ele>
        <time>2022-02-28T14:25:26Z</time>
      </trkpt>
      <trkpt lat="46.45535" lon="5.7301">
        <ele>650</ele>
        <time>2022-02-28T14:25:27Z</time>
      </trkpt>
      <trkpt lat="46.45537" lon="5.73014">
        <ele>650.2</ele>
        <time>2022-02-28T14:25:28Z</time>
      </trkpt>
      <trkpt lat="46.45539" lon="5.73017">
        <ele>650.4</ele>
        <time>2022-02-28T14:25:29Z</time>
      </trkpt>
      <trkpt lat="46.45542" lon="5.73021">
        <ele>650.8</ele>
        <time>2022-02-28T14:25:30Z</time>
      </trkpt>
      <trkpt lat="46.45544" lon="5.73025">
        <ele>651</ele>
        <time>2022-02-28T14:25:31Z</time>
      </trkpt>
      <trkpt lat="46.45546" lon="5.73029">
        <ele>651.4</ele>
        <time>2022-02-28T14:25:32Z</time>
      </trkpt>
      <trkpt lat="46.45548" lon="5.73033">
        <ele>651.6</ele>
        <time>2022-02-28T14:25:33Z</time>
      </trkpt>
      <trkpt lat="46.4555" lon="5.73037">
        <ele>651.8</ele>
        <time>2022-02-28T14:25:34Z</time>
      </trkpt>
      <trkpt lat="46.45552" lon="5.73042">
        <ele>652</ele>
        <time>2022-02-28T14:25:35Z</time>
      </trkpt>
      <trkpt lat="46.45554" lon="5.73046">
        <ele>652.2</ele>
        <time>2022-02-28T14:25:36Z</time>
      </trkpt>
      <trkpt lat="46.45556" lon="5.73051">
        <ele>652.4</ele>
        <time>2022-02-28T14:25:37Z</time>
      </trkpt>
      <trkpt lat="46.45558" lon="5.73055">
        <ele>652.4</ele>
        <time>2022-02-28T14:25:38Z</time>
      </trkpt>
      <trkpt lat="46.4556" lon="5.7306">
        <ele>653</ele>
        <time>2022-02-28T14:25:39Z</time>
      </trkpt>
      <trkpt lat="46.45562" lon="5.73064">
        <ele>653</ele>
        <time>2022-02-28T14:25:40Z</time>
      </trkpt>
      <trkpt lat="46.45564" lon="5.73069">
        <ele>653.2</ele>
        <time>2022-02-28T14:25:41Z</time>
      </trkpt>
      <trkpt lat="46.45566" lon="5.73073">
        <ele>653.4</ele>
        <time>2022-02-28T14:25:42Z</time>
      </trkpt>
      <trkpt lat="46.45567" lon="5.73077">
        <ele>653.4</ele>
        <time>2022-02-28T14:25:43Z</time>
      </trkpt>
      <trkpt lat="46.45569" lon="5.7308">
        <ele>653.8</ele>
        <time>2022-02-28T14:25:44Z</time>
      </trkpt>
      <trkpt lat="46.45571" lon="5.73084">
        <ele>653.8</ele>
        <time>2022-02-28T14:25:45Z</time>
      </trkpt>
      <trkpt lat="46.45572" lon="5.73088">
        <ele>654</ele>
        <time>2022-02-28T14:25:46Z</time>
      </trkpt>
      <trkpt lat="46.45574" lon="5.73091">
        <ele>654</ele>
        <time>2022-02-28T14:25:47Z</time>
      </trkpt>
      <trkpt lat="46.45576" lon="5.73094">
        <ele>654.4</ele>
        <time>2022-02-28T14:25:48Z</time>
      </trkpt>
      <trkpt lat="46.45577" lon="5.73097">
        <ele>654.4</ele>
        <time>2022-02-28T14:25:49Z</time>
      </trkpt>
      <trkpt lat="46.45579" lon="5.731">
        <ele>654.6</ele>
        <time>2022-02-28T14:25:50Z</time>
      </trkpt>
      <trkpt lat="46.45582" lon="5.73104">
        <ele>654.6</ele>
        <time>2022-02-28T14:25:51Z</time>
      </trkpt>
      <trkpt lat="46.45584" lon="5.73107">
        <ele>654.8</ele>
        <time>2022-02-28T14:25:52Z</time>
      </trkpt>
      <trkpt lat="46.45586" lon="5.7311">
        <ele>654.8</ele>
        <time>2022-02-28T14:25:53Z</time>
      </trkpt>
      <trkpt lat="46.45589" lon="5.73115">
        <ele>655.2</ele>
        <time>2022-02-28T14:25:54Z</time>
      </trkpt>
      <trkpt lat="46.45591" lon="5.73119">
        <ele>655.2</ele>
        <time>2022-02-28T14:25:55Z</time>
      </trkpt>
      <trkpt lat="46.45593" lon="5.73124">
        <ele>655.4</ele>
        <time>2022-02-28T14:25:56Z</time>
      </trkpt>
      <trkpt lat="46.45595" lon="5.73129">
        <ele>655.4</ele>
        <time>2022-02-28T14:25:57Z</time>
      </trkpt>
      <trkpt lat="46.45597" lon="5.73135">
        <ele>655.4</ele>
        <time>2022-02-28T14:25:58Z</time>
      </trkpt>
      <trkpt lat="46.45599" lon="5.73141">
        <ele>655.4</ele>
        <time>2022-02-28T14:25:59Z</time>
      </trkpt>
      <trkpt lat="46.456" lon="5.73148">
        <ele>655.4</ele>
        <time>2022-02-28T14:26:00Z</time>
      </trkpt>
      <trkpt lat="46.45601" lon="5.73155">
        <ele>655.4</ele>
        <time>2022-02-28T14:26:01Z</time>
      </trkpt>
      <trkpt lat="46.45602" lon="5.73162">
        <ele>655.4</ele>
        <time>2022-02-28T14:26:02Z</time>
      </trkpt>
      <trkpt lat="46.45603" lon="5.73169">
        <ele>655.4</ele>
        <time>2022-02-28T14:26:03Z</time>
      </trkpt>
      <trkpt lat="46.45603" lon="5.73177">
        <ele>655.6</ele>
        <time>2022-02-28T14:26:04Z</time>
      </trkpt>
      <trkpt lat="46.45604" lon="5.73184">
        <ele>655.6</ele>
        <time>2022-02-28T14:26:05Z</time>
      </trkpt>
      <trkpt lat="46.45605" lon="5.73192">
        <ele>655.6</ele>
        <time>2022-02-28T14:26:06Z</time>
      </trkpt>
      <trkpt lat="46.45605" lon="5.73199">
        <ele>656</ele>
        <time>2022-02-28T14:26:07Z</time>
      </trkpt>
      <trkpt lat="46.45606" lon="5.73207">
        <ele>656</ele>
        <time>2022-02-28T14:26:08Z</time>
      </trkpt>
      <trkpt lat="46.45607" lon="5.73214">
        <ele>656.4</ele>
        <time>2022-02-28T14:26:09Z</time>
      </trkpt>
      <trkpt lat="46.45609" lon="5.73221">
        <ele>656.4</ele>
        <time>2022-02-28T14:26:10Z</time>
      </trkpt>
      <trkpt lat="46.4561" lon="5.73227">
        <ele>656.6</ele>
        <time>2022-02-28T14:26:11Z</time>
      </trkpt>
      <trkpt lat="46.45612" lon="5.73234">
        <ele>656.6</ele>
        <time>2022-02-28T14:26:12Z</time>
      </trkpt>
      <trkpt lat="46.45614" lon="5.7324">
        <ele>656.8</ele>
        <time>2022-02-28T14:26:13Z</time>
      </trkpt>
      <trkpt lat="46.45617" lon="5.73246">
        <ele>656.8</ele>
        <time>2022-02-28T14:26:14Z</time>
      </trkpt>
      <trkpt lat="46.4562" lon="5.73252">
        <ele>656.8</ele>
        <time>2022-02-28T14:26:15Z</time>
      </trkpt>
      <trkpt lat="46.45623" lon="5.73257">
        <ele>657.2</ele>
        <time>2022-02-28T14:26:16Z</time>
      </trkpt>
      <trkpt lat="46.45627" lon="5.73262">
        <ele>657.2</ele>
        <time>2022-02-28T14:26:17Z</time>
      </trkpt>
      <trkpt lat="46.4563" lon="5.73267">
        <ele>657.6</ele>
        <time>2022-02-28T14:26:18Z</time>
      </trkpt>
      <trkpt lat="46.45633" lon="5.73271">
        <ele>657.6</ele>
        <time>2022-02-28T14:26:19Z</time>
      </trkpt>
      <trkpt lat="46.45635" lon="5.73275">
        <ele>658</ele>
        <time>2022-02-28T14:26:20Z</time>
      </trkpt>
      <trkpt lat="46.45638" lon="5.73279">
        <ele>658.2</ele>
        <time>2022-02-28T14:26:21Z</time>
      </trkpt>
      <trkpt lat="46.4564" lon="5.73282">
        <ele>658.2</ele>
        <time>2022-02-28T14:26:22Z</time>
      </trkpt>
      <trkpt lat="46.45642" lon="5.73286">
        <ele>658.6</ele>
        <time>2022-02-28T14:26:23Z</time>
      </trkpt>
      <trkpt lat="46.45645" lon="5.73289">
        <ele>658.8</ele>
        <time>2022-02-28T14:26:24Z</time>
      </trkpt>
      <trkpt lat="46.45647" lon="5.73292">
        <ele>658.8</ele>
        <time>2022-02-28T14:26:25Z</time>
      </trkpt>
      <trkpt lat="46.45649" lon="5.73295">
        <ele>659</ele>
        <time>2022-02-28T14:26:26Z</time>
      </trkpt>
      <trkpt lat="46.45651" lon="5.73298">
        <ele>659.2</ele>
        <time>2022-02-28T14:26:27Z</time>
      </trkpt>
      <trkpt lat="46.45654" lon="5.73301">
        <ele>659.2</ele>
        <time>2022-02-28T14:26:28Z</time>
      </trkpt>
      <trkpt lat="46.45656" lon="5.73304">
        <ele>659.8</ele>
        <time>2022-02-28T14:26:29Z</time>
      </trkpt>
      <trkpt lat="46.45658" lon="5.73308">
        <ele>660</ele>
        <time>2022-02-28T14:26:30Z</time>
      </trkpt>
      <trkpt lat="46.4566" lon="5.73311">
        <ele>660.2</ele>
        <time>2022-02-28T14:26:31Z</time>
      </trkpt>
      <trkpt lat="46.45663" lon="5.73314">
        <ele>660.4</ele>
        <time>2022-02-28T14:26:32Z</time>
      </trkpt>
      <trkpt lat="46.45665" lon="5.73318">
        <ele>660.4</ele>
        <time>2022-02-28T14:26:33Z</time>
      </trkpt>
      <trkpt lat="46.45667" lon="5.73321">
        <ele>660.8</ele>
        <time>2022-02-28T14:26:34Z</time>
      </trkpt>
      <trkpt lat="46.45669" lon="5.73324">
        <ele>661</ele>
        <time>2022-02-28T14:26:35Z</time>
      </trkpt>
      <trkpt lat="46.45671" lon="5.73327">
        <ele>661.2</ele>
        <time>2022-02-28T14:26:36Z</time>
      </trkpt>
      <trkpt lat="46.45673" lon="5.7333">
        <ele>661.2</ele>
        <time>2022-02-28T14:26:37Z</time>
      </trkpt>
      <trkpt lat="46.45675" lon="5.73333">
        <ele>661.6</ele>
        <time>2022-02-28T14:26:38Z</time>
      </trkpt>
      <trkpt lat="46.45677" lon="5.73337">
        <ele>661.8</ele>
        <time>2022-02-28T14:26:39Z</time>
      </trkpt>
      <trkpt lat="46.4568" lon="5.7334">
        <ele>662</ele>
        <time>2022-02-28T14:26:40Z</time>
      </trkpt>
      <trkpt lat="46.45682" lon="5.73343">
        <ele>662.2</ele>
        <time>2022-02-28T14:26:41Z</time>
      </trkpt>
      <trkpt lat="46.45684" lon="5.73345">
        <ele>662.2</ele>
        <time>2022-02-28T14:26:42Z</time>
      </trkpt>
      <trkpt lat="46.45686" lon="5.73348">
        <ele>662.6</ele>
        <time>2022-02-28T14:26:43Z</time>
      </trkpt>
      <trkpt lat="46.45688" lon="5.73351">
        <ele>662.6</ele>
        <time>2022-02-28T14:26:44Z</time>
      </trkpt>
      <trkpt lat="46.4569" lon="5.73354">
        <ele>663</ele>
        <time>2022-02-28T14:26:45Z</time>
      </trkpt>
      <trkpt lat="46.45692" lon="5.73357">
        <ele>663</ele>
        <time>2022-02-28T14:26:46Z</time>
      </trkpt>
      <trkpt lat="46.45694" lon="5.7336">
        <ele>663.2</ele>
        <time>2022-02-28T14:26:47Z</time>
      </trkpt>
      <trkpt lat="46.45696" lon="5.73363">
        <ele>663.2</ele>
        <time>2022-02-28T14:26:48Z</time>
      </trkpt>
      <trkpt lat="46.45699" lon="5.73366">
        <ele>663.6</ele>
        <time>2022-02-28T14:26:49Z</time>
      </trkpt>
      <trkpt lat="46.45701" lon="5.73369">
        <ele>663.8</ele>
        <time>2022-02-28T14:26:50Z</time>
      </trkpt>
      <trkpt lat="46.45703" lon="5.73371">
        <ele>664</ele>
        <time>2022-02-28T14:26:51Z</time>
      </trkpt>
      <trkpt lat="46.45705" lon="5.73374">
        <ele>664</ele>
        <time>2022-02-28T14:26:52Z</time>
      </trkpt>
      <trkpt lat="46.45707" lon="5.73377">
        <ele>664</ele>
        <time>2022-02-28T14:26:53Z</time>
      </trkpt>
      <trkpt lat="46.45709" lon="5.7338">
        <ele>664.2</ele>
        <time>2022-02-28T14:26:54Z</time>
      </trkpt>
      <trkpt lat="46.45711" lon="5.73384">
        <ele>664.2</ele>
        <time>2022-02-28T14:26:55Z</time>
      </trkpt>
      <trkpt lat="46.45713" lon="5.73387">
        <ele>664.6</ele>
        <time>2022-02-28T14:26:56Z</time>
      </trkpt>
      <trkpt lat="46.45716" lon="5.7339">
        <ele>664.6</ele>
        <time>2022-02-28T14:26:57Z</time>
      </trkpt>
      <trkpt lat="46.45718" lon="5.73393">
        <ele>664.6</ele>
        <time>2022-02-28T14:26:58Z</time>
      </trkpt>
      <trkpt lat="46.4572" lon="5.73396">
        <ele>664.8</ele>
        <time>2022-02-28T14:26:59Z</time>
      </trkpt>
      <trkpt lat="46.45722" lon="5.73399">
        <ele>664.8</ele>
        <time>2022-02-28T14:27:00Z</time>
      </trkpt>
      <trkpt lat="46.45725" lon="5.73403">
        <ele>665</ele>
        <time>2022-02-28T14:27:01Z</time>
      </trkpt>
      <trkpt lat="46.45727" lon="5.73406">
        <ele>665</ele>
        <time>2022-02-28T14:27:02Z</time>
      </trkpt>
      <trkpt lat="46.4573" lon="5.7341">
        <ele>665</ele>
        <time>2022-02-28T14:27:03Z</time>
      </trkpt>
      <trkpt lat="46.45732" lon="5.73414">
        <ele>665.4</ele>
        <time>2022-02-28T14:27:04Z</time>
      </trkpt>
      <trkpt lat="46.45735" lon="5.73418">
        <ele>665.4</ele>
        <time>2022-02-28T14:27:05Z</time>
      </trkpt>
      <trkpt lat="46.45737" lon="5.73421">
        <ele>665.8</ele>
        <time>2022-02-28T14:27:06Z</time>
      </trkpt>
      <trkpt lat="46.4574" lon="5.73425">
        <ele>665.8</ele>
        <time>2022-02-28T14:27:07Z</time>
      </trkpt>
      <trkpt lat="46.45742" lon="5.73429">
        <ele>666.2</ele>
        <time>2022-02-28T14:27:08Z</time>
      </trkpt>
      <trkpt lat="46.45745" lon="5.73433">
        <ele>666.2</ele>
        <time>2022-02-28T14:27:09Z</time>
      </trkpt>
      <trkpt lat="46.45747" lon="5.73437">
        <ele>666.2</ele>
        <time>2022-02-28T14:27:10Z</time>
      </trkpt>
      <trkpt lat="46.4575" lon="5.7344">
        <ele>666.2</ele>
        <time>2022-02-28T14:27:11Z</time>
      </trkpt>
      <trkpt lat="46.45752" lon="5.73443">
        <ele>666.6</ele>
        <time>2022-02-28T14:27:12Z</time>
      </trkpt>
      <trkpt lat="46.45755" lon="5.73447">
        <ele>666.6</ele>
        <time>2022-02-28T14:27:13Z</time>
      </trkpt>
      <trkpt lat="46.45757" lon="5.73451">
        <ele>666.8</ele>
        <time>2022-02-28T14:27:14Z</time>
      </trkpt>
      <trkpt lat="46.45759" lon="5.73455">
        <ele>667</ele>
        <time>2022-02-28T14:27:15Z</time>
      </trkpt>
      <trkpt lat="46.45762" lon="5.73459">
        <ele>667</ele>
        <time>2022-02-28T14:27:16Z</time>
      </trkpt>
      <trkpt lat="46.45764" lon="5.73462">
        <ele>667</ele>
        <time>2022-02-28T14:27:17Z</time>
      </trkpt>
      <trkpt lat="46.45767" lon="5.73465">
        <ele>667.2</ele>
        <time>2022-02-28T14:27:18Z</time>
      </trkpt>
      <trkpt lat="46.4577" lon="5.73467">
        <ele>667.4</ele>
        <time>2022-02-28T14:27:19Z</time>
      </trkpt>
      <trkpt lat="46.45773" lon="5.73469">
        <ele>667.4</ele>
        <time>2022-02-28T14:27:20Z</time>
      </trkpt>
      <trkpt lat="46.45776" lon="5.7347">
        <ele>667.8</ele>
        <time>2022-02-28T14:27:21Z</time>
      </trkpt>
      <trkpt lat="46.45779" lon="5.73471">
        <ele>667.8</ele>
        <time>2022-02-28T14:27:22Z</time>
      </trkpt>
      <trkpt lat="46.45782" lon="5.73471">
        <ele>667.8</ele>
        <time>2022-02-28T14:27:23Z</time>
      </trkpt>
      <trkpt lat="46.45785" lon="5.73471">
        <ele>667.8</ele>
        <time>2022-02-28T14:27:24Z</time>
      </trkpt>
      <trkpt lat="46.45789" lon="5.73471">
        <ele>668</ele>
        <time>2022-02-28T14:27:25Z</time>
      </trkpt>
      <trkpt lat="46.45792" lon="5.7347">
        <ele>668</ele>
        <time>2022-02-28T14:27:26Z</time>
      </trkpt>
      <trkpt lat="46.45795" lon="5.73469">
        <ele>668.4</ele>
        <time>2022-02-28T14:27:27Z</time>
      </trkpt>
      <trkpt lat="46.45797" lon="5.73467">
        <ele>668.4</ele>
        <time>2022-02-28T14:27:28Z</time>
      </trkpt>
      <trkpt lat="46.458" lon="5.73466">
        <ele>668.8</ele>
        <time>2022-02-28T14:27:29Z</time>
      </trkpt>
      <trkpt lat="46.45803" lon="5.73465">
        <ele>668.8</ele>
        <time>2022-02-28T14:27:30Z</time>
      </trkpt>
      <trkpt lat="46.45805" lon="5.73463">
        <ele>669</ele>
        <time>2022-02-28T14:27:31Z</time>
      </trkpt>
      <trkpt lat="46.45808" lon="5.73462">
        <ele>669.2</ele>
        <time>2022-02-28T14:27:32Z</time>
      </trkpt>
      <trkpt lat="46.45811" lon="5.7346">
        <ele>669.2</ele>
        <time>2022-02-28T14:27:33Z</time>
      </trkpt>
      <trkpt lat="46.45814" lon="5.73458">
        <ele>669.6</ele>
        <time>2022-02-28T14:27:34Z</time>
      </trkpt>
      <trkpt lat="46.45816" lon="5.73455">
        <ele>669.6</ele>
        <time>2022-02-28T14:27:35Z</time>
      </trkpt>
      <trkpt lat="46.45818" lon="5.73451">
        <ele>669.8</ele>
        <time>2022-02-28T14:27:36Z</time>
      </trkpt>
      <trkpt lat="46.4582" lon="5.73447">
        <ele>669.8</ele>
        <time>2022-02-28T14:27:37Z</time>
      </trkpt>
      <trkpt lat="46.45822" lon="5.73444">
        <ele>670.2</ele>
        <time>2022-02-28T14:27:38Z</time>
      </trkpt>
      <trkpt lat="46.45823" lon="5.7344">
        <ele>670.2</ele>
        <time>2022-02-28T14:27:39Z</time>
      </trkpt>
      <trkpt lat="46.45825" lon="5.73436">
        <ele>670.2</ele>
        <time>2022-02-28T14:27:40Z</time>
      </trkpt>
      <trkpt lat="46.45827" lon="5.73433">
        <ele>670.2</ele>
        <time>2022-02-28T14:27:41Z</time>
      </trkpt>
      <trkpt lat="46.45829" lon="5.73429">
        <ele>670.2</ele>
        <time>2022-02-28T14:27:42Z</time>
      </trkpt>
      <trkpt lat="46.45831" lon="5.73425">
        <ele>670.2</ele>
        <time>2022-02-28T14:27:43Z</time>
      </trkpt>
      <trkpt lat="46.45833" lon="5.7342">
        <ele>670.2</ele>
        <time>2022-02-28T14:27:44Z</time>
      </trkpt>
      <trkpt lat="46.45835" lon="5.73415">
        <ele>670</ele>
        <time>2022-02-28T14:27:45Z</time>
      </trkpt>
      <trkpt lat="46.45838" lon="5.73411">
        <ele>670</ele>
        <time>2022-02-28T14:27:46Z</time>
      </trkpt>
      <trkpt lat="46.45842" lon="5.73407">
        <ele>669.6</ele>
        <time>2022-02-28T14:27:47Z</time>
      </trkpt>
      <trkpt lat="46.45846" lon="5.73402">
        <ele>669.4</ele>
        <time>2022-02-28T14:27:48Z</time>
      </trkpt>
      <trkpt lat="46.45851" lon="5.73397">
        <ele>669.2</ele>
        <time>2022-02-28T14:27:49Z</time>
      </trkpt>
      <trkpt lat="46.45855" lon="5.73391">
        <ele>669.2</ele>
        <time>2022-02-28T14:27:50Z</time>
      </trkpt>
      <trkpt lat="46.4586" lon="5.73385">
        <ele>669</ele>
        <time>2022-02-28T14:27:51Z</time>
      </trkpt>
      <trkpt lat="46.45865" lon="5.73378">
        <ele>668.8</ele>
        <time>2022-02-28T14:27:52Z</time>
      </trkpt>
      <trkpt lat="46.4587" lon="5.73371">
        <ele>668.4</ele>
        <time>2022-02-28T14:27:53Z</time>
      </trkpt>
      <trkpt lat="46.45876" lon="5.73363">
        <ele>668</ele>
        <time>2022-02-28T14:27:54Z</time>
      </trkpt>
      <trkpt lat="46.45881" lon="5.73355">
        <ele>667.6</ele>
        <time>2022-02-28T14:27:55Z</time>
      </trkpt>
      <trkpt lat="46.45886" lon="5.73346">
        <ele>667.2</ele>
        <time>2022-02-28T14:27:56Z</time>
      </trkpt>
      <trkpt lat="46.45891" lon="5.73336">
        <ele>666.6</ele>
        <time>2022-02-28T14:27:57Z</time>
      </trkpt>
      <trkpt lat="46.45896" lon="5.73325">
        <ele>666.2</ele>
        <time>2022-02-28T14:27:58Z</time>
      </trkpt>
      <trkpt lat="46.45901" lon="5.73314">
        <ele>665.6</ele>
        <time>2022-02-28T14:27:59Z</time>
      </trkpt>
      <trkpt lat="46.45906" lon="5.73303">
        <ele>665.2</ele>
        <time>2022-02-28T14:28:00Z</time>
      </trkpt>
      <trkpt lat="46.4591" lon="5.7329">
        <ele>664.6</ele>
        <time>2022-02-28T14:28:01Z</time>
      </trkpt>
      <trkpt lat="46.45915" lon="5.73278">
        <ele>664</ele>
        <time>2022-02-28T14:28:02Z</time>
      </trkpt>
      <trkpt lat="46.45922" lon="5.73266">
        <ele>663.6</ele>
        <time>2022-02-28T14:28:03Z</time>
      </trkpt>
      <trkpt lat="46.45929" lon="5.73257">
        <ele>662.8</ele>
        <time>2022-02-28T14:28:04Z</time>
      </trkpt>
      <trkpt lat="46.45937" lon="5.73249">
        <ele>662.2</ele>
        <time>2022-02-28T14:28:05Z</time>
      </trkpt>
      <trkpt lat="46.45946" lon="5.73243">
        <ele>661.4</ele>
        <time>2022-02-28T14:28:06Z</time>
      </trkpt>
      <trkpt lat="46.45957" lon="5.73239">
        <ele>660.6</ele>
        <time>2022-02-28T14:28:07Z</time>
      </trkpt>
      <trkpt lat="46.45966" lon="5.73234">
        <ele>659.8</ele>
        <time>2022-02-28T14:28:08Z</time>
      </trkpt>
      <trkpt lat="46.45976" lon="5.73228">
        <ele>659</ele>
        <time>2022-02-28T14:28:09Z</time>
      </trkpt>
      <trkpt lat="46.45984" lon="5.73219">
        <ele>658.4</ele>
        <time>2022-02-28T14:28:10Z</time>
      </trkpt>
      <trkpt lat="46.45991" lon="5.73209">
        <ele>657.8</ele>
        <time>2022-02-28T14:28:11Z</time>
      </trkpt>
      <trkpt lat="46.45998" lon="5.73198">
        <ele>656.8</ele>
        <time>2022-02-28T14:28:12Z</time>
      </trkpt>
      <trkpt lat="46.46004" lon="5.73185">
        <ele>656.2</ele>
        <time>2022-02-28T14:28:13Z</time>
      </trkpt>
      <trkpt lat="46.4601" lon="5.73172">
        <ele>655.4</ele>
        <time>2022-02-28T14:28:14Z</time>
      </trkpt>
      <trkpt lat="46.46016" lon="5.73159">
        <ele>654.6</ele>
        <time>2022-02-28T14:28:15Z</time>
      </trkpt>
      <trkpt lat="46.46022" lon="5.73145">
        <ele>653.8</ele>
        <time>2022-02-28T14:28:16Z</time>
      </trkpt>
      <trkpt lat="46.46029" lon="5.73132">
        <ele>653</ele>
        <time>2022-02-28T14:28:17Z</time>
      </trkpt>
      <trkpt lat="46.46035" lon="5.73118">
        <ele>652.2</ele>
        <time>2022-02-28T14:28:18Z</time>
      </trkpt>
      <trkpt lat="46.46041" lon="5.73104">
        <ele>651.4</ele>
        <time>2022-02-28T14:28:19Z</time>
      </trkpt>
      <trkpt lat="46.46048" lon="5.73088">
        <ele>650.6</ele>
        <time>2022-02-28T14:28:20Z</time>
      </trkpt>
      <trkpt lat="46.46055" lon="5.73074">
        <ele>649.8</ele>
        <time>2022-02-28T14:28:21Z</time>
      </trkpt>
      <trkpt lat="46.46061" lon="5.73059">
        <ele>648.8</ele>
        <time>2022-02-28T14:28:22Z</time>
      </trkpt>
      <trkpt lat="46.46066" lon="5.73043">
        <ele>648</ele>
        <time>2022-02-28T14:28:23Z</time>
      </trkpt>
      <trkpt lat="46.46069" lon="5.73027">
        <ele>647.2</ele>
        <time>2022-02-28T14:28:24Z</time>
      </trkpt>
      <trkpt lat="46.4607" lon="5.7301">
        <ele>646.4</ele>
        <time>2022-02-28T14:28:25Z</time>
      </trkpt>
      <trkpt lat="46.4607" lon="5.72992">
        <ele>645.8</ele>
        <time>2022-02-28T14:28:26Z</time>
      </trkpt>
      <trkpt lat="46.46069" lon="5.72975">
        <ele>645.2</ele>
        <time>2022-02-28T14:28:27Z</time>
      </trkpt>
      <trkpt lat="46.46069" lon="5.72975">
        <ele>644.4</ele>
        <time>2022-02-28T14:28:28Z</time>
      </trkpt>
      <trkpt lat="46.46068" lon="5.72958">
        <ele>643.4</ele>
        <time>2022-02-28T14:28:29Z</time>
      </trkpt>
      <trkpt lat="46.46066" lon="5.72941">
        <ele>642.6</ele>
        <time>2022-02-28T14:28:30Z</time>
      </trkpt>
      <trkpt lat="46.46064" lon="5.72923">
        <ele>641.8</ele>
        <time>2022-02-28T14:28:31Z</time>
      </trkpt>
      <trkpt lat="46.46064" lon="5.72906">
        <ele>640.8</ele>
        <time>2022-02-28T14:28:32Z</time>
      </trkpt>
      <trkpt lat="46.46063" lon="5.72887">
        <ele>640</ele>
        <time>2022-02-28T14:28:33Z</time>
      </trkpt>
      <trkpt lat="46.46064" lon="5.7285">
        <ele>639.2</ele>
        <time>2022-02-28T14:28:34Z</time>
      </trkpt>
      <trkpt lat="46.46065" lon="5.72832">
        <ele>638.4</ele>
        <time>2022-02-28T14:28:35Z</time>
      </trkpt>
      <trkpt lat="46.46067" lon="5.72813">
        <ele>637.6</ele>
        <time>2022-02-28T14:28:36Z</time>
      </trkpt>
      <trkpt lat="46.46068" lon="5.72795">
        <ele>636.8</ele>
        <time>2022-02-28T14:28:37Z</time>
      </trkpt>
      <trkpt lat="46.46069" lon="5.72776">
        <ele>636</ele>
        <time>2022-02-28T14:28:38Z</time>
      </trkpt>
      <trkpt lat="46.4607" lon="5.72757">
        <ele>635</ele>
        <time>2022-02-28T14:28:39Z</time>
      </trkpt>
      <trkpt lat="46.46072" lon="5.7274">
        <ele>634</ele>
        <time>2022-02-28T14:28:40Z</time>
      </trkpt>
      <trkpt lat="46.46077" lon="5.72722">
        <ele>633</ele>
        <time>2022-02-28T14:28:41Z</time>
      </trkpt>
      <trkpt lat="46.46082" lon="5.72705">
        <ele>632.2</ele>
        <time>2022-02-28T14:28:42Z</time>
      </trkpt>
      <trkpt lat="46.46089" lon="5.7269">
        <ele>631.4</ele>
        <time>2022-02-28T14:28:43Z</time>
      </trkpt>
      <trkpt lat="46.46096" lon="5.72675">
        <ele>630.4</ele>
        <time>2022-02-28T14:28:44Z</time>
      </trkpt>
      <trkpt lat="46.46104" lon="5.7266">
        <ele>629.4</ele>
        <time>2022-02-28T14:28:45Z</time>
      </trkpt>
      <trkpt lat="46.46112" lon="5.72646">
        <ele>628.4</ele>
        <time>2022-02-28T14:28:46Z</time>
      </trkpt>
      <trkpt lat="46.46119" lon="5.72632">
        <ele>627.4</ele>
        <time>2022-02-28T14:28:47Z</time>
      </trkpt>
      <trkpt lat="46.46124" lon="5.72614">
        <ele>626.4</ele>
        <time>2022-02-28T14:28:48Z</time>
      </trkpt>
      <trkpt lat="46.46128" lon="5.72599">
        <ele>625.6</ele>
        <time>2022-02-28T14:28:49Z</time>
      </trkpt>
      <trkpt lat="46.46133" lon="5.72588">
        <ele>624.8</ele>
        <time>2022-02-28T14:28:50Z</time>
      </trkpt>
      <trkpt lat="46.46139" lon="5.72579">
        <ele>624</ele>
        <time>2022-02-28T14:28:51Z</time>
      </trkpt>
      <trkpt lat="46.46149" lon="5.72574">
        <ele>623.2</ele>
        <time>2022-02-28T14:28:52Z</time>
      </trkpt>
      <trkpt lat="46.46159" lon="5.72569">
        <ele>622.6</ele>
        <time>2022-02-28T14:28:53Z</time>
      </trkpt>
      <trkpt lat="46.46168" lon="5.72564">
        <ele>622</ele>
        <time>2022-02-28T14:28:54Z</time>
      </trkpt>
      <trkpt lat="46.46178" lon="5.7256">
        <ele>621.4</ele>
        <time>2022-02-28T14:28:55Z</time>
      </trkpt>
      <trkpt lat="46.46188" lon="5.72554">
        <ele>620.8</ele>
        <time>2022-02-28T14:28:56Z</time>
      </trkpt>
      <trkpt lat="46.46198" lon="5.72548">
        <ele>620.2</ele>
        <time>2022-02-28T14:28:57Z</time>
      </trkpt>
      <trkpt lat="46.46207" lon="5.72545">
        <ele>619.4</ele>
        <time>2022-02-28T14:28:58Z</time>
      </trkpt>
      <trkpt lat="46.46217" lon="5.72546">
        <ele>618.8</ele>
        <time>2022-02-28T14:28:59Z</time>
      </trkpt>
      <trkpt lat="46.46227" lon="5.72549">
        <ele>618.2</ele>
        <time>2022-02-28T14:29:00Z</time>
      </trkpt>
      <trkpt lat="46.46237" lon="5.72554">
        <ele>617.6</ele>
        <time>2022-02-28T14:29:01Z</time>
      </trkpt>
      <trkpt lat="46.46247" lon="5.72557">
        <ele>617</ele>
        <time>2022-02-28T14:29:02Z</time>
      </trkpt>
      <trkpt lat="46.46258" lon="5.72558">
        <ele>616.2</ele>
        <time>2022-02-28T14:29:03Z</time>
      </trkpt>
      <trkpt lat="46.46268" lon="5.72556">
        <ele>615.6</ele>
        <time>2022-02-28T14:29:04Z</time>
      </trkpt>
      <trkpt lat="46.46279" lon="5.72554">
        <ele>614.8</ele>
        <time>2022-02-28T14:29:05Z</time>
      </trkpt>
      <trkpt lat="46.4629" lon="5.72552">
        <ele>614.2</ele>
        <time>2022-02-28T14:29:06Z</time>
      </trkpt>
      <trkpt lat="46.463" lon="5.72548">
        <ele>613.6</ele>
        <time>2022-02-28T14:29:07Z</time>
      </trkpt>
      <trkpt lat="46.4631" lon="5.72545">
        <ele>613</ele>
        <time>2022-02-28T14:29:08Z</time>
      </trkpt>
      <trkpt lat="46.4632" lon="5.72546">
        <ele>612.4</ele>
        <time>2022-02-28T14:29:09Z</time>
      </trkpt>
      <trkpt lat="46.46331" lon="5.72551">
        <ele>611.8</ele>
        <time>2022-02-28T14:29:10Z</time>
      </trkpt>
      <trkpt lat="46.46341" lon="5.72555">
        <ele>611.2</ele>
        <time>2022-02-28T14:29:11Z</time>
      </trkpt>
      <trkpt lat="46.4635" lon="5.72561">
        <ele>610.6</ele>
        <time>2022-02-28T14:29:12Z</time>
      </trkpt>
      <trkpt lat="46.46359" lon="5.72567">
        <ele>610.2</ele>
        <time>2022-02-28T14:29:13Z</time>
      </trkpt>
      <trkpt lat="46.46368" lon="5.72571">
        <ele>609.8</ele>
        <time>2022-02-28T14:29:14Z</time>
      </trkpt>
      <trkpt lat="46.46377" lon="5.72573">
        <ele>609.4</ele>
        <time>2022-02-28T14:29:15Z</time>
      </trkpt>
      <trkpt lat="46.46387" lon="5.72575">
        <ele>609</ele>
        <time>2022-02-28T14:29:16Z</time>
      </trkpt>
      <trkpt lat="46.46396" lon="5.72575">
        <ele>608.6</ele>
        <time>2022-02-28T14:29:17Z</time>
      </trkpt>
      <trkpt lat="46.46405" lon="5.72573">
        <ele>608.2</ele>
        <time>2022-02-28T14:29:18Z</time>
      </trkpt>
      <trkpt lat="46.46414" lon="5.7257">
        <ele>608</ele>
        <time>2022-02-28T14:29:19Z</time>
      </trkpt>
      <trkpt lat="46.46422" lon="5.72566">
        <ele>607.6</ele>
        <time>2022-02-28T14:29:20Z</time>
      </trkpt>
      <trkpt lat="46.46431" lon="5.72561">
        <ele>607.2</ele>
        <time>2022-02-28T14:29:21Z</time>
      </trkpt>
      <trkpt lat="46.4644" lon="5.72556">
        <ele>607</ele>
        <time>2022-02-28T14:29:22Z</time>
      </trkpt>
      <trkpt lat="46.46448" lon="5.72549">
        <ele>606.6</ele>
        <time>2022-02-28T14:29:23Z</time>
      </trkpt>
      <trkpt lat="46.46455" lon="5.7254">
        <ele>606.2</ele>
        <time>2022-02-28T14:29:24Z</time>
      </trkpt>
      <trkpt lat="46.4646" lon="5.7253">
        <ele>605.8</ele>
        <time>2022-02-28T14:29:25Z</time>
      </trkpt>
      <trkpt lat="46.46465" lon="5.72518">
        <ele>605.4</ele>
        <time>2022-02-28T14:29:26Z</time>
      </trkpt>
      <trkpt lat="46.46469" lon="5.72506">
        <ele>605</ele>
        <time>2022-02-28T14:29:27Z</time>
      </trkpt>
      <trkpt lat="46.46471" lon="5.72493">
        <ele>604.8</ele>
        <time>2022-02-28T14:29:28Z</time>
      </trkpt>
      <trkpt lat="46.46473" lon="5.72479">
        <ele>604.4</ele>
        <time>2022-02-28T14:29:29Z</time>
      </trkpt>
      <trkpt lat="46.46475" lon="5.72465">
        <ele>604</ele>
        <time>2022-02-28T14:29:30Z</time>
      </trkpt>
      <trkpt lat="46.46478" lon="5.72452">
        <ele>603.6</ele>
        <time>2022-02-28T14:29:31Z</time>
      </trkpt>
      <trkpt lat="46.46481" lon="5.72439">
        <ele>603.4</ele>
        <time>2022-02-28T14:29:32Z</time>
      </trkpt>
      <trkpt lat="46.46484" lon="5.72426">
        <ele>603.4</ele>
        <time>2022-02-28T14:29:33Z</time>
      </trkpt>
      <trkpt lat="46.46489" lon="5.72414">
        <ele>603.2</ele>
        <time>2022-02-28T14:29:34Z</time>
      </trkpt>
      <trkpt lat="46.46494" lon="5.72404">
        <ele>603.2</ele>
        <time>2022-02-28T14:29:35Z</time>
      </trkpt>
      <trkpt lat="46.465" lon="5.72396">
        <ele>603.2</ele>
        <time>2022-02-28T14:29:36Z</time>
      </trkpt>
      <trkpt lat="46.46506" lon="5.72389">
        <ele>602.8</ele>
        <time>2022-02-28T14:29:37Z</time>
      </trkpt>
      <trkpt lat="46.46513" lon="5.72382">
        <ele>602.8</ele>
        <time>2022-02-28T14:29:38Z</time>
      </trkpt>
      <trkpt lat="46.46519" lon="5.72376">
        <ele>602.8</ele>
        <time>2022-02-28T14:29:39Z</time>
      </trkpt>
      <trkpt lat="46.46525" lon="5.72369">
        <ele>602.8</ele>
        <time>2022-02-28T14:29:40Z</time>
      </trkpt>
      <trkpt lat="46.46531" lon="5.72363">
        <ele>602.8</ele>
        <time>2022-02-28T14:29:41Z</time>
      </trkpt>
      <trkpt lat="46.46537" lon="5.72357">
        <ele>602.8</ele>
        <time>2022-02-28T14:29:42Z</time>
      </trkpt>
      <trkpt lat="46.46543" lon="5.72351">
        <ele>603</ele>
        <time>2022-02-28T14:29:43Z</time>
      </trkpt>
      <trkpt lat="46.46548" lon="5.72345">
        <ele>603</ele>
        <time>2022-02-28T14:29:44Z</time>
      </trkpt>
      <trkpt lat="46.46553" lon="5.72339">
        <ele>603.4</ele>
        <time>2022-02-28T14:29:45Z</time>
      </trkpt>
      <trkpt lat="46.46558" lon="5.72332">
        <ele>603.4</ele>
        <time>2022-02-28T14:29:46Z</time>
      </trkpt>
      <trkpt lat="46.46563" lon="5.72326">
        <ele>603.4</ele>
        <time>2022-02-28T14:29:47Z</time>
      </trkpt>
      <trkpt lat="46.46568" lon="5.72321">
        <ele>603.4</ele>
        <time>2022-02-28T14:29:48Z</time>
      </trkpt>
      <trkpt lat="46.46573" lon="5.72315">
        <ele>603.6</ele>
        <time>2022-02-28T14:29:49Z</time>
      </trkpt>
      <trkpt lat="46.46578" lon="5.7231">
        <ele>603.6</ele>
        <time>2022-02-28T14:29:50Z</time>
      </trkpt>
      <trkpt lat="46.46583" lon="5.72305">
        <ele>603.6</ele>
        <time>2022-02-28T14:29:51Z</time>
      </trkpt>
      <trkpt lat="46.46589" lon="5.723">
        <ele>603.8</ele>
        <time>2022-02-28T14:29:52Z</time>
      </trkpt>
      <trkpt lat="46.46593" lon="5.72295">
        <ele>603.8</ele>
        <time>2022-02-28T14:29:53Z</time>
      </trkpt>
      <trkpt lat="46.46598" lon="5.7229">
        <ele>603.8</ele>
        <time>2022-02-28T14:29:54Z</time>
      </trkpt>
      <trkpt lat="46.46603" lon="5.72284">
        <ele>603.8</ele>
        <time>2022-02-28T14:29:55Z</time>
      </trkpt>
      <trkpt lat="46.46607" lon="5.72279">
        <ele>603.8</ele>
        <time>2022-02-28T14:29:56Z</time>
      </trkpt>
      <trkpt lat="46.46611" lon="5.72273">
        <ele>603.8</ele>
        <time>2022-02-28T14:29:57Z</time>
      </trkpt>
      <trkpt lat="46.46615" lon="5.72267">
        <ele>603.8</ele>
        <time>2022-02-28T14:29:58Z</time>
      </trkpt>
      <trkpt lat="46.46618" lon="5.7226">
        <ele>603.8</ele>
        <time>2022-02-28T14:29:59Z</time>
      </trkpt>
      <trkpt lat="46.46621" lon="5.72252">
        <ele>603.8</ele>
        <time>2022-02-28T14:30:00Z</time>
      </trkpt>
      <trkpt lat="46.46624" lon="5.72244">
        <ele>603.8</ele>
        <time>2022-02-28T14:30:01Z</time>
      </trkpt>
      <trkpt lat="46.46626" lon="5.72236">
        <ele>603.8</ele>
        <time>2022-02-28T14:30:02Z</time>
      </trkpt>
      <trkpt lat="46.46628" lon="5.72228">
        <ele>603.8</ele>
        <time>2022-02-28T14:30:03Z</time>
      </trkpt>
      <trkpt lat="46.4663" lon="5.7222">
        <ele>604</ele>
        <time>2022-02-28T14:30:04Z</time>
      </trkpt>
      <trkpt lat="46.46632" lon="5.72212">
        <ele>604</ele>
        <time>2022-02-28T14:30:05Z</time>
      </trkpt>
      <trkpt lat="46.46634" lon="5.72204">
        <ele>604</ele>
        <time>2022-02-28T14:30:06Z</time>
      </trkpt>
      <trkpt lat="46.46636" lon="5.72196">
        <ele>604</ele>
        <time>2022-02-28T14:30:07Z</time>
      </trkpt>
      <trkpt lat="46.46639" lon="5.72188">
        <ele>604</ele>
        <time>2022-02-28T14:30:08Z</time>
      </trkpt>
      <trkpt lat="46.46642" lon="5.7218">
        <ele>603.8</ele>
        <time>2022-02-28T14:30:09Z</time>
      </trkpt>
      <trkpt lat="46.46646" lon="5.72172">
        <ele>603.8</ele>
        <time>2022-02-28T14:30:10Z</time>
      </trkpt>
      <trkpt lat="46.4665" lon="5.72164">
        <ele>603.4</ele>
        <time>2022-02-28T14:30:11Z</time>
      </trkpt>
      <trkpt lat="46.46654" lon="5.72155">
        <ele>603.2</ele>
        <time>2022-02-28T14:30:12Z</time>
      </trkpt>
      <trkpt lat="46.46658" lon="5.72146">
        <ele>602.8</ele>
        <time>2022-02-28T14:30:13Z</time>
      </trkpt>
      <trkpt lat="46.46663" lon="5.72137">
        <ele>602.6</ele>
        <time>2022-02-28T14:30:14Z</time>
      </trkpt>
      <trkpt lat="46.46667" lon="5.72128">
        <ele>602.2</ele>
        <time>2022-02-28T14:30:15Z</time>
      </trkpt>
      <trkpt lat="46.46672" lon="5.72118">
        <ele>601.8</ele>
        <time>2022-02-28T14:30:16Z</time>
      </trkpt>
      <trkpt lat="46.46677" lon="5.72108">
        <ele>601.4</ele>
        <time>2022-02-28T14:30:17Z</time>
      </trkpt>
      <trkpt lat="46.46681" lon="5.72098">
        <ele>601.2</ele>
        <time>2022-02-28T14:30:18Z</time>
      </trkpt>
      <trkpt lat="46.46686" lon="5.72089">
        <ele>601</ele>
        <time>2022-02-28T14:30:19Z</time>
      </trkpt>
      <trkpt lat="46.46691" lon="5.72079">
        <ele>600.8</ele>
        <time>2022-02-28T14:30:20Z</time>
      </trkpt>
      <trkpt lat="46.46696" lon="5.7207">
        <ele>600.4</ele>
        <time>2022-02-28T14:30:21Z</time>
      </trkpt>
      <trkpt lat="46.467" lon="5.7206">
        <ele>600.2</ele>
        <time>2022-02-28T14:30:22Z</time>
      </trkpt>
      <trkpt lat="46.46705" lon="5.72051">
        <ele>599.8</ele>
        <time>2022-02-28T14:30:23Z</time>
      </trkpt>
      <trkpt lat="46.4671" lon="5.72041">
        <ele>599.4</ele>
        <time>2022-02-28T14:30:24Z</time>
      </trkpt>
      <trkpt lat="46.46714" lon="5.72031">
        <ele>598.8</ele>
        <time>2022-02-28T14:30:25Z</time>
      </trkpt>
      <trkpt lat="46.46719" lon="5.7202">
        <ele>598.2</ele>
        <time>2022-02-28T14:30:26Z</time>
      </trkpt>
      <trkpt lat="46.46723" lon="5.72009">
        <ele>597.6</ele>
        <time>2022-02-28T14:30:27Z</time>
      </trkpt>
      <trkpt lat="46.46726" lon="5.71995">
        <ele>597</ele>
        <time>2022-02-28T14:30:28Z</time>
      </trkpt>
      <trkpt lat="46.46728" lon="5.71981">
        <ele>596.6</ele>
        <time>2022-02-28T14:30:29Z</time>
      </trkpt>
      <trkpt lat="46.46729" lon="5.71967">
        <ele>596.2</ele>
        <time>2022-02-28T14:30:30Z</time>
      </trkpt>
      <trkpt lat="46.46728" lon="5.71954">
        <ele>595.8</ele>
        <time>2022-02-28T14:30:31Z</time>
      </trkpt>
      <trkpt lat="46.46728" lon="5.71941">
        <ele>595.4</ele>
        <time>2022-02-28T14:30:32Z</time>
      </trkpt>
      <trkpt lat="46.46727" lon="5.71928">
        <ele>595.2</ele>
        <time>2022-02-28T14:30:33Z</time>
      </trkpt>
      <trkpt lat="46.46726" lon="5.71915">
        <ele>594.8</ele>
        <time>2022-02-28T14:30:34Z</time>
      </trkpt>
      <trkpt lat="46.46726" lon="5.71903">
        <ele>594.4</ele>
        <time>2022-02-28T14:30:35Z</time>
      </trkpt>
      <trkpt lat="46.46724" lon="5.71891">
        <ele>594.2</ele>
        <time>2022-02-28T14:30:36Z</time>
      </trkpt>
      <trkpt lat="46.46722" lon="5.7188">
        <ele>594</ele>
        <time>2022-02-28T14:30:37Z</time>
      </trkpt>
      <trkpt lat="46.46719" lon="5.71869">
        <ele>593.6</ele>
        <time>2022-02-28T14:30:38Z</time>
      </trkpt>
      <trkpt lat="46.46716" lon="5.71858">
        <ele>593.2</ele>
        <time>2022-02-28T14:30:39Z</time>
      </trkpt>
      <trkpt lat="46.46712" lon="5.71846">
        <ele>592.6</ele>
        <time>2022-02-28T14:30:40Z</time>
      </trkpt>
      <trkpt lat="46.46708" lon="5.71835">
        <ele>592</ele>
        <time>2022-02-28T14:30:41Z</time>
      </trkpt>
      <trkpt lat="46.46703" lon="5.71823">
        <ele>591.4</ele>
        <time>2022-02-28T14:30:42Z</time>
      </trkpt>
      <trkpt lat="46.46699" lon="5.71811">
        <ele>591</ele>
        <time>2022-02-28T14:30:43Z</time>
      </trkpt>
      <trkpt lat="46.46693" lon="5.71799">
        <ele>590.6</ele>
        <time>2022-02-28T14:30:44Z</time>
      </trkpt>
      <trkpt lat="46.46689" lon="5.71786">
        <ele>590.2</ele>
        <time>2022-02-28T14:30:45Z</time>
      </trkpt>
      <trkpt lat="46.46684" lon="5.71774">
        <ele>589.8</ele>
        <time>2022-02-28T14:30:46Z</time>
      </trkpt>
      <trkpt lat="46.4668" lon="5.71761">
        <ele>589.4</ele>
        <time>2022-02-28T14:30:47Z</time>
      </trkpt>
      <trkpt lat="46.46676" lon="5.71749">
        <ele>589.4</ele>
        <time>2022-02-28T14:30:48Z</time>
      </trkpt>
      <trkpt lat="46.46673" lon="5.71737">
        <ele>589</ele>
        <time>2022-02-28T14:30:49Z</time>
      </trkpt>
      <trkpt lat="46.4667" lon="5.71725">
        <ele>588.8</ele>
        <time>2022-02-28T14:30:50Z</time>
      </trkpt>
      <trkpt lat="46.46667" lon="5.71713">
        <ele>588.6</ele>
        <time>2022-02-28T14:30:51Z</time>
      </trkpt>
      <trkpt lat="46.46664" lon="5.71702">
        <ele>588.2</ele>
        <time>2022-02-28T14:30:52Z</time>
      </trkpt>
      <trkpt lat="46.46662" lon="5.7169">
        <ele>588.2</ele>
        <time>2022-02-28T14:30:53Z</time>
      </trkpt>
      <trkpt lat="46.4666" lon="5.71678">
        <ele>587.8</ele>
        <time>2022-02-28T14:30:54Z</time>
      </trkpt>
      <trkpt lat="46.46659" lon="5.71667">
        <ele>587.8</ele>
        <time>2022-02-28T14:30:55Z</time>
      </trkpt>
      <trkpt lat="46.46657" lon="5.71656">
        <ele>587.8</ele>
        <time>2022-02-28T14:30:56Z</time>
      </trkpt>
      <trkpt lat="46.46656" lon="5.71645">
        <ele>587.8</ele>
        <time>2022-02-28T14:30:57Z</time>
      </trkpt>
      <trkpt lat="46.46654" lon="5.71634">
        <ele>587.6</ele>
        <time>2022-02-28T14:30:58Z</time>
      </trkpt>
      <trkpt lat="46.46652" lon="5.71625">
        <ele>587.6</ele>
        <time>2022-02-28T14:30:59Z</time>
      </trkpt>
      <trkpt lat="46.46649" lon="5.71617">
        <ele>587.6</ele>
        <time>2022-02-28T14:31:00Z</time>
      </trkpt>
      <trkpt lat="46.46645" lon="5.7161">
        <ele>587.6</ele>
        <time>2022-02-28T14:31:01Z</time>
      </trkpt>
      <trkpt lat="46.46641" lon="5.71604">
        <ele>587.6</ele>
        <time>2022-02-28T14:31:02Z</time>
      </trkpt>
      <trkpt lat="46.46637" lon="5.71599">
        <ele>587.6</ele>
        <time>2022-02-28T14:31:03Z</time>
      </trkpt>
      <trkpt lat="46.46634" lon="5.71595">
        <ele>587.6</ele>
        <time>2022-02-28T14:31:04Z</time>
      </trkpt>
      <trkpt lat="46.46631" lon="5.7159">
        <ele>587.8</ele>
        <time>2022-02-28T14:31:05Z</time>
      </trkpt>
      <trkpt lat="46.46628" lon="5.71586">
        <ele>588.2</ele>
        <time>2022-02-28T14:31:06Z</time>
      </trkpt>
      <trkpt lat="46.46625" lon="5.71582">
        <ele>588.4</ele>
        <time>2022-02-28T14:31:07Z</time>
      </trkpt>
      <trkpt lat="46.46623" lon="5.71578">
        <ele>588.4</ele>
        <time>2022-02-28T14:31:08Z</time>
      </trkpt>
      <trkpt lat="46.46621" lon="5.71575">
        <ele>588.8</ele>
        <time>2022-02-28T14:31:09Z</time>
      </trkpt>
      <trkpt lat="46.46619" lon="5.71572">
        <ele>588.8</ele>
        <time>2022-02-28T14:31:10Z</time>
      </trkpt>
      <trkpt lat="46.46617" lon="5.7157">
        <ele>589</ele>
        <time>2022-02-28T14:31:11Z</time>
      </trkpt>
      <trkpt lat="46.46615" lon="5.71567">
        <ele>589.2</ele>
        <time>2022-02-28T14:31:12Z</time>
      </trkpt>
      <trkpt lat="46.46613" lon="5.71566">
        <ele>589.2</ele>
        <time>2022-02-28T14:31:13Z</time>
      </trkpt>
      <trkpt lat="46.4661" lon="5.71565">
        <ele>589.4</ele>
        <time>2022-02-28T14:31:14Z</time>
      </trkpt>
      <trkpt lat="46.46607" lon="5.71564">
        <ele>589.4</ele>
        <time>2022-02-28T14:31:15Z</time>
      </trkpt>
      <trkpt lat="46.46604" lon="5.71563">
        <ele>589.8</ele>
        <time>2022-02-28T14:31:16Z</time>
      </trkpt>
      <trkpt lat="46.46601" lon="5.7156">
        <ele>589.8</ele>
        <time>2022-02-28T14:31:17Z</time>
      </trkpt>
      <trkpt lat="46.46598" lon="5.71558">
        <ele>590.2</ele>
        <time>2022-02-28T14:31:18Z</time>
      </trkpt>
      <trkpt lat="46.46596" lon="5.71555">
        <ele>590.2</ele>
        <time>2022-02-28T14:31:19Z</time>
      </trkpt>
      <trkpt lat="46.46593" lon="5.71553">
        <ele>590.4</ele>
        <time>2022-02-28T14:31:20Z</time>
      </trkpt>
      <trkpt lat="46.4659" lon="5.7155">
        <ele>590.4</ele>
        <time>2022-02-28T14:31:21Z</time>
      </trkpt>
      <trkpt lat="46.46587" lon="5.71548">
        <ele>591</ele>
        <time>2022-02-28T14:31:22Z</time>
      </trkpt>
      <trkpt lat="46.46584" lon="5.71547">
        <ele>591</ele>
        <time>2022-02-28T14:31:23Z</time>
      </trkpt>
      <trkpt lat="46.46581" lon="5.71547">
        <ele>591.4</ele>
        <time>2022-02-28T14:31:24Z</time>
      </trkpt>
      <trkpt lat="46.46577" lon="5.71547">
        <ele>591.6</ele>
        <time>2022-02-28T14:31:25Z</time>
      </trkpt>
      <trkpt lat="46.46574" lon="5.71547">
        <ele>591.6</ele>
        <time>2022-02-28T14:31:26Z</time>
      </trkpt>
      <trkpt lat="46.46571" lon="5.71547">
        <ele>591.8</ele>
        <time>2022-02-28T14:31:27Z</time>
      </trkpt>
      <trkpt lat="46.46567" lon="5.71546">
        <ele>591.8</ele>
        <time>2022-02-28T14:31:28Z</time>
      </trkpt>
      <trkpt lat="46.46563" lon="5.71546">
        <ele>591.8</ele>
        <time>2022-02-28T14:31:29Z</time>
      </trkpt>
      <trkpt lat="46.46559" lon="5.71546">
        <ele>591.8</ele>
        <time>2022-02-28T14:31:30Z</time>
      </trkpt>
      <trkpt lat="46.46555" lon="5.71546">
        <ele>591.8</ele>
        <time>2022-02-28T14:31:31Z</time>
      </trkpt>
      <trkpt lat="46.46551" lon="5.71546">
        <ele>591.8</ele>
        <time>2022-02-28T14:31:32Z</time>
      </trkpt>
      <trkpt lat="46.46547" lon="5.71546">
        <ele>591.8</ele>
        <time>2022-02-28T14:31:33Z</time>
      </trkpt>
      <trkpt lat="46.46542" lon="5.71546">
        <ele>591.6</ele>
        <time>2022-02-28T14:31:34Z</time>
      </trkpt>
      <trkpt lat="46.46538" lon="5.71546">
        <ele>591.6</ele>
        <time>2022-02-28T14:31:35Z</time>
      </trkpt>
      <trkpt lat="46.46533" lon="5.71546">
        <ele>591.4</ele>
        <time>2022-02-28T14:31:36Z</time>
      </trkpt>
      <trkpt lat="46.46527" lon="5.71546">
        <ele>591.2</ele>
        <time>2022-02-28T14:31:37Z</time>
      </trkpt>
      <trkpt lat="46.46522" lon="5.71547">
        <ele>591</ele>
        <time>2022-02-28T14:31:38Z</time>
      </trkpt>
      <trkpt lat="46.46518" lon="5.71547">
        <ele>590.6</ele>
        <time>2022-02-28T14:31:39Z</time>
      </trkpt>
      <trkpt lat="46.46514" lon="5.71546">
        <ele>590.4</ele>
        <time>2022-02-28T14:31:40Z</time>
      </trkpt>
      <trkpt lat="46.46511" lon="5.71544">
        <ele>590.4</ele>
        <time>2022-02-28T14:31:41Z</time>
      </trkpt>
      <trkpt lat="46.4651" lon="5.7154">
        <ele>590</ele>
        <time>2022-02-28T14:31:42Z</time>
      </trkpt>
      <trkpt lat="46.46509" lon="5.71536">
        <ele>589.8</ele>
        <time>2022-02-28T14:31:43Z</time>
      </trkpt>
      <trkpt lat="46.46508" lon="5.71532">
        <ele>589.8</ele>
        <time>2022-02-28T14:31:44Z</time>
      </trkpt>
      <trkpt lat="46.46508" lon="5.71528">
        <ele>589.4</ele>
        <time>2022-02-28T14:31:45Z</time>
      </trkpt>
      <trkpt lat="46.46507" lon="5.71523">
        <ele>589.4</ele>
        <time>2022-02-28T14:31:46Z</time>
      </trkpt>
      <trkpt lat="46.46508" lon="5.71516">
        <ele>589.2</ele>
        <time>2022-02-28T14:31:47Z</time>
      </trkpt>
      <trkpt lat="46.46509" lon="5.7151">
        <ele>589.2</ele>
        <time>2022-02-28T14:31:48Z</time>
      </trkpt>
      <trkpt lat="46.4651" lon="5.71504">
        <ele>589.2</ele>
        <time>2022-02-28T14:31:49Z</time>
      </trkpt>
      <trkpt lat="46.46512" lon="5.71499">
        <ele>589.2</ele>
        <time>2022-02-28T14:31:50Z</time>
      </trkpt>
      <trkpt lat="46.46516" lon="5.71495">
        <ele>589.2</ele>
        <time>2022-02-28T14:31:51Z</time>
      </trkpt>
      <trkpt lat="46.46519" lon="5.71492">
        <ele>589.2</ele>
        <time>2022-02-28T14:31:52Z</time>
      </trkpt>
      <trkpt lat="46.46523" lon="5.71491">
        <ele>589.4</ele>
        <time>2022-02-28T14:31:53Z</time>
      </trkpt>
      <trkpt lat="46.46526" lon="5.7149">
        <ele>589.4</ele>
        <time>2022-02-28T14:31:54Z</time>
      </trkpt>
      <trkpt lat="46.4653" lon="5.7149">
        <ele>589.4</ele>
        <time>2022-02-28T14:31:55Z</time>
      </trkpt>
      <trkpt lat="46.46533" lon="5.71489">
        <ele>589.4</ele>
        <time>2022-02-28T14:31:56Z</time>
      </trkpt>
      <trkpt lat="46.46536" lon="5.71489">
        <ele>589.4</ele>
        <time>2022-02-28T14:31:57Z</time>
      </trkpt>
      <trkpt lat="46.4654" lon="5.71489">
        <ele>589.6</ele>
        <time>2022-02-28T14:31:58Z</time>
      </trkpt>
      <trkpt lat="46.46544" lon="5.71489">
        <ele>589.6</ele>
        <time>2022-02-28T14:31:59Z</time>
      </trkpt>
      <trkpt lat="46.46548" lon="5.71488">
        <ele>589.6</ele>
        <time>2022-02-28T14:32:00Z</time>
      </trkpt>
      <trkpt lat="46.46552" lon="5.71486">
        <ele>589.4</ele>
        <time>2022-02-28T14:32:01Z</time>
      </trkpt>
      <trkpt lat="46.46556" lon="5.71484">
        <ele>589.4</ele>
        <time>2022-02-28T14:32:02Z</time>
      </trkpt>
      <trkpt lat="46.46559" lon="5.71481">
        <ele>589.2</ele>
        <time>2022-02-28T14:32:03Z</time>
      </trkpt>
      <trkpt lat="46.46563" lon="5.71477">
        <ele>589.2</ele>
        <time>2022-02-28T14:32:04Z</time>
      </trkpt>
      <trkpt lat="46.46566" lon="5.71473">
        <ele>588.8</ele>
        <time>2022-02-28T14:32:05Z</time>
      </trkpt>
      <trkpt lat="46.4657" lon="5.7147">
        <ele>588.8</ele>
        <time>2022-02-28T14:32:06Z</time>
      </trkpt>
      <trkpt lat="46.46574" lon="5.71467">
        <ele>588.6</ele>
        <time>2022-02-28T14:32:07Z</time>
      </trkpt>
      <trkpt lat="46.46579" lon="5.71464">
        <ele>588.6</ele>
        <time>2022-02-28T14:32:08Z</time>
      </trkpt>
      <trkpt lat="46.46585" lon="5.71463">
        <ele>588.4</ele>
        <time>2022-02-28T14:32:09Z</time>
      </trkpt>
      <trkpt lat="46.4659" lon="5.71464">
        <ele>588.4</ele>
        <time>2022-02-28T14:32:10Z</time>
      </trkpt>
      <trkpt lat="46.46595" lon="5.71465">
        <ele>588.4</ele>
        <time>2022-02-28T14:32:11Z</time>
      </trkpt>
      <trkpt lat="46.466" lon="5.71465">
        <ele>588</ele>
        <time>2022-02-28T14:32:12Z</time>
      </trkpt>
      <trkpt lat="46.46605" lon="5.71463">
        <ele>588</ele>
        <time>2022-02-28T14:32:13Z</time>
      </trkpt>
      <trkpt lat="46.46608" lon="5.71459">
        <ele>587.8</ele>
        <time>2022-02-28T14:32:14Z</time>
      </trkpt>
      <trkpt lat="46.46609" lon="5.71453">
        <ele>587.6</ele>
        <time>2022-02-28T14:32:15Z</time>
      </trkpt>
      <trkpt lat="46.46608" lon="5.71445">
        <ele>587.2</ele>
        <time>2022-02-28T14:32:16Z</time>
      </trkpt>
      <trkpt lat="46.46605" lon="5.71437">
        <ele>586.8</ele>
        <time>2022-02-28T14:32:17Z</time>
      </trkpt>
      <trkpt lat="46.46602" lon="5.71429">
        <ele>586.6</ele>
        <time>2022-02-28T14:32:18Z</time>
      </trkpt>
      <trkpt lat="46.46599" lon="5.71421">
        <ele>586.4</ele>
        <time>2022-02-28T14:32:19Z</time>
      </trkpt>
      <trkpt lat="46.46596" lon="5.71412">
        <ele>586</ele>
        <time>2022-02-28T14:32:20Z</time>
      </trkpt>
      <trkpt lat="46.46593" lon="5.71403">
        <ele>585.8</ele>
        <time>2022-02-28T14:32:21Z</time>
      </trkpt>
      <trkpt lat="46.46591" lon="5.71394">
        <ele>585.8</ele>
        <time>2022-02-28T14:32:22Z</time>
      </trkpt>
      <trkpt lat="46.4659" lon="5.71385">
        <ele>585.8</ele>
        <time>2022-02-28T14:32:23Z</time>
      </trkpt>
      <trkpt lat="46.46588" lon="5.71376">
        <ele>585.4</ele>
        <time>2022-02-28T14:32:24Z</time>
      </trkpt>
      <trkpt lat="46.46587" lon="5.71366">
        <ele>585.4</ele>
        <time>2022-02-28T14:32:25Z</time>
      </trkpt>
      <trkpt lat="46.46586" lon="5.71357">
        <ele>585.2</ele>
        <time>2022-02-28T14:32:26Z</time>
      </trkpt>
      <trkpt lat="46.46584" lon="5.71347">
        <ele>585.2</ele>
        <time>2022-02-28T14:32:27Z</time>
      </trkpt>
      <trkpt lat="46.46582" lon="5.71338">
        <ele>585</ele>
        <time>2022-02-28T14:32:28Z</time>
      </trkpt>
      <trkpt lat="46.46581" lon="5.71329">
        <ele>585</ele>
        <time>2022-02-28T14:32:29Z</time>
      </trkpt>
      <trkpt lat="46.4658" lon="5.71319">
        <ele>585</ele>
        <time>2022-02-28T14:32:30Z</time>
      </trkpt>
      <trkpt lat="46.46581" lon="5.71309">
        <ele>584.8</ele>
        <time>2022-02-28T14:32:31Z</time>
      </trkpt>
      <trkpt lat="46.46581" lon="5.713">
        <ele>584.8</ele>
        <time>2022-02-28T14:32:32Z</time>
      </trkpt>
      <trkpt lat="46.46582" lon="5.71292">
        <ele>584.4</ele>
        <time>2022-02-28T14:32:33Z</time>
      </trkpt>
      <trkpt lat="46.46583" lon="5.71285">
        <ele>584.4</ele>
        <time>2022-02-28T14:32:34Z</time>
      </trkpt>
      <trkpt lat="46.46583" lon="5.71285">
        <ele>584</ele>
        <time>2022-02-28T14:32:35Z</time>
      </trkpt>
      <trkpt lat="46.46586" lon="5.7128">
        <ele>584</ele>
        <time>2022-02-28T14:32:36Z</time>
      </trkpt>
      <trkpt lat="46.4659" lon="5.71276">
        <ele>583.6</ele>
        <time>2022-02-28T14:32:37Z</time>
      </trkpt>
      <trkpt lat="46.46595" lon="5.71274">
        <ele>583.4</ele>
        <time>2022-02-28T14:32:38Z</time>
      </trkpt>
      <trkpt lat="46.46601" lon="5.71272">
        <ele>583.2</ele>
        <time>2022-02-28T14:32:39Z</time>
      </trkpt>
      <trkpt lat="46.46606" lon="5.71271">
        <ele>582.8</ele>
        <time>2022-02-28T14:32:40Z</time>
      </trkpt>
      <trkpt lat="46.46618" lon="5.71268">
        <ele>582.6</ele>
        <time>2022-02-28T14:32:41Z</time>
      </trkpt>
      <trkpt lat="46.46625" lon="5.71267">
        <ele>582.2</ele>
        <time>2022-02-28T14:32:42Z</time>
      </trkpt>
      <trkpt lat="46.46631" lon="5.71266">
        <ele>582</ele>
        <time>2022-02-28T14:32:43Z</time>
      </trkpt>
      <trkpt lat="46.46638" lon="5.71264">
        <ele>581.8</ele>
        <time>2022-02-28T14:32:44Z</time>
      </trkpt>
      <trkpt lat="46.46645" lon="5.71263">
        <ele>581.6</ele>
        <time>2022-02-28T14:32:45Z</time>
      </trkpt>
      <trkpt lat="46.46651" lon="5.71262">
        <ele>581.4</ele>
        <time>2022-02-28T14:32:46Z</time>
      </trkpt>
      <trkpt lat="46.46658" lon="5.7126">
        <ele>581.2</ele>
        <time>2022-02-28T14:32:47Z</time>
      </trkpt>
      <trkpt lat="46.46665" lon="5.7126">
        <ele>580.8</ele>
        <time>2022-02-28T14:32:48Z</time>
      </trkpt>
      <trkpt lat="46.46673" lon="5.7126">
        <ele>580.4</ele>
        <time>2022-02-28T14:32:49Z</time>
      </trkpt>
      <trkpt lat="46.4668" lon="5.7126">
        <ele>580.2</ele>
        <time>2022-02-28T14:32:50Z</time>
      </trkpt>
      <trkpt lat="46.46688" lon="5.71262">
        <ele>579.8</ele>
        <time>2022-02-28T14:32:51Z</time>
      </trkpt>
      <trkpt lat="46.46695" lon="5.71264">
        <ele>579.6</ele>
        <time>2022-02-28T14:32:52Z</time>
      </trkpt>
      <trkpt lat="46.46702" lon="5.71265">
        <ele>579.6</ele>
        <time>2022-02-28T14:32:53Z</time>
      </trkpt>
      <trkpt lat="46.46714" lon="5.71263">
        <ele>579</ele>
        <time>2022-02-28T14:32:54Z</time>
      </trkpt>
      <trkpt lat="46.46718" lon="5.71258">
        <ele>578.8</ele>
        <time>2022-02-28T14:32:55Z</time>
      </trkpt>
      <trkpt lat="46.46721" lon="5.71251">
        <ele>578.6</ele>
        <time>2022-02-28T14:32:56Z</time>
      </trkpt>
      <trkpt lat="46.46721" lon="5.71251">
        <ele>578.6</ele>
        <time>2022-02-28T14:32:57Z</time>
      </trkpt>
      <trkpt lat="46.46724" lon="5.71242">
        <ele>578.2</ele>
        <time>2022-02-28T14:32:58Z</time>
      </trkpt>
      <trkpt lat="46.46726" lon="5.71232">
        <ele>577.8</ele>
        <time>2022-02-28T14:32:59Z</time>
      </trkpt>
      <trkpt lat="46.46728" lon="5.71222">
        <ele>577.6</ele>
        <time>2022-02-28T14:33:00Z</time>
      </trkpt>
      <trkpt lat="46.46728" lon="5.71211">
        <ele>577.2</ele>
        <time>2022-02-28T14:33:01Z</time>
      </trkpt>
      <trkpt lat="46.46728" lon="5.712">
        <ele>576.8</ele>
        <time>2022-02-28T14:33:02Z</time>
      </trkpt>
      <trkpt lat="46.46727" lon="5.71188">
        <ele>576.4</ele>
        <time>2022-02-28T14:33:03Z</time>
      </trkpt>
      <trkpt lat="46.46726" lon="5.71177">
        <ele>575.8</ele>
        <time>2022-02-28T14:33:04Z</time>
      </trkpt>
      <trkpt lat="46.46724" lon="5.71165">
        <ele>575.4</ele>
        <time>2022-02-28T14:33:05Z</time>
      </trkpt>
      <trkpt lat="46.46722" lon="5.71153">
        <ele>575</ele>
        <time>2022-02-28T14:33:06Z</time>
      </trkpt>
      <trkpt lat="46.46719" lon="5.71141">
        <ele>574.6</ele>
        <time>2022-02-28T14:33:07Z</time>
      </trkpt>
      <trkpt lat="46.46716" lon="5.71129">
        <ele>574</ele>
        <time>2022-02-28T14:33:08Z</time>
      </trkpt>
      <trkpt lat="46.46714" lon="5.71116">
        <ele>573.4</ele>
        <time>2022-02-28T14:33:09Z</time>
      </trkpt>
      <trkpt lat="46.46712" lon="5.71102">
        <ele>572.8</ele>
        <time>2022-02-28T14:33:10Z</time>
      </trkpt>
      <trkpt lat="46.46711" lon="5.71087">
        <ele>572</ele>
        <time>2022-02-28T14:33:11Z</time>
      </trkpt>
      <trkpt lat="46.46712" lon="5.7107">
        <ele>571.4</ele>
        <time>2022-02-28T14:33:12Z</time>
      </trkpt>
      <trkpt lat="46.46714" lon="5.71055">
        <ele>570.8</ele>
        <time>2022-02-28T14:33:13Z</time>
      </trkpt>
      <trkpt lat="46.46716" lon="5.7104">
        <ele>570</ele>
        <time>2022-02-28T14:33:14Z</time>
      </trkpt>
      <trkpt lat="46.46717" lon="5.71026">
        <ele>569.6</ele>
        <time>2022-02-28T14:33:15Z</time>
      </trkpt>
      <trkpt lat="46.46717" lon="5.7101">
        <ele>568.8</ele>
        <time>2022-02-28T14:33:16Z</time>
      </trkpt>
      <trkpt lat="46.46716" lon="5.70995">
        <ele>568.2</ele>
        <time>2022-02-28T14:33:17Z</time>
      </trkpt>
      <trkpt lat="46.46715" lon="5.70979">
        <ele>567.6</ele>
        <time>2022-02-28T14:33:18Z</time>
      </trkpt>
      <trkpt lat="46.46713" lon="5.70963">
        <ele>566.8</ele>
        <time>2022-02-28T14:33:19Z</time>
      </trkpt>
      <trkpt lat="46.46713" lon="5.70948">
        <ele>566.2</ele>
        <time>2022-02-28T14:33:20Z</time>
      </trkpt>
      <trkpt lat="46.46716" lon="5.70933">
        <ele>565.4</ele>
        <time>2022-02-28T14:33:21Z</time>
      </trkpt>
      <trkpt lat="46.46719" lon="5.70918">
        <ele>564.6</ele>
        <time>2022-02-28T14:33:22Z</time>
      </trkpt>
      <trkpt lat="46.46725" lon="5.70903">
        <ele>563.8</ele>
        <time>2022-02-28T14:33:23Z</time>
      </trkpt>
      <trkpt lat="46.46731" lon="5.7089">
        <ele>563</ele>
        <time>2022-02-28T14:33:24Z</time>
      </trkpt>
      <trkpt lat="46.46738" lon="5.70878">
        <ele>562</ele>
        <time>2022-02-28T14:33:25Z</time>
      </trkpt>
      <trkpt lat="46.46746" lon="5.70864">
        <ele>561.2</ele>
        <time>2022-02-28T14:33:26Z</time>
      </trkpt>
      <trkpt lat="46.46754" lon="5.70851">
        <ele>560.4</ele>
        <time>2022-02-28T14:33:27Z</time>
      </trkpt>
      <trkpt lat="46.46761" lon="5.70839">
        <ele>559.6</ele>
        <time>2022-02-28T14:33:28Z</time>
      </trkpt>
      <trkpt lat="46.46769" lon="5.70826">
        <ele>558.8</ele>
        <time>2022-02-28T14:33:29Z</time>
      </trkpt>
      <trkpt lat="46.46776" lon="5.70812">
        <ele>558</ele>
        <time>2022-02-28T14:33:30Z</time>
      </trkpt>
      <trkpt lat="46.46783" lon="5.708">
        <ele>557.2</ele>
        <time>2022-02-28T14:33:31Z</time>
      </trkpt>
      <trkpt lat="46.4679" lon="5.70788">
        <ele>556.4</ele>
        <time>2022-02-28T14:33:32Z</time>
      </trkpt>
      <trkpt lat="46.46798" lon="5.70776">
        <ele>555.6</ele>
        <time>2022-02-28T14:33:33Z</time>
      </trkpt>
      <trkpt lat="46.46805" lon="5.70763">
        <ele>554.8</ele>
        <time>2022-02-28T14:33:34Z</time>
      </trkpt>
      <trkpt lat="46.46813" lon="5.7075">
        <ele>554</ele>
        <time>2022-02-28T14:33:35Z</time>
      </trkpt>
      <trkpt lat="46.46821" lon="5.70738">
        <ele>553.2</ele>
        <time>2022-02-28T14:33:36Z</time>
      </trkpt>
      <trkpt lat="46.46829" lon="5.70725">
        <ele>552.4</ele>
        <time>2022-02-28T14:33:37Z</time>
      </trkpt>
      <trkpt lat="46.46836" lon="5.70712">
        <ele>551.8</ele>
        <time>2022-02-28T14:33:38Z</time>
      </trkpt>
      <trkpt lat="46.46844" lon="5.70698">
        <ele>551</ele>
        <time>2022-02-28T14:33:39Z</time>
      </trkpt>
      <trkpt lat="46.46852" lon="5.70684">
        <ele>550.2</ele>
        <time>2022-02-28T14:33:40Z</time>
      </trkpt>
      <trkpt lat="46.46859" lon="5.70672">
        <ele>549.4</ele>
        <time>2022-02-28T14:33:41Z</time>
      </trkpt>
      <trkpt lat="46.46866" lon="5.7066">
        <ele>548.8</ele>
        <time>2022-02-28T14:33:42Z</time>
      </trkpt>
      <trkpt lat="46.46874" lon="5.70648">
        <ele>548.2</ele>
        <time>2022-02-28T14:33:43Z</time>
      </trkpt>
      <trkpt lat="46.46881" lon="5.70635">
        <ele>547.4</ele>
        <time>2022-02-28T14:33:44Z</time>
      </trkpt>
      <trkpt lat="46.46888" lon="5.70623">
        <ele>546.6</ele>
        <time>2022-02-28T14:33:45Z</time>
      </trkpt>
      <trkpt lat="46.46895" lon="5.70611">
        <ele>546</ele>
        <time>2022-02-28T14:33:46Z</time>
      </trkpt>
      <trkpt lat="46.46902" lon="5.70601">
        <ele>545.4</ele>
        <time>2022-02-28T14:33:47Z</time>
      </trkpt>
      <trkpt lat="46.46913" lon="5.70584">
        <ele>544.8</ele>
        <time>2022-02-28T14:33:48Z</time>
      </trkpt>
      <trkpt lat="46.46917" lon="5.70579">
        <ele>544.2</ele>
        <time>2022-02-28T14:33:49Z</time>
      </trkpt>
      <trkpt lat="46.46926" lon="5.70569">
        <ele>543.6</ele>
        <time>2022-02-28T14:33:50Z</time>
      </trkpt>
      <trkpt lat="46.46934" lon="5.70559">
        <ele>543</ele>
        <time>2022-02-28T14:33:51Z</time>
      </trkpt>
      <trkpt lat="46.46942" lon="5.7055">
        <ele>542.4</ele>
        <time>2022-02-28T14:33:52Z</time>
      </trkpt>
      <trkpt lat="46.46949" lon="5.70541">
        <ele>541.8</ele>
        <time>2022-02-28T14:33:53Z</time>
      </trkpt>
      <trkpt lat="46.46956" lon="5.70529">
        <ele>541.4</ele>
        <time>2022-02-28T14:33:54Z</time>
      </trkpt>
      <trkpt lat="46.46962" lon="5.70518">
        <ele>541</ele>
        <time>2022-02-28T14:33:55Z</time>
      </trkpt>
      <trkpt lat="46.46969" lon="5.70508">
        <ele>540.4</ele>
        <time>2022-02-28T14:33:56Z</time>
      </trkpt>
      <trkpt lat="46.46975" lon="5.70498">
        <ele>540</ele>
        <time>2022-02-28T14:33:57Z</time>
      </trkpt>
      <trkpt lat="46.46981" lon="5.70488">
        <ele>539.6</ele>
        <time>2022-02-28T14:33:58Z</time>
      </trkpt>
      <trkpt lat="46.46988" lon="5.70476">
        <ele>539.4</ele>
        <time>2022-02-28T14:33:59Z</time>
      </trkpt>
      <trkpt lat="46.46995" lon="5.70465">
        <ele>539</ele>
        <time>2022-02-28T14:34:00Z</time>
      </trkpt>
      <trkpt lat="46.47001" lon="5.70453">
        <ele>538.6</ele>
        <time>2022-02-28T14:34:01Z</time>
      </trkpt>
      <trkpt lat="46.47007" lon="5.70444">
        <ele>538.4</ele>
        <time>2022-02-28T14:34:02Z</time>
      </trkpt>
      <trkpt lat="46.47013" lon="5.70432">
        <ele>538</ele>
        <time>2022-02-28T14:34:03Z</time>
      </trkpt>
      <trkpt lat="46.47018" lon="5.70422">
        <ele>537.6</ele>
        <time>2022-02-28T14:34:04Z</time>
      </trkpt>
      <trkpt lat="46.47023" lon="5.70409">
        <ele>537.2</ele>
        <time>2022-02-28T14:34:05Z</time>
      </trkpt>
      <trkpt lat="46.47028" lon="5.70397">
        <ele>536.8</ele>
        <time>2022-02-28T14:34:06Z</time>
      </trkpt>
      <trkpt lat="46.47033" lon="5.70385">
        <ele>536.2</ele>
        <time>2022-02-28T14:34:07Z</time>
      </trkpt>
      <trkpt lat="46.47039" lon="5.70373">
        <ele>535.6</ele>
        <time>2022-02-28T14:34:08Z</time>
      </trkpt>
      <trkpt lat="46.47045" lon="5.70361">
        <ele>535</ele>
        <time>2022-02-28T14:34:09Z</time>
      </trkpt>
      <trkpt lat="46.47052" lon="5.70349">
        <ele>534.4</ele>
        <time>2022-02-28T14:34:10Z</time>
      </trkpt>
      <trkpt lat="46.47058" lon="5.70336">
        <ele>533.6</ele>
        <time>2022-02-28T14:34:11Z</time>
      </trkpt>
      <trkpt lat="46.47066" lon="5.70324">
        <ele>532.8</ele>
        <time>2022-02-28T14:34:12Z</time>
      </trkpt>
      <trkpt lat="46.47072" lon="5.70312">
        <ele>532.2</ele>
        <time>2022-02-28T14:34:13Z</time>
      </trkpt>
      <trkpt lat="46.47079" lon="5.703">
        <ele>531.6</ele>
        <time>2022-02-28T14:34:14Z</time>
      </trkpt>
      <trkpt lat="46.47085" lon="5.70287">
        <ele>531</ele>
        <time>2022-02-28T14:34:15Z</time>
      </trkpt>
      <trkpt lat="46.47092" lon="5.70275">
        <ele>530.4</ele>
        <time>2022-02-28T14:34:16Z</time>
      </trkpt>
      <trkpt lat="46.47099" lon="5.70265">
        <ele>529.8</ele>
        <time>2022-02-28T14:34:17Z</time>
      </trkpt>
      <trkpt lat="46.47106" lon="5.70255">
        <ele>529.4</ele>
        <time>2022-02-28T14:34:18Z</time>
      </trkpt>
      <trkpt lat="46.47113" lon="5.70245">
        <ele>529</ele>
        <time>2022-02-28T14:34:19Z</time>
      </trkpt>
      <trkpt lat="46.47119" lon="5.70234">
        <ele>528.6</ele>
        <time>2022-02-28T14:34:20Z</time>
      </trkpt>
      <trkpt lat="46.47125" lon="5.70223">
        <ele>528.2</ele>
        <time>2022-02-28T14:34:21Z</time>
      </trkpt>
      <trkpt lat="46.4713" lon="5.70212">
        <ele>527.6</ele>
        <time>2022-02-28T14:34:22Z</time>
      </trkpt>
      <trkpt lat="46.47134" lon="5.70198">
        <ele>527.2</ele>
        <time>2022-02-28T14:34:23Z</time>
      </trkpt>
      <trkpt lat="46.47137" lon="5.70181">
        <ele>526.6</ele>
        <time>2022-02-28T14:34:24Z</time>
      </trkpt>
      <trkpt lat="46.47138" lon="5.70165">
        <ele>526</ele>
        <time>2022-02-28T14:34:25Z</time>
      </trkpt>
      <trkpt lat="46.47138" lon="5.70149">
        <ele>525.6</ele>
        <time>2022-02-28T14:34:26Z</time>
      </trkpt>
      <trkpt lat="46.47139" lon="5.70134">
        <ele>525.2</ele>
        <time>2022-02-28T14:34:27Z</time>
      </trkpt>
      <trkpt lat="46.47139" lon="5.70119">
        <ele>525</ele>
        <time>2022-02-28T14:34:28Z</time>
      </trkpt>
      <trkpt lat="46.47139" lon="5.70106">
        <ele>524.8</ele>
        <time>2022-02-28T14:34:29Z</time>
      </trkpt>
      <trkpt lat="46.4714" lon="5.70092">
        <ele>524.8</ele>
        <time>2022-02-28T14:34:30Z</time>
      </trkpt>
      <trkpt lat="46.47141" lon="5.7008">
        <ele>525</ele>
        <time>2022-02-28T14:34:31Z</time>
      </trkpt>
      <trkpt lat="46.47142" lon="5.70069">
        <ele>525.2</ele>
        <time>2022-02-28T14:34:32Z</time>
      </trkpt>
      <trkpt lat="46.47144" lon="5.70058">
        <ele>525.2</ele>
        <time>2022-02-28T14:34:33Z</time>
      </trkpt>
      <trkpt lat="46.47146" lon="5.70048">
        <ele>525.6</ele>
        <time>2022-02-28T14:34:34Z</time>
      </trkpt>
      <trkpt lat="46.47149" lon="5.7004">
        <ele>526</ele>
        <time>2022-02-28T14:34:35Z</time>
      </trkpt>
      <trkpt lat="46.47152" lon="5.70033">
        <ele>526.2</ele>
        <time>2022-02-28T14:34:36Z</time>
      </trkpt>
      <trkpt lat="46.47156" lon="5.70026">
        <ele>526.6</ele>
        <time>2022-02-28T14:34:37Z</time>
      </trkpt>
      <trkpt lat="46.47159" lon="5.7002">
        <ele>526.8</ele>
        <time>2022-02-28T14:34:38Z</time>
      </trkpt>
      <trkpt lat="46.47162" lon="5.70014">
        <ele>526.8</ele>
        <time>2022-02-28T14:34:39Z</time>
      </trkpt>
      <trkpt lat="46.47166" lon="5.70009">
        <ele>527.2</ele>
        <time>2022-02-28T14:34:40Z</time>
      </trkpt>
      <trkpt lat="46.4717" lon="5.70003">
        <ele>527.2</ele>
        <time>2022-02-28T14:34:41Z</time>
      </trkpt>
      <trkpt lat="46.47173" lon="5.69997">
        <ele>527.6</ele>
        <time>2022-02-28T14:34:42Z</time>
      </trkpt>
      <trkpt lat="46.47177" lon="5.69991">
        <ele>527.6</ele>
        <time>2022-02-28T14:34:43Z</time>
      </trkpt>
      <trkpt lat="46.4718" lon="5.69986">
        <ele>527.8</ele>
        <time>2022-02-28T14:34:44Z</time>
      </trkpt>
      <trkpt lat="46.47184" lon="5.6998">
        <ele>527.8</ele>
        <time>2022-02-28T14:34:45Z</time>
      </trkpt>
      <trkpt lat="46.47187" lon="5.69974">
        <ele>527.8</ele>
        <time>2022-02-28T14:34:46Z</time>
      </trkpt>
      <trkpt lat="46.47191" lon="5.69968">
        <ele>528</ele>
        <time>2022-02-28T14:34:47Z</time>
      </trkpt>
      <trkpt lat="46.47194" lon="5.69963">
        <ele>528</ele>
        <time>2022-02-28T14:34:48Z</time>
      </trkpt>
      <trkpt lat="46.47198" lon="5.69957">
        <ele>528</ele>
        <time>2022-02-28T14:34:49Z</time>
      </trkpt>
      <trkpt lat="46.47201" lon="5.69951">
        <ele>528</ele>
        <time>2022-02-28T14:34:50Z</time>
      </trkpt>
      <trkpt lat="46.47205" lon="5.69945">
        <ele>528</ele>
        <time>2022-02-28T14:34:51Z</time>
      </trkpt>
      <trkpt lat="46.47209" lon="5.69939">
        <ele>528</ele>
        <time>2022-02-28T14:34:52Z</time>
      </trkpt>
      <trkpt lat="46.47212" lon="5.69932">
        <ele>528</ele>
        <time>2022-02-28T14:34:53Z</time>
      </trkpt>
      <trkpt lat="46.47216" lon="5.69926">
        <ele>528</ele>
        <time>2022-02-28T14:34:54Z</time>
      </trkpt>
      <trkpt lat="46.4722" lon="5.69919">
        <ele>528</ele>
        <time>2022-02-28T14:34:55Z</time>
      </trkpt>
      <trkpt lat="46.47223" lon="5.69913">
        <ele>528</ele>
        <time>2022-02-28T14:34:56Z</time>
      </trkpt>
      <trkpt lat="46.47227" lon="5.69906">
        <ele>528</ele>
        <time>2022-02-28T14:34:57Z</time>
      </trkpt>
      <trkpt lat="46.47231" lon="5.699">
        <ele>528</ele>
        <time>2022-02-28T14:34:58Z</time>
      </trkpt>
      <trkpt lat="46.47234" lon="5.69893">
        <ele>528</ele>
        <time>2022-02-28T14:34:59Z</time>
      </trkpt>
      <trkpt lat="46.47238" lon="5.69887">
        <ele>528</ele>
        <time>2022-02-28T14:35:00Z</time>
      </trkpt>
      <trkpt lat="46.47241" lon="5.69881">
        <ele>528</ele>
        <time>2022-02-28T14:35:01Z</time>
      </trkpt>
      <trkpt lat="46.47245" lon="5.69875">
        <ele>528</ele>
        <time>2022-02-28T14:35:02Z</time>
      </trkpt>
      <trkpt lat="46.47248" lon="5.69868">
        <ele>528</ele>
        <time>2022-02-28T14:35:03Z</time>
      </trkpt>
      <trkpt lat="46.47252" lon="5.69862">
        <ele>528</ele>
        <time>2022-02-28T14:35:04Z</time>
      </trkpt>
      <trkpt lat="46.47255" lon="5.69856">
        <ele>528</ele>
        <time>2022-02-28T14:35:05Z</time>
      </trkpt>
      <trkpt lat="46.47259" lon="5.69849">
        <ele>528</ele>
        <time>2022-02-28T14:35:06Z</time>
      </trkpt>
      <trkpt lat="46.47262" lon="5.69843">
        <ele>528</ele>
        <time>2022-02-28T14:35:07Z</time>
      </trkpt>
      <trkpt lat="46.47266" lon="5.69837">
        <ele>528</ele>
        <time>2022-02-28T14:35:08Z</time>
      </trkpt>
      <trkpt lat="46.47269" lon="5.69831">
        <ele>528</ele>
        <time>2022-02-28T14:35:09Z</time>
      </trkpt>
      <trkpt lat="46.47273" lon="5.69824">
        <ele>528</ele>
        <time>2022-02-28T14:35:10Z</time>
      </trkpt>
      <trkpt lat="46.47277" lon="5.69818">
        <ele>528</ele>
        <time>2022-02-28T14:35:11Z</time>
      </trkpt>
      <trkpt lat="46.4728" lon="5.69812">
        <ele>528</ele>
        <time>2022-02-28T14:35:12Z</time>
      </trkpt>
      <trkpt lat="46.47284" lon="5.69805">
        <ele>527.8</ele>
        <time>2022-02-28T14:35:13Z</time>
      </trkpt>
      <trkpt lat="46.47288" lon="5.69799">
        <ele>527.8</ele>
        <time>2022-02-28T14:35:14Z</time>
      </trkpt>
      <trkpt lat="46.47292" lon="5.69792">
        <ele>527.6</ele>
        <time>2022-02-28T14:35:15Z</time>
      </trkpt>
      <trkpt lat="46.47296" lon="5.69786">
        <ele>527.6</ele>
        <time>2022-02-28T14:35:16Z</time>
      </trkpt>
      <trkpt lat="46.473" lon="5.69779">
        <ele>527.4</ele>
        <time>2022-02-28T14:35:17Z</time>
      </trkpt>
      <trkpt lat="46.47304" lon="5.69773">
        <ele>527.4</ele>
        <time>2022-02-28T14:35:18Z</time>
      </trkpt>
      <trkpt lat="46.47309" lon="5.69766">
        <ele>527</ele>
        <time>2022-02-28T14:35:19Z</time>
      </trkpt>
      <trkpt lat="46.47314" lon="5.6976">
        <ele>526.8</ele>
        <time>2022-02-28T14:35:20Z</time>
      </trkpt>
      <trkpt lat="46.47319" lon="5.69753">
        <ele>526.6</ele>
        <time>2022-02-28T14:35:21Z</time>
      </trkpt>
      <trkpt lat="46.47324" lon="5.69746">
        <ele>526.2</ele>
        <time>2022-02-28T14:35:22Z</time>
      </trkpt>
      <trkpt lat="46.4733" lon="5.69739">
        <ele>525.8</ele>
        <time>2022-02-28T14:35:23Z</time>
      </trkpt>
      <trkpt lat="46.47335" lon="5.69732">
        <ele>525.4</ele>
        <time>2022-02-28T14:35:24Z</time>
      </trkpt>
      <trkpt lat="46.47341" lon="5.69724">
        <ele>525.2</ele>
        <time>2022-02-28T14:35:25Z</time>
      </trkpt>
      <trkpt lat="46.47346" lon="5.69717">
        <ele>525.2</ele>
        <time>2022-02-28T14:35:26Z</time>
      </trkpt>
      <trkpt lat="46.47351" lon="5.69709">
        <ele>524.8</ele>
        <time>2022-02-28T14:35:27Z</time>
      </trkpt>
      <trkpt lat="46.47356" lon="5.69701">
        <ele>524.8</ele>
        <time>2022-02-28T14:35:28Z</time>
      </trkpt>
      <trkpt lat="46.47361" lon="5.69694">
        <ele>524.6</ele>
        <time>2022-02-28T14:35:29Z</time>
      </trkpt>
      <trkpt lat="46.47365" lon="5.69686">
        <ele>524.6</ele>
        <time>2022-02-28T14:35:30Z</time>
      </trkpt>
      <trkpt lat="46.47368" lon="5.69679">
        <ele>524.6</ele>
        <time>2022-02-28T14:35:31Z</time>
      </trkpt>
      <trkpt lat="46.47372" lon="5.69671">
        <ele>524.6</ele>
        <time>2022-02-28T14:35:32Z</time>
      </trkpt>
      <trkpt lat="46.47375" lon="5.69664">
        <ele>525</ele>
        <time>2022-02-28T14:35:33Z</time>
      </trkpt>
      <trkpt lat="46.47378" lon="5.69656">
        <ele>525</ele>
        <time>2022-02-28T14:35:34Z</time>
      </trkpt>
      <trkpt lat="46.47381" lon="5.69649">
        <ele>525</ele>
        <time>2022-02-28T14:35:35Z</time>
      </trkpt>
      <trkpt lat="46.47383" lon="5.69641">
        <ele>525.2</ele>
        <time>2022-02-28T14:35:36Z</time>
      </trkpt>
      <trkpt lat="46.47386" lon="5.69634">
        <ele>525.2</ele>
        <time>2022-02-28T14:35:37Z</time>
      </trkpt>
      <trkpt lat="46.47388" lon="5.69626">
        <ele>525.4</ele>
        <time>2022-02-28T14:35:38Z</time>
      </trkpt>
      <trkpt lat="46.47391" lon="5.69619">
        <ele>525.4</ele>
        <time>2022-02-28T14:35:39Z</time>
      </trkpt>
      <trkpt lat="46.47393" lon="5.69612">
        <ele>525.8</ele>
        <time>2022-02-28T14:35:40Z</time>
      </trkpt>
      <trkpt lat="46.47396" lon="5.69605">
        <ele>525.8</ele>
        <time>2022-02-28T14:35:41Z</time>
      </trkpt>
      <trkpt lat="46.47398" lon="5.69598">
        <ele>525.8</ele>
        <time>2022-02-28T14:35:42Z</time>
      </trkpt>
      <trkpt lat="46.474" lon="5.69591">
        <ele>526</ele>
        <time>2022-02-28T14:35:43Z</time>
      </trkpt>
      <trkpt lat="46.47403" lon="5.69585">
        <ele>526</ele>
        <time>2022-02-28T14:35:44Z</time>
      </trkpt>
      <trkpt lat="46.47406" lon="5.69579">
        <ele>526.4</ele>
        <time>2022-02-28T14:35:45Z</time>
      </trkpt>
      <trkpt lat="46.47409" lon="5.69573">
        <ele>526.4</ele>
        <time>2022-02-28T14:35:46Z</time>
      </trkpt>
      <trkpt lat="46.47412" lon="5.69567">
        <ele>526.6</ele>
        <time>2022-02-28T14:35:47Z</time>
      </trkpt>
      <trkpt lat="46.47415" lon="5.69562">
        <ele>526.6</ele>
        <time>2022-02-28T14:35:48Z</time>
      </trkpt>
      <trkpt lat="46.47418" lon="5.69556">
        <ele>527</ele>
        <time>2022-02-28T14:35:49Z</time>
      </trkpt>
      <trkpt lat="46.47421" lon="5.6955">
        <ele>527</ele>
        <time>2022-02-28T14:35:50Z</time>
      </trkpt>
      <trkpt lat="46.47425" lon="5.69545">
        <ele>527.2</ele>
        <time>2022-02-28T14:35:51Z</time>
      </trkpt>
      <trkpt lat="46.47428" lon="5.6954">
        <ele>527.2</ele>
        <time>2022-02-28T14:35:52Z</time>
      </trkpt>
      <trkpt lat="46.47432" lon="5.69534">
        <ele>527.2</ele>
        <time>2022-02-28T14:35:53Z</time>
      </trkpt>
      <trkpt lat="46.47436" lon="5.69528">
        <ele>527.2</ele>
        <time>2022-02-28T14:35:54Z</time>
      </trkpt>
      <trkpt lat="46.47439" lon="5.69521">
        <ele>527.2</ele>
        <time>2022-02-28T14:35:55Z</time>
      </trkpt>
      <trkpt lat="46.47443" lon="5.69515">
        <ele>527</ele>
        <time>2022-02-28T14:35:56Z</time>
      </trkpt>
      <trkpt lat="46.47446" lon="5.69508">
        <ele>527</ele>
        <time>2022-02-28T14:35:57Z</time>
      </trkpt>
      <trkpt lat="46.4745" lon="5.69502">
        <ele>527</ele>
        <time>2022-02-28T14:35:58Z</time>
      </trkpt>
      <trkpt lat="46.47453" lon="5.69495">
        <ele>527</ele>
        <time>2022-02-28T14:35:59Z</time>
      </trkpt>
      <trkpt lat="46.47456" lon="5.69489">
        <ele>527</ele>
        <time>2022-02-28T14:36:00Z</time>
      </trkpt>
      <trkpt lat="46.47459" lon="5.69482">
        <ele>527</ele>
        <time>2022-02-28T14:36:01Z</time>
      </trkpt>
      <trkpt lat="46.47462" lon="5.69475">
        <ele>527</ele>
        <time>2022-02-28T14:36:02Z</time>
      </trkpt>
      <trkpt lat="46.47465" lon="5.69468">
        <ele>527</ele>
        <time>2022-02-28T14:36:03Z</time>
      </trkpt>
      <trkpt lat="46.47468" lon="5.69461">
        <ele>527</ele>
        <time>2022-02-28T14:36:04Z</time>
      </trkpt>
      <trkpt lat="46.4747" lon="5.69454">
        <ele>527</ele>
        <time>2022-02-28T14:36:05Z</time>
      </trkpt>
      <trkpt lat="46.47473" lon="5.69447">
        <ele>527</ele>
        <time>2022-02-28T14:36:06Z</time>
      </trkpt>
      <trkpt lat="46.47476" lon="5.69439">
        <ele>527</ele>
        <time>2022-02-28T14:36:07Z</time>
      </trkpt>
      <trkpt lat="46.47479" lon="5.69432">
        <ele>527</ele>
        <time>2022-02-28T14:36:08Z</time>
      </trkpt>
      <trkpt lat="46.47481" lon="5.69425">
        <ele>527</ele>
        <time>2022-02-28T14:36:09Z</time>
      </trkpt>
      <trkpt lat="46.47484" lon="5.69419">
        <ele>527</ele>
        <time>2022-02-28T14:36:10Z</time>
      </trkpt>
      <trkpt lat="46.47486" lon="5.69412">
        <ele>527.2</ele>
        <time>2022-02-28T14:36:11Z</time>
      </trkpt>
      <trkpt lat="46.47489" lon="5.69405">
        <ele>527.2</ele>
        <time>2022-02-28T14:36:12Z</time>
      </trkpt>
      <trkpt lat="46.47491" lon="5.69398">
        <ele>527.2</ele>
        <time>2022-02-28T14:36:13Z</time>
      </trkpt>
      <trkpt lat="46.47494" lon="5.69391">
        <ele>527.2</ele>
        <time>2022-02-28T14:36:14Z</time>
      </trkpt>
      <trkpt lat="46.47496" lon="5.69385">
        <ele>527.2</ele>
        <time>2022-02-28T14:36:15Z</time>
      </trkpt>
      <trkpt lat="46.47499" lon="5.69378">
        <ele>527.2</ele>
        <time>2022-02-28T14:36:16Z</time>
      </trkpt>
      <trkpt lat="46.47501" lon="5.69371">
        <ele>527.2</ele>
        <time>2022-02-28T14:36:17Z</time>
      </trkpt>
      <trkpt lat="46.47504" lon="5.69364">
        <ele>527.2</ele>
        <time>2022-02-28T14:36:18Z</time>
      </trkpt>
      <trkpt lat="46.47507" lon="5.69358">
        <ele>527.2</ele>
        <time>2022-02-28T14:36:19Z</time>
      </trkpt>
      <trkpt lat="46.4751" lon="5.69351">
        <ele>527.2</ele>
        <time>2022-02-28T14:36:20Z</time>
      </trkpt>
      <trkpt lat="46.47513" lon="5.69344">
        <ele>527.2</ele>
        <time>2022-02-28T14:36:21Z</time>
      </trkpt>
      <trkpt lat="46.47516" lon="5.69336">
        <ele>527</ele>
        <time>2022-02-28T14:36:22Z</time>
      </trkpt>
      <trkpt lat="46.47519" lon="5.69329">
        <ele>527</ele>
        <time>2022-02-28T14:36:23Z</time>
      </trkpt>
      <trkpt lat="46.47522" lon="5.69321">
        <ele>527</ele>
        <time>2022-02-28T14:36:24Z</time>
      </trkpt>
      <trkpt lat="46.47525" lon="5.69313">
        <ele>526.6</ele>
        <time>2022-02-28T14:36:25Z</time>
      </trkpt>
      <trkpt lat="46.47528" lon="5.69305">
        <ele>526.6</ele>
        <time>2022-02-28T14:36:26Z</time>
      </trkpt>
      <trkpt lat="46.47531" lon="5.69296">
        <ele>526.6</ele>
        <time>2022-02-28T14:36:27Z</time>
      </trkpt>
      <trkpt lat="46.47534" lon="5.69289">
        <ele>526.6</ele>
        <time>2022-02-28T14:36:28Z</time>
      </trkpt>
      <trkpt lat="46.47537" lon="5.69281">
        <ele>526.4</ele>
        <time>2022-02-28T14:36:29Z</time>
      </trkpt>
      <trkpt lat="46.4754" lon="5.69273">
        <ele>526.4</ele>
        <time>2022-02-28T14:36:30Z</time>
      </trkpt>
      <trkpt lat="46.47544" lon="5.69265">
        <ele>526.4</ele>
        <time>2022-02-28T14:36:31Z</time>
      </trkpt>
      <trkpt lat="46.47548" lon="5.69258">
        <ele>526.4</ele>
        <time>2022-02-28T14:36:32Z</time>
      </trkpt>
      <trkpt lat="46.47552" lon="5.69251">
        <ele>526.4</ele>
        <time>2022-02-28T14:36:33Z</time>
      </trkpt>
      <trkpt lat="46.47556" lon="5.69244">
        <ele>526.4</ele>
        <time>2022-02-28T14:36:34Z</time>
      </trkpt>
      <trkpt lat="46.4756" lon="5.69238">
        <ele>526.4</ele>
        <time>2022-02-28T14:36:35Z</time>
      </trkpt>
      <trkpt lat="46.47564" lon="5.69233">
        <ele>526.4</ele>
        <time>2022-02-28T14:36:36Z</time>
      </trkpt>
      <trkpt lat="46.47568" lon="5.69227">
        <ele>526.6</ele>
        <time>2022-02-28T14:36:37Z</time>
      </trkpt>
      <trkpt lat="46.47572" lon="5.69222">
        <ele>526.6</ele>
        <time>2022-02-28T14:36:38Z</time>
      </trkpt>
      <trkpt lat="46.47575" lon="5.69217">
        <ele>526.6</ele>
        <time>2022-02-28T14:36:39Z</time>
      </trkpt>
      <trkpt lat="46.47579" lon="5.69211">
        <ele>527</ele>
        <time>2022-02-28T14:36:40Z</time>
      </trkpt>
      <trkpt lat="46.47582" lon="5.69207">
        <ele>527</ele>
        <time>2022-02-28T14:36:41Z</time>
      </trkpt>
      <trkpt lat="46.47586" lon="5.69203">
        <ele>527.2</ele>
        <time>2022-02-28T14:36:42Z</time>
      </trkpt>
      <trkpt lat="46.4759" lon="5.69199">
        <ele>527.2</ele>
        <time>2022-02-28T14:36:43Z</time>
      </trkpt>
      <trkpt lat="46.47593" lon="5.69195">
        <ele>527.8</ele>
        <time>2022-02-28T14:36:44Z</time>
      </trkpt>
      <trkpt lat="46.47596" lon="5.69191">
        <ele>528</ele>
        <time>2022-02-28T14:36:45Z</time>
      </trkpt>
      <trkpt lat="46.47599" lon="5.69187">
        <ele>528</ele>
        <time>2022-02-28T14:36:46Z</time>
      </trkpt>
      <trkpt lat="46.47602" lon="5.69183">
        <ele>528.6</ele>
        <time>2022-02-28T14:36:47Z</time>
      </trkpt>
      <trkpt lat="46.47605" lon="5.69179">
        <ele>528.8</ele>
        <time>2022-02-28T14:36:48Z</time>
      </trkpt>
      <trkpt lat="46.47608" lon="5.69175">
        <ele>529</ele>
        <time>2022-02-28T14:36:49Z</time>
      </trkpt>
      <trkpt lat="46.47611" lon="5.69171">
        <ele>529.4</ele>
        <time>2022-02-28T14:36:50Z</time>
      </trkpt>
      <trkpt lat="46.47614" lon="5.69167">
        <ele>529.6</ele>
        <time>2022-02-28T14:36:51Z</time>
      </trkpt>
      <trkpt lat="46.47617" lon="5.69163">
        <ele>529.8</ele>
        <time>2022-02-28T14:36:52Z</time>
      </trkpt>
      <trkpt lat="46.4762" lon="5.6916">
        <ele>530</ele>
        <time>2022-02-28T14:36:53Z</time>
      </trkpt>
      <trkpt lat="46.47623" lon="5.69157">
        <ele>530.2</ele>
        <time>2022-02-28T14:36:54Z</time>
      </trkpt>
      <trkpt lat="46.47627" lon="5.69155">
        <ele>530.2</ele>
        <time>2022-02-28T14:36:55Z</time>
      </trkpt>
      <trkpt lat="46.4763" lon="5.69152">
        <ele>530.8</ele>
        <time>2022-02-28T14:36:56Z</time>
      </trkpt>
      <trkpt lat="46.47634" lon="5.69149">
        <ele>530.8</ele>
        <time>2022-02-28T14:36:57Z</time>
      </trkpt>
      <trkpt lat="46.47637" lon="5.69146">
        <ele>531.2</ele>
        <time>2022-02-28T14:36:58Z</time>
      </trkpt>
      <trkpt lat="46.4764" lon="5.69144">
        <ele>531.2</ele>
        <time>2022-02-28T14:36:59Z</time>
      </trkpt>
      <trkpt lat="46.47644" lon="5.69141">
        <ele>531.4</ele>
        <time>2022-02-28T14:37:00Z</time>
      </trkpt>
      <trkpt lat="46.47647" lon="5.69139">
        <ele>531.4</ele>
        <time>2022-02-28T14:37:01Z</time>
      </trkpt>
      <trkpt lat="46.4765" lon="5.69137">
        <ele>531.4</ele>
        <time>2022-02-28T14:37:02Z</time>
      </trkpt>
      <trkpt lat="46.47654" lon="5.69135">
        <ele>531.4</ele>
        <time>2022-02-28T14:37:03Z</time>
      </trkpt>
      <trkpt lat="46.47658" lon="5.69133">
        <ele>531.6</ele>
        <time>2022-02-28T14:37:04Z</time>
      </trkpt>
      <trkpt lat="46.47661" lon="5.69131">
        <ele>531.6</ele>
        <time>2022-02-28T14:37:05Z</time>
      </trkpt>
      <trkpt lat="46.47669" lon="5.69128">
        <ele>531.6</ele>
        <time>2022-02-28T14:37:06Z</time>
      </trkpt>
      <trkpt lat="46.47673" lon="5.69126">
        <ele>531.8</ele>
        <time>2022-02-28T14:37:07Z</time>
      </trkpt>
      <trkpt lat="46.47676" lon="5.69124">
        <ele>531.8</ele>
        <time>2022-02-28T14:37:08Z</time>
      </trkpt>
      <trkpt lat="46.4768" lon="5.69122">
        <ele>531.8</ele>
        <time>2022-02-28T14:37:09Z</time>
      </trkpt>
      <trkpt lat="46.47684" lon="5.6912">
        <ele>531.8</ele>
        <time>2022-02-28T14:37:10Z</time>
      </trkpt>
      <trkpt lat="46.47687" lon="5.69119">
        <ele>532.2</ele>
        <time>2022-02-28T14:37:11Z</time>
      </trkpt>
      <trkpt lat="46.47691" lon="5.69117">
        <ele>532.2</ele>
        <time>2022-02-28T14:37:12Z</time>
      </trkpt>
      <trkpt lat="46.47694" lon="5.69116">
        <ele>532.4</ele>
        <time>2022-02-28T14:37:13Z</time>
      </trkpt>
      <trkpt lat="46.47698" lon="5.69114">
        <ele>532.4</ele>
        <time>2022-02-28T14:37:14Z</time>
      </trkpt>
      <trkpt lat="46.47702" lon="5.69112">
        <ele>532.4</ele>
        <time>2022-02-28T14:37:15Z</time>
      </trkpt>
      <trkpt lat="46.47706" lon="5.69111">
        <ele>532.4</ele>
        <time>2022-02-28T14:37:16Z</time>
      </trkpt>
      <trkpt lat="46.47709" lon="5.69109">
        <ele>532.4</ele>
        <time>2022-02-28T14:37:17Z</time>
      </trkpt>
      <trkpt lat="46.47713" lon="5.69107">
        <ele>532.6</ele>
        <time>2022-02-28T14:37:18Z</time>
      </trkpt>
      <trkpt lat="46.47717" lon="5.69105">
        <ele>532.6</ele>
        <time>2022-02-28T14:37:19Z</time>
      </trkpt>
      <trkpt lat="46.47721" lon="5.69103">
        <ele>532.8</ele>
        <time>2022-02-28T14:37:20Z</time>
      </trkpt>
      <trkpt lat="46.47725" lon="5.69101">
        <ele>532.8</ele>
        <time>2022-02-28T14:37:21Z</time>
      </trkpt>
      <trkpt lat="46.47729" lon="5.69098">
        <ele>533.2</ele>
        <time>2022-02-28T14:37:22Z</time>
      </trkpt>
      <trkpt lat="46.47732" lon="5.69095">
        <ele>533.2</ele>
        <time>2022-02-28T14:37:23Z</time>
      </trkpt>
      <trkpt lat="46.47734" lon="5.69094">
        <ele>533.2</ele>
        <time>2022-02-28T14:37:24Z</time>
      </trkpt>
      <trkpt lat="46.47736" lon="5.69093">
        <ele>533.2</ele>
        <time>2022-02-28T14:37:25Z</time>
      </trkpt>
      <trkpt lat="46.4774" lon="5.6909">
        <ele>533.2</ele>
        <time>2022-02-28T14:37:26Z</time>
      </trkpt>
      <trkpt lat="46.47744" lon="5.69086">
        <ele>533.2</ele>
        <time>2022-02-28T14:37:27Z</time>
      </trkpt>
      <trkpt lat="46.47749" lon="5.69083">
        <ele>533.2</ele>
        <time>2022-02-28T14:37:28Z</time>
      </trkpt>
      <trkpt lat="46.47753" lon="5.6908">
        <ele>533.2</ele>
        <time>2022-02-28T14:37:29Z</time>
      </trkpt>
      <trkpt lat="46.47757" lon="5.69077">
        <ele>533.2</ele>
        <time>2022-02-28T14:37:30Z</time>
      </trkpt>
      <trkpt lat="46.47762" lon="5.69074">
        <ele>533.2</ele>
        <time>2022-02-28T14:37:31Z</time>
      </trkpt>
      <trkpt lat="46.47766" lon="5.6907">
        <ele>533.2</ele>
        <time>2022-02-28T14:37:32Z</time>
      </trkpt>
      <trkpt lat="46.4777" lon="5.69066">
        <ele>533.2</ele>
        <time>2022-02-28T14:37:33Z</time>
      </trkpt>
      <trkpt lat="46.47775" lon="5.69063">
        <ele>533.2</ele>
        <time>2022-02-28T14:37:34Z</time>
      </trkpt>
      <trkpt lat="46.47779" lon="5.69058">
        <ele>533.2</ele>
        <time>2022-02-28T14:37:35Z</time>
      </trkpt>
      <trkpt lat="46.47783" lon="5.69054">
        <ele>533.2</ele>
        <time>2022-02-28T14:37:36Z</time>
      </trkpt>
      <trkpt lat="46.47787" lon="5.69048">
        <ele>533.2</ele>
        <time>2022-02-28T14:37:37Z</time>
      </trkpt>
      <trkpt lat="46.4779" lon="5.69041">
        <ele>533.2</ele>
        <time>2022-02-28T14:37:38Z</time>
      </trkpt>
      <trkpt lat="46.47793" lon="5.69034">
        <ele>533.2</ele>
        <time>2022-02-28T14:37:39Z</time>
      </trkpt>
      <trkpt lat="46.47795" lon="5.69027">
        <ele>533.2</ele>
        <time>2022-02-28T14:37:40Z</time>
      </trkpt>
      <trkpt lat="46.47797" lon="5.69019">
        <ele>533.2</ele>
        <time>2022-02-28T14:37:41Z</time>
      </trkpt>
      <trkpt lat="46.47799" lon="5.69011">
        <ele>533.2</ele>
        <time>2022-02-28T14:37:42Z</time>
      </trkpt>
      <trkpt lat="46.47801" lon="5.69004">
        <ele>532.8</ele>
        <time>2022-02-28T14:37:43Z</time>
      </trkpt>
      <trkpt lat="46.47803" lon="5.68996">
        <ele>532.8</ele>
        <time>2022-02-28T14:37:44Z</time>
      </trkpt>
      <trkpt lat="46.47805" lon="5.68988">
        <ele>532.8</ele>
        <time>2022-02-28T14:37:45Z</time>
      </trkpt>
      <trkpt lat="46.47807" lon="5.6898">
        <ele>532.8</ele>
        <time>2022-02-28T14:37:46Z</time>
      </trkpt>
      <trkpt lat="46.47809" lon="5.68972">
        <ele>532.6</ele>
        <time>2022-02-28T14:37:47Z</time>
      </trkpt>
      <trkpt lat="46.47811" lon="5.68963">
        <ele>532.6</ele>
        <time>2022-02-28T14:37:48Z</time>
      </trkpt>
      <trkpt lat="46.47814" lon="5.68955">
        <ele>532.2</ele>
        <time>2022-02-28T14:37:49Z</time>
      </trkpt>
      <trkpt lat="46.47816" lon="5.68946">
        <ele>532</ele>
        <time>2022-02-28T14:37:50Z</time>
      </trkpt>
      <trkpt lat="46.47819" lon="5.68938">
        <ele>532</ele>
        <time>2022-02-28T14:37:51Z</time>
      </trkpt>
      <trkpt lat="46.47821" lon="5.68929">
        <ele>531.6</ele>
        <time>2022-02-28T14:37:52Z</time>
      </trkpt>
      <trkpt lat="46.47823" lon="5.6892">
        <ele>531.4</ele>
        <time>2022-02-28T14:37:53Z</time>
      </trkpt>
      <trkpt lat="46.47824" lon="5.6891">
        <ele>531.4</ele>
        <time>2022-02-28T14:37:54Z</time>
      </trkpt>
      <trkpt lat="46.47826" lon="5.68901">
        <ele>531</ele>
        <time>2022-02-28T14:37:55Z</time>
      </trkpt>
      <trkpt lat="46.47827" lon="5.68892">
        <ele>531</ele>
        <time>2022-02-28T14:37:56Z</time>
      </trkpt>
      <trkpt lat="46.47828" lon="5.68883">
        <ele>530.8</ele>
        <time>2022-02-28T14:37:57Z</time>
      </trkpt>
      <trkpt lat="46.47828" lon="5.68874">
        <ele>530.8</ele>
        <time>2022-02-28T14:37:58Z</time>
      </trkpt>
      <trkpt lat="46.47829" lon="5.68865">
        <ele>530.6</ele>
        <time>2022-02-28T14:37:59Z</time>
      </trkpt>
      <trkpt lat="46.47829" lon="5.68856">
        <ele>530.6</ele>
        <time>2022-02-28T14:38:00Z</time>
      </trkpt>
      <trkpt lat="46.4783" lon="5.68848">
        <ele>530.2</ele>
        <time>2022-02-28T14:38:01Z</time>
      </trkpt>
      <trkpt lat="46.47832" lon="5.68839">
        <ele>530</ele>
        <time>2022-02-28T14:38:02Z</time>
      </trkpt>
      <trkpt lat="46.47835" lon="5.68831">
        <ele>529.6</ele>
        <time>2022-02-28T14:38:03Z</time>
      </trkpt>
      <trkpt lat="46.4784" lon="5.68822">
        <ele>529.2</ele>
        <time>2022-02-28T14:38:04Z</time>
      </trkpt>
      <trkpt lat="46.47844" lon="5.68814">
        <ele>528.8</ele>
        <time>2022-02-28T14:38:05Z</time>
      </trkpt>
      <trkpt lat="46.47849" lon="5.68805">
        <ele>528.2</ele>
        <time>2022-02-28T14:38:06Z</time>
      </trkpt>
      <trkpt lat="46.47854" lon="5.68797">
        <ele>528</ele>
        <time>2022-02-28T14:38:07Z</time>
      </trkpt>
      <trkpt lat="46.47858" lon="5.68789">
        <ele>527.8</ele>
        <time>2022-02-28T14:38:08Z</time>
      </trkpt>
      <trkpt lat="46.47864" lon="5.68785">
        <ele>527.8</ele>
        <time>2022-02-28T14:38:09Z</time>
      </trkpt>
      <trkpt lat="46.47869" lon="5.68782">
        <ele>527.6</ele>
        <time>2022-02-28T14:38:10Z</time>
      </trkpt>
      <trkpt lat="46.47875" lon="5.6878">
        <ele>527.6</ele>
        <time>2022-02-28T14:38:11Z</time>
      </trkpt>
      <trkpt lat="46.47881" lon="5.68779">
        <ele>527.6</ele>
        <time>2022-02-28T14:38:12Z</time>
      </trkpt>
      <trkpt lat="46.47887" lon="5.68779">
        <ele>527.6</ele>
        <time>2022-02-28T14:38:13Z</time>
      </trkpt>
      <trkpt lat="46.47893" lon="5.68779">
        <ele>527.4</ele>
        <time>2022-02-28T14:38:14Z</time>
      </trkpt>
      <trkpt lat="46.47899" lon="5.68779">
        <ele>527.4</ele>
        <time>2022-02-28T14:38:15Z</time>
      </trkpt>
      <trkpt lat="46.47905" lon="5.68779">
        <ele>527.2</ele>
        <time>2022-02-28T14:38:16Z</time>
      </trkpt>
      <trkpt lat="46.47911" lon="5.68779">
        <ele>526.8</ele>
        <time>2022-02-28T14:38:17Z</time>
      </trkpt>
      <trkpt lat="46.47918" lon="5.68778">
        <ele>526.6</ele>
        <time>2022-02-28T14:38:18Z</time>
      </trkpt>
      <trkpt lat="46.47925" lon="5.68777">
        <ele>526.2</ele>
        <time>2022-02-28T14:38:19Z</time>
      </trkpt>
      <trkpt lat="46.47932" lon="5.68775">
        <ele>525.8</ele>
        <time>2022-02-28T14:38:20Z</time>
      </trkpt>
      <trkpt lat="46.47939" lon="5.68771">
        <ele>525.4</ele>
        <time>2022-02-28T14:38:21Z</time>
      </trkpt>
      <trkpt lat="46.47947" lon="5.68766">
        <ele>524.8</ele>
        <time>2022-02-28T14:38:22Z</time>
      </trkpt>
      <trkpt lat="46.47954" lon="5.68761">
        <ele>524.4</ele>
        <time>2022-02-28T14:38:23Z</time>
      </trkpt>
      <trkpt lat="46.47963" lon="5.68757">
        <ele>523.8</ele>
        <time>2022-02-28T14:38:24Z</time>
      </trkpt>
      <trkpt lat="46.47971" lon="5.68754">
        <ele>523.2</ele>
        <time>2022-02-28T14:38:25Z</time>
      </trkpt>
      <trkpt lat="46.47979" lon="5.68753">
        <ele>522.6</ele>
        <time>2022-02-28T14:38:26Z</time>
      </trkpt>
      <trkpt lat="46.47987" lon="5.68753">
        <ele>522.2</ele>
        <time>2022-02-28T14:38:27Z</time>
      </trkpt>
      <trkpt lat="46.47995" lon="5.68756">
        <ele>521.6</ele>
        <time>2022-02-28T14:38:28Z</time>
      </trkpt>
      <trkpt lat="46.48002" lon="5.68759">
        <ele>520.8</ele>
        <time>2022-02-28T14:38:29Z</time>
      </trkpt>
      <trkpt lat="46.4801" lon="5.68764">
        <ele>520.2</ele>
        <time>2022-02-28T14:38:30Z</time>
      </trkpt>
      <trkpt lat="46.48018" lon="5.68771">
        <ele>519.6</ele>
        <time>2022-02-28T14:38:31Z</time>
      </trkpt>
      <trkpt lat="46.48026" lon="5.68778">
        <ele>519.2</ele>
        <time>2022-02-28T14:38:32Z</time>
      </trkpt>
      <trkpt lat="46.48033" lon="5.68785">
        <ele>518.4</ele>
        <time>2022-02-28T14:38:33Z</time>
      </trkpt>
      <trkpt lat="46.48041" lon="5.68792">
        <ele>517.8</ele>
        <time>2022-02-28T14:38:34Z</time>
      </trkpt>
      <trkpt lat="46.48049" lon="5.688">
        <ele>517.2</ele>
        <time>2022-02-28T14:38:35Z</time>
      </trkpt>
      <trkpt lat="46.48057" lon="5.68808">
        <ele>516.6</ele>
        <time>2022-02-28T14:38:36Z</time>
      </trkpt>
      <trkpt lat="46.48065" lon="5.68816">
        <ele>516</ele>
        <time>2022-02-28T14:38:37Z</time>
      </trkpt>
      <trkpt lat="46.48073" lon="5.68824">
        <ele>515.6</ele>
        <time>2022-02-28T14:38:38Z</time>
      </trkpt>
      <trkpt lat="46.48081" lon="5.68833">
        <ele>515</ele>
        <time>2022-02-28T14:38:39Z</time>
      </trkpt>
      <trkpt lat="46.48089" lon="5.68843">
        <ele>514.4</ele>
        <time>2022-02-28T14:38:40Z</time>
      </trkpt>
      <trkpt lat="46.48097" lon="5.68854">
        <ele>514</ele>
        <time>2022-02-28T14:38:41Z</time>
      </trkpt>
      <trkpt lat="46.48104" lon="5.68865">
        <ele>513.4</ele>
        <time>2022-02-28T14:38:42Z</time>
      </trkpt>
      <trkpt lat="46.4811" lon="5.68878">
        <ele>513</ele>
        <time>2022-02-28T14:38:43Z</time>
      </trkpt>
      <trkpt lat="46.48115" lon="5.68891">
        <ele>512.6</ele>
        <time>2022-02-28T14:38:44Z</time>
      </trkpt>
      <trkpt lat="46.48119" lon="5.68905">
        <ele>512</ele>
        <time>2022-02-28T14:38:45Z</time>
      </trkpt>
      <trkpt lat="46.48121" lon="5.68919">
        <ele>511.6</ele>
        <time>2022-02-28T14:38:46Z</time>
      </trkpt>
      <trkpt lat="46.48122" lon="5.68933">
        <ele>511</ele>
        <time>2022-02-28T14:38:47Z</time>
      </trkpt>
      <trkpt lat="46.48123" lon="5.68947">
        <ele>510.4</ele>
        <time>2022-02-28T14:38:48Z</time>
      </trkpt>
      <trkpt lat="46.48123" lon="5.68961">
        <ele>509.8</ele>
        <time>2022-02-28T14:38:49Z</time>
      </trkpt>
      <trkpt lat="46.48123" lon="5.68973">
        <ele>509.2</ele>
        <time>2022-02-28T14:38:50Z</time>
      </trkpt>
      <trkpt lat="46.48125" lon="5.68986">
        <ele>508.6</ele>
        <time>2022-02-28T14:38:51Z</time>
      </trkpt>
      <trkpt lat="46.48129" lon="5.68997">
        <ele>508</ele>
        <time>2022-02-28T14:38:52Z</time>
      </trkpt>
      <trkpt lat="46.48134" lon="5.69007">
        <ele>507.4</ele>
        <time>2022-02-28T14:38:53Z</time>
      </trkpt>
      <trkpt lat="46.4814" lon="5.69015">
        <ele>507</ele>
        <time>2022-02-28T14:38:54Z</time>
      </trkpt>
      <trkpt lat="46.48147" lon="5.69022">
        <ele>506.6</ele>
        <time>2022-02-28T14:38:55Z</time>
      </trkpt>
      <trkpt lat="46.48155" lon="5.69028">
        <ele>506.2</ele>
        <time>2022-02-28T14:38:56Z</time>
      </trkpt>
      <trkpt lat="46.48163" lon="5.69034">
        <ele>506</ele>
        <time>2022-02-28T14:38:57Z</time>
      </trkpt>
      <trkpt lat="46.48172" lon="5.69039">
        <ele>506</ele>
        <time>2022-02-28T14:38:58Z</time>
      </trkpt>
      <trkpt lat="46.4818" lon="5.69044">
        <ele>505.6</ele>
        <time>2022-02-28T14:38:59Z</time>
      </trkpt>
      <trkpt lat="46.48188" lon="5.69047">
        <ele>505.6</ele>
        <time>2022-02-28T14:39:00Z</time>
      </trkpt>
      <trkpt lat="46.48196" lon="5.6905">
        <ele>505.6</ele>
        <time>2022-02-28T14:39:01Z</time>
      </trkpt>
      <trkpt lat="46.48204" lon="5.69051">
        <ele>505.6</ele>
        <time>2022-02-28T14:39:02Z</time>
      </trkpt>
      <trkpt lat="46.48212" lon="5.69052">
        <ele>505.6</ele>
        <time>2022-02-28T14:39:03Z</time>
      </trkpt>
      <trkpt lat="46.48219" lon="5.69053">
        <ele>505.6</ele>
        <time>2022-02-28T14:39:04Z</time>
      </trkpt>
      <trkpt lat="46.48226" lon="5.69054">
        <ele>506</ele>
        <time>2022-02-28T14:39:05Z</time>
      </trkpt>
      <trkpt lat="46.48232" lon="5.69055">
        <ele>506</ele>
        <time>2022-02-28T14:39:06Z</time>
      </trkpt>
      <trkpt lat="46.48239" lon="5.69055">
        <ele>506.2</ele>
        <time>2022-02-28T14:39:07Z</time>
      </trkpt>
      <trkpt lat="46.48246" lon="5.69057">
        <ele>506.2</ele>
        <time>2022-02-28T14:39:08Z</time>
      </trkpt>
      <trkpt lat="46.48252" lon="5.69059">
        <ele>506.2</ele>
        <time>2022-02-28T14:39:09Z</time>
      </trkpt>
      <trkpt lat="46.48259" lon="5.69061">
        <ele>506.2</ele>
        <time>2022-02-28T14:39:10Z</time>
      </trkpt>
      <trkpt lat="46.48265" lon="5.69063">
        <ele>506.4</ele>
        <time>2022-02-28T14:39:11Z</time>
      </trkpt>
      <trkpt lat="46.48271" lon="5.69065">
        <ele>506.4</ele>
        <time>2022-02-28T14:39:12Z</time>
      </trkpt>
      <trkpt lat="46.48278" lon="5.69067">
        <ele>506.4</ele>
        <time>2022-02-28T14:39:13Z</time>
      </trkpt>
      <trkpt lat="46.48284" lon="5.6907">
        <ele>506.4</ele>
        <time>2022-02-28T14:39:14Z</time>
      </trkpt>
      <trkpt lat="46.4829" lon="5.69072">
        <ele>506.2</ele>
        <time>2022-02-28T14:39:15Z</time>
      </trkpt>
      <trkpt lat="46.48297" lon="5.69074">
        <ele>506.2</ele>
        <time>2022-02-28T14:39:16Z</time>
      </trkpt>
      <trkpt lat="46.48303" lon="5.69075">
        <ele>505.8</ele>
        <time>2022-02-28T14:39:17Z</time>
      </trkpt>
      <trkpt lat="46.4831" lon="5.69076">
        <ele>505.4</ele>
        <time>2022-02-28T14:39:18Z</time>
      </trkpt>
      <trkpt lat="46.48318" lon="5.69076">
        <ele>505.2</ele>
        <time>2022-02-28T14:39:19Z</time>
      </trkpt>
      <trkpt lat="46.48326" lon="5.69076">
        <ele>504.6</ele>
        <time>2022-02-28T14:39:20Z</time>
      </trkpt>
      <trkpt lat="46.48334" lon="5.69075">
        <ele>504.2</ele>
        <time>2022-02-28T14:39:21Z</time>
      </trkpt>
      <trkpt lat="46.48342" lon="5.69073">
        <ele>503.8</ele>
        <time>2022-02-28T14:39:22Z</time>
      </trkpt>
      <trkpt lat="46.48351" lon="5.69071">
        <ele>503</ele>
        <time>2022-02-28T14:39:23Z</time>
      </trkpt>
      <trkpt lat="46.4836" lon="5.69069">
        <ele>502.4</ele>
        <time>2022-02-28T14:39:24Z</time>
      </trkpt>
      <trkpt lat="46.48369" lon="5.69069">
        <ele>501.6</ele>
        <time>2022-02-28T14:39:25Z</time>
      </trkpt>
      <trkpt lat="46.48379" lon="5.6907">
        <ele>500.8</ele>
        <time>2022-02-28T14:39:26Z</time>
      </trkpt>
      <trkpt lat="46.4839" lon="5.69073">
        <ele>500</ele>
        <time>2022-02-28T14:39:27Z</time>
      </trkpt>
      <trkpt lat="46.484" lon="5.69078">
        <ele>499.2</ele>
        <time>2022-02-28T14:39:28Z</time>
      </trkpt>
      <trkpt lat="46.48409" lon="5.69085">
        <ele>498.2</ele>
        <time>2022-02-28T14:39:29Z</time>
      </trkpt>
      <trkpt lat="46.48418" lon="5.69091">
        <ele>497.4</ele>
        <time>2022-02-28T14:39:30Z</time>
      </trkpt>
      <trkpt lat="46.48427" lon="5.69095">
        <ele>496.4</ele>
        <time>2022-02-28T14:39:31Z</time>
      </trkpt>
      <trkpt lat="46.48438" lon="5.69097">
        <ele>495.4</ele>
        <time>2022-02-28T14:39:32Z</time>
      </trkpt>
      <trkpt lat="46.48449" lon="5.69098">
        <ele>494.4</ele>
        <time>2022-02-28T14:39:33Z</time>
      </trkpt>
      <trkpt lat="46.4846" lon="5.69094">
        <ele>493.4</ele>
        <time>2022-02-28T14:39:34Z</time>
      </trkpt>
      <trkpt lat="46.48471" lon="5.69088">
        <ele>492.4</ele>
        <time>2022-02-28T14:39:35Z</time>
      </trkpt>
      <trkpt lat="46.48481" lon="5.6908">
        <ele>491.6</ele>
        <time>2022-02-28T14:39:36Z</time>
      </trkpt>
      <trkpt lat="46.4849" lon="5.69068">
        <ele>490.8</ele>
        <time>2022-02-28T14:39:37Z</time>
      </trkpt>
      <trkpt lat="46.48499" lon="5.69058">
        <ele>490</ele>
        <time>2022-02-28T14:39:38Z</time>
      </trkpt>
      <trkpt lat="46.4851" lon="5.69052">
        <ele>489.2</ele>
        <time>2022-02-28T14:39:39Z</time>
      </trkpt>
      <trkpt lat="46.4852" lon="5.69048">
        <ele>488.6</ele>
        <time>2022-02-28T14:39:40Z</time>
      </trkpt>
      <trkpt lat="46.48531" lon="5.69046">
        <ele>488</ele>
        <time>2022-02-28T14:39:41Z</time>
      </trkpt>
      <trkpt lat="46.48542" lon="5.69047">
        <ele>487.6</ele>
        <time>2022-02-28T14:39:42Z</time>
      </trkpt>
      <trkpt lat="46.48552" lon="5.69049">
        <ele>487.2</ele>
        <time>2022-02-28T14:39:43Z</time>
      </trkpt>
      <trkpt lat="46.48563" lon="5.69051">
        <ele>486.8</ele>
        <time>2022-02-28T14:39:44Z</time>
      </trkpt>
      <trkpt lat="46.48574" lon="5.69054">
        <ele>486.4</ele>
        <time>2022-02-28T14:39:45Z</time>
      </trkpt>
      <trkpt lat="46.48584" lon="5.69056">
        <ele>486</ele>
        <time>2022-02-28T14:39:46Z</time>
      </trkpt>
      <trkpt lat="46.48593" lon="5.69058">
        <ele>485.8</ele>
        <time>2022-02-28T14:39:47Z</time>
      </trkpt>
      <trkpt lat="46.48602" lon="5.69061">
        <ele>485.6</ele>
        <time>2022-02-28T14:39:48Z</time>
      </trkpt>
      <trkpt lat="46.48612" lon="5.69065">
        <ele>485.6</ele>
        <time>2022-02-28T14:39:49Z</time>
      </trkpt>
      <trkpt lat="46.4862" lon="5.6907">
        <ele>485.6</ele>
        <time>2022-02-28T14:39:50Z</time>
      </trkpt>
      <trkpt lat="46.48629" lon="5.69074">
        <ele>485.6</ele>
        <time>2022-02-28T14:39:51Z</time>
      </trkpt>
      <trkpt lat="46.48637" lon="5.69076">
        <ele>485.6</ele>
        <time>2022-02-28T14:39:52Z</time>
      </trkpt>
      <trkpt lat="46.48645" lon="5.69078">
        <ele>485.6</ele>
        <time>2022-02-28T14:39:53Z</time>
      </trkpt>
      <trkpt lat="46.48653" lon="5.69079">
        <ele>485.8</ele>
        <time>2022-02-28T14:39:54Z</time>
      </trkpt>
      <trkpt lat="46.48661" lon="5.69078">
        <ele>485.8</ele>
        <time>2022-02-28T14:39:55Z</time>
      </trkpt>
      <trkpt lat="46.48668" lon="5.69078">
        <ele>485.8</ele>
        <time>2022-02-28T14:39:56Z</time>
      </trkpt>
      <trkpt lat="46.48676" lon="5.69079">
        <ele>485.8</ele>
        <time>2022-02-28T14:39:57Z</time>
      </trkpt>
      <trkpt lat="46.48684" lon="5.69078">
        <ele>485.8</ele>
        <time>2022-02-28T14:39:58Z</time>
      </trkpt>
      <trkpt lat="46.48691" lon="5.69077">
        <ele>485.8</ele>
        <time>2022-02-28T14:39:59Z</time>
      </trkpt>
      <trkpt lat="46.487" lon="5.69075">
        <ele>485.4</ele>
        <time>2022-02-28T14:40:00Z</time>
      </trkpt>
      <trkpt lat="46.48708" lon="5.69074">
        <ele>485</ele>
        <time>2022-02-28T14:40:01Z</time>
      </trkpt>
      <trkpt lat="46.48716" lon="5.69072">
        <ele>484.8</ele>
        <time>2022-02-28T14:40:02Z</time>
      </trkpt>
      <trkpt lat="46.48724" lon="5.6907">
        <ele>484.2</ele>
        <time>2022-02-28T14:40:03Z</time>
      </trkpt>
      <trkpt lat="46.48733" lon="5.69068">
        <ele>483.6</ele>
        <time>2022-02-28T14:40:04Z</time>
      </trkpt>
      <trkpt lat="46.48742" lon="5.69066">
        <ele>483.2</ele>
        <time>2022-02-28T14:40:05Z</time>
      </trkpt>
      <trkpt lat="46.48752" lon="5.69064">
        <ele>482.6</ele>
        <time>2022-02-28T14:40:06Z</time>
      </trkpt>
      <trkpt lat="46.48762" lon="5.69061">
        <ele>482</ele>
        <time>2022-02-28T14:40:07Z</time>
      </trkpt>
      <trkpt lat="46.48772" lon="5.69058">
        <ele>481.4</ele>
        <time>2022-02-28T14:40:08Z</time>
      </trkpt>
      <trkpt lat="46.48782" lon="5.69051">
        <ele>481</ele>
        <time>2022-02-28T14:40:09Z</time>
      </trkpt>
      <trkpt lat="46.4879" lon="5.69041">
        <ele>480.4</ele>
        <time>2022-02-28T14:40:10Z</time>
      </trkpt>
      <trkpt lat="46.48797" lon="5.6903">
        <ele>480</ele>
        <time>2022-02-28T14:40:11Z</time>
      </trkpt>
      <trkpt lat="46.48803" lon="5.69018">
        <ele>479.8</ele>
        <time>2022-02-28T14:40:12Z</time>
      </trkpt>
      <trkpt lat="46.4881" lon="5.69008">
        <ele>479.4</ele>
        <time>2022-02-28T14:40:13Z</time>
      </trkpt>
      <trkpt lat="46.48817" lon="5.69">
        <ele>479.2</ele>
        <time>2022-02-28T14:40:14Z</time>
      </trkpt>
      <trkpt lat="46.48824" lon="5.68992">
        <ele>479</ele>
        <time>2022-02-28T14:40:15Z</time>
      </trkpt>
      <trkpt lat="46.48832" lon="5.68986">
        <ele>478.8</ele>
        <time>2022-02-28T14:40:16Z</time>
      </trkpt>
      <trkpt lat="46.48841" lon="5.6898">
        <ele>478.8</ele>
        <time>2022-02-28T14:40:17Z</time>
      </trkpt>
      <trkpt lat="46.4885" lon="5.68975">
        <ele>478.2</ele>
        <time>2022-02-28T14:40:18Z</time>
      </trkpt>
      <trkpt lat="46.48858" lon="5.6897">
        <ele>478.2</ele>
        <time>2022-02-28T14:40:19Z</time>
      </trkpt>
      <trkpt lat="46.48867" lon="5.68964">
        <ele>478</ele>
        <time>2022-02-28T14:40:20Z</time>
      </trkpt>
      <trkpt lat="46.48875" lon="5.68959">
        <ele>478</ele>
        <time>2022-02-28T14:40:21Z</time>
      </trkpt>
      <trkpt lat="46.48883" lon="5.68953">
        <ele>477.6</ele>
        <time>2022-02-28T14:40:22Z</time>
      </trkpt>
      <trkpt lat="46.48891" lon="5.68948">
        <ele>477.6</ele>
        <time>2022-02-28T14:40:23Z</time>
      </trkpt>
      <trkpt lat="46.48899" lon="5.68943">
        <ele>477.2</ele>
        <time>2022-02-28T14:40:24Z</time>
      </trkpt>
      <trkpt lat="46.48907" lon="5.68937">
        <ele>477.2</ele>
        <time>2022-02-28T14:40:25Z</time>
      </trkpt>
      <trkpt lat="46.48915" lon="5.68932">
        <ele>476.8</ele>
        <time>2022-02-28T14:40:26Z</time>
      </trkpt>
      <trkpt lat="46.48923" lon="5.68927">
        <ele>476.8</ele>
        <time>2022-02-28T14:40:27Z</time>
      </trkpt>
      <trkpt lat="46.48931" lon="5.68923">
        <ele>476.4</ele>
        <time>2022-02-28T14:40:28Z</time>
      </trkpt>
      <trkpt lat="46.4894" lon="5.68918">
        <ele>476.4</ele>
        <time>2022-02-28T14:40:29Z</time>
      </trkpt>
      <trkpt lat="46.48948" lon="5.68914">
        <ele>476.2</ele>
        <time>2022-02-28T14:40:30Z</time>
      </trkpt>
      <trkpt lat="46.48956" lon="5.68909">
        <ele>475.8</ele>
        <time>2022-02-28T14:40:31Z</time>
      </trkpt>
      <trkpt lat="46.48964" lon="5.68904">
        <ele>475.8</ele>
        <time>2022-02-28T14:40:32Z</time>
      </trkpt>
      <trkpt lat="46.48971" lon="5.68899">
        <ele>475.6</ele>
        <time>2022-02-28T14:40:33Z</time>
      </trkpt>
      <trkpt lat="46.48979" lon="5.68893">
        <ele>475.4</ele>
        <time>2022-02-28T14:40:34Z</time>
      </trkpt>
      <trkpt lat="46.48986" lon="5.68887">
        <ele>475.4</ele>
        <time>2022-02-28T14:40:35Z</time>
      </trkpt>
      <trkpt lat="46.48994" lon="5.68881">
        <ele>475</ele>
        <time>2022-02-28T14:40:36Z</time>
      </trkpt>
      <trkpt lat="46.49001" lon="5.68875">
        <ele>474.8</ele>
        <time>2022-02-28T14:40:37Z</time>
      </trkpt>
      <trkpt lat="46.49012" lon="5.68866">
        <ele>474.8</ele>
        <time>2022-02-28T14:40:38Z</time>
      </trkpt>
      <trkpt lat="46.49016" lon="5.68862">
        <ele>474.4</ele>
        <time>2022-02-28T14:40:39Z</time>
      </trkpt>
      <trkpt lat="46.49023" lon="5.68856">
        <ele>474.4</ele>
        <time>2022-02-28T14:40:40Z</time>
      </trkpt>
      <trkpt lat="46.4903" lon="5.6885">
        <ele>474.2</ele>
        <time>2022-02-28T14:40:41Z</time>
      </trkpt>
      <trkpt lat="46.49037" lon="5.68845">
        <ele>474.2</ele>
        <time>2022-02-28T14:40:42Z</time>
      </trkpt>
      <trkpt lat="46.49045" lon="5.6884">
        <ele>474.2</ele>
        <time>2022-02-28T14:40:43Z</time>
      </trkpt>
      <trkpt lat="46.49052" lon="5.68835">
        <ele>474.2</ele>
        <time>2022-02-28T14:40:44Z</time>
      </trkpt>
      <trkpt lat="46.49059" lon="5.6883">
        <ele>474.2</ele>
        <time>2022-02-28T14:40:45Z</time>
      </trkpt>
      <trkpt lat="46.49066" lon="5.68826">
        <ele>474.2</ele>
        <time>2022-02-28T14:40:46Z</time>
      </trkpt>
      <trkpt lat="46.49073" lon="5.68823">
        <ele>474.2</ele>
        <time>2022-02-28T14:40:47Z</time>
      </trkpt>
      <trkpt lat="46.4908" lon="5.68819">
        <ele>474.2</ele>
        <time>2022-02-28T14:40:48Z</time>
      </trkpt>
      <trkpt lat="46.49086" lon="5.68816">
        <ele>474.2</ele>
        <time>2022-02-28T14:40:49Z</time>
      </trkpt>
      <trkpt lat="46.49093" lon="5.68812">
        <ele>474.2</ele>
        <time>2022-02-28T14:40:50Z</time>
      </trkpt>
      <trkpt lat="46.491" lon="5.68808">
        <ele>474.2</ele>
        <time>2022-02-28T14:40:51Z</time>
      </trkpt>
      <trkpt lat="46.49107" lon="5.68805">
        <ele>474.2</ele>
        <time>2022-02-28T14:40:52Z</time>
      </trkpt>
      <trkpt lat="46.49113" lon="5.68802">
        <ele>474.2</ele>
        <time>2022-02-28T14:40:53Z</time>
      </trkpt>
      <trkpt lat="46.4912" lon="5.68799">
        <ele>474.2</ele>
        <time>2022-02-28T14:40:54Z</time>
      </trkpt>
      <trkpt lat="46.49127" lon="5.68795">
        <ele>474.2</ele>
        <time>2022-02-28T14:40:55Z</time>
      </trkpt>
      <trkpt lat="46.49133" lon="5.68791">
        <ele>474.2</ele>
        <time>2022-02-28T14:40:56Z</time>
      </trkpt>
      <trkpt lat="46.4914" lon="5.68787">
        <ele>474.2</ele>
        <time>2022-02-28T14:40:57Z</time>
      </trkpt>
      <trkpt lat="46.49146" lon="5.68783">
        <ele>474.2</ele>
        <time>2022-02-28T14:40:58Z</time>
      </trkpt>
      <trkpt lat="46.49152" lon="5.68779">
        <ele>474.2</ele>
        <time>2022-02-28T14:40:59Z</time>
      </trkpt>
      <trkpt lat="46.49158" lon="5.68774">
        <ele>474.2</ele>
        <time>2022-02-28T14:41:00Z</time>
      </trkpt>
      <trkpt lat="46.49165" lon="5.6877">
        <ele>474.2</ele>
        <time>2022-02-28T14:41:01Z</time>
      </trkpt>
      <trkpt lat="46.49171" lon="5.68766">
        <ele>474.2</ele>
        <time>2022-02-28T14:41:02Z</time>
      </trkpt>
      <trkpt lat="46.49177" lon="5.68763">
        <ele>474</ele>
        <time>2022-02-28T14:41:03Z</time>
      </trkpt>
      <trkpt lat="46.49183" lon="5.6876">
        <ele>474</ele>
        <time>2022-02-28T14:41:04Z</time>
      </trkpt>
      <trkpt lat="46.49189" lon="5.68757">
        <ele>474</ele>
        <time>2022-02-28T14:41:05Z</time>
      </trkpt>
      <trkpt lat="46.49196" lon="5.68754">
        <ele>474</ele>
        <time>2022-02-28T14:41:06Z</time>
      </trkpt>
      <trkpt lat="46.49202" lon="5.68752">
        <ele>474.2</ele>
        <time>2022-02-28T14:41:07Z</time>
      </trkpt>
      <trkpt lat="46.49208" lon="5.6875">
        <ele>474.2</ele>
        <time>2022-02-28T14:41:08Z</time>
      </trkpt>
      <trkpt lat="46.49215" lon="5.68748">
        <ele>474.6</ele>
        <time>2022-02-28T14:41:09Z</time>
      </trkpt>
      <trkpt lat="46.49221" lon="5.68746">
        <ele>474.6</ele>
        <time>2022-02-28T14:41:10Z</time>
      </trkpt>
      <trkpt lat="46.49227" lon="5.68743">
        <ele>474.6</ele>
        <time>2022-02-28T14:41:11Z</time>
      </trkpt>
      <trkpt lat="46.49233" lon="5.6874">
        <ele>474.8</ele>
        <time>2022-02-28T14:41:12Z</time>
      </trkpt>
      <trkpt lat="46.49239" lon="5.68735">
        <ele>474.8</ele>
        <time>2022-02-28T14:41:13Z</time>
      </trkpt>
      <trkpt lat="46.49245" lon="5.68731">
        <ele>474.8</ele>
        <time>2022-02-28T14:41:14Z</time>
      </trkpt>
      <trkpt lat="46.49251" lon="5.68726">
        <ele>474.8</ele>
        <time>2022-02-28T14:41:15Z</time>
      </trkpt>
      <trkpt lat="46.49257" lon="5.68722">
        <ele>474.8</ele>
        <time>2022-02-28T14:41:16Z</time>
      </trkpt>
      <trkpt lat="46.49263" lon="5.68718">
        <ele>474.8</ele>
        <time>2022-02-28T14:41:17Z</time>
      </trkpt>
      <trkpt lat="46.49268" lon="5.68714">
        <ele>474.8</ele>
        <time>2022-02-28T14:41:18Z</time>
      </trkpt>
      <trkpt lat="46.49274" lon="5.6871">
        <ele>475</ele>
        <time>2022-02-28T14:41:19Z</time>
      </trkpt>
      <trkpt lat="46.4928" lon="5.68707">
        <ele>475</ele>
        <time>2022-02-28T14:41:20Z</time>
      </trkpt>
      <trkpt lat="46.49286" lon="5.68704">
        <ele>475</ele>
        <time>2022-02-28T14:41:21Z</time>
      </trkpt>
      <trkpt lat="46.49292" lon="5.687">
        <ele>475</ele>
        <time>2022-02-28T14:41:22Z</time>
      </trkpt>
      <trkpt lat="46.49297" lon="5.68696">
        <ele>475</ele>
        <time>2022-02-28T14:41:23Z</time>
      </trkpt>
      <trkpt lat="46.49303" lon="5.68693">
        <ele>475</ele>
        <time>2022-02-28T14:41:24Z</time>
      </trkpt>
      <trkpt lat="46.49309" lon="5.6869">
        <ele>475</ele>
        <time>2022-02-28T14:41:25Z</time>
      </trkpt>
      <trkpt lat="46.49314" lon="5.68686">
        <ele>475.2</ele>
        <time>2022-02-28T14:41:26Z</time>
      </trkpt>
      <trkpt lat="46.4932" lon="5.68683">
        <ele>475.2</ele>
        <time>2022-02-28T14:41:27Z</time>
      </trkpt>
      <trkpt lat="46.49325" lon="5.68679">
        <ele>475.2</ele>
        <time>2022-02-28T14:41:28Z</time>
      </trkpt>
      <trkpt lat="46.49331" lon="5.68676">
        <ele>475.4</ele>
        <time>2022-02-28T14:41:29Z</time>
      </trkpt>
      <trkpt lat="46.49336" lon="5.68674">
        <ele>475.4</ele>
        <time>2022-02-28T14:41:30Z</time>
      </trkpt>
      <trkpt lat="46.49342" lon="5.68671">
        <ele>475.4</ele>
        <time>2022-02-28T14:41:31Z</time>
      </trkpt>
      <trkpt lat="46.49347" lon="5.68668">
        <ele>475.8</ele>
        <time>2022-02-28T14:41:32Z</time>
      </trkpt>
      <trkpt lat="46.49352" lon="5.68665">
        <ele>475.8</ele>
        <time>2022-02-28T14:41:33Z</time>
      </trkpt>
      <trkpt lat="46.49358" lon="5.68662">
        <ele>475.8</ele>
        <time>2022-02-28T14:41:34Z</time>
      </trkpt>
      <trkpt lat="46.49363" lon="5.68658">
        <ele>475.8</ele>
        <time>2022-02-28T14:41:35Z</time>
      </trkpt>
      <trkpt lat="46.49368" lon="5.68655">
        <ele>475.8</ele>
        <time>2022-02-28T14:41:36Z</time>
      </trkpt>
      <trkpt lat="46.49373" lon="5.68651">
        <ele>475.8</ele>
        <time>2022-02-28T14:41:37Z</time>
      </trkpt>
      <trkpt lat="46.49377" lon="5.68646">
        <ele>475.8</ele>
        <time>2022-02-28T14:41:38Z</time>
      </trkpt>
      <trkpt lat="46.49382" lon="5.68642">
        <ele>476</ele>
        <time>2022-02-28T14:41:39Z</time>
      </trkpt>
      <trkpt lat="46.49386" lon="5.68637">
        <ele>476</ele>
        <time>2022-02-28T14:41:40Z</time>
      </trkpt>
      <trkpt lat="46.49395" lon="5.68629">
        <ele>476</ele>
        <time>2022-02-28T14:41:41Z</time>
      </trkpt>
      <trkpt lat="46.494" lon="5.68625">
        <ele>476</ele>
        <time>2022-02-28T14:41:42Z</time>
      </trkpt>
      <trkpt lat="46.49405" lon="5.68622">
        <ele>476</ele>
        <time>2022-02-28T14:41:43Z</time>
      </trkpt>
      <trkpt lat="46.4941" lon="5.68618">
        <ele>476.2</ele>
        <time>2022-02-28T14:41:44Z</time>
      </trkpt>
      <trkpt lat="46.49414" lon="5.68615">
        <ele>476.2</ele>
        <time>2022-02-28T14:41:45Z</time>
      </trkpt>
      <trkpt lat="46.49419" lon="5.68612">
        <ele>476.2</ele>
        <time>2022-02-28T14:41:46Z</time>
      </trkpt>
      <trkpt lat="46.49424" lon="5.68609">
        <ele>476.4</ele>
        <time>2022-02-28T14:41:47Z</time>
      </trkpt>
      <trkpt lat="46.49429" lon="5.68605">
        <ele>476.4</ele>
        <time>2022-02-28T14:41:48Z</time>
      </trkpt>
      <trkpt lat="46.49434" lon="5.68602">
        <ele>476.4</ele>
        <time>2022-02-28T14:41:49Z</time>
      </trkpt>
      <trkpt lat="46.49439" lon="5.68599">
        <ele>476.4</ele>
        <time>2022-02-28T14:41:50Z</time>
      </trkpt>
      <trkpt lat="46.49444" lon="5.68597">
        <ele>476.6</ele>
        <time>2022-02-28T14:41:51Z</time>
      </trkpt>
      <trkpt lat="46.49449" lon="5.68594">
        <ele>476.6</ele>
        <time>2022-02-28T14:41:52Z</time>
      </trkpt>
      <trkpt lat="46.49454" lon="5.68591">
        <ele>476.6</ele>
        <time>2022-02-28T14:41:53Z</time>
      </trkpt>
      <trkpt lat="46.49458" lon="5.68588">
        <ele>476.6</ele>
        <time>2022-02-28T14:41:54Z</time>
      </trkpt>
      <trkpt lat="46.49463" lon="5.68585">
        <ele>476.6</ele>
        <time>2022-02-28T14:41:55Z</time>
      </trkpt>
      <trkpt lat="46.49468" lon="5.68583">
        <ele>476.6</ele>
        <time>2022-02-28T14:41:56Z</time>
      </trkpt>
      <trkpt lat="46.49473" lon="5.6858">
        <ele>476.6</ele>
        <time>2022-02-28T14:41:57Z</time>
      </trkpt>
      <trkpt lat="46.49478" lon="5.68578">
        <ele>477</ele>
        <time>2022-02-28T14:41:58Z</time>
      </trkpt>
      <trkpt lat="46.49478" lon="5.68578">
        <ele>477</ele>
        <time>2022-02-28T14:41:59Z</time>
      </trkpt>
      <trkpt lat="46.49483" lon="5.68576">
        <ele>477.2</ele>
        <time>2022-02-28T14:42:00Z</time>
      </trkpt>
      <trkpt lat="46.49488" lon="5.68573">
        <ele>477.2</ele>
        <time>2022-02-28T14:42:01Z</time>
      </trkpt>
      <trkpt lat="46.49493" lon="5.6857">
        <ele>477.2</ele>
        <time>2022-02-28T14:42:02Z</time>
      </trkpt>
      <trkpt lat="46.49498" lon="5.68566">
        <ele>477.2</ele>
        <time>2022-02-28T14:42:03Z</time>
      </trkpt>
      <trkpt lat="46.49503" lon="5.68563">
        <ele>477.4</ele>
        <time>2022-02-28T14:42:04Z</time>
      </trkpt>
      <trkpt lat="46.49508" lon="5.6856">
        <ele>477.4</ele>
        <time>2022-02-28T14:42:05Z</time>
      </trkpt>
      <trkpt lat="46.49513" lon="5.68556">
        <ele>477.6</ele>
        <time>2022-02-28T14:42:06Z</time>
      </trkpt>
      <trkpt lat="46.49518" lon="5.68552">
        <ele>477.6</ele>
        <time>2022-02-28T14:42:07Z</time>
      </trkpt>
      <trkpt lat="46.49522" lon="5.68548">
        <ele>477.6</ele>
        <time>2022-02-28T14:42:08Z</time>
      </trkpt>
      <trkpt lat="46.49527" lon="5.68544">
        <ele>477.6</ele>
        <time>2022-02-28T14:42:09Z</time>
      </trkpt>
      <trkpt lat="46.49532" lon="5.6854">
        <ele>477.8</ele>
        <time>2022-02-28T14:42:10Z</time>
      </trkpt>
      <trkpt lat="46.49536" lon="5.68536">
        <ele>477.8</ele>
        <time>2022-02-28T14:42:11Z</time>
      </trkpt>
      <trkpt lat="46.49541" lon="5.68533">
        <ele>478</ele>
        <time>2022-02-28T14:42:12Z</time>
      </trkpt>
      <trkpt lat="46.49545" lon="5.68529">
        <ele>478</ele>
        <time>2022-02-28T14:42:13Z</time>
      </trkpt>
      <trkpt lat="46.4955" lon="5.68525">
        <ele>478</ele>
        <time>2022-02-28T14:42:14Z</time>
      </trkpt>
      <trkpt lat="46.49554" lon="5.68521">
        <ele>478.4</ele>
        <time>2022-02-28T14:42:15Z</time>
      </trkpt>
      <trkpt lat="46.49559" lon="5.68517">
        <ele>478.4</ele>
        <time>2022-02-28T14:42:16Z</time>
      </trkpt>
      <trkpt lat="46.49563" lon="5.68513">
        <ele>478.4</ele>
        <time>2022-02-28T14:42:17Z</time>
      </trkpt>
      <trkpt lat="46.49568" lon="5.6851">
        <ele>478.6</ele>
        <time>2022-02-28T14:42:18Z</time>
      </trkpt>
      <trkpt lat="46.49572" lon="5.68507">
        <ele>478.6</ele>
        <time>2022-02-28T14:42:19Z</time>
      </trkpt>
      <trkpt lat="46.49577" lon="5.68503">
        <ele>478.6</ele>
        <time>2022-02-28T14:42:20Z</time>
      </trkpt>
      <trkpt lat="46.49581" lon="5.68499">
        <ele>478.6</ele>
        <time>2022-02-28T14:42:21Z</time>
      </trkpt>
      <trkpt lat="46.49586" lon="5.68495">
        <ele>478.8</ele>
        <time>2022-02-28T14:42:22Z</time>
      </trkpt>
      <trkpt lat="46.4959" lon="5.68492">
        <ele>478.8</ele>
        <time>2022-02-28T14:42:23Z</time>
      </trkpt>
      <trkpt lat="46.49595" lon="5.68488">
        <ele>478.8</ele>
        <time>2022-02-28T14:42:24Z</time>
      </trkpt>
      <trkpt lat="46.496" lon="5.68485">
        <ele>478.8</ele>
        <time>2022-02-28T14:42:25Z</time>
      </trkpt>
      <trkpt lat="46.49605" lon="5.68481">
        <ele>478.8</ele>
        <time>2022-02-28T14:42:26Z</time>
      </trkpt>
      <trkpt lat="46.49609" lon="5.68478">
        <ele>478.8</ele>
        <time>2022-02-28T14:42:27Z</time>
      </trkpt>
      <trkpt lat="46.49614" lon="5.68475">
        <ele>478.8</ele>
        <time>2022-02-28T14:42:28Z</time>
      </trkpt>
      <trkpt lat="46.49619" lon="5.68471">
        <ele>478.8</ele>
        <time>2022-02-28T14:42:29Z</time>
      </trkpt>
      <trkpt lat="46.49624" lon="5.68467">
        <ele>479</ele>
        <time>2022-02-28T14:42:30Z</time>
      </trkpt>
      <trkpt lat="46.49629" lon="5.68464">
        <ele>479</ele>
        <time>2022-02-28T14:42:31Z</time>
      </trkpt>
      <trkpt lat="46.49634" lon="5.6846">
        <ele>479</ele>
        <time>2022-02-28T14:42:32Z</time>
      </trkpt>
      <trkpt lat="46.49639" lon="5.68456">
        <ele>479</ele>
        <time>2022-02-28T14:42:33Z</time>
      </trkpt>
      <trkpt lat="46.49643" lon="5.68452">
        <ele>479</ele>
        <time>2022-02-28T14:42:34Z</time>
      </trkpt>
      <trkpt lat="46.49648" lon="5.68448">
        <ele>479</ele>
        <time>2022-02-28T14:42:35Z</time>
      </trkpt>
      <trkpt lat="46.49653" lon="5.68445">
        <ele>479.2</ele>
        <time>2022-02-28T14:42:36Z</time>
      </trkpt>
      <trkpt lat="46.49659" lon="5.68441">
        <ele>479.2</ele>
        <time>2022-02-28T14:42:37Z</time>
      </trkpt>
      <trkpt lat="46.49664" lon="5.68437">
        <ele>479.2</ele>
        <time>2022-02-28T14:42:38Z</time>
      </trkpt>
      <trkpt lat="46.49669" lon="5.68434">
        <ele>479.2</ele>
        <time>2022-02-28T14:42:39Z</time>
      </trkpt>
      <trkpt lat="46.49675" lon="5.68431">
        <ele>479</ele>
        <time>2022-02-28T14:42:40Z</time>
      </trkpt>
      <trkpt lat="46.49681" lon="5.68428">
        <ele>479</ele>
        <time>2022-02-28T14:42:41Z</time>
      </trkpt>
      <trkpt lat="46.49687" lon="5.68424">
        <ele>478.8</ele>
        <time>2022-02-28T14:42:42Z</time>
      </trkpt>
      <trkpt lat="46.49693" lon="5.68421">
        <ele>478.8</ele>
        <time>2022-02-28T14:42:43Z</time>
      </trkpt>
      <trkpt lat="46.49699" lon="5.68419">
        <ele>478.4</ele>
        <time>2022-02-28T14:42:44Z</time>
      </trkpt>
      <trkpt lat="46.49706" lon="5.68417">
        <ele>478.4</ele>
        <time>2022-02-28T14:42:45Z</time>
      </trkpt>
      <trkpt lat="46.49713" lon="5.68417">
        <ele>478.2</ele>
        <time>2022-02-28T14:42:46Z</time>
      </trkpt>
      <trkpt lat="46.4972" lon="5.68417">
        <ele>478</ele>
        <time>2022-02-28T14:42:47Z</time>
      </trkpt>
      <trkpt lat="46.49727" lon="5.68418">
        <ele>477.8</ele>
        <time>2022-02-28T14:42:48Z</time>
      </trkpt>
      <trkpt lat="46.49734" lon="5.68419">
        <ele>477.4</ele>
        <time>2022-02-28T14:42:49Z</time>
      </trkpt>
      <trkpt lat="46.49741" lon="5.68421">
        <ele>477.2</ele>
        <time>2022-02-28T14:42:50Z</time>
      </trkpt>
      <trkpt lat="46.49748" lon="5.68424">
        <ele>476.6</ele>
        <time>2022-02-28T14:42:51Z</time>
      </trkpt>
      <trkpt lat="46.49756" lon="5.68426">
        <ele>476.2</ele>
        <time>2022-02-28T14:42:52Z</time>
      </trkpt>
      <trkpt lat="46.49764" lon="5.68427">
        <ele>475.6</ele>
        <time>2022-02-28T14:42:53Z</time>
      </trkpt>
      <trkpt lat="46.49772" lon="5.68428">
        <ele>475</ele>
        <time>2022-02-28T14:42:54Z</time>
      </trkpt>
      <trkpt lat="46.4978" lon="5.68428">
        <ele>474.4</ele>
        <time>2022-02-28T14:42:55Z</time>
      </trkpt>
      <trkpt lat="46.49789" lon="5.68429">
        <ele>473.8</ele>
        <time>2022-02-28T14:42:56Z</time>
      </trkpt>
      <trkpt lat="46.49798" lon="5.68429">
        <ele>473.2</ele>
        <time>2022-02-28T14:42:57Z</time>
      </trkpt>
      <trkpt lat="46.49807" lon="5.6843">
        <ele>473.2</ele>
        <time>2022-02-28T14:42:58Z</time>
      </trkpt>
      <trkpt lat="46.49817" lon="5.68431">
        <ele>472.4</ele>
        <time>2022-02-28T14:42:59Z</time>
      </trkpt>
      <trkpt lat="46.49827" lon="5.68432">
        <ele>471.6</ele>
        <time>2022-02-28T14:43:00Z</time>
      </trkpt>
      <trkpt lat="46.49837" lon="5.68434">
        <ele>470.8</ele>
        <time>2022-02-28T14:43:01Z</time>
      </trkpt>
      <trkpt lat="46.49847" lon="5.68436">
        <ele>470</ele>
        <time>2022-02-28T14:43:02Z</time>
      </trkpt>
      <trkpt lat="46.49857" lon="5.68438">
        <ele>469.2</ele>
        <time>2022-02-28T14:43:03Z</time>
      </trkpt>
      <trkpt lat="46.49868" lon="5.68441">
        <ele>468.6</ele>
        <time>2022-02-28T14:43:04Z</time>
      </trkpt>
      <trkpt lat="46.49878" lon="5.68443">
        <ele>467.8</ele>
        <time>2022-02-28T14:43:05Z</time>
      </trkpt>
      <trkpt lat="46.49889" lon="5.68446">
        <ele>467</ele>
        <time>2022-02-28T14:43:06Z</time>
      </trkpt>
      <trkpt lat="46.499" lon="5.68449">
        <ele>466.2</ele>
        <time>2022-02-28T14:43:07Z</time>
      </trkpt>
      <trkpt lat="46.49911" lon="5.68452">
        <ele>465.6</ele>
        <time>2022-02-28T14:43:08Z</time>
      </trkpt>
      <trkpt lat="46.49921" lon="5.68455">
        <ele>465</ele>
        <time>2022-02-28T14:43:09Z</time>
      </trkpt>
      <trkpt lat="46.4993" lon="5.68459">
        <ele>464.4</ele>
        <time>2022-02-28T14:43:10Z</time>
      </trkpt>
      <trkpt lat="46.49939" lon="5.68465">
        <ele>463.6</ele>
        <time>2022-02-28T14:43:11Z</time>
      </trkpt>
      <trkpt lat="46.49949" lon="5.68472">
        <ele>463.2</ele>
        <time>2022-02-28T14:43:12Z</time>
      </trkpt>
      <trkpt lat="46.49958" lon="5.68479">
        <ele>462.6</ele>
        <time>2022-02-28T14:43:13Z</time>
      </trkpt>
      <trkpt lat="46.49967" lon="5.68487">
        <ele>462</ele>
        <time>2022-02-28T14:43:14Z</time>
      </trkpt>
      <trkpt lat="46.49975" lon="5.68495">
        <ele>461.4</ele>
        <time>2022-02-28T14:43:15Z</time>
      </trkpt>
      <trkpt lat="46.49983" lon="5.68504">
        <ele>461</ele>
        <time>2022-02-28T14:43:16Z</time>
      </trkpt>
      <trkpt lat="46.49991" lon="5.68512">
        <ele>460.6</ele>
        <time>2022-02-28T14:43:17Z</time>
      </trkpt>
      <trkpt lat="46.49999" lon="5.68522">
        <ele>460.4</ele>
        <time>2022-02-28T14:43:18Z</time>
      </trkpt>
      <trkpt lat="46.50006" lon="5.68532">
        <ele>460</ele>
        <time>2022-02-28T14:43:19Z</time>
      </trkpt>
      <trkpt lat="46.50012" lon="5.68541">
        <ele>459.8</ele>
        <time>2022-02-28T14:43:20Z</time>
      </trkpt>
      <trkpt lat="46.50018" lon="5.68551">
        <ele>459.8</ele>
        <time>2022-02-28T14:43:21Z</time>
      </trkpt>
      <trkpt lat="46.50024" lon="5.68561">
        <ele>459.6</ele>
        <time>2022-02-28T14:43:22Z</time>
      </trkpt>
      <trkpt lat="46.5003" lon="5.6857">
        <ele>459.6</ele>
        <time>2022-02-28T14:43:23Z</time>
      </trkpt>
      <trkpt lat="46.50036" lon="5.68577">
        <ele>459.6</ele>
        <time>2022-02-28T14:43:24Z</time>
      </trkpt>
      <trkpt lat="46.50042" lon="5.68585">
        <ele>459.8</ele>
        <time>2022-02-28T14:43:25Z</time>
      </trkpt>
      <trkpt lat="46.50046" lon="5.68593">
        <ele>459.8</ele>
        <time>2022-02-28T14:43:26Z</time>
      </trkpt>
      <trkpt lat="46.5005" lon="5.686">
        <ele>460</ele>
        <time>2022-02-28T14:43:27Z</time>
      </trkpt>
      <trkpt lat="46.50054" lon="5.68606">
        <ele>460.4</ele>
        <time>2022-02-28T14:43:28Z</time>
      </trkpt>
      <trkpt lat="46.50058" lon="5.68612">
        <ele>460.8</ele>
        <time>2022-02-28T14:43:29Z</time>
      </trkpt>
      <trkpt lat="46.50062" lon="5.68617">
        <ele>461</ele>
        <time>2022-02-28T14:43:30Z</time>
      </trkpt>
      <trkpt lat="46.50066" lon="5.68623">
        <ele>461.4</ele>
        <time>2022-02-28T14:43:31Z</time>
      </trkpt>
      <trkpt lat="46.50069" lon="5.68628">
        <ele>462.2</ele>
        <time>2022-02-28T14:43:32Z</time>
      </trkpt>
      <trkpt lat="46.50073" lon="5.68633">
        <ele>462.6</ele>
        <time>2022-02-28T14:43:33Z</time>
      </trkpt>
      <trkpt lat="46.50076" lon="5.68638">
        <ele>463</ele>
        <time>2022-02-28T14:43:34Z</time>
      </trkpt>
      <trkpt lat="46.5008" lon="5.68643">
        <ele>463.2</ele>
        <time>2022-02-28T14:43:35Z</time>
      </trkpt>
      <trkpt lat="46.50083" lon="5.68648">
        <ele>463.6</ele>
        <time>2022-02-28T14:43:36Z</time>
      </trkpt>
      <trkpt lat="46.50086" lon="5.68654">
        <ele>463.8</ele>
        <time>2022-02-28T14:43:37Z</time>
      </trkpt>
      <trkpt lat="46.50089" lon="5.6866">
        <ele>464</ele>
        <time>2022-02-28T14:43:38Z</time>
      </trkpt>
      <trkpt lat="46.50092" lon="5.68665">
        <ele>464.4</ele>
        <time>2022-02-28T14:43:39Z</time>
      </trkpt>
      <trkpt lat="46.50095" lon="5.68671">
        <ele>464.4</ele>
        <time>2022-02-28T14:43:40Z</time>
      </trkpt>
      <trkpt lat="46.50098" lon="5.68677">
        <ele>464.8</ele>
        <time>2022-02-28T14:43:41Z</time>
      </trkpt>
      <trkpt lat="46.50101" lon="5.68683">
        <ele>465</ele>
        <time>2022-02-28T14:43:42Z</time>
      </trkpt>
      <trkpt lat="46.50103" lon="5.6869">
        <ele>465.4</ele>
        <time>2022-02-28T14:43:43Z</time>
      </trkpt>
      <trkpt lat="46.50106" lon="5.68696">
        <ele>465.6</ele>
        <time>2022-02-28T14:43:44Z</time>
      </trkpt>
      <trkpt lat="46.50108" lon="5.68703">
        <ele>465.8</ele>
        <time>2022-02-28T14:43:45Z</time>
      </trkpt>
      <trkpt lat="46.5011" lon="5.6871">
        <ele>465.8</ele>
        <time>2022-02-28T14:43:46Z</time>
      </trkpt>
      <trkpt lat="46.50112" lon="5.68717">
        <ele>466.2</ele>
        <time>2022-02-28T14:43:47Z</time>
      </trkpt>
      <trkpt lat="46.50114" lon="5.68723">
        <ele>466.4</ele>
        <time>2022-02-28T14:43:48Z</time>
      </trkpt>
      <trkpt lat="46.50117" lon="5.6873">
        <ele>466.4</ele>
        <time>2022-02-28T14:43:49Z</time>
      </trkpt>
      <trkpt lat="46.50119" lon="5.68736">
        <ele>466.8</ele>
        <time>2022-02-28T14:43:50Z</time>
      </trkpt>
      <trkpt lat="46.50121" lon="5.68742">
        <ele>467</ele>
        <time>2022-02-28T14:43:51Z</time>
      </trkpt>
      <trkpt lat="46.50123" lon="5.68748">
        <ele>467</ele>
        <time>2022-02-28T14:43:52Z</time>
      </trkpt>
      <trkpt lat="46.50125" lon="5.68755">
        <ele>467.4</ele>
        <time>2022-02-28T14:43:53Z</time>
      </trkpt>
      <trkpt lat="46.50127" lon="5.68761">
        <ele>467.4</ele>
        <time>2022-02-28T14:43:54Z</time>
      </trkpt>
      <trkpt lat="46.50128" lon="5.68768">
        <ele>467.4</ele>
        <time>2022-02-28T14:43:55Z</time>
      </trkpt>
      <trkpt lat="46.50129" lon="5.68775">
        <ele>467.6</ele>
        <time>2022-02-28T14:43:56Z</time>
      </trkpt>
      <trkpt lat="46.5013" lon="5.68782">
        <ele>467.6</ele>
        <time>2022-02-28T14:43:57Z</time>
      </trkpt>
      <trkpt lat="46.50131" lon="5.68789">
        <ele>467.6</ele>
        <time>2022-02-28T14:43:58Z</time>
      </trkpt>
      <trkpt lat="46.5013" lon="5.68796">
        <ele>467.8</ele>
        <time>2022-02-28T14:43:59Z</time>
      </trkpt>
      <trkpt lat="46.50128" lon="5.68803">
        <ele>467.8</ele>
        <time>2022-02-28T14:44:00Z</time>
      </trkpt>
      <trkpt lat="46.50126" lon="5.6881">
        <ele>467.8</ele>
        <time>2022-02-28T14:44:01Z</time>
      </trkpt>
      <trkpt lat="46.50123" lon="5.68816">
        <ele>467.8</ele>
        <time>2022-02-28T14:44:02Z</time>
      </trkpt>
      <trkpt lat="46.5012" lon="5.68822">
        <ele>467.8</ele>
        <time>2022-02-28T14:44:03Z</time>
      </trkpt>
      <trkpt lat="46.50118" lon="5.68829">
        <ele>467.8</ele>
        <time>2022-02-28T14:44:04Z</time>
      </trkpt>
      <trkpt lat="46.50115" lon="5.68836">
        <ele>467.8</ele>
        <time>2022-02-28T14:44:05Z</time>
      </trkpt>
      <trkpt lat="46.50114" lon="5.68844">
        <ele>467.8</ele>
        <time>2022-02-28T14:44:06Z</time>
      </trkpt>
      <trkpt lat="46.50113" lon="5.68852">
        <ele>467.8</ele>
        <time>2022-02-28T14:44:07Z</time>
      </trkpt>
      <trkpt lat="46.50113" lon="5.6886">
        <ele>467.8</ele>
        <time>2022-02-28T14:44:08Z</time>
      </trkpt>
      <trkpt lat="46.50114" lon="5.68869">
        <ele>467.8</ele>
        <time>2022-02-28T14:44:09Z</time>
      </trkpt>
      <trkpt lat="46.50116" lon="5.68877">
        <ele>467.8</ele>
        <time>2022-02-28T14:44:10Z</time>
      </trkpt>
      <trkpt lat="46.50118" lon="5.68885">
        <ele>467.8</ele>
        <time>2022-02-28T14:44:11Z</time>
      </trkpt>
      <trkpt lat="46.50121" lon="5.68892">
        <ele>468</ele>
        <time>2022-02-28T14:44:12Z</time>
      </trkpt>
      <trkpt lat="46.50124" lon="5.68899">
        <ele>468</ele>
        <time>2022-02-28T14:44:13Z</time>
      </trkpt>
      <trkpt lat="46.50127" lon="5.68906">
        <ele>468</ele>
        <time>2022-02-28T14:44:14Z</time>
      </trkpt>
      <trkpt lat="46.5013" lon="5.68912">
        <ele>468.4</ele>
        <time>2022-02-28T14:44:15Z</time>
      </trkpt>
      <trkpt lat="46.50133" lon="5.68919">
        <ele>468.4</ele>
        <time>2022-02-28T14:44:16Z</time>
      </trkpt>
      <trkpt lat="46.50136" lon="5.68925">
        <ele>468.6</ele>
        <time>2022-02-28T14:44:17Z</time>
      </trkpt>
      <trkpt lat="46.50139" lon="5.68932">
        <ele>468.6</ele>
        <time>2022-02-28T14:44:18Z</time>
      </trkpt>
      <trkpt lat="46.50143" lon="5.68938">
        <ele>468.6</ele>
        <time>2022-02-28T14:44:19Z</time>
      </trkpt>
      <trkpt lat="46.50146" lon="5.68945">
        <ele>468.6</ele>
        <time>2022-02-28T14:44:20Z</time>
      </trkpt>
      <trkpt lat="46.50149" lon="5.68952">
        <ele>468.6</ele>
        <time>2022-02-28T14:44:21Z</time>
      </trkpt>
      <trkpt lat="46.50152" lon="5.68958">
        <ele>468.8</ele>
        <time>2022-02-28T14:44:22Z</time>
      </trkpt>
      <trkpt lat="46.50156" lon="5.68964">
        <ele>468.8</ele>
        <time>2022-02-28T14:44:23Z</time>
      </trkpt>
      <trkpt lat="46.50159" lon="5.68971">
        <ele>468.8</ele>
        <time>2022-02-28T14:44:24Z</time>
      </trkpt>
      <trkpt lat="46.50163" lon="5.68978">
        <ele>468.8</ele>
        <time>2022-02-28T14:44:25Z</time>
      </trkpt>
      <trkpt lat="46.50166" lon="5.68984">
        <ele>468.8</ele>
        <time>2022-02-28T14:44:26Z</time>
      </trkpt>
      <trkpt lat="46.50171" lon="5.68991">
        <ele>468.8</ele>
        <time>2022-02-28T14:44:27Z</time>
      </trkpt>
      <trkpt lat="46.50175" lon="5.68997">
        <ele>468.8</ele>
        <time>2022-02-28T14:44:28Z</time>
      </trkpt>
      <trkpt lat="46.50179" lon="5.69005">
        <ele>468.6</ele>
        <time>2022-02-28T14:44:29Z</time>
      </trkpt>
      <trkpt lat="46.50184" lon="5.69012">
        <ele>468.4</ele>
        <time>2022-02-28T14:44:30Z</time>
      </trkpt>
      <trkpt lat="46.50189" lon="5.6902">
        <ele>468.4</ele>
        <time>2022-02-28T14:44:31Z</time>
      </trkpt>
      <trkpt lat="46.50194" lon="5.69028">
        <ele>467.8</ele>
        <time>2022-02-28T14:44:32Z</time>
      </trkpt>
      <trkpt lat="46.50199" lon="5.69036">
        <ele>467.6</ele>
        <time>2022-02-28T14:44:33Z</time>
      </trkpt>
      <trkpt lat="46.50204" lon="5.69044">
        <ele>467.4</ele>
        <time>2022-02-28T14:44:34Z</time>
      </trkpt>
      <trkpt lat="46.5021" lon="5.69053">
        <ele>467</ele>
        <time>2022-02-28T14:44:35Z</time>
      </trkpt>
      <trkpt lat="46.50215" lon="5.69061">
        <ele>466.6</ele>
        <time>2022-02-28T14:44:36Z</time>
      </trkpt>
      <trkpt lat="46.50221" lon="5.6907">
        <ele>466.4</ele>
        <time>2022-02-28T14:44:37Z</time>
      </trkpt>
      <trkpt lat="46.50228" lon="5.69077">
        <ele>466.4</ele>
        <time>2022-02-28T14:44:38Z</time>
      </trkpt>
      <trkpt lat="46.50234" lon="5.69085">
        <ele>466</ele>
        <time>2022-02-28T14:44:39Z</time>
      </trkpt>
      <trkpt lat="46.5024" lon="5.69091">
        <ele>466</ele>
        <time>2022-02-28T14:44:40Z</time>
      </trkpt>
      <trkpt lat="46.50247" lon="5.69098">
        <ele>465.8</ele>
        <time>2022-02-28T14:44:41Z</time>
      </trkpt>
      <trkpt lat="46.50254" lon="5.69103">
        <ele>465.8</ele>
        <time>2022-02-28T14:44:42Z</time>
      </trkpt>
      <trkpt lat="46.5026" lon="5.6911">
        <ele>465.8</ele>
        <time>2022-02-28T14:44:43Z</time>
      </trkpt>
      <trkpt lat="46.50265" lon="5.69116">
        <ele>465.8</ele>
        <time>2022-02-28T14:44:44Z</time>
      </trkpt>
      <trkpt lat="46.50271" lon="5.69122">
        <ele>465.8</ele>
        <time>2022-02-28T14:44:45Z</time>
      </trkpt>
      <trkpt lat="46.50277" lon="5.69128">
        <ele>465.8</ele>
        <time>2022-02-28T14:44:46Z</time>
      </trkpt>
      <trkpt lat="46.50282" lon="5.69133">
        <ele>466</ele>
        <time>2022-02-28T14:44:47Z</time>
      </trkpt>
      <trkpt lat="46.50287" lon="5.69139">
        <ele>466</ele>
        <time>2022-02-28T14:44:48Z</time>
      </trkpt>
      <trkpt lat="46.50293" lon="5.69144">
        <ele>466.2</ele>
        <time>2022-02-28T14:44:49Z</time>
      </trkpt>
      <trkpt lat="46.50298" lon="5.69149">
        <ele>466.2</ele>
        <time>2022-02-28T14:44:50Z</time>
      </trkpt>
      <trkpt lat="46.50303" lon="5.69155">
        <ele>466.6</ele>
        <time>2022-02-28T14:44:51Z</time>
      </trkpt>
      <trkpt lat="46.50308" lon="5.6916">
        <ele>466.6</ele>
        <time>2022-02-28T14:44:52Z</time>
      </trkpt>
      <trkpt lat="46.50314" lon="5.69166">
        <ele>466.6</ele>
        <time>2022-02-28T14:44:53Z</time>
      </trkpt>
      <trkpt lat="46.50318" lon="5.69171">
        <ele>467</ele>
        <time>2022-02-28T14:44:54Z</time>
      </trkpt>
      <trkpt lat="46.50323" lon="5.69178">
        <ele>467.2</ele>
        <time>2022-02-28T14:44:55Z</time>
      </trkpt>
      <trkpt lat="46.50326" lon="5.69184">
        <ele>467.6</ele>
        <time>2022-02-28T14:44:56Z</time>
      </trkpt>
      <trkpt lat="46.50329" lon="5.69191">
        <ele>467.8</ele>
        <time>2022-02-28T14:44:57Z</time>
      </trkpt>
      <trkpt lat="46.50331" lon="5.69198">
        <ele>468</ele>
        <time>2022-02-28T14:44:58Z</time>
      </trkpt>
      <trkpt lat="46.50333" lon="5.69204">
        <ele>468.4</ele>
        <time>2022-02-28T14:44:59Z</time>
      </trkpt>
      <trkpt lat="46.50333" lon="5.6921">
        <ele>468.6</ele>
        <time>2022-02-28T14:45:00Z</time>
      </trkpt>
      <trkpt lat="46.50334" lon="5.69216">
        <ele>469</ele>
        <time>2022-02-28T14:45:01Z</time>
      </trkpt>
      <trkpt lat="46.50336" lon="5.69221">
        <ele>469.4</ele>
        <time>2022-02-28T14:45:02Z</time>
      </trkpt>
      <trkpt lat="46.50337" lon="5.69226">
        <ele>469.6</ele>
        <time>2022-02-28T14:45:03Z</time>
      </trkpt>
      <trkpt lat="46.50338" lon="5.6923">
        <ele>470</ele>
        <time>2022-02-28T14:45:04Z</time>
      </trkpt>
      <trkpt lat="46.50338" lon="5.69234">
        <ele>470.4</ele>
        <time>2022-02-28T14:45:05Z</time>
      </trkpt>
      <trkpt lat="46.50339" lon="5.69238">
        <ele>470.6</ele>
        <time>2022-02-28T14:45:06Z</time>
      </trkpt>
      <trkpt lat="46.5034" lon="5.69242">
        <ele>471</ele>
        <time>2022-02-28T14:45:07Z</time>
      </trkpt>
      <trkpt lat="46.5034" lon="5.69246">
        <ele>471.2</ele>
        <time>2022-02-28T14:45:08Z</time>
      </trkpt>
      <trkpt lat="46.50341" lon="5.6925">
        <ele>471.4</ele>
        <time>2022-02-28T14:45:09Z</time>
      </trkpt>
      <trkpt lat="46.50343" lon="5.69253">
        <ele>471.8</ele>
        <time>2022-02-28T14:45:10Z</time>
      </trkpt>
      <trkpt lat="46.50344" lon="5.69256">
        <ele>471.8</ele>
        <time>2022-02-28T14:45:11Z</time>
      </trkpt>
      <trkpt lat="46.50346" lon="5.69258">
        <ele>472</ele>
        <time>2022-02-28T14:45:12Z</time>
      </trkpt>
      <trkpt lat="46.50347" lon="5.69261">
        <ele>472</ele>
        <time>2022-02-28T14:45:13Z</time>
      </trkpt>
      <trkpt lat="46.50349" lon="5.69263">
        <ele>472.4</ele>
        <time>2022-02-28T14:45:14Z</time>
      </trkpt>
      <trkpt lat="46.50352" lon="5.69265">
        <ele>472.4</ele>
        <time>2022-02-28T14:45:15Z</time>
      </trkpt>
      <trkpt lat="46.50354" lon="5.69267">
        <ele>472.8</ele>
        <time>2022-02-28T14:45:16Z</time>
      </trkpt>
      <trkpt lat="46.50356" lon="5.69269">
        <ele>472.8</ele>
        <time>2022-02-28T14:45:17Z</time>
      </trkpt>
      <trkpt lat="46.50359" lon="5.69271">
        <ele>473.2</ele>
        <time>2022-02-28T14:45:18Z</time>
      </trkpt>
      <trkpt lat="46.50361" lon="5.69273">
        <ele>473.4</ele>
        <time>2022-02-28T14:45:19Z</time>
      </trkpt>
      <trkpt lat="46.50365" lon="5.69274">
        <ele>473.6</ele>
        <time>2022-02-28T14:45:20Z</time>
      </trkpt>
      <trkpt lat="46.50368" lon="5.69274">
        <ele>473.8</ele>
        <time>2022-02-28T14:45:21Z</time>
      </trkpt>
      <trkpt lat="46.50372" lon="5.69274">
        <ele>473.8</ele>
        <time>2022-02-28T14:45:22Z</time>
      </trkpt>
      <trkpt lat="46.50375" lon="5.69275">
        <ele>474.2</ele>
        <time>2022-02-28T14:45:23Z</time>
      </trkpt>
      <trkpt lat="46.50379" lon="5.69276">
        <ele>474.2</ele>
        <time>2022-02-28T14:45:24Z</time>
      </trkpt>
      <trkpt lat="46.50382" lon="5.69278">
        <ele>474.6</ele>
        <time>2022-02-28T14:45:25Z</time>
      </trkpt>
      <trkpt lat="46.50385" lon="5.6928">
        <ele>474.6</ele>
        <time>2022-02-28T14:45:26Z</time>
      </trkpt>
      <trkpt lat="46.50389" lon="5.69281">
        <ele>475</ele>
        <time>2022-02-28T14:45:27Z</time>
      </trkpt>
      <trkpt lat="46.50393" lon="5.69283">
        <ele>475.2</ele>
        <time>2022-02-28T14:45:28Z</time>
      </trkpt>
      <trkpt lat="46.50397" lon="5.69284">
        <ele>475.2</ele>
        <time>2022-02-28T14:45:29Z</time>
      </trkpt>
      <trkpt lat="46.504" lon="5.69286">
        <ele>475.6</ele>
        <time>2022-02-28T14:45:30Z</time>
      </trkpt>
      <trkpt lat="46.50404" lon="5.69288">
        <ele>475.6</ele>
        <time>2022-02-28T14:45:31Z</time>
      </trkpt>
      <trkpt lat="46.50407" lon="5.6929">
        <ele>475.8</ele>
        <time>2022-02-28T14:45:32Z</time>
      </trkpt>
      <trkpt lat="46.5041" lon="5.69293">
        <ele>475.8</ele>
        <time>2022-02-28T14:45:33Z</time>
      </trkpt>
      <trkpt lat="46.50413" lon="5.69297">
        <ele>476</ele>
        <time>2022-02-28T14:45:34Z</time>
      </trkpt>
      <trkpt lat="46.50416" lon="5.69301">
        <ele>476</ele>
        <time>2022-02-28T14:45:35Z</time>
      </trkpt>
      <trkpt lat="46.50418" lon="5.69305">
        <ele>476.4</ele>
        <time>2022-02-28T14:45:36Z</time>
      </trkpt>
      <trkpt lat="46.50421" lon="5.69309">
        <ele>476.6</ele>
        <time>2022-02-28T14:45:37Z</time>
      </trkpt>
      <trkpt lat="46.50424" lon="5.69313">
        <ele>476.6</ele>
        <time>2022-02-28T14:45:38Z</time>
      </trkpt>
      <trkpt lat="46.50426" lon="5.69317">
        <ele>476.6</ele>
        <time>2022-02-28T14:45:39Z</time>
      </trkpt>
      <trkpt lat="46.50428" lon="5.69322">
        <ele>477</ele>
        <time>2022-02-28T14:45:40Z</time>
      </trkpt>
      <trkpt lat="46.50431" lon="5.69326">
        <ele>477</ele>
        <time>2022-02-28T14:45:41Z</time>
      </trkpt>
      <trkpt lat="46.50434" lon="5.6933">
        <ele>477.2</ele>
        <time>2022-02-28T14:45:42Z</time>
      </trkpt>
      <trkpt lat="46.50437" lon="5.69334">
        <ele>477.2</ele>
        <time>2022-02-28T14:45:43Z</time>
      </trkpt>
      <trkpt lat="46.5044" lon="5.69337">
        <ele>477.2</ele>
        <time>2022-02-28T14:45:44Z</time>
      </trkpt>
      <trkpt lat="46.50445" lon="5.69339">
        <ele>477.2</ele>
        <time>2022-02-28T14:45:45Z</time>
      </trkpt>
      <trkpt lat="46.50449" lon="5.69341">
        <ele>477.2</ele>
        <time>2022-02-28T14:45:46Z</time>
      </trkpt>
      <trkpt lat="46.50454" lon="5.69342">
        <ele>477.2</ele>
        <time>2022-02-28T14:45:47Z</time>
      </trkpt>
      <trkpt lat="46.50459" lon="5.69343">
        <ele>477.2</ele>
        <time>2022-02-28T14:45:48Z</time>
      </trkpt>
      <trkpt lat="46.50464" lon="5.69343">
        <ele>477.2</ele>
        <time>2022-02-28T14:45:49Z</time>
      </trkpt>
      <trkpt lat="46.50469" lon="5.69342">
        <ele>477.2</ele>
        <time>2022-02-28T14:45:50Z</time>
      </trkpt>
      <trkpt lat="46.50475" lon="5.69341">
        <ele>477.2</ele>
        <time>2022-02-28T14:45:51Z</time>
      </trkpt>
      <trkpt lat="46.5048" lon="5.69339">
        <ele>477.2</ele>
        <time>2022-02-28T14:45:52Z</time>
      </trkpt>
      <trkpt lat="46.50486" lon="5.69338">
        <ele>477.2</ele>
        <time>2022-02-28T14:45:53Z</time>
      </trkpt>
      <trkpt lat="46.50491" lon="5.69336">
        <ele>477.4</ele>
        <time>2022-02-28T14:45:54Z</time>
      </trkpt>
      <trkpt lat="46.50497" lon="5.69334">
        <ele>477.4</ele>
        <time>2022-02-28T14:45:55Z</time>
      </trkpt>
      <trkpt lat="46.50502" lon="5.69331">
        <ele>477.6</ele>
        <time>2022-02-28T14:45:56Z</time>
      </trkpt>
      <trkpt lat="46.50511" lon="5.69324">
        <ele>477.6</ele>
        <time>2022-02-28T14:45:57Z</time>
      </trkpt>
      <trkpt lat="46.50515" lon="5.6932">
        <ele>478</ele>
        <time>2022-02-28T14:45:58Z</time>
      </trkpt>
      <trkpt lat="46.50519" lon="5.69317">
        <ele>478.2</ele>
        <time>2022-02-28T14:45:59Z</time>
      </trkpt>
      <trkpt lat="46.50523" lon="5.69313">
        <ele>478.4</ele>
        <time>2022-02-28T14:46:00Z</time>
      </trkpt>
      <trkpt lat="46.50526" lon="5.69309">
        <ele>478.4</ele>
        <time>2022-02-28T14:46:01Z</time>
      </trkpt>
      <trkpt lat="46.50532" lon="5.69305">
        <ele>478.8</ele>
        <time>2022-02-28T14:46:02Z</time>
      </trkpt>
      <trkpt lat="46.50534" lon="5.69303">
        <ele>478.8</ele>
        <time>2022-02-28T14:46:03Z</time>
      </trkpt>
      <trkpt lat="46.50538" lon="5.693">
        <ele>479.2</ele>
        <time>2022-02-28T14:46:04Z</time>
      </trkpt>
      <trkpt lat="46.50542" lon="5.69297">
        <ele>479.2</ele>
        <time>2022-02-28T14:46:05Z</time>
      </trkpt>
      <trkpt lat="46.50546" lon="5.69294">
        <ele>479.4</ele>
        <time>2022-02-28T14:46:06Z</time>
      </trkpt>
      <trkpt lat="46.50551" lon="5.69291">
        <ele>479.4</ele>
        <time>2022-02-28T14:46:07Z</time>
      </trkpt>
      <trkpt lat="46.50555" lon="5.69288">
        <ele>479.4</ele>
        <time>2022-02-28T14:46:08Z</time>
      </trkpt>
      <trkpt lat="46.5056" lon="5.69284">
        <ele>479.6</ele>
        <time>2022-02-28T14:46:09Z</time>
      </trkpt>
      <trkpt lat="46.50564" lon="5.69281">
        <ele>479.6</ele>
        <time>2022-02-28T14:46:10Z</time>
      </trkpt>
      <trkpt lat="46.50569" lon="5.69278">
        <ele>479.6</ele>
        <time>2022-02-28T14:46:11Z</time>
      </trkpt>
      <trkpt lat="46.50573" lon="5.69275">
        <ele>479.6</ele>
        <time>2022-02-28T14:46:12Z</time>
      </trkpt>
      <trkpt lat="46.50578" lon="5.69273">
        <ele>479.6</ele>
        <time>2022-02-28T14:46:13Z</time>
      </trkpt>
      <trkpt lat="46.50583" lon="5.69271">
        <ele>479.6</ele>
        <time>2022-02-28T14:46:14Z</time>
      </trkpt>
      <trkpt lat="46.50588" lon="5.69268">
        <ele>479.6</ele>
        <time>2022-02-28T14:46:15Z</time>
      </trkpt>
      <trkpt lat="46.50588" lon="5.69268">
        <ele>479.6</ele>
        <time>2022-02-28T14:46:16Z</time>
      </trkpt>
      <trkpt lat="46.50594" lon="5.69266">
        <ele>479.6</ele>
        <time>2022-02-28T14:46:17Z</time>
      </trkpt>
      <trkpt lat="46.50599" lon="5.69264">
        <ele>479.6</ele>
        <time>2022-02-28T14:46:18Z</time>
      </trkpt>
      <trkpt lat="46.50605" lon="5.69262">
        <ele>479.6</ele>
        <time>2022-02-28T14:46:19Z</time>
      </trkpt>
      <trkpt lat="46.5061" lon="5.69259">
        <ele>479.6</ele>
        <time>2022-02-28T14:46:20Z</time>
      </trkpt>
      <trkpt lat="46.50616" lon="5.69257">
        <ele>479.6</ele>
        <time>2022-02-28T14:46:21Z</time>
      </trkpt>
      <trkpt lat="46.50622" lon="5.69255">
        <ele>479.6</ele>
        <time>2022-02-28T14:46:22Z</time>
      </trkpt>
      <trkpt lat="46.50628" lon="5.69252">
        <ele>479.2</ele>
        <time>2022-02-28T14:46:23Z</time>
      </trkpt>
      <trkpt lat="46.50634" lon="5.69249">
        <ele>479.2</ele>
        <time>2022-02-28T14:46:24Z</time>
      </trkpt>
      <trkpt lat="46.5064" lon="5.69246">
        <ele>479.2</ele>
        <time>2022-02-28T14:46:25Z</time>
      </trkpt>
      <trkpt lat="46.50646" lon="5.69244">
        <ele>479</ele>
        <time>2022-02-28T14:46:26Z</time>
      </trkpt>
      <trkpt lat="46.50652" lon="5.69241">
        <ele>479</ele>
        <time>2022-02-28T14:46:27Z</time>
      </trkpt>
      <trkpt lat="46.50658" lon="5.69238">
        <ele>479</ele>
        <time>2022-02-28T14:46:28Z</time>
      </trkpt>
      <trkpt lat="46.50664" lon="5.69235">
        <ele>478.6</ele>
        <time>2022-02-28T14:46:29Z</time>
      </trkpt>
      <trkpt lat="46.5067" lon="5.69231">
        <ele>478.6</ele>
        <time>2022-02-28T14:46:30Z</time>
      </trkpt>
      <trkpt lat="46.50676" lon="5.69227">
        <ele>478.4</ele>
        <time>2022-02-28T14:46:31Z</time>
      </trkpt>
      <trkpt lat="46.50682" lon="5.69223">
        <ele>478.4</ele>
        <time>2022-02-28T14:46:32Z</time>
      </trkpt>
      <trkpt lat="46.50688" lon="5.69219">
        <ele>478.4</ele>
        <time>2022-02-28T14:46:33Z</time>
      </trkpt>
      <trkpt lat="46.50694" lon="5.69214">
        <ele>478.4</ele>
        <time>2022-02-28T14:46:34Z</time>
      </trkpt>
      <trkpt lat="46.507" lon="5.6921">
        <ele>478.2</ele>
        <time>2022-02-28T14:46:35Z</time>
      </trkpt>
      <trkpt lat="46.50706" lon="5.69206">
        <ele>478.2</ele>
        <time>2022-02-28T14:46:36Z</time>
      </trkpt>
      <trkpt lat="46.50712" lon="5.69202">
        <ele>478.2</ele>
        <time>2022-02-28T14:46:37Z</time>
      </trkpt>
      <trkpt lat="46.50718" lon="5.69199">
        <ele>478.2</ele>
        <time>2022-02-28T14:46:38Z</time>
      </trkpt>
      <trkpt lat="46.50724" lon="5.69196">
        <ele>478.2</ele>
        <time>2022-02-28T14:46:39Z</time>
      </trkpt>
      <trkpt lat="46.50731" lon="5.69193">
        <ele>478.2</ele>
        <time>2022-02-28T14:46:40Z</time>
      </trkpt>
      <trkpt lat="46.50737" lon="5.6919">
        <ele>478</ele>
        <time>2022-02-28T14:46:41Z</time>
      </trkpt>
      <trkpt lat="46.50743" lon="5.69187">
        <ele>478</ele>
        <time>2022-02-28T14:46:42Z</time>
      </trkpt>
      <trkpt lat="46.50749" lon="5.69185">
        <ele>478</ele>
        <time>2022-02-28T14:46:43Z</time>
      </trkpt>
      <trkpt lat="46.50755" lon="5.69182">
        <ele>477.6</ele>
        <time>2022-02-28T14:46:44Z</time>
      </trkpt>
      <trkpt lat="46.50762" lon="5.69179">
        <ele>477.6</ele>
        <time>2022-02-28T14:46:45Z</time>
      </trkpt>
      <trkpt lat="46.50768" lon="5.69176">
        <ele>477.6</ele>
        <time>2022-02-28T14:46:46Z</time>
      </trkpt>
      <trkpt lat="46.50774" lon="5.69173">
        <ele>477.6</ele>
        <time>2022-02-28T14:46:47Z</time>
      </trkpt>
      <trkpt lat="46.50781" lon="5.69169">
        <ele>477.4</ele>
        <time>2022-02-28T14:46:48Z</time>
      </trkpt>
      <trkpt lat="46.50787" lon="5.69165">
        <ele>477.4</ele>
        <time>2022-02-28T14:46:49Z</time>
      </trkpt>
      <trkpt lat="46.50793" lon="5.6916">
        <ele>477.4</ele>
        <time>2022-02-28T14:46:50Z</time>
      </trkpt>
      <trkpt lat="46.50799" lon="5.69155">
        <ele>477.2</ele>
        <time>2022-02-28T14:46:51Z</time>
      </trkpt>
      <trkpt lat="46.50805" lon="5.6915">
        <ele>477.2</ele>
        <time>2022-02-28T14:46:52Z</time>
      </trkpt>
      <trkpt lat="46.50811" lon="5.69145">
        <ele>477.2</ele>
        <time>2022-02-28T14:46:53Z</time>
      </trkpt>
      <trkpt lat="46.50817" lon="5.69139">
        <ele>477</ele>
        <time>2022-02-28T14:46:54Z</time>
      </trkpt>
      <trkpt lat="46.50824" lon="5.69134">
        <ele>477</ele>
        <time>2022-02-28T14:46:55Z</time>
      </trkpt>
      <trkpt lat="46.5083" lon="5.69129">
        <ele>476.6</ele>
        <time>2022-02-28T14:46:56Z</time>
      </trkpt>
      <trkpt lat="46.50836" lon="5.69124">
        <ele>476.6</ele>
        <time>2022-02-28T14:46:57Z</time>
      </trkpt>
      <trkpt lat="46.50843" lon="5.69119">
        <ele>476.2</ele>
        <time>2022-02-28T14:46:58Z</time>
      </trkpt>
      <trkpt lat="46.50849" lon="5.69113">
        <ele>476.2</ele>
        <time>2022-02-28T14:46:59Z</time>
      </trkpt>
      <trkpt lat="46.50856" lon="5.69108">
        <ele>476</ele>
        <time>2022-02-28T14:47:00Z</time>
      </trkpt>
      <trkpt lat="46.50863" lon="5.69103">
        <ele>476</ele>
        <time>2022-02-28T14:47:01Z</time>
      </trkpt>
      <trkpt lat="46.50869" lon="5.69097">
        <ele>475.8</ele>
        <time>2022-02-28T14:47:02Z</time>
      </trkpt>
      <trkpt lat="46.50875" lon="5.69091">
        <ele>475.8</ele>
        <time>2022-02-28T14:47:03Z</time>
      </trkpt>
      <trkpt lat="46.50881" lon="5.69085">
        <ele>475.4</ele>
        <time>2022-02-28T14:47:04Z</time>
      </trkpt>
      <trkpt lat="46.50888" lon="5.69079">
        <ele>475.4</ele>
        <time>2022-02-28T14:47:05Z</time>
      </trkpt>
      <trkpt lat="46.50893" lon="5.69073">
        <ele>475.4</ele>
        <time>2022-02-28T14:47:06Z</time>
      </trkpt>
      <trkpt lat="46.50899" lon="5.69068">
        <ele>475.4</ele>
        <time>2022-02-28T14:47:07Z</time>
      </trkpt>
      <trkpt lat="46.50905" lon="5.69063">
        <ele>475.4</ele>
        <time>2022-02-28T14:47:08Z</time>
      </trkpt>
      <trkpt lat="46.50911" lon="5.69059">
        <ele>475.4</ele>
        <time>2022-02-28T14:47:09Z</time>
      </trkpt>
      <trkpt lat="46.50916" lon="5.69054">
        <ele>475.8</ele>
        <time>2022-02-28T14:47:10Z</time>
      </trkpt>
      <trkpt lat="46.50922" lon="5.69049">
        <ele>475.8</ele>
        <time>2022-02-28T14:47:11Z</time>
      </trkpt>
      <trkpt lat="46.50927" lon="5.69045">
        <ele>476</ele>
        <time>2022-02-28T14:47:12Z</time>
      </trkpt>
      <trkpt lat="46.50933" lon="5.69042">
        <ele>476</ele>
        <time>2022-02-28T14:47:13Z</time>
      </trkpt>
      <trkpt lat="46.50939" lon="5.69038">
        <ele>476</ele>
        <time>2022-02-28T14:47:14Z</time>
      </trkpt>
      <trkpt lat="46.50944" lon="5.69034">
        <ele>476</ele>
        <time>2022-02-28T14:47:15Z</time>
      </trkpt>
      <trkpt lat="46.50949" lon="5.69031">
        <ele>476.2</ele>
        <time>2022-02-28T14:47:16Z</time>
      </trkpt>
      <trkpt lat="46.50954" lon="5.69027">
        <ele>476.2</ele>
        <time>2022-02-28T14:47:17Z</time>
      </trkpt>
      <trkpt lat="46.50959" lon="5.69024">
        <ele>476.4</ele>
        <time>2022-02-28T14:47:18Z</time>
      </trkpt>
      <trkpt lat="46.50963" lon="5.6902">
        <ele>476.4</ele>
        <time>2022-02-28T14:47:19Z</time>
      </trkpt>
      <trkpt lat="46.50968" lon="5.69017">
        <ele>476.8</ele>
        <time>2022-02-28T14:47:20Z</time>
      </trkpt>
      <trkpt lat="46.50972" lon="5.69014">
        <ele>476.8</ele>
        <time>2022-02-28T14:47:21Z</time>
      </trkpt>
      <trkpt lat="46.50977" lon="5.69012">
        <ele>477</ele>
        <time>2022-02-28T14:47:22Z</time>
      </trkpt>
      <trkpt lat="46.50982" lon="5.69009">
        <ele>477</ele>
        <time>2022-02-28T14:47:23Z</time>
      </trkpt>
      <trkpt lat="46.50986" lon="5.69006">
        <ele>477.6</ele>
        <time>2022-02-28T14:47:24Z</time>
      </trkpt>
      <trkpt lat="46.5099" lon="5.69004">
        <ele>477.6</ele>
        <time>2022-02-28T14:47:25Z</time>
      </trkpt>
      <trkpt lat="46.50996" lon="5.69001">
        <ele>478</ele>
        <time>2022-02-28T14:47:26Z</time>
      </trkpt>
      <trkpt lat="46.50998" lon="5.69">
        <ele>478.2</ele>
        <time>2022-02-28T14:47:27Z</time>
      </trkpt>
      <trkpt lat="46.51002" lon="5.68998">
        <ele>478.6</ele>
        <time>2022-02-28T14:47:28Z</time>
      </trkpt>
      <trkpt lat="46.51005" lon="5.68997">
        <ele>478.8</ele>
        <time>2022-02-28T14:47:29Z</time>
      </trkpt>
      <trkpt lat="46.51009" lon="5.68995">
        <ele>479.2</ele>
        <time>2022-02-28T14:47:30Z</time>
      </trkpt>
      <trkpt lat="46.51014" lon="5.68994">
        <ele>479.6</ele>
        <time>2022-02-28T14:47:31Z</time>
      </trkpt>
      <trkpt lat="46.51017" lon="5.68992">
        <ele>480</ele>
        <time>2022-02-28T14:47:32Z</time>
      </trkpt>
      <trkpt lat="46.51021" lon="5.68991">
        <ele>480.4</ele>
        <time>2022-02-28T14:47:33Z</time>
      </trkpt>
      <trkpt lat="46.51025" lon="5.6899">
        <ele>480.6</ele>
        <time>2022-02-28T14:47:34Z</time>
      </trkpt>
      <trkpt lat="46.51028" lon="5.68989">
        <ele>481</ele>
        <time>2022-02-28T14:47:35Z</time>
      </trkpt>
      <trkpt lat="46.51032" lon="5.68988">
        <ele>481.4</ele>
        <time>2022-02-28T14:47:36Z</time>
      </trkpt>
      <trkpt lat="46.51036" lon="5.68986">
        <ele>481.6</ele>
        <time>2022-02-28T14:47:37Z</time>
      </trkpt>
      <trkpt lat="46.51039" lon="5.68985">
        <ele>482</ele>
        <time>2022-02-28T14:47:38Z</time>
      </trkpt>
      <trkpt lat="46.51043" lon="5.68983">
        <ele>482.2</ele>
        <time>2022-02-28T14:47:39Z</time>
      </trkpt>
      <trkpt lat="46.51046" lon="5.6898">
        <ele>482.4</ele>
        <time>2022-02-28T14:47:40Z</time>
      </trkpt>
      <trkpt lat="46.5105" lon="5.68978">
        <ele>482.4</ele>
        <time>2022-02-28T14:47:41Z</time>
      </trkpt>
      <trkpt lat="46.51053" lon="5.68975">
        <ele>482.8</ele>
        <time>2022-02-28T14:47:42Z</time>
      </trkpt>
      <trkpt lat="46.51057" lon="5.68972">
        <ele>482.8</ele>
        <time>2022-02-28T14:47:43Z</time>
      </trkpt>
      <trkpt lat="46.5106" lon="5.68969">
        <ele>483</ele>
        <time>2022-02-28T14:47:44Z</time>
      </trkpt>
      <trkpt lat="46.51064" lon="5.68966">
        <ele>483</ele>
        <time>2022-02-28T14:47:45Z</time>
      </trkpt>
      <trkpt lat="46.51067" lon="5.68963">
        <ele>483</ele>
        <time>2022-02-28T14:47:46Z</time>
      </trkpt>
      <trkpt lat="46.51071" lon="5.6896">
        <ele>483.2</ele>
        <time>2022-02-28T14:47:47Z</time>
      </trkpt>
      <trkpt lat="46.51075" lon="5.68957">
        <ele>483.2</ele>
        <time>2022-02-28T14:47:48Z</time>
      </trkpt>
      <trkpt lat="46.51079" lon="5.68953">
        <ele>483.2</ele>
        <time>2022-02-28T14:47:49Z</time>
      </trkpt>
      <trkpt lat="46.51083" lon="5.6895">
        <ele>483.2</ele>
        <time>2022-02-28T14:47:50Z</time>
      </trkpt>
      <trkpt lat="46.51087" lon="5.68946">
        <ele>483.2</ele>
        <time>2022-02-28T14:47:51Z</time>
      </trkpt>
      <trkpt lat="46.51091" lon="5.68942">
        <ele>483.2</ele>
        <time>2022-02-28T14:47:52Z</time>
      </trkpt>
      <trkpt lat="46.51095" lon="5.68939">
        <ele>483.4</ele>
        <time>2022-02-28T14:47:53Z</time>
      </trkpt>
      <trkpt lat="46.51099" lon="5.68935">
        <ele>483.4</ele>
        <time>2022-02-28T14:47:54Z</time>
      </trkpt>
      <trkpt lat="46.51103" lon="5.68931">
        <ele>483.4</ele>
        <time>2022-02-28T14:47:55Z</time>
      </trkpt>
      <trkpt lat="46.51107" lon="5.68928">
        <ele>483.4</ele>
        <time>2022-02-28T14:47:56Z</time>
      </trkpt>
      <trkpt lat="46.51112" lon="5.68924">
        <ele>483.4</ele>
        <time>2022-02-28T14:47:57Z</time>
      </trkpt>
      <trkpt lat="46.51116" lon="5.68921">
        <ele>483.4</ele>
        <time>2022-02-28T14:47:58Z</time>
      </trkpt>
      <trkpt lat="46.51121" lon="5.68919">
        <ele>483.8</ele>
        <time>2022-02-28T14:47:59Z</time>
      </trkpt>
      <trkpt lat="46.51126" lon="5.68917">
        <ele>483.8</ele>
        <time>2022-02-28T14:48:00Z</time>
      </trkpt>
      <trkpt lat="46.51132" lon="5.68916">
        <ele>483.8</ele>
        <time>2022-02-28T14:48:01Z</time>
      </trkpt>
      <trkpt lat="46.51137" lon="5.68916">
        <ele>484</ele>
        <time>2022-02-28T14:48:02Z</time>
      </trkpt>
      <trkpt lat="46.51142" lon="5.68916">
        <ele>484</ele>
        <time>2022-02-28T14:48:03Z</time>
      </trkpt>
      <trkpt lat="46.51147" lon="5.68917">
        <ele>484</ele>
        <time>2022-02-28T14:48:04Z</time>
      </trkpt>
      <trkpt lat="46.51152" lon="5.68918">
        <ele>484</ele>
        <time>2022-02-28T14:48:05Z</time>
      </trkpt>
      <trkpt lat="46.51157" lon="5.68919">
        <ele>484</ele>
        <time>2022-02-28T14:48:06Z</time>
      </trkpt>
      <trkpt lat="46.51162" lon="5.6892">
        <ele>484</ele>
        <time>2022-02-28T14:48:07Z</time>
      </trkpt>
      <trkpt lat="46.51168" lon="5.68922">
        <ele>484</ele>
        <time>2022-02-28T14:48:08Z</time>
      </trkpt>
      <trkpt lat="46.51174" lon="5.68923">
        <ele>484</ele>
        <time>2022-02-28T14:48:09Z</time>
      </trkpt>
      <trkpt lat="46.51179" lon="5.68924">
        <ele>484</ele>
        <time>2022-02-28T14:48:10Z</time>
      </trkpt>
      <trkpt lat="46.51185" lon="5.68923">
        <ele>483.8</ele>
        <time>2022-02-28T14:48:11Z</time>
      </trkpt>
      <trkpt lat="46.51191" lon="5.6892">
        <ele>483.8</ele>
        <time>2022-02-28T14:48:12Z</time>
      </trkpt>
      <trkpt lat="46.51197" lon="5.68915">
        <ele>483.8</ele>
        <time>2022-02-28T14:48:13Z</time>
      </trkpt>
      <trkpt lat="46.51202" lon="5.68909">
        <ele>483.4</ele>
        <time>2022-02-28T14:48:14Z</time>
      </trkpt>
      <trkpt lat="46.51207" lon="5.68902">
        <ele>483.4</ele>
        <time>2022-02-28T14:48:15Z</time>
      </trkpt>
      <trkpt lat="46.51211" lon="5.68894">
        <ele>483.2</ele>
        <time>2022-02-28T14:48:16Z</time>
      </trkpt>
      <trkpt lat="46.51214" lon="5.68885">
        <ele>483.2</ele>
        <time>2022-02-28T14:48:17Z</time>
      </trkpt>
      <trkpt lat="46.51217" lon="5.68876">
        <ele>483.2</ele>
        <time>2022-02-28T14:48:18Z</time>
      </trkpt>
      <trkpt lat="46.51219" lon="5.68866">
        <ele>483.2</ele>
        <time>2022-02-28T14:48:19Z</time>
      </trkpt>
      <trkpt lat="46.51222" lon="5.68857">
        <ele>483</ele>
        <time>2022-02-28T14:48:20Z</time>
      </trkpt>
      <trkpt lat="46.51224" lon="5.68847">
        <ele>483</ele>
        <time>2022-02-28T14:48:21Z</time>
      </trkpt>
      <trkpt lat="46.51226" lon="5.68837">
        <ele>482.8</ele>
        <time>2022-02-28T14:48:22Z</time>
      </trkpt>
      <trkpt lat="46.51228" lon="5.68828">
        <ele>482.8</ele>
        <time>2022-02-28T14:48:23Z</time>
      </trkpt>
      <trkpt lat="46.5123" lon="5.68819">
        <ele>482.8</ele>
        <time>2022-02-28T14:48:24Z</time>
      </trkpt>
      <trkpt lat="46.51231" lon="5.6881">
        <ele>482.6</ele>
        <time>2022-02-28T14:48:25Z</time>
      </trkpt>
      <trkpt lat="46.51233" lon="5.68801">
        <ele>482.6</ele>
        <time>2022-02-28T14:48:26Z</time>
      </trkpt>
      <trkpt lat="46.51235" lon="5.68791">
        <ele>482.6</ele>
        <time>2022-02-28T14:48:27Z</time>
      </trkpt>
      <trkpt lat="46.51237" lon="5.68782">
        <ele>482.2</ele>
        <time>2022-02-28T14:48:28Z</time>
      </trkpt>
      <trkpt lat="46.51239" lon="5.68773">
        <ele>482.2</ele>
        <time>2022-02-28T14:48:29Z</time>
      </trkpt>
      <trkpt lat="46.5124" lon="5.68764">
        <ele>482.2</ele>
        <time>2022-02-28T14:48:30Z</time>
      </trkpt>
      <trkpt lat="46.51241" lon="5.68754">
        <ele>482</ele>
        <time>2022-02-28T14:48:31Z</time>
      </trkpt>
      <trkpt lat="46.51243" lon="5.68745">
        <ele>482</ele>
        <time>2022-02-28T14:48:32Z</time>
      </trkpt>
      <trkpt lat="46.51245" lon="5.68735">
        <ele>481.8</ele>
        <time>2022-02-28T14:48:33Z</time>
      </trkpt>
      <trkpt lat="46.51246" lon="5.68726">
        <ele>481.8</ele>
        <time>2022-02-28T14:48:34Z</time>
      </trkpt>
      <trkpt lat="46.51248" lon="5.68716">
        <ele>481.6</ele>
        <time>2022-02-28T14:48:35Z</time>
      </trkpt>
      <trkpt lat="46.5125" lon="5.68706">
        <ele>481.6</ele>
        <time>2022-02-28T14:48:36Z</time>
      </trkpt>
      <trkpt lat="46.51252" lon="5.68696">
        <ele>481.2</ele>
        <time>2022-02-28T14:48:37Z</time>
      </trkpt>
      <trkpt lat="46.51254" lon="5.68685">
        <ele>481.2</ele>
        <time>2022-02-28T14:48:38Z</time>
      </trkpt>
      <trkpt lat="46.51256" lon="5.68675">
        <ele>481.2</ele>
        <time>2022-02-28T14:48:39Z</time>
      </trkpt>
      <trkpt lat="46.51259" lon="5.68665">
        <ele>481</ele>
        <time>2022-02-28T14:48:40Z</time>
      </trkpt>
      <trkpt lat="46.51262" lon="5.68655">
        <ele>480.6</ele>
        <time>2022-02-28T14:48:41Z</time>
      </trkpt>
      <trkpt lat="46.51265" lon="5.68645">
        <ele>480.4</ele>
        <time>2022-02-28T14:48:42Z</time>
      </trkpt>
      <trkpt lat="46.51268" lon="5.68634">
        <ele>480</ele>
        <time>2022-02-28T14:48:43Z</time>
      </trkpt>
      <trkpt lat="46.51271" lon="5.68623">
        <ele>479.6</ele>
        <time>2022-02-28T14:48:44Z</time>
      </trkpt>
      <trkpt lat="46.51273" lon="5.68611">
        <ele>479.2</ele>
        <time>2022-02-28T14:48:45Z</time>
      </trkpt>
      <trkpt lat="46.51276" lon="5.68599">
        <ele>478.8</ele>
        <time>2022-02-28T14:48:46Z</time>
      </trkpt>
      <trkpt lat="46.51278" lon="5.68586">
        <ele>478.4</ele>
        <time>2022-02-28T14:48:47Z</time>
      </trkpt>
      <trkpt lat="46.5128" lon="5.68572">
        <ele>478</ele>
        <time>2022-02-28T14:48:48Z</time>
      </trkpt>
      <trkpt lat="46.51281" lon="5.68558">
        <ele>477.4</ele>
        <time>2022-02-28T14:48:49Z</time>
      </trkpt>
      <trkpt lat="46.51283" lon="5.68544">
        <ele>476.8</ele>
        <time>2022-02-28T14:48:50Z</time>
      </trkpt>
      <trkpt lat="46.51284" lon="5.6853">
        <ele>476.2</ele>
        <time>2022-02-28T14:48:51Z</time>
      </trkpt>
      <trkpt lat="46.51286" lon="5.68515">
        <ele>475.6</ele>
        <time>2022-02-28T14:48:52Z</time>
      </trkpt>
      <trkpt lat="46.51288" lon="5.685">
        <ele>475</ele>
        <time>2022-02-28T14:48:53Z</time>
      </trkpt>
      <trkpt lat="46.5129" lon="5.68484">
        <ele>474.4</ele>
        <time>2022-02-28T14:48:54Z</time>
      </trkpt>
      <trkpt lat="46.51291" lon="5.68469">
        <ele>473</ele>
        <time>2022-02-28T14:48:55Z</time>
      </trkpt>
      <trkpt lat="46.51294" lon="5.68453">
        <ele>472.4</ele>
        <time>2022-02-28T14:48:56Z</time>
      </trkpt>
      <trkpt lat="46.51297" lon="5.68437">
        <ele>471.6</ele>
        <time>2022-02-28T14:48:57Z</time>
      </trkpt>
      <trkpt lat="46.51299" lon="5.6842">
        <ele>470.8</ele>
        <time>2022-02-28T14:48:58Z</time>
      </trkpt>
      <trkpt lat="46.51301" lon="5.68404">
        <ele>470</ele>
        <time>2022-02-28T14:48:59Z</time>
      </trkpt>
      <trkpt lat="46.51303" lon="5.68387">
        <ele>469.2</ele>
        <time>2022-02-28T14:49:00Z</time>
      </trkpt>
      <trkpt lat="46.51305" lon="5.68371">
        <ele>468.6</ele>
        <time>2022-02-28T14:49:01Z</time>
      </trkpt>
      <trkpt lat="46.51307" lon="5.68355">
        <ele>468</ele>
        <time>2022-02-28T14:49:02Z</time>
      </trkpt>
      <trkpt lat="46.51308" lon="5.68339">
        <ele>467.4</ele>
        <time>2022-02-28T14:49:03Z</time>
      </trkpt>
      <trkpt lat="46.5131" lon="5.68323">
        <ele>467</ele>
        <time>2022-02-28T14:49:04Z</time>
      </trkpt>
      <trkpt lat="46.51311" lon="5.68307">
        <ele>466.6</ele>
        <time>2022-02-28T14:49:05Z</time>
      </trkpt>
      <trkpt lat="46.51313" lon="5.68291">
        <ele>466</ele>
        <time>2022-02-28T14:49:06Z</time>
      </trkpt>
      <trkpt lat="46.51315" lon="5.68276">
        <ele>465.6</ele>
        <time>2022-02-28T14:49:07Z</time>
      </trkpt>
      <trkpt lat="46.51316" lon="5.68261">
        <ele>465.4</ele>
        <time>2022-02-28T14:49:08Z</time>
      </trkpt>
      <trkpt lat="46.51317" lon="5.68246">
        <ele>465</ele>
        <time>2022-02-28T14:49:09Z</time>
      </trkpt>
      <trkpt lat="46.51319" lon="5.68231">
        <ele>464.6</ele>
        <time>2022-02-28T14:49:10Z</time>
      </trkpt>
      <trkpt lat="46.5132" lon="5.68218">
        <ele>464.2</ele>
        <time>2022-02-28T14:49:11Z</time>
      </trkpt>
      <trkpt lat="46.51322" lon="5.68205">
        <ele>464.2</ele>
        <time>2022-02-28T14:49:12Z</time>
      </trkpt>
      <trkpt lat="46.51325" lon="5.68192">
        <ele>464</ele>
        <time>2022-02-28T14:49:13Z</time>
      </trkpt>
      <trkpt lat="46.51327" lon="5.6818">
        <ele>464</ele>
        <time>2022-02-28T14:49:14Z</time>
      </trkpt>
      <trkpt lat="46.51328" lon="5.68169">
        <ele>463.6</ele>
        <time>2022-02-28T14:49:15Z</time>
      </trkpt>
      <trkpt lat="46.51329" lon="5.68157">
        <ele>463.6</ele>
        <time>2022-02-28T14:49:16Z</time>
      </trkpt>
      <trkpt lat="46.5133" lon="5.68146">
        <ele>463.6</ele>
        <time>2022-02-28T14:49:17Z</time>
      </trkpt>
      <trkpt lat="46.51331" lon="5.68136">
        <ele>463.6</ele>
        <time>2022-02-28T14:49:18Z</time>
      </trkpt>
      <trkpt lat="46.51333" lon="5.68126">
        <ele>463.6</ele>
        <time>2022-02-28T14:49:19Z</time>
      </trkpt>
      <trkpt lat="46.51335" lon="5.68117">
        <ele>463.8</ele>
        <time>2022-02-28T14:49:20Z</time>
      </trkpt>
      <trkpt lat="46.51337" lon="5.68109">
        <ele>464</ele>
        <time>2022-02-28T14:49:21Z</time>
      </trkpt>
      <trkpt lat="46.51339" lon="5.68101">
        <ele>464</ele>
        <time>2022-02-28T14:49:22Z</time>
      </trkpt>
      <trkpt lat="46.51342" lon="5.68095">
        <ele>464.4</ele>
        <time>2022-02-28T14:49:23Z</time>
      </trkpt>
      <trkpt lat="46.51346" lon="5.6809">
        <ele>464.6</ele>
        <time>2022-02-28T14:49:24Z</time>
      </trkpt>
      <trkpt lat="46.51349" lon="5.68085">
        <ele>464.6</ele>
        <time>2022-02-28T14:49:25Z</time>
      </trkpt>
      <trkpt lat="46.51353" lon="5.68081">
        <ele>465</ele>
        <time>2022-02-28T14:49:26Z</time>
      </trkpt>
      <trkpt lat="46.51357" lon="5.68078">
        <ele>465</ele>
        <time>2022-02-28T14:49:27Z</time>
      </trkpt>
      <trkpt lat="46.5136" lon="5.68075">
        <ele>465.4</ele>
        <time>2022-02-28T14:49:28Z</time>
      </trkpt>
      <trkpt lat="46.51364" lon="5.68073">
        <ele>465.4</ele>
        <time>2022-02-28T14:49:29Z</time>
      </trkpt>
      <trkpt lat="46.51368" lon="5.68072">
        <ele>465.6</ele>
        <time>2022-02-28T14:49:30Z</time>
      </trkpt>
      <trkpt lat="46.51373" lon="5.68071">
        <ele>465.6</ele>
        <time>2022-02-28T14:49:31Z</time>
      </trkpt>
      <trkpt lat="46.51377" lon="5.68071">
        <ele>466</ele>
        <time>2022-02-28T14:49:32Z</time>
      </trkpt>
      <trkpt lat="46.51382" lon="5.68071">
        <ele>466</ele>
        <time>2022-02-28T14:49:33Z</time>
      </trkpt>
      <trkpt lat="46.51384" lon="5.68071">
        <ele>466</ele>
        <time>2022-02-28T14:49:34Z</time>
      </trkpt>
      <trkpt lat="46.51388" lon="5.68071">
        <ele>466.2</ele>
        <time>2022-02-28T14:49:35Z</time>
      </trkpt>
      <trkpt lat="46.51391" lon="5.68071">
        <ele>466.2</ele>
        <time>2022-02-28T14:49:36Z</time>
      </trkpt>
      <trkpt lat="46.51393" lon="5.68073">
        <ele>466.2</ele>
        <time>2022-02-28T14:49:37Z</time>
      </trkpt>
      <trkpt lat="46.51395" lon="5.68075">
        <ele>466.2</ele>
        <time>2022-02-28T14:49:38Z</time>
      </trkpt>
      <trkpt lat="46.51397" lon="5.68076">
        <ele>466.2</ele>
        <time>2022-02-28T14:49:39Z</time>
      </trkpt>
      <trkpt lat="46.51399" lon="5.68077">
        <ele>466.2</ele>
        <time>2022-02-28T14:49:40Z</time>
      </trkpt>
      <trkpt lat="46.514" lon="5.68077">
        <ele>466.2</ele>
        <time>2022-02-28T14:49:41Z</time>
      </trkpt>
      <trkpt lat="46.51401" lon="5.68078">
        <ele>466.2</ele>
        <time>2022-02-28T14:49:42Z</time>
      </trkpt>
      <trkpt lat="46.51402" lon="5.68077">
        <ele>466.2</ele>
        <time>2022-02-28T14:49:43Z</time>
      </trkpt>
      <trkpt lat="46.51404" lon="5.68077">
        <ele>466.2</ele>
        <time>2022-02-28T14:49:44Z</time>
      </trkpt>
      <trkpt lat="46.51406" lon="5.68076">
        <ele>466.6</ele>
        <time>2022-02-28T14:49:45Z</time>
      </trkpt>
      <trkpt lat="46.51408" lon="5.68074">
        <ele>466.6</ele>
        <time>2022-02-28T14:49:46Z</time>
      </trkpt>
      <trkpt lat="46.51409" lon="5.68071">
        <ele>466.6</ele>
        <time>2022-02-28T14:49:47Z</time>
      </trkpt>
      <trkpt lat="46.5141" lon="5.68066">
        <ele>466.6</ele>
        <time>2022-02-28T14:49:48Z</time>
      </trkpt>
      <trkpt lat="46.51411" lon="5.68062">
        <ele>466.6</ele>
        <time>2022-02-28T14:49:49Z</time>
      </trkpt>
      <trkpt lat="46.51411" lon="5.68057">
        <ele>466.6</ele>
        <time>2022-02-28T14:49:50Z</time>
      </trkpt>
      <trkpt lat="46.51412" lon="5.68051">
        <ele>466.6</ele>
        <time>2022-02-28T14:49:51Z</time>
      </trkpt>
      <trkpt lat="46.51412" lon="5.68045">
        <ele>466.6</ele>
        <time>2022-02-28T14:49:52Z</time>
      </trkpt>
      <trkpt lat="46.51413" lon="5.68039">
        <ele>466.6</ele>
        <time>2022-02-28T14:49:53Z</time>
      </trkpt>
      <trkpt lat="46.51414" lon="5.68032">
        <ele>466.6</ele>
        <time>2022-02-28T14:49:54Z</time>
      </trkpt>
      <trkpt lat="46.51414" lon="5.68026">
        <ele>466.6</ele>
        <time>2022-02-28T14:49:55Z</time>
      </trkpt>
      <trkpt lat="46.51415" lon="5.68018">
        <ele>466.6</ele>
        <time>2022-02-28T14:49:56Z</time>
      </trkpt>
      <trkpt lat="46.51416" lon="5.68011">
        <ele>466.6</ele>
        <time>2022-02-28T14:49:57Z</time>
      </trkpt>
      <trkpt lat="46.51417" lon="5.68003">
        <ele>466.2</ele>
        <time>2022-02-28T14:49:58Z</time>
      </trkpt>
      <trkpt lat="46.51418" lon="5.67994">
        <ele>466.2</ele>
        <time>2022-02-28T14:49:59Z</time>
      </trkpt>
      <trkpt lat="46.51419" lon="5.67986">
        <ele>466.2</ele>
        <time>2022-02-28T14:50:00Z</time>
      </trkpt>
      <trkpt lat="46.5142" lon="5.67978">
        <ele>465.8</ele>
        <time>2022-02-28T14:50:01Z</time>
      </trkpt>
      <trkpt lat="46.51421" lon="5.67969">
        <ele>465.8</ele>
        <time>2022-02-28T14:50:02Z</time>
      </trkpt>
      <trkpt lat="46.51422" lon="5.6796">
        <ele>465.8</ele>
        <time>2022-02-28T14:50:03Z</time>
      </trkpt>
      <trkpt lat="46.51423" lon="5.67952">
        <ele>465.8</ele>
        <time>2022-02-28T14:50:04Z</time>
      </trkpt>
      <trkpt lat="46.51425" lon="5.67943">
        <ele>465.8</ele>
        <time>2022-02-28T14:50:05Z</time>
      </trkpt>
      <trkpt lat="46.51426" lon="5.67935">
        <ele>465.8</ele>
        <time>2022-02-28T14:50:06Z</time>
      </trkpt>
      <trkpt lat="46.51428" lon="5.67926">
        <ele>465.6</ele>
        <time>2022-02-28T14:50:07Z</time>
      </trkpt>
      <trkpt lat="46.5143" lon="5.67917">
        <ele>465.6</ele>
        <time>2022-02-28T14:50:08Z</time>
      </trkpt>
      <trkpt lat="46.51433" lon="5.67908">
        <ele>465.6</ele>
        <time>2022-02-28T14:50:09Z</time>
      </trkpt>
      <trkpt lat="46.51435" lon="5.679">
        <ele>465.6</ele>
        <time>2022-02-28T14:50:10Z</time>
      </trkpt>
      <trkpt lat="46.51438" lon="5.67892">
        <ele>465.4</ele>
        <time>2022-02-28T14:50:11Z</time>
      </trkpt>
      <trkpt lat="46.51441" lon="5.67883">
        <ele>465.4</ele>
        <time>2022-02-28T14:50:12Z</time>
      </trkpt>
      <trkpt lat="46.51444" lon="5.67875">
        <ele>465.2</ele>
        <time>2022-02-28T14:50:13Z</time>
      </trkpt>
      <trkpt lat="46.51447" lon="5.67867">
        <ele>465.2</ele>
        <time>2022-02-28T14:50:14Z</time>
      </trkpt>
      <trkpt lat="46.5145" lon="5.67859">
        <ele>465.2</ele>
        <time>2022-02-28T14:50:15Z</time>
      </trkpt>
      <trkpt lat="46.51454" lon="5.6785">
        <ele>465.2</ele>
        <time>2022-02-28T14:50:16Z</time>
      </trkpt>
      <trkpt lat="46.51457" lon="5.67842">
        <ele>465</ele>
        <time>2022-02-28T14:50:17Z</time>
      </trkpt>
      <trkpt lat="46.51461" lon="5.67834">
        <ele>465</ele>
        <time>2022-02-28T14:50:18Z</time>
      </trkpt>
      <trkpt lat="46.51464" lon="5.67826">
        <ele>465</ele>
        <time>2022-02-28T14:50:19Z</time>
      </trkpt>
      <trkpt lat="46.51468" lon="5.67819">
        <ele>465</ele>
        <time>2022-02-28T14:50:20Z</time>
      </trkpt>
      <trkpt lat="46.51472" lon="5.6781">
        <ele>465</ele>
        <time>2022-02-28T14:50:21Z</time>
      </trkpt>
      <trkpt lat="46.51475" lon="5.67802">
        <ele>465</ele>
        <time>2022-02-28T14:50:22Z</time>
      </trkpt>
      <trkpt lat="46.51478" lon="5.67793">
        <ele>465</ele>
        <time>2022-02-28T14:50:23Z</time>
      </trkpt>
      <trkpt lat="46.51482" lon="5.67785">
        <ele>465</ele>
        <time>2022-02-28T14:50:24Z</time>
      </trkpt>
      <trkpt lat="46.51486" lon="5.67777">
        <ele>464.6</ele>
        <time>2022-02-28T14:50:25Z</time>
      </trkpt>
      <trkpt lat="46.51489" lon="5.67769">
        <ele>464.6</ele>
        <time>2022-02-28T14:50:26Z</time>
      </trkpt>
      <trkpt lat="46.51493" lon="5.67761">
        <ele>464.4</ele>
        <time>2022-02-28T14:50:27Z</time>
      </trkpt>
      <trkpt lat="46.51496" lon="5.67753">
        <ele>464.4</ele>
        <time>2022-02-28T14:50:28Z</time>
      </trkpt>
      <trkpt lat="46.515" lon="5.67745">
        <ele>464.4</ele>
        <time>2022-02-28T14:50:29Z</time>
      </trkpt>
      <trkpt lat="46.51503" lon="5.67737">
        <ele>464.2</ele>
        <time>2022-02-28T14:50:30Z</time>
      </trkpt>
      <trkpt lat="46.51507" lon="5.67729">
        <ele>464.2</ele>
        <time>2022-02-28T14:50:31Z</time>
      </trkpt>
      <trkpt lat="46.51511" lon="5.67721">
        <ele>464.2</ele>
        <time>2022-02-28T14:50:32Z</time>
      </trkpt>
      <trkpt lat="46.51518" lon="5.67705">
        <ele>464.2</ele>
        <time>2022-02-28T14:50:33Z</time>
      </trkpt>
      <trkpt lat="46.51521" lon="5.67697">
        <ele>464</ele>
        <time>2022-02-28T14:50:34Z</time>
      </trkpt>
      <trkpt lat="46.51525" lon="5.67689">
        <ele>464</ele>
        <time>2022-02-28T14:50:35Z</time>
      </trkpt>
      <trkpt lat="46.51528" lon="5.67681">
        <ele>463.8</ele>
        <time>2022-02-28T14:50:36Z</time>
      </trkpt>
      <trkpt lat="46.51532" lon="5.67673">
        <ele>463.8</ele>
        <time>2022-02-28T14:50:37Z</time>
      </trkpt>
      <trkpt lat="46.51536" lon="5.67664">
        <ele>463.4</ele>
        <time>2022-02-28T14:50:38Z</time>
      </trkpt>
      <trkpt lat="46.51539" lon="5.67656">
        <ele>463.4</ele>
        <time>2022-02-28T14:50:39Z</time>
      </trkpt>
      <trkpt lat="46.51543" lon="5.67648">
        <ele>463</ele>
        <time>2022-02-28T14:50:40Z</time>
      </trkpt>
      <trkpt lat="46.51546" lon="5.6764">
        <ele>463</ele>
        <time>2022-02-28T14:50:41Z</time>
      </trkpt>
      <trkpt lat="46.5155" lon="5.67632">
        <ele>462.8</ele>
        <time>2022-02-28T14:50:42Z</time>
      </trkpt>
      <trkpt lat="46.5155" lon="5.67632">
        <ele>462.8</ele>
        <time>2022-02-28T14:50:43Z</time>
      </trkpt>
      <trkpt lat="46.51553" lon="5.67624">
        <ele>462.8</ele>
        <time>2022-02-28T14:50:44Z</time>
      </trkpt>
      <trkpt lat="46.51557" lon="5.67616">
        <ele>462.8</ele>
        <time>2022-02-28T14:50:45Z</time>
      </trkpt>
      <trkpt lat="46.51561" lon="5.67608">
        <ele>462.8</ele>
        <time>2022-02-28T14:50:46Z</time>
      </trkpt>
      <trkpt lat="46.51564" lon="5.676">
        <ele>462.8</ele>
        <time>2022-02-28T14:50:47Z</time>
      </trkpt>
      <trkpt lat="46.51568" lon="5.67591">
        <ele>462.8</ele>
        <time>2022-02-28T14:50:48Z</time>
      </trkpt>
      <trkpt lat="46.51571" lon="5.67583">
        <ele>462.8</ele>
        <time>2022-02-28T14:50:49Z</time>
      </trkpt>
      <trkpt lat="46.51575" lon="5.67575">
        <ele>462.8</ele>
        <time>2022-02-28T14:50:50Z</time>
      </trkpt>
      <trkpt lat="46.51579" lon="5.67567">
        <ele>462.6</ele>
        <time>2022-02-28T14:50:51Z</time>
      </trkpt>
      <trkpt lat="46.51582" lon="5.67558">
        <ele>462.6</ele>
        <time>2022-02-28T14:50:52Z</time>
      </trkpt>
      <trkpt lat="46.51586" lon="5.6755">
        <ele>462.6</ele>
        <time>2022-02-28T14:50:53Z</time>
      </trkpt>
      <trkpt lat="46.51589" lon="5.67541">
        <ele>462.6</ele>
        <time>2022-02-28T14:50:54Z</time>
      </trkpt>
      <trkpt lat="46.51593" lon="5.67533">
        <ele>462.4</ele>
        <time>2022-02-28T14:50:55Z</time>
      </trkpt>
      <trkpt lat="46.51597" lon="5.67525">
        <ele>462.4</ele>
        <time>2022-02-28T14:50:56Z</time>
      </trkpt>
      <trkpt lat="46.51601" lon="5.67516">
        <ele>462.4</ele>
        <time>2022-02-28T14:50:57Z</time>
      </trkpt>
      <trkpt lat="46.51604" lon="5.67508">
        <ele>462.4</ele>
        <time>2022-02-28T14:50:58Z</time>
      </trkpt>
      <trkpt lat="46.51608" lon="5.67499">
        <ele>462</ele>
        <time>2022-02-28T14:50:59Z</time>
      </trkpt>
      <trkpt lat="46.51612" lon="5.6749">
        <ele>462</ele>
        <time>2022-02-28T14:51:00Z</time>
      </trkpt>
      <trkpt lat="46.51615" lon="5.67482">
        <ele>462</ele>
        <time>2022-02-28T14:51:01Z</time>
      </trkpt>
      <trkpt lat="46.51619" lon="5.67473">
        <ele>462</ele>
        <time>2022-02-28T14:51:02Z</time>
      </trkpt>
      <trkpt lat="46.51623" lon="5.67464">
        <ele>462</ele>
        <time>2022-02-28T14:51:03Z</time>
      </trkpt>
      <trkpt lat="46.51627" lon="5.67456">
        <ele>462</ele>
        <time>2022-02-28T14:51:04Z</time>
      </trkpt>
      <trkpt lat="46.51631" lon="5.67447">
        <ele>462</ele>
        <time>2022-02-28T14:51:05Z</time>
      </trkpt>
      <trkpt lat="46.51634" lon="5.67438">
        <ele>462</ele>
        <time>2022-02-28T14:51:06Z</time>
      </trkpt>
      <trkpt lat="46.51638" lon="5.6743">
        <ele>461.8</ele>
        <time>2022-02-28T14:51:07Z</time>
      </trkpt>
      <trkpt lat="46.51642" lon="5.67421">
        <ele>461.8</ele>
        <time>2022-02-28T14:51:08Z</time>
      </trkpt>
      <trkpt lat="46.51645" lon="5.67412">
        <ele>461.8</ele>
        <time>2022-02-28T14:51:09Z</time>
      </trkpt>
      <trkpt lat="46.51649" lon="5.67403">
        <ele>461.8</ele>
        <time>2022-02-28T14:51:10Z</time>
      </trkpt>
      <trkpt lat="46.51653" lon="5.67395">
        <ele>461.4</ele>
        <time>2022-02-28T14:51:11Z</time>
      </trkpt>
      <trkpt lat="46.51657" lon="5.67386">
        <ele>461.2</ele>
        <time>2022-02-28T14:51:12Z</time>
      </trkpt>
      <trkpt lat="46.51661" lon="5.67377">
        <ele>461.2</ele>
        <time>2022-02-28T14:51:13Z</time>
      </trkpt>
      <trkpt lat="46.51665" lon="5.67369">
        <ele>461</ele>
        <time>2022-02-28T14:51:14Z</time>
      </trkpt>
      <trkpt lat="46.5167" lon="5.67362">
        <ele>461</ele>
        <time>2022-02-28T14:51:15Z</time>
      </trkpt>
      <trkpt lat="46.51676" lon="5.67355">
        <ele>461</ele>
        <time>2022-02-28T14:51:16Z</time>
      </trkpt>
      <trkpt lat="46.51681" lon="5.67349">
        <ele>460.8</ele>
        <time>2022-02-28T14:51:17Z</time>
      </trkpt>
      <trkpt lat="46.51687" lon="5.67343">
        <ele>460.8</ele>
        <time>2022-02-28T14:51:18Z</time>
      </trkpt>
      <trkpt lat="46.51694" lon="5.67338">
        <ele>460.8</ele>
        <time>2022-02-28T14:51:19Z</time>
      </trkpt>
      <trkpt lat="46.517" lon="5.67334">
        <ele>460.6</ele>
        <time>2022-02-28T14:51:20Z</time>
      </trkpt>
      <trkpt lat="46.51707" lon="5.6733">
        <ele>460.6</ele>
        <time>2022-02-28T14:51:21Z</time>
      </trkpt>
      <trkpt lat="46.51714" lon="5.67326">
        <ele>460.6</ele>
        <time>2022-02-28T14:51:22Z</time>
      </trkpt>
      <trkpt lat="46.51721" lon="5.67322">
        <ele>460.6</ele>
        <time>2022-02-28T14:51:23Z</time>
      </trkpt>
      <trkpt lat="46.51727" lon="5.67317">
        <ele>460.6</ele>
        <time>2022-02-28T14:51:24Z</time>
      </trkpt>
      <trkpt lat="46.51734" lon="5.67313">
        <ele>460.2</ele>
        <time>2022-02-28T14:51:25Z</time>
      </trkpt>
      <trkpt lat="46.5174" lon="5.67309">
        <ele>460.2</ele>
        <time>2022-02-28T14:51:26Z</time>
      </trkpt>
      <trkpt lat="46.51747" lon="5.67304">
        <ele>460.2</ele>
        <time>2022-02-28T14:51:27Z</time>
      </trkpt>
      <trkpt lat="46.51753" lon="5.67299">
        <ele>460</ele>
        <time>2022-02-28T14:51:28Z</time>
      </trkpt>
      <trkpt lat="46.51759" lon="5.67294">
        <ele>460</ele>
        <time>2022-02-28T14:51:29Z</time>
      </trkpt>
      <trkpt lat="46.51766" lon="5.67289">
        <ele>460</ele>
        <time>2022-02-28T14:51:30Z</time>
      </trkpt>
      <trkpt lat="46.51772" lon="5.67284">
        <ele>459.8</ele>
        <time>2022-02-28T14:51:31Z</time>
      </trkpt>
      <trkpt lat="46.51778" lon="5.67279">
        <ele>459.8</ele>
        <time>2022-02-28T14:51:32Z</time>
      </trkpt>
      <trkpt lat="46.51785" lon="5.67273">
        <ele>459.6</ele>
        <time>2022-02-28T14:51:33Z</time>
      </trkpt>
      <trkpt lat="46.51791" lon="5.67268">
        <ele>459.6</ele>
        <time>2022-02-28T14:51:34Z</time>
      </trkpt>
      <trkpt lat="46.51798" lon="5.67262">
        <ele>459.6</ele>
        <time>2022-02-28T14:51:35Z</time>
      </trkpt>
      <trkpt lat="46.51804" lon="5.67257">
        <ele>459.2</ele>
        <time>2022-02-28T14:51:36Z</time>
      </trkpt>
      <trkpt lat="46.51811" lon="5.67251">
        <ele>459.2</ele>
        <time>2022-02-28T14:51:37Z</time>
      </trkpt>
      <trkpt lat="46.51817" lon="5.67246">
        <ele>459.2</ele>
        <time>2022-02-28T14:51:38Z</time>
      </trkpt>
      <trkpt lat="46.51824" lon="5.6724">
        <ele>459.2</ele>
        <time>2022-02-28T14:51:39Z</time>
      </trkpt>
      <trkpt lat="46.5183" lon="5.67235">
        <ele>459.2</ele>
        <time>2022-02-28T14:51:40Z</time>
      </trkpt>
      <trkpt lat="46.51836" lon="5.67229">
        <ele>459.2</ele>
        <time>2022-02-28T14:51:41Z</time>
      </trkpt>
      <trkpt lat="46.51842" lon="5.67223">
        <ele>459.2</ele>
        <time>2022-02-28T14:51:42Z</time>
      </trkpt>
      <trkpt lat="46.51848" lon="5.67218">
        <ele>459.2</ele>
        <time>2022-02-28T14:51:43Z</time>
      </trkpt>
      <trkpt lat="46.51853" lon="5.67212">
        <ele>459.2</ele>
        <time>2022-02-28T14:51:44Z</time>
      </trkpt>
      <trkpt lat="46.51859" lon="5.67207">
        <ele>458.8</ele>
        <time>2022-02-28T14:51:45Z</time>
      </trkpt>
      <trkpt lat="46.51864" lon="5.67201">
        <ele>458.8</ele>
        <time>2022-02-28T14:51:46Z</time>
      </trkpt>
      <trkpt lat="46.5187" lon="5.67196">
        <ele>458.8</ele>
        <time>2022-02-28T14:51:47Z</time>
      </trkpt>
      <trkpt lat="46.51875" lon="5.6719">
        <ele>458.8</ele>
        <time>2022-02-28T14:51:48Z</time>
      </trkpt>
      <trkpt lat="46.51881" lon="5.67185">
        <ele>458.8</ele>
        <time>2022-02-28T14:51:49Z</time>
      </trkpt>
      <trkpt lat="46.51886" lon="5.6718">
        <ele>458.8</ele>
        <time>2022-02-28T14:51:50Z</time>
      </trkpt>
      <trkpt lat="46.51891" lon="5.67176">
        <ele>458.8</ele>
        <time>2022-02-28T14:51:51Z</time>
      </trkpt>
      <trkpt lat="46.51895" lon="5.67171">
        <ele>458.8</ele>
        <time>2022-02-28T14:51:52Z</time>
      </trkpt>
      <trkpt lat="46.51899" lon="5.67167">
        <ele>459.2</ele>
        <time>2022-02-28T14:51:53Z</time>
      </trkpt>
      <trkpt lat="46.51903" lon="5.67163">
        <ele>459.4</ele>
        <time>2022-02-28T14:51:54Z</time>
      </trkpt>
      <trkpt lat="46.51907" lon="5.67159">
        <ele>459.6</ele>
        <time>2022-02-28T14:51:55Z</time>
      </trkpt>
      <trkpt lat="46.5191" lon="5.67156">
        <ele>459.6</ele>
        <time>2022-02-28T14:51:56Z</time>
      </trkpt>
      <trkpt lat="46.51913" lon="5.67153">
        <ele>460</ele>
        <time>2022-02-28T14:51:57Z</time>
      </trkpt>
      <trkpt lat="46.51916" lon="5.67149">
        <ele>460.2</ele>
        <time>2022-02-28T14:51:58Z</time>
      </trkpt>
      <trkpt lat="46.51919" lon="5.67146">
        <ele>460.4</ele>
        <time>2022-02-28T14:51:59Z</time>
      </trkpt>
      <trkpt lat="46.51922" lon="5.67143">
        <ele>460.8</ele>
        <time>2022-02-28T14:52:00Z</time>
      </trkpt>
      <trkpt lat="46.51924" lon="5.67139">
        <ele>460.8</ele>
        <time>2022-02-28T14:52:01Z</time>
      </trkpt>
      <trkpt lat="46.51927" lon="5.67135">
        <ele>461.4</ele>
        <time>2022-02-28T14:52:02Z</time>
      </trkpt>
      <trkpt lat="46.5193" lon="5.67131">
        <ele>461.6</ele>
        <time>2022-02-28T14:52:03Z</time>
      </trkpt>
      <trkpt lat="46.51933" lon="5.67127">
        <ele>461.8</ele>
        <time>2022-02-28T14:52:04Z</time>
      </trkpt>
      <trkpt lat="46.51935" lon="5.67123">
        <ele>462.2</ele>
        <time>2022-02-28T14:52:05Z</time>
      </trkpt>
      <trkpt lat="46.51938" lon="5.67119">
        <ele>462.4</ele>
        <time>2022-02-28T14:52:06Z</time>
      </trkpt>
      <trkpt lat="46.51941" lon="5.67115">
        <ele>462.8</ele>
        <time>2022-02-28T14:52:07Z</time>
      </trkpt>
      <trkpt lat="46.51943" lon="5.67111">
        <ele>463</ele>
        <time>2022-02-28T14:52:08Z</time>
      </trkpt>
      <trkpt lat="46.51945" lon="5.67108">
        <ele>463.2</ele>
        <time>2022-02-28T14:52:09Z</time>
      </trkpt>
      <trkpt lat="46.51948" lon="5.67104">
        <ele>463.6</ele>
        <time>2022-02-28T14:52:10Z</time>
      </trkpt>
      <trkpt lat="46.5195" lon="5.671">
        <ele>463.8</ele>
        <time>2022-02-28T14:52:11Z</time>
      </trkpt>
      <trkpt lat="46.51952" lon="5.67096">
        <ele>463.8</ele>
        <time>2022-02-28T14:52:12Z</time>
      </trkpt>
      <trkpt lat="46.51953" lon="5.67092">
        <ele>464.2</ele>
        <time>2022-02-28T14:52:13Z</time>
      </trkpt>
      <trkpt lat="46.51955" lon="5.67088">
        <ele>464.4</ele>
        <time>2022-02-28T14:52:14Z</time>
      </trkpt>
      <trkpt lat="46.51957" lon="5.67084">
        <ele>464.6</ele>
        <time>2022-02-28T14:52:15Z</time>
      </trkpt>
      <trkpt lat="46.51959" lon="5.6708">
        <ele>464.8</ele>
        <time>2022-02-28T14:52:16Z</time>
      </trkpt>
      <trkpt lat="46.5196" lon="5.67076">
        <ele>465.2</ele>
        <time>2022-02-28T14:52:17Z</time>
      </trkpt>
      <trkpt lat="46.51962" lon="5.67071">
        <ele>465.4</ele>
        <time>2022-02-28T14:52:18Z</time>
      </trkpt>
      <trkpt lat="46.51963" lon="5.67067">
        <ele>465.8</ele>
        <time>2022-02-28T14:52:19Z</time>
      </trkpt>
      <trkpt lat="46.51965" lon="5.67063">
        <ele>466</ele>
        <time>2022-02-28T14:52:20Z</time>
      </trkpt>
      <trkpt lat="46.51967" lon="5.67059">
        <ele>466.4</ele>
        <time>2022-02-28T14:52:21Z</time>
      </trkpt>
      <trkpt lat="46.51968" lon="5.67055">
        <ele>466.6</ele>
        <time>2022-02-28T14:52:22Z</time>
      </trkpt>
      <trkpt lat="46.51969" lon="5.67051">
        <ele>466.8</ele>
        <time>2022-02-28T14:52:23Z</time>
      </trkpt>
      <trkpt lat="46.5197" lon="5.67046">
        <ele>467</ele>
        <time>2022-02-28T14:52:24Z</time>
      </trkpt>
      <trkpt lat="46.51972" lon="5.67042">
        <ele>467.2</ele>
        <time>2022-02-28T14:52:25Z</time>
      </trkpt>
      <trkpt lat="46.51972" lon="5.67037">
        <ele>467.2</ele>
        <time>2022-02-28T14:52:26Z</time>
      </trkpt>
      <trkpt lat="46.51973" lon="5.67033">
        <ele>467.6</ele>
        <time>2022-02-28T14:52:27Z</time>
      </trkpt>
      <trkpt lat="46.51973" lon="5.67028">
        <ele>467.6</ele>
        <time>2022-02-28T14:52:28Z</time>
      </trkpt>
      <trkpt lat="46.51973" lon="5.67024">
        <ele>468</ele>
        <time>2022-02-28T14:52:29Z</time>
      </trkpt>
      <trkpt lat="46.51974" lon="5.67019">
        <ele>468</ele>
        <time>2022-02-28T14:52:30Z</time>
      </trkpt>
      <trkpt lat="46.51974" lon="5.67015">
        <ele>468.2</ele>
        <time>2022-02-28T14:52:31Z</time>
      </trkpt>
      <trkpt lat="46.51974" lon="5.67011">
        <ele>468.4</ele>
        <time>2022-02-28T14:52:32Z</time>
      </trkpt>
      <trkpt lat="46.51975" lon="5.67006">
        <ele>468.4</ele>
        <time>2022-02-28T14:52:33Z</time>
      </trkpt>
      <trkpt lat="46.51975" lon="5.67001">
        <ele>468.4</ele>
        <time>2022-02-28T14:52:34Z</time>
      </trkpt>
      <trkpt lat="46.51976" lon="5.66997">
        <ele>468.8</ele>
        <time>2022-02-28T14:52:35Z</time>
      </trkpt>
      <trkpt lat="46.51977" lon="5.66992">
        <ele>468.8</ele>
        <time>2022-02-28T14:52:36Z</time>
      </trkpt>
      <trkpt lat="46.51978" lon="5.66987">
        <ele>469.2</ele>
        <time>2022-02-28T14:52:37Z</time>
      </trkpt>
      <trkpt lat="46.51979" lon="5.66983">
        <ele>469.2</ele>
        <time>2022-02-28T14:52:38Z</time>
      </trkpt>
      <trkpt lat="46.51979" lon="5.66979">
        <ele>469.6</ele>
        <time>2022-02-28T14:52:39Z</time>
      </trkpt>
      <trkpt lat="46.5198" lon="5.66974">
        <ele>469.6</ele>
        <time>2022-02-28T14:52:40Z</time>
      </trkpt>
      <trkpt lat="46.51981" lon="5.6697">
        <ele>469.8</ele>
        <time>2022-02-28T14:52:41Z</time>
      </trkpt>
      <trkpt lat="46.51982" lon="5.66965">
        <ele>469.8</ele>
        <time>2022-02-28T14:52:42Z</time>
      </trkpt>
      <trkpt lat="46.51983" lon="5.66961">
        <ele>470.2</ele>
        <time>2022-02-28T14:52:43Z</time>
      </trkpt>
      <trkpt lat="46.51984" lon="5.66957">
        <ele>470.2</ele>
        <time>2022-02-28T14:52:44Z</time>
      </trkpt>
      <trkpt lat="46.51985" lon="5.66953">
        <ele>470.6</ele>
        <time>2022-02-28T14:52:45Z</time>
      </trkpt>
      <trkpt lat="46.51986" lon="5.66948">
        <ele>470.8</ele>
        <time>2022-02-28T14:52:46Z</time>
      </trkpt>
      <trkpt lat="46.51987" lon="5.66944">
        <ele>470.8</ele>
        <time>2022-02-28T14:52:47Z</time>
      </trkpt>
      <trkpt lat="46.51988" lon="5.6694">
        <ele>471.2</ele>
        <time>2022-02-28T14:52:48Z</time>
      </trkpt>
      <trkpt lat="46.5199" lon="5.66936">
        <ele>471.2</ele>
        <time>2022-02-28T14:52:49Z</time>
      </trkpt>
      <trkpt lat="46.51991" lon="5.66932">
        <ele>471.8</ele>
        <time>2022-02-28T14:52:50Z</time>
      </trkpt>
      <trkpt lat="46.51992" lon="5.66928">
        <ele>471.8</ele>
        <time>2022-02-28T14:52:51Z</time>
      </trkpt>
      <trkpt lat="46.51993" lon="5.66924">
        <ele>471.8</ele>
        <time>2022-02-28T14:52:52Z</time>
      </trkpt>
      <trkpt lat="46.51994" lon="5.66919">
        <ele>472</ele>
        <time>2022-02-28T14:52:53Z</time>
      </trkpt>
      <trkpt lat="46.51996" lon="5.66915">
        <ele>472</ele>
        <time>2022-02-28T14:52:54Z</time>
      </trkpt>
      <trkpt lat="46.51997" lon="5.66911">
        <ele>472</ele>
        <time>2022-02-28T14:52:55Z</time>
      </trkpt>
      <trkpt lat="46.51999" lon="5.66906">
        <ele>472.2</ele>
        <time>2022-02-28T14:52:56Z</time>
      </trkpt>
      <trkpt lat="46.52" lon="5.66902">
        <ele>472.2</ele>
        <time>2022-02-28T14:52:57Z</time>
      </trkpt>
      <trkpt lat="46.52001" lon="5.66897">
        <ele>472.2</ele>
        <time>2022-02-28T14:52:58Z</time>
      </trkpt>
      <trkpt lat="46.52003" lon="5.66893">
        <ele>472.6</ele>
        <time>2022-02-28T14:52:59Z</time>
      </trkpt>
      <trkpt lat="46.52004" lon="5.66888">
        <ele>472.6</ele>
        <time>2022-02-28T14:53:00Z</time>
      </trkpt>
      <trkpt lat="46.52005" lon="5.66884">
        <ele>472.6</ele>
        <time>2022-02-28T14:53:01Z</time>
      </trkpt>
      <trkpt lat="46.52006" lon="5.66879">
        <ele>472.8</ele>
        <time>2022-02-28T14:53:02Z</time>
      </trkpt>
      <trkpt lat="46.52007" lon="5.66875">
        <ele>472.8</ele>
        <time>2022-02-28T14:53:03Z</time>
      </trkpt>
      <trkpt lat="46.52009" lon="5.66869">
        <ele>472.8</ele>
        <time>2022-02-28T14:53:04Z</time>
      </trkpt>
      <trkpt lat="46.52011" lon="5.66865">
        <ele>473.2</ele>
        <time>2022-02-28T14:53:05Z</time>
      </trkpt>
      <trkpt lat="46.52012" lon="5.6686">
        <ele>473.2</ele>
        <time>2022-02-28T14:53:06Z</time>
      </trkpt>
      <trkpt lat="46.52014" lon="5.66854">
        <ele>473.2</ele>
        <time>2022-02-28T14:53:07Z</time>
      </trkpt>
      <trkpt lat="46.52015" lon="5.66849">
        <ele>473.2</ele>
        <time>2022-02-28T14:53:08Z</time>
      </trkpt>
      <trkpt lat="46.52018" lon="5.66845">
        <ele>473.4</ele>
        <time>2022-02-28T14:53:09Z</time>
      </trkpt>
      <trkpt lat="46.5202" lon="5.6684">
        <ele>473.4</ele>
        <time>2022-02-28T14:53:10Z</time>
      </trkpt>
      <trkpt lat="46.52022" lon="5.66835">
        <ele>473.4</ele>
        <time>2022-02-28T14:53:11Z</time>
      </trkpt>
      <trkpt lat="46.52024" lon="5.6683">
        <ele>473.4</ele>
        <time>2022-02-28T14:53:12Z</time>
      </trkpt>
      <trkpt lat="46.52026" lon="5.66826">
        <ele>473.4</ele>
        <time>2022-02-28T14:53:13Z</time>
      </trkpt>
      <trkpt lat="46.52028" lon="5.66821">
        <ele>473.4</ele>
        <time>2022-02-28T14:53:14Z</time>
      </trkpt>
      <trkpt lat="46.52031" lon="5.66817">
        <ele>473.6</ele>
        <time>2022-02-28T14:53:15Z</time>
      </trkpt>
      <trkpt lat="46.52033" lon="5.66812">
        <ele>473.6</ele>
        <time>2022-02-28T14:53:16Z</time>
      </trkpt>
      <trkpt lat="46.52035" lon="5.66808">
        <ele>473.6</ele>
        <time>2022-02-28T14:53:17Z</time>
      </trkpt>
      <trkpt lat="46.52038" lon="5.66803">
        <ele>473.6</ele>
        <time>2022-02-28T14:53:18Z</time>
      </trkpt>
      <trkpt lat="46.5204" lon="5.66799">
        <ele>473.6</ele>
        <time>2022-02-28T14:53:19Z</time>
      </trkpt>
      <trkpt lat="46.52043" lon="5.66794">
        <ele>473.4</ele>
        <time>2022-02-28T14:53:20Z</time>
      </trkpt>
      <trkpt lat="46.52046" lon="5.6679">
        <ele>473.4</ele>
        <time>2022-02-28T14:53:21Z</time>
      </trkpt>
      <trkpt lat="46.52049" lon="5.66785">
        <ele>473.2</ele>
        <time>2022-02-28T14:53:22Z</time>
      </trkpt>
      <trkpt lat="46.52053" lon="5.66781">
        <ele>473.2</ele>
        <time>2022-02-28T14:53:23Z</time>
      </trkpt>
      <trkpt lat="46.52057" lon="5.66776">
        <ele>473</ele>
        <time>2022-02-28T14:53:24Z</time>
      </trkpt>
      <trkpt lat="46.52061" lon="5.66772">
        <ele>473</ele>
        <time>2022-02-28T14:53:25Z</time>
      </trkpt>
      <trkpt lat="46.52065" lon="5.66767">
        <ele>472.6</ele>
        <time>2022-02-28T14:53:26Z</time>
      </trkpt>
      <trkpt lat="46.52069" lon="5.66762">
        <ele>472.4</ele>
        <time>2022-02-28T14:53:27Z</time>
      </trkpt>
      <trkpt lat="46.52073" lon="5.66757">
        <ele>472</ele>
        <time>2022-02-28T14:53:28Z</time>
      </trkpt>
      <trkpt lat="46.52077" lon="5.66752">
        <ele>472.6</ele>
        <time>2022-02-28T14:53:29Z</time>
      </trkpt>
      <trkpt lat="46.52081" lon="5.66748">
        <ele>471.8</ele>
        <time>2022-02-28T14:53:30Z</time>
      </trkpt>
      <trkpt lat="46.52086" lon="5.66743">
        <ele>471.4</ele>
        <time>2022-02-28T14:53:31Z</time>
      </trkpt>
      <trkpt lat="46.52092" lon="5.66737">
        <ele>471.4</ele>
        <time>2022-02-28T14:53:32Z</time>
      </trkpt>
      <trkpt lat="46.52097" lon="5.66732">
        <ele>471.4</ele>
        <time>2022-02-28T14:53:33Z</time>
      </trkpt>
      <trkpt lat="46.52102" lon="5.66726">
        <ele>470.8</ele>
        <time>2022-02-28T14:53:34Z</time>
      </trkpt>
      <trkpt lat="46.52107" lon="5.6672">
        <ele>470.6</ele>
        <time>2022-02-28T14:53:35Z</time>
      </trkpt>
      <trkpt lat="46.52113" lon="5.66714">
        <ele>470.2</ele>
        <time>2022-02-28T14:53:36Z</time>
      </trkpt>
      <trkpt lat="46.52119" lon="5.66707">
        <ele>470</ele>
        <time>2022-02-28T14:53:37Z</time>
      </trkpt>
      <trkpt lat="46.52125" lon="5.66701">
        <ele>469.6</ele>
        <time>2022-02-28T14:53:38Z</time>
      </trkpt>
      <trkpt lat="46.52131" lon="5.66694">
        <ele>469.4</ele>
        <time>2022-02-28T14:53:39Z</time>
      </trkpt>
      <trkpt lat="46.52136" lon="5.66686">
        <ele>469.2</ele>
        <time>2022-02-28T14:53:40Z</time>
      </trkpt>
      <trkpt lat="46.52142" lon="5.6668">
        <ele>469</ele>
        <time>2022-02-28T14:53:41Z</time>
      </trkpt>
      <trkpt lat="46.52148" lon="5.66673">
        <ele>468.6</ele>
        <time>2022-02-28T14:53:42Z</time>
      </trkpt>
      <trkpt lat="46.52154" lon="5.66666">
        <ele>468.4</ele>
        <time>2022-02-28T14:53:43Z</time>
      </trkpt>
      <trkpt lat="46.5216" lon="5.66659">
        <ele>468.2</ele>
        <time>2022-02-28T14:53:44Z</time>
      </trkpt>
      <trkpt lat="46.52165" lon="5.66652">
        <ele>468.2</ele>
        <time>2022-02-28T14:53:45Z</time>
      </trkpt>
      <trkpt lat="46.52171" lon="5.66644">
        <ele>467.8</ele>
        <time>2022-02-28T14:53:46Z</time>
      </trkpt>
      <trkpt lat="46.52177" lon="5.66637">
        <ele>467.8</ele>
        <time>2022-02-28T14:53:47Z</time>
      </trkpt>
      <trkpt lat="46.52182" lon="5.66631">
        <ele>467.6</ele>
        <time>2022-02-28T14:53:48Z</time>
      </trkpt>
      <trkpt lat="46.52188" lon="5.66624">
        <ele>467.6</ele>
        <time>2022-02-28T14:53:49Z</time>
      </trkpt>
      <trkpt lat="46.52193" lon="5.66618">
        <ele>467.6</ele>
        <time>2022-02-28T14:53:50Z</time>
      </trkpt>
      <trkpt lat="46.52197" lon="5.66611">
        <ele>467.6</ele>
        <time>2022-02-28T14:53:51Z</time>
      </trkpt>
      <trkpt lat="46.52202" lon="5.66605">
        <ele>467.6</ele>
        <time>2022-02-28T14:53:52Z</time>
      </trkpt>
      <trkpt lat="46.52207" lon="5.666">
        <ele>467.6</ele>
        <time>2022-02-28T14:53:53Z</time>
      </trkpt>
      <trkpt lat="46.52211" lon="5.66594">
        <ele>467.6</ele>
        <time>2022-02-28T14:53:54Z</time>
      </trkpt>
      <trkpt lat="46.52215" lon="5.66589">
        <ele>467.6</ele>
        <time>2022-02-28T14:53:55Z</time>
      </trkpt>
      <trkpt lat="46.52219" lon="5.66584">
        <ele>467.8</ele>
        <time>2022-02-28T14:53:56Z</time>
      </trkpt>
      <trkpt lat="46.52223" lon="5.66579">
        <ele>467.8</ele>
        <time>2022-02-28T14:53:57Z</time>
      </trkpt>
      <trkpt lat="46.52227" lon="5.66574">
        <ele>467.8</ele>
        <time>2022-02-28T14:53:58Z</time>
      </trkpt>
      <trkpt lat="46.52231" lon="5.66569">
        <ele>468</ele>
        <time>2022-02-28T14:53:59Z</time>
      </trkpt>
      <trkpt lat="46.52235" lon="5.66564">
        <ele>468</ele>
        <time>2022-02-28T14:54:00Z</time>
      </trkpt>
      <trkpt lat="46.52238" lon="5.6656">
        <ele>468.4</ele>
        <time>2022-02-28T14:54:01Z</time>
      </trkpt>
      <trkpt lat="46.52241" lon="5.66556">
        <ele>468.6</ele>
        <time>2022-02-28T14:54:02Z</time>
      </trkpt>
      <trkpt lat="46.52245" lon="5.66552">
        <ele>468.6</ele>
        <time>2022-02-28T14:54:03Z</time>
      </trkpt>
      <trkpt lat="46.52248" lon="5.66548">
        <ele>469</ele>
        <time>2022-02-28T14:54:04Z</time>
      </trkpt>
      <trkpt lat="46.52251" lon="5.66544">
        <ele>469.4</ele>
        <time>2022-02-28T14:54:05Z</time>
      </trkpt>
      <trkpt lat="46.52254" lon="5.6654">
        <ele>469.4</ele>
        <time>2022-02-28T14:54:06Z</time>
      </trkpt>
      <trkpt lat="46.52257" lon="5.66536">
        <ele>469.6</ele>
        <time>2022-02-28T14:54:07Z</time>
      </trkpt>
      <trkpt lat="46.5226" lon="5.66532">
        <ele>469.8</ele>
        <time>2022-02-28T14:54:08Z</time>
      </trkpt>
      <trkpt lat="46.52262" lon="5.66529">
        <ele>469.8</ele>
        <time>2022-02-28T14:54:09Z</time>
      </trkpt>
      <trkpt lat="46.52265" lon="5.66525">
        <ele>470.2</ele>
        <time>2022-02-28T14:54:10Z</time>
      </trkpt>
      <trkpt lat="46.52267" lon="5.6652">
        <ele>470.4</ele>
        <time>2022-02-28T14:54:11Z</time>
      </trkpt>
      <trkpt lat="46.5227" lon="5.66517">
        <ele>470.8</ele>
        <time>2022-02-28T14:54:12Z</time>
      </trkpt>
      <trkpt lat="46.52272" lon="5.66513">
        <ele>471.2</ele>
        <time>2022-02-28T14:54:13Z</time>
      </trkpt>
      <trkpt lat="46.52275" lon="5.6651">
        <ele>471.4</ele>
        <time>2022-02-28T14:54:14Z</time>
      </trkpt>
      <trkpt lat="46.52278" lon="5.66506">
        <ele>471.8</ele>
        <time>2022-02-28T14:54:15Z</time>
      </trkpt>
      <trkpt lat="46.5228" lon="5.66503">
        <ele>472</ele>
        <time>2022-02-28T14:54:16Z</time>
      </trkpt>
      <trkpt lat="46.52282" lon="5.665">
        <ele>472.4</ele>
        <time>2022-02-28T14:54:17Z</time>
      </trkpt>
      <trkpt lat="46.52285" lon="5.66497">
        <ele>472.8</ele>
        <time>2022-02-28T14:54:18Z</time>
      </trkpt>
      <trkpt lat="46.52288" lon="5.66494">
        <ele>473</ele>
        <time>2022-02-28T14:54:19Z</time>
      </trkpt>
      <trkpt lat="46.5229" lon="5.6649">
        <ele>473.4</ele>
        <time>2022-02-28T14:54:20Z</time>
      </trkpt>
      <trkpt lat="46.52293" lon="5.66487">
        <ele>473.6</ele>
        <time>2022-02-28T14:54:21Z</time>
      </trkpt>
      <trkpt lat="46.52295" lon="5.66483">
        <ele>473.8</ele>
        <time>2022-02-28T14:54:22Z</time>
      </trkpt>
      <trkpt lat="46.52298" lon="5.6648">
        <ele>474.2</ele>
        <time>2022-02-28T14:54:23Z</time>
      </trkpt>
      <trkpt lat="46.523" lon="5.66477">
        <ele>474.4</ele>
        <time>2022-02-28T14:54:24Z</time>
      </trkpt>
      <trkpt lat="46.52303" lon="5.66474">
        <ele>474.8</ele>
        <time>2022-02-28T14:54:25Z</time>
      </trkpt>
      <trkpt lat="46.52305" lon="5.6647">
        <ele>475</ele>
        <time>2022-02-28T14:54:26Z</time>
      </trkpt>
      <trkpt lat="46.52307" lon="5.66467">
        <ele>475.4</ele>
        <time>2022-02-28T14:54:27Z</time>
      </trkpt>
      <trkpt lat="46.5231" lon="5.66464">
        <ele>475.6</ele>
        <time>2022-02-28T14:54:28Z</time>
      </trkpt>
      <trkpt lat="46.52312" lon="5.66461">
        <ele>476.2</ele>
        <time>2022-02-28T14:54:29Z</time>
      </trkpt>
      <trkpt lat="46.52315" lon="5.66458">
        <ele>476.4</ele>
        <time>2022-02-28T14:54:30Z</time>
      </trkpt>
      <trkpt lat="46.52317" lon="5.66455">
        <ele>476.6</ele>
        <time>2022-02-28T14:54:31Z</time>
      </trkpt>
      <trkpt lat="46.5232" lon="5.66452">
        <ele>477.2</ele>
        <time>2022-02-28T14:54:32Z</time>
      </trkpt>
      <trkpt lat="46.52322" lon="5.66449">
        <ele>477.4</ele>
        <time>2022-02-28T14:54:33Z</time>
      </trkpt>
      <trkpt lat="46.52324" lon="5.66446">
        <ele>477.6</ele>
        <time>2022-02-28T14:54:34Z</time>
      </trkpt>
      <trkpt lat="46.52326" lon="5.66443">
        <ele>477.8</ele>
        <time>2022-02-28T14:54:35Z</time>
      </trkpt>
      <trkpt lat="46.52328" lon="5.6644">
        <ele>478</ele>
        <time>2022-02-28T14:54:36Z</time>
      </trkpt>
      <trkpt lat="46.52331" lon="5.66437">
        <ele>478.4</ele>
        <time>2022-02-28T14:54:37Z</time>
      </trkpt>
      <trkpt lat="46.52333" lon="5.66434">
        <ele>478.4</ele>
        <time>2022-02-28T14:54:38Z</time>
      </trkpt>
      <trkpt lat="46.52335" lon="5.66431">
        <ele>478.8</ele>
        <time>2022-02-28T14:54:39Z</time>
      </trkpt>
      <trkpt lat="46.52337" lon="5.66428">
        <ele>478.8</ele>
        <time>2022-02-28T14:54:40Z</time>
      </trkpt>
      <trkpt lat="46.52339" lon="5.66425">
        <ele>479</ele>
        <time>2022-02-28T14:54:41Z</time>
      </trkpt>
      <trkpt lat="46.52341" lon="5.66422">
        <ele>479</ele>
        <time>2022-02-28T14:54:42Z</time>
      </trkpt>
      <trkpt lat="46.52345" lon="5.66415">
        <ele>479.4</ele>
        <time>2022-02-28T14:54:43Z</time>
      </trkpt>
      <trkpt lat="46.52347" lon="5.66412">
        <ele>479.4</ele>
        <time>2022-02-28T14:54:44Z</time>
      </trkpt>
      <trkpt lat="46.52349" lon="5.66409">
        <ele>479.8</ele>
        <time>2022-02-28T14:54:45Z</time>
      </trkpt>
      <trkpt lat="46.52351" lon="5.66406">
        <ele>480</ele>
        <time>2022-02-28T14:54:46Z</time>
      </trkpt>
      <trkpt lat="46.52353" lon="5.66403">
        <ele>480.2</ele>
        <time>2022-02-28T14:54:47Z</time>
      </trkpt>
      <trkpt lat="46.52355" lon="5.664">
        <ele>480.2</ele>
        <time>2022-02-28T14:54:48Z</time>
      </trkpt>
      <trkpt lat="46.52357" lon="5.66397">
        <ele>480.6</ele>
        <time>2022-02-28T14:54:49Z</time>
      </trkpt>
      <trkpt lat="46.52359" lon="5.66393">
        <ele>480.8</ele>
        <time>2022-02-28T14:54:50Z</time>
      </trkpt>
      <trkpt lat="46.52362" lon="5.6639">
        <ele>481</ele>
        <time>2022-02-28T14:54:51Z</time>
      </trkpt>
      <trkpt lat="46.52364" lon="5.66386">
        <ele>481</ele>
        <time>2022-02-28T14:54:52Z</time>
      </trkpt>
      <trkpt lat="46.52366" lon="5.66383">
        <ele>481.2</ele>
        <time>2022-02-28T14:54:53Z</time>
      </trkpt>
      <trkpt lat="46.52369" lon="5.6638">
        <ele>481.2</ele>
        <time>2022-02-28T14:54:54Z</time>
      </trkpt>
      <trkpt lat="46.52371" lon="5.66377">
        <ele>481.6</ele>
        <time>2022-02-28T14:54:55Z</time>
      </trkpt>
      <trkpt lat="46.52374" lon="5.66374">
        <ele>481.8</ele>
        <time>2022-02-28T14:54:56Z</time>
      </trkpt>
      <trkpt lat="46.52377" lon="5.66372">
        <ele>481.8</ele>
        <time>2022-02-28T14:54:57Z</time>
      </trkpt>
      <trkpt lat="46.5238" lon="5.6637">
        <ele>481.8</ele>
        <time>2022-02-28T14:54:58Z</time>
      </trkpt>
      <trkpt lat="46.52383" lon="5.66368">
        <ele>481.8</ele>
        <time>2022-02-28T14:54:59Z</time>
      </trkpt>
      <trkpt lat="46.52386" lon="5.66367">
        <ele>482.2</ele>
        <time>2022-02-28T14:55:00Z</time>
      </trkpt>
      <trkpt lat="46.52389" lon="5.66367">
        <ele>482.2</ele>
        <time>2022-02-28T14:55:01Z</time>
      </trkpt>
      <trkpt lat="46.52391" lon="5.66366">
        <ele>482.4</ele>
        <time>2022-02-28T14:55:02Z</time>
      </trkpt>
      <trkpt lat="46.52391" lon="5.66366">
        <ele>482.4</ele>
        <time>2022-02-28T14:55:03Z</time>
      </trkpt>
      <trkpt lat="46.52394" lon="5.66366">
        <ele>482.6</ele>
        <time>2022-02-28T14:55:04Z</time>
      </trkpt>
      <trkpt lat="46.52397" lon="5.66366">
        <ele>482.6</ele>
        <time>2022-02-28T14:55:05Z</time>
      </trkpt>
      <trkpt lat="46.52399" lon="5.66366">
        <ele>483</ele>
        <time>2022-02-28T14:55:06Z</time>
      </trkpt>
      <trkpt lat="46.52402" lon="5.66366">
        <ele>483</ele>
        <time>2022-02-28T14:55:07Z</time>
      </trkpt>
      <trkpt lat="46.52404" lon="5.66367">
        <ele>483.4</ele>
        <time>2022-02-28T14:55:08Z</time>
      </trkpt>
      <trkpt lat="46.52407" lon="5.66368">
        <ele>483.6</ele>
        <time>2022-02-28T14:55:09Z</time>
      </trkpt>
      <trkpt lat="46.52409" lon="5.66369">
        <ele>483.6</ele>
        <time>2022-02-28T14:55:10Z</time>
      </trkpt>
      <trkpt lat="46.52412" lon="5.6637">
        <ele>483.8</ele>
        <time>2022-02-28T14:55:11Z</time>
      </trkpt>
      <trkpt lat="46.52414" lon="5.66371">
        <ele>484</ele>
        <time>2022-02-28T14:55:12Z</time>
      </trkpt>
      <trkpt lat="46.52417" lon="5.6637">
        <ele>484.4</ele>
        <time>2022-02-28T14:55:13Z</time>
      </trkpt>
      <trkpt lat="46.52419" lon="5.6637">
        <ele>484.6</ele>
        <time>2022-02-28T14:55:14Z</time>
      </trkpt>
      <trkpt lat="46.52422" lon="5.66371">
        <ele>484.8</ele>
        <time>2022-02-28T14:55:15Z</time>
      </trkpt>
      <trkpt lat="46.52424" lon="5.66372">
        <ele>485</ele>
        <time>2022-02-28T14:55:16Z</time>
      </trkpt>
      <trkpt lat="46.52426" lon="5.66373">
        <ele>485.4</ele>
        <time>2022-02-28T14:55:17Z</time>
      </trkpt>
      <trkpt lat="46.52429" lon="5.66373">
        <ele>485.6</ele>
        <time>2022-02-28T14:55:18Z</time>
      </trkpt>
      <trkpt lat="46.52431" lon="5.66374">
        <ele>485.8</ele>
        <time>2022-02-28T14:55:19Z</time>
      </trkpt>
      <trkpt lat="46.52434" lon="5.66374">
        <ele>486.2</ele>
        <time>2022-02-28T14:55:20Z</time>
      </trkpt>
      <trkpt lat="46.52436" lon="5.66375">
        <ele>486.2</ele>
        <time>2022-02-28T14:55:21Z</time>
      </trkpt>
      <trkpt lat="46.52438" lon="5.66375">
        <ele>486.4</ele>
        <time>2022-02-28T14:55:22Z</time>
      </trkpt>
      <trkpt lat="46.52441" lon="5.66375">
        <ele>486.4</ele>
        <time>2022-02-28T14:55:23Z</time>
      </trkpt>
      <trkpt lat="46.52443" lon="5.66375">
        <ele>486.8</ele>
        <time>2022-02-28T14:55:24Z</time>
      </trkpt>
      <trkpt lat="46.52446" lon="5.66376">
        <ele>487.2</ele>
        <time>2022-02-28T14:55:25Z</time>
      </trkpt>
      <trkpt lat="46.52448" lon="5.66376">
        <ele>487.2</ele>
        <time>2022-02-28T14:55:26Z</time>
      </trkpt>
      <trkpt lat="46.52451" lon="5.66377">
        <ele>487.6</ele>
        <time>2022-02-28T14:55:27Z</time>
      </trkpt>
      <trkpt lat="46.52453" lon="5.66378">
        <ele>487.6</ele>
        <time>2022-02-28T14:55:28Z</time>
      </trkpt>
      <trkpt lat="46.52456" lon="5.66379">
        <ele>487.8</ele>
        <time>2022-02-28T14:55:29Z</time>
      </trkpt>
      <trkpt lat="46.52459" lon="5.66379">
        <ele>487.8</ele>
        <time>2022-02-28T14:55:30Z</time>
      </trkpt>
      <trkpt lat="46.52462" lon="5.6638">
        <ele>488</ele>
        <time>2022-02-28T14:55:31Z</time>
      </trkpt>
      <trkpt lat="46.52465" lon="5.66381">
        <ele>488</ele>
        <time>2022-02-28T14:55:32Z</time>
      </trkpt>
      <trkpt lat="46.52468" lon="5.66382">
        <ele>488</ele>
        <time>2022-02-28T14:55:33Z</time>
      </trkpt>
      <trkpt lat="46.52471" lon="5.66382">
        <ele>488</ele>
        <time>2022-02-28T14:55:34Z</time>
      </trkpt>
      <trkpt lat="46.52474" lon="5.66383">
        <ele>488</ele>
        <time>2022-02-28T14:55:35Z</time>
      </trkpt>
      <trkpt lat="46.52477" lon="5.66383">
        <ele>488</ele>
        <time>2022-02-28T14:55:36Z</time>
      </trkpt>
      <trkpt lat="46.5248" lon="5.66384">
        <ele>488</ele>
        <time>2022-02-28T14:55:37Z</time>
      </trkpt>
      <trkpt lat="46.52483" lon="5.66385">
        <ele>488</ele>
        <time>2022-02-28T14:55:38Z</time>
      </trkpt>
      <trkpt lat="46.52487" lon="5.66385">
        <ele>488</ele>
        <time>2022-02-28T14:55:39Z</time>
      </trkpt>
      <trkpt lat="46.5249" lon="5.66386">
        <ele>488.2</ele>
        <time>2022-02-28T14:55:40Z</time>
      </trkpt>
      <trkpt lat="46.52493" lon="5.66386">
        <ele>488.2</ele>
        <time>2022-02-28T14:55:41Z</time>
      </trkpt>
      <trkpt lat="46.52497" lon="5.66386">
        <ele>488.2</ele>
        <time>2022-02-28T14:55:42Z</time>
      </trkpt>
      <trkpt lat="46.525" lon="5.66387">
        <ele>488.2</ele>
        <time>2022-02-28T14:55:43Z</time>
      </trkpt>
      <trkpt lat="46.52504" lon="5.66387">
        <ele>488.2</ele>
        <time>2022-02-28T14:55:44Z</time>
      </trkpt>
      <trkpt lat="46.52507" lon="5.66387">
        <ele>488.4</ele>
        <time>2022-02-28T14:55:45Z</time>
      </trkpt>
      <trkpt lat="46.52511" lon="5.66388">
        <ele>488.4</ele>
        <time>2022-02-28T14:55:46Z</time>
      </trkpt>
      <trkpt lat="46.52515" lon="5.66388">
        <ele>488.4</ele>
        <time>2022-02-28T14:55:47Z</time>
      </trkpt>
      <trkpt lat="46.52519" lon="5.66389">
        <ele>488.4</ele>
        <time>2022-02-28T14:55:48Z</time>
      </trkpt>
      <trkpt lat="46.52523" lon="5.66389">
        <ele>488.4</ele>
        <time>2022-02-28T14:55:49Z</time>
      </trkpt>
      <trkpt lat="46.52527" lon="5.6639">
        <ele>488.6</ele>
        <time>2022-02-28T14:55:50Z</time>
      </trkpt>
      <trkpt lat="46.52531" lon="5.66391">
        <ele>488.6</ele>
        <time>2022-02-28T14:55:51Z</time>
      </trkpt>
      <trkpt lat="46.52535" lon="5.66391">
        <ele>488.6</ele>
        <time>2022-02-28T14:55:52Z</time>
      </trkpt>
      <trkpt lat="46.52539" lon="5.66392">
        <ele>488.6</ele>
        <time>2022-02-28T14:55:53Z</time>
      </trkpt>
      <trkpt lat="46.52543" lon="5.66392">
        <ele>488.6</ele>
        <time>2022-02-28T14:55:54Z</time>
      </trkpt>
      <trkpt lat="46.52547" lon="5.66393">
        <ele>488.6</ele>
        <time>2022-02-28T14:55:55Z</time>
      </trkpt>
      <trkpt lat="46.52551" lon="5.66393">
        <ele>488.6</ele>
        <time>2022-02-28T14:55:56Z</time>
      </trkpt>
      <trkpt lat="46.52555" lon="5.66393">
        <ele>488.6</ele>
        <time>2022-02-28T14:55:57Z</time>
      </trkpt>
      <trkpt lat="46.52559" lon="5.66394">
        <ele>488.6</ele>
        <time>2022-02-28T14:55:58Z</time>
      </trkpt>
      <trkpt lat="46.52563" lon="5.66394">
        <ele>488.6</ele>
        <time>2022-02-28T14:55:59Z</time>
      </trkpt>
      <trkpt lat="46.52567" lon="5.66395">
        <ele>488.6</ele>
        <time>2022-02-28T14:56:00Z</time>
      </trkpt>
      <trkpt lat="46.52571" lon="5.66395">
        <ele>488.6</ele>
        <time>2022-02-28T14:56:01Z</time>
      </trkpt>
      <trkpt lat="46.52575" lon="5.66396">
        <ele>488.6</ele>
        <time>2022-02-28T14:56:02Z</time>
      </trkpt>
      <trkpt lat="46.52579" lon="5.66397">
        <ele>488.6</ele>
        <time>2022-02-28T14:56:03Z</time>
      </trkpt>
      <trkpt lat="46.52583" lon="5.66399">
        <ele>488.6</ele>
        <time>2022-02-28T14:56:04Z</time>
      </trkpt>
      <trkpt lat="46.52587" lon="5.66402">
        <ele>488.6</ele>
        <time>2022-02-28T14:56:05Z</time>
      </trkpt>
      <trkpt lat="46.5259" lon="5.66406">
        <ele>489</ele>
        <time>2022-02-28T14:56:06Z</time>
      </trkpt>
      <trkpt lat="46.52595" lon="5.6641">
        <ele>489</ele>
        <time>2022-02-28T14:56:07Z</time>
      </trkpt>
      <trkpt lat="46.52597" lon="5.66412">
        <ele>489</ele>
        <time>2022-02-28T14:56:08Z</time>
      </trkpt>
      <trkpt lat="46.52601" lon="5.66412">
        <ele>489.2</ele>
        <time>2022-02-28T14:56:09Z</time>
      </trkpt>
      <trkpt lat="46.52605" lon="5.66412">
        <ele>489.2</ele>
        <time>2022-02-28T14:56:10Z</time>
      </trkpt>
      <trkpt lat="46.5261" lon="5.66411">
        <ele>489.2</ele>
        <time>2022-02-28T14:56:11Z</time>
      </trkpt>
      <trkpt lat="46.52614" lon="5.6641">
        <ele>489.2</ele>
        <time>2022-02-28T14:56:12Z</time>
      </trkpt>
      <trkpt lat="46.52619" lon="5.66409">
        <ele>489.2</ele>
        <time>2022-02-28T14:56:13Z</time>
      </trkpt>
      <trkpt lat="46.52623" lon="5.66408">
        <ele>489.2</ele>
        <time>2022-02-28T14:56:14Z</time>
      </trkpt>
      <trkpt lat="46.52627" lon="5.66408">
        <ele>489.2</ele>
        <time>2022-02-28T14:56:15Z</time>
      </trkpt>
      <trkpt lat="46.52632" lon="5.66407">
        <ele>489.4</ele>
        <time>2022-02-28T14:56:16Z</time>
      </trkpt>
      <trkpt lat="46.52636" lon="5.66406">
        <ele>489.4</ele>
        <time>2022-02-28T14:56:17Z</time>
      </trkpt>
      <trkpt lat="46.52639" lon="5.66406">
        <ele>489.4</ele>
        <time>2022-02-28T14:56:18Z</time>
      </trkpt>
      <trkpt lat="46.52643" lon="5.66404">
        <ele>489.4</ele>
        <time>2022-02-28T14:56:19Z</time>
      </trkpt>
      <trkpt lat="46.52648" lon="5.66403">
        <ele>489.6</ele>
        <time>2022-02-28T14:56:20Z</time>
      </trkpt>
      <trkpt lat="46.52652" lon="5.66402">
        <ele>489.6</ele>
        <time>2022-02-28T14:56:21Z</time>
      </trkpt>
      <trkpt lat="46.52657" lon="5.664">
        <ele>489.6</ele>
        <time>2022-02-28T14:56:22Z</time>
      </trkpt>
      <trkpt lat="46.52661" lon="5.66398">
        <ele>489.6</ele>
        <time>2022-02-28T14:56:23Z</time>
      </trkpt>
      <trkpt lat="46.52665" lon="5.66396">
        <ele>489.6</ele>
        <time>2022-02-28T14:56:24Z</time>
      </trkpt>
      <trkpt lat="46.5267" lon="5.66393">
        <ele>489.6</ele>
        <time>2022-02-28T14:56:25Z</time>
      </trkpt>
      <trkpt lat="46.52674" lon="5.66391">
        <ele>489.4</ele>
        <time>2022-02-28T14:56:26Z</time>
      </trkpt>
      <trkpt lat="46.52679" lon="5.66389">
        <ele>489.4</ele>
        <time>2022-02-28T14:56:27Z</time>
      </trkpt>
      <trkpt lat="46.52684" lon="5.66386">
        <ele>489.2</ele>
        <time>2022-02-28T14:56:28Z</time>
      </trkpt>
      <trkpt lat="46.52688" lon="5.66384">
        <ele>489.2</ele>
        <time>2022-02-28T14:56:29Z</time>
      </trkpt>
      <trkpt lat="46.52693" lon="5.66382">
        <ele>489.2</ele>
        <time>2022-02-28T14:56:30Z</time>
      </trkpt>
      <trkpt lat="46.52699" lon="5.6638">
        <ele>489.2</ele>
        <time>2022-02-28T14:56:31Z</time>
      </trkpt>
      <trkpt lat="46.52704" lon="5.66378">
        <ele>489.2</ele>
        <time>2022-02-28T14:56:32Z</time>
      </trkpt>
      <trkpt lat="46.52708" lon="5.66376">
        <ele>489.2</ele>
        <time>2022-02-28T14:56:33Z</time>
      </trkpt>
      <trkpt lat="46.52713" lon="5.66374">
        <ele>489.2</ele>
        <time>2022-02-28T14:56:34Z</time>
      </trkpt>
      <trkpt lat="46.52718" lon="5.66372">
        <ele>489.2</ele>
        <time>2022-02-28T14:56:35Z</time>
      </trkpt>
      <trkpt lat="46.52722" lon="5.6637">
        <ele>489.2</ele>
        <time>2022-02-28T14:56:36Z</time>
      </trkpt>
      <trkpt lat="46.52726" lon="5.66368">
        <ele>489.2</ele>
        <time>2022-02-28T14:56:37Z</time>
      </trkpt>
      <trkpt lat="46.5273" lon="5.66367">
        <ele>489.4</ele>
        <time>2022-02-28T14:56:38Z</time>
      </trkpt>
      <trkpt lat="46.52734" lon="5.66365">
        <ele>489.4</ele>
        <time>2022-02-28T14:56:39Z</time>
      </trkpt>
      <trkpt lat="46.52738" lon="5.66364">
        <ele>489.4</ele>
        <time>2022-02-28T14:56:40Z</time>
      </trkpt>
      <trkpt lat="46.52742" lon="5.66362">
        <ele>489.6</ele>
        <time>2022-02-28T14:56:41Z</time>
      </trkpt>
      <trkpt lat="46.52746" lon="5.66361">
        <ele>489.6</ele>
        <time>2022-02-28T14:56:42Z</time>
      </trkpt>
      <trkpt lat="46.5275" lon="5.6636">
        <ele>489.6</ele>
        <time>2022-02-28T14:56:43Z</time>
      </trkpt>
      <trkpt lat="46.52754" lon="5.66358">
        <ele>490</ele>
        <time>2022-02-28T14:56:44Z</time>
      </trkpt>
      <trkpt lat="46.52758" lon="5.66357">
        <ele>490</ele>
        <time>2022-02-28T14:56:45Z</time>
      </trkpt>
      <trkpt lat="46.52761" lon="5.66356">
        <ele>490</ele>
        <time>2022-02-28T14:56:46Z</time>
      </trkpt>
      <trkpt lat="46.52765" lon="5.66355">
        <ele>490.4</ele>
        <time>2022-02-28T14:56:47Z</time>
      </trkpt>
      <trkpt lat="46.52768" lon="5.66353">
        <ele>490.4</ele>
        <time>2022-02-28T14:56:48Z</time>
      </trkpt>
      <trkpt lat="46.52771" lon="5.66352">
        <ele>490.6</ele>
        <time>2022-02-28T14:56:49Z</time>
      </trkpt>
      <trkpt lat="46.52774" lon="5.66351">
        <ele>491</ele>
        <time>2022-02-28T14:56:50Z</time>
      </trkpt>
      <trkpt lat="46.52777" lon="5.6635">
        <ele>491</ele>
        <time>2022-02-28T14:56:51Z</time>
      </trkpt>
      <trkpt lat="46.5278" lon="5.66349">
        <ele>491.2</ele>
        <time>2022-02-28T14:56:52Z</time>
      </trkpt>
      <trkpt lat="46.52783" lon="5.66348">
        <ele>491.6</ele>
        <time>2022-02-28T14:56:53Z</time>
      </trkpt>
      <trkpt lat="46.52786" lon="5.66347">
        <ele>491.8</ele>
        <time>2022-02-28T14:56:54Z</time>
      </trkpt>
      <trkpt lat="46.52789" lon="5.66346">
        <ele>492</ele>
        <time>2022-02-28T14:56:55Z</time>
      </trkpt>
      <trkpt lat="46.52792" lon="5.66345">
        <ele>492.4</ele>
        <time>2022-02-28T14:56:56Z</time>
      </trkpt>
      <trkpt lat="46.52794" lon="5.66344">
        <ele>492.6</ele>
        <time>2022-02-28T14:56:57Z</time>
      </trkpt>
      <trkpt lat="46.52797" lon="5.66342">
        <ele>492.8</ele>
        <time>2022-02-28T14:56:58Z</time>
      </trkpt>
      <trkpt lat="46.528" lon="5.66341">
        <ele>493.2</ele>
        <time>2022-02-28T14:56:59Z</time>
      </trkpt>
      <trkpt lat="46.52802" lon="5.66339">
        <ele>493.4</ele>
        <time>2022-02-28T14:57:00Z</time>
      </trkpt>
      <trkpt lat="46.52805" lon="5.66338">
        <ele>493.8</ele>
        <time>2022-02-28T14:57:01Z</time>
      </trkpt>
      <trkpt lat="46.52808" lon="5.66337">
        <ele>494</ele>
        <time>2022-02-28T14:57:02Z</time>
      </trkpt>
      <trkpt lat="46.5281" lon="5.66336">
        <ele>494.4</ele>
        <time>2022-02-28T14:57:03Z</time>
      </trkpt>
      <trkpt lat="46.52813" lon="5.66334">
        <ele>494.6</ele>
        <time>2022-02-28T14:57:04Z</time>
      </trkpt>
      <trkpt lat="46.52816" lon="5.66332">
        <ele>494.6</ele>
        <time>2022-02-28T14:57:05Z</time>
      </trkpt>
      <trkpt lat="46.52819" lon="5.66331">
        <ele>494.8</ele>
        <time>2022-02-28T14:57:06Z</time>
      </trkpt>
      <trkpt lat="46.52823" lon="5.66329">
        <ele>494.8</ele>
        <time>2022-02-28T14:57:07Z</time>
      </trkpt>
      <trkpt lat="46.52826" lon="5.66327">
        <ele>494.8</ele>
        <time>2022-02-28T14:57:08Z</time>
      </trkpt>
      <trkpt lat="46.52829" lon="5.66325">
        <ele>494.8</ele>
        <time>2022-02-28T14:57:09Z</time>
      </trkpt>
      <trkpt lat="46.52833" lon="5.66323">
        <ele>494.8</ele>
        <time>2022-02-28T14:57:10Z</time>
      </trkpt>
      <trkpt lat="46.52836" lon="5.66321">
        <ele>494.8</ele>
        <time>2022-02-28T14:57:11Z</time>
      </trkpt>
      <trkpt lat="46.5284" lon="5.6632">
        <ele>495</ele>
        <time>2022-02-28T14:57:12Z</time>
      </trkpt>
      <trkpt lat="46.52844" lon="5.66318">
        <ele>495</ele>
        <time>2022-02-28T14:57:13Z</time>
      </trkpt>
      <trkpt lat="46.52847" lon="5.66317">
        <ele>495.4</ele>
        <time>2022-02-28T14:57:14Z</time>
      </trkpt>
      <trkpt lat="46.5285" lon="5.66316">
        <ele>495.4</ele>
        <time>2022-02-28T14:57:15Z</time>
      </trkpt>
      <trkpt lat="46.52854" lon="5.66314">
        <ele>495.6</ele>
        <time>2022-02-28T14:57:16Z</time>
      </trkpt>
      <trkpt lat="46.52857" lon="5.66313">
        <ele>495.8</ele>
        <time>2022-02-28T14:57:17Z</time>
      </trkpt>
      <trkpt lat="46.5286" lon="5.66312">
        <ele>495.8</ele>
        <time>2022-02-28T14:57:18Z</time>
      </trkpt>
      <trkpt lat="46.52863" lon="5.6631">
        <ele>496.2</ele>
        <time>2022-02-28T14:57:19Z</time>
      </trkpt>
      <trkpt lat="46.52866" lon="5.66309">
        <ele>496.6</ele>
        <time>2022-02-28T14:57:20Z</time>
      </trkpt>
      <trkpt lat="46.52869" lon="5.66308">
        <ele>496.8</ele>
        <time>2022-02-28T14:57:21Z</time>
      </trkpt>
      <trkpt lat="46.52872" lon="5.66307">
        <ele>497.2</ele>
        <time>2022-02-28T14:57:22Z</time>
      </trkpt>
      <trkpt lat="46.52875" lon="5.66307">
        <ele>497.4</ele>
        <time>2022-02-28T14:57:23Z</time>
      </trkpt>
      <trkpt lat="46.52878" lon="5.66306">
        <ele>497.6</ele>
        <time>2022-02-28T14:57:24Z</time>
      </trkpt>
      <trkpt lat="46.52881" lon="5.66304">
        <ele>497.8</ele>
        <time>2022-02-28T14:57:25Z</time>
      </trkpt>
      <trkpt lat="46.52884" lon="5.66303">
        <ele>498.2</ele>
        <time>2022-02-28T14:57:26Z</time>
      </trkpt>
      <trkpt lat="46.52887" lon="5.66303">
        <ele>498.4</ele>
        <time>2022-02-28T14:57:27Z</time>
      </trkpt>
      <trkpt lat="46.52889" lon="5.66302">
        <ele>498.4</ele>
        <time>2022-02-28T14:57:28Z</time>
      </trkpt>
      <trkpt lat="46.52892" lon="5.66301">
        <ele>498.8</ele>
        <time>2022-02-28T14:57:29Z</time>
      </trkpt>
      <trkpt lat="46.52895" lon="5.663">
        <ele>499</ele>
        <time>2022-02-28T14:57:30Z</time>
      </trkpt>
      <trkpt lat="46.52898" lon="5.663">
        <ele>499</ele>
        <time>2022-02-28T14:57:31Z</time>
      </trkpt>
      <trkpt lat="46.52901" lon="5.66299">
        <ele>499.4</ele>
        <time>2022-02-28T14:57:32Z</time>
      </trkpt>
      <trkpt lat="46.52904" lon="5.66298">
        <ele>499.6</ele>
        <time>2022-02-28T14:57:33Z</time>
      </trkpt>
      <trkpt lat="46.52907" lon="5.66297">
        <ele>499.8</ele>
        <time>2022-02-28T14:57:34Z</time>
      </trkpt>
      <trkpt lat="46.5291" lon="5.66296">
        <ele>500</ele>
        <time>2022-02-28T14:57:35Z</time>
      </trkpt>
      <trkpt lat="46.52913" lon="5.66295">
        <ele>500</ele>
        <time>2022-02-28T14:57:36Z</time>
      </trkpt>
      <trkpt lat="46.52916" lon="5.66295">
        <ele>500.4</ele>
        <time>2022-02-28T14:57:37Z</time>
      </trkpt>
      <trkpt lat="46.52919" lon="5.66295">
        <ele>500.4</ele>
        <time>2022-02-28T14:57:38Z</time>
      </trkpt>
      <trkpt lat="46.52921" lon="5.66295">
        <ele>500.6</ele>
        <time>2022-02-28T14:57:39Z</time>
      </trkpt>
      <trkpt lat="46.52923" lon="5.66296">
        <ele>500.6</ele>
        <time>2022-02-28T14:57:40Z</time>
      </trkpt>
      <trkpt lat="46.52925" lon="5.66296">
        <ele>501</ele>
        <time>2022-02-28T14:57:41Z</time>
      </trkpt>
      <trkpt lat="46.52928" lon="5.66297">
        <ele>501.2</ele>
        <time>2022-02-28T14:57:42Z</time>
      </trkpt>
      <trkpt lat="46.5293" lon="5.66298">
        <ele>501.4</ele>
        <time>2022-02-28T14:57:43Z</time>
      </trkpt>
      <trkpt lat="46.52932" lon="5.66298">
        <ele>501.4</ele>
        <time>2022-02-28T14:57:44Z</time>
      </trkpt>
      <trkpt lat="46.52935" lon="5.66299">
        <ele>501.8</ele>
        <time>2022-02-28T14:57:45Z</time>
      </trkpt>
      <trkpt lat="46.52937" lon="5.66299">
        <ele>502</ele>
        <time>2022-02-28T14:57:46Z</time>
      </trkpt>
      <trkpt lat="46.52939" lon="5.663">
        <ele>502</ele>
        <time>2022-02-28T14:57:47Z</time>
      </trkpt>
      <trkpt lat="46.52942" lon="5.66301">
        <ele>502.4</ele>
        <time>2022-02-28T14:57:48Z</time>
      </trkpt>
      <trkpt lat="46.52944" lon="5.66301">
        <ele>502.8</ele>
        <time>2022-02-28T14:57:49Z</time>
      </trkpt>
      <trkpt lat="46.52947" lon="5.66301">
        <ele>503</ele>
        <time>2022-02-28T14:57:50Z</time>
      </trkpt>
      <trkpt lat="46.52949" lon="5.66302">
        <ele>503.2</ele>
        <time>2022-02-28T14:57:51Z</time>
      </trkpt>
      <trkpt lat="46.52951" lon="5.66303">
        <ele>503.6</ele>
        <time>2022-02-28T14:57:52Z</time>
      </trkpt>
      <trkpt lat="46.52954" lon="5.66303">
        <ele>503.8</ele>
        <time>2022-02-28T14:57:53Z</time>
      </trkpt>
      <trkpt lat="46.52956" lon="5.66303">
        <ele>504.2</ele>
        <time>2022-02-28T14:57:54Z</time>
      </trkpt>
      <trkpt lat="46.52958" lon="5.66304">
        <ele>504.4</ele>
        <time>2022-02-28T14:57:55Z</time>
      </trkpt>
      <trkpt lat="46.52961" lon="5.66304">
        <ele>504.8</ele>
        <time>2022-02-28T14:57:56Z</time>
      </trkpt>
      <trkpt lat="46.52963" lon="5.66304">
        <ele>505</ele>
        <time>2022-02-28T14:57:57Z</time>
      </trkpt>
      <trkpt lat="46.52965" lon="5.66304">
        <ele>505</ele>
        <time>2022-02-28T14:57:58Z</time>
      </trkpt>
      <trkpt lat="46.52968" lon="5.66304">
        <ele>505.4</ele>
        <time>2022-02-28T14:57:59Z</time>
      </trkpt>
      <trkpt lat="46.5297" lon="5.66304">
        <ele>505.8</ele>
        <time>2022-02-28T14:58:00Z</time>
      </trkpt>
      <trkpt lat="46.52972" lon="5.66304">
        <ele>506.2</ele>
        <time>2022-02-28T14:58:01Z</time>
      </trkpt>
      <trkpt lat="46.52975" lon="5.66305">
        <ele>506.6</ele>
        <time>2022-02-28T14:58:02Z</time>
      </trkpt>
      <trkpt lat="46.52977" lon="5.66305">
        <ele>506.8</ele>
        <time>2022-02-28T14:58:03Z</time>
      </trkpt>
      <trkpt lat="46.52979" lon="5.66306">
        <ele>507.2</ele>
        <time>2022-02-28T14:58:04Z</time>
      </trkpt>
      <trkpt lat="46.52981" lon="5.66307">
        <ele>507.4</ele>
        <time>2022-02-28T14:58:05Z</time>
      </trkpt>
      <trkpt lat="46.52984" lon="5.66307">
        <ele>507.8</ele>
        <time>2022-02-28T14:58:06Z</time>
      </trkpt>
      <trkpt lat="46.52986" lon="5.66308">
        <ele>508</ele>
        <time>2022-02-28T14:58:07Z</time>
      </trkpt>
      <trkpt lat="46.52988" lon="5.66308">
        <ele>508.4</ele>
        <time>2022-02-28T14:58:08Z</time>
      </trkpt>
      <trkpt lat="46.52991" lon="5.66309">
        <ele>508.8</ele>
        <time>2022-02-28T14:58:09Z</time>
      </trkpt>
      <trkpt lat="46.52993" lon="5.66309">
        <ele>509</ele>
        <time>2022-02-28T14:58:10Z</time>
      </trkpt>
      <trkpt lat="46.52995" lon="5.6631">
        <ele>509.4</ele>
        <time>2022-02-28T14:58:11Z</time>
      </trkpt>
      <trkpt lat="46.52997" lon="5.6631">
        <ele>509.6</ele>
        <time>2022-02-28T14:58:12Z</time>
      </trkpt>
      <trkpt lat="46.53" lon="5.66311">
        <ele>510</ele>
        <time>2022-02-28T14:58:13Z</time>
      </trkpt>
      <trkpt lat="46.53002" lon="5.66312">
        <ele>510.2</ele>
        <time>2022-02-28T14:58:14Z</time>
      </trkpt>
      <trkpt lat="46.53004" lon="5.66312">
        <ele>510.6</ele>
        <time>2022-02-28T14:58:15Z</time>
      </trkpt>
      <trkpt lat="46.53006" lon="5.66313">
        <ele>510.8</ele>
        <time>2022-02-28T14:58:16Z</time>
      </trkpt>
      <trkpt lat="46.53008" lon="5.66313">
        <ele>511.2</ele>
        <time>2022-02-28T14:58:17Z</time>
      </trkpt>
      <trkpt lat="46.5301" lon="5.66313">
        <ele>511.4</ele>
        <time>2022-02-28T14:58:18Z</time>
      </trkpt>
      <trkpt lat="46.53011" lon="5.66314">
        <ele>511.8</ele>
        <time>2022-02-28T14:58:19Z</time>
      </trkpt>
      <trkpt lat="46.53013" lon="5.66314">
        <ele>512.2</ele>
        <time>2022-02-28T14:58:20Z</time>
      </trkpt>
      <trkpt lat="46.53015" lon="5.66315">
        <ele>512.4</ele>
        <time>2022-02-28T14:58:21Z</time>
      </trkpt>
      <trkpt lat="46.53016" lon="5.66316">
        <ele>512.8</ele>
        <time>2022-02-28T14:58:22Z</time>
      </trkpt>
      <trkpt lat="46.53018" lon="5.66316">
        <ele>513</ele>
        <time>2022-02-28T14:58:23Z</time>
      </trkpt>
      <trkpt lat="46.5302" lon="5.66315">
        <ele>513.2</ele>
        <time>2022-02-28T14:58:24Z</time>
      </trkpt>
      <trkpt lat="46.53022" lon="5.66315">
        <ele>513.6</ele>
        <time>2022-02-28T14:58:25Z</time>
      </trkpt>
      <trkpt lat="46.53023" lon="5.66314">
        <ele>513.8</ele>
        <time>2022-02-28T14:58:26Z</time>
      </trkpt>
      <trkpt lat="46.53025" lon="5.66315">
        <ele>514</ele>
        <time>2022-02-28T14:58:27Z</time>
      </trkpt>
      <trkpt lat="46.53027" lon="5.66315">
        <ele>514.4</ele>
        <time>2022-02-28T14:58:28Z</time>
      </trkpt>
      <trkpt lat="46.53029" lon="5.66316">
        <ele>514.8</ele>
        <time>2022-02-28T14:58:29Z</time>
      </trkpt>
      <trkpt lat="46.5303" lon="5.66317">
        <ele>515</ele>
        <time>2022-02-28T14:58:30Z</time>
      </trkpt>
      <trkpt lat="46.53032" lon="5.66317">
        <ele>515.4</ele>
        <time>2022-02-28T14:58:31Z</time>
      </trkpt>
      <trkpt lat="46.53033" lon="5.66317">
        <ele>515.8</ele>
        <time>2022-02-28T14:58:32Z</time>
      </trkpt>
      <trkpt lat="46.53035" lon="5.66317">
        <ele>516</ele>
        <time>2022-02-28T14:58:33Z</time>
      </trkpt>
      <trkpt lat="46.53037" lon="5.66318">
        <ele>516.4</ele>
        <time>2022-02-28T14:58:34Z</time>
      </trkpt>
      <trkpt lat="46.53038" lon="5.66319">
        <ele>516.6</ele>
        <time>2022-02-28T14:58:35Z</time>
      </trkpt>
      <trkpt lat="46.5304" lon="5.6632">
        <ele>517</ele>
        <time>2022-02-28T14:58:36Z</time>
      </trkpt>
      <trkpt lat="46.53042" lon="5.6632">
        <ele>517.4</ele>
        <time>2022-02-28T14:58:37Z</time>
      </trkpt>
      <trkpt lat="46.53044" lon="5.66321">
        <ele>517.6</ele>
        <time>2022-02-28T14:58:38Z</time>
      </trkpt>
      <trkpt lat="46.53046" lon="5.66321">
        <ele>518</ele>
        <time>2022-02-28T14:58:39Z</time>
      </trkpt>
      <trkpt lat="46.53048" lon="5.66322">
        <ele>518.2</ele>
        <time>2022-02-28T14:58:40Z</time>
      </trkpt>
      <trkpt lat="46.53049" lon="5.66322">
        <ele>518.6</ele>
        <time>2022-02-28T14:58:41Z</time>
      </trkpt>
      <trkpt lat="46.53051" lon="5.66323">
        <ele>518.8</ele>
        <time>2022-02-28T14:58:42Z</time>
      </trkpt>
      <trkpt lat="46.53053" lon="5.66323">
        <ele>519.2</ele>
        <time>2022-02-28T14:58:43Z</time>
      </trkpt>
      <trkpt lat="46.53055" lon="5.66324">
        <ele>519.6</ele>
        <time>2022-02-28T14:58:44Z</time>
      </trkpt>
      <trkpt lat="46.53056" lon="5.66324">
        <ele>519.8</ele>
        <time>2022-02-28T14:58:45Z</time>
      </trkpt>
      <trkpt lat="46.53058" lon="5.66325">
        <ele>520.2</ele>
        <time>2022-02-28T14:58:46Z</time>
      </trkpt>
      <trkpt lat="46.5306" lon="5.66325">
        <ele>520.6</ele>
        <time>2022-02-28T14:58:47Z</time>
      </trkpt>
      <trkpt lat="46.53062" lon="5.66326">
        <ele>520.8</ele>
        <time>2022-02-28T14:58:48Z</time>
      </trkpt>
      <trkpt lat="46.53064" lon="5.66326">
        <ele>521.2</ele>
        <time>2022-02-28T14:58:49Z</time>
      </trkpt>
      <trkpt lat="46.53065" lon="5.66326">
        <ele>521.4</ele>
        <time>2022-02-28T14:58:50Z</time>
      </trkpt>
      <trkpt lat="46.53067" lon="5.66327">
        <ele>521.8</ele>
        <time>2022-02-28T14:58:51Z</time>
      </trkpt>
      <trkpt lat="46.53069" lon="5.66327">
        <ele>522.2</ele>
        <time>2022-02-28T14:58:52Z</time>
      </trkpt>
      <trkpt lat="46.53071" lon="5.66327">
        <ele>522.2</ele>
        <time>2022-02-28T14:58:53Z</time>
      </trkpt>
      <trkpt lat="46.53073" lon="5.66327">
        <ele>522.6</ele>
        <time>2022-02-28T14:58:54Z</time>
      </trkpt>
      <trkpt lat="46.53074" lon="5.66328">
        <ele>522.8</ele>
        <time>2022-02-28T14:58:55Z</time>
      </trkpt>
      <trkpt lat="46.53076" lon="5.66328">
        <ele>523</ele>
        <time>2022-02-28T14:58:56Z</time>
      </trkpt>
      <trkpt lat="46.53078" lon="5.66328">
        <ele>523.4</ele>
        <time>2022-02-28T14:58:57Z</time>
      </trkpt>
      <trkpt lat="46.53079" lon="5.66329">
        <ele>523.6</ele>
        <time>2022-02-28T14:58:58Z</time>
      </trkpt>
      <trkpt lat="46.53081" lon="5.66329">
        <ele>524</ele>
        <time>2022-02-28T14:58:59Z</time>
      </trkpt>
      <trkpt lat="46.53083" lon="5.6633">
        <ele>524.4</ele>
        <time>2022-02-28T14:59:00Z</time>
      </trkpt>
      <trkpt lat="46.53084" lon="5.6633">
        <ele>524.6</ele>
        <time>2022-02-28T14:59:01Z</time>
      </trkpt>
      <trkpt lat="46.53086" lon="5.66331">
        <ele>525</ele>
        <time>2022-02-28T14:59:02Z</time>
      </trkpt>
      <trkpt lat="46.53088" lon="5.66331">
        <ele>525.2</ele>
        <time>2022-02-28T14:59:03Z</time>
      </trkpt>
      <trkpt lat="46.53089" lon="5.66332">
        <ele>525.2</ele>
        <time>2022-02-28T14:59:04Z</time>
      </trkpt>
      <trkpt lat="46.53091" lon="5.66332">
        <ele>525.4</ele>
        <time>2022-02-28T14:59:05Z</time>
      </trkpt>
      <trkpt lat="46.53093" lon="5.66332">
        <ele>525.8</ele>
        <time>2022-02-28T14:59:06Z</time>
      </trkpt>
      <trkpt lat="46.53095" lon="5.66331">
        <ele>526</ele>
        <time>2022-02-28T14:59:07Z</time>
      </trkpt>
      <trkpt lat="46.53096" lon="5.66331">
        <ele>526.4</ele>
        <time>2022-02-28T14:59:08Z</time>
      </trkpt>
      <trkpt lat="46.53098" lon="5.66331">
        <ele>526.8</ele>
        <time>2022-02-28T14:59:09Z</time>
      </trkpt>
      <trkpt lat="46.531" lon="5.66331">
        <ele>527.2</ele>
        <time>2022-02-28T14:59:10Z</time>
      </trkpt>
      <trkpt lat="46.53101" lon="5.66331">
        <ele>527.4</ele>
        <time>2022-02-28T14:59:11Z</time>
      </trkpt>
      <trkpt lat="46.53103" lon="5.66332">
        <ele>527.8</ele>
        <time>2022-02-28T14:59:12Z</time>
      </trkpt>
      <trkpt lat="46.53105" lon="5.66332">
        <ele>528</ele>
        <time>2022-02-28T14:59:13Z</time>
      </trkpt>
      <trkpt lat="46.53106" lon="5.66332">
        <ele>528.4</ele>
        <time>2022-02-28T14:59:14Z</time>
      </trkpt>
      <trkpt lat="46.53108" lon="5.66332">
        <ele>528.8</ele>
        <time>2022-02-28T14:59:15Z</time>
      </trkpt>
      <trkpt lat="46.5311" lon="5.66333">
        <ele>529.2</ele>
        <time>2022-02-28T14:59:16Z</time>
      </trkpt>
      <trkpt lat="46.53111" lon="5.66334">
        <ele>529.4</ele>
        <time>2022-02-28T14:59:17Z</time>
      </trkpt>
      <trkpt lat="46.53112" lon="5.66335">
        <ele>529.6</ele>
        <time>2022-02-28T14:59:18Z</time>
      </trkpt>
      <trkpt lat="46.53113" lon="5.66336">
        <ele>529.8</ele>
        <time>2022-02-28T14:59:19Z</time>
      </trkpt>
      <trkpt lat="46.53114" lon="5.66337">
        <ele>530.2</ele>
        <time>2022-02-28T14:59:20Z</time>
      </trkpt>
      <trkpt lat="46.53116" lon="5.66337">
        <ele>530.6</ele>
        <time>2022-02-28T14:59:21Z</time>
      </trkpt>
      <trkpt lat="46.53117" lon="5.66338">
        <ele>530.8</ele>
        <time>2022-02-28T14:59:22Z</time>
      </trkpt>
      <trkpt lat="46.53118" lon="5.66338">
        <ele>531.2</ele>
        <time>2022-02-28T14:59:23Z</time>
      </trkpt>
      <trkpt lat="46.5312" lon="5.66338">
        <ele>531.4</ele>
        <time>2022-02-28T14:59:24Z</time>
      </trkpt>
      <trkpt lat="46.53121" lon="5.66337">
        <ele>531.6</ele>
        <time>2022-02-28T14:59:25Z</time>
      </trkpt>
      <trkpt lat="46.53123" lon="5.66337">
        <ele>531.8</ele>
        <time>2022-02-28T14:59:26Z</time>
      </trkpt>
      <trkpt lat="46.53124" lon="5.66337">
        <ele>532.2</ele>
        <time>2022-02-28T14:59:27Z</time>
      </trkpt>
      <trkpt lat="46.53126" lon="5.66337">
        <ele>532.4</ele>
        <time>2022-02-28T14:59:28Z</time>
      </trkpt>
      <trkpt lat="46.53128" lon="5.66337">
        <ele>532.8</ele>
        <time>2022-02-28T14:59:29Z</time>
      </trkpt>
      <trkpt lat="46.53129" lon="5.66338">
        <ele>533</ele>
        <time>2022-02-28T14:59:30Z</time>
      </trkpt>
      <trkpt lat="46.53131" lon="5.66338">
        <ele>533.4</ele>
        <time>2022-02-28T14:59:31Z</time>
      </trkpt>
      <trkpt lat="46.53132" lon="5.66339">
        <ele>533.6</ele>
        <time>2022-02-28T14:59:32Z</time>
      </trkpt>
      <trkpt lat="46.53136" lon="5.6634">
        <ele>534</ele>
        <time>2022-02-28T14:59:33Z</time>
      </trkpt>
      <trkpt lat="46.53138" lon="5.6634">
        <ele>534.4</ele>
        <time>2022-02-28T14:59:34Z</time>
      </trkpt>
      <trkpt lat="46.5314" lon="5.6634">
        <ele>534.8</ele>
        <time>2022-02-28T14:59:35Z</time>
      </trkpt>
      <trkpt lat="46.53141" lon="5.6634">
        <ele>535</ele>
        <time>2022-02-28T14:59:36Z</time>
      </trkpt>
      <trkpt lat="46.53143" lon="5.6634">
        <ele>535.4</ele>
        <time>2022-02-28T14:59:37Z</time>
      </trkpt>
      <trkpt lat="46.53145" lon="5.66339">
        <ele>535.6</ele>
        <time>2022-02-28T14:59:38Z</time>
      </trkpt>
      <trkpt lat="46.53146" lon="5.66339">
        <ele>536</ele>
        <time>2022-02-28T14:59:39Z</time>
      </trkpt>
      <trkpt lat="46.53148" lon="5.6634">
        <ele>536.4</ele>
        <time>2022-02-28T14:59:40Z</time>
      </trkpt>
      <trkpt lat="46.53149" lon="5.6634">
        <ele>536.6</ele>
        <time>2022-02-28T14:59:41Z</time>
      </trkpt>
      <trkpt lat="46.53151" lon="5.6634">
        <ele>537</ele>
        <time>2022-02-28T14:59:42Z</time>
      </trkpt>
      <trkpt lat="46.53152" lon="5.66341">
        <ele>537.2</ele>
        <time>2022-02-28T14:59:43Z</time>
      </trkpt>
      <trkpt lat="46.53154" lon="5.66341">
        <ele>537.4</ele>
        <time>2022-02-28T14:59:44Z</time>
      </trkpt>
      <trkpt lat="46.53156" lon="5.66341">
        <ele>537.6</ele>
        <time>2022-02-28T14:59:45Z</time>
      </trkpt>
      <trkpt lat="46.53157" lon="5.6634">
        <ele>538</ele>
        <time>2022-02-28T14:59:46Z</time>
      </trkpt>
      <trkpt lat="46.53159" lon="5.6634">
        <ele>538.4</ele>
        <time>2022-02-28T14:59:47Z</time>
      </trkpt>
      <trkpt lat="46.53159" lon="5.6634">
        <ele>538.8</ele>
        <time>2022-02-28T14:59:48Z</time>
      </trkpt>
      <trkpt lat="46.53161" lon="5.66339">
        <ele>538.8</ele>
        <time>2022-02-28T14:59:49Z</time>
      </trkpt>
      <trkpt lat="46.53163" lon="5.66339">
        <ele>539.2</ele>
        <time>2022-02-28T14:59:50Z</time>
      </trkpt>
      <trkpt lat="46.53165" lon="5.6634">
        <ele>539.4</ele>
        <time>2022-02-28T14:59:51Z</time>
      </trkpt>
      <trkpt lat="46.53167" lon="5.66342">
        <ele>539.8</ele>
        <time>2022-02-28T14:59:52Z</time>
      </trkpt>
      <trkpt lat="46.53168" lon="5.66343">
        <ele>540</ele>
        <time>2022-02-28T14:59:53Z</time>
      </trkpt>
      <trkpt lat="46.5317" lon="5.66345">
        <ele>540</ele>
        <time>2022-02-28T14:59:54Z</time>
      </trkpt>
      <trkpt lat="46.53172" lon="5.66346">
        <ele>540.4</ele>
        <time>2022-02-28T14:59:55Z</time>
      </trkpt>
      <trkpt lat="46.53173" lon="5.66348">
        <ele>540.6</ele>
        <time>2022-02-28T14:59:56Z</time>
      </trkpt>
      <trkpt lat="46.53175" lon="5.66349">
        <ele>540.8</ele>
        <time>2022-02-28T14:59:57Z</time>
      </trkpt>
      <trkpt lat="46.53177" lon="5.6635">
        <ele>540.8</ele>
        <time>2022-02-28T14:59:58Z</time>
      </trkpt>
      <trkpt lat="46.53178" lon="5.66351">
        <ele>541.2</ele>
        <time>2022-02-28T14:59:59Z</time>
      </trkpt>
      <trkpt lat="46.53179" lon="5.66353">
        <ele>541.2</ele>
        <time>2022-02-28T15:00:00Z</time>
      </trkpt>
      <trkpt lat="46.53181" lon="5.66354">
        <ele>541.6</ele>
        <time>2022-02-28T15:00:01Z</time>
      </trkpt>
      <trkpt lat="46.53182" lon="5.66356">
        <ele>541.8</ele>
        <time>2022-02-28T15:00:02Z</time>
      </trkpt>
      <trkpt lat="46.53183" lon="5.66357">
        <ele>542</ele>
        <time>2022-02-28T15:00:03Z</time>
      </trkpt>
      <trkpt lat="46.53184" lon="5.66359">
        <ele>542.2</ele>
        <time>2022-02-28T15:00:04Z</time>
      </trkpt>
      <trkpt lat="46.53184" lon="5.66362">
        <ele>542.2</ele>
        <time>2022-02-28T15:00:05Z</time>
      </trkpt>
      <trkpt lat="46.53184" lon="5.66364">
        <ele>542.6</ele>
        <time>2022-02-28T15:00:06Z</time>
      </trkpt>
      <trkpt lat="46.53185" lon="5.66367">
        <ele>542.8</ele>
        <time>2022-02-28T15:00:07Z</time>
      </trkpt>
      <trkpt lat="46.53185" lon="5.66369">
        <ele>543.2</ele>
        <time>2022-02-28T15:00:08Z</time>
      </trkpt>
      <trkpt lat="46.53185" lon="5.66371">
        <ele>543.6</ele>
        <time>2022-02-28T15:00:09Z</time>
      </trkpt>
      <trkpt lat="46.53186" lon="5.66374">
        <ele>543.8</ele>
        <time>2022-02-28T15:00:10Z</time>
      </trkpt>
      <trkpt lat="46.53187" lon="5.66376">
        <ele>544</ele>
        <time>2022-02-28T15:00:11Z</time>
      </trkpt>
      <trkpt lat="46.53187" lon="5.66377">
        <ele>544</ele>
        <time>2022-02-28T15:00:12Z</time>
      </trkpt>
      <trkpt lat="46.53188" lon="5.66379">
        <ele>544.4</ele>
        <time>2022-02-28T15:00:13Z</time>
      </trkpt>
      <trkpt lat="46.53189" lon="5.66381">
        <ele>544.6</ele>
        <time>2022-02-28T15:00:14Z</time>
      </trkpt>
      <trkpt lat="46.5319" lon="5.66383">
        <ele>544.8</ele>
        <time>2022-02-28T15:00:15Z</time>
      </trkpt>
      <trkpt lat="46.53191" lon="5.66385">
        <ele>545.2</ele>
        <time>2022-02-28T15:00:16Z</time>
      </trkpt>
      <trkpt lat="46.53192" lon="5.66387">
        <ele>545.4</ele>
        <time>2022-02-28T15:00:17Z</time>
      </trkpt>
      <trkpt lat="46.53192" lon="5.6639">
        <ele>545.6</ele>
        <time>2022-02-28T15:00:18Z</time>
      </trkpt>
      <trkpt lat="46.53193" lon="5.66392">
        <ele>546</ele>
        <time>2022-02-28T15:00:19Z</time>
      </trkpt>
      <trkpt lat="46.53193" lon="5.66394">
        <ele>546</ele>
        <time>2022-02-28T15:00:20Z</time>
      </trkpt>
      <trkpt lat="46.53193" lon="5.66397">
        <ele>546.4</ele>
        <time>2022-02-28T15:00:21Z</time>
      </trkpt>
      <trkpt lat="46.53194" lon="5.66399">
        <ele>546.6</ele>
        <time>2022-02-28T15:00:22Z</time>
      </trkpt>
      <trkpt lat="46.53195" lon="5.66401">
        <ele>547</ele>
        <time>2022-02-28T15:00:23Z</time>
      </trkpt>
      <trkpt lat="46.53196" lon="5.66403">
        <ele>547.2</ele>
        <time>2022-02-28T15:00:24Z</time>
      </trkpt>
      <trkpt lat="46.53197" lon="5.66404">
        <ele>547.4</ele>
        <time>2022-02-28T15:00:25Z</time>
      </trkpt>
      <trkpt lat="46.53198" lon="5.66406">
        <ele>547.8</ele>
        <time>2022-02-28T15:00:26Z</time>
      </trkpt>
      <trkpt lat="46.532" lon="5.66407">
        <ele>548</ele>
        <time>2022-02-28T15:00:27Z</time>
      </trkpt>
      <trkpt lat="46.53201" lon="5.66408">
        <ele>548.4</ele>
        <time>2022-02-28T15:00:28Z</time>
      </trkpt>
      <trkpt lat="46.53203" lon="5.66409">
        <ele>548.6</ele>
        <time>2022-02-28T15:00:29Z</time>
      </trkpt>
      <trkpt lat="46.53204" lon="5.6641">
        <ele>548.8</ele>
        <time>2022-02-28T15:00:30Z</time>
      </trkpt>
      <trkpt lat="46.53205" lon="5.66411">
        <ele>548.8</ele>
        <time>2022-02-28T15:00:31Z</time>
      </trkpt>
      <trkpt lat="46.53206" lon="5.66412">
        <ele>549.2</ele>
        <time>2022-02-28T15:00:32Z</time>
      </trkpt>
      <trkpt lat="46.53208" lon="5.66413">
        <ele>549.2</ele>
        <time>2022-02-28T15:00:33Z</time>
      </trkpt>
      <trkpt lat="46.53209" lon="5.66413">
        <ele>549.6</ele>
        <time>2022-02-28T15:00:34Z</time>
      </trkpt>
      <trkpt lat="46.53211" lon="5.66414">
        <ele>549.8</ele>
        <time>2022-02-28T15:00:35Z</time>
      </trkpt>
      <trkpt lat="46.53212" lon="5.66415">
        <ele>550</ele>
        <time>2022-02-28T15:00:36Z</time>
      </trkpt>
      <trkpt lat="46.53213" lon="5.66416">
        <ele>550.2</ele>
        <time>2022-02-28T15:00:37Z</time>
      </trkpt>
      <trkpt lat="46.53215" lon="5.66417">
        <ele>550.6</ele>
        <time>2022-02-28T15:00:38Z</time>
      </trkpt>
      <trkpt lat="46.53216" lon="5.66418">
        <ele>550.6</ele>
        <time>2022-02-28T15:00:39Z</time>
      </trkpt>
      <trkpt lat="46.53217" lon="5.66419">
        <ele>550.8</ele>
        <time>2022-02-28T15:00:40Z</time>
      </trkpt>
      <trkpt lat="46.53218" lon="5.6642">
        <ele>551</ele>
        <time>2022-02-28T15:00:41Z</time>
      </trkpt>
      <trkpt lat="46.53219" lon="5.6642">
        <ele>551</ele>
        <time>2022-02-28T15:00:42Z</time>
      </trkpt>
      <trkpt lat="46.53221" lon="5.66421">
        <ele>551.4</ele>
        <time>2022-02-28T15:00:43Z</time>
      </trkpt>
      <trkpt lat="46.53222" lon="5.66422">
        <ele>551.4</ele>
        <time>2022-02-28T15:00:44Z</time>
      </trkpt>
      <trkpt lat="46.53223" lon="5.66423">
        <ele>551.8</ele>
        <time>2022-02-28T15:00:45Z</time>
      </trkpt>
      <trkpt lat="46.53225" lon="5.66424">
        <ele>552</ele>
        <time>2022-02-28T15:00:46Z</time>
      </trkpt>
      <trkpt lat="46.53226" lon="5.66425">
        <ele>552.4</ele>
        <time>2022-02-28T15:00:47Z</time>
      </trkpt>
      <trkpt lat="46.53227" lon="5.66426">
        <ele>552.8</ele>
        <time>2022-02-28T15:00:48Z</time>
      </trkpt>
      <trkpt lat="46.53229" lon="5.66427">
        <ele>553</ele>
        <time>2022-02-28T15:00:49Z</time>
      </trkpt>
      <trkpt lat="46.53231" lon="5.66428">
        <ele>553.4</ele>
        <time>2022-02-28T15:00:50Z</time>
      </trkpt>
      <trkpt lat="46.53232" lon="5.66429">
        <ele>553.6</ele>
        <time>2022-02-28T15:00:51Z</time>
      </trkpt>
      <trkpt lat="46.53234" lon="5.6643">
        <ele>553.8</ele>
        <time>2022-02-28T15:00:52Z</time>
      </trkpt>
      <trkpt lat="46.53236" lon="5.6643">
        <ele>554.2</ele>
        <time>2022-02-28T15:00:53Z</time>
      </trkpt>
      <trkpt lat="46.53238" lon="5.66431">
        <ele>554.4</ele>
        <time>2022-02-28T15:00:54Z</time>
      </trkpt>
      <trkpt lat="46.53239" lon="5.66432">
        <ele>554.8</ele>
        <time>2022-02-28T15:00:55Z</time>
      </trkpt>
      <trkpt lat="46.53241" lon="5.66432">
        <ele>555</ele>
        <time>2022-02-28T15:00:56Z</time>
      </trkpt>
      <trkpt lat="46.53242" lon="5.66433">
        <ele>555.2</ele>
        <time>2022-02-28T15:00:57Z</time>
      </trkpt>
      <trkpt lat="46.53243" lon="5.66434">
        <ele>555.4</ele>
        <time>2022-02-28T15:00:58Z</time>
      </trkpt>
      <trkpt lat="46.53245" lon="5.66436">
        <ele>555.8</ele>
        <time>2022-02-28T15:00:59Z</time>
      </trkpt>
      <trkpt lat="46.53246" lon="5.66438">
        <ele>556</ele>
        <time>2022-02-28T15:01:00Z</time>
      </trkpt>
      <trkpt lat="46.53247" lon="5.66439">
        <ele>556.2</ele>
        <time>2022-02-28T15:01:01Z</time>
      </trkpt>
      <trkpt lat="46.53248" lon="5.6644">
        <ele>556.6</ele>
        <time>2022-02-28T15:01:02Z</time>
      </trkpt>
      <trkpt lat="46.53249" lon="5.66442">
        <ele>556.8</ele>
        <time>2022-02-28T15:01:03Z</time>
      </trkpt>
      <trkpt lat="46.5325" lon="5.66443">
        <ele>557</ele>
        <time>2022-02-28T15:01:04Z</time>
      </trkpt>
      <trkpt lat="46.53251" lon="5.66443">
        <ele>557.2</ele>
        <time>2022-02-28T15:01:05Z</time>
      </trkpt>
      <trkpt lat="46.53253" lon="5.66444">
        <ele>557.4</ele>
        <time>2022-02-28T15:01:06Z</time>
      </trkpt>
      <trkpt lat="46.53254" lon="5.66445">
        <ele>557.6</ele>
        <time>2022-02-28T15:01:07Z</time>
      </trkpt>
      <trkpt lat="46.53256" lon="5.66446">
        <ele>558</ele>
        <time>2022-02-28T15:01:08Z</time>
      </trkpt>
      <trkpt lat="46.53257" lon="5.66447">
        <ele>558.2</ele>
        <time>2022-02-28T15:01:09Z</time>
      </trkpt>
      <trkpt lat="46.53259" lon="5.66447">
        <ele>558.4</ele>
        <time>2022-02-28T15:01:10Z</time>
      </trkpt>
      <trkpt lat="46.5326" lon="5.66448">
        <ele>558.4</ele>
        <time>2022-02-28T15:01:11Z</time>
      </trkpt>
      <trkpt lat="46.53262" lon="5.66449">
        <ele>558.8</ele>
        <time>2022-02-28T15:01:12Z</time>
      </trkpt>
      <trkpt lat="46.53264" lon="5.6645">
        <ele>558.8</ele>
        <time>2022-02-28T15:01:13Z</time>
      </trkpt>
      <trkpt lat="46.53265" lon="5.66451">
        <ele>559.2</ele>
        <time>2022-02-28T15:01:14Z</time>
      </trkpt>
      <trkpt lat="46.53267" lon="5.66453">
        <ele>559.2</ele>
        <time>2022-02-28T15:01:15Z</time>
      </trkpt>
      <trkpt lat="46.53268" lon="5.66455">
        <ele>559.6</ele>
        <time>2022-02-28T15:01:16Z</time>
      </trkpt>
      <trkpt lat="46.5327" lon="5.66456">
        <ele>559.8</ele>
        <time>2022-02-28T15:01:17Z</time>
      </trkpt>
      <trkpt lat="46.53271" lon="5.66457">
        <ele>559.8</ele>
        <time>2022-02-28T15:01:18Z</time>
      </trkpt>
      <trkpt lat="46.53272" lon="5.66459">
        <ele>560</ele>
        <time>2022-02-28T15:01:19Z</time>
      </trkpt>
      <trkpt lat="46.53274" lon="5.6646">
        <ele>560.2</ele>
        <time>2022-02-28T15:01:20Z</time>
      </trkpt>
      <trkpt lat="46.53275" lon="5.66461">
        <ele>560.2</ele>
        <time>2022-02-28T15:01:21Z</time>
      </trkpt>
      <trkpt lat="46.53277" lon="5.66463">
        <ele>560.6</ele>
        <time>2022-02-28T15:01:22Z</time>
      </trkpt>
      <trkpt lat="46.53279" lon="5.66464">
        <ele>560.6</ele>
        <time>2022-02-28T15:01:23Z</time>
      </trkpt>
      <trkpt lat="46.5328" lon="5.66465">
        <ele>560.8</ele>
        <time>2022-02-28T15:01:24Z</time>
      </trkpt>
      <trkpt lat="46.53282" lon="5.66466">
        <ele>560.8</ele>
        <time>2022-02-28T15:01:25Z</time>
      </trkpt>
      <trkpt lat="46.53284" lon="5.66468">
        <ele>560.8</ele>
        <time>2022-02-28T15:01:26Z</time>
      </trkpt>
      <trkpt lat="46.53286" lon="5.6647">
        <ele>561.2</ele>
        <time>2022-02-28T15:01:27Z</time>
      </trkpt>
      <trkpt lat="46.53288" lon="5.66471">
        <ele>561.2</ele>
        <time>2022-02-28T15:01:28Z</time>
      </trkpt>
      <trkpt lat="46.53289" lon="5.66472">
        <ele>561.4</ele>
        <time>2022-02-28T15:01:29Z</time>
      </trkpt>
      <trkpt lat="46.53291" lon="5.66474">
        <ele>561.4</ele>
        <time>2022-02-28T15:01:30Z</time>
      </trkpt>
      <trkpt lat="46.53293" lon="5.66476">
        <ele>561.8</ele>
        <time>2022-02-28T15:01:31Z</time>
      </trkpt>
      <trkpt lat="46.53295" lon="5.66477">
        <ele>561.8</ele>
        <time>2022-02-28T15:01:32Z</time>
      </trkpt>
      <trkpt lat="46.53296" lon="5.66479">
        <ele>562</ele>
        <time>2022-02-28T15:01:33Z</time>
      </trkpt>
      <trkpt lat="46.53298" lon="5.66481">
        <ele>562.2</ele>
        <time>2022-02-28T15:01:34Z</time>
      </trkpt>
      <trkpt lat="46.53299" lon="5.66483">
        <ele>562.2</ele>
        <time>2022-02-28T15:01:35Z</time>
      </trkpt>
      <trkpt lat="46.533" lon="5.66486">
        <ele>562.6</ele>
        <time>2022-02-28T15:01:36Z</time>
      </trkpt>
      <trkpt lat="46.53302" lon="5.66488">
        <ele>562.6</ele>
        <time>2022-02-28T15:01:37Z</time>
      </trkpt>
      <trkpt lat="46.53303" lon="5.6649">
        <ele>563</ele>
        <time>2022-02-28T15:01:38Z</time>
      </trkpt>
      <trkpt lat="46.53305" lon="5.66492">
        <ele>563</ele>
        <time>2022-02-28T15:01:39Z</time>
      </trkpt>
      <trkpt lat="46.53306" lon="5.66494">
        <ele>563.2</ele>
        <time>2022-02-28T15:01:40Z</time>
      </trkpt>
      <trkpt lat="46.53308" lon="5.66496">
        <ele>563.2</ele>
        <time>2022-02-28T15:01:41Z</time>
      </trkpt>
      <trkpt lat="46.53309" lon="5.66498">
        <ele>563.6</ele>
        <time>2022-02-28T15:01:42Z</time>
      </trkpt>
      <trkpt lat="46.5331" lon="5.665">
        <ele>563.6</ele>
        <time>2022-02-28T15:01:43Z</time>
      </trkpt>
      <trkpt lat="46.53311" lon="5.66503">
        <ele>563.8</ele>
        <time>2022-02-28T15:01:44Z</time>
      </trkpt>
      <trkpt lat="46.53312" lon="5.66506">
        <ele>563.8</ele>
        <time>2022-02-28T15:01:45Z</time>
      </trkpt>
      <trkpt lat="46.53313" lon="5.66509">
        <ele>564.2</ele>
        <time>2022-02-28T15:01:46Z</time>
      </trkpt>
      <trkpt lat="46.53314" lon="5.66512">
        <ele>564.2</ele>
        <time>2022-02-28T15:01:47Z</time>
      </trkpt>
      <trkpt lat="46.53315" lon="5.66514">
        <ele>564.4</ele>
        <time>2022-02-28T15:01:48Z</time>
      </trkpt>
      <trkpt lat="46.53317" lon="5.66518">
        <ele>564.4</ele>
        <time>2022-02-28T15:01:49Z</time>
      </trkpt>
      <trkpt lat="46.53318" lon="5.66519">
        <ele>564.8</ele>
        <time>2022-02-28T15:01:50Z</time>
      </trkpt>
      <trkpt lat="46.53319" lon="5.66521">
        <ele>564.8</ele>
        <time>2022-02-28T15:01:51Z</time>
      </trkpt>
      <trkpt lat="46.5332" lon="5.66524">
        <ele>565.2</ele>
        <time>2022-02-28T15:01:52Z</time>
      </trkpt>
      <trkpt lat="46.53322" lon="5.66527">
        <ele>565.2</ele>
        <time>2022-02-28T15:01:53Z</time>
      </trkpt>
      <trkpt lat="46.53323" lon="5.66529">
        <ele>565.4</ele>
        <time>2022-02-28T15:01:54Z</time>
      </trkpt>
      <trkpt lat="46.53325" lon="5.66531">
        <ele>565.4</ele>
        <time>2022-02-28T15:01:55Z</time>
      </trkpt>
      <trkpt lat="46.53327" lon="5.66533">
        <ele>565.6</ele>
        <time>2022-02-28T15:01:56Z</time>
      </trkpt>
      <trkpt lat="46.53329" lon="5.66534">
        <ele>565.6</ele>
        <time>2022-02-28T15:01:57Z</time>
      </trkpt>
      <trkpt lat="46.53331" lon="5.66535">
        <ele>565.6</ele>
        <time>2022-02-28T15:01:58Z</time>
      </trkpt>
      <trkpt lat="46.53334" lon="5.66535">
        <ele>565.8</ele>
        <time>2022-02-28T15:01:59Z</time>
      </trkpt>
      <trkpt lat="46.53336" lon="5.66536">
        <ele>565.8</ele>
        <time>2022-02-28T15:02:00Z</time>
      </trkpt>
      <trkpt lat="46.53339" lon="5.66536">
        <ele>565.8</ele>
        <time>2022-02-28T15:02:01Z</time>
      </trkpt>
      <trkpt lat="46.53341" lon="5.66535">
        <ele>566.2</ele>
        <time>2022-02-28T15:02:02Z</time>
      </trkpt>
      <trkpt lat="46.53344" lon="5.66534">
        <ele>566.2</ele>
        <time>2022-02-28T15:02:03Z</time>
      </trkpt>
      <trkpt lat="46.53349" lon="5.66532">
        <ele>566.2</ele>
        <time>2022-02-28T15:02:04Z</time>
      </trkpt>
      <trkpt lat="46.5335" lon="5.66531">
        <ele>566.2</ele>
        <time>2022-02-28T15:02:05Z</time>
      </trkpt>
      <trkpt lat="46.53354" lon="5.66529">
        <ele>566.2</ele>
        <time>2022-02-28T15:02:06Z</time>
      </trkpt>
      <trkpt lat="46.53357" lon="5.66526">
        <ele>566.2</ele>
        <time>2022-02-28T15:02:07Z</time>
      </trkpt>
      <trkpt lat="46.5336" lon="5.66524">
        <ele>566.2</ele>
        <time>2022-02-28T15:02:08Z</time>
      </trkpt>
      <trkpt lat="46.53363" lon="5.66521">
        <ele>566.2</ele>
        <time>2022-02-28T15:02:09Z</time>
      </trkpt>
      <trkpt lat="46.53366" lon="5.66518">
        <ele>566.2</ele>
        <time>2022-02-28T15:02:10Z</time>
      </trkpt>
      <trkpt lat="46.53369" lon="5.66515">
        <ele>566.4</ele>
        <time>2022-02-28T15:02:11Z</time>
      </trkpt>
      <trkpt lat="46.53372" lon="5.66512">
        <ele>566.4</ele>
        <time>2022-02-28T15:02:12Z</time>
      </trkpt>
      <trkpt lat="46.53374" lon="5.66508">
        <ele>566.4</ele>
        <time>2022-02-28T15:02:13Z</time>
      </trkpt>
      <trkpt lat="46.53377" lon="5.66504">
        <ele>566.4</ele>
        <time>2022-02-28T15:02:14Z</time>
      </trkpt>
      <trkpt lat="46.5338" lon="5.665">
        <ele>566.4</ele>
        <time>2022-02-28T15:02:15Z</time>
      </trkpt>
      <trkpt lat="46.53382" lon="5.66496">
        <ele>566.4</ele>
        <time>2022-02-28T15:02:16Z</time>
      </trkpt>
      <trkpt lat="46.53385" lon="5.66492">
        <ele>566.4</ele>
        <time>2022-02-28T15:02:17Z</time>
      </trkpt>
      <trkpt lat="46.53387" lon="5.66488">
        <ele>566.6</ele>
        <time>2022-02-28T15:02:18Z</time>
      </trkpt>
      <trkpt lat="46.5339" lon="5.66485">
        <ele>566.6</ele>
        <time>2022-02-28T15:02:19Z</time>
      </trkpt>
      <trkpt lat="46.53393" lon="5.66481">
        <ele>566.6</ele>
        <time>2022-02-28T15:02:20Z</time>
      </trkpt>
      <trkpt lat="46.53396" lon="5.66478">
        <ele>566.6</ele>
        <time>2022-02-28T15:02:21Z</time>
      </trkpt>
      <trkpt lat="46.53399" lon="5.66475">
        <ele>566.8</ele>
        <time>2022-02-28T15:02:22Z</time>
      </trkpt>
      <trkpt lat="46.53402" lon="5.66472">
        <ele>566.8</ele>
        <time>2022-02-28T15:02:23Z</time>
      </trkpt>
      <trkpt lat="46.53404" lon="5.6647">
        <ele>566.8</ele>
        <time>2022-02-28T15:02:24Z</time>
      </trkpt>
      <trkpt lat="46.53407" lon="5.66468">
        <ele>567.2</ele>
        <time>2022-02-28T15:02:25Z</time>
      </trkpt>
      <trkpt lat="46.53409" lon="5.66467">
        <ele>567.2</ele>
        <time>2022-02-28T15:02:26Z</time>
      </trkpt>
      <trkpt lat="46.53411" lon="5.66467">
        <ele>567.6</ele>
        <time>2022-02-28T15:02:27Z</time>
      </trkpt>
      <trkpt lat="46.53413" lon="5.66467">
        <ele>567.8</ele>
        <time>2022-02-28T15:02:28Z</time>
      </trkpt>
      <trkpt lat="46.53415" lon="5.66466">
        <ele>568</ele>
        <time>2022-02-28T15:02:29Z</time>
      </trkpt>
      <trkpt lat="46.53417" lon="5.66465">
        <ele>568.2</ele>
        <time>2022-02-28T15:02:30Z</time>
      </trkpt>
      <trkpt lat="46.53419" lon="5.66464">
        <ele>568.2</ele>
        <time>2022-02-28T15:02:31Z</time>
      </trkpt>
      <trkpt lat="46.53421" lon="5.66463">
        <ele>568.6</ele>
        <time>2022-02-28T15:02:32Z</time>
      </trkpt>
      <trkpt lat="46.53423" lon="5.66462">
        <ele>568.8</ele>
        <time>2022-02-28T15:02:33Z</time>
      </trkpt>
      <trkpt lat="46.53425" lon="5.66461">
        <ele>568.8</ele>
        <time>2022-02-28T15:02:34Z</time>
      </trkpt>
      <trkpt lat="46.53427" lon="5.6646">
        <ele>569.4</ele>
        <time>2022-02-28T15:02:35Z</time>
      </trkpt>
      <trkpt lat="46.5343" lon="5.66459">
        <ele>569.6</ele>
        <time>2022-02-28T15:02:36Z</time>
      </trkpt>
      <trkpt lat="46.53432" lon="5.66458">
        <ele>569.6</ele>
        <time>2022-02-28T15:02:37Z</time>
      </trkpt>
      <trkpt lat="46.53434" lon="5.66457">
        <ele>570</ele>
        <time>2022-02-28T15:02:38Z</time>
      </trkpt>
      <trkpt lat="46.53436" lon="5.66456">
        <ele>570.4</ele>
        <time>2022-02-28T15:02:39Z</time>
      </trkpt>
      <trkpt lat="46.53438" lon="5.66454">
        <ele>570.8</ele>
        <time>2022-02-28T15:02:40Z</time>
      </trkpt>
      <trkpt lat="46.53441" lon="5.66453">
        <ele>571</ele>
        <time>2022-02-28T15:02:41Z</time>
      </trkpt>
      <trkpt lat="46.53443" lon="5.66451">
        <ele>571.2</ele>
        <time>2022-02-28T15:02:42Z</time>
      </trkpt>
      <trkpt lat="46.53445" lon="5.66449">
        <ele>571.4</ele>
        <time>2022-02-28T15:02:43Z</time>
      </trkpt>
      <trkpt lat="46.53447" lon="5.66448">
        <ele>571.6</ele>
        <time>2022-02-28T15:02:44Z</time>
      </trkpt>
      <trkpt lat="46.53449" lon="5.66446">
        <ele>572</ele>
        <time>2022-02-28T15:02:45Z</time>
      </trkpt>
      <trkpt lat="46.53451" lon="5.66445">
        <ele>572.2</ele>
        <time>2022-02-28T15:02:46Z</time>
      </trkpt>
      <trkpt lat="46.53453" lon="5.66444">
        <ele>572.6</ele>
        <time>2022-02-28T15:02:47Z</time>
      </trkpt>
      <trkpt lat="46.53455" lon="5.66443">
        <ele>572.8</ele>
        <time>2022-02-28T15:02:48Z</time>
      </trkpt>
      <trkpt lat="46.53457" lon="5.66441">
        <ele>573.2</ele>
        <time>2022-02-28T15:02:49Z</time>
      </trkpt>
      <trkpt lat="46.53458" lon="5.6644">
        <ele>573.4</ele>
        <time>2022-02-28T15:02:50Z</time>
      </trkpt>
      <trkpt lat="46.5346" lon="5.66438">
        <ele>573.4</ele>
        <time>2022-02-28T15:02:51Z</time>
      </trkpt>
      <trkpt lat="46.53462" lon="5.66437">
        <ele>573.8</ele>
        <time>2022-02-28T15:02:52Z</time>
      </trkpt>
      <trkpt lat="46.53464" lon="5.66435">
        <ele>574</ele>
        <time>2022-02-28T15:02:53Z</time>
      </trkpt>
      <trkpt lat="46.53466" lon="5.66434">
        <ele>574.2</ele>
        <time>2022-02-28T15:02:54Z</time>
      </trkpt>
      <trkpt lat="46.53468" lon="5.66432">
        <ele>574.4</ele>
        <time>2022-02-28T15:02:55Z</time>
      </trkpt>
      <trkpt lat="46.53469" lon="5.66431">
        <ele>574.8</ele>
        <time>2022-02-28T15:02:56Z</time>
      </trkpt>
      <trkpt lat="46.53471" lon="5.6643">
        <ele>575</ele>
        <time>2022-02-28T15:02:57Z</time>
      </trkpt>
      <trkpt lat="46.53473" lon="5.66429">
        <ele>575.2</ele>
        <time>2022-02-28T15:02:58Z</time>
      </trkpt>
      <trkpt lat="46.53475" lon="5.66428">
        <ele>575.4</ele>
        <time>2022-02-28T15:02:59Z</time>
      </trkpt>
      <trkpt lat="46.53476" lon="5.66426">
        <ele>575.6</ele>
        <time>2022-02-28T15:03:00Z</time>
      </trkpt>
      <trkpt lat="46.53478" lon="5.66425">
        <ele>575.8</ele>
        <time>2022-02-28T15:03:01Z</time>
      </trkpt>
      <trkpt lat="46.5348" lon="5.66424">
        <ele>576</ele>
        <time>2022-02-28T15:03:02Z</time>
      </trkpt>
      <trkpt lat="46.53481" lon="5.66423">
        <ele>576</ele>
        <time>2022-02-28T15:03:03Z</time>
      </trkpt>
      <trkpt lat="46.53483" lon="5.66422">
        <ele>576.4</ele>
        <time>2022-02-28T15:03:04Z</time>
      </trkpt>
      <trkpt lat="46.53485" lon="5.66421">
        <ele>576.4</ele>
        <time>2022-02-28T15:03:05Z</time>
      </trkpt>
      <trkpt lat="46.53487" lon="5.6642">
        <ele>576.8</ele>
        <time>2022-02-28T15:03:06Z</time>
      </trkpt>
      <trkpt lat="46.53488" lon="5.66418">
        <ele>577</ele>
        <time>2022-02-28T15:03:07Z</time>
      </trkpt>
      <trkpt lat="46.53489" lon="5.66417">
        <ele>577</ele>
        <time>2022-02-28T15:03:08Z</time>
      </trkpt>
      <trkpt lat="46.5349" lon="5.66415">
        <ele>577.4</ele>
        <time>2022-02-28T15:03:09Z</time>
      </trkpt>
      <trkpt lat="46.53492" lon="5.66414">
        <ele>577.6</ele>
        <time>2022-02-28T15:03:10Z</time>
      </trkpt>
      <trkpt lat="46.53493" lon="5.66411">
        <ele>578</ele>
        <time>2022-02-28T15:03:11Z</time>
      </trkpt>
      <trkpt lat="46.53495" lon="5.66409">
        <ele>578.2</ele>
        <time>2022-02-28T15:03:12Z</time>
      </trkpt>
      <trkpt lat="46.53497" lon="5.66408">
        <ele>578.6</ele>
        <time>2022-02-28T15:03:13Z</time>
      </trkpt>
      <trkpt lat="46.53499" lon="5.66406">
        <ele>578.8</ele>
        <time>2022-02-28T15:03:14Z</time>
      </trkpt>
      <trkpt lat="46.535" lon="5.66403">
        <ele>579</ele>
        <time>2022-02-28T15:03:15Z</time>
      </trkpt>
      <trkpt lat="46.53502" lon="5.66401">
        <ele>579.2</ele>
        <time>2022-02-28T15:03:16Z</time>
      </trkpt>
      <trkpt lat="46.53504" lon="5.66398">
        <ele>579.6</ele>
        <time>2022-02-28T15:03:17Z</time>
      </trkpt>
      <trkpt lat="46.53506" lon="5.66395">
        <ele>579.6</ele>
        <time>2022-02-28T15:03:18Z</time>
      </trkpt>
      <trkpt lat="46.53507" lon="5.66393">
        <ele>580</ele>
        <time>2022-02-28T15:03:19Z</time>
      </trkpt>
      <trkpt lat="46.53508" lon="5.6639">
        <ele>580.2</ele>
        <time>2022-02-28T15:03:20Z</time>
      </trkpt>
      <trkpt lat="46.53509" lon="5.66387">
        <ele>580.2</ele>
        <time>2022-02-28T15:03:21Z</time>
      </trkpt>
      <trkpt lat="46.5351" lon="5.66384">
        <ele>580.6</ele>
        <time>2022-02-28T15:03:22Z</time>
      </trkpt>
      <trkpt lat="46.5351" lon="5.66381">
        <ele>580.6</ele>
        <time>2022-02-28T15:03:23Z</time>
      </trkpt>
      <trkpt lat="46.53511" lon="5.66378">
        <ele>581</ele>
        <time>2022-02-28T15:03:24Z</time>
      </trkpt>
      <trkpt lat="46.53512" lon="5.66375">
        <ele>581.4</ele>
        <time>2022-02-28T15:03:25Z</time>
      </trkpt>
      <trkpt lat="46.53513" lon="5.66372">
        <ele>581.4</ele>
        <time>2022-02-28T15:03:26Z</time>
      </trkpt>
      <trkpt lat="46.53514" lon="5.6637">
        <ele>581.8</ele>
        <time>2022-02-28T15:03:27Z</time>
      </trkpt>
      <trkpt lat="46.53515" lon="5.66367">
        <ele>582</ele>
        <time>2022-02-28T15:03:28Z</time>
      </trkpt>
      <trkpt lat="46.53516" lon="5.66363">
        <ele>582</ele>
        <time>2022-02-28T15:03:29Z</time>
      </trkpt>
      <trkpt lat="46.53517" lon="5.6636">
        <ele>582.4</ele>
        <time>2022-02-28T15:03:30Z</time>
      </trkpt>
      <trkpt lat="46.53518" lon="5.66357">
        <ele>582.6</ele>
        <time>2022-02-28T15:03:31Z</time>
      </trkpt>
      <trkpt lat="46.53519" lon="5.66354">
        <ele>582.6</ele>
        <time>2022-02-28T15:03:32Z</time>
      </trkpt>
      <trkpt lat="46.5352" lon="5.66351">
        <ele>583</ele>
        <time>2022-02-28T15:03:33Z</time>
      </trkpt>
      <trkpt lat="46.53521" lon="5.66348">
        <ele>583</ele>
        <time>2022-02-28T15:03:34Z</time>
      </trkpt>
      <trkpt lat="46.53523" lon="5.66345">
        <ele>583.2</ele>
        <time>2022-02-28T15:03:35Z</time>
      </trkpt>
      <trkpt lat="46.53525" lon="5.66342">
        <ele>583.4</ele>
        <time>2022-02-28T15:03:36Z</time>
      </trkpt>
      <trkpt lat="46.53527" lon="5.66341">
        <ele>583.4</ele>
        <time>2022-02-28T15:03:37Z</time>
      </trkpt>
      <trkpt lat="46.53529" lon="5.66339">
        <ele>584</ele>
        <time>2022-02-28T15:03:38Z</time>
      </trkpt>
      <trkpt lat="46.5353" lon="5.66338">
        <ele>584.2</ele>
        <time>2022-02-28T15:03:39Z</time>
      </trkpt>
      <trkpt lat="46.53532" lon="5.66336">
        <ele>584.4</ele>
        <time>2022-02-28T15:03:40Z</time>
      </trkpt>
      <trkpt lat="46.53534" lon="5.66335">
        <ele>584.4</ele>
        <time>2022-02-28T15:03:41Z</time>
      </trkpt>
      <trkpt lat="46.53536" lon="5.66334">
        <ele>584.8</ele>
        <time>2022-02-28T15:03:42Z</time>
      </trkpt>
      <trkpt lat="46.53538" lon="5.66333">
        <ele>584.8</ele>
        <time>2022-02-28T15:03:43Z</time>
      </trkpt>
      <trkpt lat="46.53539" lon="5.66331">
        <ele>585</ele>
        <time>2022-02-28T15:03:44Z</time>
      </trkpt>
      <trkpt lat="46.53541" lon="5.66329">
        <ele>585</ele>
        <time>2022-02-28T15:03:45Z</time>
      </trkpt>
      <trkpt lat="46.53543" lon="5.66326">
        <ele>585.4</ele>
        <time>2022-02-28T15:03:46Z</time>
      </trkpt>
      <trkpt lat="46.53545" lon="5.66324">
        <ele>585.4</ele>
        <time>2022-02-28T15:03:47Z</time>
      </trkpt>
      <trkpt lat="46.53548" lon="5.66321">
        <ele>585.6</ele>
        <time>2022-02-28T15:03:48Z</time>
      </trkpt>
      <trkpt lat="46.5355" lon="5.66318">
        <ele>585.6</ele>
        <time>2022-02-28T15:03:49Z</time>
      </trkpt>
      <trkpt lat="46.53552" lon="5.66315">
        <ele>585.8</ele>
        <time>2022-02-28T15:03:50Z</time>
      </trkpt>
      <trkpt lat="46.53554" lon="5.66312">
        <ele>585.8</ele>
        <time>2022-02-28T15:03:51Z</time>
      </trkpt>
      <trkpt lat="46.53556" lon="5.66308">
        <ele>585.8</ele>
        <time>2022-02-28T15:03:52Z</time>
      </trkpt>
      <trkpt lat="46.53558" lon="5.66304">
        <ele>585.8</ele>
        <time>2022-02-28T15:03:53Z</time>
      </trkpt>
      <trkpt lat="46.53559" lon="5.663">
        <ele>585.8</ele>
        <time>2022-02-28T15:03:54Z</time>
      </trkpt>
      <trkpt lat="46.53561" lon="5.66295">
        <ele>585.8</ele>
        <time>2022-02-28T15:03:55Z</time>
      </trkpt>
      <trkpt lat="46.53563" lon="5.66291">
        <ele>585.8</ele>
        <time>2022-02-28T15:03:56Z</time>
      </trkpt>
      <trkpt lat="46.53564" lon="5.66286">
        <ele>585.6</ele>
        <time>2022-02-28T15:03:57Z</time>
      </trkpt>
      <trkpt lat="46.53566" lon="5.66281">
        <ele>585.6</ele>
        <time>2022-02-28T15:03:58Z</time>
      </trkpt>
      <trkpt lat="46.53567" lon="5.66276">
        <ele>585.6</ele>
        <time>2022-02-28T15:03:59Z</time>
      </trkpt>
      <trkpt lat="46.53569" lon="5.66271">
        <ele>585.6</ele>
        <time>2022-02-28T15:04:00Z</time>
      </trkpt>
      <trkpt lat="46.53571" lon="5.66267">
        <ele>585.6</ele>
        <time>2022-02-28T15:04:01Z</time>
      </trkpt>
      <trkpt lat="46.53573" lon="5.66262">
        <ele>585.2</ele>
        <time>2022-02-28T15:04:02Z</time>
      </trkpt>
      <trkpt lat="46.53575" lon="5.66257">
        <ele>585.2</ele>
        <time>2022-02-28T15:04:03Z</time>
      </trkpt>
      <trkpt lat="46.53577" lon="5.66252">
        <ele>585</ele>
        <time>2022-02-28T15:04:04Z</time>
      </trkpt>
      <trkpt lat="46.5358" lon="5.66246">
        <ele>585</ele>
        <time>2022-02-28T15:04:05Z</time>
      </trkpt>
      <trkpt lat="46.53583" lon="5.66239">
        <ele>584.6</ele>
        <time>2022-02-28T15:04:06Z</time>
      </trkpt>
      <trkpt lat="46.53587" lon="5.66233">
        <ele>584.6</ele>
        <time>2022-02-28T15:04:07Z</time>
      </trkpt>
      <trkpt lat="46.53597" lon="5.66221">
        <ele>584.2</ele>
        <time>2022-02-28T15:04:08Z</time>
      </trkpt>
      <trkpt lat="46.53603" lon="5.66215">
        <ele>583.8</ele>
        <time>2022-02-28T15:04:09Z</time>
      </trkpt>
      <trkpt lat="46.5361" lon="5.66209">
        <ele>583.2</ele>
        <time>2022-02-28T15:04:10Z</time>
      </trkpt>
      <trkpt lat="46.53617" lon="5.66204">
        <ele>582.8</ele>
        <time>2022-02-28T15:04:11Z</time>
      </trkpt>
      <trkpt lat="46.53624" lon="5.66198">
        <ele>582.2</ele>
        <time>2022-02-28T15:04:12Z</time>
      </trkpt>
      <trkpt lat="46.53632" lon="5.66192">
        <ele>581.8</ele>
        <time>2022-02-28T15:04:13Z</time>
      </trkpt>
      <trkpt lat="46.5364" lon="5.66185">
        <ele>581.2</ele>
        <time>2022-02-28T15:04:14Z</time>
      </trkpt>
      <trkpt lat="46.53647" lon="5.66178">
        <ele>580.8</ele>
        <time>2022-02-28T15:04:15Z</time>
      </trkpt>
      <trkpt lat="46.53655" lon="5.6617">
        <ele>580</ele>
        <time>2022-02-28T15:04:16Z</time>
      </trkpt>
      <trkpt lat="46.53663" lon="5.66162">
        <ele>579.4</ele>
        <time>2022-02-28T15:04:17Z</time>
      </trkpt>
      <trkpt lat="46.53671" lon="5.66154">
        <ele>578.8</ele>
        <time>2022-02-28T15:04:18Z</time>
      </trkpt>
      <trkpt lat="46.53678" lon="5.66146">
        <ele>578.4</ele>
        <time>2022-02-28T15:04:19Z</time>
      </trkpt>
      <trkpt lat="46.53686" lon="5.66137">
        <ele>578</ele>
        <time>2022-02-28T15:04:20Z</time>
      </trkpt>
      <trkpt lat="46.53693" lon="5.66129">
        <ele>577.4</ele>
        <time>2022-02-28T15:04:21Z</time>
      </trkpt>
      <trkpt lat="46.53701" lon="5.6612">
        <ele>576.8</ele>
        <time>2022-02-28T15:04:22Z</time>
      </trkpt>
      <trkpt lat="46.53701" lon="5.6612">
        <ele>576.2</ele>
        <time>2022-02-28T15:04:23Z</time>
      </trkpt>
      <trkpt lat="46.53709" lon="5.66112">
        <ele>575.8</ele>
        <time>2022-02-28T15:04:24Z</time>
      </trkpt>
      <trkpt lat="46.53717" lon="5.66105">
        <ele>575.4</ele>
        <time>2022-02-28T15:04:25Z</time>
      </trkpt>
      <trkpt lat="46.53725" lon="5.66098">
        <ele>574.8</ele>
        <time>2022-02-28T15:04:26Z</time>
      </trkpt>
      <trkpt lat="46.53734" lon="5.66092">
        <ele>574.2</ele>
        <time>2022-02-28T15:04:27Z</time>
      </trkpt>
      <trkpt lat="46.53743" lon="5.66086">
        <ele>573.8</ele>
        <time>2022-02-28T15:04:28Z</time>
      </trkpt>
      <trkpt lat="46.53752" lon="5.6608">
        <ele>573.2</ele>
        <time>2022-02-28T15:04:29Z</time>
      </trkpt>
      <trkpt lat="46.53761" lon="5.66074">
        <ele>572.6</ele>
        <time>2022-02-28T15:04:30Z</time>
      </trkpt>
      <trkpt lat="46.5377" lon="5.66068">
        <ele>572.2</ele>
        <time>2022-02-28T15:04:31Z</time>
      </trkpt>
      <trkpt lat="46.53779" lon="5.66062">
        <ele>572.2</ele>
        <time>2022-02-28T15:04:32Z</time>
      </trkpt>
      <trkpt lat="46.53788" lon="5.66056">
        <ele>571.6</ele>
        <time>2022-02-28T15:04:33Z</time>
      </trkpt>
      <trkpt lat="46.53797" lon="5.6605">
        <ele>571</ele>
        <time>2022-02-28T15:04:34Z</time>
      </trkpt>
      <trkpt lat="46.53807" lon="5.66043">
        <ele>570.6</ele>
        <time>2022-02-28T15:04:35Z</time>
      </trkpt>
      <trkpt lat="46.53816" lon="5.66036">
        <ele>570</ele>
        <time>2022-02-28T15:04:36Z</time>
      </trkpt>
      <trkpt lat="46.53825" lon="5.66029">
        <ele>569.2</ele>
        <time>2022-02-28T15:04:37Z</time>
      </trkpt>
      <trkpt lat="46.53835" lon="5.66022">
        <ele>568.8</ele>
        <time>2022-02-28T15:04:38Z</time>
      </trkpt>
      <trkpt lat="46.53844" lon="5.66015">
        <ele>568.2</ele>
        <time>2022-02-28T15:04:39Z</time>
      </trkpt>
      <trkpt lat="46.53852" lon="5.66008">
        <ele>567.6</ele>
        <time>2022-02-28T15:04:40Z</time>
      </trkpt>
      <trkpt lat="46.53861" lon="5.66">
        <ele>567</ele>
        <time>2022-02-28T15:04:41Z</time>
      </trkpt>
      <trkpt lat="46.5387" lon="5.65992">
        <ele>566.4</ele>
        <time>2022-02-28T15:04:42Z</time>
      </trkpt>
      <trkpt lat="46.5388" lon="5.65985">
        <ele>566</ele>
        <time>2022-02-28T15:04:43Z</time>
      </trkpt>
      <trkpt lat="46.53889" lon="5.65978">
        <ele>565.4</ele>
        <time>2022-02-28T15:04:44Z</time>
      </trkpt>
      <trkpt lat="46.53898" lon="5.6597">
        <ele>564.8</ele>
        <time>2022-02-28T15:04:45Z</time>
      </trkpt>
      <trkpt lat="46.53907" lon="5.65962">
        <ele>564.2</ele>
        <time>2022-02-28T15:04:46Z</time>
      </trkpt>
      <trkpt lat="46.53916" lon="5.65954">
        <ele>563.6</ele>
        <time>2022-02-28T15:04:47Z</time>
      </trkpt>
      <trkpt lat="46.53924" lon="5.65946">
        <ele>563.2</ele>
        <time>2022-02-28T15:04:48Z</time>
      </trkpt>
      <trkpt lat="46.53933" lon="5.65938">
        <ele>562.6</ele>
        <time>2022-02-28T15:04:49Z</time>
      </trkpt>
      <trkpt lat="46.53941" lon="5.65929">
        <ele>562.2</ele>
        <time>2022-02-28T15:04:50Z</time>
      </trkpt>
      <trkpt lat="46.5395" lon="5.65921">
        <ele>561.6</ele>
        <time>2022-02-28T15:04:51Z</time>
      </trkpt>
      <trkpt lat="46.53959" lon="5.65913">
        <ele>561</ele>
        <time>2022-02-28T15:04:52Z</time>
      </trkpt>
      <trkpt lat="46.53968" lon="5.65906">
        <ele>560.4</ele>
        <time>2022-02-28T15:04:53Z</time>
      </trkpt>
      <trkpt lat="46.53978" lon="5.65899">
        <ele>559.8</ele>
        <time>2022-02-28T15:04:54Z</time>
      </trkpt>
      <trkpt lat="46.53987" lon="5.65893">
        <ele>559.2</ele>
        <time>2022-02-28T15:04:55Z</time>
      </trkpt>
      <trkpt lat="46.53996" lon="5.65887">
        <ele>558.6</ele>
        <time>2022-02-28T15:04:56Z</time>
      </trkpt>
      <trkpt lat="46.54005" lon="5.6588">
        <ele>558</ele>
        <time>2022-02-28T15:04:57Z</time>
      </trkpt>
      <trkpt lat="46.54014" lon="5.65873">
        <ele>557.2</ele>
        <time>2022-02-28T15:04:58Z</time>
      </trkpt>
      <trkpt lat="46.54022" lon="5.65865">
        <ele>556.4</ele>
        <time>2022-02-28T15:04:59Z</time>
      </trkpt>
      <trkpt lat="46.54028" lon="5.65855">
        <ele>555.8</ele>
        <time>2022-02-28T15:05:00Z</time>
      </trkpt>
      <trkpt lat="46.54033" lon="5.65843">
        <ele>555.2</ele>
        <time>2022-02-28T15:05:01Z</time>
      </trkpt>
      <trkpt lat="46.54035" lon="5.65829">
        <ele>554.4</ele>
        <time>2022-02-28T15:05:02Z</time>
      </trkpt>
      <trkpt lat="46.54034" lon="5.65814">
        <ele>553.6</ele>
        <time>2022-02-28T15:05:03Z</time>
      </trkpt>
      <trkpt lat="46.54032" lon="5.65799">
        <ele>553</ele>
        <time>2022-02-28T15:05:04Z</time>
      </trkpt>
      <trkpt lat="46.54029" lon="5.65785">
        <ele>552.2</ele>
        <time>2022-02-28T15:05:05Z</time>
      </trkpt>
      <trkpt lat="46.54025" lon="5.6577">
        <ele>551.2</ele>
        <time>2022-02-28T15:05:06Z</time>
      </trkpt>
      <trkpt lat="46.54022" lon="5.65757">
        <ele>550.6</ele>
        <time>2022-02-28T15:05:07Z</time>
      </trkpt>
      <trkpt lat="46.54017" lon="5.65744">
        <ele>550</ele>
        <time>2022-02-28T15:05:08Z</time>
      </trkpt>
      <trkpt lat="46.54013" lon="5.6573">
        <ele>549.6</ele>
        <time>2022-02-28T15:05:09Z</time>
      </trkpt>
      <trkpt lat="46.54009" lon="5.65717">
        <ele>549</ele>
        <time>2022-02-28T15:05:10Z</time>
      </trkpt>
      <trkpt lat="46.54006" lon="5.65704">
        <ele>548.4</ele>
        <time>2022-02-28T15:05:11Z</time>
      </trkpt>
      <trkpt lat="46.54002" lon="5.65691">
        <ele>548</ele>
        <time>2022-02-28T15:05:12Z</time>
      </trkpt>
      <trkpt lat="46.54" lon="5.65678">
        <ele>547.6</ele>
        <time>2022-02-28T15:05:13Z</time>
      </trkpt>
      <trkpt lat="46.53998" lon="5.65667">
        <ele>547</ele>
        <time>2022-02-28T15:05:14Z</time>
      </trkpt>
      <trkpt lat="46.53997" lon="5.65656">
        <ele>546.4</ele>
        <time>2022-02-28T15:05:15Z</time>
      </trkpt>
      <trkpt lat="46.53998" lon="5.65645">
        <ele>546.2</ele>
        <time>2022-02-28T15:05:16Z</time>
      </trkpt>
      <trkpt lat="46.54" lon="5.65636">
        <ele>545.8</ele>
        <time>2022-02-28T15:05:17Z</time>
      </trkpt>
      <trkpt lat="46.54003" lon="5.65627">
        <ele>545.8</ele>
        <time>2022-02-28T15:05:18Z</time>
      </trkpt>
      <trkpt lat="46.54008" lon="5.65621">
        <ele>545.8</ele>
        <time>2022-02-28T15:05:19Z</time>
      </trkpt>
      <trkpt lat="46.54013" lon="5.65616">
        <ele>545.8</ele>
        <time>2022-02-28T15:05:20Z</time>
      </trkpt>
      <trkpt lat="46.54018" lon="5.65613">
        <ele>546.2</ele>
        <time>2022-02-28T15:05:21Z</time>
      </trkpt>
      <trkpt lat="46.54023" lon="5.65611">
        <ele>546.4</ele>
        <time>2022-02-28T15:05:22Z</time>
      </trkpt>
      <trkpt lat="46.54027" lon="5.65609">
        <ele>546.6</ele>
        <time>2022-02-28T15:05:23Z</time>
      </trkpt>
      <trkpt lat="46.54032" lon="5.65607">
        <ele>547</ele>
        <time>2022-02-28T15:05:24Z</time>
      </trkpt>
      <trkpt lat="46.54036" lon="5.65605">
        <ele>547.2</ele>
        <time>2022-02-28T15:05:25Z</time>
      </trkpt>
      <trkpt lat="46.5404" lon="5.65604">
        <ele>547.6</ele>
        <time>2022-02-28T15:05:26Z</time>
      </trkpt>
      <trkpt lat="46.54044" lon="5.65603">
        <ele>548</ele>
        <time>2022-02-28T15:05:27Z</time>
      </trkpt>
      <trkpt lat="46.54047" lon="5.65603">
        <ele>548.2</ele>
        <time>2022-02-28T15:05:28Z</time>
      </trkpt>
      <trkpt lat="46.5405" lon="5.65602">
        <ele>548.6</ele>
        <time>2022-02-28T15:05:29Z</time>
      </trkpt>
      <trkpt lat="46.54053" lon="5.65602">
        <ele>548.8</ele>
        <time>2022-02-28T15:05:30Z</time>
      </trkpt>
      <trkpt lat="46.54055" lon="5.65602">
        <ele>548.8</ele>
        <time>2022-02-28T15:05:31Z</time>
      </trkpt>
      <trkpt lat="46.54056" lon="5.65602">
        <ele>549</ele>
        <time>2022-02-28T15:05:32Z</time>
      </trkpt>
      <trkpt lat="46.54056" lon="5.65602">
        <ele>549</ele>
        <time>2022-02-28T15:05:33Z</time>
      </trkpt>
      <trkpt lat="46.54056" lon="5.65602">
        <ele>549.4</ele>
        <time>2022-02-28T15:05:34Z</time>
      </trkpt>
      <trkpt lat="46.54056" lon="5.65601">
        <ele>549.4</ele>
        <time>2022-02-28T15:05:36Z</time>
      </trkpt>
      <trkpt lat="46.54057" lon="5.65601">
        <ele>549.4</ele>
        <time>2022-02-28T15:05:37Z</time>
      </trkpt>
      <trkpt lat="46.54057" lon="5.65601">
        <ele>549.4</ele>
        <time>2022-02-28T15:05:38Z</time>
      </trkpt>
      <trkpt lat="46.54057" lon="5.65601">
        <ele>549.6</ele>
        <time>2022-02-28T15:05:39Z</time>
      </trkpt>
      <trkpt lat="46.54058" lon="5.65601">
        <ele>549.6</ele>
        <time>2022-02-28T15:05:41Z</time>
      </trkpt>
      <trkpt lat="46.54058" lon="5.65601">
        <ele>549.6</ele>
        <time>2022-02-28T15:05:42Z</time>
      </trkpt>
      <trkpt lat="46.54058" lon="5.65601">
        <ele>549.6</ele>
        <time>2022-02-28T15:06:19Z</time>
      </trkpt>
      <trkpt lat="46.54058" lon="5.65601">
        <ele>549.6</ele>
        <time>2022-02-28T15:06:20Z</time>
      </trkpt>
      <trkpt lat="46.54059" lon="5.656">
        <ele>549.6</ele>
        <time>2022-02-28T15:06:21Z</time>
      </trkpt>
      <trkpt lat="46.54059" lon="5.656">
        <ele>549.6</ele>
        <time>2022-02-28T15:06:22Z</time>
      </trkpt>
      <trkpt lat="46.54059" lon="5.656">
        <ele>549.6</ele>
        <time>2022-02-28T15:06:23Z</time>
      </trkpt>
      <trkpt lat="46.5406" lon="5.656">
        <ele>549.6</ele>
        <time>2022-02-28T15:06:24Z</time>
      </trkpt>
      <trkpt lat="46.5406" lon="5.656">
        <ele>549.6</ele>
        <time>2022-02-28T15:06:25Z</time>
      </trkpt>
      <trkpt lat="46.5406" lon="5.656">
        <ele>549.6</ele>
        <time>2022-02-28T15:07:09Z</time>
      </trkpt>
      <trkpt lat="46.5406" lon="5.656">
        <ele>549.6</ele>
        <time>2022-02-28T15:07:10Z</time>
      </trkpt>
      <trkpt lat="46.54061" lon="5.656">
        <ele>549.6</ele>
        <time>2022-02-28T15:07:11Z</time>
      </trkpt>
      <trkpt lat="46.54061" lon="5.65599">
        <ele>549.6</ele>
        <time>2022-02-28T15:07:12Z</time>
      </trkpt>
      <trkpt lat="46.54061" lon="5.65599">
        <ele>549.6</ele>
        <time>2022-02-28T15:07:13Z</time>
      </trkpt>
      <trkpt lat="46.54062" lon="5.65599">
        <ele>549.8</ele>
        <time>2022-02-28T15:07:14Z</time>
      </trkpt>
      <trkpt lat="46.54062" lon="5.65599">
        <ele>549.8</ele>
        <time>2022-02-28T15:07:15Z</time>
      </trkpt>
      <trkpt lat="46.54062" lon="5.65599">
        <ele>549.8</ele>
        <time>2022-02-28T15:07:16Z</time>
      </trkpt>
      <trkpt lat="46.54064" lon="5.65598">
        <ele>549.8</ele>
        <time>2022-02-28T15:07:17Z</time>
      </trkpt>
      <trkpt lat="46.54066" lon="5.65598">
        <ele>549.8</ele>
        <time>2022-02-28T15:07:18Z</time>
      </trkpt>
      <trkpt lat="46.54069" lon="5.65598">
        <ele>550</ele>
        <time>2022-02-28T15:07:19Z</time>
      </trkpt>
      <trkpt lat="46.54071" lon="5.65598">
        <ele>550</ele>
        <time>2022-02-28T15:07:20Z</time>
      </trkpt>
      <trkpt lat="46.54074" lon="5.65597">
        <ele>550</ele>
        <time>2022-02-28T15:07:21Z</time>
      </trkpt>
      <trkpt lat="46.54077" lon="5.65597">
        <ele>550</ele>
        <time>2022-02-28T15:07:22Z</time>
      </trkpt>
      <trkpt lat="46.5408" lon="5.65596">
        <ele>550</ele>
        <time>2022-02-28T15:07:23Z</time>
      </trkpt>
      <trkpt lat="46.54084" lon="5.65594">
        <ele>550</ele>
        <time>2022-02-28T15:07:24Z</time>
      </trkpt>
      <trkpt lat="46.54084" lon="5.65594">
        <ele>550</ele>
        <time>2022-02-28T15:07:25Z</time>
      </trkpt>
      <trkpt lat="46.54088" lon="5.65593">
        <ele>550</ele>
        <time>2022-02-28T15:07:26Z</time>
      </trkpt>
      <trkpt lat="46.54091" lon="5.65592">
        <ele>549.8</ele>
        <time>2022-02-28T15:07:27Z</time>
      </trkpt>
      <trkpt lat="46.54096" lon="5.65591">
        <ele>549.8</ele>
        <time>2022-02-28T15:07:28Z</time>
      </trkpt>
      <trkpt lat="46.541" lon="5.65589">
        <ele>549.6</ele>
        <time>2022-02-28T15:07:29Z</time>
      </trkpt>
      <trkpt lat="46.54105" lon="5.65587">
        <ele>549.6</ele>
        <time>2022-02-28T15:07:30Z</time>
      </trkpt>
      <trkpt lat="46.5411" lon="5.65586">
        <ele>549.6</ele>
        <time>2022-02-28T15:07:31Z</time>
      </trkpt>
      <trkpt lat="46.54115" lon="5.65585">
        <ele>549.4</ele>
        <time>2022-02-28T15:07:32Z</time>
      </trkpt>
      <trkpt lat="46.5412" lon="5.65583">
        <ele>549.4</ele>
        <time>2022-02-28T15:07:33Z</time>
      </trkpt>
      <trkpt lat="46.54125" lon="5.65581">
        <ele>549</ele>
        <time>2022-02-28T15:07:34Z</time>
      </trkpt>
      <trkpt lat="46.54131" lon="5.6558">
        <ele>549</ele>
        <time>2022-02-28T15:07:35Z</time>
      </trkpt>
      <trkpt lat="46.54136" lon="5.65579">
        <ele>548.8</ele>
        <time>2022-02-28T15:07:36Z</time>
      </trkpt>
      <trkpt lat="46.54142" lon="5.65577">
        <ele>548.8</ele>
        <time>2022-02-28T15:07:37Z</time>
      </trkpt>
      <trkpt lat="46.54147" lon="5.65576">
        <ele>548.8</ele>
        <time>2022-02-28T15:07:38Z</time>
      </trkpt>
      <trkpt lat="46.54153" lon="5.65575">
        <ele>548.8</ele>
        <time>2022-02-28T15:07:39Z</time>
      </trkpt>
      <trkpt lat="46.54158" lon="5.65574">
        <ele>548.8</ele>
        <time>2022-02-28T15:07:40Z</time>
      </trkpt>
      <trkpt lat="46.54164" lon="5.65572">
        <ele>548.8</ele>
        <time>2022-02-28T15:07:41Z</time>
      </trkpt>
      <trkpt lat="46.54169" lon="5.65571">
        <ele>548.8</ele>
        <time>2022-02-28T15:07:42Z</time>
      </trkpt>
      <trkpt lat="46.54175" lon="5.65569">
        <ele>548.8</ele>
        <time>2022-02-28T15:07:43Z</time>
      </trkpt>
      <trkpt lat="46.5418" lon="5.65568">
        <ele>548.8</ele>
        <time>2022-02-28T15:07:44Z</time>
      </trkpt>
      <trkpt lat="46.54185" lon="5.65567">
        <ele>548.8</ele>
        <time>2022-02-28T15:07:45Z</time>
      </trkpt>
      <trkpt lat="46.5419" lon="5.65565">
        <ele>549.2</ele>
        <time>2022-02-28T15:07:46Z</time>
      </trkpt>
      <trkpt lat="46.54195" lon="5.65563">
        <ele>549.2</ele>
        <time>2022-02-28T15:07:47Z</time>
      </trkpt>
      <trkpt lat="46.542" lon="5.65561">
        <ele>549.4</ele>
        <time>2022-02-28T15:07:48Z</time>
      </trkpt>
      <trkpt lat="46.54204" lon="5.65559">
        <ele>549.4</ele>
        <time>2022-02-28T15:07:49Z</time>
      </trkpt>
      <trkpt lat="46.54209" lon="5.65557">
        <ele>549.4</ele>
        <time>2022-02-28T15:07:50Z</time>
      </trkpt>
      <trkpt lat="46.54213" lon="5.65554">
        <ele>549.6</ele>
        <time>2022-02-28T15:07:51Z</time>
      </trkpt>
      <trkpt lat="46.54218" lon="5.65551">
        <ele>549.6</ele>
        <time>2022-02-28T15:07:52Z</time>
      </trkpt>
      <trkpt lat="46.54223" lon="5.65548">
        <ele>549.4</ele>
        <time>2022-02-28T15:07:53Z</time>
      </trkpt>
      <trkpt lat="46.54228" lon="5.65545">
        <ele>549.4</ele>
        <time>2022-02-28T15:07:54Z</time>
      </trkpt>
      <trkpt lat="46.54233" lon="5.65542">
        <ele>549.4</ele>
        <time>2022-02-28T15:07:55Z</time>
      </trkpt>
      <trkpt lat="46.54238" lon="5.6554">
        <ele>549.4</ele>
        <time>2022-02-28T15:07:56Z</time>
      </trkpt>
      <trkpt lat="46.54243" lon="5.65538">
        <ele>549.4</ele>
        <time>2022-02-28T15:07:57Z</time>
      </trkpt>
      <trkpt lat="46.54248" lon="5.65536">
        <ele>549.4</ele>
        <time>2022-02-28T15:07:58Z</time>
      </trkpt>
      <trkpt lat="46.54253" lon="5.65535">
        <ele>549.4</ele>
        <time>2022-02-28T15:07:59Z</time>
      </trkpt>
      <trkpt lat="46.54258" lon="5.65534">
        <ele>549.6</ele>
        <time>2022-02-28T15:08:00Z</time>
      </trkpt>
      <trkpt lat="46.54263" lon="5.65533">
        <ele>549.6</ele>
        <time>2022-02-28T15:08:01Z</time>
      </trkpt>
      <trkpt lat="46.54268" lon="5.65532">
        <ele>549.6</ele>
        <time>2022-02-28T15:08:02Z</time>
      </trkpt>
      <trkpt lat="46.54272" lon="5.65531">
        <ele>549.8</ele>
        <time>2022-02-28T15:08:03Z</time>
      </trkpt>
      <trkpt lat="46.54277" lon="5.65529">
        <ele>549.8</ele>
        <time>2022-02-28T15:08:04Z</time>
      </trkpt>
      <trkpt lat="46.54282" lon="5.65528">
        <ele>549.8</ele>
        <time>2022-02-28T15:08:05Z</time>
      </trkpt>
      <trkpt lat="46.54286" lon="5.65526">
        <ele>549.8</ele>
        <time>2022-02-28T15:08:06Z</time>
      </trkpt>
      <trkpt lat="46.54291" lon="5.65525">
        <ele>549.8</ele>
        <time>2022-02-28T15:08:07Z</time>
      </trkpt>
      <trkpt lat="46.54296" lon="5.65522">
        <ele>549.8</ele>
        <time>2022-02-28T15:08:08Z</time>
      </trkpt>
      <trkpt lat="46.543" lon="5.6552">
        <ele>549.8</ele>
        <time>2022-02-28T15:08:09Z</time>
      </trkpt>
      <trkpt lat="46.54305" lon="5.65518">
        <ele>549.8</ele>
        <time>2022-02-28T15:08:10Z</time>
      </trkpt>
      <trkpt lat="46.5431" lon="5.65515">
        <ele>549.8</ele>
        <time>2022-02-28T15:08:11Z</time>
      </trkpt>
      <trkpt lat="46.54315" lon="5.65512">
        <ele>550</ele>
        <time>2022-02-28T15:08:12Z</time>
      </trkpt>
      <trkpt lat="46.5432" lon="5.65509">
        <ele>550</ele>
        <time>2022-02-28T15:08:13Z</time>
      </trkpt>
      <trkpt lat="46.54324" lon="5.65506">
        <ele>550</ele>
        <time>2022-02-28T15:08:14Z</time>
      </trkpt>
      <trkpt lat="46.54329" lon="5.65502">
        <ele>550</ele>
        <time>2022-02-28T15:08:15Z</time>
      </trkpt>
      <trkpt lat="46.54333" lon="5.65498">
        <ele>550</ele>
        <time>2022-02-28T15:08:16Z</time>
      </trkpt>
      <trkpt lat="46.54337" lon="5.65494">
        <ele>550.2</ele>
        <time>2022-02-28T15:08:17Z</time>
      </trkpt>
      <trkpt lat="46.5434" lon="5.65489">
        <ele>550.2</ele>
        <time>2022-02-28T15:08:18Z</time>
      </trkpt>
      <trkpt lat="46.54344" lon="5.65483">
        <ele>550.2</ele>
        <time>2022-02-28T15:08:19Z</time>
      </trkpt>
      <trkpt lat="46.54346" lon="5.65477">
        <ele>550.2</ele>
        <time>2022-02-28T15:08:20Z</time>
      </trkpt>
      <trkpt lat="46.54349" lon="5.6547">
        <ele>550.2</ele>
        <time>2022-02-28T15:08:21Z</time>
      </trkpt>
      <trkpt lat="46.54351" lon="5.65463">
        <ele>550.2</ele>
        <time>2022-02-28T15:08:22Z</time>
      </trkpt>
      <trkpt lat="46.54353" lon="5.65457">
        <ele>550.2</ele>
        <time>2022-02-28T15:08:23Z</time>
      </trkpt>
      <trkpt lat="46.54355" lon="5.6545">
        <ele>550.2</ele>
        <time>2022-02-28T15:08:24Z</time>
      </trkpt>
      <trkpt lat="46.54357" lon="5.65443">
        <ele>550.4</ele>
        <time>2022-02-28T15:08:25Z</time>
      </trkpt>
      <trkpt lat="46.54359" lon="5.65437">
        <ele>550.4</ele>
        <time>2022-02-28T15:08:26Z</time>
      </trkpt>
      <trkpt lat="46.54361" lon="5.65431">
        <ele>550.8</ele>
        <time>2022-02-28T15:08:27Z</time>
      </trkpt>
      <trkpt lat="46.54363" lon="5.65425">
        <ele>550.8</ele>
        <time>2022-02-28T15:08:28Z</time>
      </trkpt>
      <trkpt lat="46.54365" lon="5.65419">
        <ele>551</ele>
        <time>2022-02-28T15:08:29Z</time>
      </trkpt>
      <trkpt lat="46.54366" lon="5.65413">
        <ele>551</ele>
        <time>2022-02-28T15:08:30Z</time>
      </trkpt>
      <trkpt lat="46.54368" lon="5.65408">
        <ele>551.4</ele>
        <time>2022-02-28T15:08:31Z</time>
      </trkpt>
      <trkpt lat="46.54369" lon="5.65403">
        <ele>551.4</ele>
        <time>2022-02-28T15:08:32Z</time>
      </trkpt>
      <trkpt lat="46.54371" lon="5.65398">
        <ele>551.6</ele>
        <time>2022-02-28T15:08:33Z</time>
      </trkpt>
      <trkpt lat="46.54372" lon="5.65393">
        <ele>551.6</ele>
        <time>2022-02-28T15:08:34Z</time>
      </trkpt>
      <trkpt lat="46.54374" lon="5.65389">
        <ele>551.6</ele>
        <time>2022-02-28T15:08:35Z</time>
      </trkpt>
      <trkpt lat="46.54377" lon="5.65385">
        <ele>551.6</ele>
        <time>2022-02-28T15:08:36Z</time>
      </trkpt>
      <trkpt lat="46.54381" lon="5.65383">
        <ele>551.6</ele>
        <time>2022-02-28T15:08:37Z</time>
      </trkpt>
      <trkpt lat="46.54385" lon="5.65383">
        <ele>551.6</ele>
        <time>2022-02-28T15:08:38Z</time>
      </trkpt>
      <trkpt lat="46.5439" lon="5.65384">
        <ele>551.6</ele>
        <time>2022-02-28T15:08:39Z</time>
      </trkpt>
      <trkpt lat="46.54396" lon="5.65387">
        <ele>551.2</ele>
        <time>2022-02-28T15:08:40Z</time>
      </trkpt>
      <trkpt lat="46.54402" lon="5.6539">
        <ele>551</ele>
        <time>2022-02-28T15:08:41Z</time>
      </trkpt>
      <trkpt lat="46.54408" lon="5.65395">
        <ele>550.6</ele>
        <time>2022-02-28T15:08:42Z</time>
      </trkpt>
      <trkpt lat="46.54414" lon="5.65399">
        <ele>550.4</ele>
        <time>2022-02-28T15:08:43Z</time>
      </trkpt>
      <trkpt lat="46.5442" lon="5.65404">
        <ele>550.2</ele>
        <time>2022-02-28T15:08:44Z</time>
      </trkpt>
      <trkpt lat="46.54427" lon="5.65408">
        <ele>549.8</ele>
        <time>2022-02-28T15:08:45Z</time>
      </trkpt>
      <trkpt lat="46.54433" lon="5.65413">
        <ele>549.4</ele>
        <time>2022-02-28T15:08:46Z</time>
      </trkpt>
      <trkpt lat="46.5444" lon="5.65418">
        <ele>549</ele>
        <time>2022-02-28T15:08:47Z</time>
      </trkpt>
      <trkpt lat="46.54447" lon="5.65423">
        <ele>548.8</ele>
        <time>2022-02-28T15:08:48Z</time>
      </trkpt>
      <trkpt lat="46.54454" lon="5.65428">
        <ele>548.4</ele>
        <time>2022-02-28T15:08:49Z</time>
      </trkpt>
      <trkpt lat="46.54461" lon="5.65432">
        <ele>548.2</ele>
        <time>2022-02-28T15:08:50Z</time>
      </trkpt>
      <trkpt lat="46.54468" lon="5.65437">
        <ele>547.8</ele>
        <time>2022-02-28T15:08:51Z</time>
      </trkpt>
      <trkpt lat="46.54474" lon="5.65442">
        <ele>547.4</ele>
        <time>2022-02-28T15:08:52Z</time>
      </trkpt>
      <trkpt lat="46.54481" lon="5.65448">
        <ele>547.2</ele>
        <time>2022-02-28T15:08:53Z</time>
      </trkpt>
      <trkpt lat="46.54488" lon="5.65453">
        <ele>547</ele>
        <time>2022-02-28T15:08:54Z</time>
      </trkpt>
      <trkpt lat="46.54495" lon="5.65458">
        <ele>547</ele>
        <time>2022-02-28T15:08:55Z</time>
      </trkpt>
      <trkpt lat="46.54502" lon="5.65463">
        <ele>546.6</ele>
        <time>2022-02-28T15:08:56Z</time>
      </trkpt>
      <trkpt lat="46.54508" lon="5.65468">
        <ele>546.6</ele>
        <time>2022-02-28T15:08:57Z</time>
      </trkpt>
      <trkpt lat="46.54514" lon="5.65472">
        <ele>546.6</ele>
        <time>2022-02-28T15:08:58Z</time>
      </trkpt>
      <trkpt lat="46.5452" lon="5.65477">
        <ele>546.2</ele>
        <time>2022-02-28T15:08:59Z</time>
      </trkpt>
      <trkpt lat="46.54525" lon="5.65481">
        <ele>546.2</ele>
        <time>2022-02-28T15:09:00Z</time>
      </trkpt>
      <trkpt lat="46.54531" lon="5.65485">
        <ele>546.2</ele>
        <time>2022-02-28T15:09:01Z</time>
      </trkpt>
      <trkpt lat="46.54536" lon="5.65489">
        <ele>546.2</ele>
        <time>2022-02-28T15:09:02Z</time>
      </trkpt>
      <trkpt lat="46.54542" lon="5.65492">
        <ele>546.2</ele>
        <time>2022-02-28T15:09:03Z</time>
      </trkpt>
      <trkpt lat="46.54546" lon="5.65496">
        <ele>546.2</ele>
        <time>2022-02-28T15:09:04Z</time>
      </trkpt>
      <trkpt lat="46.54551" lon="5.655">
        <ele>546.2</ele>
        <time>2022-02-28T15:09:05Z</time>
      </trkpt>
      <trkpt lat="46.54556" lon="5.65503">
        <ele>546.2</ele>
        <time>2022-02-28T15:09:06Z</time>
      </trkpt>
      <trkpt lat="46.54561" lon="5.65506">
        <ele>546.2</ele>
        <time>2022-02-28T15:09:07Z</time>
      </trkpt>
      <trkpt lat="46.54565" lon="5.6551">
        <ele>546.2</ele>
        <time>2022-02-28T15:09:08Z</time>
      </trkpt>
      <trkpt lat="46.5457" lon="5.65512">
        <ele>546.2</ele>
        <time>2022-02-28T15:09:09Z</time>
      </trkpt>
      <trkpt lat="46.54575" lon="5.65515">
        <ele>546.2</ele>
        <time>2022-02-28T15:09:10Z</time>
      </trkpt>
      <trkpt lat="46.54579" lon="5.65518">
        <ele>546.2</ele>
        <time>2022-02-28T15:09:11Z</time>
      </trkpt>
      <trkpt lat="46.54584" lon="5.65521">
        <ele>546.4</ele>
        <time>2022-02-28T15:09:12Z</time>
      </trkpt>
      <trkpt lat="46.54588" lon="5.65523">
        <ele>546.4</ele>
        <time>2022-02-28T15:09:13Z</time>
      </trkpt>
      <trkpt lat="46.54593" lon="5.65526">
        <ele>546.4</ele>
        <time>2022-02-28T15:09:14Z</time>
      </trkpt>
      <trkpt lat="46.54598" lon="5.65528">
        <ele>546.4</ele>
        <time>2022-02-28T15:09:15Z</time>
      </trkpt>
      <trkpt lat="46.54603" lon="5.65531">
        <ele>546.4</ele>
        <time>2022-02-28T15:09:16Z</time>
      </trkpt>
      <trkpt lat="46.54608" lon="5.65532">
        <ele>546.4</ele>
        <time>2022-02-28T15:09:17Z</time>
      </trkpt>
      <trkpt lat="46.54612" lon="5.65534">
        <ele>546.4</ele>
        <time>2022-02-28T15:09:18Z</time>
      </trkpt>
      <trkpt lat="46.54617" lon="5.65536">
        <ele>546.8</ele>
        <time>2022-02-28T15:09:19Z</time>
      </trkpt>
      <trkpt lat="46.54621" lon="5.65538">
        <ele>546.8</ele>
        <time>2022-02-28T15:09:20Z</time>
      </trkpt>
      <trkpt lat="46.54624" lon="5.65542">
        <ele>546.8</ele>
        <time>2022-02-28T15:09:21Z</time>
      </trkpt>
      <trkpt lat="46.54627" lon="5.65545">
        <ele>547.2</ele>
        <time>2022-02-28T15:09:22Z</time>
      </trkpt>
      <trkpt lat="46.5463" lon="5.65547">
        <ele>547.2</ele>
        <time>2022-02-28T15:09:23Z</time>
      </trkpt>
      <trkpt lat="46.54633" lon="5.6555">
        <ele>547.4</ele>
        <time>2022-02-28T15:09:24Z</time>
      </trkpt>
      <trkpt lat="46.54636" lon="5.65552">
        <ele>547.4</ele>
        <time>2022-02-28T15:09:25Z</time>
      </trkpt>
      <trkpt lat="46.5464" lon="5.65554">
        <ele>547.6</ele>
        <time>2022-02-28T15:09:26Z</time>
      </trkpt>
      <trkpt lat="46.54643" lon="5.65556">
        <ele>547.6</ele>
        <time>2022-02-28T15:09:27Z</time>
      </trkpt>
      <trkpt lat="46.54646" lon="5.65558">
        <ele>548</ele>
        <time>2022-02-28T15:09:28Z</time>
      </trkpt>
      <trkpt lat="46.54649" lon="5.6556">
        <ele>548.2</ele>
        <time>2022-02-28T15:09:29Z</time>
      </trkpt>
      <trkpt lat="46.54652" lon="5.65561">
        <ele>548.2</ele>
        <time>2022-02-28T15:09:30Z</time>
      </trkpt>
      <trkpt lat="46.54655" lon="5.65563">
        <ele>548.6</ele>
        <time>2022-02-28T15:09:31Z</time>
      </trkpt>
      <trkpt lat="46.54659" lon="5.65564">
        <ele>548.6</ele>
        <time>2022-02-28T15:09:32Z</time>
      </trkpt>
      <trkpt lat="46.54662" lon="5.65566">
        <ele>549</ele>
        <time>2022-02-28T15:09:33Z</time>
      </trkpt>
      <trkpt lat="46.54665" lon="5.65567">
        <ele>549</ele>
        <time>2022-02-28T15:09:34Z</time>
      </trkpt>
      <trkpt lat="46.54668" lon="5.65567">
        <ele>549.4</ele>
        <time>2022-02-28T15:09:35Z</time>
      </trkpt>
      <trkpt lat="46.5467" lon="5.65568">
        <ele>549.6</ele>
        <time>2022-02-28T15:09:36Z</time>
      </trkpt>
      <trkpt lat="46.54673" lon="5.6557">
        <ele>549.8</ele>
        <time>2022-02-28T15:09:37Z</time>
      </trkpt>
      <trkpt lat="46.54676" lon="5.65571">
        <ele>549.8</ele>
        <time>2022-02-28T15:09:38Z</time>
      </trkpt>
      <trkpt lat="46.54679" lon="5.65572">
        <ele>550.2</ele>
        <time>2022-02-28T15:09:39Z</time>
      </trkpt>
      <trkpt lat="46.54681" lon="5.65573">
        <ele>550.4</ele>
        <time>2022-02-28T15:09:40Z</time>
      </trkpt>
      <trkpt lat="46.54684" lon="5.65574">
        <ele>550.8</ele>
        <time>2022-02-28T15:09:41Z</time>
      </trkpt>
      <trkpt lat="46.54686" lon="5.65575">
        <ele>551</ele>
        <time>2022-02-28T15:09:42Z</time>
      </trkpt>
      <trkpt lat="46.54689" lon="5.65576">
        <ele>551.4</ele>
        <time>2022-02-28T15:09:43Z</time>
      </trkpt>
      <trkpt lat="46.54692" lon="5.65576">
        <ele>551.8</ele>
        <time>2022-02-28T15:09:44Z</time>
      </trkpt>
      <trkpt lat="46.54694" lon="5.65577">
        <ele>552</ele>
        <time>2022-02-28T15:09:45Z</time>
      </trkpt>
      <trkpt lat="46.54697" lon="5.65578">
        <ele>552</ele>
        <time>2022-02-28T15:09:46Z</time>
      </trkpt>
      <trkpt lat="46.54699" lon="5.65578">
        <ele>552.2</ele>
        <time>2022-02-28T15:09:47Z</time>
      </trkpt>
      <trkpt lat="46.54701" lon="5.65579">
        <ele>552.6</ele>
        <time>2022-02-28T15:09:48Z</time>
      </trkpt>
      <trkpt lat="46.54703" lon="5.6558">
        <ele>552.8</ele>
        <time>2022-02-28T15:09:49Z</time>
      </trkpt>
      <trkpt lat="46.54705" lon="5.65581">
        <ele>553</ele>
        <time>2022-02-28T15:09:50Z</time>
      </trkpt>
      <trkpt lat="46.54708" lon="5.65581">
        <ele>553.4</ele>
        <time>2022-02-28T15:09:51Z</time>
      </trkpt>
      <trkpt lat="46.5471" lon="5.65581">
        <ele>553.6</ele>
        <time>2022-02-28T15:09:52Z</time>
      </trkpt>
      <trkpt lat="46.54712" lon="5.65582">
        <ele>553.8</ele>
        <time>2022-02-28T15:09:53Z</time>
      </trkpt>
      <trkpt lat="46.54714" lon="5.65582">
        <ele>554.2</ele>
        <time>2022-02-28T15:09:54Z</time>
      </trkpt>
      <trkpt lat="46.54716" lon="5.65583">
        <ele>554.4</ele>
        <time>2022-02-28T15:09:55Z</time>
      </trkpt>
      <trkpt lat="46.54718" lon="5.65584">
        <ele>554.6</ele>
        <time>2022-02-28T15:09:56Z</time>
      </trkpt>
      <trkpt lat="46.54721" lon="5.65585">
        <ele>554.8</ele>
        <time>2022-02-28T15:09:57Z</time>
      </trkpt>
      <trkpt lat="46.54722" lon="5.65586">
        <ele>555.2</ele>
        <time>2022-02-28T15:09:58Z</time>
      </trkpt>
      <trkpt lat="46.54724" lon="5.65587">
        <ele>555.2</ele>
        <time>2022-02-28T15:09:59Z</time>
      </trkpt>
      <trkpt lat="46.54725" lon="5.65588">
        <ele>555.6</ele>
        <time>2022-02-28T15:10:00Z</time>
      </trkpt>
      <trkpt lat="46.54727" lon="5.65589">
        <ele>555.8</ele>
        <time>2022-02-28T15:10:01Z</time>
      </trkpt>
      <trkpt lat="46.54728" lon="5.6559">
        <ele>556.2</ele>
        <time>2022-02-28T15:10:02Z</time>
      </trkpt>
      <trkpt lat="46.5473" lon="5.6559">
        <ele>556.4</ele>
        <time>2022-02-28T15:10:03Z</time>
      </trkpt>
      <trkpt lat="46.54731" lon="5.65591">
        <ele>556.6</ele>
        <time>2022-02-28T15:10:04Z</time>
      </trkpt>
      <trkpt lat="46.54733" lon="5.65592">
        <ele>557</ele>
        <time>2022-02-28T15:10:05Z</time>
      </trkpt>
      <trkpt lat="46.54735" lon="5.65592">
        <ele>557.4</ele>
        <time>2022-02-28T15:10:06Z</time>
      </trkpt>
      <trkpt lat="46.54737" lon="5.65592">
        <ele>557.6</ele>
        <time>2022-02-28T15:10:07Z</time>
      </trkpt>
      <trkpt lat="46.54738" lon="5.65593">
        <ele>557.6</ele>
        <time>2022-02-28T15:10:08Z</time>
      </trkpt>
      <trkpt lat="46.5474" lon="5.65593">
        <ele>558</ele>
        <time>2022-02-28T15:10:09Z</time>
      </trkpt>
      <trkpt lat="46.54742" lon="5.65594">
        <ele>558.4</ele>
        <time>2022-02-28T15:10:10Z</time>
      </trkpt>
      <trkpt lat="46.54743" lon="5.65595">
        <ele>558.6</ele>
        <time>2022-02-28T15:10:11Z</time>
      </trkpt>
      <trkpt lat="46.54745" lon="5.65596">
        <ele>558.8</ele>
        <time>2022-02-28T15:10:12Z</time>
      </trkpt>
      <trkpt lat="46.54747" lon="5.65597">
        <ele>559</ele>
        <time>2022-02-28T15:10:13Z</time>
      </trkpt>
      <trkpt lat="46.54749" lon="5.65598">
        <ele>559.2</ele>
        <time>2022-02-28T15:10:14Z</time>
      </trkpt>
      <trkpt lat="46.54752" lon="5.65599">
        <ele>559.8</ele>
        <time>2022-02-28T15:10:15Z</time>
      </trkpt>
      <trkpt lat="46.54754" lon="5.65601">
        <ele>560</ele>
        <time>2022-02-28T15:10:16Z</time>
      </trkpt>
      <trkpt lat="46.54756" lon="5.65602">
        <ele>560.4</ele>
        <time>2022-02-28T15:10:17Z</time>
      </trkpt>
      <trkpt lat="46.54759" lon="5.65602">
        <ele>560.6</ele>
        <time>2022-02-28T15:10:18Z</time>
      </trkpt>
      <trkpt lat="46.54761" lon="5.65603">
        <ele>560.8</ele>
        <time>2022-02-28T15:10:19Z</time>
      </trkpt>
      <trkpt lat="46.54764" lon="5.65604">
        <ele>561.2</ele>
        <time>2022-02-28T15:10:20Z</time>
      </trkpt>
      <trkpt lat="46.54766" lon="5.65605">
        <ele>561.4</ele>
        <time>2022-02-28T15:10:21Z</time>
      </trkpt>
      <trkpt lat="46.54769" lon="5.65606">
        <ele>561.4</ele>
        <time>2022-02-28T15:10:22Z</time>
      </trkpt>
      <trkpt lat="46.54771" lon="5.65607">
        <ele>561.8</ele>
        <time>2022-02-28T15:10:23Z</time>
      </trkpt>
      <trkpt lat="46.54773" lon="5.65608">
        <ele>562</ele>
        <time>2022-02-28T15:10:24Z</time>
      </trkpt>
      <trkpt lat="46.54776" lon="5.65609">
        <ele>562</ele>
        <time>2022-02-28T15:10:25Z</time>
      </trkpt>
      <trkpt lat="46.54778" lon="5.65611">
        <ele>562.4</ele>
        <time>2022-02-28T15:10:26Z</time>
      </trkpt>
      <trkpt lat="46.5478" lon="5.65612">
        <ele>562.4</ele>
        <time>2022-02-28T15:10:27Z</time>
      </trkpt>
      <trkpt lat="46.54783" lon="5.65612">
        <ele>562.8</ele>
        <time>2022-02-28T15:10:28Z</time>
      </trkpt>
      <trkpt lat="46.54785" lon="5.65613">
        <ele>562.8</ele>
        <time>2022-02-28T15:10:29Z</time>
      </trkpt>
      <trkpt lat="46.54787" lon="5.65614">
        <ele>563.2</ele>
        <time>2022-02-28T15:10:30Z</time>
      </trkpt>
      <trkpt lat="46.54789" lon="5.65615">
        <ele>563.2</ele>
        <time>2022-02-28T15:10:31Z</time>
      </trkpt>
      <trkpt lat="46.54791" lon="5.65617">
        <ele>563.4</ele>
        <time>2022-02-28T15:10:32Z</time>
      </trkpt>
      <trkpt lat="46.54793" lon="5.65618">
        <ele>563.4</ele>
        <time>2022-02-28T15:10:33Z</time>
      </trkpt>
      <trkpt lat="46.54795" lon="5.65619">
        <ele>563.8</ele>
        <time>2022-02-28T15:10:34Z</time>
      </trkpt>
      <trkpt lat="46.54797" lon="5.65619">
        <ele>563.8</ele>
        <time>2022-02-28T15:10:35Z</time>
      </trkpt>
      <trkpt lat="46.54799" lon="5.65619">
        <ele>564.2</ele>
        <time>2022-02-28T15:10:36Z</time>
      </trkpt>
      <trkpt lat="46.54801" lon="5.6562">
        <ele>564.4</ele>
        <time>2022-02-28T15:10:37Z</time>
      </trkpt>
      <trkpt lat="46.54802" lon="5.65621">
        <ele>564.4</ele>
        <time>2022-02-28T15:10:38Z</time>
      </trkpt>
      <trkpt lat="46.54804" lon="5.65621">
        <ele>564.8</ele>
        <time>2022-02-28T15:10:39Z</time>
      </trkpt>
      <trkpt lat="46.54806" lon="5.65622">
        <ele>564.8</ele>
        <time>2022-02-28T15:10:40Z</time>
      </trkpt>
      <trkpt lat="46.54808" lon="5.65623">
        <ele>565.2</ele>
        <time>2022-02-28T15:10:41Z</time>
      </trkpt>
      <trkpt lat="46.5481" lon="5.65624">
        <ele>565.2</ele>
        <time>2022-02-28T15:10:42Z</time>
      </trkpt>
      <trkpt lat="46.54812" lon="5.65625">
        <ele>565.4</ele>
        <time>2022-02-28T15:10:43Z</time>
      </trkpt>
      <trkpt lat="46.54814" lon="5.65626">
        <ele>565.4</ele>
        <time>2022-02-28T15:10:44Z</time>
      </trkpt>
      <trkpt lat="46.54816" lon="5.65627">
        <ele>565.6</ele>
        <time>2022-02-28T15:10:45Z</time>
      </trkpt>
      <trkpt lat="46.54818" lon="5.65628">
        <ele>565.6</ele>
        <time>2022-02-28T15:10:46Z</time>
      </trkpt>
      <trkpt lat="46.5482" lon="5.65629">
        <ele>565.6</ele>
        <time>2022-02-28T15:10:47Z</time>
      </trkpt>
      <trkpt lat="46.54823" lon="5.65629">
        <ele>565.8</ele>
        <time>2022-02-28T15:10:48Z</time>
      </trkpt>
      <trkpt lat="46.54825" lon="5.6563">
        <ele>565.8</ele>
        <time>2022-02-28T15:10:49Z</time>
      </trkpt>
      <trkpt lat="46.54827" lon="5.65631">
        <ele>566.2</ele>
        <time>2022-02-28T15:10:50Z</time>
      </trkpt>
      <trkpt lat="46.54829" lon="5.65633">
        <ele>566.2</ele>
        <time>2022-02-28T15:10:51Z</time>
      </trkpt>
      <trkpt lat="46.54831" lon="5.65634">
        <ele>566.4</ele>
        <time>2022-02-28T15:10:52Z</time>
      </trkpt>
      <trkpt lat="46.54833" lon="5.65635">
        <ele>566.4</ele>
        <time>2022-02-28T15:10:53Z</time>
      </trkpt>
      <trkpt lat="46.54836" lon="5.65636">
        <ele>566.4</ele>
        <time>2022-02-28T15:10:54Z</time>
      </trkpt>
      <trkpt lat="46.54838" lon="5.65638">
        <ele>566.4</ele>
        <time>2022-02-28T15:10:55Z</time>
      </trkpt>
      <trkpt lat="46.54841" lon="5.65639">
        <ele>566.4</ele>
        <time>2022-02-28T15:10:56Z</time>
      </trkpt>
      <trkpt lat="46.54844" lon="5.65641">
        <ele>566.4</ele>
        <time>2022-02-28T15:10:57Z</time>
      </trkpt>
      <trkpt lat="46.54847" lon="5.65642">
        <ele>566.6</ele>
        <time>2022-02-28T15:10:58Z</time>
      </trkpt>
      <trkpt lat="46.5485" lon="5.65644">
        <ele>566.6</ele>
        <time>2022-02-28T15:10:59Z</time>
      </trkpt>
      <trkpt lat="46.54853" lon="5.65645">
        <ele>566.6</ele>
        <time>2022-02-28T15:11:00Z</time>
      </trkpt>
      <trkpt lat="46.54857" lon="5.65646">
        <ele>566.6</ele>
        <time>2022-02-28T15:11:01Z</time>
      </trkpt>
      <trkpt lat="46.5486" lon="5.65648">
        <ele>566.6</ele>
        <time>2022-02-28T15:11:02Z</time>
      </trkpt>
      <trkpt lat="46.54863" lon="5.65649">
        <ele>567</ele>
        <time>2022-02-28T15:11:03Z</time>
      </trkpt>
      <trkpt lat="46.54866" lon="5.65651">
        <ele>567</ele>
        <time>2022-02-28T15:11:04Z</time>
      </trkpt>
      <trkpt lat="46.54869" lon="5.65652">
        <ele>567.2</ele>
        <time>2022-02-28T15:11:05Z</time>
      </trkpt>
      <trkpt lat="46.54872" lon="5.65654">
        <ele>567.2</ele>
        <time>2022-02-28T15:11:06Z</time>
      </trkpt>
      <trkpt lat="46.54875" lon="5.65655">
        <ele>567.4</ele>
        <time>2022-02-28T15:11:07Z</time>
      </trkpt>
      <trkpt lat="46.54878" lon="5.65657">
        <ele>567.4</ele>
        <time>2022-02-28T15:11:08Z</time>
      </trkpt>
      <trkpt lat="46.54881" lon="5.65658">
        <ele>567.4</ele>
        <time>2022-02-28T15:11:09Z</time>
      </trkpt>
      <trkpt lat="46.54884" lon="5.65659">
        <ele>567.4</ele>
        <time>2022-02-28T15:11:10Z</time>
      </trkpt>
      <trkpt lat="46.54887" lon="5.6566">
        <ele>567.6</ele>
        <time>2022-02-28T15:11:11Z</time>
      </trkpt>
      <trkpt lat="46.5489" lon="5.65661">
        <ele>567.6</ele>
        <time>2022-02-28T15:11:12Z</time>
      </trkpt>
      <trkpt lat="46.54893" lon="5.65662">
        <ele>568</ele>
        <time>2022-02-28T15:11:13Z</time>
      </trkpt>
      <trkpt lat="46.54896" lon="5.65664">
        <ele>568</ele>
        <time>2022-02-28T15:11:14Z</time>
      </trkpt>
      <trkpt lat="46.54899" lon="5.65666">
        <ele>568.2</ele>
        <time>2022-02-28T15:11:15Z</time>
      </trkpt>
      <trkpt lat="46.54902" lon="5.65667">
        <ele>568.2</ele>
        <time>2022-02-28T15:11:16Z</time>
      </trkpt>
      <trkpt lat="46.54905" lon="5.65669">
        <ele>568.2</ele>
        <time>2022-02-28T15:11:17Z</time>
      </trkpt>
      <trkpt lat="46.54908" lon="5.65671">
        <ele>568.2</ele>
        <time>2022-02-28T15:11:18Z</time>
      </trkpt>
      <trkpt lat="46.54911" lon="5.65673">
        <ele>568.4</ele>
        <time>2022-02-28T15:11:19Z</time>
      </trkpt>
      <trkpt lat="46.54914" lon="5.65674">
        <ele>568.4</ele>
        <time>2022-02-28T15:11:20Z</time>
      </trkpt>
      <trkpt lat="46.54918" lon="5.65676">
        <ele>568.4</ele>
        <time>2022-02-28T15:11:21Z</time>
      </trkpt>
      <trkpt lat="46.54921" lon="5.65677">
        <ele>568.6</ele>
        <time>2022-02-28T15:11:22Z</time>
      </trkpt>
      <trkpt lat="46.54924" lon="5.65679">
        <ele>568.6</ele>
        <time>2022-02-28T15:11:23Z</time>
      </trkpt>
      <trkpt lat="46.54926" lon="5.65682">
        <ele>568.8</ele>
        <time>2022-02-28T15:11:24Z</time>
      </trkpt>
      <trkpt lat="46.54932" lon="5.65686">
        <ele>568.8</ele>
        <time>2022-02-28T15:11:25Z</time>
      </trkpt>
      <trkpt lat="46.54935" lon="5.65688">
        <ele>568.8</ele>
        <time>2022-02-28T15:11:26Z</time>
      </trkpt>
      <trkpt lat="46.54938" lon="5.6569">
        <ele>568.8</ele>
        <time>2022-02-28T15:11:27Z</time>
      </trkpt>
      <trkpt lat="46.54941" lon="5.65693">
        <ele>569.2</ele>
        <time>2022-02-28T15:11:28Z</time>
      </trkpt>
      <trkpt lat="46.54944" lon="5.65695">
        <ele>569.2</ele>
        <time>2022-02-28T15:11:29Z</time>
      </trkpt>
      <trkpt lat="46.54947" lon="5.65697">
        <ele>569.2</ele>
        <time>2022-02-28T15:11:30Z</time>
      </trkpt>
      <trkpt lat="46.5495" lon="5.65699">
        <ele>569.4</ele>
        <time>2022-02-28T15:11:31Z</time>
      </trkpt>
      <trkpt lat="46.54953" lon="5.65701">
        <ele>569.4</ele>
        <time>2022-02-28T15:11:32Z</time>
      </trkpt>
      <trkpt lat="46.54957" lon="5.65704">
        <ele>569.4</ele>
        <time>2022-02-28T15:11:33Z</time>
      </trkpt>
      <trkpt lat="46.5496" lon="5.65706">
        <ele>569.4</ele>
        <time>2022-02-28T15:11:34Z</time>
      </trkpt>
      <trkpt lat="46.54964" lon="5.65707">
        <ele>569.4</ele>
        <time>2022-02-28T15:11:35Z</time>
      </trkpt>
      <trkpt lat="46.54967" lon="5.65709">
        <ele>569.4</ele>
        <time>2022-02-28T15:11:36Z</time>
      </trkpt>
      <trkpt lat="46.5497" lon="5.65713">
        <ele>569.4</ele>
        <time>2022-02-28T15:11:37Z</time>
      </trkpt>
      <trkpt lat="46.54974" lon="5.65716">
        <ele>569.4</ele>
        <time>2022-02-28T15:11:38Z</time>
      </trkpt>
      <trkpt lat="46.54978" lon="5.6572">
        <ele>569</ele>
        <time>2022-02-28T15:11:39Z</time>
      </trkpt>
      <trkpt lat="46.54982" lon="5.65724">
        <ele>568.8</ele>
        <time>2022-02-28T15:11:40Z</time>
      </trkpt>
      <trkpt lat="46.54982" lon="5.65724">
        <ele>568.6</ele>
        <time>2022-02-28T15:11:41Z</time>
      </trkpt>
      <trkpt lat="46.54986" lon="5.65728">
        <ele>568.4</ele>
        <time>2022-02-28T15:11:42Z</time>
      </trkpt>
      <trkpt lat="46.54991" lon="5.65734">
        <ele>568</ele>
        <time>2022-02-28T15:11:43Z</time>
      </trkpt>
      <trkpt lat="46.54995" lon="5.65741">
        <ele>567.4</ele>
        <time>2022-02-28T15:11:44Z</time>
      </trkpt>
      <trkpt lat="46.55" lon="5.65748">
        <ele>566.8</ele>
        <time>2022-02-28T15:11:45Z</time>
      </trkpt>
      <trkpt lat="46.55004" lon="5.65755">
        <ele>566.2</ele>
        <time>2022-02-28T15:11:46Z</time>
      </trkpt>
      <trkpt lat="46.55009" lon="5.65762">
        <ele>565.6</ele>
        <time>2022-02-28T15:11:47Z</time>
      </trkpt>
      <trkpt lat="46.55015" lon="5.65768">
        <ele>564.4</ele>
        <time>2022-02-28T15:11:48Z</time>
      </trkpt>
      <trkpt lat="46.55022" lon="5.65774">
        <ele>563.2</ele>
        <time>2022-02-28T15:11:49Z</time>
      </trkpt>
      <trkpt lat="46.5503" lon="5.65781">
        <ele>562</ele>
        <time>2022-02-28T15:11:50Z</time>
      </trkpt>
      <trkpt lat="46.5504" lon="5.65788">
        <ele>560.6</ele>
        <time>2022-02-28T15:11:51Z</time>
      </trkpt>
      <trkpt lat="46.55052" lon="5.65795">
        <ele>559</ele>
        <time>2022-02-28T15:11:52Z</time>
      </trkpt>
      <trkpt lat="46.55064" lon="5.65803">
        <ele>557.2</ele>
        <time>2022-02-28T15:11:53Z</time>
      </trkpt>
      <trkpt lat="46.55075" lon="5.65811">
        <ele>555.6</ele>
        <time>2022-02-28T15:11:54Z</time>
      </trkpt>
      <trkpt lat="46.55087" lon="5.65819">
        <ele>553.8</ele>
        <time>2022-02-28T15:11:55Z</time>
      </trkpt>
      <trkpt lat="46.55099" lon="5.65827">
        <ele>552</ele>
        <time>2022-02-28T15:11:56Z</time>
      </trkpt>
      <trkpt lat="46.55111" lon="5.65834">
        <ele>550.4</ele>
        <time>2022-02-28T15:11:57Z</time>
      </trkpt>
      <trkpt lat="46.55123" lon="5.65841">
        <ele>548.8</ele>
        <time>2022-02-28T15:11:58Z</time>
      </trkpt>
      <trkpt lat="46.55136" lon="5.65848">
        <ele>547.2</ele>
        <time>2022-02-28T15:11:59Z</time>
      </trkpt>
      <trkpt lat="46.5515" lon="5.65855">
        <ele>545.6</ele>
        <time>2022-02-28T15:12:00Z</time>
      </trkpt>
      <trkpt lat="46.55163" lon="5.65862">
        <ele>544</ele>
        <time>2022-02-28T15:12:01Z</time>
      </trkpt>
      <trkpt lat="46.55176" lon="5.6587">
        <ele>542.2</ele>
        <time>2022-02-28T15:12:02Z</time>
      </trkpt>
      <trkpt lat="46.5519" lon="5.65877">
        <ele>540.8</ele>
        <time>2022-02-28T15:12:03Z</time>
      </trkpt>
      <trkpt lat="46.55203" lon="5.65884">
        <ele>539.2</ele>
        <time>2022-02-28T15:12:04Z</time>
      </trkpt>
      <trkpt lat="46.55216" lon="5.65892">
        <ele>537.4</ele>
        <time>2022-02-28T15:12:05Z</time>
      </trkpt>
      <trkpt lat="46.5523" lon="5.65898">
        <ele>536</ele>
        <time>2022-02-28T15:12:06Z</time>
      </trkpt>
      <trkpt lat="46.55243" lon="5.65904">
        <ele>534.4</ele>
        <time>2022-02-28T15:12:07Z</time>
      </trkpt>
      <trkpt lat="46.55254" lon="5.65908">
        <ele>533</ele>
        <time>2022-02-28T15:12:08Z</time>
      </trkpt>
      <trkpt lat="46.55264" lon="5.6591">
        <ele>531.8</ele>
        <time>2022-02-28T15:12:09Z</time>
      </trkpt>
      <trkpt lat="46.55274" lon="5.65913">
        <ele>530.6</ele>
        <time>2022-02-28T15:12:10Z</time>
      </trkpt>
      <trkpt lat="46.55284" lon="5.65916">
        <ele>529.6</ele>
        <time>2022-02-28T15:12:11Z</time>
      </trkpt>
      <trkpt lat="46.55293" lon="5.65919">
        <ele>529</ele>
        <time>2022-02-28T15:12:12Z</time>
      </trkpt>
      <trkpt lat="46.55301" lon="5.65924">
        <ele>528.4</ele>
        <time>2022-02-28T15:12:13Z</time>
      </trkpt>
      <trkpt lat="46.5531" lon="5.65928">
        <ele>527.8</ele>
        <time>2022-02-28T15:12:14Z</time>
      </trkpt>
      <trkpt lat="46.55317" lon="5.65931">
        <ele>527.4</ele>
        <time>2022-02-28T15:12:15Z</time>
      </trkpt>
      <trkpt lat="46.55323" lon="5.65935">
        <ele>527.2</ele>
        <time>2022-02-28T15:12:16Z</time>
      </trkpt>
      <trkpt lat="46.55329" lon="5.65938">
        <ele>526.8</ele>
        <time>2022-02-28T15:12:17Z</time>
      </trkpt>
      <trkpt lat="46.55333" lon="5.65942">
        <ele>526.6</ele>
        <time>2022-02-28T15:12:18Z</time>
      </trkpt>
      <trkpt lat="46.55337" lon="5.65945">
        <ele>526.6</ele>
        <time>2022-02-28T15:12:19Z</time>
      </trkpt>
      <trkpt lat="46.5534" lon="5.65949">
        <ele>526.4</ele>
        <time>2022-02-28T15:12:20Z</time>
      </trkpt>
      <trkpt lat="46.55343" lon="5.65952">
        <ele>526.4</ele>
        <time>2022-02-28T15:12:21Z</time>
      </trkpt>
      <trkpt lat="46.55345" lon="5.65955">
        <ele>526</ele>
        <time>2022-02-28T15:12:22Z</time>
      </trkpt>
      <trkpt lat="46.55347" lon="5.6596">
        <ele>525.6</ele>
        <time>2022-02-28T15:12:23Z</time>
      </trkpt>
      <trkpt lat="46.55349" lon="5.65965">
        <ele>525.2</ele>
        <time>2022-02-28T15:12:24Z</time>
      </trkpt>
      <trkpt lat="46.5535" lon="5.65971">
        <ele>524.6</ele>
        <time>2022-02-28T15:12:25Z</time>
      </trkpt>
      <trkpt lat="46.5535" lon="5.65977">
        <ele>524</ele>
        <time>2022-02-28T15:12:26Z</time>
      </trkpt>
      <trkpt lat="46.55348" lon="5.65981">
        <ele>523.4</ele>
        <time>2022-02-28T15:12:27Z</time>
      </trkpt>
      <trkpt lat="46.55344" lon="5.65985">
        <ele>522.8</ele>
        <time>2022-02-28T15:12:28Z</time>
      </trkpt>
      <trkpt lat="46.55339" lon="5.65985">
        <ele>522.4</ele>
        <time>2022-02-28T15:12:29Z</time>
      </trkpt>
      <trkpt lat="46.55333" lon="5.65985">
        <ele>521.8</ele>
        <time>2022-02-28T15:12:30Z</time>
      </trkpt>
      <trkpt lat="46.55327" lon="5.65985">
        <ele>521.2</ele>
        <time>2022-02-28T15:12:31Z</time>
      </trkpt>
      <trkpt lat="46.55319" lon="5.65985">
        <ele>520.4</ele>
        <time>2022-02-28T15:12:32Z</time>
      </trkpt>
      <trkpt lat="46.55312" lon="5.65988">
        <ele>519.6</ele>
        <time>2022-02-28T15:12:33Z</time>
      </trkpt>
      <trkpt lat="46.55305" lon="5.65991">
        <ele>519</ele>
        <time>2022-02-28T15:12:34Z</time>
      </trkpt>
      <trkpt lat="46.55298" lon="5.65998">
        <ele>518</ele>
        <time>2022-02-28T15:12:35Z</time>
      </trkpt>
      <trkpt lat="46.55292" lon="5.66006">
        <ele>517.2</ele>
        <time>2022-02-28T15:12:36Z</time>
      </trkpt>
      <trkpt lat="46.55286" lon="5.66017">
        <ele>516.6</ele>
        <time>2022-02-28T15:12:37Z</time>
      </trkpt>
      <trkpt lat="46.5528" lon="5.66028">
        <ele>515.8</ele>
        <time>2022-02-28T15:12:38Z</time>
      </trkpt>
      <trkpt lat="46.55272" lon="5.66039">
        <ele>515</ele>
        <time>2022-02-28T15:12:39Z</time>
      </trkpt>
      <trkpt lat="46.55264" lon="5.66049">
        <ele>514.4</ele>
        <time>2022-02-28T15:12:40Z</time>
      </trkpt>
      <trkpt lat="46.55256" lon="5.66058">
        <ele>513.6</ele>
        <time>2022-02-28T15:12:41Z</time>
      </trkpt>
      <trkpt lat="46.5525" lon="5.66066">
        <ele>513</ele>
        <time>2022-02-28T15:12:42Z</time>
      </trkpt>
      <trkpt lat="46.55244" lon="5.66075">
        <ele>512.4</ele>
        <time>2022-02-28T15:12:43Z</time>
      </trkpt>
      <trkpt lat="46.55239" lon="5.66084">
        <ele>512</ele>
        <time>2022-02-28T15:12:44Z</time>
      </trkpt>
      <trkpt lat="46.55235" lon="5.66093">
        <ele>511.8</ele>
        <time>2022-02-28T15:12:45Z</time>
      </trkpt>
      <trkpt lat="46.55232" lon="5.66104">
        <ele>511.6</ele>
        <time>2022-02-28T15:12:46Z</time>
      </trkpt>
      <trkpt lat="46.55231" lon="5.66114">
        <ele>511.4</ele>
        <time>2022-02-28T15:12:47Z</time>
      </trkpt>
      <trkpt lat="46.5523" lon="5.66123">
        <ele>511</ele>
        <time>2022-02-28T15:12:48Z</time>
      </trkpt>
      <trkpt lat="46.55229" lon="5.66133">
        <ele>510.8</ele>
        <time>2022-02-28T15:12:49Z</time>
      </trkpt>
      <trkpt lat="46.55229" lon="5.6614">
        <ele>510.6</ele>
        <time>2022-02-28T15:12:50Z</time>
      </trkpt>
      <trkpt lat="46.55227" lon="5.66147">
        <ele>510.2</ele>
        <time>2022-02-28T15:12:51Z</time>
      </trkpt>
      <trkpt lat="46.55224" lon="5.66154">
        <ele>510</ele>
        <time>2022-02-28T15:12:52Z</time>
      </trkpt>
      <trkpt lat="46.5522" lon="5.6616">
        <ele>509.8</ele>
        <time>2022-02-28T15:12:53Z</time>
      </trkpt>
      <trkpt lat="46.55215" lon="5.66166">
        <ele>509.4</ele>
        <time>2022-02-28T15:12:54Z</time>
      </trkpt>
      <trkpt lat="46.55211" lon="5.66172">
        <ele>509.2</ele>
        <time>2022-02-28T15:12:55Z</time>
      </trkpt>
      <trkpt lat="46.55206" lon="5.66179">
        <ele>508.8</ele>
        <time>2022-02-28T15:12:56Z</time>
      </trkpt>
      <trkpt lat="46.55202" lon="5.66186">
        <ele>508.6</ele>
        <time>2022-02-28T15:12:57Z</time>
      </trkpt>
      <trkpt lat="46.55197" lon="5.66194">
        <ele>508.4</ele>
        <time>2022-02-28T15:12:58Z</time>
      </trkpt>
      <trkpt lat="46.55193" lon="5.66201">
        <ele>508</ele>
        <time>2022-02-28T15:12:59Z</time>
      </trkpt>
      <trkpt lat="46.55189" lon="5.66209">
        <ele>507.8</ele>
        <time>2022-02-28T15:13:00Z</time>
      </trkpt>
      <trkpt lat="46.55184" lon="5.66217">
        <ele>507.6</ele>
        <time>2022-02-28T15:13:01Z</time>
      </trkpt>
      <trkpt lat="46.5518" lon="5.66225">
        <ele>507.2</ele>
        <time>2022-02-28T15:13:02Z</time>
      </trkpt>
      <trkpt lat="46.55177" lon="5.66236">
        <ele>507</ele>
        <time>2022-02-28T15:13:03Z</time>
      </trkpt>
      <trkpt lat="46.55175" lon="5.66247">
        <ele>506.6</ele>
        <time>2022-02-28T15:13:04Z</time>
      </trkpt>
      <trkpt lat="46.55173" lon="5.66259">
        <ele>506.2</ele>
        <time>2022-02-28T15:13:05Z</time>
      </trkpt>
      <trkpt lat="46.55173" lon="5.66271">
        <ele>505.8</ele>
        <time>2022-02-28T15:13:06Z</time>
      </trkpt>
      <trkpt lat="46.55173" lon="5.66283">
        <ele>505.4</ele>
        <time>2022-02-28T15:13:07Z</time>
      </trkpt>
      <trkpt lat="46.55175" lon="5.66296">
        <ele>504.8</ele>
        <time>2022-02-28T15:13:08Z</time>
      </trkpt>
      <trkpt lat="46.55177" lon="5.66309">
        <ele>504.2</ele>
        <time>2022-02-28T15:13:09Z</time>
      </trkpt>
      <trkpt lat="46.5518" lon="5.66322">
        <ele>503.8</ele>
        <time>2022-02-28T15:13:10Z</time>
      </trkpt>
      <trkpt lat="46.55183" lon="5.66337">
        <ele>503.2</ele>
        <time>2022-02-28T15:13:11Z</time>
      </trkpt>
      <trkpt lat="46.55186" lon="5.66351">
        <ele>502.6</ele>
        <time>2022-02-28T15:13:12Z</time>
      </trkpt>
      <trkpt lat="46.55187" lon="5.66366">
        <ele>502.2</ele>
        <time>2022-02-28T15:13:13Z</time>
      </trkpt>
      <trkpt lat="46.55187" lon="5.6638">
        <ele>501.8</ele>
        <time>2022-02-28T15:13:14Z</time>
      </trkpt>
      <trkpt lat="46.55186" lon="5.66392">
        <ele>501.4</ele>
        <time>2022-02-28T15:13:15Z</time>
      </trkpt>
      <trkpt lat="46.55185" lon="5.66406">
        <ele>501</ele>
        <time>2022-02-28T15:13:16Z</time>
      </trkpt>
      <trkpt lat="46.55185" lon="5.66421">
        <ele>500.6</ele>
        <time>2022-02-28T15:13:17Z</time>
      </trkpt>
      <trkpt lat="46.55185" lon="5.66437">
        <ele>500.4</ele>
        <time>2022-02-28T15:13:18Z</time>
      </trkpt>
      <trkpt lat="46.55185" lon="5.66452">
        <ele>500.4</ele>
        <time>2022-02-28T15:13:19Z</time>
      </trkpt>
      <trkpt lat="46.55185" lon="5.66465">
        <ele>500</ele>
        <time>2022-02-28T15:13:20Z</time>
      </trkpt>
      <trkpt lat="46.55186" lon="5.66477">
        <ele>500</ele>
        <time>2022-02-28T15:13:21Z</time>
      </trkpt>
      <trkpt lat="46.55185" lon="5.66489">
        <ele>500</ele>
        <time>2022-02-28T15:13:22Z</time>
      </trkpt>
      <trkpt lat="46.55183" lon="5.66501">
        <ele>499.8</ele>
        <time>2022-02-28T15:13:23Z</time>
      </trkpt>
      <trkpt lat="46.55182" lon="5.66513">
        <ele>499.8</ele>
        <time>2022-02-28T15:13:24Z</time>
      </trkpt>
      <trkpt lat="46.55181" lon="5.66525">
        <ele>499.8</ele>
        <time>2022-02-28T15:13:25Z</time>
      </trkpt>
      <trkpt lat="46.5518" lon="5.66537">
        <ele>499.8</ele>
        <time>2022-02-28T15:13:26Z</time>
      </trkpt>
      <trkpt lat="46.55178" lon="5.66549">
        <ele>499.8</ele>
        <time>2022-02-28T15:13:27Z</time>
      </trkpt>
      <trkpt lat="46.55177" lon="5.66559">
        <ele>499.8</ele>
        <time>2022-02-28T15:13:28Z</time>
      </trkpt>
      <trkpt lat="46.55175" lon="5.6657">
        <ele>499.8</ele>
        <time>2022-02-28T15:13:29Z</time>
      </trkpt>
      <trkpt lat="46.55174" lon="5.6658">
        <ele>499.8</ele>
        <time>2022-02-28T15:13:30Z</time>
      </trkpt>
      <trkpt lat="46.55174" lon="5.66591">
        <ele>499.8</ele>
        <time>2022-02-28T15:13:31Z</time>
      </trkpt>
      <trkpt lat="46.55175" lon="5.66601">
        <ele>499.8</ele>
        <time>2022-02-28T15:13:32Z</time>
      </trkpt>
      <trkpt lat="46.55176" lon="5.6661">
        <ele>499.8</ele>
        <time>2022-02-28T15:13:33Z</time>
      </trkpt>
      <trkpt lat="46.55179" lon="5.66618">
        <ele>500</ele>
        <time>2022-02-28T15:13:34Z</time>
      </trkpt>
      <trkpt lat="46.55181" lon="5.66626">
        <ele>500</ele>
        <time>2022-02-28T15:13:35Z</time>
      </trkpt>
      <trkpt lat="46.55184" lon="5.66633">
        <ele>500</ele>
        <time>2022-02-28T15:13:36Z</time>
      </trkpt>
      <trkpt lat="46.55185" lon="5.66641">
        <ele>500.2</ele>
        <time>2022-02-28T15:13:37Z</time>
      </trkpt>
      <trkpt lat="46.55187" lon="5.66649">
        <ele>500.2</ele>
        <time>2022-02-28T15:13:38Z</time>
      </trkpt>
      <trkpt lat="46.5519" lon="5.66656">
        <ele>500.2</ele>
        <time>2022-02-28T15:13:39Z</time>
      </trkpt>
      <trkpt lat="46.55192" lon="5.66664">
        <ele>500.2</ele>
        <time>2022-02-28T15:13:40Z</time>
      </trkpt>
      <trkpt lat="46.55194" lon="5.66671">
        <ele>500.2</ele>
        <time>2022-02-28T15:13:41Z</time>
      </trkpt>
      <trkpt lat="46.55197" lon="5.66678">
        <ele>500.2</ele>
        <time>2022-02-28T15:13:42Z</time>
      </trkpt>
      <trkpt lat="46.55199" lon="5.66685">
        <ele>500.2</ele>
        <time>2022-02-28T15:13:43Z</time>
      </trkpt>
      <trkpt lat="46.55202" lon="5.66693">
        <ele>500.2</ele>
        <time>2022-02-28T15:13:44Z</time>
      </trkpt>
      <trkpt lat="46.55205" lon="5.667">
        <ele>500.2</ele>
        <time>2022-02-28T15:13:45Z</time>
      </trkpt>
      <trkpt lat="46.55208" lon="5.66707">
        <ele>500.4</ele>
        <time>2022-02-28T15:13:46Z</time>
      </trkpt>
      <trkpt lat="46.55211" lon="5.66714">
        <ele>500.4</ele>
        <time>2022-02-28T15:13:47Z</time>
      </trkpt>
      <trkpt lat="46.55214" lon="5.66721">
        <ele>500.4</ele>
        <time>2022-02-28T15:13:48Z</time>
      </trkpt>
      <trkpt lat="46.55218" lon="5.66728">
        <ele>500.4</ele>
        <time>2022-02-28T15:13:49Z</time>
      </trkpt>
      <trkpt lat="46.55221" lon="5.66736">
        <ele>500.4</ele>
        <time>2022-02-28T15:13:50Z</time>
      </trkpt>
      <trkpt lat="46.55224" lon="5.66743">
        <ele>500.4</ele>
        <time>2022-02-28T15:13:51Z</time>
      </trkpt>
      <trkpt lat="46.55227" lon="5.6675">
        <ele>500.4</ele>
        <time>2022-02-28T15:13:52Z</time>
      </trkpt>
      <trkpt lat="46.5523" lon="5.66757">
        <ele>500.4</ele>
        <time>2022-02-28T15:13:53Z</time>
      </trkpt>
      <trkpt lat="46.55233" lon="5.66764">
        <ele>500.4</ele>
        <time>2022-02-28T15:13:54Z</time>
      </trkpt>
      <trkpt lat="46.55237" lon="5.66771">
        <ele>500.4</ele>
        <time>2022-02-28T15:13:55Z</time>
      </trkpt>
      <trkpt lat="46.5524" lon="5.66778">
        <ele>500.4</ele>
        <time>2022-02-28T15:13:56Z</time>
      </trkpt>
      <trkpt lat="46.55243" lon="5.66785">
        <ele>500.4</ele>
        <time>2022-02-28T15:13:57Z</time>
      </trkpt>
      <trkpt lat="46.55246" lon="5.66792">
        <ele>500.4</ele>
        <time>2022-02-28T15:13:58Z</time>
      </trkpt>
      <trkpt lat="46.55249" lon="5.66799">
        <ele>500.4</ele>
        <time>2022-02-28T15:13:59Z</time>
      </trkpt>
      <trkpt lat="46.55252" lon="5.66806">
        <ele>500.6</ele>
        <time>2022-02-28T15:14:00Z</time>
      </trkpt>
      <trkpt lat="46.55255" lon="5.66813">
        <ele>500.6</ele>
        <time>2022-02-28T15:14:01Z</time>
      </trkpt>
      <trkpt lat="46.55258" lon="5.6682">
        <ele>500.6</ele>
        <time>2022-02-28T15:14:02Z</time>
      </trkpt>
      <trkpt lat="46.55262" lon="5.66827">
        <ele>500.6</ele>
        <time>2022-02-28T15:14:03Z</time>
      </trkpt>
      <trkpt lat="46.55265" lon="5.66833">
        <ele>500.6</ele>
        <time>2022-02-28T15:14:04Z</time>
      </trkpt>
      <trkpt lat="46.55268" lon="5.6684">
        <ele>500.6</ele>
        <time>2022-02-28T15:14:05Z</time>
      </trkpt>
      <trkpt lat="46.55271" lon="5.66847">
        <ele>500.6</ele>
        <time>2022-02-28T15:14:06Z</time>
      </trkpt>
      <trkpt lat="46.55273" lon="5.66854">
        <ele>500.8</ele>
        <time>2022-02-28T15:14:07Z</time>
      </trkpt>
      <trkpt lat="46.55276" lon="5.6686">
        <ele>500.8</ele>
        <time>2022-02-28T15:14:08Z</time>
      </trkpt>
      <trkpt lat="46.55279" lon="5.66866">
        <ele>501.2</ele>
        <time>2022-02-28T15:14:09Z</time>
      </trkpt>
      <trkpt lat="46.55282" lon="5.66871">
        <ele>501.2</ele>
        <time>2022-02-28T15:14:10Z</time>
      </trkpt>
      <trkpt lat="46.55285" lon="5.66877">
        <ele>501.6</ele>
        <time>2022-02-28T15:14:11Z</time>
      </trkpt>
      <trkpt lat="46.55288" lon="5.66883">
        <ele>501.6</ele>
        <time>2022-02-28T15:14:12Z</time>
      </trkpt>
      <trkpt lat="46.5529" lon="5.66888">
        <ele>501.8</ele>
        <time>2022-02-28T15:14:13Z</time>
      </trkpt>
      <trkpt lat="46.55293" lon="5.66893">
        <ele>501.8</ele>
        <time>2022-02-28T15:14:14Z</time>
      </trkpt>
      <trkpt lat="46.55296" lon="5.66898">
        <ele>502.2</ele>
        <time>2022-02-28T15:14:15Z</time>
      </trkpt>
      <trkpt lat="46.55298" lon="5.66904">
        <ele>502.2</ele>
        <time>2022-02-28T15:14:16Z</time>
      </trkpt>
      <trkpt lat="46.55301" lon="5.66908">
        <ele>502.4</ele>
        <time>2022-02-28T15:14:17Z</time>
      </trkpt>
      <trkpt lat="46.55304" lon="5.66913">
        <ele>502.4</ele>
        <time>2022-02-28T15:14:18Z</time>
      </trkpt>
      <trkpt lat="46.55307" lon="5.66918">
        <ele>502.6</ele>
        <time>2022-02-28T15:14:19Z</time>
      </trkpt>
      <trkpt lat="46.5531" lon="5.66923">
        <ele>502.6</ele>
        <time>2022-02-28T15:14:20Z</time>
      </trkpt>
      <trkpt lat="46.55312" lon="5.66928">
        <ele>502.6</ele>
        <time>2022-02-28T15:14:21Z</time>
      </trkpt>
      <trkpt lat="46.55315" lon="5.66933">
        <ele>503</ele>
        <time>2022-02-28T15:14:22Z</time>
      </trkpt>
      <trkpt lat="46.55318" lon="5.66938">
        <ele>503</ele>
        <time>2022-02-28T15:14:23Z</time>
      </trkpt>
      <trkpt lat="46.55321" lon="5.66943">
        <ele>503.2</ele>
        <time>2022-02-28T15:14:24Z</time>
      </trkpt>
      <trkpt lat="46.55323" lon="5.66949">
        <ele>503.2</ele>
        <time>2022-02-28T15:14:25Z</time>
      </trkpt>
      <trkpt lat="46.55326" lon="5.66954">
        <ele>503.4</ele>
        <time>2022-02-28T15:14:26Z</time>
      </trkpt>
      <trkpt lat="46.55328" lon="5.6696">
        <ele>503.4</ele>
        <time>2022-02-28T15:14:27Z</time>
      </trkpt>
      <trkpt lat="46.5533" lon="5.66966">
        <ele>503.4</ele>
        <time>2022-02-28T15:14:28Z</time>
      </trkpt>
      <trkpt lat="46.55333" lon="5.66972">
        <ele>503.4</ele>
        <time>2022-02-28T15:14:29Z</time>
      </trkpt>
      <trkpt lat="46.55336" lon="5.66979">
        <ele>503.6</ele>
        <time>2022-02-28T15:14:30Z</time>
      </trkpt>
      <trkpt lat="46.55338" lon="5.66985">
        <ele>503.6</ele>
        <time>2022-02-28T15:14:31Z</time>
      </trkpt>
      <trkpt lat="46.55341" lon="5.66992">
        <ele>503.6</ele>
        <time>2022-02-28T15:14:32Z</time>
      </trkpt>
      <trkpt lat="46.55344" lon="5.67">
        <ele>503.6</ele>
        <time>2022-02-28T15:14:33Z</time>
      </trkpt>
      <trkpt lat="46.55346" lon="5.67007">
        <ele>503.6</ele>
        <time>2022-02-28T15:14:34Z</time>
      </trkpt>
      <trkpt lat="46.55349" lon="5.67015">
        <ele>503.6</ele>
        <time>2022-02-28T15:14:35Z</time>
      </trkpt>
      <trkpt lat="46.55351" lon="5.67023">
        <ele>503.6</ele>
        <time>2022-02-28T15:14:36Z</time>
      </trkpt>
      <trkpt lat="46.55354" lon="5.6703">
        <ele>503.6</ele>
        <time>2022-02-28T15:14:37Z</time>
      </trkpt>
      <trkpt lat="46.55357" lon="5.67038">
        <ele>503.6</ele>
        <time>2022-02-28T15:14:38Z</time>
      </trkpt>
      <trkpt lat="46.5536" lon="5.67046">
        <ele>503.6</ele>
        <time>2022-02-28T15:14:39Z</time>
      </trkpt>
      <trkpt lat="46.55362" lon="5.67053">
        <ele>503.6</ele>
        <time>2022-02-28T15:14:40Z</time>
      </trkpt>
      <trkpt lat="46.55365" lon="5.67061">
        <ele>503.6</ele>
        <time>2022-02-28T15:14:41Z</time>
      </trkpt>
      <trkpt lat="46.55367" lon="5.67069">
        <ele>503.6</ele>
        <time>2022-02-28T15:14:42Z</time>
      </trkpt>
      <trkpt lat="46.5537" lon="5.67077">
        <ele>503.8</ele>
        <time>2022-02-28T15:14:43Z</time>
      </trkpt>
      <trkpt lat="46.55372" lon="5.67085">
        <ele>503.8</ele>
        <time>2022-02-28T15:14:44Z</time>
      </trkpt>
      <trkpt lat="46.55374" lon="5.67092">
        <ele>503.8</ele>
        <time>2022-02-28T15:14:45Z</time>
      </trkpt>
      <trkpt lat="46.55376" lon="5.67101">
        <ele>503.8</ele>
        <time>2022-02-28T15:14:46Z</time>
      </trkpt>
      <trkpt lat="46.55378" lon="5.67109">
        <ele>503.8</ele>
        <time>2022-02-28T15:14:47Z</time>
      </trkpt>
      <trkpt lat="46.5538" lon="5.67117">
        <ele>503.8</ele>
        <time>2022-02-28T15:14:48Z</time>
      </trkpt>
      <trkpt lat="46.55383" lon="5.67125">
        <ele>503.8</ele>
        <time>2022-02-28T15:14:49Z</time>
      </trkpt>
      <trkpt lat="46.55385" lon="5.67134">
        <ele>503.8</ele>
        <time>2022-02-28T15:14:50Z</time>
      </trkpt>
      <trkpt lat="46.55386" lon="5.67142">
        <ele>503.8</ele>
        <time>2022-02-28T15:14:51Z</time>
      </trkpt>
      <trkpt lat="46.55388" lon="5.6715">
        <ele>503.8</ele>
        <time>2022-02-28T15:14:52Z</time>
      </trkpt>
      <trkpt lat="46.5539" lon="5.67159">
        <ele>503.8</ele>
        <time>2022-02-28T15:14:53Z</time>
      </trkpt>
      <trkpt lat="46.55392" lon="5.67167">
        <ele>503.8</ele>
        <time>2022-02-28T15:14:54Z</time>
      </trkpt>
      <trkpt lat="46.55393" lon="5.67175">
        <ele>503.8</ele>
        <time>2022-02-28T15:14:55Z</time>
      </trkpt>
      <trkpt lat="46.55395" lon="5.67184">
        <ele>503.8</ele>
        <time>2022-02-28T15:14:56Z</time>
      </trkpt>
      <trkpt lat="46.55396" lon="5.67193">
        <ele>503.6</ele>
        <time>2022-02-28T15:14:57Z</time>
      </trkpt>
      <trkpt lat="46.55397" lon="5.67201">
        <ele>503.6</ele>
        <time>2022-02-28T15:14:58Z</time>
      </trkpt>
      <trkpt lat="46.55399" lon="5.6721">
        <ele>503.6</ele>
        <time>2022-02-28T15:14:59Z</time>
      </trkpt>
      <trkpt lat="46.55401" lon="5.67218">
        <ele>503.2</ele>
        <time>2022-02-28T15:15:00Z</time>
      </trkpt>
      <trkpt lat="46.55403" lon="5.67227">
        <ele>503.2</ele>
        <time>2022-02-28T15:15:01Z</time>
      </trkpt>
      <trkpt lat="46.55404" lon="5.67235">
        <ele>503.2</ele>
        <time>2022-02-28T15:15:02Z</time>
      </trkpt>
      <trkpt lat="46.55406" lon="5.67244">
        <ele>503</ele>
        <time>2022-02-28T15:15:03Z</time>
      </trkpt>
      <trkpt lat="46.55408" lon="5.67252">
        <ele>503</ele>
        <time>2022-02-28T15:15:04Z</time>
      </trkpt>
      <trkpt lat="46.5541" lon="5.6726">
        <ele>503</ele>
        <time>2022-02-28T15:15:05Z</time>
      </trkpt>
      <trkpt lat="46.55412" lon="5.67269">
        <ele>502.8</ele>
        <time>2022-02-28T15:15:06Z</time>
      </trkpt>
      <trkpt lat="46.55413" lon="5.67278">
        <ele>502.8</ele>
        <time>2022-02-28T15:15:07Z</time>
      </trkpt>
      <trkpt lat="46.55415" lon="5.67286">
        <ele>502.4</ele>
        <time>2022-02-28T15:15:08Z</time>
      </trkpt>
      <trkpt lat="46.55417" lon="5.67295">
        <ele>502.2</ele>
        <time>2022-02-28T15:15:09Z</time>
      </trkpt>
      <trkpt lat="46.55419" lon="5.67304">
        <ele>502.2</ele>
        <time>2022-02-28T15:15:10Z</time>
      </trkpt>
      <trkpt lat="46.55421" lon="5.67313">
        <ele>501.8</ele>
        <time>2022-02-28T15:15:11Z</time>
      </trkpt>
      <trkpt lat="46.55423" lon="5.67323">
        <ele>501.8</ele>
        <time>2022-02-28T15:15:12Z</time>
      </trkpt>
      <trkpt lat="46.55425" lon="5.67333">
        <ele>501.2</ele>
        <time>2022-02-28T15:15:13Z</time>
      </trkpt>
      <trkpt lat="46.55427" lon="5.67342">
        <ele>501</ele>
        <time>2022-02-28T15:15:14Z</time>
      </trkpt>
      <trkpt lat="46.55429" lon="5.67352">
        <ele>500.8</ele>
        <time>2022-02-28T15:15:15Z</time>
      </trkpt>
      <trkpt lat="46.55432" lon="5.67362">
        <ele>500.6</ele>
        <time>2022-02-28T15:15:16Z</time>
      </trkpt>
      <trkpt lat="46.55433" lon="5.67372">
        <ele>500.4</ele>
        <time>2022-02-28T15:15:17Z</time>
      </trkpt>
      <trkpt lat="46.55435" lon="5.67382">
        <ele>500.4</ele>
        <time>2022-02-28T15:15:18Z</time>
      </trkpt>
      <trkpt lat="46.55437" lon="5.67393">
        <ele>500</ele>
        <time>2022-02-28T15:15:19Z</time>
      </trkpt>
      <trkpt lat="46.55438" lon="5.67403">
        <ele>500</ele>
        <time>2022-02-28T15:15:20Z</time>
      </trkpt>
      <trkpt lat="46.5544" lon="5.67413">
        <ele>500</ele>
        <time>2022-02-28T15:15:21Z</time>
      </trkpt>
      <trkpt lat="46.55442" lon="5.67431">
        <ele>499.6</ele>
        <time>2022-02-28T15:15:22Z</time>
      </trkpt>
      <trkpt lat="46.55442" lon="5.67439">
        <ele>499.4</ele>
        <time>2022-02-28T15:15:23Z</time>
      </trkpt>
      <trkpt lat="46.55442" lon="5.67447">
        <ele>499.2</ele>
        <time>2022-02-28T15:15:24Z</time>
      </trkpt>
      <trkpt lat="46.55443" lon="5.67454">
        <ele>499.2</ele>
        <time>2022-02-28T15:15:25Z</time>
      </trkpt>
      <trkpt lat="46.55445" lon="5.6746">
        <ele>498.8</ele>
        <time>2022-02-28T15:15:26Z</time>
      </trkpt>
      <trkpt lat="46.55449" lon="5.67466">
        <ele>498.8</ele>
        <time>2022-02-28T15:15:27Z</time>
      </trkpt>
      <trkpt lat="46.55453" lon="5.67472">
        <ele>498.4</ele>
        <time>2022-02-28T15:15:28Z</time>
      </trkpt>
      <trkpt lat="46.55458" lon="5.67478">
        <ele>498</ele>
        <time>2022-02-28T15:15:29Z</time>
      </trkpt>
      <trkpt lat="46.55462" lon="5.67485">
        <ele>497.8</ele>
        <time>2022-02-28T15:15:30Z</time>
      </trkpt>
      <trkpt lat="46.55467" lon="5.67491">
        <ele>497.4</ele>
        <time>2022-02-28T15:15:31Z</time>
      </trkpt>
      <trkpt lat="46.55473" lon="5.67498">
        <ele>497</ele>
        <time>2022-02-28T15:15:32Z</time>
      </trkpt>
      <trkpt lat="46.55478" lon="5.67505">
        <ele>496.8</ele>
        <time>2022-02-28T15:15:33Z</time>
      </trkpt>
      <trkpt lat="46.55483" lon="5.67512">
        <ele>496.6</ele>
        <time>2022-02-28T15:15:34Z</time>
      </trkpt>
      <trkpt lat="46.55487" lon="5.6752">
        <ele>496</ele>
        <time>2022-02-28T15:15:35Z</time>
      </trkpt>
      <trkpt lat="46.55491" lon="5.67529">
        <ele>495.6</ele>
        <time>2022-02-28T15:15:36Z</time>
      </trkpt>
      <trkpt lat="46.55495" lon="5.67538">
        <ele>495.2</ele>
        <time>2022-02-28T15:15:37Z</time>
      </trkpt>
      <trkpt lat="46.55498" lon="5.67548">
        <ele>494.6</ele>
        <time>2022-02-28T15:15:38Z</time>
      </trkpt>
      <trkpt lat="46.55498" lon="5.67548">
        <ele>494</ele>
        <time>2022-02-28T15:15:39Z</time>
      </trkpt>
      <trkpt lat="46.55501" lon="5.67559">
        <ele>493.6</ele>
        <time>2022-02-28T15:15:40Z</time>
      </trkpt>
      <trkpt lat="46.55506" lon="5.67569">
        <ele>493</ele>
        <time>2022-02-28T15:15:41Z</time>
      </trkpt>
      <trkpt lat="46.5551" lon="5.6758">
        <ele>492.6</ele>
        <time>2022-02-28T15:15:42Z</time>
      </trkpt>
      <trkpt lat="46.55516" lon="5.6759">
        <ele>492.2</ele>
        <time>2022-02-28T15:15:43Z</time>
      </trkpt>
      <trkpt lat="46.5552" lon="5.67601">
        <ele>491.8</ele>
        <time>2022-02-28T15:15:44Z</time>
      </trkpt>
      <trkpt lat="46.55525" lon="5.67611">
        <ele>491.2</ele>
        <time>2022-02-28T15:15:45Z</time>
      </trkpt>
      <trkpt lat="46.55528" lon="5.67622">
        <ele>490.8</ele>
        <time>2022-02-28T15:15:46Z</time>
      </trkpt>
      <trkpt lat="46.55533" lon="5.67633">
        <ele>490.4</ele>
        <time>2022-02-28T15:15:47Z</time>
      </trkpt>
      <trkpt lat="46.55538" lon="5.67643">
        <ele>490.2</ele>
        <time>2022-02-28T15:15:48Z</time>
      </trkpt>
      <trkpt lat="46.55544" lon="5.67652">
        <ele>490</ele>
        <time>2022-02-28T15:15:49Z</time>
      </trkpt>
      <trkpt lat="46.5555" lon="5.67659">
        <ele>490</ele>
        <time>2022-02-28T15:15:50Z</time>
      </trkpt>
      <trkpt lat="46.55556" lon="5.67666">
        <ele>489.6</ele>
        <time>2022-02-28T15:15:51Z</time>
      </trkpt>
      <trkpt lat="46.55563" lon="5.67671">
        <ele>489.6</ele>
        <time>2022-02-28T15:15:52Z</time>
      </trkpt>
      <trkpt lat="46.55569" lon="5.67676">
        <ele>489.4</ele>
        <time>2022-02-28T15:15:53Z</time>
      </trkpt>
      <trkpt lat="46.55574" lon="5.67682">
        <ele>489.4</ele>
        <time>2022-02-28T15:15:54Z</time>
      </trkpt>
      <trkpt lat="46.5558" lon="5.67687">
        <ele>489.4</ele>
        <time>2022-02-28T15:15:55Z</time>
      </trkpt>
      <trkpt lat="46.55585" lon="5.67692">
        <ele>489.4</ele>
        <time>2022-02-28T15:15:56Z</time>
      </trkpt>
      <trkpt lat="46.55591" lon="5.67695">
        <ele>489.4</ele>
        <time>2022-02-28T15:15:57Z</time>
      </trkpt>
      <trkpt lat="46.55597" lon="5.67698">
        <ele>489.2</ele>
        <time>2022-02-28T15:15:58Z</time>
      </trkpt>
      <trkpt lat="46.55603" lon="5.677">
        <ele>489.2</ele>
        <time>2022-02-28T15:15:59Z</time>
      </trkpt>
      <trkpt lat="46.55609" lon="5.67704">
        <ele>489</ele>
        <time>2022-02-28T15:16:00Z</time>
      </trkpt>
      <trkpt lat="46.55614" lon="5.67708">
        <ele>489</ele>
        <time>2022-02-28T15:16:01Z</time>
      </trkpt>
      <trkpt lat="46.55619" lon="5.67713">
        <ele>489</ele>
        <time>2022-02-28T15:16:02Z</time>
      </trkpt>
      <trkpt lat="46.55624" lon="5.67718">
        <ele>489</ele>
        <time>2022-02-28T15:16:03Z</time>
      </trkpt>
      <trkpt lat="46.55628" lon="5.67724">
        <ele>489</ele>
        <time>2022-02-28T15:16:04Z</time>
      </trkpt>
      <trkpt lat="46.55632" lon="5.6773">
        <ele>489</ele>
        <time>2022-02-28T15:16:05Z</time>
      </trkpt>
      <trkpt lat="46.55637" lon="5.67736">
        <ele>489</ele>
        <time>2022-02-28T15:16:06Z</time>
      </trkpt>
      <trkpt lat="46.55641" lon="5.67742">
        <ele>489</ele>
        <time>2022-02-28T15:16:07Z</time>
      </trkpt>
      <trkpt lat="46.55645" lon="5.67748">
        <ele>489.2</ele>
        <time>2022-02-28T15:16:08Z</time>
      </trkpt>
      <trkpt lat="46.55649" lon="5.67755">
        <ele>489.2</ele>
        <time>2022-02-28T15:16:09Z</time>
      </trkpt>
      <trkpt lat="46.55653" lon="5.67761">
        <ele>489.2</ele>
        <time>2022-02-28T15:16:10Z</time>
      </trkpt>
      <trkpt lat="46.55657" lon="5.67768">
        <ele>489.2</ele>
        <time>2022-02-28T15:16:11Z</time>
      </trkpt>
      <trkpt lat="46.55661" lon="5.67774">
        <ele>489.2</ele>
        <time>2022-02-28T15:16:12Z</time>
      </trkpt>
      <trkpt lat="46.55665" lon="5.6778">
        <ele>489.2</ele>
        <time>2022-02-28T15:16:13Z</time>
      </trkpt>
      <trkpt lat="46.5567" lon="5.67787">
        <ele>489.2</ele>
        <time>2022-02-28T15:16:14Z</time>
      </trkpt>
      <trkpt lat="46.55674" lon="5.67793">
        <ele>489.4</ele>
        <time>2022-02-28T15:16:15Z</time>
      </trkpt>
      <trkpt lat="46.55678" lon="5.678">
        <ele>489.4</ele>
        <time>2022-02-28T15:16:16Z</time>
      </trkpt>
      <trkpt lat="46.55683" lon="5.67806">
        <ele>489.4</ele>
        <time>2022-02-28T15:16:17Z</time>
      </trkpt>
      <trkpt lat="46.55687" lon="5.67813">
        <ele>489.4</ele>
        <time>2022-02-28T15:16:18Z</time>
      </trkpt>
      <trkpt lat="46.55691" lon="5.67819">
        <ele>489.4</ele>
        <time>2022-02-28T15:16:19Z</time>
      </trkpt>
      <trkpt lat="46.55696" lon="5.67826">
        <ele>489.4</ele>
        <time>2022-02-28T15:16:20Z</time>
      </trkpt>
      <trkpt lat="46.557" lon="5.67832">
        <ele>489.4</ele>
        <time>2022-02-28T15:16:21Z</time>
      </trkpt>
      <trkpt lat="46.55704" lon="5.67839">
        <ele>489.4</ele>
        <time>2022-02-28T15:16:22Z</time>
      </trkpt>
      <trkpt lat="46.55709" lon="5.67846">
        <ele>489.4</ele>
        <time>2022-02-28T15:16:23Z</time>
      </trkpt>
      <trkpt lat="46.55713" lon="5.67853">
        <ele>489.4</ele>
        <time>2022-02-28T15:16:24Z</time>
      </trkpt>
      <trkpt lat="46.55718" lon="5.67859">
        <ele>489.4</ele>
        <time>2022-02-28T15:16:25Z</time>
      </trkpt>
      <trkpt lat="46.55722" lon="5.67866">
        <ele>489.4</ele>
        <time>2022-02-28T15:16:26Z</time>
      </trkpt>
      <trkpt lat="46.55727" lon="5.67873">
        <ele>489.4</ele>
        <time>2022-02-28T15:16:27Z</time>
      </trkpt>
      <trkpt lat="46.55731" lon="5.67879">
        <ele>489.4</ele>
        <time>2022-02-28T15:16:28Z</time>
      </trkpt>
      <trkpt lat="46.55736" lon="5.67886">
        <ele>489.4</ele>
        <time>2022-02-28T15:16:29Z</time>
      </trkpt>
      <trkpt lat="46.5574" lon="5.67892">
        <ele>489.4</ele>
        <time>2022-02-28T15:16:30Z</time>
      </trkpt>
      <trkpt lat="46.55745" lon="5.67899">
        <ele>489.4</ele>
        <time>2022-02-28T15:16:31Z</time>
      </trkpt>
      <trkpt lat="46.55749" lon="5.67905">
        <ele>489.4</ele>
        <time>2022-02-28T15:16:32Z</time>
      </trkpt>
      <trkpt lat="46.55754" lon="5.67911">
        <ele>489.4</ele>
        <time>2022-02-28T15:16:33Z</time>
      </trkpt>
      <trkpt lat="46.55758" lon="5.67918">
        <ele>489.4</ele>
        <time>2022-02-28T15:16:34Z</time>
      </trkpt>
      <trkpt lat="46.55763" lon="5.67924">
        <ele>489.4</ele>
        <time>2022-02-28T15:16:35Z</time>
      </trkpt>
      <trkpt lat="46.55767" lon="5.67931">
        <ele>489.4</ele>
        <time>2022-02-28T15:16:36Z</time>
      </trkpt>
      <trkpt lat="46.55771" lon="5.67938">
        <ele>489.4</ele>
        <time>2022-02-28T15:16:37Z</time>
      </trkpt>
      <trkpt lat="46.55776" lon="5.67944">
        <ele>489.4</ele>
        <time>2022-02-28T15:16:38Z</time>
      </trkpt>
      <trkpt lat="46.5578" lon="5.67951">
        <ele>489.4</ele>
        <time>2022-02-28T15:16:39Z</time>
      </trkpt>
      <trkpt lat="46.55785" lon="5.67957">
        <ele>489.4</ele>
        <time>2022-02-28T15:16:40Z</time>
      </trkpt>
      <trkpt lat="46.55789" lon="5.67963">
        <ele>489.4</ele>
        <time>2022-02-28T15:16:41Z</time>
      </trkpt>
      <trkpt lat="46.55793" lon="5.6797">
        <ele>489.4</ele>
        <time>2022-02-28T15:16:42Z</time>
      </trkpt>
      <trkpt lat="46.55797" lon="5.67977">
        <ele>489.4</ele>
        <time>2022-02-28T15:16:43Z</time>
      </trkpt>
      <trkpt lat="46.558" lon="5.67985">
        <ele>489.4</ele>
        <time>2022-02-28T15:16:44Z</time>
      </trkpt>
      <trkpt lat="46.55804" lon="5.67992">
        <ele>489.4</ele>
        <time>2022-02-28T15:16:45Z</time>
      </trkpt>
      <trkpt lat="46.55807" lon="5.68">
        <ele>489.4</ele>
        <time>2022-02-28T15:16:46Z</time>
      </trkpt>
      <trkpt lat="46.55811" lon="5.68007">
        <ele>489.4</ele>
        <time>2022-02-28T15:16:47Z</time>
      </trkpt>
      <trkpt lat="46.55814" lon="5.68015">
        <ele>489.4</ele>
        <time>2022-02-28T15:16:48Z</time>
      </trkpt>
      <trkpt lat="46.55817" lon="5.68023">
        <ele>489.4</ele>
        <time>2022-02-28T15:16:49Z</time>
      </trkpt>
      <trkpt lat="46.5582" lon="5.68031">
        <ele>489.4</ele>
        <time>2022-02-28T15:16:50Z</time>
      </trkpt>
      <trkpt lat="46.55823" lon="5.68039">
        <ele>489.4</ele>
        <time>2022-02-28T15:16:51Z</time>
      </trkpt>
      <trkpt lat="46.55825" lon="5.68048">
        <ele>489.4</ele>
        <time>2022-02-28T15:16:52Z</time>
      </trkpt>
      <trkpt lat="46.55828" lon="5.68057">
        <ele>489.4</ele>
        <time>2022-02-28T15:16:53Z</time>
      </trkpt>
      <trkpt lat="46.5583" lon="5.68065">
        <ele>489.4</ele>
        <time>2022-02-28T15:16:54Z</time>
      </trkpt>
      <trkpt lat="46.55833" lon="5.68074">
        <ele>489.4</ele>
        <time>2022-02-28T15:16:55Z</time>
      </trkpt>
      <trkpt lat="46.55837" lon="5.68081">
        <ele>489.4</ele>
        <time>2022-02-28T15:16:56Z</time>
      </trkpt>
      <trkpt lat="46.55841" lon="5.68089">
        <ele>489.4</ele>
        <time>2022-02-28T15:16:57Z</time>
      </trkpt>
      <trkpt lat="46.55844" lon="5.68096">
        <ele>489.2</ele>
        <time>2022-02-28T15:16:58Z</time>
      </trkpt>
      <trkpt lat="46.5585" lon="5.68107">
        <ele>489.2</ele>
        <time>2022-02-28T15:16:59Z</time>
      </trkpt>
      <trkpt lat="46.55852" lon="5.6811">
        <ele>489.2</ele>
        <time>2022-02-28T15:17:00Z</time>
      </trkpt>
      <trkpt lat="46.55857" lon="5.68117">
        <ele>489.2</ele>
        <time>2022-02-28T15:17:01Z</time>
      </trkpt>
      <trkpt lat="46.55862" lon="5.68123">
        <ele>489.2</ele>
        <time>2022-02-28T15:17:02Z</time>
      </trkpt>
      <trkpt lat="46.55867" lon="5.68127">
        <ele>489.2</ele>
        <time>2022-02-28T15:17:03Z</time>
      </trkpt>
      <trkpt lat="46.55872" lon="5.68131">
        <ele>489.4</ele>
        <time>2022-02-28T15:17:04Z</time>
      </trkpt>
      <trkpt lat="46.55877" lon="5.68134">
        <ele>489.4</ele>
        <time>2022-02-28T15:17:05Z</time>
      </trkpt>
      <trkpt lat="46.55882" lon="5.68137">
        <ele>489.6</ele>
        <time>2022-02-28T15:17:06Z</time>
      </trkpt>
      <trkpt lat="46.55887" lon="5.6814">
        <ele>489.6</ele>
        <time>2022-02-28T15:17:07Z</time>
      </trkpt>
      <trkpt lat="46.55891" lon="5.68143">
        <ele>490</ele>
        <time>2022-02-28T15:17:08Z</time>
      </trkpt>
      <trkpt lat="46.55896" lon="5.68145">
        <ele>490</ele>
        <time>2022-02-28T15:17:09Z</time>
      </trkpt>
      <trkpt lat="46.559" lon="5.68147">
        <ele>490</ele>
        <time>2022-02-28T15:17:10Z</time>
      </trkpt>
      <trkpt lat="46.55905" lon="5.6815">
        <ele>490.4</ele>
        <time>2022-02-28T15:17:11Z</time>
      </trkpt>
      <trkpt lat="46.55909" lon="5.68152">
        <ele>490.4</ele>
        <time>2022-02-28T15:17:12Z</time>
      </trkpt>
      <trkpt lat="46.55913" lon="5.68155">
        <ele>490.4</ele>
        <time>2022-02-28T15:17:13Z</time>
      </trkpt>
      <trkpt lat="46.55918" lon="5.68157">
        <ele>490.8</ele>
        <time>2022-02-28T15:17:14Z</time>
      </trkpt>
      <trkpt lat="46.55923" lon="5.6816">
        <ele>490.8</ele>
        <time>2022-02-28T15:17:15Z</time>
      </trkpt>
      <trkpt lat="46.55928" lon="5.68162">
        <ele>491.2</ele>
        <time>2022-02-28T15:17:16Z</time>
      </trkpt>
      <trkpt lat="46.55932" lon="5.68164">
        <ele>491.4</ele>
        <time>2022-02-28T15:17:17Z</time>
      </trkpt>
      <trkpt lat="46.55937" lon="5.68167">
        <ele>491.6</ele>
        <time>2022-02-28T15:17:18Z</time>
      </trkpt>
      <trkpt lat="46.55942" lon="5.68169">
        <ele>491.8</ele>
        <time>2022-02-28T15:17:19Z</time>
      </trkpt>
      <trkpt lat="46.55947" lon="5.68172">
        <ele>491.8</ele>
        <time>2022-02-28T15:17:20Z</time>
      </trkpt>
      <trkpt lat="46.55952" lon="5.68174">
        <ele>491.8</ele>
        <time>2022-02-28T15:17:21Z</time>
      </trkpt>
      <trkpt lat="46.55957" lon="5.68176">
        <ele>492</ele>
        <time>2022-02-28T15:17:22Z</time>
      </trkpt>
      <trkpt lat="46.55961" lon="5.68179">
        <ele>492</ele>
        <time>2022-02-28T15:17:23Z</time>
      </trkpt>
      <trkpt lat="46.55966" lon="5.68181">
        <ele>492.2</ele>
        <time>2022-02-28T15:17:24Z</time>
      </trkpt>
      <trkpt lat="46.55971" lon="5.68184">
        <ele>492.2</ele>
        <time>2022-02-28T15:17:25Z</time>
      </trkpt>
      <trkpt lat="46.55976" lon="5.68186">
        <ele>492.4</ele>
        <time>2022-02-28T15:17:26Z</time>
      </trkpt>
      <trkpt lat="46.5598" lon="5.68188">
        <ele>492.4</ele>
        <time>2022-02-28T15:17:27Z</time>
      </trkpt>
      <trkpt lat="46.55985" lon="5.68191">
        <ele>492.8</ele>
        <time>2022-02-28T15:17:28Z</time>
      </trkpt>
      <trkpt lat="46.55989" lon="5.68193">
        <ele>492.8</ele>
        <time>2022-02-28T15:17:29Z</time>
      </trkpt>
      <trkpt lat="46.55994" lon="5.68195">
        <ele>493</ele>
        <time>2022-02-28T15:17:30Z</time>
      </trkpt>
      <trkpt lat="46.55998" lon="5.68196">
        <ele>493</ele>
        <time>2022-02-28T15:17:31Z</time>
      </trkpt>
      <trkpt lat="46.56003" lon="5.68198">
        <ele>493</ele>
        <time>2022-02-28T15:17:32Z</time>
      </trkpt>
      <trkpt lat="46.56007" lon="5.682">
        <ele>493</ele>
        <time>2022-02-28T15:17:33Z</time>
      </trkpt>
      <trkpt lat="46.56011" lon="5.68201">
        <ele>493.4</ele>
        <time>2022-02-28T15:17:34Z</time>
      </trkpt>
      <trkpt lat="46.56016" lon="5.68203">
        <ele>493.4</ele>
        <time>2022-02-28T15:17:35Z</time>
      </trkpt>
      <trkpt lat="46.5602" lon="5.68204">
        <ele>493.4</ele>
        <time>2022-02-28T15:17:36Z</time>
      </trkpt>
      <trkpt lat="46.56025" lon="5.68206">
        <ele>493.6</ele>
        <time>2022-02-28T15:17:37Z</time>
      </trkpt>
      <trkpt lat="46.56029" lon="5.68207">
        <ele>493.6</ele>
        <time>2022-02-28T15:17:38Z</time>
      </trkpt>
      <trkpt lat="46.56033" lon="5.68209">
        <ele>493.6</ele>
        <time>2022-02-28T15:17:39Z</time>
      </trkpt>
      <trkpt lat="46.56038" lon="5.6821">
        <ele>494</ele>
        <time>2022-02-28T15:17:40Z</time>
      </trkpt>
      <trkpt lat="46.56042" lon="5.68212">
        <ele>494</ele>
        <time>2022-02-28T15:17:41Z</time>
      </trkpt>
      <trkpt lat="46.56047" lon="5.68213">
        <ele>494</ele>
        <time>2022-02-28T15:17:42Z</time>
      </trkpt>
      <trkpt lat="46.56051" lon="5.68215">
        <ele>494.2</ele>
        <time>2022-02-28T15:17:43Z</time>
      </trkpt>
      <trkpt lat="46.56056" lon="5.68216">
        <ele>494.2</ele>
        <time>2022-02-28T15:17:44Z</time>
      </trkpt>
      <trkpt lat="46.5606" lon="5.68217">
        <ele>494.4</ele>
        <time>2022-02-28T15:17:45Z</time>
      </trkpt>
      <trkpt lat="46.56064" lon="5.68218">
        <ele>494.4</ele>
        <time>2022-02-28T15:17:46Z</time>
      </trkpt>
      <trkpt lat="46.56069" lon="5.6822">
        <ele>494.4</ele>
        <time>2022-02-28T15:17:47Z</time>
      </trkpt>
      <trkpt lat="46.56073" lon="5.68221">
        <ele>494.6</ele>
        <time>2022-02-28T15:17:48Z</time>
      </trkpt>
      <trkpt lat="46.56078" lon="5.68223">
        <ele>494.6</ele>
        <time>2022-02-28T15:17:49Z</time>
      </trkpt>
      <trkpt lat="46.56083" lon="5.68225">
        <ele>494.6</ele>
        <time>2022-02-28T15:17:50Z</time>
      </trkpt>
      <trkpt lat="46.56087" lon="5.68226">
        <ele>494.6</ele>
        <time>2022-02-28T15:17:51Z</time>
      </trkpt>
      <trkpt lat="46.56092" lon="5.68228">
        <ele>494.6</ele>
        <time>2022-02-28T15:17:52Z</time>
      </trkpt>
      <trkpt lat="46.56097" lon="5.68229">
        <ele>494.6</ele>
        <time>2022-02-28T15:17:53Z</time>
      </trkpt>
      <trkpt lat="46.56102" lon="5.68231">
        <ele>494.8</ele>
        <time>2022-02-28T15:17:54Z</time>
      </trkpt>
      <trkpt lat="46.56106" lon="5.68232">
        <ele>494.8</ele>
        <time>2022-02-28T15:17:55Z</time>
      </trkpt>
      <trkpt lat="46.56111" lon="5.68233">
        <ele>494.8</ele>
        <time>2022-02-28T15:17:56Z</time>
      </trkpt>
      <trkpt lat="46.56116" lon="5.68234">
        <ele>494.8</ele>
        <time>2022-02-28T15:17:57Z</time>
      </trkpt>
      <trkpt lat="46.56121" lon="5.68236">
        <ele>495</ele>
        <time>2022-02-28T15:17:58Z</time>
      </trkpt>
      <trkpt lat="46.56126" lon="5.68238">
        <ele>495</ele>
        <time>2022-02-28T15:17:59Z</time>
      </trkpt>
      <trkpt lat="46.5613" lon="5.68239">
        <ele>495</ele>
        <time>2022-02-28T15:18:00Z</time>
      </trkpt>
      <trkpt lat="46.56135" lon="5.68241">
        <ele>495</ele>
        <time>2022-02-28T15:18:01Z</time>
      </trkpt>
      <trkpt lat="46.5614" lon="5.68243">
        <ele>495.4</ele>
        <time>2022-02-28T15:18:02Z</time>
      </trkpt>
      <trkpt lat="46.56145" lon="5.68244">
        <ele>495.4</ele>
        <time>2022-02-28T15:18:03Z</time>
      </trkpt>
      <trkpt lat="46.5615" lon="5.68246">
        <ele>495.4</ele>
        <time>2022-02-28T15:18:04Z</time>
      </trkpt>
      <trkpt lat="46.56155" lon="5.68248">
        <ele>495.4</ele>
        <time>2022-02-28T15:18:05Z</time>
      </trkpt>
      <trkpt lat="46.56159" lon="5.6825">
        <ele>495.6</ele>
        <time>2022-02-28T15:18:06Z</time>
      </trkpt>
      <trkpt lat="46.56164" lon="5.68252">
        <ele>495.6</ele>
        <time>2022-02-28T15:18:07Z</time>
      </trkpt>
      <trkpt lat="46.56169" lon="5.68255">
        <ele>495.6</ele>
        <time>2022-02-28T15:18:08Z</time>
      </trkpt>
      <trkpt lat="46.56174" lon="5.68257">
        <ele>495.6</ele>
        <time>2022-02-28T15:18:09Z</time>
      </trkpt>
      <trkpt lat="46.56178" lon="5.6826">
        <ele>496</ele>
        <time>2022-02-28T15:18:10Z</time>
      </trkpt>
      <trkpt lat="46.56183" lon="5.68263">
        <ele>496</ele>
        <time>2022-02-28T15:18:11Z</time>
      </trkpt>
      <trkpt lat="46.56187" lon="5.68266">
        <ele>496</ele>
        <time>2022-02-28T15:18:12Z</time>
      </trkpt>
      <trkpt lat="46.56192" lon="5.68268">
        <ele>496</ele>
        <time>2022-02-28T15:18:13Z</time>
      </trkpt>
      <trkpt lat="46.56196" lon="5.68271">
        <ele>496.2</ele>
        <time>2022-02-28T15:18:14Z</time>
      </trkpt>
      <trkpt lat="46.562" lon="5.68275">
        <ele>496.2</ele>
        <time>2022-02-28T15:18:15Z</time>
      </trkpt>
      <trkpt lat="46.56204" lon="5.68278">
        <ele>496.2</ele>
        <time>2022-02-28T15:18:16Z</time>
      </trkpt>
      <trkpt lat="46.56209" lon="5.68281">
        <ele>496.4</ele>
        <time>2022-02-28T15:18:17Z</time>
      </trkpt>
      <trkpt lat="46.56213" lon="5.68284">
        <ele>496.4</ele>
        <time>2022-02-28T15:18:18Z</time>
      </trkpt>
      <trkpt lat="46.56217" lon="5.68287">
        <ele>496.6</ele>
        <time>2022-02-28T15:18:19Z</time>
      </trkpt>
      <trkpt lat="46.56222" lon="5.68289">
        <ele>496.6</ele>
        <time>2022-02-28T15:18:20Z</time>
      </trkpt>
      <trkpt lat="46.56226" lon="5.68292">
        <ele>496.8</ele>
        <time>2022-02-28T15:18:21Z</time>
      </trkpt>
      <trkpt lat="46.56231" lon="5.68296">
        <ele>496.8</ele>
        <time>2022-02-28T15:18:22Z</time>
      </trkpt>
      <trkpt lat="46.56235" lon="5.68299">
        <ele>496.8</ele>
        <time>2022-02-28T15:18:23Z</time>
      </trkpt>
      <trkpt lat="46.56239" lon="5.68302">
        <ele>496.8</ele>
        <time>2022-02-28T15:18:24Z</time>
      </trkpt>
      <trkpt lat="46.56244" lon="5.68305">
        <ele>497</ele>
        <time>2022-02-28T15:18:25Z</time>
      </trkpt>
      <trkpt lat="46.56248" lon="5.68308">
        <ele>497</ele>
        <time>2022-02-28T15:18:26Z</time>
      </trkpt>
      <trkpt lat="46.56252" lon="5.68312">
        <ele>497</ele>
        <time>2022-02-28T15:18:27Z</time>
      </trkpt>
      <trkpt lat="46.56257" lon="5.68315">
        <ele>497</ele>
        <time>2022-02-28T15:18:28Z</time>
      </trkpt>
      <trkpt lat="46.56261" lon="5.68318">
        <ele>497.4</ele>
        <time>2022-02-28T15:18:29Z</time>
      </trkpt>
      <trkpt lat="46.56266" lon="5.68321">
        <ele>497.4</ele>
        <time>2022-02-28T15:18:30Z</time>
      </trkpt>
      <trkpt lat="46.5627" lon="5.68324">
        <ele>497.4</ele>
        <time>2022-02-28T15:18:31Z</time>
      </trkpt>
      <trkpt lat="46.56275" lon="5.68328">
        <ele>497.4</ele>
        <time>2022-02-28T15:18:32Z</time>
      </trkpt>
      <trkpt lat="46.56279" lon="5.68331">
        <ele>497.4</ele>
        <time>2022-02-28T15:18:33Z</time>
      </trkpt>
      <trkpt lat="46.56284" lon="5.68334">
        <ele>497.6</ele>
        <time>2022-02-28T15:18:34Z</time>
      </trkpt>
      <trkpt lat="46.56288" lon="5.68337">
        <ele>497.6</ele>
        <time>2022-02-28T15:18:35Z</time>
      </trkpt>
      <trkpt lat="46.56292" lon="5.68341">
        <ele>497.8</ele>
        <time>2022-02-28T15:18:36Z</time>
      </trkpt>
      <trkpt lat="46.56297" lon="5.68344">
        <ele>497.8</ele>
        <time>2022-02-28T15:18:37Z</time>
      </trkpt>
      <trkpt lat="46.56301" lon="5.68347">
        <ele>497.8</ele>
        <time>2022-02-28T15:18:38Z</time>
      </trkpt>
      <trkpt lat="46.56305" lon="5.6835">
        <ele>497.8</ele>
        <time>2022-02-28T15:18:39Z</time>
      </trkpt>
      <trkpt lat="46.5631" lon="5.68354">
        <ele>498</ele>
        <time>2022-02-28T15:18:40Z</time>
      </trkpt>
      <trkpt lat="46.56314" lon="5.68357">
        <ele>498</ele>
        <time>2022-02-28T15:18:41Z</time>
      </trkpt>
      <trkpt lat="46.56319" lon="5.6836">
        <ele>498</ele>
        <time>2022-02-28T15:18:42Z</time>
      </trkpt>
      <trkpt lat="46.56323" lon="5.68363">
        <ele>498</ele>
        <time>2022-02-28T15:18:43Z</time>
      </trkpt>
      <trkpt lat="46.56328" lon="5.68366">
        <ele>498</ele>
        <time>2022-02-28T15:18:44Z</time>
      </trkpt>
      <trkpt lat="46.56332" lon="5.6837">
        <ele>498</ele>
        <time>2022-02-28T15:18:45Z</time>
      </trkpt>
      <trkpt lat="46.56337" lon="5.68373">
        <ele>498.4</ele>
        <time>2022-02-28T15:18:46Z</time>
      </trkpt>
      <trkpt lat="46.56341" lon="5.68377">
        <ele>498.4</ele>
        <time>2022-02-28T15:18:47Z</time>
      </trkpt>
      <trkpt lat="46.56346" lon="5.6838">
        <ele>498.4</ele>
        <time>2022-02-28T15:18:48Z</time>
      </trkpt>
      <trkpt lat="46.5635" lon="5.68383">
        <ele>498.4</ele>
        <time>2022-02-28T15:18:49Z</time>
      </trkpt>
      <trkpt lat="46.56355" lon="5.68387">
        <ele>498.4</ele>
        <time>2022-02-28T15:18:50Z</time>
      </trkpt>
      <trkpt lat="46.5636" lon="5.6839">
        <ele>498.4</ele>
        <time>2022-02-28T15:18:51Z</time>
      </trkpt>
      <trkpt lat="46.56365" lon="5.68394">
        <ele>498.4</ele>
        <time>2022-02-28T15:18:52Z</time>
      </trkpt>
      <trkpt lat="46.56369" lon="5.68397">
        <ele>498.4</ele>
        <time>2022-02-28T15:18:53Z</time>
      </trkpt>
      <trkpt lat="46.56374" lon="5.68401">
        <ele>498.4</ele>
        <time>2022-02-28T15:18:54Z</time>
      </trkpt>
      <trkpt lat="46.56379" lon="5.68404">
        <ele>498.4</ele>
        <time>2022-02-28T15:18:55Z</time>
      </trkpt>
      <trkpt lat="46.56384" lon="5.68408">
        <ele>498.6</ele>
        <time>2022-02-28T15:18:56Z</time>
      </trkpt>
      <trkpt lat="46.56389" lon="5.68412">
        <ele>498.6</ele>
        <time>2022-02-28T15:18:57Z</time>
      </trkpt>
      <trkpt lat="46.56394" lon="5.68415">
        <ele>498.6</ele>
        <time>2022-02-28T15:18:58Z</time>
      </trkpt>
      <trkpt lat="46.56401" lon="5.6842">
        <ele>498.6</ele>
        <time>2022-02-28T15:18:59Z</time>
      </trkpt>
      <trkpt lat="46.56403" lon="5.68422">
        <ele>498.6</ele>
        <time>2022-02-28T15:19:00Z</time>
      </trkpt>
      <trkpt lat="46.56408" lon="5.68425">
        <ele>498.6</ele>
        <time>2022-02-28T15:19:01Z</time>
      </trkpt>
      <trkpt lat="46.56413" lon="5.68429">
        <ele>498.6</ele>
        <time>2022-02-28T15:19:02Z</time>
      </trkpt>
      <trkpt lat="46.56418" lon="5.68433">
        <ele>498.6</ele>
        <time>2022-02-28T15:19:03Z</time>
      </trkpt>
      <trkpt lat="46.56423" lon="5.68437">
        <ele>498.6</ele>
        <time>2022-02-28T15:19:04Z</time>
      </trkpt>
      <trkpt lat="46.56427" lon="5.68441">
        <ele>498.6</ele>
        <time>2022-02-28T15:19:05Z</time>
      </trkpt>
      <trkpt lat="46.56432" lon="5.68444">
        <ele>498.6</ele>
        <time>2022-02-28T15:19:06Z</time>
      </trkpt>
      <trkpt lat="46.56437" lon="5.68448">
        <ele>498.6</ele>
        <time>2022-02-28T15:19:07Z</time>
      </trkpt>
      <trkpt lat="46.56442" lon="5.68451">
        <ele>498.6</ele>
        <time>2022-02-28T15:19:08Z</time>
      </trkpt>
      <trkpt lat="46.56447" lon="5.68455">
        <ele>498.6</ele>
        <time>2022-02-28T15:19:09Z</time>
      </trkpt>
      <trkpt lat="46.56452" lon="5.68458">
        <ele>498.6</ele>
        <time>2022-02-28T15:19:10Z</time>
      </trkpt>
      <trkpt lat="46.56456" lon="5.68462">
        <ele>498.6</ele>
        <time>2022-02-28T15:19:11Z</time>
      </trkpt>
      <trkpt lat="46.56461" lon="5.68466">
        <ele>498.6</ele>
        <time>2022-02-28T15:19:12Z</time>
      </trkpt>
      <trkpt lat="46.56466" lon="5.6847">
        <ele>498.6</ele>
        <time>2022-02-28T15:19:13Z</time>
      </trkpt>
      <trkpt lat="46.56471" lon="5.68474">
        <ele>498.6</ele>
        <time>2022-02-28T15:19:14Z</time>
      </trkpt>
      <trkpt lat="46.56475" lon="5.68478">
        <ele>498.6</ele>
        <time>2022-02-28T15:19:15Z</time>
      </trkpt>
      <trkpt lat="46.5648" lon="5.68482">
        <ele>498.6</ele>
        <time>2022-02-28T15:19:16Z</time>
      </trkpt>
      <trkpt lat="46.56486" lon="5.68485">
        <ele>498.6</ele>
        <time>2022-02-28T15:19:17Z</time>
      </trkpt>
      <trkpt lat="46.56491" lon="5.68489">
        <ele>498.6</ele>
        <time>2022-02-28T15:19:18Z</time>
      </trkpt>
      <trkpt lat="46.56496" lon="5.68492">
        <ele>498.6</ele>
        <time>2022-02-28T15:19:19Z</time>
      </trkpt>
      <trkpt lat="46.56501" lon="5.68496">
        <ele>498.6</ele>
        <time>2022-02-28T15:19:20Z</time>
      </trkpt>
      <trkpt lat="46.56506" lon="5.68499">
        <ele>498.6</ele>
        <time>2022-02-28T15:19:21Z</time>
      </trkpt>
      <trkpt lat="46.56511" lon="5.68503">
        <ele>498.6</ele>
        <time>2022-02-28T15:19:22Z</time>
      </trkpt>
      <trkpt lat="46.56516" lon="5.68507">
        <ele>498.6</ele>
        <time>2022-02-28T15:19:23Z</time>
      </trkpt>
      <trkpt lat="46.56522" lon="5.6851">
        <ele>498.6</ele>
        <time>2022-02-28T15:19:24Z</time>
      </trkpt>
      <trkpt lat="46.56527" lon="5.68513">
        <ele>498.6</ele>
        <time>2022-02-28T15:19:25Z</time>
      </trkpt>
      <trkpt lat="46.56532" lon="5.68517">
        <ele>498.6</ele>
        <time>2022-02-28T15:19:26Z</time>
      </trkpt>
      <trkpt lat="46.56543" lon="5.68524">
        <ele>498.6</ele>
        <time>2022-02-28T15:19:27Z</time>
      </trkpt>
      <trkpt lat="46.56548" lon="5.68527">
        <ele>498.6</ele>
        <time>2022-02-28T15:19:28Z</time>
      </trkpt>
      <trkpt lat="46.56554" lon="5.68531">
        <ele>498.6</ele>
        <time>2022-02-28T15:19:29Z</time>
      </trkpt>
      <trkpt lat="46.56559" lon="5.68534">
        <ele>498.6</ele>
        <time>2022-02-28T15:19:30Z</time>
      </trkpt>
      <trkpt lat="46.56564" lon="5.68538">
        <ele>498.6</ele>
        <time>2022-02-28T15:19:31Z</time>
      </trkpt>
      <trkpt lat="46.5657" lon="5.68542">
        <ele>498.6</ele>
        <time>2022-02-28T15:19:32Z</time>
      </trkpt>
      <trkpt lat="46.56575" lon="5.68545">
        <ele>498.6</ele>
        <time>2022-02-28T15:19:33Z</time>
      </trkpt>
      <trkpt lat="46.56581" lon="5.68549">
        <ele>498.6</ele>
        <time>2022-02-28T15:19:34Z</time>
      </trkpt>
      <trkpt lat="46.56586" lon="5.68552">
        <ele>498.6</ele>
        <time>2022-02-28T15:19:35Z</time>
      </trkpt>
      <trkpt lat="46.56591" lon="5.68556">
        <ele>498.6</ele>
        <time>2022-02-28T15:19:36Z</time>
      </trkpt>
      <trkpt lat="46.56596" lon="5.6856">
        <ele>498.6</ele>
        <time>2022-02-28T15:19:37Z</time>
      </trkpt>
      <trkpt lat="46.56602" lon="5.68564">
        <ele>498.6</ele>
        <time>2022-02-28T15:19:38Z</time>
      </trkpt>
      <trkpt lat="46.56607" lon="5.68567">
        <ele>498.8</ele>
        <time>2022-02-28T15:19:39Z</time>
      </trkpt>
      <trkpt lat="46.56612" lon="5.68571">
        <ele>498.8</ele>
        <time>2022-02-28T15:19:40Z</time>
      </trkpt>
      <trkpt lat="46.56617" lon="5.68575">
        <ele>498.8</ele>
        <time>2022-02-28T15:19:41Z</time>
      </trkpt>
      <trkpt lat="46.56623" lon="5.68579">
        <ele>498.8</ele>
        <time>2022-02-28T15:19:42Z</time>
      </trkpt>
      <trkpt lat="46.56623" lon="5.68579">
        <ele>498.8</ele>
        <time>2022-02-28T15:19:43Z</time>
      </trkpt>
      <trkpt lat="46.56628" lon="5.68583">
        <ele>498.8</ele>
        <time>2022-02-28T15:19:44Z</time>
      </trkpt>
      <trkpt lat="46.56633" lon="5.68587">
        <ele>498.8</ele>
        <time>2022-02-28T15:19:45Z</time>
      </trkpt>
      <trkpt lat="46.56639" lon="5.68591">
        <ele>498.8</ele>
        <time>2022-02-28T15:19:46Z</time>
      </trkpt>
      <trkpt lat="46.56644" lon="5.68595">
        <ele>498.8</ele>
        <time>2022-02-28T15:19:47Z</time>
      </trkpt>
      <trkpt lat="46.5665" lon="5.68599">
        <ele>498.4</ele>
        <time>2022-02-28T15:19:48Z</time>
      </trkpt>
      <trkpt lat="46.56655" lon="5.68603">
        <ele>498.4</ele>
        <time>2022-02-28T15:19:49Z</time>
      </trkpt>
      <trkpt lat="46.56661" lon="5.68607">
        <ele>498.4</ele>
        <time>2022-02-28T15:19:50Z</time>
      </trkpt>
      <trkpt lat="46.56666" lon="5.68611">
        <ele>498.2</ele>
        <time>2022-02-28T15:19:51Z</time>
      </trkpt>
      <trkpt lat="46.56672" lon="5.68616">
        <ele>498.2</ele>
        <time>2022-02-28T15:19:52Z</time>
      </trkpt>
      <trkpt lat="46.56678" lon="5.6862">
        <ele>498.2</ele>
        <time>2022-02-28T15:19:53Z</time>
      </trkpt>
      <trkpt lat="46.56683" lon="5.68625">
        <ele>498</ele>
        <time>2022-02-28T15:19:54Z</time>
      </trkpt>
      <trkpt lat="46.56689" lon="5.68629">
        <ele>498</ele>
        <time>2022-02-28T15:19:55Z</time>
      </trkpt>
      <trkpt lat="46.56695" lon="5.68633">
        <ele>498</ele>
        <time>2022-02-28T15:19:56Z</time>
      </trkpt>
      <trkpt lat="46.56701" lon="5.68637">
        <ele>498</ele>
        <time>2022-02-28T15:19:57Z</time>
      </trkpt>
      <trkpt lat="46.56707" lon="5.68641">
        <ele>497.6</ele>
        <time>2022-02-28T15:19:58Z</time>
      </trkpt>
      <trkpt lat="46.56713" lon="5.68645">
        <ele>497.6</ele>
        <time>2022-02-28T15:19:59Z</time>
      </trkpt>
      <trkpt lat="46.56719" lon="5.68649">
        <ele>497.2</ele>
        <time>2022-02-28T15:20:00Z</time>
      </trkpt>
      <trkpt lat="46.56726" lon="5.68652">
        <ele>497.2</ele>
        <time>2022-02-28T15:20:01Z</time>
      </trkpt>
      <trkpt lat="46.56732" lon="5.68657">
        <ele>497</ele>
        <time>2022-02-28T15:20:02Z</time>
      </trkpt>
      <trkpt lat="46.56739" lon="5.68661">
        <ele>497</ele>
        <time>2022-02-28T15:20:03Z</time>
      </trkpt>
      <trkpt lat="46.56745" lon="5.68666">
        <ele>496.6</ele>
        <time>2022-02-28T15:20:04Z</time>
      </trkpt>
      <trkpt lat="46.56752" lon="5.68672">
        <ele>496.2</ele>
        <time>2022-02-28T15:20:05Z</time>
      </trkpt>
      <trkpt lat="46.56758" lon="5.68677">
        <ele>496</ele>
        <time>2022-02-28T15:20:06Z</time>
      </trkpt>
      <trkpt lat="46.56765" lon="5.68683">
        <ele>495.8</ele>
        <time>2022-02-28T15:20:07Z</time>
      </trkpt>
      <trkpt lat="46.56772" lon="5.68688">
        <ele>495.6</ele>
        <time>2022-02-28T15:20:08Z</time>
      </trkpt>
      <trkpt lat="46.56778" lon="5.68694">
        <ele>495.2</ele>
        <time>2022-02-28T15:20:09Z</time>
      </trkpt>
      <trkpt lat="46.56785" lon="5.68699">
        <ele>495</ele>
        <time>2022-02-28T15:20:10Z</time>
      </trkpt>
      <trkpt lat="46.56792" lon="5.68704">
        <ele>494.8</ele>
        <time>2022-02-28T15:20:11Z</time>
      </trkpt>
      <trkpt lat="46.56799" lon="5.68709">
        <ele>494.4</ele>
        <time>2022-02-28T15:20:12Z</time>
      </trkpt>
      <trkpt lat="46.56806" lon="5.68713">
        <ele>494.2</ele>
        <time>2022-02-28T15:20:13Z</time>
      </trkpt>
      <trkpt lat="46.56813" lon="5.68718">
        <ele>494.2</ele>
        <time>2022-02-28T15:20:14Z</time>
      </trkpt>
      <trkpt lat="46.5682" lon="5.68722">
        <ele>493.8</ele>
        <time>2022-02-28T15:20:15Z</time>
      </trkpt>
      <trkpt lat="46.56827" lon="5.68726">
        <ele>493.8</ele>
        <time>2022-02-28T15:20:16Z</time>
      </trkpt>
      <trkpt lat="46.56834" lon="5.6873">
        <ele>493.4</ele>
        <time>2022-02-28T15:20:17Z</time>
      </trkpt>
      <trkpt lat="46.56841" lon="5.68734">
        <ele>493.4</ele>
        <time>2022-02-28T15:20:18Z</time>
      </trkpt>
      <trkpt lat="46.56849" lon="5.68738">
        <ele>493.2</ele>
        <time>2022-02-28T15:20:19Z</time>
      </trkpt>
      <trkpt lat="46.56856" lon="5.68741">
        <ele>493.2</ele>
        <time>2022-02-28T15:20:20Z</time>
      </trkpt>
      <trkpt lat="46.56863" lon="5.68745">
        <ele>493</ele>
        <time>2022-02-28T15:20:21Z</time>
      </trkpt>
      <trkpt lat="46.56869" lon="5.68748">
        <ele>493</ele>
        <time>2022-02-28T15:20:22Z</time>
      </trkpt>
      <trkpt lat="46.56876" lon="5.6875">
        <ele>492.8</ele>
        <time>2022-02-28T15:20:23Z</time>
      </trkpt>
      <trkpt lat="46.56883" lon="5.68753">
        <ele>492.8</ele>
        <time>2022-02-28T15:20:24Z</time>
      </trkpt>
      <trkpt lat="46.56889" lon="5.68755">
        <ele>492.8</ele>
        <time>2022-02-28T15:20:25Z</time>
      </trkpt>
      <trkpt lat="46.56896" lon="5.68758">
        <ele>492.4</ele>
        <time>2022-02-28T15:20:26Z</time>
      </trkpt>
      <trkpt lat="46.56902" lon="5.6876">
        <ele>492.4</ele>
        <time>2022-02-28T15:20:27Z</time>
      </trkpt>
      <trkpt lat="46.56908" lon="5.68763">
        <ele>492.4</ele>
        <time>2022-02-28T15:20:28Z</time>
      </trkpt>
      <trkpt lat="46.56914" lon="5.68765">
        <ele>492.4</ele>
        <time>2022-02-28T15:20:29Z</time>
      </trkpt>
      <trkpt lat="46.5692" lon="5.68768">
        <ele>492.4</ele>
        <time>2022-02-28T15:20:30Z</time>
      </trkpt>
      <trkpt lat="46.56925" lon="5.68771">
        <ele>492.4</ele>
        <time>2022-02-28T15:20:31Z</time>
      </trkpt>
      <trkpt lat="46.56931" lon="5.68774">
        <ele>492.4</ele>
        <time>2022-02-28T15:20:32Z</time>
      </trkpt>
      <trkpt lat="46.56936" lon="5.68776">
        <ele>492.4</ele>
        <time>2022-02-28T15:20:33Z</time>
      </trkpt>
      <trkpt lat="46.56942" lon="5.68779">
        <ele>492.2</ele>
        <time>2022-02-28T15:20:34Z</time>
      </trkpt>
      <trkpt lat="46.56951" lon="5.68784">
        <ele>492</ele>
        <time>2022-02-28T15:20:35Z</time>
      </trkpt>
      <trkpt lat="46.56954" lon="5.68785">
        <ele>491.8</ele>
        <time>2022-02-28T15:20:36Z</time>
      </trkpt>
      <trkpt lat="46.56961" lon="5.68788">
        <ele>491.4</ele>
        <time>2022-02-28T15:20:37Z</time>
      </trkpt>
      <trkpt lat="46.56968" lon="5.68791">
        <ele>491.2</ele>
        <time>2022-02-28T15:20:38Z</time>
      </trkpt>
      <trkpt lat="46.56974" lon="5.68793">
        <ele>491</ele>
        <time>2022-02-28T15:20:39Z</time>
      </trkpt>
      <trkpt lat="46.56981" lon="5.68796">
        <ele>490.8</ele>
        <time>2022-02-28T15:20:40Z</time>
      </trkpt>
      <trkpt lat="46.56989" lon="5.68799">
        <ele>490.4</ele>
        <time>2022-02-28T15:20:41Z</time>
      </trkpt>
      <trkpt lat="46.56996" lon="5.68802">
        <ele>490.4</ele>
        <time>2022-02-28T15:20:42Z</time>
      </trkpt>
      <trkpt lat="46.57003" lon="5.68805">
        <ele>490</ele>
        <time>2022-02-28T15:20:43Z</time>
      </trkpt>
      <trkpt lat="46.5701" lon="5.68808">
        <ele>490</ele>
        <time>2022-02-28T15:20:44Z</time>
      </trkpt>
      <trkpt lat="46.57017" lon="5.68811">
        <ele>489.8</ele>
        <time>2022-02-28T15:20:45Z</time>
      </trkpt>
      <trkpt lat="46.57023" lon="5.68815">
        <ele>489.8</ele>
        <time>2022-02-28T15:20:46Z</time>
      </trkpt>
      <trkpt lat="46.5703" lon="5.68818">
        <ele>489.8</ele>
        <time>2022-02-28T15:20:47Z</time>
      </trkpt>
      <trkpt lat="46.57037" lon="5.68822">
        <ele>489.8</ele>
        <time>2022-02-28T15:20:48Z</time>
      </trkpt>
      <trkpt lat="46.57043" lon="5.68826">
        <ele>489.6</ele>
        <time>2022-02-28T15:20:49Z</time>
      </trkpt>
      <trkpt lat="46.57049" lon="5.68831">
        <ele>489.6</ele>
        <time>2022-02-28T15:20:50Z</time>
      </trkpt>
      <trkpt lat="46.57055" lon="5.68837">
        <ele>489.2</ele>
        <time>2022-02-28T15:20:51Z</time>
      </trkpt>
      <trkpt lat="46.57061" lon="5.68844">
        <ele>489.2</ele>
        <time>2022-02-28T15:20:52Z</time>
      </trkpt>
      <trkpt lat="46.57066" lon="5.68851">
        <ele>489</ele>
        <time>2022-02-28T15:20:53Z</time>
      </trkpt>
      <trkpt lat="46.57072" lon="5.68858">
        <ele>489</ele>
        <time>2022-02-28T15:20:54Z</time>
      </trkpt>
      <trkpt lat="46.57077" lon="5.68866">
        <ele>488.6</ele>
        <time>2022-02-28T15:20:55Z</time>
      </trkpt>
      <trkpt lat="46.57083" lon="5.68873">
        <ele>488.4</ele>
        <time>2022-02-28T15:20:56Z</time>
      </trkpt>
      <trkpt lat="46.57089" lon="5.6888">
        <ele>488</ele>
        <time>2022-02-28T15:20:57Z</time>
      </trkpt>
      <trkpt lat="46.57094" lon="5.68888">
        <ele>487.8</ele>
        <time>2022-02-28T15:20:58Z</time>
      </trkpt>
      <trkpt lat="46.57102" lon="5.68899">
        <ele>487.8</ele>
        <time>2022-02-28T15:20:59Z</time>
      </trkpt>
      <trkpt lat="46.57105" lon="5.68903">
        <ele>487.6</ele>
        <time>2022-02-28T15:21:00Z</time>
      </trkpt>
      <trkpt lat="46.57111" lon="5.6891">
        <ele>487.6</ele>
        <time>2022-02-28T15:21:01Z</time>
      </trkpt>
      <trkpt lat="46.57116" lon="5.68917">
        <ele>487.6</ele>
        <time>2022-02-28T15:21:02Z</time>
      </trkpt>
      <trkpt lat="46.57121" lon="5.68924">
        <ele>487.4</ele>
        <time>2022-02-28T15:21:03Z</time>
      </trkpt>
      <trkpt lat="46.57126" lon="5.68931">
        <ele>487.4</ele>
        <time>2022-02-28T15:21:04Z</time>
      </trkpt>
      <trkpt lat="46.57132" lon="5.68937">
        <ele>487.4</ele>
        <time>2022-02-28T15:21:05Z</time>
      </trkpt>
      <trkpt lat="46.57137" lon="5.68945">
        <ele>487.4</ele>
        <time>2022-02-28T15:21:06Z</time>
      </trkpt>
      <trkpt lat="46.57142" lon="5.68952">
        <ele>487.2</ele>
        <time>2022-02-28T15:21:07Z</time>
      </trkpt>
      <trkpt lat="46.57148" lon="5.68959">
        <ele>487.2</ele>
        <time>2022-02-28T15:21:08Z</time>
      </trkpt>
      <trkpt lat="46.57154" lon="5.68966">
        <ele>486.8</ele>
        <time>2022-02-28T15:21:09Z</time>
      </trkpt>
      <trkpt lat="46.57159" lon="5.68973">
        <ele>486.8</ele>
        <time>2022-02-28T15:21:10Z</time>
      </trkpt>
      <trkpt lat="46.57165" lon="5.6898">
        <ele>486.6</ele>
        <time>2022-02-28T15:21:11Z</time>
      </trkpt>
      <trkpt lat="46.5717" lon="5.68987">
        <ele>486.6</ele>
        <time>2022-02-28T15:21:12Z</time>
      </trkpt>
      <trkpt lat="46.57176" lon="5.68994">
        <ele>486.6</ele>
        <time>2022-02-28T15:21:13Z</time>
      </trkpt>
      <trkpt lat="46.57181" lon="5.69001">
        <ele>486.4</ele>
        <time>2022-02-28T15:21:14Z</time>
      </trkpt>
      <trkpt lat="46.57186" lon="5.69009">
        <ele>486.4</ele>
        <time>2022-02-28T15:21:15Z</time>
      </trkpt>
      <trkpt lat="46.57192" lon="5.69016">
        <ele>486.4</ele>
        <time>2022-02-28T15:21:16Z</time>
      </trkpt>
      <trkpt lat="46.57197" lon="5.69022">
        <ele>486.4</ele>
        <time>2022-02-28T15:21:17Z</time>
      </trkpt>
      <trkpt lat="46.57203" lon="5.69029">
        <ele>486.2</ele>
        <time>2022-02-28T15:21:18Z</time>
      </trkpt>
      <trkpt lat="46.57208" lon="5.69036">
        <ele>486.2</ele>
        <time>2022-02-28T15:21:19Z</time>
      </trkpt>
      <trkpt lat="46.57213" lon="5.69043">
        <ele>486.2</ele>
        <time>2022-02-28T15:21:20Z</time>
      </trkpt>
      <trkpt lat="46.57219" lon="5.6905">
        <ele>486.2</ele>
        <time>2022-02-28T15:21:21Z</time>
      </trkpt>
      <trkpt lat="46.57224" lon="5.69057">
        <ele>486</ele>
        <time>2022-02-28T15:21:22Z</time>
      </trkpt>
      <trkpt lat="46.5723" lon="5.69065">
        <ele>486</ele>
        <time>2022-02-28T15:21:23Z</time>
      </trkpt>
      <trkpt lat="46.57235" lon="5.69072">
        <ele>486</ele>
        <time>2022-02-28T15:21:24Z</time>
      </trkpt>
      <trkpt lat="46.57241" lon="5.69079">
        <ele>485.6</ele>
        <time>2022-02-28T15:21:25Z</time>
      </trkpt>
      <trkpt lat="46.57246" lon="5.69086">
        <ele>485.6</ele>
        <time>2022-02-28T15:21:26Z</time>
      </trkpt>
      <trkpt lat="46.57251" lon="5.69093">
        <ele>485.6</ele>
        <time>2022-02-28T15:21:27Z</time>
      </trkpt>
      <trkpt lat="46.57257" lon="5.69099">
        <ele>485.4</ele>
        <time>2022-02-28T15:21:28Z</time>
      </trkpt>
      <trkpt lat="46.57262" lon="5.69106">
        <ele>485.4</ele>
        <time>2022-02-28T15:21:29Z</time>
      </trkpt>
      <trkpt lat="46.57268" lon="5.69113">
        <ele>485.4</ele>
        <time>2022-02-28T15:21:30Z</time>
      </trkpt>
      <trkpt lat="46.57273" lon="5.69119">
        <ele>485.4</ele>
        <time>2022-02-28T15:21:31Z</time>
      </trkpt>
      <trkpt lat="46.57278" lon="5.69126">
        <ele>485.4</ele>
        <time>2022-02-28T15:21:32Z</time>
      </trkpt>
      <trkpt lat="46.57283" lon="5.69132">
        <ele>485.4</ele>
        <time>2022-02-28T15:21:33Z</time>
      </trkpt>
      <trkpt lat="46.57288" lon="5.69139">
        <ele>485.4</ele>
        <time>2022-02-28T15:21:34Z</time>
      </trkpt>
      <trkpt lat="46.57293" lon="5.69145">
        <ele>485.4</ele>
        <time>2022-02-28T15:21:35Z</time>
      </trkpt>
      <trkpt lat="46.57298" lon="5.69152">
        <ele>485.4</ele>
        <time>2022-02-28T15:21:36Z</time>
      </trkpt>
      <trkpt lat="46.57303" lon="5.69158">
        <ele>485.4</ele>
        <time>2022-02-28T15:21:37Z</time>
      </trkpt>
      <trkpt lat="46.57308" lon="5.69164">
        <ele>485.4</ele>
        <time>2022-02-28T15:21:38Z</time>
      </trkpt>
      <trkpt lat="46.57313" lon="5.69171">
        <ele>485.4</ele>
        <time>2022-02-28T15:21:39Z</time>
      </trkpt>
      <trkpt lat="46.57318" lon="5.69177">
        <ele>485</ele>
        <time>2022-02-28T15:21:40Z</time>
      </trkpt>
      <trkpt lat="46.57323" lon="5.69184">
        <ele>485</ele>
        <time>2022-02-28T15:21:41Z</time>
      </trkpt>
      <trkpt lat="46.57328" lon="5.69191">
        <ele>484.8</ele>
        <time>2022-02-28T15:21:42Z</time>
      </trkpt>
      <trkpt lat="46.57334" lon="5.69198">
        <ele>484.8</ele>
        <time>2022-02-28T15:21:43Z</time>
      </trkpt>
      <trkpt lat="46.5734" lon="5.69205">
        <ele>484.4</ele>
        <time>2022-02-28T15:21:44Z</time>
      </trkpt>
      <trkpt lat="46.57345" lon="5.69212">
        <ele>484.4</ele>
        <time>2022-02-28T15:21:45Z</time>
      </trkpt>
      <trkpt lat="46.57351" lon="5.69219">
        <ele>484.2</ele>
        <time>2022-02-28T15:21:46Z</time>
      </trkpt>
      <trkpt lat="46.57357" lon="5.69226">
        <ele>484</ele>
        <time>2022-02-28T15:21:47Z</time>
      </trkpt>
      <trkpt lat="46.57363" lon="5.69233">
        <ele>484</ele>
        <time>2022-02-28T15:21:48Z</time>
      </trkpt>
      <trkpt lat="46.57369" lon="5.69239">
        <ele>483.8</ele>
        <time>2022-02-28T15:21:49Z</time>
      </trkpt>
      <trkpt lat="46.57375" lon="5.69245">
        <ele>483.8</ele>
        <time>2022-02-28T15:21:50Z</time>
      </trkpt>
      <trkpt lat="46.57382" lon="5.6925">
        <ele>483.8</ele>
        <time>2022-02-28T15:21:51Z</time>
      </trkpt>
      <trkpt lat="46.57389" lon="5.69255">
        <ele>483.4</ele>
        <time>2022-02-28T15:21:52Z</time>
      </trkpt>
      <trkpt lat="46.57396" lon="5.6926">
        <ele>483.4</ele>
        <time>2022-02-28T15:21:53Z</time>
      </trkpt>
      <trkpt lat="46.57403" lon="5.69264">
        <ele>483.4</ele>
        <time>2022-02-28T15:21:54Z</time>
      </trkpt>
      <trkpt lat="46.5741" lon="5.69269">
        <ele>483.4</ele>
        <time>2022-02-28T15:21:55Z</time>
      </trkpt>
      <trkpt lat="46.57416" lon="5.69274">
        <ele>483.4</ele>
        <time>2022-02-28T15:21:56Z</time>
      </trkpt>
      <trkpt lat="46.57423" lon="5.69278">
        <ele>483.4</ele>
        <time>2022-02-28T15:21:57Z</time>
      </trkpt>
      <trkpt lat="46.5743" lon="5.69283">
        <ele>483.2</ele>
        <time>2022-02-28T15:21:58Z</time>
      </trkpt>
      <trkpt lat="46.57437" lon="5.69286">
        <ele>483.2</ele>
        <time>2022-02-28T15:21:59Z</time>
      </trkpt>
      <trkpt lat="46.57443" lon="5.69291">
        <ele>483.2</ele>
        <time>2022-02-28T15:22:00Z</time>
      </trkpt>
      <trkpt lat="46.5745" lon="5.69295">
        <ele>483</ele>
        <time>2022-02-28T15:22:01Z</time>
      </trkpt>
      <trkpt lat="46.57457" lon="5.69299">
        <ele>483</ele>
        <time>2022-02-28T15:22:02Z</time>
      </trkpt>
      <trkpt lat="46.57463" lon="5.69303">
        <ele>482.6</ele>
        <time>2022-02-28T15:22:03Z</time>
      </trkpt>
      <trkpt lat="46.5747" lon="5.69307">
        <ele>482.6</ele>
        <time>2022-02-28T15:22:04Z</time>
      </trkpt>
      <trkpt lat="46.57476" lon="5.69311">
        <ele>482.2</ele>
        <time>2022-02-28T15:22:05Z</time>
      </trkpt>
      <trkpt lat="46.57483" lon="5.69315">
        <ele>482.2</ele>
        <time>2022-02-28T15:22:06Z</time>
      </trkpt>
      <trkpt lat="46.57489" lon="5.6932">
        <ele>482.2</ele>
        <time>2022-02-28T15:22:07Z</time>
      </trkpt>
      <trkpt lat="46.57494" lon="5.69325">
        <ele>482.2</ele>
        <time>2022-02-28T15:22:08Z</time>
      </trkpt>
      <trkpt lat="46.57499" lon="5.69331">
        <ele>482.2</ele>
        <time>2022-02-28T15:22:09Z</time>
      </trkpt>
      <trkpt lat="46.57504" lon="5.69338">
        <ele>482.2</ele>
        <time>2022-02-28T15:22:10Z</time>
      </trkpt>
      <trkpt lat="46.57508" lon="5.69344">
        <ele>482.2</ele>
        <time>2022-02-28T15:22:11Z</time>
      </trkpt>
      <trkpt lat="46.57513" lon="5.69351">
        <ele>482</ele>
        <time>2022-02-28T15:22:12Z</time>
      </trkpt>
      <trkpt lat="46.57517" lon="5.69357">
        <ele>482</ele>
        <time>2022-02-28T15:22:13Z</time>
      </trkpt>
      <trkpt lat="46.57522" lon="5.69362">
        <ele>482</ele>
        <time>2022-02-28T15:22:14Z</time>
      </trkpt>
      <trkpt lat="46.57526" lon="5.69368">
        <ele>482</ele>
        <time>2022-02-28T15:22:15Z</time>
      </trkpt>
      <trkpt lat="46.57531" lon="5.69373">
        <ele>481.8</ele>
        <time>2022-02-28T15:22:16Z</time>
      </trkpt>
      <trkpt lat="46.57536" lon="5.69379">
        <ele>481.8</ele>
        <time>2022-02-28T15:22:17Z</time>
      </trkpt>
      <trkpt lat="46.57541" lon="5.69384">
        <ele>481.8</ele>
        <time>2022-02-28T15:22:18Z</time>
      </trkpt>
      <trkpt lat="46.57546" lon="5.6939">
        <ele>481.4</ele>
        <time>2022-02-28T15:22:19Z</time>
      </trkpt>
      <trkpt lat="46.57551" lon="5.69395">
        <ele>481.4</ele>
        <time>2022-02-28T15:22:20Z</time>
      </trkpt>
      <trkpt lat="46.57557" lon="5.69401">
        <ele>481.2</ele>
        <time>2022-02-28T15:22:21Z</time>
      </trkpt>
      <trkpt lat="46.57562" lon="5.69406">
        <ele>481.2</ele>
        <time>2022-02-28T15:22:22Z</time>
      </trkpt>
      <trkpt lat="46.57567" lon="5.69412">
        <ele>481</ele>
        <time>2022-02-28T15:22:23Z</time>
      </trkpt>
      <trkpt lat="46.57572" lon="5.69418">
        <ele>481</ele>
        <time>2022-02-28T15:22:24Z</time>
      </trkpt>
      <trkpt lat="46.57578" lon="5.69423">
        <ele>480.8</ele>
        <time>2022-02-28T15:22:25Z</time>
      </trkpt>
      <trkpt lat="46.57584" lon="5.69429">
        <ele>480.8</ele>
        <time>2022-02-28T15:22:26Z</time>
      </trkpt>
      <trkpt lat="46.5759" lon="5.69434">
        <ele>480.2</ele>
        <time>2022-02-28T15:22:27Z</time>
      </trkpt>
      <trkpt lat="46.57596" lon="5.69438">
        <ele>480.2</ele>
        <time>2022-02-28T15:22:28Z</time>
      </trkpt>
      <trkpt lat="46.57602" lon="5.69443">
        <ele>479.8</ele>
        <time>2022-02-28T15:22:29Z</time>
      </trkpt>
      <trkpt lat="46.57609" lon="5.69448">
        <ele>479.6</ele>
        <time>2022-02-28T15:22:30Z</time>
      </trkpt>
      <trkpt lat="46.57615" lon="5.69453">
        <ele>479.2</ele>
        <time>2022-02-28T15:22:31Z</time>
      </trkpt>
      <trkpt lat="46.5762" lon="5.69459">
        <ele>479</ele>
        <time>2022-02-28T15:22:32Z</time>
      </trkpt>
      <trkpt lat="46.57625" lon="5.69465">
        <ele>478.8</ele>
        <time>2022-02-28T15:22:33Z</time>
      </trkpt>
      <trkpt lat="46.57631" lon="5.69473">
        <ele>478.6</ele>
        <time>2022-02-28T15:22:34Z</time>
      </trkpt>
      <trkpt lat="46.57636" lon="5.6948">
        <ele>478.2</ele>
        <time>2022-02-28T15:22:35Z</time>
      </trkpt>
      <trkpt lat="46.57642" lon="5.69487">
        <ele>478</ele>
        <time>2022-02-28T15:22:36Z</time>
      </trkpt>
      <trkpt lat="46.57647" lon="5.69493">
        <ele>477.8</ele>
        <time>2022-02-28T15:22:37Z</time>
      </trkpt>
      <trkpt lat="46.57653" lon="5.695">
        <ele>477.4</ele>
        <time>2022-02-28T15:22:38Z</time>
      </trkpt>
      <trkpt lat="46.57659" lon="5.69507">
        <ele>477.2</ele>
        <time>2022-02-28T15:22:39Z</time>
      </trkpt>
      <trkpt lat="46.57665" lon="5.69514">
        <ele>477</ele>
        <time>2022-02-28T15:22:40Z</time>
      </trkpt>
      <trkpt lat="46.57672" lon="5.6952">
        <ele>476.6</ele>
        <time>2022-02-28T15:22:41Z</time>
      </trkpt>
      <trkpt lat="46.57678" lon="5.69525">
        <ele>476.4</ele>
        <time>2022-02-28T15:22:42Z</time>
      </trkpt>
      <trkpt lat="46.57686" lon="5.6953">
        <ele>476</ele>
        <time>2022-02-28T15:22:43Z</time>
      </trkpt>
      <trkpt lat="46.57694" lon="5.69533">
        <ele>475.6</ele>
        <time>2022-02-28T15:22:44Z</time>
      </trkpt>
      <trkpt lat="46.57702" lon="5.69535">
        <ele>475.2</ele>
        <time>2022-02-28T15:22:45Z</time>
      </trkpt>
      <trkpt lat="46.5771" lon="5.69535">
        <ele>474.8</ele>
        <time>2022-02-28T15:22:46Z</time>
      </trkpt>
      <trkpt lat="46.57718" lon="5.69533">
        <ele>474.4</ele>
        <time>2022-02-28T15:22:47Z</time>
      </trkpt>
      <trkpt lat="46.57726" lon="5.6953">
        <ele>474</ele>
        <time>2022-02-28T15:22:48Z</time>
      </trkpt>
      <trkpt lat="46.57733" lon="5.69524">
        <ele>473.6</ele>
        <time>2022-02-28T15:22:49Z</time>
      </trkpt>
      <trkpt lat="46.57741" lon="5.69518">
        <ele>473.2</ele>
        <time>2022-02-28T15:22:50Z</time>
      </trkpt>
      <trkpt lat="46.57747" lon="5.69511">
        <ele>473</ele>
        <time>2022-02-28T15:22:51Z</time>
      </trkpt>
      <trkpt lat="46.57753" lon="5.69503">
        <ele>473</ele>
        <time>2022-02-28T15:22:52Z</time>
      </trkpt>
      <trkpt lat="46.57758" lon="5.69495">
        <ele>472.6</ele>
        <time>2022-02-28T15:22:53Z</time>
      </trkpt>
      <trkpt lat="46.57763" lon="5.69487">
        <ele>472.6</ele>
        <time>2022-02-28T15:22:54Z</time>
      </trkpt>
      <trkpt lat="46.57767" lon="5.69479">
        <ele>472.6</ele>
        <time>2022-02-28T15:22:55Z</time>
      </trkpt>
      <trkpt lat="46.57772" lon="5.69471">
        <ele>472.6</ele>
        <time>2022-02-28T15:22:56Z</time>
      </trkpt>
      <trkpt lat="46.57776" lon="5.69463">
        <ele>472.6</ele>
        <time>2022-02-28T15:22:57Z</time>
      </trkpt>
      <trkpt lat="46.5778" lon="5.69455">
        <ele>472.6</ele>
        <time>2022-02-28T15:22:58Z</time>
      </trkpt>
      <trkpt lat="46.57787" lon="5.69444">
        <ele>472.6</ele>
        <time>2022-02-28T15:22:59Z</time>
      </trkpt>
      <trkpt lat="46.57789" lon="5.6944">
        <ele>472.8</ele>
        <time>2022-02-28T15:23:00Z</time>
      </trkpt>
      <trkpt lat="46.57793" lon="5.69433">
        <ele>472.8</ele>
        <time>2022-02-28T15:23:01Z</time>
      </trkpt>
      <trkpt lat="46.57797" lon="5.69426">
        <ele>473.2</ele>
        <time>2022-02-28T15:23:02Z</time>
      </trkpt>
      <trkpt lat="46.57802" lon="5.6942">
        <ele>473.2</ele>
        <time>2022-02-28T15:23:03Z</time>
      </trkpt>
      <trkpt lat="46.57806" lon="5.69415">
        <ele>473.2</ele>
        <time>2022-02-28T15:23:04Z</time>
      </trkpt>
      <trkpt lat="46.57811" lon="5.6941">
        <ele>473.4</ele>
        <time>2022-02-28T15:23:05Z</time>
      </trkpt>
      <trkpt lat="46.57815" lon="5.69406">
        <ele>473.4</ele>
        <time>2022-02-28T15:23:06Z</time>
      </trkpt>
      <trkpt lat="46.5782" lon="5.69403">
        <ele>473.4</ele>
        <time>2022-02-28T15:23:07Z</time>
      </trkpt>
      <trkpt lat="46.57825" lon="5.69401">
        <ele>473.8</ele>
        <time>2022-02-28T15:23:08Z</time>
      </trkpt>
      <trkpt lat="46.5783" lon="5.69398">
        <ele>473.8</ele>
        <time>2022-02-28T15:23:09Z</time>
      </trkpt>
      <trkpt lat="46.57835" lon="5.69396">
        <ele>473.8</ele>
        <time>2022-02-28T15:23:10Z</time>
      </trkpt>
      <trkpt lat="46.5784" lon="5.69394">
        <ele>473.8</ele>
        <time>2022-02-28T15:23:11Z</time>
      </trkpt>
      <trkpt lat="46.57846" lon="5.69392">
        <ele>473.8</ele>
        <time>2022-02-28T15:23:12Z</time>
      </trkpt>
      <trkpt lat="46.57851" lon="5.6939">
        <ele>473.8</ele>
        <time>2022-02-28T15:23:13Z</time>
      </trkpt>
      <trkpt lat="46.57857" lon="5.69387">
        <ele>473.8</ele>
        <time>2022-02-28T15:23:14Z</time>
      </trkpt>
      <trkpt lat="46.57862" lon="5.69385">
        <ele>473.8</ele>
        <time>2022-02-28T15:23:15Z</time>
      </trkpt>
      <trkpt lat="46.57868" lon="5.69383">
        <ele>473.8</ele>
        <time>2022-02-28T15:23:16Z</time>
      </trkpt>
      <trkpt lat="46.57874" lon="5.69381">
        <ele>473.8</ele>
        <time>2022-02-28T15:23:17Z</time>
      </trkpt>
      <trkpt lat="46.57881" lon="5.69378">
        <ele>473.8</ele>
        <time>2022-02-28T15:23:18Z</time>
      </trkpt>
      <trkpt lat="46.57887" lon="5.69376">
        <ele>473.6</ele>
        <time>2022-02-28T15:23:19Z</time>
      </trkpt>
      <trkpt lat="46.57893" lon="5.69373">
        <ele>473.6</ele>
        <time>2022-02-28T15:23:20Z</time>
      </trkpt>
      <trkpt lat="46.57899" lon="5.69371">
        <ele>473.6</ele>
        <time>2022-02-28T15:23:21Z</time>
      </trkpt>
      <trkpt lat="46.57906" lon="5.69369">
        <ele>473.4</ele>
        <time>2022-02-28T15:23:22Z</time>
      </trkpt>
      <trkpt lat="46.57912" lon="5.69367">
        <ele>473.4</ele>
        <time>2022-02-28T15:23:23Z</time>
      </trkpt>
      <trkpt lat="46.57919" lon="5.69365">
        <ele>473</ele>
        <time>2022-02-28T15:23:24Z</time>
      </trkpt>
      <trkpt lat="46.57926" lon="5.69362">
        <ele>473</ele>
        <time>2022-02-28T15:23:25Z</time>
      </trkpt>
      <trkpt lat="46.57932" lon="5.69361">
        <ele>472.8</ele>
        <time>2022-02-28T15:23:26Z</time>
      </trkpt>
      <trkpt lat="46.57939" lon="5.69359">
        <ele>472.8</ele>
        <time>2022-02-28T15:23:27Z</time>
      </trkpt>
      <trkpt lat="46.57946" lon="5.69358">
        <ele>472.8</ele>
        <time>2022-02-28T15:23:28Z</time>
      </trkpt>
      <trkpt lat="46.57953" lon="5.69357">
        <ele>472.4</ele>
        <time>2022-02-28T15:23:29Z</time>
      </trkpt>
      <trkpt lat="46.5796" lon="5.69357">
        <ele>472.2</ele>
        <time>2022-02-28T15:23:30Z</time>
      </trkpt>
      <trkpt lat="46.57966" lon="5.69357">
        <ele>472.2</ele>
        <time>2022-02-28T15:23:31Z</time>
      </trkpt>
      <trkpt lat="46.57973" lon="5.69356">
        <ele>471.8</ele>
        <time>2022-02-28T15:23:32Z</time>
      </trkpt>
      <trkpt lat="46.5798" lon="5.69356">
        <ele>471.8</ele>
        <time>2022-02-28T15:23:33Z</time>
      </trkpt>
      <trkpt lat="46.57987" lon="5.69356">
        <ele>471.4</ele>
        <time>2022-02-28T15:23:34Z</time>
      </trkpt>
      <trkpt lat="46.57993" lon="5.69356">
        <ele>471.4</ele>
        <time>2022-02-28T15:23:35Z</time>
      </trkpt>
      <trkpt lat="46.58" lon="5.69356">
        <ele>471.2</ele>
        <time>2022-02-28T15:23:36Z</time>
      </trkpt>
      <trkpt lat="46.58007" lon="5.69356">
        <ele>471.2</ele>
        <time>2022-02-28T15:23:37Z</time>
      </trkpt>
      <trkpt lat="46.58013" lon="5.69355">
        <ele>471.2</ele>
        <time>2022-02-28T15:23:38Z</time>
      </trkpt>
      <trkpt lat="46.5802" lon="5.69355">
        <ele>471</ele>
        <time>2022-02-28T15:23:39Z</time>
      </trkpt>
      <trkpt lat="46.58026" lon="5.69354">
        <ele>471</ele>
        <time>2022-02-28T15:23:40Z</time>
      </trkpt>
      <trkpt lat="46.58033" lon="5.69353">
        <ele>471</ele>
        <time>2022-02-28T15:23:41Z</time>
      </trkpt>
      <trkpt lat="46.58039" lon="5.69351">
        <ele>470.8</ele>
        <time>2022-02-28T15:23:42Z</time>
      </trkpt>
      <trkpt lat="46.58046" lon="5.69349">
        <ele>470.8</ele>
        <time>2022-02-28T15:23:43Z</time>
      </trkpt>
      <trkpt lat="46.58052" lon="5.69347">
        <ele>470.8</ele>
        <time>2022-02-28T15:23:44Z</time>
      </trkpt>
      <trkpt lat="46.58058" lon="5.69346">
        <ele>470.8</ele>
        <time>2022-02-28T15:23:45Z</time>
      </trkpt>
      <trkpt lat="46.58064" lon="5.69344">
        <ele>470.8</ele>
        <time>2022-02-28T15:23:46Z</time>
      </trkpt>
      <trkpt lat="46.58071" lon="5.69342">
        <ele>470.6</ele>
        <time>2022-02-28T15:23:47Z</time>
      </trkpt>
      <trkpt lat="46.58083" lon="5.69339">
        <ele>470.6</ele>
        <time>2022-02-28T15:23:48Z</time>
      </trkpt>
      <trkpt lat="46.58089" lon="5.69337">
        <ele>470.6</ele>
        <time>2022-02-28T15:23:49Z</time>
      </trkpt>
      <trkpt lat="46.58095" lon="5.69335">
        <ele>470.6</ele>
        <time>2022-02-28T15:23:50Z</time>
      </trkpt>
      <trkpt lat="46.58102" lon="5.69335">
        <ele>470.2</ele>
        <time>2022-02-28T15:23:51Z</time>
      </trkpt>
      <trkpt lat="46.58108" lon="5.69334">
        <ele>470.2</ele>
        <time>2022-02-28T15:23:52Z</time>
      </trkpt>
      <trkpt lat="46.58114" lon="5.69334">
        <ele>470</ele>
        <time>2022-02-28T15:23:53Z</time>
      </trkpt>
      <trkpt lat="46.58121" lon="5.69333">
        <ele>470</ele>
        <time>2022-02-28T15:23:54Z</time>
      </trkpt>
      <trkpt lat="46.58127" lon="5.69333">
        <ele>469.8</ele>
        <time>2022-02-28T15:23:55Z</time>
      </trkpt>
      <trkpt lat="46.58134" lon="5.69333">
        <ele>469.8</ele>
        <time>2022-02-28T15:23:56Z</time>
      </trkpt>
      <trkpt lat="46.5814" lon="5.69333">
        <ele>469.4</ele>
        <time>2022-02-28T15:23:57Z</time>
      </trkpt>
      <trkpt lat="46.58147" lon="5.69332">
        <ele>469.4</ele>
        <time>2022-02-28T15:23:58Z</time>
      </trkpt>
      <trkpt lat="46.58153" lon="5.69332">
        <ele>469.2</ele>
        <time>2022-02-28T15:23:59Z</time>
      </trkpt>
      <trkpt lat="46.5816" lon="5.69332">
        <ele>469</ele>
        <time>2022-02-28T15:24:00Z</time>
      </trkpt>
      <trkpt lat="46.58165" lon="5.69332">
        <ele>469</ele>
        <time>2022-02-28T15:24:01Z</time>
      </trkpt>
      <trkpt lat="46.5817" lon="5.69332">
        <ele>468.6</ele>
        <time>2022-02-28T15:24:02Z</time>
      </trkpt>
      <trkpt lat="46.58175" lon="5.69331">
        <ele>468.6</ele>
        <time>2022-02-28T15:24:03Z</time>
      </trkpt>
      <trkpt lat="46.5818" lon="5.6933">
        <ele>468.2</ele>
        <time>2022-02-28T15:24:04Z</time>
      </trkpt>
      <trkpt lat="46.58185" lon="5.69328">
        <ele>468.2</ele>
        <time>2022-02-28T15:24:05Z</time>
      </trkpt>
      <trkpt lat="46.58185" lon="5.69328">
        <ele>468</ele>
        <time>2022-02-28T15:24:06Z</time>
      </trkpt>
      <trkpt lat="46.58189" lon="5.69325">
        <ele>468</ele>
        <time>2022-02-28T15:24:07Z</time>
      </trkpt>
      <trkpt lat="46.58194" lon="5.69325">
        <ele>467.6</ele>
        <time>2022-02-28T15:24:08Z</time>
      </trkpt>
      <trkpt lat="46.58199" lon="5.69325">
        <ele>467.6</ele>
        <time>2022-02-28T15:24:09Z</time>
      </trkpt>
      <trkpt lat="46.58204" lon="5.69326">
        <ele>467.4</ele>
        <time>2022-02-28T15:24:10Z</time>
      </trkpt>
      <trkpt lat="46.58209" lon="5.69327">
        <ele>467.4</ele>
        <time>2022-02-28T15:24:11Z</time>
      </trkpt>
      <trkpt lat="46.58214" lon="5.69329">
        <ele>467.4</ele>
        <time>2022-02-28T15:24:12Z</time>
      </trkpt>
      <trkpt lat="46.5822" lon="5.69331">
        <ele>467.4</ele>
        <time>2022-02-28T15:24:13Z</time>
      </trkpt>
      <trkpt lat="46.58225" lon="5.69334">
        <ele>467.2</ele>
        <time>2022-02-28T15:24:14Z</time>
      </trkpt>
      <trkpt lat="46.5823" lon="5.69338">
        <ele>467.2</ele>
        <time>2022-02-28T15:24:15Z</time>
      </trkpt>
      <trkpt lat="46.58235" lon="5.69343">
        <ele>467</ele>
        <time>2022-02-28T15:24:16Z</time>
      </trkpt>
      <trkpt lat="46.58239" lon="5.69349">
        <ele>466.6</ele>
        <time>2022-02-28T15:24:17Z</time>
      </trkpt>
      <trkpt lat="46.58244" lon="5.69355">
        <ele>466.4</ele>
        <time>2022-02-28T15:24:18Z</time>
      </trkpt>
      <trkpt lat="46.5825" lon="5.69362">
        <ele>466</ele>
        <time>2022-02-28T15:24:19Z</time>
      </trkpt>
      <trkpt lat="46.58255" lon="5.69368">
        <ele>465.6</ele>
        <time>2022-02-28T15:24:20Z</time>
      </trkpt>
      <trkpt lat="46.5826" lon="5.69375">
        <ele>465.4</ele>
        <time>2022-02-28T15:24:21Z</time>
      </trkpt>
      <trkpt lat="46.58266" lon="5.69381">
        <ele>465</ele>
        <time>2022-02-28T15:24:22Z</time>
      </trkpt>
      <trkpt lat="46.58272" lon="5.69388">
        <ele>464.6</ele>
        <time>2022-02-28T15:24:23Z</time>
      </trkpt>
      <trkpt lat="46.58278" lon="5.69395">
        <ele>464.4</ele>
        <time>2022-02-28T15:24:24Z</time>
      </trkpt>
      <trkpt lat="46.58284" lon="5.69403">
        <ele>464</ele>
        <time>2022-02-28T15:24:25Z</time>
      </trkpt>
      <trkpt lat="46.5829" lon="5.6941">
        <ele>463.6</ele>
        <time>2022-02-28T15:24:26Z</time>
      </trkpt>
      <trkpt lat="46.58297" lon="5.69418">
        <ele>463.2</ele>
        <time>2022-02-28T15:24:27Z</time>
      </trkpt>
      <trkpt lat="46.58303" lon="5.69426">
        <ele>462.8</ele>
        <time>2022-02-28T15:24:28Z</time>
      </trkpt>
      <trkpt lat="46.5831" lon="5.69434">
        <ele>462.4</ele>
        <time>2022-02-28T15:24:29Z</time>
      </trkpt>
      <trkpt lat="46.58317" lon="5.69442">
        <ele>462</ele>
        <time>2022-02-28T15:24:30Z</time>
      </trkpt>
      <trkpt lat="46.58324" lon="5.6945">
        <ele>461.6</ele>
        <time>2022-02-28T15:24:31Z</time>
      </trkpt>
      <trkpt lat="46.58331" lon="5.69459">
        <ele>461.4</ele>
        <time>2022-02-28T15:24:32Z</time>
      </trkpt>
      <trkpt lat="46.58338" lon="5.69466">
        <ele>461.2</ele>
        <time>2022-02-28T15:24:33Z</time>
      </trkpt>
      <trkpt lat="46.58345" lon="5.69475">
        <ele>460.8</ele>
        <time>2022-02-28T15:24:34Z</time>
      </trkpt>
      <trkpt lat="46.58353" lon="5.69484">
        <ele>460.4</ele>
        <time>2022-02-28T15:24:35Z</time>
      </trkpt>
      <trkpt lat="46.58361" lon="5.69494">
        <ele>460</ele>
        <time>2022-02-28T15:24:36Z</time>
      </trkpt>
      <trkpt lat="46.58368" lon="5.69504">
        <ele>459.6</ele>
        <time>2022-02-28T15:24:37Z</time>
      </trkpt>
      <trkpt lat="46.58376" lon="5.69513">
        <ele>459</ele>
        <time>2022-02-28T15:24:38Z</time>
      </trkpt>
      <trkpt lat="46.58384" lon="5.69521">
        <ele>458.6</ele>
        <time>2022-02-28T15:24:39Z</time>
      </trkpt>
      <trkpt lat="46.58392" lon="5.69529">
        <ele>458.2</ele>
        <time>2022-02-28T15:24:40Z</time>
      </trkpt>
      <trkpt lat="46.58399" lon="5.69539">
        <ele>457.6</ele>
        <time>2022-02-28T15:24:41Z</time>
      </trkpt>
      <trkpt lat="46.58408" lon="5.69547">
        <ele>457.2</ele>
        <time>2022-02-28T15:24:42Z</time>
      </trkpt>
      <trkpt lat="46.58415" lon="5.69557">
        <ele>456.8</ele>
        <time>2022-02-28T15:24:43Z</time>
      </trkpt>
      <trkpt lat="46.58423" lon="5.69566">
        <ele>456.2</ele>
        <time>2022-02-28T15:24:44Z</time>
      </trkpt>
      <trkpt lat="46.58431" lon="5.69574">
        <ele>455.8</ele>
        <time>2022-02-28T15:24:45Z</time>
      </trkpt>
      <trkpt lat="46.58438" lon="5.69583">
        <ele>455.2</ele>
        <time>2022-02-28T15:24:46Z</time>
      </trkpt>
      <trkpt lat="46.58445" lon="5.69593">
        <ele>455</ele>
        <time>2022-02-28T15:24:47Z</time>
      </trkpt>
      <trkpt lat="46.58451" lon="5.69602">
        <ele>454.6</ele>
        <time>2022-02-28T15:24:48Z</time>
      </trkpt>
      <trkpt lat="46.58458" lon="5.69612">
        <ele>454.2</ele>
        <time>2022-02-28T15:24:49Z</time>
      </trkpt>
      <trkpt lat="46.58465" lon="5.69622">
        <ele>454</ele>
        <time>2022-02-28T15:24:50Z</time>
      </trkpt>
      <trkpt lat="46.58472" lon="5.69631">
        <ele>453.6</ele>
        <time>2022-02-28T15:24:51Z</time>
      </trkpt>
      <trkpt lat="46.5848" lon="5.69638">
        <ele>453.4</ele>
        <time>2022-02-28T15:24:52Z</time>
      </trkpt>
      <trkpt lat="46.58488" lon="5.69645">
        <ele>453</ele>
        <time>2022-02-28T15:24:53Z</time>
      </trkpt>
      <trkpt lat="46.58495" lon="5.69653">
        <ele>452.6</ele>
        <time>2022-02-28T15:24:54Z</time>
      </trkpt>
      <trkpt lat="46.58502" lon="5.69662">
        <ele>452.4</ele>
        <time>2022-02-28T15:24:55Z</time>
      </trkpt>
      <trkpt lat="46.58509" lon="5.6967">
        <ele>452.2</ele>
        <time>2022-02-28T15:24:56Z</time>
      </trkpt>
      <trkpt lat="46.58517" lon="5.69678">
        <ele>451.8</ele>
        <time>2022-02-28T15:24:57Z</time>
      </trkpt>
      <trkpt lat="46.58523" lon="5.69686">
        <ele>451.6</ele>
        <time>2022-02-28T15:24:58Z</time>
      </trkpt>
      <trkpt lat="46.58529" lon="5.69694">
        <ele>451.4</ele>
        <time>2022-02-28T15:24:59Z</time>
      </trkpt>
      <trkpt lat="46.58535" lon="5.69701">
        <ele>451.2</ele>
        <time>2022-02-28T15:25:00Z</time>
      </trkpt>
      <trkpt lat="46.5854" lon="5.69708">
        <ele>451</ele>
        <time>2022-02-28T15:25:01Z</time>
      </trkpt>
      <trkpt lat="46.58545" lon="5.69713">
        <ele>450.8</ele>
        <time>2022-02-28T15:25:02Z</time>
      </trkpt>
      <trkpt lat="46.58549" lon="5.69718">
        <ele>450.8</ele>
        <time>2022-02-28T15:25:03Z</time>
      </trkpt>
      <trkpt lat="46.58552" lon="5.69723">
        <ele>450.4</ele>
        <time>2022-02-28T15:25:04Z</time>
      </trkpt>
      <trkpt lat="46.58555" lon="5.69727">
        <ele>450.4</ele>
        <time>2022-02-28T15:25:05Z</time>
      </trkpt>
      <trkpt lat="46.58556" lon="5.6973">
        <ele>450.2</ele>
        <time>2022-02-28T15:25:06Z</time>
      </trkpt>
      <trkpt lat="46.58557" lon="5.69733">
        <ele>450.2</ele>
        <time>2022-02-28T15:25:07Z</time>
      </trkpt>
      <trkpt lat="46.58558" lon="5.69735">
        <ele>449.8</ele>
        <time>2022-02-28T15:25:08Z</time>
      </trkpt>
      <trkpt lat="46.58558" lon="5.69738">
        <ele>449.8</ele>
        <time>2022-02-28T15:25:09Z</time>
      </trkpt>
      <trkpt lat="46.58557" lon="5.69742">
        <ele>449.8</ele>
        <time>2022-02-28T15:25:10Z</time>
      </trkpt>
      <trkpt lat="46.58556" lon="5.69746">
        <ele>449.8</ele>
        <time>2022-02-28T15:25:11Z</time>
      </trkpt>
      <trkpt lat="46.58555" lon="5.6975">
        <ele>449.6</ele>
        <time>2022-02-28T15:25:12Z</time>
      </trkpt>
      <trkpt lat="46.58554" lon="5.69755">
        <ele>449.6</ele>
        <time>2022-02-28T15:25:13Z</time>
      </trkpt>
      <trkpt lat="46.58552" lon="5.6976">
        <ele>449.6</ele>
        <time>2022-02-28T15:25:14Z</time>
      </trkpt>
      <trkpt lat="46.58551" lon="5.69766">
        <ele>449.6</ele>
        <time>2022-02-28T15:25:15Z</time>
      </trkpt>
      <trkpt lat="46.5855" lon="5.69772">
        <ele>449.6</ele>
        <time>2022-02-28T15:25:16Z</time>
      </trkpt>
      <trkpt lat="46.58548" lon="5.69778">
        <ele>449.6</ele>
        <time>2022-02-28T15:25:17Z</time>
      </trkpt>
      <trkpt lat="46.58546" lon="5.69785">
        <ele>449.6</ele>
        <time>2022-02-28T15:25:18Z</time>
      </trkpt>
      <trkpt lat="46.58544" lon="5.69791">
        <ele>449.6</ele>
        <time>2022-02-28T15:25:19Z</time>
      </trkpt>
      <trkpt lat="46.58541" lon="5.69798">
        <ele>449.4</ele>
        <time>2022-02-28T15:25:20Z</time>
      </trkpt>
      <trkpt lat="46.58539" lon="5.69805">
        <ele>449.4</ele>
        <time>2022-02-28T15:25:21Z</time>
      </trkpt>
      <trkpt lat="46.58537" lon="5.69812">
        <ele>449.4</ele>
        <time>2022-02-28T15:25:22Z</time>
      </trkpt>
      <trkpt lat="46.58534" lon="5.6982">
        <ele>449.4</ele>
        <time>2022-02-28T15:25:23Z</time>
      </trkpt>
      <trkpt lat="46.58532" lon="5.69827">
        <ele>449.4</ele>
        <time>2022-02-28T15:25:24Z</time>
      </trkpt>
      <trkpt lat="46.58529" lon="5.69835">
        <ele>449.4</ele>
        <time>2022-02-28T15:25:25Z</time>
      </trkpt>
      <trkpt lat="46.58527" lon="5.69843">
        <ele>449.4</ele>
        <time>2022-02-28T15:25:26Z</time>
      </trkpt>
      <trkpt lat="46.58525" lon="5.69851">
        <ele>449.4</ele>
        <time>2022-02-28T15:25:27Z</time>
      </trkpt>
      <trkpt lat="46.58523" lon="5.69858">
        <ele>449.4</ele>
        <time>2022-02-28T15:25:28Z</time>
      </trkpt>
      <trkpt lat="46.58521" lon="5.69866">
        <ele>449.4</ele>
        <time>2022-02-28T15:25:29Z</time>
      </trkpt>
      <trkpt lat="46.58518" lon="5.69873">
        <ele>449.4</ele>
        <time>2022-02-28T15:25:30Z</time>
      </trkpt>
      <trkpt lat="46.58516" lon="5.69881">
        <ele>449.4</ele>
        <time>2022-02-28T15:25:31Z</time>
      </trkpt>
      <trkpt lat="46.58513" lon="5.69888">
        <ele>449.4</ele>
        <time>2022-02-28T15:25:32Z</time>
      </trkpt>
      <trkpt lat="46.58511" lon="5.69895">
        <ele>449.4</ele>
        <time>2022-02-28T15:25:33Z</time>
      </trkpt>
      <trkpt lat="46.58509" lon="5.69902">
        <ele>449.4</ele>
        <time>2022-02-28T15:25:34Z</time>
      </trkpt>
      <trkpt lat="46.58507" lon="5.69909">
        <ele>449.2</ele>
        <time>2022-02-28T15:25:35Z</time>
      </trkpt>
      <trkpt lat="46.58504" lon="5.69917">
        <ele>449.2</ele>
        <time>2022-02-28T15:25:36Z</time>
      </trkpt>
      <trkpt lat="46.58502" lon="5.69924">
        <ele>449.2</ele>
        <time>2022-02-28T15:25:37Z</time>
      </trkpt>
      <trkpt lat="46.585" lon="5.69932">
        <ele>449.2</ele>
        <time>2022-02-28T15:25:38Z</time>
      </trkpt>
      <trkpt lat="46.58498" lon="5.69939">
        <ele>449.2</ele>
        <time>2022-02-28T15:25:39Z</time>
      </trkpt>
      <trkpt lat="46.58496" lon="5.69947">
        <ele>449.4</ele>
        <time>2022-02-28T15:25:40Z</time>
      </trkpt>
      <trkpt lat="46.58495" lon="5.69955">
        <ele>449.4</ele>
        <time>2022-02-28T15:25:41Z</time>
      </trkpt>
      <trkpt lat="46.58495" lon="5.69963">
        <ele>449.4</ele>
        <time>2022-02-28T15:25:42Z</time>
      </trkpt>
      <trkpt lat="46.58495" lon="5.6997">
        <ele>449.4</ele>
        <time>2022-02-28T15:25:43Z</time>
      </trkpt>
      <trkpt lat="46.58495" lon="5.69978">
        <ele>449.4</ele>
        <time>2022-02-28T15:25:44Z</time>
      </trkpt>
      <trkpt lat="46.58496" lon="5.69986">
        <ele>449.6</ele>
        <time>2022-02-28T15:25:45Z</time>
      </trkpt>
      <trkpt lat="46.58496" lon="5.69994">
        <ele>449.6</ele>
        <time>2022-02-28T15:25:46Z</time>
      </trkpt>
      <trkpt lat="46.58497" lon="5.70001">
        <ele>450</ele>
        <time>2022-02-28T15:25:47Z</time>
      </trkpt>
      <trkpt lat="46.58498" lon="5.70008">
        <ele>450.2</ele>
        <time>2022-02-28T15:25:48Z</time>
      </trkpt>
      <trkpt lat="46.58498" lon="5.70015">
        <ele>450.4</ele>
        <time>2022-02-28T15:25:49Z</time>
      </trkpt>
      <trkpt lat="46.58499" lon="5.70022">
        <ele>450.8</ele>
        <time>2022-02-28T15:25:50Z</time>
      </trkpt>
      <trkpt lat="46.58499" lon="5.70029">
        <ele>451</ele>
        <time>2022-02-28T15:25:51Z</time>
      </trkpt>
      <trkpt lat="46.585" lon="5.70036">
        <ele>451.2</ele>
        <time>2022-02-28T15:25:52Z</time>
      </trkpt>
      <trkpt lat="46.58501" lon="5.70042">
        <ele>451.2</ele>
        <time>2022-02-28T15:25:53Z</time>
      </trkpt>
      <trkpt lat="46.58501" lon="5.70048">
        <ele>451.6</ele>
        <time>2022-02-28T15:25:54Z</time>
      </trkpt>
      <trkpt lat="46.58501" lon="5.70055">
        <ele>451.6</ele>
        <time>2022-02-28T15:25:55Z</time>
      </trkpt>
      <trkpt lat="46.58502" lon="5.70061">
        <ele>452</ele>
        <time>2022-02-28T15:25:56Z</time>
      </trkpt>
      <trkpt lat="46.58502" lon="5.70068">
        <ele>452</ele>
        <time>2022-02-28T15:25:57Z</time>
      </trkpt>
      <trkpt lat="46.58503" lon="5.70075">
        <ele>452.2</ele>
        <time>2022-02-28T15:25:58Z</time>
      </trkpt>
      <trkpt lat="46.58503" lon="5.70082">
        <ele>452.2</ele>
        <time>2022-02-28T15:25:59Z</time>
      </trkpt>
      <trkpt lat="46.58504" lon="5.70089">
        <ele>452.2</ele>
        <time>2022-02-28T15:26:00Z</time>
      </trkpt>
      <trkpt lat="46.58505" lon="5.70097">
        <ele>452.2</ele>
        <time>2022-02-28T15:26:01Z</time>
      </trkpt>
      <trkpt lat="46.58506" lon="5.70104">
        <ele>452.2</ele>
        <time>2022-02-28T15:26:02Z</time>
      </trkpt>
      <trkpt lat="46.58507" lon="5.70112">
        <ele>452.2</ele>
        <time>2022-02-28T15:26:03Z</time>
      </trkpt>
      <trkpt lat="46.58507" lon="5.70119">
        <ele>452.2</ele>
        <time>2022-02-28T15:26:04Z</time>
      </trkpt>
      <trkpt lat="46.58509" lon="5.70127">
        <ele>452.2</ele>
        <time>2022-02-28T15:26:05Z</time>
      </trkpt>
      <trkpt lat="46.5851" lon="5.70134">
        <ele>452.2</ele>
        <time>2022-02-28T15:26:06Z</time>
      </trkpt>
      <trkpt lat="46.58511" lon="5.7014">
        <ele>452.2</ele>
        <time>2022-02-28T15:26:07Z</time>
      </trkpt>
      <trkpt lat="46.58513" lon="5.70147">
        <ele>452.2</ele>
        <time>2022-02-28T15:26:08Z</time>
      </trkpt>
      <trkpt lat="46.58514" lon="5.70154">
        <ele>452.2</ele>
        <time>2022-02-28T15:26:09Z</time>
      </trkpt>
      <trkpt lat="46.58516" lon="5.7016">
        <ele>452.2</ele>
        <time>2022-02-28T15:26:10Z</time>
      </trkpt>
      <trkpt lat="46.58518" lon="5.70166">
        <ele>452.2</ele>
        <time>2022-02-28T15:26:11Z</time>
      </trkpt>
      <trkpt lat="46.58519" lon="5.70171">
        <ele>452.6</ele>
        <time>2022-02-28T15:26:12Z</time>
      </trkpt>
      <trkpt lat="46.5852" lon="5.70176">
        <ele>452.6</ele>
        <time>2022-02-28T15:26:13Z</time>
      </trkpt>
      <trkpt lat="46.58521" lon="5.70181">
        <ele>452.8</ele>
        <time>2022-02-28T15:26:14Z</time>
      </trkpt>
      <trkpt lat="46.58521" lon="5.70185">
        <ele>452.8</ele>
        <time>2022-02-28T15:26:15Z</time>
      </trkpt>
      <trkpt lat="46.58522" lon="5.7019">
        <ele>453.4</ele>
        <time>2022-02-28T15:26:16Z</time>
      </trkpt>
      <trkpt lat="46.58523" lon="5.70194">
        <ele>453.6</ele>
        <time>2022-02-28T15:26:17Z</time>
      </trkpt>
      <trkpt lat="46.58523" lon="5.70199">
        <ele>453.8</ele>
        <time>2022-02-28T15:26:18Z</time>
      </trkpt>
      <trkpt lat="46.58524" lon="5.70203">
        <ele>453.8</ele>
        <time>2022-02-28T15:26:19Z</time>
      </trkpt>
      <trkpt lat="46.58526" lon="5.70207">
        <ele>454.2</ele>
        <time>2022-02-28T15:26:20Z</time>
      </trkpt>
      <trkpt lat="46.58527" lon="5.70211">
        <ele>454.4</ele>
        <time>2022-02-28T15:26:21Z</time>
      </trkpt>
      <trkpt lat="46.58528" lon="5.70216">
        <ele>454.8</ele>
        <time>2022-02-28T15:26:22Z</time>
      </trkpt>
      <trkpt lat="46.5853" lon="5.7022">
        <ele>454.8</ele>
        <time>2022-02-28T15:26:23Z</time>
      </trkpt>
      <trkpt lat="46.58531" lon="5.70225">
        <ele>455</ele>
        <time>2022-02-28T15:26:24Z</time>
      </trkpt>
      <trkpt lat="46.58532" lon="5.70229">
        <ele>455</ele>
        <time>2022-02-28T15:26:25Z</time>
      </trkpt>
      <trkpt lat="46.58534" lon="5.70233">
        <ele>455.4</ele>
        <time>2022-02-28T15:26:26Z</time>
      </trkpt>
      <trkpt lat="46.58535" lon="5.70238">
        <ele>455.4</ele>
        <time>2022-02-28T15:26:27Z</time>
      </trkpt>
      <trkpt lat="46.58536" lon="5.70242">
        <ele>455.8</ele>
        <time>2022-02-28T15:26:28Z</time>
      </trkpt>
      <trkpt lat="46.58537" lon="5.70247">
        <ele>456</ele>
        <time>2022-02-28T15:26:29Z</time>
      </trkpt>
      <trkpt lat="46.58537" lon="5.70251">
        <ele>456.4</ele>
        <time>2022-02-28T15:26:30Z</time>
      </trkpt>
      <trkpt lat="46.58538" lon="5.70255">
        <ele>456.8</ele>
        <time>2022-02-28T15:26:31Z</time>
      </trkpt>
      <trkpt lat="46.58538" lon="5.70258">
        <ele>457</ele>
        <time>2022-02-28T15:26:32Z</time>
      </trkpt>
      <trkpt lat="46.58539" lon="5.70262">
        <ele>457.2</ele>
        <time>2022-02-28T15:26:33Z</time>
      </trkpt>
      <trkpt lat="46.5854" lon="5.70265">
        <ele>457.6</ele>
        <time>2022-02-28T15:26:34Z</time>
      </trkpt>
      <trkpt lat="46.58541" lon="5.70268">
        <ele>457.8</ele>
        <time>2022-02-28T15:26:35Z</time>
      </trkpt>
      <trkpt lat="46.58541" lon="5.70272">
        <ele>458</ele>
        <time>2022-02-28T15:26:36Z</time>
      </trkpt>
      <trkpt lat="46.58542" lon="5.70276">
        <ele>458.2</ele>
        <time>2022-02-28T15:26:37Z</time>
      </trkpt>
      <trkpt lat="46.58543" lon="5.70279">
        <ele>458.6</ele>
        <time>2022-02-28T15:26:38Z</time>
      </trkpt>
      <trkpt lat="46.58543" lon="5.70283">
        <ele>458.8</ele>
        <time>2022-02-28T15:26:39Z</time>
      </trkpt>
      <trkpt lat="46.58544" lon="5.70287">
        <ele>459</ele>
        <time>2022-02-28T15:26:40Z</time>
      </trkpt>
      <trkpt lat="46.58545" lon="5.70291">
        <ele>459.2</ele>
        <time>2022-02-28T15:26:41Z</time>
      </trkpt>
      <trkpt lat="46.58545" lon="5.70294">
        <ele>459.6</ele>
        <time>2022-02-28T15:26:42Z</time>
      </trkpt>
      <trkpt lat="46.58546" lon="5.70298">
        <ele>459.6</ele>
        <time>2022-02-28T15:26:43Z</time>
      </trkpt>
      <trkpt lat="46.58547" lon="5.70301">
        <ele>460</ele>
        <time>2022-02-28T15:26:44Z</time>
      </trkpt>
      <trkpt lat="46.58547" lon="5.70305">
        <ele>460</ele>
        <time>2022-02-28T15:26:45Z</time>
      </trkpt>
      <trkpt lat="46.58548" lon="5.70308">
        <ele>460.2</ele>
        <time>2022-02-28T15:26:46Z</time>
      </trkpt>
      <trkpt lat="46.58549" lon="5.70312">
        <ele>460.2</ele>
        <time>2022-02-28T15:26:47Z</time>
      </trkpt>
      <trkpt lat="46.58551" lon="5.70315">
        <ele>460.6</ele>
        <time>2022-02-28T15:26:48Z</time>
      </trkpt>
      <trkpt lat="46.58552" lon="5.70319">
        <ele>460.6</ele>
        <time>2022-02-28T15:26:49Z</time>
      </trkpt>
      <trkpt lat="46.58553" lon="5.70322">
        <ele>461</ele>
        <time>2022-02-28T15:26:50Z</time>
      </trkpt>
      <trkpt lat="46.58554" lon="5.70326">
        <ele>461.2</ele>
        <time>2022-02-28T15:26:51Z</time>
      </trkpt>
      <trkpt lat="46.58555" lon="5.7033">
        <ele>461.4</ele>
        <time>2022-02-28T15:26:52Z</time>
      </trkpt>
      <trkpt lat="46.58556" lon="5.70333">
        <ele>461.4</ele>
        <time>2022-02-28T15:26:53Z</time>
      </trkpt>
      <trkpt lat="46.58557" lon="5.70336">
        <ele>461.8</ele>
        <time>2022-02-28T15:26:54Z</time>
      </trkpt>
      <trkpt lat="46.58558" lon="5.7034">
        <ele>461.8</ele>
        <time>2022-02-28T15:26:55Z</time>
      </trkpt>
      <trkpt lat="46.58559" lon="5.70343">
        <ele>462.2</ele>
        <time>2022-02-28T15:26:56Z</time>
      </trkpt>
      <trkpt lat="46.5856" lon="5.70347">
        <ele>462.4</ele>
        <time>2022-02-28T15:26:57Z</time>
      </trkpt>
      <trkpt lat="46.58562" lon="5.7035">
        <ele>462.4</ele>
        <time>2022-02-28T15:26:58Z</time>
      </trkpt>
      <trkpt lat="46.58563" lon="5.70353">
        <ele>462.8</ele>
        <time>2022-02-28T15:26:59Z</time>
      </trkpt>
      <trkpt lat="46.58565" lon="5.70356">
        <ele>462.8</ele>
        <time>2022-02-28T15:27:00Z</time>
      </trkpt>
      <trkpt lat="46.58566" lon="5.70359">
        <ele>463</ele>
        <time>2022-02-28T15:27:01Z</time>
      </trkpt>
      <trkpt lat="46.58568" lon="5.70361">
        <ele>463</ele>
        <time>2022-02-28T15:27:02Z</time>
      </trkpt>
      <trkpt lat="46.5857" lon="5.70364">
        <ele>463.2</ele>
        <time>2022-02-28T15:27:03Z</time>
      </trkpt>
      <trkpt lat="46.58571" lon="5.70367">
        <ele>463.4</ele>
        <time>2022-02-28T15:27:04Z</time>
      </trkpt>
      <trkpt lat="46.58573" lon="5.70369">
        <ele>463.4</ele>
        <time>2022-02-28T15:27:05Z</time>
      </trkpt>
      <trkpt lat="46.58574" lon="5.70372">
        <ele>463.8</ele>
        <time>2022-02-28T15:27:06Z</time>
      </trkpt>
      <trkpt lat="46.58576" lon="5.70375">
        <ele>463.8</ele>
        <time>2022-02-28T15:27:07Z</time>
      </trkpt>
      <trkpt lat="46.58577" lon="5.70378">
        <ele>464.2</ele>
        <time>2022-02-28T15:27:08Z</time>
      </trkpt>
      <trkpt lat="46.58578" lon="5.70382">
        <ele>464.2</ele>
        <time>2022-02-28T15:27:09Z</time>
      </trkpt>
      <trkpt lat="46.58579" lon="5.70385">
        <ele>464.6</ele>
        <time>2022-02-28T15:27:10Z</time>
      </trkpt>
      <trkpt lat="46.58581" lon="5.70388">
        <ele>464.6</ele>
        <time>2022-02-28T15:27:11Z</time>
      </trkpt>
      <trkpt lat="46.58582" lon="5.70391">
        <ele>465</ele>
        <time>2022-02-28T15:27:12Z</time>
      </trkpt>
      <trkpt lat="46.58583" lon="5.70395">
        <ele>465</ele>
        <time>2022-02-28T15:27:13Z</time>
      </trkpt>
      <trkpt lat="46.58584" lon="5.70398">
        <ele>465.4</ele>
        <time>2022-02-28T15:27:14Z</time>
      </trkpt>
      <trkpt lat="46.58586" lon="5.70401">
        <ele>465.6</ele>
        <time>2022-02-28T15:27:15Z</time>
      </trkpt>
      <trkpt lat="46.58587" lon="5.70404">
        <ele>465.8</ele>
        <time>2022-02-28T15:27:16Z</time>
      </trkpt>
      <trkpt lat="46.58588" lon="5.70408">
        <ele>466</ele>
        <time>2022-02-28T15:27:17Z</time>
      </trkpt>
      <trkpt lat="46.58589" lon="5.7041">
        <ele>466</ele>
        <time>2022-02-28T15:27:18Z</time>
      </trkpt>
      <trkpt lat="46.5859" lon="5.70413">
        <ele>466.4</ele>
        <time>2022-02-28T15:27:19Z</time>
      </trkpt>
      <trkpt lat="46.58591" lon="5.70416">
        <ele>466.4</ele>
        <time>2022-02-28T15:27:20Z</time>
      </trkpt>
      <trkpt lat="46.58593" lon="5.70419">
        <ele>466.8</ele>
        <time>2022-02-28T15:27:21Z</time>
      </trkpt>
      <trkpt lat="46.58594" lon="5.70422">
        <ele>466.8</ele>
        <time>2022-02-28T15:27:22Z</time>
      </trkpt>
      <trkpt lat="46.58596" lon="5.70425">
        <ele>467</ele>
        <time>2022-02-28T15:27:23Z</time>
      </trkpt>
      <trkpt lat="46.58597" lon="5.70428">
        <ele>467</ele>
        <time>2022-02-28T15:27:24Z</time>
      </trkpt>
      <trkpt lat="46.58598" lon="5.7043">
        <ele>467.2</ele>
        <time>2022-02-28T15:27:25Z</time>
      </trkpt>
      <trkpt lat="46.586" lon="5.70433">
        <ele>467.2</ele>
        <time>2022-02-28T15:27:26Z</time>
      </trkpt>
      <trkpt lat="46.58601" lon="5.70436">
        <ele>467.6</ele>
        <time>2022-02-28T15:27:27Z</time>
      </trkpt>
      <trkpt lat="46.58603" lon="5.70438">
        <ele>467.8</ele>
        <time>2022-02-28T15:27:28Z</time>
      </trkpt>
      <trkpt lat="46.58604" lon="5.70441">
        <ele>467.8</ele>
        <time>2022-02-28T15:27:29Z</time>
      </trkpt>
      <trkpt lat="46.58605" lon="5.70444">
        <ele>468.2</ele>
        <time>2022-02-28T15:27:30Z</time>
      </trkpt>
      <trkpt lat="46.58605" lon="5.70447">
        <ele>468.4</ele>
        <time>2022-02-28T15:27:31Z</time>
      </trkpt>
      <trkpt lat="46.58606" lon="5.7045">
        <ele>468.8</ele>
        <time>2022-02-28T15:27:32Z</time>
      </trkpt>
      <trkpt lat="46.58607" lon="5.70454">
        <ele>468.8</ele>
        <time>2022-02-28T15:27:33Z</time>
      </trkpt>
      <trkpt lat="46.58608" lon="5.70457">
        <ele>469</ele>
        <time>2022-02-28T15:27:34Z</time>
      </trkpt>
      <trkpt lat="46.58609" lon="5.70461">
        <ele>469</ele>
        <time>2022-02-28T15:27:35Z</time>
      </trkpt>
      <trkpt lat="46.58609" lon="5.70464">
        <ele>469.2</ele>
        <time>2022-02-28T15:27:36Z</time>
      </trkpt>
      <trkpt lat="46.5861" lon="5.70468">
        <ele>469.2</ele>
        <time>2022-02-28T15:27:37Z</time>
      </trkpt>
      <trkpt lat="46.58611" lon="5.70472">
        <ele>469.6</ele>
        <time>2022-02-28T15:27:38Z</time>
      </trkpt>
      <trkpt lat="46.58612" lon="5.70476">
        <ele>469.6</ele>
        <time>2022-02-28T15:27:39Z</time>
      </trkpt>
      <trkpt lat="46.58613" lon="5.7048">
        <ele>469.8</ele>
        <time>2022-02-28T15:27:40Z</time>
      </trkpt>
      <trkpt lat="46.58613" lon="5.70484">
        <ele>469.8</ele>
        <time>2022-02-28T15:27:41Z</time>
      </trkpt>
      <trkpt lat="46.58614" lon="5.70488">
        <ele>469.8</ele>
        <time>2022-02-28T15:27:42Z</time>
      </trkpt>
      <trkpt lat="46.58614" lon="5.70492">
        <ele>470.2</ele>
        <time>2022-02-28T15:27:43Z</time>
      </trkpt>
      <trkpt lat="46.58614" lon="5.70496">
        <ele>470.4</ele>
        <time>2022-02-28T15:27:44Z</time>
      </trkpt>
      <trkpt lat="46.58614" lon="5.705">
        <ele>470.6</ele>
        <time>2022-02-28T15:27:45Z</time>
      </trkpt>
      <trkpt lat="46.58615" lon="5.70504">
        <ele>470.6</ele>
        <time>2022-02-28T15:27:46Z</time>
      </trkpt>
      <trkpt lat="46.58615" lon="5.70509">
        <ele>471</ele>
        <time>2022-02-28T15:27:47Z</time>
      </trkpt>
      <trkpt lat="46.58615" lon="5.70513">
        <ele>471.2</ele>
        <time>2022-02-28T15:27:48Z</time>
      </trkpt>
      <trkpt lat="46.58615" lon="5.70517">
        <ele>471.2</ele>
        <time>2022-02-28T15:27:49Z</time>
      </trkpt>
      <trkpt lat="46.58614" lon="5.70521">
        <ele>471.4</ele>
        <time>2022-02-28T15:27:50Z</time>
      </trkpt>
      <trkpt lat="46.58615" lon="5.70526">
        <ele>471.4</ele>
        <time>2022-02-28T15:27:51Z</time>
      </trkpt>
      <trkpt lat="46.58615" lon="5.7053">
        <ele>471.8</ele>
        <time>2022-02-28T15:27:52Z</time>
      </trkpt>
      <trkpt lat="46.58615" lon="5.70534">
        <ele>472</ele>
        <time>2022-02-28T15:27:53Z</time>
      </trkpt>
      <trkpt lat="46.58615" lon="5.70539">
        <ele>472</ele>
        <time>2022-02-28T15:27:54Z</time>
      </trkpt>
      <trkpt lat="46.58616" lon="5.70543">
        <ele>472.4</ele>
        <time>2022-02-28T15:27:55Z</time>
      </trkpt>
      <trkpt lat="46.58616" lon="5.70548">
        <ele>472.4</ele>
        <time>2022-02-28T15:27:56Z</time>
      </trkpt>
      <trkpt lat="46.58616" lon="5.70552">
        <ele>472.6</ele>
        <time>2022-02-28T15:27:57Z</time>
      </trkpt>
      <trkpt lat="46.58617" lon="5.70556">
        <ele>472.6</ele>
        <time>2022-02-28T15:27:58Z</time>
      </trkpt>
      <trkpt lat="46.58617" lon="5.7056">
        <ele>473</ele>
        <time>2022-02-28T15:27:59Z</time>
      </trkpt>
      <trkpt lat="46.58616" lon="5.70564">
        <ele>473</ele>
        <time>2022-02-28T15:28:00Z</time>
      </trkpt>
      <trkpt lat="46.58616" lon="5.70568">
        <ele>473.2</ele>
        <time>2022-02-28T15:28:01Z</time>
      </trkpt>
      <trkpt lat="46.58615" lon="5.70572">
        <ele>473.2</ele>
        <time>2022-02-28T15:28:02Z</time>
      </trkpt>
      <trkpt lat="46.58615" lon="5.70576">
        <ele>473.4</ele>
        <time>2022-02-28T15:28:03Z</time>
      </trkpt>
      <trkpt lat="46.58614" lon="5.70585">
        <ele>473.4</ele>
        <time>2022-02-28T15:28:04Z</time>
      </trkpt>
      <trkpt lat="46.58614" lon="5.70589">
        <ele>473.4</ele>
        <time>2022-02-28T15:28:05Z</time>
      </trkpt>
      <trkpt lat="46.58613" lon="5.70593">
        <ele>473.8</ele>
        <time>2022-02-28T15:28:06Z</time>
      </trkpt>
      <trkpt lat="46.58613" lon="5.70597">
        <ele>473.8</ele>
        <time>2022-02-28T15:28:07Z</time>
      </trkpt>
      <trkpt lat="46.58612" lon="5.70601">
        <ele>474.2</ele>
        <time>2022-02-28T15:28:08Z</time>
      </trkpt>
      <trkpt lat="46.58612" lon="5.70604">
        <ele>474.2</ele>
        <time>2022-02-28T15:28:09Z</time>
      </trkpt>
      <trkpt lat="46.58611" lon="5.70608">
        <ele>474.4</ele>
        <time>2022-02-28T15:28:10Z</time>
      </trkpt>
      <trkpt lat="46.5861" lon="5.70612">
        <ele>474.4</ele>
        <time>2022-02-28T15:28:11Z</time>
      </trkpt>
      <trkpt lat="46.5861" lon="5.70616">
        <ele>474.8</ele>
        <time>2022-02-28T15:28:12Z</time>
      </trkpt>
      <trkpt lat="46.58609" lon="5.7062">
        <ele>474.8</ele>
        <time>2022-02-28T15:28:13Z</time>
      </trkpt>
      <trkpt lat="46.58608" lon="5.70624">
        <ele>474.8</ele>
        <time>2022-02-28T15:28:14Z</time>
      </trkpt>
      <trkpt lat="46.58607" lon="5.70628">
        <ele>475</ele>
        <time>2022-02-28T15:28:15Z</time>
      </trkpt>
      <trkpt lat="46.58606" lon="5.70632">
        <ele>475</ele>
        <time>2022-02-28T15:28:16Z</time>
      </trkpt>
      <trkpt lat="46.58606" lon="5.70632">
        <ele>475</ele>
        <time>2022-02-28T15:28:17Z</time>
      </trkpt>
      <trkpt lat="46.58605" lon="5.70636">
        <ele>475</ele>
        <time>2022-02-28T15:28:18Z</time>
      </trkpt>
      <trkpt lat="46.58604" lon="5.70641">
        <ele>475.4</ele>
        <time>2022-02-28T15:28:19Z</time>
      </trkpt>
      <trkpt lat="46.58604" lon="5.70645">
        <ele>475.4</ele>
        <time>2022-02-28T15:28:20Z</time>
      </trkpt>
      <trkpt lat="46.58602" lon="5.7065">
        <ele>475.6</ele>
        <time>2022-02-28T15:28:21Z</time>
      </trkpt>
      <trkpt lat="46.58601" lon="5.70654">
        <ele>475.6</ele>
        <time>2022-02-28T15:28:22Z</time>
      </trkpt>
      <trkpt lat="46.586" lon="5.70659">
        <ele>475.6</ele>
        <time>2022-02-28T15:28:23Z</time>
      </trkpt>
      <trkpt lat="46.586" lon="5.70664">
        <ele>475.6</ele>
        <time>2022-02-28T15:28:24Z</time>
      </trkpt>
      <trkpt lat="46.58599" lon="5.70669">
        <ele>475.8</ele>
        <time>2022-02-28T15:28:25Z</time>
      </trkpt>
      <trkpt lat="46.58598" lon="5.70673">
        <ele>475.8</ele>
        <time>2022-02-28T15:28:26Z</time>
      </trkpt>
      <trkpt lat="46.58597" lon="5.70678">
        <ele>475.8</ele>
        <time>2022-02-28T15:28:27Z</time>
      </trkpt>
      <trkpt lat="46.58596" lon="5.70684">
        <ele>476</ele>
        <time>2022-02-28T15:28:28Z</time>
      </trkpt>
      <trkpt lat="46.58595" lon="5.70689">
        <ele>476</ele>
        <time>2022-02-28T15:28:29Z</time>
      </trkpt>
      <trkpt lat="46.58594" lon="5.70695">
        <ele>476</ele>
        <time>2022-02-28T15:28:30Z</time>
      </trkpt>
      <trkpt lat="46.58593" lon="5.70701">
        <ele>476</ele>
        <time>2022-02-28T15:28:31Z</time>
      </trkpt>
      <trkpt lat="46.58592" lon="5.70706">
        <ele>476.2</ele>
        <time>2022-02-28T15:28:32Z</time>
      </trkpt>
      <trkpt lat="46.58591" lon="5.70712">
        <ele>476.2</ele>
        <time>2022-02-28T15:28:33Z</time>
      </trkpt>
      <trkpt lat="46.5859" lon="5.70718">
        <ele>476.2</ele>
        <time>2022-02-28T15:28:34Z</time>
      </trkpt>
      <trkpt lat="46.58589" lon="5.70723">
        <ele>476.6</ele>
        <time>2022-02-28T15:28:35Z</time>
      </trkpt>
      <trkpt lat="46.58588" lon="5.70729">
        <ele>476.6</ele>
        <time>2022-02-28T15:28:36Z</time>
      </trkpt>
      <trkpt lat="46.58587" lon="5.70734">
        <ele>476.8</ele>
        <time>2022-02-28T15:28:37Z</time>
      </trkpt>
      <trkpt lat="46.58586" lon="5.70739">
        <ele>476.8</ele>
        <time>2022-02-28T15:28:38Z</time>
      </trkpt>
      <trkpt lat="46.58585" lon="5.70745">
        <ele>476.8</ele>
        <time>2022-02-28T15:28:39Z</time>
      </trkpt>
      <trkpt lat="46.58584" lon="5.7075">
        <ele>477</ele>
        <time>2022-02-28T15:28:40Z</time>
      </trkpt>
      <trkpt lat="46.58583" lon="5.70755">
        <ele>477</ele>
        <time>2022-02-28T15:28:41Z</time>
      </trkpt>
      <trkpt lat="46.58582" lon="5.70761">
        <ele>477</ele>
        <time>2022-02-28T15:28:42Z</time>
      </trkpt>
      <trkpt lat="46.58581" lon="5.70766">
        <ele>477.2</ele>
        <time>2022-02-28T15:28:43Z</time>
      </trkpt>
      <trkpt lat="46.5858" lon="5.70771">
        <ele>477.2</ele>
        <time>2022-02-28T15:28:44Z</time>
      </trkpt>
      <trkpt lat="46.58579" lon="5.70777">
        <ele>477.2</ele>
        <time>2022-02-28T15:28:45Z</time>
      </trkpt>
      <trkpt lat="46.58578" lon="5.70782">
        <ele>477.4</ele>
        <time>2022-02-28T15:28:46Z</time>
      </trkpt>
      <trkpt lat="46.58577" lon="5.70787">
        <ele>477.4</ele>
        <time>2022-02-28T15:28:47Z</time>
      </trkpt>
      <trkpt lat="46.58576" lon="5.70792">
        <ele>477.6</ele>
        <time>2022-02-28T15:28:48Z</time>
      </trkpt>
      <trkpt lat="46.58575" lon="5.70797">
        <ele>477.6</ele>
        <time>2022-02-28T15:28:49Z</time>
      </trkpt>
      <trkpt lat="46.58574" lon="5.70802">
        <ele>478</ele>
        <time>2022-02-28T15:28:50Z</time>
      </trkpt>
      <trkpt lat="46.58574" lon="5.70808">
        <ele>478</ele>
        <time>2022-02-28T15:28:51Z</time>
      </trkpt>
      <trkpt lat="46.58573" lon="5.70813">
        <ele>478</ele>
        <time>2022-02-28T15:28:52Z</time>
      </trkpt>
      <trkpt lat="46.58572" lon="5.70818">
        <ele>478.2</ele>
        <time>2022-02-28T15:28:53Z</time>
      </trkpt>
      <trkpt lat="46.5857" lon="5.70823">
        <ele>478.2</ele>
        <time>2022-02-28T15:28:54Z</time>
      </trkpt>
      <trkpt lat="46.58569" lon="5.70828">
        <ele>478.4</ele>
        <time>2022-02-28T15:28:55Z</time>
      </trkpt>
      <trkpt lat="46.58568" lon="5.70833">
        <ele>478.4</ele>
        <time>2022-02-28T15:28:56Z</time>
      </trkpt>
      <trkpt lat="46.58567" lon="5.70839">
        <ele>478.4</ele>
        <time>2022-02-28T15:28:57Z</time>
      </trkpt>
      <trkpt lat="46.58566" lon="5.70844">
        <ele>478.4</ele>
        <time>2022-02-28T15:28:58Z</time>
      </trkpt>
      <trkpt lat="46.58565" lon="5.70849">
        <ele>478.8</ele>
        <time>2022-02-28T15:28:59Z</time>
      </trkpt>
      <trkpt lat="46.58564" lon="5.70855">
        <ele>478.8</ele>
        <time>2022-02-28T15:29:00Z</time>
      </trkpt>
      <trkpt lat="46.58562" lon="5.7086">
        <ele>478.8</ele>
        <time>2022-02-28T15:29:01Z</time>
      </trkpt>
      <trkpt lat="46.58561" lon="5.70865">
        <ele>479</ele>
        <time>2022-02-28T15:29:02Z</time>
      </trkpt>
      <trkpt lat="46.5856" lon="5.70871">
        <ele>479</ele>
        <time>2022-02-28T15:29:03Z</time>
      </trkpt>
      <trkpt lat="46.58559" lon="5.70876">
        <ele>479</ele>
        <time>2022-02-28T15:29:04Z</time>
      </trkpt>
      <trkpt lat="46.58558" lon="5.70881">
        <ele>479.4</ele>
        <time>2022-02-28T15:29:05Z</time>
      </trkpt>
      <trkpt lat="46.58557" lon="5.70887">
        <ele>479.4</ele>
        <time>2022-02-28T15:29:06Z</time>
      </trkpt>
      <trkpt lat="46.58556" lon="5.70892">
        <ele>479.4</ele>
        <time>2022-02-28T15:29:07Z</time>
      </trkpt>
      <trkpt lat="46.58555" lon="5.70897">
        <ele>479.8</ele>
        <time>2022-02-28T15:29:08Z</time>
      </trkpt>
      <trkpt lat="46.58553" lon="5.70903">
        <ele>479.8</ele>
        <time>2022-02-28T15:29:09Z</time>
      </trkpt>
      <trkpt lat="46.58552" lon="5.70908">
        <ele>480</ele>
        <time>2022-02-28T15:29:10Z</time>
      </trkpt>
      <trkpt lat="46.58551" lon="5.70913">
        <ele>480</ele>
        <time>2022-02-28T15:29:11Z</time>
      </trkpt>
      <trkpt lat="46.5855" lon="5.70919">
        <ele>480.4</ele>
        <time>2022-02-28T15:29:12Z</time>
      </trkpt>
      <trkpt lat="46.58549" lon="5.70924">
        <ele>480.4</ele>
        <time>2022-02-28T15:29:13Z</time>
      </trkpt>
      <trkpt lat="46.58548" lon="5.70929">
        <ele>480.6</ele>
        <time>2022-02-28T15:29:14Z</time>
      </trkpt>
      <trkpt lat="46.58547" lon="5.70934">
        <ele>480.6</ele>
        <time>2022-02-28T15:29:15Z</time>
      </trkpt>
      <trkpt lat="46.58546" lon="5.7094">
        <ele>480.6</ele>
        <time>2022-02-28T15:29:16Z</time>
      </trkpt>
      <trkpt lat="46.58545" lon="5.70945">
        <ele>480.8</ele>
        <time>2022-02-28T15:29:17Z</time>
      </trkpt>
      <trkpt lat="46.58544" lon="5.7095">
        <ele>480.8</ele>
        <time>2022-02-28T15:29:18Z</time>
      </trkpt>
      <trkpt lat="46.58543" lon="5.70955">
        <ele>481</ele>
        <time>2022-02-28T15:29:19Z</time>
      </trkpt>
      <trkpt lat="46.58542" lon="5.7096">
        <ele>481</ele>
        <time>2022-02-28T15:29:20Z</time>
      </trkpt>
      <trkpt lat="46.58541" lon="5.70965">
        <ele>481</ele>
        <time>2022-02-28T15:29:21Z</time>
      </trkpt>
      <trkpt lat="46.5854" lon="5.7097">
        <ele>481.2</ele>
        <time>2022-02-28T15:29:22Z</time>
      </trkpt>
      <trkpt lat="46.58539" lon="5.70976">
        <ele>481.2</ele>
        <time>2022-02-28T15:29:23Z</time>
      </trkpt>
      <trkpt lat="46.58538" lon="5.70981">
        <ele>481.2</ele>
        <time>2022-02-28T15:29:24Z</time>
      </trkpt>
      <trkpt lat="46.58536" lon="5.70988">
        <ele>481.2</ele>
        <time>2022-02-28T15:29:25Z</time>
      </trkpt>
      <trkpt lat="46.58535" lon="5.70994">
        <ele>481.2</ele>
        <time>2022-02-28T15:29:26Z</time>
      </trkpt>
      <trkpt lat="46.58534" lon="5.71001">
        <ele>481.2</ele>
        <time>2022-02-28T15:29:27Z</time>
      </trkpt>
      <trkpt lat="46.58532" lon="5.71008">
        <ele>481.2</ele>
        <time>2022-02-28T15:29:28Z</time>
      </trkpt>
      <trkpt lat="46.5853" lon="5.71015">
        <ele>481</ele>
        <time>2022-02-28T15:29:29Z</time>
      </trkpt>
      <trkpt lat="46.58529" lon="5.71023">
        <ele>481</ele>
        <time>2022-02-28T15:29:30Z</time>
      </trkpt>
      <trkpt lat="46.58527" lon="5.71031">
        <ele>480.6</ele>
        <time>2022-02-28T15:29:31Z</time>
      </trkpt>
      <trkpt lat="46.58525" lon="5.71039">
        <ele>480.4</ele>
        <time>2022-02-28T15:29:32Z</time>
      </trkpt>
      <trkpt lat="46.58523" lon="5.71049">
        <ele>480.4</ele>
        <time>2022-02-28T15:29:33Z</time>
      </trkpt>
      <trkpt lat="46.5852" lon="5.71058">
        <ele>480</ele>
        <time>2022-02-28T15:29:34Z</time>
      </trkpt>
      <trkpt lat="46.58518" lon="5.71067">
        <ele>480</ele>
        <time>2022-02-28T15:29:35Z</time>
      </trkpt>
      <trkpt lat="46.58516" lon="5.71077">
        <ele>479.8</ele>
        <time>2022-02-28T15:29:36Z</time>
      </trkpt>
      <trkpt lat="46.58514" lon="5.71087">
        <ele>479.8</ele>
        <time>2022-02-28T15:29:37Z</time>
      </trkpt>
      <trkpt lat="46.58512" lon="5.71097">
        <ele>479.6</ele>
        <time>2022-02-28T15:29:38Z</time>
      </trkpt>
      <trkpt lat="46.5851" lon="5.71107">
        <ele>479.6</ele>
        <time>2022-02-28T15:29:39Z</time>
      </trkpt>
      <trkpt lat="46.58507" lon="5.71116">
        <ele>479.6</ele>
        <time>2022-02-28T15:29:40Z</time>
      </trkpt>
      <trkpt lat="46.58505" lon="5.71126">
        <ele>479.6</ele>
        <time>2022-02-28T15:29:41Z</time>
      </trkpt>
      <trkpt lat="46.58503" lon="5.71136">
        <ele>479.6</ele>
        <time>2022-02-28T15:29:42Z</time>
      </trkpt>
      <trkpt lat="46.58501" lon="5.71145">
        <ele>479.6</ele>
        <time>2022-02-28T15:29:43Z</time>
      </trkpt>
      <trkpt lat="46.58499" lon="5.71154">
        <ele>479.8</ele>
        <time>2022-02-28T15:29:44Z</time>
      </trkpt>
      <trkpt lat="46.58496" lon="5.71163">
        <ele>479.8</ele>
        <time>2022-02-28T15:29:45Z</time>
      </trkpt>
      <trkpt lat="46.58494" lon="5.71172">
        <ele>480.2</ele>
        <time>2022-02-28T15:29:46Z</time>
      </trkpt>
      <trkpt lat="46.58492" lon="5.71181">
        <ele>480.2</ele>
        <time>2022-02-28T15:29:47Z</time>
      </trkpt>
      <trkpt lat="46.58491" lon="5.7119">
        <ele>480.4</ele>
        <time>2022-02-28T15:29:48Z</time>
      </trkpt>
      <trkpt lat="46.58489" lon="5.71197">
        <ele>480.6</ele>
        <time>2022-02-28T15:29:49Z</time>
      </trkpt>
      <trkpt lat="46.58487" lon="5.71205">
        <ele>480.8</ele>
        <time>2022-02-28T15:29:50Z</time>
      </trkpt>
      <trkpt lat="46.58486" lon="5.71212">
        <ele>481.2</ele>
        <time>2022-02-28T15:29:51Z</time>
      </trkpt>
      <trkpt lat="46.58484" lon="5.71219">
        <ele>481.6</ele>
        <time>2022-02-28T15:29:52Z</time>
      </trkpt>
      <trkpt lat="46.58482" lon="5.71227">
        <ele>481.8</ele>
        <time>2022-02-28T15:29:53Z</time>
      </trkpt>
      <trkpt lat="46.5848" lon="5.71234">
        <ele>482.2</ele>
        <time>2022-02-28T15:29:54Z</time>
      </trkpt>
      <trkpt lat="46.58479" lon="5.71241">
        <ele>482.4</ele>
        <time>2022-02-28T15:29:55Z</time>
      </trkpt>
      <trkpt lat="46.58477" lon="5.71247">
        <ele>482.4</ele>
        <time>2022-02-28T15:29:56Z</time>
      </trkpt>
      <trkpt lat="46.58476" lon="5.71254">
        <ele>482.8</ele>
        <time>2022-02-28T15:29:57Z</time>
      </trkpt>
      <trkpt lat="46.58474" lon="5.7126">
        <ele>482.8</ele>
        <time>2022-02-28T15:29:58Z</time>
      </trkpt>
      <trkpt lat="46.58473" lon="5.71266">
        <ele>483.2</ele>
        <time>2022-02-28T15:29:59Z</time>
      </trkpt>
      <trkpt lat="46.58471" lon="5.71272">
        <ele>483.2</ele>
        <time>2022-02-28T15:30:00Z</time>
      </trkpt>
      <trkpt lat="46.5847" lon="5.71278">
        <ele>483.6</ele>
        <time>2022-02-28T15:30:01Z</time>
      </trkpt>
      <trkpt lat="46.58468" lon="5.71284">
        <ele>483.6</ele>
        <time>2022-02-28T15:30:02Z</time>
      </trkpt>
      <trkpt lat="46.58467" lon="5.7129">
        <ele>483.8</ele>
        <time>2022-02-28T15:30:03Z</time>
      </trkpt>
      <trkpt lat="46.58465" lon="5.71296">
        <ele>483.8</ele>
        <time>2022-02-28T15:30:04Z</time>
      </trkpt>
      <trkpt lat="46.58464" lon="5.71303">
        <ele>484</ele>
        <time>2022-02-28T15:30:05Z</time>
      </trkpt>
      <trkpt lat="46.58462" lon="5.7131">
        <ele>484</ele>
        <time>2022-02-28T15:30:06Z</time>
      </trkpt>
      <trkpt lat="46.58461" lon="5.71316">
        <ele>484.2</ele>
        <time>2022-02-28T15:30:07Z</time>
      </trkpt>
      <trkpt lat="46.58459" lon="5.71323">
        <ele>484.2</ele>
        <time>2022-02-28T15:30:08Z</time>
      </trkpt>
      <trkpt lat="46.58457" lon="5.7133">
        <ele>484.2</ele>
        <time>2022-02-28T15:30:09Z</time>
      </trkpt>
      <trkpt lat="46.58456" lon="5.71337">
        <ele>484.6</ele>
        <time>2022-02-28T15:30:10Z</time>
      </trkpt>
      <trkpt lat="46.58454" lon="5.71343">
        <ele>484.6</ele>
        <time>2022-02-28T15:30:11Z</time>
      </trkpt>
      <trkpt lat="46.58453" lon="5.7135">
        <ele>484.6</ele>
        <time>2022-02-28T15:30:12Z</time>
      </trkpt>
      <trkpt lat="46.58451" lon="5.71357">
        <ele>484.8</ele>
        <time>2022-02-28T15:30:13Z</time>
      </trkpt>
      <trkpt lat="46.58449" lon="5.71364">
        <ele>484.8</ele>
        <time>2022-02-28T15:30:14Z</time>
      </trkpt>
      <trkpt lat="46.58447" lon="5.71372">
        <ele>484.8</ele>
        <time>2022-02-28T15:30:15Z</time>
      </trkpt>
      <trkpt lat="46.58446" lon="5.71379">
        <ele>484.8</ele>
        <time>2022-02-28T15:30:16Z</time>
      </trkpt>
      <trkpt lat="46.58444" lon="5.71386">
        <ele>485</ele>
        <time>2022-02-28T15:30:17Z</time>
      </trkpt>
      <trkpt lat="46.58442" lon="5.71394">
        <ele>485</ele>
        <time>2022-02-28T15:30:18Z</time>
      </trkpt>
      <trkpt lat="46.5844" lon="5.71401">
        <ele>485</ele>
        <time>2022-02-28T15:30:19Z</time>
      </trkpt>
      <trkpt lat="46.58439" lon="5.71409">
        <ele>485</ele>
        <time>2022-02-28T15:30:20Z</time>
      </trkpt>
      <trkpt lat="46.58437" lon="5.71416">
        <ele>485</ele>
        <time>2022-02-28T15:30:21Z</time>
      </trkpt>
      <trkpt lat="46.58435" lon="5.71424">
        <ele>485</ele>
        <time>2022-02-28T15:30:22Z</time>
      </trkpt>
      <trkpt lat="46.58433" lon="5.71432">
        <ele>485</ele>
        <time>2022-02-28T15:30:23Z</time>
      </trkpt>
      <trkpt lat="46.58432" lon="5.71439">
        <ele>485.2</ele>
        <time>2022-02-28T15:30:24Z</time>
      </trkpt>
      <trkpt lat="46.5843" lon="5.71447">
        <ele>485.2</ele>
        <time>2022-02-28T15:30:25Z</time>
      </trkpt>
      <trkpt lat="46.58428" lon="5.71455">
        <ele>485.2</ele>
        <time>2022-02-28T15:30:26Z</time>
      </trkpt>
      <trkpt lat="46.58426" lon="5.71462">
        <ele>485.2</ele>
        <time>2022-02-28T15:30:27Z</time>
      </trkpt>
      <trkpt lat="46.58424" lon="5.7147">
        <ele>485.2</ele>
        <time>2022-02-28T15:30:28Z</time>
      </trkpt>
      <trkpt lat="46.58422" lon="5.71478">
        <ele>485.2</ele>
        <time>2022-02-28T15:30:29Z</time>
      </trkpt>
      <trkpt lat="46.5842" lon="5.71486">
        <ele>485.2</ele>
        <time>2022-02-28T15:30:30Z</time>
      </trkpt>
      <trkpt lat="46.58418" lon="5.71494">
        <ele>485.2</ele>
        <time>2022-02-28T15:30:31Z</time>
      </trkpt>
      <trkpt lat="46.58417" lon="5.71502">
        <ele>485.2</ele>
        <time>2022-02-28T15:30:32Z</time>
      </trkpt>
      <trkpt lat="46.58415" lon="5.7151">
        <ele>485.2</ele>
        <time>2022-02-28T15:30:33Z</time>
      </trkpt>
      <trkpt lat="46.58413" lon="5.71519">
        <ele>485.4</ele>
        <time>2022-02-28T15:30:34Z</time>
      </trkpt>
      <trkpt lat="46.58411" lon="5.71527">
        <ele>485.4</ele>
        <time>2022-02-28T15:30:35Z</time>
      </trkpt>
      <trkpt lat="46.58409" lon="5.71535">
        <ele>485.4</ele>
        <time>2022-02-28T15:30:36Z</time>
      </trkpt>
      <trkpt lat="46.58407" lon="5.71543">
        <ele>485.4</ele>
        <time>2022-02-28T15:30:37Z</time>
      </trkpt>
      <trkpt lat="46.58405" lon="5.71552">
        <ele>485.4</ele>
        <time>2022-02-28T15:30:38Z</time>
      </trkpt>
      <trkpt lat="46.58403" lon="5.7156">
        <ele>485.4</ele>
        <time>2022-02-28T15:30:39Z</time>
      </trkpt>
      <trkpt lat="46.58401" lon="5.71569">
        <ele>485.4</ele>
        <time>2022-02-28T15:30:40Z</time>
      </trkpt>
      <trkpt lat="46.58399" lon="5.71577">
        <ele>485.4</ele>
        <time>2022-02-28T15:30:41Z</time>
      </trkpt>
      <trkpt lat="46.58397" lon="5.71586">
        <ele>485.2</ele>
        <time>2022-02-28T15:30:42Z</time>
      </trkpt>
      <trkpt lat="46.58395" lon="5.71595">
        <ele>485.2</ele>
        <time>2022-02-28T15:30:43Z</time>
      </trkpt>
      <trkpt lat="46.58393" lon="5.71603">
        <ele>485.2</ele>
        <time>2022-02-28T15:30:44Z</time>
      </trkpt>
      <trkpt lat="46.58391" lon="5.71612">
        <ele>485</ele>
        <time>2022-02-28T15:30:45Z</time>
      </trkpt>
      <trkpt lat="46.58388" lon="5.71625">
        <ele>485</ele>
        <time>2022-02-28T15:30:46Z</time>
      </trkpt>
      <trkpt lat="46.58387" lon="5.7163">
        <ele>485</ele>
        <time>2022-02-28T15:30:47Z</time>
      </trkpt>
      <trkpt lat="46.58385" lon="5.71638">
        <ele>485</ele>
        <time>2022-02-28T15:30:48Z</time>
      </trkpt>
      <trkpt lat="46.58384" lon="5.71647">
        <ele>485.4</ele>
        <time>2022-02-28T15:30:49Z</time>
      </trkpt>
      <trkpt lat="46.58382" lon="5.71655">
        <ele>485.4</ele>
        <time>2022-02-28T15:30:50Z</time>
      </trkpt>
      <trkpt lat="46.5838" lon="5.71663">
        <ele>485.4</ele>
        <time>2022-02-28T15:30:51Z</time>
      </trkpt>
      <trkpt lat="46.58378" lon="5.71672">
        <ele>485.6</ele>
        <time>2022-02-28T15:30:52Z</time>
      </trkpt>
      <trkpt lat="46.58376" lon="5.71679">
        <ele>485.6</ele>
        <time>2022-02-28T15:30:53Z</time>
      </trkpt>
      <trkpt lat="46.58374" lon="5.71687">
        <ele>486</ele>
        <time>2022-02-28T15:30:54Z</time>
      </trkpt>
      <trkpt lat="46.58372" lon="5.71694">
        <ele>486</ele>
        <time>2022-02-28T15:30:55Z</time>
      </trkpt>
      <trkpt lat="46.5837" lon="5.71701">
        <ele>486.2</ele>
        <time>2022-02-28T15:30:56Z</time>
      </trkpt>
      <trkpt lat="46.58368" lon="5.71708">
        <ele>486.2</ele>
        <time>2022-02-28T15:30:57Z</time>
      </trkpt>
      <trkpt lat="46.58367" lon="5.71715">
        <ele>486.4</ele>
        <time>2022-02-28T15:30:58Z</time>
      </trkpt>
      <trkpt lat="46.58365" lon="5.71722">
        <ele>486.4</ele>
        <time>2022-02-28T15:30:59Z</time>
      </trkpt>
      <trkpt lat="46.58364" lon="5.71729">
        <ele>486.4</ele>
        <time>2022-02-28T15:31:00Z</time>
      </trkpt>
      <trkpt lat="46.58362" lon="5.71736">
        <ele>486.8</ele>
        <time>2022-02-28T15:31:01Z</time>
      </trkpt>
      <trkpt lat="46.58361" lon="5.71742">
        <ele>486.8</ele>
        <time>2022-02-28T15:31:02Z</time>
      </trkpt>
      <trkpt lat="46.58359" lon="5.71749">
        <ele>486.8</ele>
        <time>2022-02-28T15:31:03Z</time>
      </trkpt>
      <trkpt lat="46.58358" lon="5.71755">
        <ele>487</ele>
        <time>2022-02-28T15:31:04Z</time>
      </trkpt>
      <trkpt lat="46.58356" lon="5.71762">
        <ele>487</ele>
        <time>2022-02-28T15:31:05Z</time>
      </trkpt>
      <trkpt lat="46.58355" lon="5.71768">
        <ele>487</ele>
        <time>2022-02-28T15:31:06Z</time>
      </trkpt>
      <trkpt lat="46.58353" lon="5.71775">
        <ele>487</ele>
        <time>2022-02-28T15:31:07Z</time>
      </trkpt>
      <trkpt lat="46.58351" lon="5.71782">
        <ele>487.2</ele>
        <time>2022-02-28T15:31:08Z</time>
      </trkpt>
      <trkpt lat="46.58349" lon="5.71788">
        <ele>487.2</ele>
        <time>2022-02-28T15:31:09Z</time>
      </trkpt>
      <trkpt lat="46.58347" lon="5.71795">
        <ele>487.2</ele>
        <time>2022-02-28T15:31:10Z</time>
      </trkpt>
      <trkpt lat="46.58346" lon="5.71802">
        <ele>487.6</ele>
        <time>2022-02-28T15:31:11Z</time>
      </trkpt>
      <trkpt lat="46.58345" lon="5.71808">
        <ele>487.6</ele>
        <time>2022-02-28T15:31:12Z</time>
      </trkpt>
      <trkpt lat="46.58343" lon="5.71815">
        <ele>487.6</ele>
        <time>2022-02-28T15:31:13Z</time>
      </trkpt>
      <trkpt lat="46.58342" lon="5.71822">
        <ele>487.6</ele>
        <time>2022-02-28T15:31:14Z</time>
      </trkpt>
      <trkpt lat="46.58341" lon="5.71828">
        <ele>487.8</ele>
        <time>2022-02-28T15:31:15Z</time>
      </trkpt>
      <trkpt lat="46.58339" lon="5.71835">
        <ele>487.8</ele>
        <time>2022-02-28T15:31:16Z</time>
      </trkpt>
      <trkpt lat="46.58337" lon="5.71841">
        <ele>487.8</ele>
        <time>2022-02-28T15:31:17Z</time>
      </trkpt>
      <trkpt lat="46.58336" lon="5.71848">
        <ele>487.8</ele>
        <time>2022-02-28T15:31:18Z</time>
      </trkpt>
      <trkpt lat="46.58334" lon="5.71855">
        <ele>487.8</ele>
        <time>2022-02-28T15:31:19Z</time>
      </trkpt>
      <trkpt lat="46.58332" lon="5.71861">
        <ele>487.8</ele>
        <time>2022-02-28T15:31:20Z</time>
      </trkpt>
      <trkpt lat="46.58331" lon="5.71868">
        <ele>487.8</ele>
        <time>2022-02-28T15:31:21Z</time>
      </trkpt>
      <trkpt lat="46.58329" lon="5.71874">
        <ele>487.8</ele>
        <time>2022-02-28T15:31:22Z</time>
      </trkpt>
      <trkpt lat="46.58328" lon="5.71881">
        <ele>488</ele>
        <time>2022-02-28T15:31:23Z</time>
      </trkpt>
      <trkpt lat="46.58326" lon="5.71888">
        <ele>488</ele>
        <time>2022-02-28T15:31:24Z</time>
      </trkpt>
      <trkpt lat="46.58324" lon="5.71894">
        <ele>488</ele>
        <time>2022-02-28T15:31:25Z</time>
      </trkpt>
      <trkpt lat="46.58323" lon="5.71901">
        <ele>488</ele>
        <time>2022-02-28T15:31:26Z</time>
      </trkpt>
      <trkpt lat="46.58321" lon="5.71908">
        <ele>488</ele>
        <time>2022-02-28T15:31:27Z</time>
      </trkpt>
      <trkpt lat="46.5832" lon="5.71914">
        <ele>488</ele>
        <time>2022-02-28T15:31:28Z</time>
      </trkpt>
      <trkpt lat="46.58319" lon="5.71921">
        <ele>488</ele>
        <time>2022-02-28T15:31:29Z</time>
      </trkpt>
      <trkpt lat="46.58317" lon="5.71928">
        <ele>488</ele>
        <time>2022-02-28T15:31:30Z</time>
      </trkpt>
      <trkpt lat="46.58316" lon="5.71934">
        <ele>488</ele>
        <time>2022-02-28T15:31:31Z</time>
      </trkpt>
      <trkpt lat="46.58314" lon="5.71941">
        <ele>488</ele>
        <time>2022-02-28T15:31:32Z</time>
      </trkpt>
      <trkpt lat="46.58313" lon="5.71947">
        <ele>488</ele>
        <time>2022-02-28T15:31:33Z</time>
      </trkpt>
      <trkpt lat="46.58311" lon="5.71954">
        <ele>488</ele>
        <time>2022-02-28T15:31:34Z</time>
      </trkpt>
      <trkpt lat="46.5831" lon="5.7196">
        <ele>488.2</ele>
        <time>2022-02-28T15:31:35Z</time>
      </trkpt>
      <trkpt lat="46.58308" lon="5.71966">
        <ele>488.2</ele>
        <time>2022-02-28T15:31:36Z</time>
      </trkpt>
      <trkpt lat="46.58306" lon="5.71973">
        <ele>488.2</ele>
        <time>2022-02-28T15:31:37Z</time>
      </trkpt>
      <trkpt lat="46.58305" lon="5.71979">
        <ele>488.2</ele>
        <time>2022-02-28T15:31:38Z</time>
      </trkpt>
      <trkpt lat="46.58303" lon="5.71985">
        <ele>488.2</ele>
        <time>2022-02-28T15:31:39Z</time>
      </trkpt>
      <trkpt lat="46.58302" lon="5.71991">
        <ele>488.2</ele>
        <time>2022-02-28T15:31:40Z</time>
      </trkpt>
      <trkpt lat="46.583" lon="5.71997">
        <ele>488.2</ele>
        <time>2022-02-28T15:31:41Z</time>
      </trkpt>
      <trkpt lat="46.58299" lon="5.72003">
        <ele>488.2</ele>
        <time>2022-02-28T15:31:42Z</time>
      </trkpt>
      <trkpt lat="46.58298" lon="5.72009">
        <ele>488.2</ele>
        <time>2022-02-28T15:31:43Z</time>
      </trkpt>
      <trkpt lat="46.58297" lon="5.72015">
        <ele>488.6</ele>
        <time>2022-02-28T15:31:44Z</time>
      </trkpt>
      <trkpt lat="46.58295" lon="5.72022">
        <ele>488.6</ele>
        <time>2022-02-28T15:31:45Z</time>
      </trkpt>
      <trkpt lat="46.58293" lon="5.72028">
        <ele>488.8</ele>
        <time>2022-02-28T15:31:46Z</time>
      </trkpt>
      <trkpt lat="46.58292" lon="5.72034">
        <ele>489</ele>
        <time>2022-02-28T15:31:47Z</time>
      </trkpt>
      <trkpt lat="46.58291" lon="5.7204">
        <ele>489</ele>
        <time>2022-02-28T15:31:48Z</time>
      </trkpt>
      <trkpt lat="46.58289" lon="5.72047">
        <ele>489</ele>
        <time>2022-02-28T15:31:49Z</time>
      </trkpt>
      <trkpt lat="46.58288" lon="5.72053">
        <ele>489.2</ele>
        <time>2022-02-28T15:31:50Z</time>
      </trkpt>
      <trkpt lat="46.58286" lon="5.72059">
        <ele>489.2</ele>
        <time>2022-02-28T15:31:51Z</time>
      </trkpt>
      <trkpt lat="46.58284" lon="5.72065">
        <ele>489.2</ele>
        <time>2022-02-28T15:31:52Z</time>
      </trkpt>
      <trkpt lat="46.58283" lon="5.72071">
        <ele>489.4</ele>
        <time>2022-02-28T15:31:53Z</time>
      </trkpt>
      <trkpt lat="46.58281" lon="5.72077">
        <ele>489.4</ele>
        <time>2022-02-28T15:31:54Z</time>
      </trkpt>
      <trkpt lat="46.5828" lon="5.72083">
        <ele>489.4</ele>
        <time>2022-02-28T15:31:55Z</time>
      </trkpt>
      <trkpt lat="46.58279" lon="5.72088">
        <ele>489.6</ele>
        <time>2022-02-28T15:31:56Z</time>
      </trkpt>
      <trkpt lat="46.58277" lon="5.72094">
        <ele>489.6</ele>
        <time>2022-02-28T15:31:57Z</time>
      </trkpt>
      <trkpt lat="46.58276" lon="5.721">
        <ele>490</ele>
        <time>2022-02-28T15:31:58Z</time>
      </trkpt>
      <trkpt lat="46.58275" lon="5.72105">
        <ele>490</ele>
        <time>2022-02-28T15:31:59Z</time>
      </trkpt>
      <trkpt lat="46.58273" lon="5.72111">
        <ele>490.2</ele>
        <time>2022-02-28T15:32:00Z</time>
      </trkpt>
      <trkpt lat="46.58272" lon="5.72116">
        <ele>490.2</ele>
        <time>2022-02-28T15:32:01Z</time>
      </trkpt>
      <trkpt lat="46.58271" lon="5.72122">
        <ele>490.4</ele>
        <time>2022-02-28T15:32:02Z</time>
      </trkpt>
      <trkpt lat="46.5827" lon="5.72127">
        <ele>490.4</ele>
        <time>2022-02-28T15:32:03Z</time>
      </trkpt>
      <trkpt lat="46.58269" lon="5.72132">
        <ele>490.8</ele>
        <time>2022-02-28T15:32:04Z</time>
      </trkpt>
      <trkpt lat="46.58268" lon="5.72136">
        <ele>490.8</ele>
        <time>2022-02-28T15:32:05Z</time>
      </trkpt>
      <trkpt lat="46.58267" lon="5.72141">
        <ele>491</ele>
        <time>2022-02-28T15:32:06Z</time>
      </trkpt>
      <trkpt lat="46.58266" lon="5.72146">
        <ele>491</ele>
        <time>2022-02-28T15:32:07Z</time>
      </trkpt>
      <trkpt lat="46.58265" lon="5.7215">
        <ele>491.2</ele>
        <time>2022-02-28T15:32:08Z</time>
      </trkpt>
      <trkpt lat="46.58264" lon="5.72154">
        <ele>491.2</ele>
        <time>2022-02-28T15:32:09Z</time>
      </trkpt>
      <trkpt lat="46.58263" lon="5.72159">
        <ele>491.6</ele>
        <time>2022-02-28T15:32:10Z</time>
      </trkpt>
      <trkpt lat="46.58262" lon="5.72163">
        <ele>491.6</ele>
        <time>2022-02-28T15:32:11Z</time>
      </trkpt>
      <trkpt lat="46.58261" lon="5.72167">
        <ele>492</ele>
        <time>2022-02-28T15:32:12Z</time>
      </trkpt>
      <trkpt lat="46.5826" lon="5.72171">
        <ele>492</ele>
        <time>2022-02-28T15:32:13Z</time>
      </trkpt>
      <trkpt lat="46.58258" lon="5.72175">
        <ele>492.2</ele>
        <time>2022-02-28T15:32:14Z</time>
      </trkpt>
      <trkpt lat="46.58257" lon="5.72179">
        <ele>492.2</ele>
        <time>2022-02-28T15:32:15Z</time>
      </trkpt>
      <trkpt lat="46.58256" lon="5.72185">
        <ele>492.6</ele>
        <time>2022-02-28T15:32:16Z</time>
      </trkpt>
      <trkpt lat="46.58256" lon="5.72187">
        <ele>493</ele>
        <time>2022-02-28T15:32:17Z</time>
      </trkpt>
      <trkpt lat="46.58255" lon="5.72191">
        <ele>493</ele>
        <time>2022-02-28T15:32:18Z</time>
      </trkpt>
      <trkpt lat="46.58254" lon="5.72195">
        <ele>493.2</ele>
        <time>2022-02-28T15:32:19Z</time>
      </trkpt>
      <trkpt lat="46.58253" lon="5.72203">
        <ele>493.6</ele>
        <time>2022-02-28T15:32:20Z</time>
      </trkpt>
      <trkpt lat="46.58252" lon="5.72207">
        <ele>493.8</ele>
        <time>2022-02-28T15:32:21Z</time>
      </trkpt>
      <trkpt lat="46.5825" lon="5.72211">
        <ele>494</ele>
        <time>2022-02-28T15:32:22Z</time>
      </trkpt>
      <trkpt lat="46.58249" lon="5.72215">
        <ele>494.2</ele>
        <time>2022-02-28T15:32:23Z</time>
      </trkpt>
      <trkpt lat="46.58248" lon="5.72219">
        <ele>494.6</ele>
        <time>2022-02-28T15:32:24Z</time>
      </trkpt>
      <trkpt lat="46.58247" lon="5.72223">
        <ele>494.8</ele>
        <time>2022-02-28T15:32:25Z</time>
      </trkpt>
      <trkpt lat="46.58246" lon="5.72226">
        <ele>495</ele>
        <time>2022-02-28T15:32:26Z</time>
      </trkpt>
      <trkpt lat="46.58245" lon="5.7223">
        <ele>495.4</ele>
        <time>2022-02-28T15:32:27Z</time>
      </trkpt>
      <trkpt lat="46.58244" lon="5.72234">
        <ele>495.6</ele>
        <time>2022-02-28T15:32:28Z</time>
      </trkpt>
      <trkpt lat="46.58244" lon="5.72237">
        <ele>495.6</ele>
        <time>2022-02-28T15:32:29Z</time>
      </trkpt>
      <trkpt lat="46.58243" lon="5.72241">
        <ele>496</ele>
        <time>2022-02-28T15:32:30Z</time>
      </trkpt>
      <trkpt lat="46.58242" lon="5.72245">
        <ele>496</ele>
        <time>2022-02-28T15:32:31Z</time>
      </trkpt>
      <trkpt lat="46.58241" lon="5.72248">
        <ele>496.4</ele>
        <time>2022-02-28T15:32:32Z</time>
      </trkpt>
      <trkpt lat="46.5824" lon="5.72252">
        <ele>496.6</ele>
        <time>2022-02-28T15:32:33Z</time>
      </trkpt>
      <trkpt lat="46.58239" lon="5.72256">
        <ele>496.6</ele>
        <time>2022-02-28T15:32:34Z</time>
      </trkpt>
      <trkpt lat="46.58238" lon="5.72259">
        <ele>497.2</ele>
        <time>2022-02-28T15:32:35Z</time>
      </trkpt>
      <trkpt lat="46.58237" lon="5.72263">
        <ele>497.2</ele>
        <time>2022-02-28T15:32:36Z</time>
      </trkpt>
      <trkpt lat="46.58236" lon="5.72267">
        <ele>497.4</ele>
        <time>2022-02-28T15:32:37Z</time>
      </trkpt>
      <trkpt lat="46.58236" lon="5.72271">
        <ele>497.4</ele>
        <time>2022-02-28T15:32:38Z</time>
      </trkpt>
      <trkpt lat="46.58235" lon="5.72274">
        <ele>497.8</ele>
        <time>2022-02-28T15:32:39Z</time>
      </trkpt>
      <trkpt lat="46.58234" lon="5.72278">
        <ele>497.8</ele>
        <time>2022-02-28T15:32:40Z</time>
      </trkpt>
      <trkpt lat="46.58233" lon="5.72281">
        <ele>498.2</ele>
        <time>2022-02-28T15:32:41Z</time>
      </trkpt>
      <trkpt lat="46.58232" lon="5.72285">
        <ele>498.2</ele>
        <time>2022-02-28T15:32:42Z</time>
      </trkpt>
      <trkpt lat="46.58232" lon="5.72289">
        <ele>498.6</ele>
        <time>2022-02-28T15:32:43Z</time>
      </trkpt>
      <trkpt lat="46.58231" lon="5.72293">
        <ele>499</ele>
        <time>2022-02-28T15:32:44Z</time>
      </trkpt>
      <trkpt lat="46.58231" lon="5.72293">
        <ele>499.2</ele>
        <time>2022-02-28T15:32:45Z</time>
      </trkpt>
      <trkpt lat="46.5823" lon="5.72296">
        <ele>499.4</ele>
        <time>2022-02-28T15:32:46Z</time>
      </trkpt>
      <trkpt lat="46.58229" lon="5.723">
        <ele>499.4</ele>
        <time>2022-02-28T15:32:47Z</time>
      </trkpt>
      <trkpt lat="46.58228" lon="5.72304">
        <ele>499.6</ele>
        <time>2022-02-28T15:32:48Z</time>
      </trkpt>
      <trkpt lat="46.58227" lon="5.72308">
        <ele>499.6</ele>
        <time>2022-02-28T15:32:49Z</time>
      </trkpt>
      <trkpt lat="46.58226" lon="5.72312">
        <ele>500</ele>
        <time>2022-02-28T15:32:50Z</time>
      </trkpt>
      <trkpt lat="46.58226" lon="5.72316">
        <ele>500.2</ele>
        <time>2022-02-28T15:32:51Z</time>
      </trkpt>
      <trkpt lat="46.58225" lon="5.72319">
        <ele>500.2</ele>
        <time>2022-02-28T15:32:52Z</time>
      </trkpt>
      <trkpt lat="46.58224" lon="5.72323">
        <ele>500.6</ele>
        <time>2022-02-28T15:32:53Z</time>
      </trkpt>
      <trkpt lat="46.58223" lon="5.72326">
        <ele>500.6</ele>
        <time>2022-02-28T15:32:54Z</time>
      </trkpt>
      <trkpt lat="46.58223" lon="5.7233">
        <ele>501</ele>
        <time>2022-02-28T15:32:55Z</time>
      </trkpt>
      <trkpt lat="46.58222" lon="5.72333">
        <ele>501</ele>
        <time>2022-02-28T15:32:56Z</time>
      </trkpt>
      <trkpt lat="46.58221" lon="5.72337">
        <ele>501.2</ele>
        <time>2022-02-28T15:32:57Z</time>
      </trkpt>
      <trkpt lat="46.5822" lon="5.7234">
        <ele>501.2</ele>
        <time>2022-02-28T15:32:58Z</time>
      </trkpt>
      <trkpt lat="46.58219" lon="5.72344">
        <ele>501.6</ele>
        <time>2022-02-28T15:32:59Z</time>
      </trkpt>
      <trkpt lat="46.58218" lon="5.72348">
        <ele>501.6</ele>
        <time>2022-02-28T15:33:00Z</time>
      </trkpt>
      <trkpt lat="46.58217" lon="5.72352">
        <ele>501.8</ele>
        <time>2022-02-28T15:33:01Z</time>
      </trkpt>
      <trkpt lat="46.58216" lon="5.72355">
        <ele>501.8</ele>
        <time>2022-02-28T15:33:02Z</time>
      </trkpt>
      <trkpt lat="46.58216" lon="5.72359">
        <ele>502.2</ele>
        <time>2022-02-28T15:33:03Z</time>
      </trkpt>
      <trkpt lat="46.58215" lon="5.72363">
        <ele>502.2</ele>
        <time>2022-02-28T15:33:04Z</time>
      </trkpt>
      <trkpt lat="46.58214" lon="5.72367">
        <ele>502.4</ele>
        <time>2022-02-28T15:33:05Z</time>
      </trkpt>
      <trkpt lat="46.58213" lon="5.72371">
        <ele>502.4</ele>
        <time>2022-02-28T15:33:06Z</time>
      </trkpt>
      <trkpt lat="46.58212" lon="5.72375">
        <ele>502.8</ele>
        <time>2022-02-28T15:33:07Z</time>
      </trkpt>
      <trkpt lat="46.58211" lon="5.7238">
        <ele>502.8</ele>
        <time>2022-02-28T15:33:08Z</time>
      </trkpt>
      <trkpt lat="46.58209" lon="5.72384">
        <ele>502.8</ele>
        <time>2022-02-28T15:33:09Z</time>
      </trkpt>
      <trkpt lat="46.58208" lon="5.72389">
        <ele>502.8</ele>
        <time>2022-02-28T15:33:10Z</time>
      </trkpt>
      <trkpt lat="46.58207" lon="5.72395">
        <ele>502.8</ele>
        <time>2022-02-28T15:33:11Z</time>
      </trkpt>
      <trkpt lat="46.58205" lon="5.724">
        <ele>502.8</ele>
        <time>2022-02-28T15:33:12Z</time>
      </trkpt>
      <trkpt lat="46.58204" lon="5.72406">
        <ele>502.8</ele>
        <time>2022-02-28T15:33:13Z</time>
      </trkpt>
      <trkpt lat="46.58203" lon="5.72412">
        <ele>502.8</ele>
        <time>2022-02-28T15:33:14Z</time>
      </trkpt>
      <trkpt lat="46.58201" lon="5.72418">
        <ele>502.8</ele>
        <time>2022-02-28T15:33:15Z</time>
      </trkpt>
      <trkpt lat="46.582" lon="5.72425">
        <ele>502.8</ele>
        <time>2022-02-28T15:33:16Z</time>
      </trkpt>
      <trkpt lat="46.58198" lon="5.72432">
        <ele>502.4</ele>
        <time>2022-02-28T15:33:17Z</time>
      </trkpt>
      <trkpt lat="46.58197" lon="5.72438">
        <ele>502.4</ele>
        <time>2022-02-28T15:33:18Z</time>
      </trkpt>
      <trkpt lat="46.58195" lon="5.72445">
        <ele>502.4</ele>
        <time>2022-02-28T15:33:19Z</time>
      </trkpt>
      <trkpt lat="46.58193" lon="5.72452">
        <ele>502.4</ele>
        <time>2022-02-28T15:33:20Z</time>
      </trkpt>
      <trkpt lat="46.58191" lon="5.72459">
        <ele>502.2</ele>
        <time>2022-02-28T15:33:21Z</time>
      </trkpt>
      <trkpt lat="46.5819" lon="5.72467">
        <ele>502.2</ele>
        <time>2022-02-28T15:33:22Z</time>
      </trkpt>
      <trkpt lat="46.58188" lon="5.72474">
        <ele>501.8</ele>
        <time>2022-02-28T15:33:23Z</time>
      </trkpt>
      <trkpt lat="46.58186" lon="5.72482">
        <ele>501.8</ele>
        <time>2022-02-28T15:33:24Z</time>
      </trkpt>
      <trkpt lat="46.58184" lon="5.7249">
        <ele>501.8</ele>
        <time>2022-02-28T15:33:25Z</time>
      </trkpt>
      <trkpt lat="46.58182" lon="5.72498">
        <ele>501.8</ele>
        <time>2022-02-28T15:33:26Z</time>
      </trkpt>
      <trkpt lat="46.5818" lon="5.72507">
        <ele>501.8</ele>
        <time>2022-02-28T15:33:27Z</time>
      </trkpt>
      <trkpt lat="46.58178" lon="5.72515">
        <ele>501.8</ele>
        <time>2022-02-28T15:33:28Z</time>
      </trkpt>
      <trkpt lat="46.58176" lon="5.72523">
        <ele>501.8</ele>
        <time>2022-02-28T15:33:29Z</time>
      </trkpt>
      <trkpt lat="46.58173" lon="5.72531">
        <ele>501.8</ele>
        <time>2022-02-28T15:33:30Z</time>
      </trkpt>
      <trkpt lat="46.58172" lon="5.7254">
        <ele>501.8</ele>
        <time>2022-02-28T15:33:31Z</time>
      </trkpt>
      <trkpt lat="46.5817" lon="5.72548">
        <ele>501.8</ele>
        <time>2022-02-28T15:33:32Z</time>
      </trkpt>
      <trkpt lat="46.58168" lon="5.72556">
        <ele>501.6</ele>
        <time>2022-02-28T15:33:33Z</time>
      </trkpt>
      <trkpt lat="46.58166" lon="5.72564">
        <ele>501.6</ele>
        <time>2022-02-28T15:33:34Z</time>
      </trkpt>
      <trkpt lat="46.58164" lon="5.72572">
        <ele>501.6</ele>
        <time>2022-02-28T15:33:35Z</time>
      </trkpt>
      <trkpt lat="46.58162" lon="5.7258">
        <ele>501.6</ele>
        <time>2022-02-28T15:33:36Z</time>
      </trkpt>
      <trkpt lat="46.5816" lon="5.72588">
        <ele>501.6</ele>
        <time>2022-02-28T15:33:37Z</time>
      </trkpt>
      <trkpt lat="46.58158" lon="5.72596">
        <ele>501.6</ele>
        <time>2022-02-28T15:33:38Z</time>
      </trkpt>
      <trkpt lat="46.58156" lon="5.72604">
        <ele>501.6</ele>
        <time>2022-02-28T15:33:39Z</time>
      </trkpt>
      <trkpt lat="46.58154" lon="5.72612">
        <ele>501.6</ele>
        <time>2022-02-28T15:33:40Z</time>
      </trkpt>
      <trkpt lat="46.58152" lon="5.7262">
        <ele>501.6</ele>
        <time>2022-02-28T15:33:41Z</time>
      </trkpt>
      <trkpt lat="46.5815" lon="5.72628">
        <ele>501.6</ele>
        <time>2022-02-28T15:33:42Z</time>
      </trkpt>
      <trkpt lat="46.58148" lon="5.72635">
        <ele>501.6</ele>
        <time>2022-02-28T15:33:43Z</time>
      </trkpt>
      <trkpt lat="46.58146" lon="5.72643">
        <ele>502</ele>
        <time>2022-02-28T15:33:44Z</time>
      </trkpt>
      <trkpt lat="46.58145" lon="5.72651">
        <ele>502</ele>
        <time>2022-02-28T15:33:45Z</time>
      </trkpt>
      <trkpt lat="46.58143" lon="5.72658">
        <ele>502</ele>
        <time>2022-02-28T15:33:46Z</time>
      </trkpt>
      <trkpt lat="46.58141" lon="5.72666">
        <ele>502.2</ele>
        <time>2022-02-28T15:33:47Z</time>
      </trkpt>
      <trkpt lat="46.58139" lon="5.72673">
        <ele>502.2</ele>
        <time>2022-02-28T15:33:48Z</time>
      </trkpt>
      <trkpt lat="46.58137" lon="5.7268">
        <ele>502.4</ele>
        <time>2022-02-28T15:33:49Z</time>
      </trkpt>
      <trkpt lat="46.58136" lon="5.72687">
        <ele>502.4</ele>
        <time>2022-02-28T15:33:50Z</time>
      </trkpt>
      <trkpt lat="46.58134" lon="5.72693">
        <ele>502.8</ele>
        <time>2022-02-28T15:33:51Z</time>
      </trkpt>
      <trkpt lat="46.58132" lon="5.727">
        <ele>502.8</ele>
        <time>2022-02-28T15:33:52Z</time>
      </trkpt>
      <trkpt lat="46.58131" lon="5.72706">
        <ele>503.2</ele>
        <time>2022-02-28T15:33:53Z</time>
      </trkpt>
      <trkpt lat="46.58129" lon="5.72712">
        <ele>503.2</ele>
        <time>2022-02-28T15:33:54Z</time>
      </trkpt>
      <trkpt lat="46.58128" lon="5.72718">
        <ele>503.4</ele>
        <time>2022-02-28T15:33:55Z</time>
      </trkpt>
      <trkpt lat="46.58127" lon="5.72724">
        <ele>503.4</ele>
        <time>2022-02-28T15:33:56Z</time>
      </trkpt>
      <trkpt lat="46.58126" lon="5.72729">
        <ele>503.8</ele>
        <time>2022-02-28T15:33:57Z</time>
      </trkpt>
      <trkpt lat="46.58124" lon="5.72735">
        <ele>503.8</ele>
        <time>2022-02-28T15:33:58Z</time>
      </trkpt>
      <trkpt lat="46.58123" lon="5.7274">
        <ele>504</ele>
        <time>2022-02-28T15:33:59Z</time>
      </trkpt>
      <trkpt lat="46.58122" lon="5.72745">
        <ele>504.2</ele>
        <time>2022-02-28T15:34:00Z</time>
      </trkpt>
      <trkpt lat="46.58121" lon="5.7275">
        <ele>504.4</ele>
        <time>2022-02-28T15:34:01Z</time>
      </trkpt>
      <trkpt lat="46.58119" lon="5.72755">
        <ele>504.4</ele>
        <time>2022-02-28T15:34:02Z</time>
      </trkpt>
      <trkpt lat="46.58118" lon="5.7276">
        <ele>504.8</ele>
        <time>2022-02-28T15:34:03Z</time>
      </trkpt>
      <trkpt lat="46.58117" lon="5.72764">
        <ele>504.8</ele>
        <time>2022-02-28T15:34:04Z</time>
      </trkpt>
      <trkpt lat="46.58116" lon="5.72769">
        <ele>505.2</ele>
        <time>2022-02-28T15:34:05Z</time>
      </trkpt>
      <trkpt lat="46.58115" lon="5.72773">
        <ele>505.2</ele>
        <time>2022-02-28T15:34:06Z</time>
      </trkpt>
      <trkpt lat="46.58114" lon="5.72778">
        <ele>505.6</ele>
        <time>2022-02-28T15:34:07Z</time>
      </trkpt>
      <trkpt lat="46.58113" lon="5.72783">
        <ele>505.6</ele>
        <time>2022-02-28T15:34:08Z</time>
      </trkpt>
      <trkpt lat="46.58111" lon="5.72787">
        <ele>506</ele>
        <time>2022-02-28T15:34:09Z</time>
      </trkpt>
      <trkpt lat="46.5811" lon="5.72792">
        <ele>506.2</ele>
        <time>2022-02-28T15:34:10Z</time>
      </trkpt>
      <trkpt lat="46.58109" lon="5.72797">
        <ele>506.4</ele>
        <time>2022-02-28T15:34:11Z</time>
      </trkpt>
      <trkpt lat="46.58109" lon="5.72802">
        <ele>506.4</ele>
        <time>2022-02-28T15:34:12Z</time>
      </trkpt>
      <trkpt lat="46.58108" lon="5.72806">
        <ele>506.6</ele>
        <time>2022-02-28T15:34:13Z</time>
      </trkpt>
      <trkpt lat="46.58107" lon="5.72811">
        <ele>506.6</ele>
        <time>2022-02-28T15:34:14Z</time>
      </trkpt>
      <trkpt lat="46.58106" lon="5.72815">
        <ele>507</ele>
        <time>2022-02-28T15:34:15Z</time>
      </trkpt>
      <trkpt lat="46.58105" lon="5.7282">
        <ele>507.2</ele>
        <time>2022-02-28T15:34:16Z</time>
      </trkpt>
      <trkpt lat="46.58105" lon="5.72824">
        <ele>507.6</ele>
        <time>2022-02-28T15:34:17Z</time>
      </trkpt>
      <trkpt lat="46.58103" lon="5.72828">
        <ele>507.8</ele>
        <time>2022-02-28T15:34:18Z</time>
      </trkpt>
      <trkpt lat="46.58102" lon="5.72832">
        <ele>508.2</ele>
        <time>2022-02-28T15:34:19Z</time>
      </trkpt>
      <trkpt lat="46.58101" lon="5.72836">
        <ele>508.4</ele>
        <time>2022-02-28T15:34:20Z</time>
      </trkpt>
      <trkpt lat="46.581" lon="5.7284">
        <ele>508.6</ele>
        <time>2022-02-28T15:34:21Z</time>
      </trkpt>
      <trkpt lat="46.58099" lon="5.72843">
        <ele>508.8</ele>
        <time>2022-02-28T15:34:22Z</time>
      </trkpt>
      <trkpt lat="46.58098" lon="5.72847">
        <ele>509</ele>
        <time>2022-02-28T15:34:23Z</time>
      </trkpt>
      <trkpt lat="46.58097" lon="5.72851">
        <ele>509.2</ele>
        <time>2022-02-28T15:34:24Z</time>
      </trkpt>
      <trkpt lat="46.58096" lon="5.72855">
        <ele>509.4</ele>
        <time>2022-02-28T15:34:25Z</time>
      </trkpt>
      <trkpt lat="46.58095" lon="5.72859">
        <ele>509.6</ele>
        <time>2022-02-28T15:34:26Z</time>
      </trkpt>
      <trkpt lat="46.58094" lon="5.72863">
        <ele>509.6</ele>
        <time>2022-02-28T15:34:27Z</time>
      </trkpt>
      <trkpt lat="46.58094" lon="5.72867">
        <ele>510</ele>
        <time>2022-02-28T15:34:28Z</time>
      </trkpt>
      <trkpt lat="46.58093" lon="5.72871">
        <ele>510</ele>
        <time>2022-02-28T15:34:29Z</time>
      </trkpt>
      <trkpt lat="46.58092" lon="5.72875">
        <ele>510.2</ele>
        <time>2022-02-28T15:34:30Z</time>
      </trkpt>
      <trkpt lat="46.58091" lon="5.72879">
        <ele>510.2</ele>
        <time>2022-02-28T15:34:31Z</time>
      </trkpt>
      <trkpt lat="46.5809" lon="5.72883">
        <ele>510.4</ele>
        <time>2022-02-28T15:34:32Z</time>
      </trkpt>
      <trkpt lat="46.58089" lon="5.72887">
        <ele>510.4</ele>
        <time>2022-02-28T15:34:33Z</time>
      </trkpt>
      <trkpt lat="46.58088" lon="5.72891">
        <ele>510.8</ele>
        <time>2022-02-28T15:34:34Z</time>
      </trkpt>
      <trkpt lat="46.58087" lon="5.72895">
        <ele>510.8</ele>
        <time>2022-02-28T15:34:35Z</time>
      </trkpt>
      <trkpt lat="46.58086" lon="5.72899">
        <ele>511.2</ele>
        <time>2022-02-28T15:34:36Z</time>
      </trkpt>
      <trkpt lat="46.58085" lon="5.72903">
        <ele>511.2</ele>
        <time>2022-02-28T15:34:37Z</time>
      </trkpt>
      <trkpt lat="46.58085" lon="5.72907">
        <ele>511.2</ele>
        <time>2022-02-28T15:34:38Z</time>
      </trkpt>
      <trkpt lat="46.58084" lon="5.72911">
        <ele>511.4</ele>
        <time>2022-02-28T15:34:39Z</time>
      </trkpt>
      <trkpt lat="46.58083" lon="5.72915">
        <ele>511.4</ele>
        <time>2022-02-28T15:34:40Z</time>
      </trkpt>
      <trkpt lat="46.58082" lon="5.72919">
        <ele>511.6</ele>
        <time>2022-02-28T15:34:41Z</time>
      </trkpt>
      <trkpt lat="46.58081" lon="5.72923">
        <ele>511.6</ele>
        <time>2022-02-28T15:34:42Z</time>
      </trkpt>
      <trkpt lat="46.5808" lon="5.72928">
        <ele>512</ele>
        <time>2022-02-28T15:34:43Z</time>
      </trkpt>
      <trkpt lat="46.58079" lon="5.72932">
        <ele>512</ele>
        <time>2022-02-28T15:34:44Z</time>
      </trkpt>
      <trkpt lat="46.58078" lon="5.72936">
        <ele>512.2</ele>
        <time>2022-02-28T15:34:45Z</time>
      </trkpt>
      <trkpt lat="46.58077" lon="5.7294">
        <ele>512.2</ele>
        <time>2022-02-28T15:34:46Z</time>
      </trkpt>
      <trkpt lat="46.58076" lon="5.72944">
        <ele>512.4</ele>
        <time>2022-02-28T15:34:47Z</time>
      </trkpt>
      <trkpt lat="46.58075" lon="5.72948">
        <ele>512.4</ele>
        <time>2022-02-28T15:34:48Z</time>
      </trkpt>
      <trkpt lat="46.58075" lon="5.72952">
        <ele>512.6</ele>
        <time>2022-02-28T15:34:49Z</time>
      </trkpt>
      <trkpt lat="46.58074" lon="5.72956">
        <ele>512.6</ele>
        <time>2022-02-28T15:34:50Z</time>
      </trkpt>
      <trkpt lat="46.58073" lon="5.7296">
        <ele>513</ele>
        <time>2022-02-28T15:34:51Z</time>
      </trkpt>
      <trkpt lat="46.58073" lon="5.72964">
        <ele>513</ele>
        <time>2022-02-28T15:34:52Z</time>
      </trkpt>
      <trkpt lat="46.58072" lon="5.72968">
        <ele>513.2</ele>
        <time>2022-02-28T15:34:53Z</time>
      </trkpt>
      <trkpt lat="46.58071" lon="5.72972">
        <ele>513.2</ele>
        <time>2022-02-28T15:34:54Z</time>
      </trkpt>
      <trkpt lat="46.5807" lon="5.72975">
        <ele>513.6</ele>
        <time>2022-02-28T15:34:55Z</time>
      </trkpt>
      <trkpt lat="46.58069" lon="5.72979">
        <ele>513.6</ele>
        <time>2022-02-28T15:34:56Z</time>
      </trkpt>
      <trkpt lat="46.58069" lon="5.72983">
        <ele>513.8</ele>
        <time>2022-02-28T15:34:57Z</time>
      </trkpt>
      <trkpt lat="46.58068" lon="5.72987">
        <ele>513.8</ele>
        <time>2022-02-28T15:34:58Z</time>
      </trkpt>
      <trkpt lat="46.58067" lon="5.7299">
        <ele>514</ele>
        <time>2022-02-28T15:34:59Z</time>
      </trkpt>
      <trkpt lat="46.58066" lon="5.72993">
        <ele>514</ele>
        <time>2022-02-28T15:35:00Z</time>
      </trkpt>
      <trkpt lat="46.58064" lon="5.72996">
        <ele>514.4</ele>
        <time>2022-02-28T15:35:01Z</time>
      </trkpt>
      <trkpt lat="46.58064" lon="5.73">
        <ele>514.4</ele>
        <time>2022-02-28T15:35:02Z</time>
      </trkpt>
      <trkpt lat="46.58063" lon="5.73003">
        <ele>514.6</ele>
        <time>2022-02-28T15:35:03Z</time>
      </trkpt>
      <trkpt lat="46.58063" lon="5.73007">
        <ele>514.6</ele>
        <time>2022-02-28T15:35:04Z</time>
      </trkpt>
      <trkpt lat="46.58062" lon="5.73011">
        <ele>515</ele>
        <time>2022-02-28T15:35:05Z</time>
      </trkpt>
      <trkpt lat="46.58062" lon="5.73014">
        <ele>515</ele>
        <time>2022-02-28T15:35:06Z</time>
      </trkpt>
      <trkpt lat="46.58061" lon="5.73018">
        <ele>515.2</ele>
        <time>2022-02-28T15:35:07Z</time>
      </trkpt>
      <trkpt lat="46.5806" lon="5.73021">
        <ele>515.2</ele>
        <time>2022-02-28T15:35:08Z</time>
      </trkpt>
      <trkpt lat="46.58059" lon="5.73025">
        <ele>515.6</ele>
        <time>2022-02-28T15:35:09Z</time>
      </trkpt>
      <trkpt lat="46.58058" lon="5.73029">
        <ele>515.6</ele>
        <time>2022-02-28T15:35:10Z</time>
      </trkpt>
      <trkpt lat="46.58058" lon="5.73033">
        <ele>515.8</ele>
        <time>2022-02-28T15:35:11Z</time>
      </trkpt>
      <trkpt lat="46.58057" lon="5.73037">
        <ele>515.8</ele>
        <time>2022-02-28T15:35:12Z</time>
      </trkpt>
      <trkpt lat="46.58056" lon="5.73041">
        <ele>516.2</ele>
        <time>2022-02-28T15:35:13Z</time>
      </trkpt>
      <trkpt lat="46.58055" lon="5.73045">
        <ele>516.2</ele>
        <time>2022-02-28T15:35:14Z</time>
      </trkpt>
      <trkpt lat="46.58053" lon="5.7305">
        <ele>516.4</ele>
        <time>2022-02-28T15:35:15Z</time>
      </trkpt>
      <trkpt lat="46.58053" lon="5.73052">
        <ele>516.4</ele>
        <time>2022-02-28T15:35:16Z</time>
      </trkpt>
      <trkpt lat="46.58052" lon="5.73056">
        <ele>516.8</ele>
        <time>2022-02-28T15:35:17Z</time>
      </trkpt>
      <trkpt lat="46.58051" lon="5.7306">
        <ele>516.8</ele>
        <time>2022-02-28T15:35:18Z</time>
      </trkpt>
      <trkpt lat="46.5805" lon="5.73064">
        <ele>517</ele>
        <time>2022-02-28T15:35:19Z</time>
      </trkpt>
      <trkpt lat="46.58049" lon="5.73067">
        <ele>517</ele>
        <time>2022-02-28T15:35:20Z</time>
      </trkpt>
      <trkpt lat="46.58048" lon="5.73071">
        <ele>517</ele>
        <time>2022-02-28T15:35:21Z</time>
      </trkpt>
      <trkpt lat="46.58047" lon="5.73074">
        <ele>517.2</ele>
        <time>2022-02-28T15:35:22Z</time>
      </trkpt>
      <trkpt lat="46.58046" lon="5.73078">
        <ele>517.2</ele>
        <time>2022-02-28T15:35:23Z</time>
      </trkpt>
      <trkpt lat="46.58045" lon="5.73082">
        <ele>517.6</ele>
        <time>2022-02-28T15:35:24Z</time>
      </trkpt>
      <trkpt lat="46.58044" lon="5.73085">
        <ele>517.8</ele>
        <time>2022-02-28T15:35:25Z</time>
      </trkpt>
      <trkpt lat="46.58043" lon="5.73089">
        <ele>518.2</ele>
        <time>2022-02-28T15:35:26Z</time>
      </trkpt>
      <trkpt lat="46.58042" lon="5.73092">
        <ele>518.2</ele>
        <time>2022-02-28T15:35:27Z</time>
      </trkpt>
      <trkpt lat="46.58041" lon="5.73096">
        <ele>518.4</ele>
        <time>2022-02-28T15:35:28Z</time>
      </trkpt>
      <trkpt lat="46.5804" lon="5.731">
        <ele>518.4</ele>
        <time>2022-02-28T15:35:29Z</time>
      </trkpt>
      <trkpt lat="46.58039" lon="5.73103">
        <ele>518.8</ele>
        <time>2022-02-28T15:35:30Z</time>
      </trkpt>
      <trkpt lat="46.58037" lon="5.73107">
        <ele>518.8</ele>
        <time>2022-02-28T15:35:31Z</time>
      </trkpt>
      <trkpt lat="46.58036" lon="5.7311">
        <ele>519.2</ele>
        <time>2022-02-28T15:35:32Z</time>
      </trkpt>
      <trkpt lat="46.58035" lon="5.73114">
        <ele>519.2</ele>
        <time>2022-02-28T15:35:33Z</time>
      </trkpt>
      <trkpt lat="46.58034" lon="5.73117">
        <ele>519.4</ele>
        <time>2022-02-28T15:35:34Z</time>
      </trkpt>
      <trkpt lat="46.58032" lon="5.73121">
        <ele>519.4</ele>
        <time>2022-02-28T15:35:35Z</time>
      </trkpt>
      <trkpt lat="46.58031" lon="5.73125">
        <ele>519.8</ele>
        <time>2022-02-28T15:35:36Z</time>
      </trkpt>
      <trkpt lat="46.5803" lon="5.73129">
        <ele>519.8</ele>
        <time>2022-02-28T15:35:37Z</time>
      </trkpt>
      <trkpt lat="46.58029" lon="5.73132">
        <ele>520.2</ele>
        <time>2022-02-28T15:35:38Z</time>
      </trkpt>
      <trkpt lat="46.58028" lon="5.73136">
        <ele>520.4</ele>
        <time>2022-02-28T15:35:39Z</time>
      </trkpt>
      <trkpt lat="46.58026" lon="5.7314">
        <ele>520.8</ele>
        <time>2022-02-28T15:35:40Z</time>
      </trkpt>
      <trkpt lat="46.58025" lon="5.73144">
        <ele>521</ele>
        <time>2022-02-28T15:35:41Z</time>
      </trkpt>
      <trkpt lat="46.58024" lon="5.73147">
        <ele>521.2</ele>
        <time>2022-02-28T15:35:42Z</time>
      </trkpt>
      <trkpt lat="46.58023" lon="5.73151">
        <ele>521.4</ele>
        <time>2022-02-28T15:35:43Z</time>
      </trkpt>
      <trkpt lat="46.58022" lon="5.73154">
        <ele>521.6</ele>
        <time>2022-02-28T15:35:44Z</time>
      </trkpt>
      <trkpt lat="46.5802" lon="5.73158">
        <ele>521.8</ele>
        <time>2022-02-28T15:35:45Z</time>
      </trkpt>
      <trkpt lat="46.58019" lon="5.73161">
        <ele>522</ele>
        <time>2022-02-28T15:35:46Z</time>
      </trkpt>
      <trkpt lat="46.58017" lon="5.73165">
        <ele>522.4</ele>
        <time>2022-02-28T15:35:47Z</time>
      </trkpt>
      <trkpt lat="46.58016" lon="5.73169">
        <ele>522.6</ele>
        <time>2022-02-28T15:35:48Z</time>
      </trkpt>
      <trkpt lat="46.58015" lon="5.73172">
        <ele>522.8</ele>
        <time>2022-02-28T15:35:49Z</time>
      </trkpt>
      <trkpt lat="46.58014" lon="5.73176">
        <ele>523</ele>
        <time>2022-02-28T15:35:50Z</time>
      </trkpt>
      <trkpt lat="46.58013" lon="5.73179">
        <ele>523</ele>
        <time>2022-02-28T15:35:51Z</time>
      </trkpt>
      <trkpt lat="46.58011" lon="5.73183">
        <ele>523.4</ele>
        <time>2022-02-28T15:35:52Z</time>
      </trkpt>
      <trkpt lat="46.5801" lon="5.73186">
        <ele>523.6</ele>
        <time>2022-02-28T15:35:53Z</time>
      </trkpt>
      <trkpt lat="46.58009" lon="5.7319">
        <ele>524</ele>
        <time>2022-02-28T15:35:54Z</time>
      </trkpt>
      <trkpt lat="46.58008" lon="5.73193">
        <ele>524.2</ele>
        <time>2022-02-28T15:35:55Z</time>
      </trkpt>
      <trkpt lat="46.58007" lon="5.73197">
        <ele>524.2</ele>
        <time>2022-02-28T15:35:56Z</time>
      </trkpt>
      <trkpt lat="46.58006" lon="5.732">
        <ele>524.6</ele>
        <time>2022-02-28T15:35:57Z</time>
      </trkpt>
      <trkpt lat="46.58005" lon="5.73203">
        <ele>524.8</ele>
        <time>2022-02-28T15:35:58Z</time>
      </trkpt>
      <trkpt lat="46.58003" lon="5.73206">
        <ele>525</ele>
        <time>2022-02-28T15:35:59Z</time>
      </trkpt>
      <trkpt lat="46.58002" lon="5.73209">
        <ele>525.2</ele>
        <time>2022-02-28T15:36:00Z</time>
      </trkpt>
      <trkpt lat="46.58001" lon="5.73212">
        <ele>525.2</ele>
        <time>2022-02-28T15:36:01Z</time>
      </trkpt>
      <trkpt lat="46.57999" lon="5.73215">
        <ele>525.2</ele>
        <time>2022-02-28T15:36:02Z</time>
      </trkpt>
      <trkpt lat="46.57998" lon="5.73218">
        <ele>525.8</ele>
        <time>2022-02-28T15:36:03Z</time>
      </trkpt>
      <trkpt lat="46.57996" lon="5.73221">
        <ele>526</ele>
        <time>2022-02-28T15:36:04Z</time>
      </trkpt>
      <trkpt lat="46.57995" lon="5.73225">
        <ele>526.2</ele>
        <time>2022-02-28T15:36:05Z</time>
      </trkpt>
      <trkpt lat="46.57993" lon="5.73228">
        <ele>526.6</ele>
        <time>2022-02-28T15:36:06Z</time>
      </trkpt>
      <trkpt lat="46.57992" lon="5.73231">
        <ele>526.8</ele>
        <time>2022-02-28T15:36:07Z</time>
      </trkpt>
      <trkpt lat="46.5799" lon="5.73235">
        <ele>527</ele>
        <time>2022-02-28T15:36:08Z</time>
      </trkpt>
      <trkpt lat="46.57989" lon="5.73238">
        <ele>527</ele>
        <time>2022-02-28T15:36:09Z</time>
      </trkpt>
      <trkpt lat="46.57987" lon="5.73241">
        <ele>527.4</ele>
        <time>2022-02-28T15:36:10Z</time>
      </trkpt>
      <trkpt lat="46.57986" lon="5.73245">
        <ele>527.6</ele>
        <time>2022-02-28T15:36:11Z</time>
      </trkpt>
      <trkpt lat="46.57984" lon="5.73248">
        <ele>527.8</ele>
        <time>2022-02-28T15:36:12Z</time>
      </trkpt>
      <trkpt lat="46.57983" lon="5.73252">
        <ele>527.8</ele>
        <time>2022-02-28T15:36:13Z</time>
      </trkpt>
      <trkpt lat="46.57981" lon="5.73255">
        <ele>528</ele>
        <time>2022-02-28T15:36:14Z</time>
      </trkpt>
      <trkpt lat="46.5798" lon="5.73259">
        <ele>528.2</ele>
        <time>2022-02-28T15:36:15Z</time>
      </trkpt>
      <trkpt lat="46.57978" lon="5.73262">
        <ele>528.4</ele>
        <time>2022-02-28T15:36:16Z</time>
      </trkpt>
      <trkpt lat="46.57977" lon="5.73265">
        <ele>528.4</ele>
        <time>2022-02-28T15:36:17Z</time>
      </trkpt>
      <trkpt lat="46.57976" lon="5.73269">
        <ele>528.8</ele>
        <time>2022-02-28T15:36:18Z</time>
      </trkpt>
      <trkpt lat="46.57974" lon="5.73272">
        <ele>528.8</ele>
        <time>2022-02-28T15:36:19Z</time>
      </trkpt>
      <trkpt lat="46.57973" lon="5.73275">
        <ele>529</ele>
        <time>2022-02-28T15:36:20Z</time>
      </trkpt>
      <trkpt lat="46.57972" lon="5.73278">
        <ele>529</ele>
        <time>2022-02-28T15:36:21Z</time>
      </trkpt>
      <trkpt lat="46.5797" lon="5.73281">
        <ele>529.2</ele>
        <time>2022-02-28T15:36:22Z</time>
      </trkpt>
      <trkpt lat="46.57969" lon="5.73284">
        <ele>529.2</ele>
        <time>2022-02-28T15:36:23Z</time>
      </trkpt>
      <trkpt lat="46.57967" lon="5.73287">
        <ele>529.6</ele>
        <time>2022-02-28T15:36:24Z</time>
      </trkpt>
      <trkpt lat="46.57965" lon="5.7329">
        <ele>529.6</ele>
        <time>2022-02-28T15:36:25Z</time>
      </trkpt>
      <trkpt lat="46.57964" lon="5.73293">
        <ele>529.8</ele>
        <time>2022-02-28T15:36:26Z</time>
      </trkpt>
      <trkpt lat="46.57962" lon="5.73296">
        <ele>529.8</ele>
        <time>2022-02-28T15:36:27Z</time>
      </trkpt>
      <trkpt lat="46.57961" lon="5.733">
        <ele>530</ele>
        <time>2022-02-28T15:36:28Z</time>
      </trkpt>
      <trkpt lat="46.57959" lon="5.73303">
        <ele>530</ele>
        <time>2022-02-28T15:36:29Z</time>
      </trkpt>
      <trkpt lat="46.57957" lon="5.73306">
        <ele>530</ele>
        <time>2022-02-28T15:36:30Z</time>
      </trkpt>
      <trkpt lat="46.57955" lon="5.73309">
        <ele>530.4</ele>
        <time>2022-02-28T15:36:31Z</time>
      </trkpt>
      <trkpt lat="46.57953" lon="5.73312">
        <ele>530.4</ele>
        <time>2022-02-28T15:36:32Z</time>
      </trkpt>
      <trkpt lat="46.57951" lon="5.73315">
        <ele>530.6</ele>
        <time>2022-02-28T15:36:33Z</time>
      </trkpt>
      <trkpt lat="46.57949" lon="5.73319">
        <ele>530.6</ele>
        <time>2022-02-28T15:36:34Z</time>
      </trkpt>
      <trkpt lat="46.57947" lon="5.73322">
        <ele>530.6</ele>
        <time>2022-02-28T15:36:35Z</time>
      </trkpt>
      <trkpt lat="46.57945" lon="5.73325">
        <ele>530.8</ele>
        <time>2022-02-28T15:36:36Z</time>
      </trkpt>
      <trkpt lat="46.57943" lon="5.73329">
        <ele>530.8</ele>
        <time>2022-02-28T15:36:37Z</time>
      </trkpt>
      <trkpt lat="46.57941" lon="5.73332">
        <ele>530.8</ele>
        <time>2022-02-28T15:36:38Z</time>
      </trkpt>
      <trkpt lat="46.5794" lon="5.73336">
        <ele>531.2</ele>
        <time>2022-02-28T15:36:39Z</time>
      </trkpt>
      <trkpt lat="46.57938" lon="5.73339">
        <ele>531.2</ele>
        <time>2022-02-28T15:36:40Z</time>
      </trkpt>
      <trkpt lat="46.57936" lon="5.73343">
        <ele>531.4</ele>
        <time>2022-02-28T15:36:41Z</time>
      </trkpt>
      <trkpt lat="46.57934" lon="5.73346">
        <ele>531.4</ele>
        <time>2022-02-28T15:36:42Z</time>
      </trkpt>
      <trkpt lat="46.57932" lon="5.73349">
        <ele>531.4</ele>
        <time>2022-02-28T15:36:43Z</time>
      </trkpt>
      <trkpt lat="46.5793" lon="5.73353">
        <ele>531.6</ele>
        <time>2022-02-28T15:36:44Z</time>
      </trkpt>
      <trkpt lat="46.57928" lon="5.73356">
        <ele>532</ele>
        <time>2022-02-28T15:36:45Z</time>
      </trkpt>
      <trkpt lat="46.57927" lon="5.73359">
        <ele>532</ele>
        <time>2022-02-28T15:36:46Z</time>
      </trkpt>
      <trkpt lat="46.57925" lon="5.73363">
        <ele>532.2</ele>
        <time>2022-02-28T15:36:47Z</time>
      </trkpt>
      <trkpt lat="46.57924" lon="5.73366">
        <ele>532.2</ele>
        <time>2022-02-28T15:36:48Z</time>
      </trkpt>
      <trkpt lat="46.57922" lon="5.7337">
        <ele>532.6</ele>
        <time>2022-02-28T15:36:49Z</time>
      </trkpt>
      <trkpt lat="46.57918" lon="5.73376">
        <ele>532.6</ele>
        <time>2022-02-28T15:36:50Z</time>
      </trkpt>
      <trkpt lat="46.57916" lon="5.73379">
        <ele>532.6</ele>
        <time>2022-02-28T15:36:51Z</time>
      </trkpt>
      <trkpt lat="46.57914" lon="5.73382">
        <ele>532.8</ele>
        <time>2022-02-28T15:36:52Z</time>
      </trkpt>
      <trkpt lat="46.57912" lon="5.73386">
        <ele>532.8</ele>
        <time>2022-02-28T15:36:53Z</time>
      </trkpt>
      <trkpt lat="46.57911" lon="5.73389">
        <ele>533</ele>
        <time>2022-02-28T15:36:54Z</time>
      </trkpt>
      <trkpt lat="46.57909" lon="5.73392">
        <ele>533</ele>
        <time>2022-02-28T15:36:55Z</time>
      </trkpt>
      <trkpt lat="46.57907" lon="5.73395">
        <ele>533.4</ele>
        <time>2022-02-28T15:36:56Z</time>
      </trkpt>
      <trkpt lat="46.57905" lon="5.73398">
        <ele>533.4</ele>
        <time>2022-02-28T15:36:57Z</time>
      </trkpt>
      <trkpt lat="46.57904" lon="5.73401">
        <ele>533.8</ele>
        <time>2022-02-28T15:36:58Z</time>
      </trkpt>
      <trkpt lat="46.57902" lon="5.73404">
        <ele>534</ele>
        <time>2022-02-28T15:36:59Z</time>
      </trkpt>
      <trkpt lat="46.579" lon="5.73407">
        <ele>534.2</ele>
        <time>2022-02-28T15:37:00Z</time>
      </trkpt>
      <trkpt lat="46.57899" lon="5.7341">
        <ele>534.2</ele>
        <time>2022-02-28T15:37:01Z</time>
      </trkpt>
      <trkpt lat="46.57897" lon="5.73412">
        <ele>534.6</ele>
        <time>2022-02-28T15:37:02Z</time>
      </trkpt>
      <trkpt lat="46.57895" lon="5.73415">
        <ele>534.6</ele>
        <time>2022-02-28T15:37:03Z</time>
      </trkpt>
      <trkpt lat="46.57893" lon="5.73418">
        <ele>535</ele>
        <time>2022-02-28T15:37:04Z</time>
      </trkpt>
      <trkpt lat="46.57892" lon="5.7342">
        <ele>535.2</ele>
        <time>2022-02-28T15:37:05Z</time>
      </trkpt>
      <trkpt lat="46.5789" lon="5.73423">
        <ele>535.4</ele>
        <time>2022-02-28T15:37:06Z</time>
      </trkpt>
      <trkpt lat="46.57889" lon="5.73426">
        <ele>535.8</ele>
        <time>2022-02-28T15:37:07Z</time>
      </trkpt>
      <trkpt lat="46.57888" lon="5.73429">
        <ele>535.8</ele>
        <time>2022-02-28T15:37:08Z</time>
      </trkpt>
      <trkpt lat="46.57886" lon="5.73431">
        <ele>536.2</ele>
        <time>2022-02-28T15:37:09Z</time>
      </trkpt>
      <trkpt lat="46.57885" lon="5.73434">
        <ele>536.2</ele>
        <time>2022-02-28T15:37:10Z</time>
      </trkpt>
      <trkpt lat="46.57885" lon="5.73434">
        <ele>536.4</ele>
        <time>2022-02-28T15:37:11Z</time>
      </trkpt>
      <trkpt lat="46.57883" lon="5.73436">
        <ele>536.4</ele>
        <time>2022-02-28T15:37:12Z</time>
      </trkpt>
      <trkpt lat="46.57882" lon="5.73439">
        <ele>536.8</ele>
        <time>2022-02-28T15:37:13Z</time>
      </trkpt>
      <trkpt lat="46.5788" lon="5.73441">
        <ele>536.8</ele>
        <time>2022-02-28T15:37:14Z</time>
      </trkpt>
      <trkpt lat="46.57879" lon="5.73444">
        <ele>537.2</ele>
        <time>2022-02-28T15:37:15Z</time>
      </trkpt>
      <trkpt lat="46.57877" lon="5.73447">
        <ele>537.2</ele>
        <time>2022-02-28T15:37:16Z</time>
      </trkpt>
      <trkpt lat="46.57875" lon="5.7345">
        <ele>537.6</ele>
        <time>2022-02-28T15:37:17Z</time>
      </trkpt>
      <trkpt lat="46.57873" lon="5.73452">
        <ele>537.6</ele>
        <time>2022-02-28T15:37:18Z</time>
      </trkpt>
      <trkpt lat="46.57872" lon="5.73455">
        <ele>538</ele>
        <time>2022-02-28T15:37:19Z</time>
      </trkpt>
      <trkpt lat="46.57871" lon="5.73457">
        <ele>538.2</ele>
        <time>2022-02-28T15:37:20Z</time>
      </trkpt>
      <trkpt lat="46.5787" lon="5.7346">
        <ele>538.4</ele>
        <time>2022-02-28T15:37:21Z</time>
      </trkpt>
      <trkpt lat="46.57868" lon="5.73462">
        <ele>538.4</ele>
        <time>2022-02-28T15:37:22Z</time>
      </trkpt>
      <trkpt lat="46.57867" lon="5.73465">
        <ele>538.8</ele>
        <time>2022-02-28T15:37:23Z</time>
      </trkpt>
      <trkpt lat="46.57866" lon="5.73467">
        <ele>538.8</ele>
        <time>2022-02-28T15:37:24Z</time>
      </trkpt>
      <trkpt lat="46.57865" lon="5.73469">
        <ele>539.2</ele>
        <time>2022-02-28T15:37:25Z</time>
      </trkpt>
      <trkpt lat="46.57863" lon="5.73472">
        <ele>539.2</ele>
        <time>2022-02-28T15:37:26Z</time>
      </trkpt>
      <trkpt lat="46.57862" lon="5.73474">
        <ele>539.6</ele>
        <time>2022-02-28T15:37:27Z</time>
      </trkpt>
      <trkpt lat="46.57861" lon="5.73477">
        <ele>539.8</ele>
        <time>2022-02-28T15:37:28Z</time>
      </trkpt>
      <trkpt lat="46.5786" lon="5.73479">
        <ele>539.8</ele>
        <time>2022-02-28T15:37:29Z</time>
      </trkpt>
      <trkpt lat="46.57858" lon="5.73482">
        <ele>540.2</ele>
        <time>2022-02-28T15:37:30Z</time>
      </trkpt>
      <trkpt lat="46.57857" lon="5.73484">
        <ele>540.2</ele>
        <time>2022-02-28T15:37:31Z</time>
      </trkpt>
      <trkpt lat="46.57855" lon="5.73486">
        <ele>540.4</ele>
        <time>2022-02-28T15:37:32Z</time>
      </trkpt>
      <trkpt lat="46.57854" lon="5.73488">
        <ele>540.6</ele>
        <time>2022-02-28T15:37:33Z</time>
      </trkpt>
      <trkpt lat="46.57852" lon="5.73491">
        <ele>540.6</ele>
        <time>2022-02-28T15:37:34Z</time>
      </trkpt>
      <trkpt lat="46.57851" lon="5.73493">
        <ele>541</ele>
        <time>2022-02-28T15:37:35Z</time>
      </trkpt>
      <trkpt lat="46.57849" lon="5.73494">
        <ele>541.2</ele>
        <time>2022-02-28T15:37:36Z</time>
      </trkpt>
      <trkpt lat="46.57848" lon="5.73496">
        <ele>541.6</ele>
        <time>2022-02-28T15:37:37Z</time>
      </trkpt>
      <trkpt lat="46.57847" lon="5.73498">
        <ele>541.6</ele>
        <time>2022-02-28T15:37:38Z</time>
      </trkpt>
      <trkpt lat="46.57846" lon="5.73501">
        <ele>541.8</ele>
        <time>2022-02-28T15:37:39Z</time>
      </trkpt>
      <trkpt lat="46.57845" lon="5.73503">
        <ele>542</ele>
        <time>2022-02-28T15:37:40Z</time>
      </trkpt>
      <trkpt lat="46.57843" lon="5.73505">
        <ele>542.4</ele>
        <time>2022-02-28T15:37:41Z</time>
      </trkpt>
      <trkpt lat="46.57842" lon="5.73507">
        <ele>542.4</ele>
        <time>2022-02-28T15:37:42Z</time>
      </trkpt>
      <trkpt lat="46.57841" lon="5.73509">
        <ele>542.6</ele>
        <time>2022-02-28T15:37:43Z</time>
      </trkpt>
      <trkpt lat="46.5784" lon="5.73511">
        <ele>543</ele>
        <time>2022-02-28T15:37:44Z</time>
      </trkpt>
      <trkpt lat="46.57838" lon="5.73514">
        <ele>543.2</ele>
        <time>2022-02-28T15:37:45Z</time>
      </trkpt>
      <trkpt lat="46.57837" lon="5.73516">
        <ele>543.2</ele>
        <time>2022-02-28T15:37:46Z</time>
      </trkpt>
      <trkpt lat="46.57836" lon="5.73519">
        <ele>543.4</ele>
        <time>2022-02-28T15:37:47Z</time>
      </trkpt>
      <trkpt lat="46.57835" lon="5.73521">
        <ele>543.6</ele>
        <time>2022-02-28T15:37:48Z</time>
      </trkpt>
      <trkpt lat="46.57834" lon="5.73523">
        <ele>543.6</ele>
        <time>2022-02-28T15:37:49Z</time>
      </trkpt>
      <trkpt lat="46.57832" lon="5.73526">
        <ele>544</ele>
        <time>2022-02-28T15:37:50Z</time>
      </trkpt>
      <trkpt lat="46.57831" lon="5.73528">
        <ele>544.2</ele>
        <time>2022-02-28T15:37:51Z</time>
      </trkpt>
      <trkpt lat="46.5783" lon="5.73531">
        <ele>544.4</ele>
        <time>2022-02-28T15:37:52Z</time>
      </trkpt>
      <trkpt lat="46.57829" lon="5.73533">
        <ele>544.4</ele>
        <time>2022-02-28T15:37:53Z</time>
      </trkpt>
      <trkpt lat="46.57828" lon="5.73535">
        <ele>544.8</ele>
        <time>2022-02-28T15:37:54Z</time>
      </trkpt>
      <trkpt lat="46.57826" lon="5.73537">
        <ele>545</ele>
        <time>2022-02-28T15:37:55Z</time>
      </trkpt>
      <trkpt lat="46.57825" lon="5.73539">
        <ele>545.2</ele>
        <time>2022-02-28T15:37:56Z</time>
      </trkpt>
      <trkpt lat="46.57823" lon="5.73542">
        <ele>545.6</ele>
        <time>2022-02-28T15:37:57Z</time>
      </trkpt>
      <trkpt lat="46.57822" lon="5.73544">
        <ele>545.6</ele>
        <time>2022-02-28T15:37:58Z</time>
      </trkpt>
      <trkpt lat="46.5782" lon="5.73547">
        <ele>546</ele>
        <time>2022-02-28T15:37:59Z</time>
      </trkpt>
      <trkpt lat="46.57819" lon="5.73549">
        <ele>546.2</ele>
        <time>2022-02-28T15:38:00Z</time>
      </trkpt>
      <trkpt lat="46.57818" lon="5.73552">
        <ele>546.2</ele>
        <time>2022-02-28T15:38:01Z</time>
      </trkpt>
      <trkpt lat="46.57816" lon="5.73554">
        <ele>546.6</ele>
        <time>2022-02-28T15:38:02Z</time>
      </trkpt>
      <trkpt lat="46.57815" lon="5.73556">
        <ele>546.6</ele>
        <time>2022-02-28T15:38:03Z</time>
      </trkpt>
      <trkpt lat="46.57814" lon="5.73559">
        <ele>547</ele>
        <time>2022-02-28T15:38:04Z</time>
      </trkpt>
      <trkpt lat="46.57812" lon="5.73561">
        <ele>547</ele>
        <time>2022-02-28T15:38:05Z</time>
      </trkpt>
      <trkpt lat="46.57811" lon="5.73563">
        <ele>547.6</ele>
        <time>2022-02-28T15:38:06Z</time>
      </trkpt>
      <trkpt lat="46.5781" lon="5.73566">
        <ele>547.8</ele>
        <time>2022-02-28T15:38:07Z</time>
      </trkpt>
      <trkpt lat="46.5781" lon="5.73568">
        <ele>548</ele>
        <time>2022-02-28T15:38:08Z</time>
      </trkpt>
      <trkpt lat="46.57809" lon="5.7357">
        <ele>548.2</ele>
        <time>2022-02-28T15:38:09Z</time>
      </trkpt>
      <trkpt lat="46.57807" lon="5.73573">
        <ele>548.2</ele>
        <time>2022-02-28T15:38:10Z</time>
      </trkpt>
      <trkpt lat="46.57806" lon="5.73575">
        <ele>548.6</ele>
        <time>2022-02-28T15:38:11Z</time>
      </trkpt>
      <trkpt lat="46.57806" lon="5.73577">
        <ele>548.6</ele>
        <time>2022-02-28T15:38:12Z</time>
      </trkpt>
      <trkpt lat="46.57805" lon="5.73579">
        <ele>548.8</ele>
        <time>2022-02-28T15:38:13Z</time>
      </trkpt>
      <trkpt lat="46.57804" lon="5.73582">
        <ele>549</ele>
        <time>2022-02-28T15:38:14Z</time>
      </trkpt>
      <trkpt lat="46.57803" lon="5.73584">
        <ele>549.2</ele>
        <time>2022-02-28T15:38:15Z</time>
      </trkpt>
      <trkpt lat="46.57802" lon="5.73586">
        <ele>549.2</ele>
        <time>2022-02-28T15:38:16Z</time>
      </trkpt>
      <trkpt lat="46.57801" lon="5.73588">
        <ele>549.6</ele>
        <time>2022-02-28T15:38:17Z</time>
      </trkpt>
      <trkpt lat="46.578" lon="5.73591">
        <ele>549.6</ele>
        <time>2022-02-28T15:38:18Z</time>
      </trkpt>
      <trkpt lat="46.57799" lon="5.73593">
        <ele>550</ele>
        <time>2022-02-28T15:38:19Z</time>
      </trkpt>
      <trkpt lat="46.57798" lon="5.73595">
        <ele>550</ele>
        <time>2022-02-28T15:38:20Z</time>
      </trkpt>
      <trkpt lat="46.57797" lon="5.73598">
        <ele>550.4</ele>
        <time>2022-02-28T15:38:21Z</time>
      </trkpt>
      <trkpt lat="46.57797" lon="5.736">
        <ele>550.4</ele>
        <time>2022-02-28T15:38:22Z</time>
      </trkpt>
      <trkpt lat="46.57796" lon="5.73603">
        <ele>550.8</ele>
        <time>2022-02-28T15:38:23Z</time>
      </trkpt>
      <trkpt lat="46.57795" lon="5.73605">
        <ele>550.8</ele>
        <time>2022-02-28T15:38:24Z</time>
      </trkpt>
      <trkpt lat="46.57794" lon="5.73608">
        <ele>551</ele>
        <time>2022-02-28T15:38:25Z</time>
      </trkpt>
      <trkpt lat="46.57793" lon="5.73611">
        <ele>551</ele>
        <time>2022-02-28T15:38:26Z</time>
      </trkpt>
      <trkpt lat="46.57792" lon="5.73613">
        <ele>551.4</ele>
        <time>2022-02-28T15:38:27Z</time>
      </trkpt>
      <trkpt lat="46.57791" lon="5.73615">
        <ele>551.4</ele>
        <time>2022-02-28T15:38:28Z</time>
      </trkpt>
      <trkpt lat="46.57789" lon="5.73618">
        <ele>551.8</ele>
        <time>2022-02-28T15:38:29Z</time>
      </trkpt>
      <trkpt lat="46.57788" lon="5.7362">
        <ele>551.8</ele>
        <time>2022-02-28T15:38:30Z</time>
      </trkpt>
      <trkpt lat="46.57787" lon="5.73623">
        <ele>552.2</ele>
        <time>2022-02-28T15:38:31Z</time>
      </trkpt>
      <trkpt lat="46.57786" lon="5.73625">
        <ele>552.4</ele>
        <time>2022-02-28T15:38:32Z</time>
      </trkpt>
      <trkpt lat="46.57785" lon="5.73628">
        <ele>552.6</ele>
        <time>2022-02-28T15:38:33Z</time>
      </trkpt>
      <trkpt lat="46.57785" lon="5.73631">
        <ele>552.8</ele>
        <time>2022-02-28T15:38:34Z</time>
      </trkpt>
      <trkpt lat="46.57784" lon="5.73634">
        <ele>552.8</ele>
        <time>2022-02-28T15:38:35Z</time>
      </trkpt>
      <trkpt lat="46.57783" lon="5.73636">
        <ele>553.2</ele>
        <time>2022-02-28T15:38:36Z</time>
      </trkpt>
      <trkpt lat="46.57781" lon="5.73638">
        <ele>553.2</ele>
        <time>2022-02-28T15:38:37Z</time>
      </trkpt>
      <trkpt lat="46.5778" lon="5.73641">
        <ele>553.4</ele>
        <time>2022-02-28T15:38:38Z</time>
      </trkpt>
      <trkpt lat="46.57779" lon="5.73644">
        <ele>553.4</ele>
        <time>2022-02-28T15:38:39Z</time>
      </trkpt>
      <trkpt lat="46.57778" lon="5.73646">
        <ele>553.8</ele>
        <time>2022-02-28T15:38:40Z</time>
      </trkpt>
      <trkpt lat="46.57777" lon="5.73649">
        <ele>554</ele>
        <time>2022-02-28T15:38:41Z</time>
      </trkpt>
      <trkpt lat="46.57777" lon="5.73653">
        <ele>554.4</ele>
        <time>2022-02-28T15:38:42Z</time>
      </trkpt>
      <trkpt lat="46.57777" lon="5.73656">
        <ele>554.4</ele>
        <time>2022-02-28T15:38:43Z</time>
      </trkpt>
      <trkpt lat="46.57776" lon="5.73659">
        <ele>554.6</ele>
        <time>2022-02-28T15:38:44Z</time>
      </trkpt>
      <trkpt lat="46.57776" lon="5.73661">
        <ele>554.6</ele>
        <time>2022-02-28T15:38:45Z</time>
      </trkpt>
      <trkpt lat="46.57774" lon="5.73664">
        <ele>555</ele>
        <time>2022-02-28T15:38:46Z</time>
      </trkpt>
      <trkpt lat="46.57773" lon="5.73667">
        <ele>555</ele>
        <time>2022-02-28T15:38:47Z</time>
      </trkpt>
      <trkpt lat="46.57772" lon="5.7367">
        <ele>555.4</ele>
        <time>2022-02-28T15:38:48Z</time>
      </trkpt>
      <trkpt lat="46.57771" lon="5.73673">
        <ele>555.4</ele>
        <time>2022-02-28T15:38:49Z</time>
      </trkpt>
      <trkpt lat="46.5777" lon="5.73676">
        <ele>555.8</ele>
        <time>2022-02-28T15:38:50Z</time>
      </trkpt>
      <trkpt lat="46.57768" lon="5.73679">
        <ele>555.8</ele>
        <time>2022-02-28T15:38:51Z</time>
      </trkpt>
      <trkpt lat="46.57767" lon="5.73683">
        <ele>556.2</ele>
        <time>2022-02-28T15:38:52Z</time>
      </trkpt>
      <trkpt lat="46.57766" lon="5.73686">
        <ele>556.4</ele>
        <time>2022-02-28T15:38:53Z</time>
      </trkpt>
      <trkpt lat="46.57765" lon="5.73689">
        <ele>556.4</ele>
        <time>2022-02-28T15:38:54Z</time>
      </trkpt>
      <trkpt lat="46.57764" lon="5.73692">
        <ele>556.6</ele>
        <time>2022-02-28T15:38:55Z</time>
      </trkpt>
      <trkpt lat="46.57763" lon="5.73695">
        <ele>556.8</ele>
        <time>2022-02-28T15:38:56Z</time>
      </trkpt>
      <trkpt lat="46.57762" lon="5.73698">
        <ele>556.8</ele>
        <time>2022-02-28T15:38:57Z</time>
      </trkpt>
      <trkpt lat="46.57761" lon="5.73701">
        <ele>557.2</ele>
        <time>2022-02-28T15:38:58Z</time>
      </trkpt>
      <trkpt lat="46.5776" lon="5.73704">
        <ele>557.6</ele>
        <time>2022-02-28T15:38:59Z</time>
      </trkpt>
      <trkpt lat="46.57759" lon="5.73708">
        <ele>557.6</ele>
        <time>2022-02-28T15:39:00Z</time>
      </trkpt>
      <trkpt lat="46.57759" lon="5.73711">
        <ele>557.8</ele>
        <time>2022-02-28T15:39:01Z</time>
      </trkpt>
      <trkpt lat="46.57757" lon="5.73714">
        <ele>557.8</ele>
        <time>2022-02-28T15:39:02Z</time>
      </trkpt>
      <trkpt lat="46.57756" lon="5.73717">
        <ele>558.2</ele>
        <time>2022-02-28T15:39:03Z</time>
      </trkpt>
      <trkpt lat="46.57755" lon="5.7372">
        <ele>558.2</ele>
        <time>2022-02-28T15:39:04Z</time>
      </trkpt>
      <trkpt lat="46.57753" lon="5.73723">
        <ele>558.6</ele>
        <time>2022-02-28T15:39:05Z</time>
      </trkpt>
      <trkpt lat="46.57752" lon="5.73726">
        <ele>558.8</ele>
        <time>2022-02-28T15:39:06Z</time>
      </trkpt>
      <trkpt lat="46.5775" lon="5.73729">
        <ele>558.8</ele>
        <time>2022-02-28T15:39:07Z</time>
      </trkpt>
      <trkpt lat="46.57749" lon="5.73732">
        <ele>559</ele>
        <time>2022-02-28T15:39:08Z</time>
      </trkpt>
      <trkpt lat="46.57747" lon="5.73735">
        <ele>559</ele>
        <time>2022-02-28T15:39:09Z</time>
      </trkpt>
      <trkpt lat="46.57746" lon="5.73738">
        <ele>559.4</ele>
        <time>2022-02-28T15:39:10Z</time>
      </trkpt>
      <trkpt lat="46.57744" lon="5.73741">
        <ele>559.4</ele>
        <time>2022-02-28T15:39:11Z</time>
      </trkpt>
      <trkpt lat="46.57742" lon="5.73744">
        <ele>559.8</ele>
        <time>2022-02-28T15:39:12Z</time>
      </trkpt>
      <trkpt lat="46.57741" lon="5.73747">
        <ele>559.8</ele>
        <time>2022-02-28T15:39:13Z</time>
      </trkpt>
      <trkpt lat="46.57739" lon="5.73749">
        <ele>560.4</ele>
        <time>2022-02-28T15:39:14Z</time>
      </trkpt>
      <trkpt lat="46.57737" lon="5.73752">
        <ele>560.4</ele>
        <time>2022-02-28T15:39:15Z</time>
      </trkpt>
      <trkpt lat="46.57736" lon="5.73755">
        <ele>560.6</ele>
        <time>2022-02-28T15:39:16Z</time>
      </trkpt>
      <trkpt lat="46.57734" lon="5.73757">
        <ele>560.6</ele>
        <time>2022-02-28T15:39:17Z</time>
      </trkpt>
      <trkpt lat="46.57732" lon="5.7376">
        <ele>560.6</ele>
        <time>2022-02-28T15:39:18Z</time>
      </trkpt>
      <trkpt lat="46.5773" lon="5.73762">
        <ele>561</ele>
        <time>2022-02-28T15:39:19Z</time>
      </trkpt>
      <trkpt lat="46.57728" lon="5.73764">
        <ele>561</ele>
        <time>2022-02-28T15:39:20Z</time>
      </trkpt>
      <trkpt lat="46.57726" lon="5.73767">
        <ele>561.2</ele>
        <time>2022-02-28T15:39:21Z</time>
      </trkpt>
      <trkpt lat="46.57725" lon="5.73769">
        <ele>561.2</ele>
        <time>2022-02-28T15:39:22Z</time>
      </trkpt>
      <trkpt lat="46.57723" lon="5.73772">
        <ele>561.6</ele>
        <time>2022-02-28T15:39:23Z</time>
      </trkpt>
      <trkpt lat="46.57721" lon="5.73774">
        <ele>561.6</ele>
        <time>2022-02-28T15:39:24Z</time>
      </trkpt>
      <trkpt lat="46.57719" lon="5.73776">
        <ele>561.6</ele>
        <time>2022-02-28T15:39:25Z</time>
      </trkpt>
      <trkpt lat="46.57717" lon="5.73778">
        <ele>561.6</ele>
        <time>2022-02-28T15:39:26Z</time>
      </trkpt>
      <trkpt lat="46.57715" lon="5.73779">
        <ele>561.8</ele>
        <time>2022-02-28T15:39:27Z</time>
      </trkpt>
      <trkpt lat="46.57713" lon="5.73781">
        <ele>561.8</ele>
        <time>2022-02-28T15:39:28Z</time>
      </trkpt>
      <trkpt lat="46.57711" lon="5.73783">
        <ele>562.2</ele>
        <time>2022-02-28T15:39:29Z</time>
      </trkpt>
      <trkpt lat="46.57709" lon="5.73785">
        <ele>562.2</ele>
        <time>2022-02-28T15:39:30Z</time>
      </trkpt>
      <trkpt lat="46.57707" lon="5.73787">
        <ele>562.4</ele>
        <time>2022-02-28T15:39:31Z</time>
      </trkpt>
      <trkpt lat="46.57705" lon="5.73789">
        <ele>562.6</ele>
        <time>2022-02-28T15:39:32Z</time>
      </trkpt>
      <trkpt lat="46.57703" lon="5.73791">
        <ele>562.6</ele>
        <time>2022-02-28T15:39:33Z</time>
      </trkpt>
      <trkpt lat="46.57701" lon="5.73793">
        <ele>563</ele>
        <time>2022-02-28T15:39:34Z</time>
      </trkpt>
      <trkpt lat="46.57699" lon="5.73794">
        <ele>563</ele>
        <time>2022-02-28T15:39:35Z</time>
      </trkpt>
      <trkpt lat="46.57697" lon="5.73795">
        <ele>563.2</ele>
        <time>2022-02-28T15:39:36Z</time>
      </trkpt>
      <trkpt lat="46.57694" lon="5.73797">
        <ele>563.6</ele>
        <time>2022-02-28T15:39:37Z</time>
      </trkpt>
      <trkpt lat="46.57692" lon="5.73798">
        <ele>563.8</ele>
        <time>2022-02-28T15:39:38Z</time>
      </trkpt>
      <trkpt lat="46.5769" lon="5.738">
        <ele>563.8</ele>
        <time>2022-02-28T15:39:39Z</time>
      </trkpt>
      <trkpt lat="46.57688" lon="5.73802">
        <ele>564</ele>
        <time>2022-02-28T15:39:40Z</time>
      </trkpt>
      <trkpt lat="46.57686" lon="5.73803">
        <ele>564</ele>
        <time>2022-02-28T15:39:41Z</time>
      </trkpt>
      <trkpt lat="46.57684" lon="5.73805">
        <ele>564.4</ele>
        <time>2022-02-28T15:39:42Z</time>
      </trkpt>
      <trkpt lat="46.57682" lon="5.73806">
        <ele>564.4</ele>
        <time>2022-02-28T15:39:43Z</time>
      </trkpt>
      <trkpt lat="46.5768" lon="5.73808">
        <ele>564.6</ele>
        <time>2022-02-28T15:39:44Z</time>
      </trkpt>
      <trkpt lat="46.57678" lon="5.7381">
        <ele>564.8</ele>
        <time>2022-02-28T15:39:45Z</time>
      </trkpt>
      <trkpt lat="46.57676" lon="5.73812">
        <ele>564.8</ele>
        <time>2022-02-28T15:39:46Z</time>
      </trkpt>
      <trkpt lat="46.57674" lon="5.73814">
        <ele>565.2</ele>
        <time>2022-02-28T15:39:47Z</time>
      </trkpt>
      <trkpt lat="46.57672" lon="5.73816">
        <ele>565.2</ele>
        <time>2022-02-28T15:39:48Z</time>
      </trkpt>
      <trkpt lat="46.57669" lon="5.73818">
        <ele>565.6</ele>
        <time>2022-02-28T15:39:49Z</time>
      </trkpt>
      <trkpt lat="46.57668" lon="5.73819">
        <ele>565.6</ele>
        <time>2022-02-28T15:39:50Z</time>
      </trkpt>
      <trkpt lat="46.57666" lon="5.73821">
        <ele>566</ele>
        <time>2022-02-28T15:39:51Z</time>
      </trkpt>
      <trkpt lat="46.57664" lon="5.73823">
        <ele>566</ele>
        <time>2022-02-28T15:39:52Z</time>
      </trkpt>
      <trkpt lat="46.57661" lon="5.73824">
        <ele>566.4</ele>
        <time>2022-02-28T15:39:53Z</time>
      </trkpt>
      <trkpt lat="46.57659" lon="5.73826">
        <ele>566.6</ele>
        <time>2022-02-28T15:39:54Z</time>
      </trkpt>
      <trkpt lat="46.57657" lon="5.73829">
        <ele>566.6</ele>
        <time>2022-02-28T15:39:55Z</time>
      </trkpt>
      <trkpt lat="46.57656" lon="5.73831">
        <ele>567</ele>
        <time>2022-02-28T15:39:56Z</time>
      </trkpt>
      <trkpt lat="46.57654" lon="5.73833">
        <ele>567.2</ele>
        <time>2022-02-28T15:39:57Z</time>
      </trkpt>
      <trkpt lat="46.57652" lon="5.73835">
        <ele>567.2</ele>
        <time>2022-02-28T15:39:58Z</time>
      </trkpt>
      <trkpt lat="46.57651" lon="5.73838">
        <ele>567.6</ele>
        <time>2022-02-28T15:39:59Z</time>
      </trkpt>
      <trkpt lat="46.57649" lon="5.7384">
        <ele>567.6</ele>
        <time>2022-02-28T15:40:00Z</time>
      </trkpt>
      <trkpt lat="46.57647" lon="5.73842">
        <ele>567.6</ele>
        <time>2022-02-28T15:40:01Z</time>
      </trkpt>
      <trkpt lat="46.57645" lon="5.73845">
        <ele>567.8</ele>
        <time>2022-02-28T15:40:02Z</time>
      </trkpt>
      <trkpt lat="46.57644" lon="5.73847">
        <ele>568</ele>
        <time>2022-02-28T15:40:03Z</time>
      </trkpt>
      <trkpt lat="46.57642" lon="5.7385">
        <ele>568</ele>
        <time>2022-02-28T15:40:04Z</time>
      </trkpt>
      <trkpt lat="46.5764" lon="5.73852">
        <ele>568.4</ele>
        <time>2022-02-28T15:40:05Z</time>
      </trkpt>
      <trkpt lat="46.57638" lon="5.73855">
        <ele>568.4</ele>
        <time>2022-02-28T15:40:06Z</time>
      </trkpt>
      <trkpt lat="46.57635" lon="5.73857">
        <ele>568.6</ele>
        <time>2022-02-28T15:40:07Z</time>
      </trkpt>
      <trkpt lat="46.57633" lon="5.7386">
        <ele>568.6</ele>
        <time>2022-02-28T15:40:08Z</time>
      </trkpt>
      <trkpt lat="46.57631" lon="5.73863">
        <ele>568.6</ele>
        <time>2022-02-28T15:40:09Z</time>
      </trkpt>
      <trkpt lat="46.57629" lon="5.73866">
        <ele>569</ele>
        <time>2022-02-28T15:40:10Z</time>
      </trkpt>
      <trkpt lat="46.57627" lon="5.73869">
        <ele>569</ele>
        <time>2022-02-28T15:40:11Z</time>
      </trkpt>
      <trkpt lat="46.57625" lon="5.73872">
        <ele>569.2</ele>
        <time>2022-02-28T15:40:12Z</time>
      </trkpt>
      <trkpt lat="46.57623" lon="5.73875">
        <ele>569.2</ele>
        <time>2022-02-28T15:40:13Z</time>
      </trkpt>
      <trkpt lat="46.5762" lon="5.73878">
        <ele>569.4</ele>
        <time>2022-02-28T15:40:14Z</time>
      </trkpt>
      <trkpt lat="46.57618" lon="5.7388">
        <ele>569.4</ele>
        <time>2022-02-28T15:40:15Z</time>
      </trkpt>
      <trkpt lat="46.57616" lon="5.73883">
        <ele>569.8</ele>
        <time>2022-02-28T15:40:16Z</time>
      </trkpt>
      <trkpt lat="46.57613" lon="5.73886">
        <ele>569.8</ele>
        <time>2022-02-28T15:40:17Z</time>
      </trkpt>
      <trkpt lat="46.57611" lon="5.73889">
        <ele>570</ele>
        <time>2022-02-28T15:40:18Z</time>
      </trkpt>
      <trkpt lat="46.57609" lon="5.73892">
        <ele>570</ele>
        <time>2022-02-28T15:40:19Z</time>
      </trkpt>
      <trkpt lat="46.57607" lon="5.73895">
        <ele>570.2</ele>
        <time>2022-02-28T15:40:20Z</time>
      </trkpt>
      <trkpt lat="46.57605" lon="5.73898">
        <ele>570.4</ele>
        <time>2022-02-28T15:40:21Z</time>
      </trkpt>
      <trkpt lat="46.57603" lon="5.73901">
        <ele>570.4</ele>
        <time>2022-02-28T15:40:22Z</time>
      </trkpt>
      <trkpt lat="46.57601" lon="5.73904">
        <ele>570.8</ele>
        <time>2022-02-28T15:40:23Z</time>
      </trkpt>
      <trkpt lat="46.57599" lon="5.73907">
        <ele>570.8</ele>
        <time>2022-02-28T15:40:24Z</time>
      </trkpt>
      <trkpt lat="46.57597" lon="5.7391">
        <ele>571.2</ele>
        <time>2022-02-28T15:40:25Z</time>
      </trkpt>
      <trkpt lat="46.57595" lon="5.73912">
        <ele>571.2</ele>
        <time>2022-02-28T15:40:26Z</time>
      </trkpt>
      <trkpt lat="46.57593" lon="5.73915">
        <ele>571.6</ele>
        <time>2022-02-28T15:40:27Z</time>
      </trkpt>
      <trkpt lat="46.57591" lon="5.73917">
        <ele>571.8</ele>
        <time>2022-02-28T15:40:28Z</time>
      </trkpt>
      <trkpt lat="46.57589" lon="5.73919">
        <ele>571.8</ele>
        <time>2022-02-28T15:40:29Z</time>
      </trkpt>
      <trkpt lat="46.57586" lon="5.73921">
        <ele>572.2</ele>
        <time>2022-02-28T15:40:30Z</time>
      </trkpt>
      <trkpt lat="46.57584" lon="5.73923">
        <ele>572.2</ele>
        <time>2022-02-28T15:40:31Z</time>
      </trkpt>
      <trkpt lat="46.57582" lon="5.73926">
        <ele>572.6</ele>
        <time>2022-02-28T15:40:32Z</time>
      </trkpt>
      <trkpt lat="46.57581" lon="5.73928">
        <ele>572.8</ele>
        <time>2022-02-28T15:40:33Z</time>
      </trkpt>
      <trkpt lat="46.57579" lon="5.73931">
        <ele>572.8</ele>
        <time>2022-02-28T15:40:34Z</time>
      </trkpt>
      <trkpt lat="46.57577" lon="5.73935">
        <ele>573.2</ele>
        <time>2022-02-28T15:40:35Z</time>
      </trkpt>
      <trkpt lat="46.57576" lon="5.73938">
        <ele>573.4</ele>
        <time>2022-02-28T15:40:36Z</time>
      </trkpt>
      <trkpt lat="46.57574" lon="5.73941">
        <ele>573.6</ele>
        <time>2022-02-28T15:40:37Z</time>
      </trkpt>
      <trkpt lat="46.57572" lon="5.73944">
        <ele>573.8</ele>
        <time>2022-02-28T15:40:38Z</time>
      </trkpt>
      <trkpt lat="46.5757" lon="5.73946">
        <ele>574.2</ele>
        <time>2022-02-28T15:40:39Z</time>
      </trkpt>
      <trkpt lat="46.57568" lon="5.73949">
        <ele>574.4</ele>
        <time>2022-02-28T15:40:40Z</time>
      </trkpt>
      <trkpt lat="46.57566" lon="5.73952">
        <ele>574.4</ele>
        <time>2022-02-28T15:40:41Z</time>
      </trkpt>
      <trkpt lat="46.57564" lon="5.73954">
        <ele>574.6</ele>
        <time>2022-02-28T15:40:42Z</time>
      </trkpt>
      <trkpt lat="46.57562" lon="5.73956">
        <ele>574.6</ele>
        <time>2022-02-28T15:40:43Z</time>
      </trkpt>
      <trkpt lat="46.5756" lon="5.73959">
        <ele>575</ele>
        <time>2022-02-28T15:40:44Z</time>
      </trkpt>
      <trkpt lat="46.57558" lon="5.73961">
        <ele>575.2</ele>
        <time>2022-02-28T15:40:45Z</time>
      </trkpt>
      <trkpt lat="46.57556" lon="5.73963">
        <ele>575.2</ele>
        <time>2022-02-28T15:40:46Z</time>
      </trkpt>
      <trkpt lat="46.57554" lon="5.73965">
        <ele>575.6</ele>
        <time>2022-02-28T15:40:47Z</time>
      </trkpt>
      <trkpt lat="46.57552" lon="5.73968">
        <ele>575.6</ele>
        <time>2022-02-28T15:40:48Z</time>
      </trkpt>
      <trkpt lat="46.5755" lon="5.7397">
        <ele>576</ele>
        <time>2022-02-28T15:40:49Z</time>
      </trkpt>
      <trkpt lat="46.57549" lon="5.73972">
        <ele>576</ele>
        <time>2022-02-28T15:40:50Z</time>
      </trkpt>
      <trkpt lat="46.57547" lon="5.73975">
        <ele>576.2</ele>
        <time>2022-02-28T15:40:51Z</time>
      </trkpt>
      <trkpt lat="46.57545" lon="5.73977">
        <ele>576.2</ele>
        <time>2022-02-28T15:40:52Z</time>
      </trkpt>
      <trkpt lat="46.57543" lon="5.7398">
        <ele>576.6</ele>
        <time>2022-02-28T15:40:53Z</time>
      </trkpt>
      <trkpt lat="46.57542" lon="5.73983">
        <ele>576.6</ele>
        <time>2022-02-28T15:40:54Z</time>
      </trkpt>
      <trkpt lat="46.5754" lon="5.73986">
        <ele>576.8</ele>
        <time>2022-02-28T15:40:55Z</time>
      </trkpt>
      <trkpt lat="46.57535" lon="5.73991">
        <ele>576.8</ele>
        <time>2022-02-28T15:40:56Z</time>
      </trkpt>
      <trkpt lat="46.57533" lon="5.73993">
        <ele>577.2</ele>
        <time>2022-02-28T15:40:57Z</time>
      </trkpt>
      <trkpt lat="46.57531" lon="5.73995">
        <ele>577.2</ele>
        <time>2022-02-28T15:40:58Z</time>
      </trkpt>
      <trkpt lat="46.57529" lon="5.73998">
        <ele>577.4</ele>
        <time>2022-02-28T15:40:59Z</time>
      </trkpt>
      <trkpt lat="46.57528" lon="5.74">
        <ele>577.4</ele>
        <time>2022-02-28T15:41:00Z</time>
      </trkpt>
      <trkpt lat="46.57526" lon="5.74002">
        <ele>577.4</ele>
        <time>2022-02-28T15:41:01Z</time>
      </trkpt>
      <trkpt lat="46.57524" lon="5.74005">
        <ele>577.6</ele>
        <time>2022-02-28T15:41:02Z</time>
      </trkpt>
      <trkpt lat="46.57521" lon="5.74007">
        <ele>577.6</ele>
        <time>2022-02-28T15:41:03Z</time>
      </trkpt>
      <trkpt lat="46.57519" lon="5.7401">
        <ele>577.6</ele>
        <time>2022-02-28T15:41:04Z</time>
      </trkpt>
      <trkpt lat="46.57516" lon="5.74012">
        <ele>577.6</ele>
        <time>2022-02-28T15:41:05Z</time>
      </trkpt>
      <trkpt lat="46.57514" lon="5.74016">
        <ele>577.6</ele>
        <time>2022-02-28T15:41:06Z</time>
      </trkpt>
      <trkpt lat="46.57511" lon="5.74019">
        <ele>577.6</ele>
        <time>2022-02-28T15:41:07Z</time>
      </trkpt>
      <trkpt lat="46.57508" lon="5.74023">
        <ele>577.2</ele>
        <time>2022-02-28T15:41:08Z</time>
      </trkpt>
      <trkpt lat="46.57505" lon="5.74027">
        <ele>577.2</ele>
        <time>2022-02-28T15:41:09Z</time>
      </trkpt>
      <trkpt lat="46.57502" lon="5.74031">
        <ele>577</ele>
        <time>2022-02-28T15:41:10Z</time>
      </trkpt>
      <trkpt lat="46.57498" lon="5.74035">
        <ele>577</ele>
        <time>2022-02-28T15:41:11Z</time>
      </trkpt>
      <trkpt lat="46.57494" lon="5.7404">
        <ele>577</ele>
        <time>2022-02-28T15:41:12Z</time>
      </trkpt>
      <trkpt lat="46.5749" lon="5.74044">
        <ele>576.8</ele>
        <time>2022-02-28T15:41:13Z</time>
      </trkpt>
      <trkpt lat="46.57486" lon="5.74049">
        <ele>576.8</ele>
        <time>2022-02-28T15:41:14Z</time>
      </trkpt>
      <trkpt lat="46.57481" lon="5.74055">
        <ele>576.4</ele>
        <time>2022-02-28T15:41:15Z</time>
      </trkpt>
      <trkpt lat="46.57477" lon="5.7406">
        <ele>576.2</ele>
        <time>2022-02-28T15:41:16Z</time>
      </trkpt>
      <trkpt lat="46.57472" lon="5.74066">
        <ele>576</ele>
        <time>2022-02-28T15:41:17Z</time>
      </trkpt>
      <trkpt lat="46.57467" lon="5.74072">
        <ele>576</ele>
        <time>2022-02-28T15:41:18Z</time>
      </trkpt>
      <trkpt lat="46.57462" lon="5.74079">
        <ele>575.4</ele>
        <time>2022-02-28T15:41:19Z</time>
      </trkpt>
      <trkpt lat="46.57456" lon="5.74086">
        <ele>575.2</ele>
        <time>2022-02-28T15:41:20Z</time>
      </trkpt>
      <trkpt lat="46.5745" lon="5.74093">
        <ele>574.8</ele>
        <time>2022-02-28T15:41:21Z</time>
      </trkpt>
      <trkpt lat="46.5745" lon="5.74093">
        <ele>574.4</ele>
        <time>2022-02-28T15:41:22Z</time>
      </trkpt>
      <trkpt lat="46.57445" lon="5.74101">
        <ele>574.2</ele>
        <time>2022-02-28T15:41:23Z</time>
      </trkpt>
      <trkpt lat="46.57439" lon="5.7411">
        <ele>573.8</ele>
        <time>2022-02-28T15:41:24Z</time>
      </trkpt>
      <trkpt lat="46.57433" lon="5.74119">
        <ele>573.4</ele>
        <time>2022-02-28T15:41:25Z</time>
      </trkpt>
      <trkpt lat="46.57427" lon="5.74129">
        <ele>573</ele>
        <time>2022-02-28T15:41:26Z</time>
      </trkpt>
      <trkpt lat="46.57423" lon="5.74139">
        <ele>572.6</ele>
        <time>2022-02-28T15:41:27Z</time>
      </trkpt>
      <trkpt lat="46.57418" lon="5.74151">
        <ele>572.2</ele>
        <time>2022-02-28T15:41:28Z</time>
      </trkpt>
      <trkpt lat="46.57414" lon="5.74163">
        <ele>571.8</ele>
        <time>2022-02-28T15:41:29Z</time>
      </trkpt>
      <trkpt lat="46.57411" lon="5.74177">
        <ele>571.4</ele>
        <time>2022-02-28T15:41:30Z</time>
      </trkpt>
      <trkpt lat="46.57407" lon="5.74192">
        <ele>571</ele>
        <time>2022-02-28T15:41:31Z</time>
      </trkpt>
      <trkpt lat="46.57405" lon="5.74206">
        <ele>570.6</ele>
        <time>2022-02-28T15:41:32Z</time>
      </trkpt>
      <trkpt lat="46.57403" lon="5.7422">
        <ele>570.2</ele>
        <time>2022-02-28T15:41:33Z</time>
      </trkpt>
      <trkpt lat="46.57402" lon="5.74233">
        <ele>569.8</ele>
        <time>2022-02-28T15:41:34Z</time>
      </trkpt>
      <trkpt lat="46.574" lon="5.74247">
        <ele>569.2</ele>
        <time>2022-02-28T15:41:35Z</time>
      </trkpt>
      <trkpt lat="46.57398" lon="5.74262">
        <ele>568.8</ele>
        <time>2022-02-28T15:41:36Z</time>
      </trkpt>
      <trkpt lat="46.57397" lon="5.74277">
        <ele>568.4</ele>
        <time>2022-02-28T15:41:37Z</time>
      </trkpt>
      <trkpt lat="46.57396" lon="5.74292">
        <ele>567.8</ele>
        <time>2022-02-28T15:41:38Z</time>
      </trkpt>
      <trkpt lat="46.57394" lon="5.74308">
        <ele>567</ele>
        <time>2022-02-28T15:41:39Z</time>
      </trkpt>
      <trkpt lat="46.57393" lon="5.74324">
        <ele>566.4</ele>
        <time>2022-02-28T15:41:40Z</time>
      </trkpt>
      <trkpt lat="46.57393" lon="5.7434">
        <ele>565.6</ele>
        <time>2022-02-28T15:41:41Z</time>
      </trkpt>
      <trkpt lat="46.57392" lon="5.74358">
        <ele>565.2</ele>
        <time>2022-02-28T15:41:42Z</time>
      </trkpt>
      <trkpt lat="46.57391" lon="5.74375">
        <ele>564.6</ele>
        <time>2022-02-28T15:41:43Z</time>
      </trkpt>
      <trkpt lat="46.5739" lon="5.74391">
        <ele>564.2</ele>
        <time>2022-02-28T15:41:44Z</time>
      </trkpt>
      <trkpt lat="46.5739" lon="5.74407">
        <ele>563.8</ele>
        <time>2022-02-28T15:41:45Z</time>
      </trkpt>
      <trkpt lat="46.5739" lon="5.74424">
        <ele>563.4</ele>
        <time>2022-02-28T15:41:46Z</time>
      </trkpt>
      <trkpt lat="46.5739" lon="5.7444">
        <ele>563</ele>
        <time>2022-02-28T15:41:47Z</time>
      </trkpt>
      <trkpt lat="46.57388" lon="5.74456">
        <ele>562.6</ele>
        <time>2022-02-28T15:41:48Z</time>
      </trkpt>
      <trkpt lat="46.57388" lon="5.74472">
        <ele>562</ele>
        <time>2022-02-28T15:41:49Z</time>
      </trkpt>
      <trkpt lat="46.57387" lon="5.74487">
        <ele>561.2</ele>
        <time>2022-02-28T15:41:50Z</time>
      </trkpt>
      <trkpt lat="46.57385" lon="5.74501">
        <ele>560.6</ele>
        <time>2022-02-28T15:41:51Z</time>
      </trkpt>
      <trkpt lat="46.57381" lon="5.74516">
        <ele>559.8</ele>
        <time>2022-02-28T15:41:52Z</time>
      </trkpt>
      <trkpt lat="46.57377" lon="5.74529">
        <ele>559</ele>
        <time>2022-02-28T15:41:53Z</time>
      </trkpt>
      <trkpt lat="46.57373" lon="5.74541">
        <ele>558.2</ele>
        <time>2022-02-28T15:41:54Z</time>
      </trkpt>
      <trkpt lat="46.5737" lon="5.74553">
        <ele>557.4</ele>
        <time>2022-02-28T15:41:55Z</time>
      </trkpt>
      <trkpt lat="46.57368" lon="5.74564">
        <ele>556.4</ele>
        <time>2022-02-28T15:41:56Z</time>
      </trkpt>
      <trkpt lat="46.57367" lon="5.74577">
        <ele>555.4</ele>
        <time>2022-02-28T15:41:57Z</time>
      </trkpt>
      <trkpt lat="46.57367" lon="5.7459">
        <ele>554.4</ele>
        <time>2022-02-28T15:41:58Z</time>
      </trkpt>
      <trkpt lat="46.57368" lon="5.74604">
        <ele>553.4</ele>
        <time>2022-02-28T15:41:59Z</time>
      </trkpt>
      <trkpt lat="46.57371" lon="5.74617">
        <ele>552.2</ele>
        <time>2022-02-28T15:42:00Z</time>
      </trkpt>
      <trkpt lat="46.57373" lon="5.74628">
        <ele>551.2</ele>
        <time>2022-02-28T15:42:01Z</time>
      </trkpt>
      <trkpt lat="46.57376" lon="5.7464">
        <ele>550.4</ele>
        <time>2022-02-28T15:42:02Z</time>
      </trkpt>
      <trkpt lat="46.57379" lon="5.7465">
        <ele>549.4</ele>
        <time>2022-02-28T15:42:03Z</time>
      </trkpt>
      <trkpt lat="46.57381" lon="5.7466">
        <ele>548.6</ele>
        <time>2022-02-28T15:42:04Z</time>
      </trkpt>
      <trkpt lat="46.57383" lon="5.74669">
        <ele>547.8</ele>
        <time>2022-02-28T15:42:05Z</time>
      </trkpt>
      <trkpt lat="46.57384" lon="5.74677">
        <ele>547.2</ele>
        <time>2022-02-28T15:42:06Z</time>
      </trkpt>
      <trkpt lat="46.57386" lon="5.74683">
        <ele>546.6</ele>
        <time>2022-02-28T15:42:07Z</time>
      </trkpt>
      <trkpt lat="46.57387" lon="5.74688">
        <ele>546.2</ele>
        <time>2022-02-28T15:42:08Z</time>
      </trkpt>
      <trkpt lat="46.57387" lon="5.74692">
        <ele>545.8</ele>
        <time>2022-02-28T15:42:09Z</time>
      </trkpt>
      <trkpt lat="46.57388" lon="5.74695">
        <ele>545.6</ele>
        <time>2022-02-28T15:42:10Z</time>
      </trkpt>
      <trkpt lat="46.57388" lon="5.74698">
        <ele>545.2</ele>
        <time>2022-02-28T15:42:11Z</time>
      </trkpt>
      <trkpt lat="46.57388" lon="5.74701">
        <ele>544.8</ele>
        <time>2022-02-28T15:42:12Z</time>
      </trkpt>
      <trkpt lat="46.57388" lon="5.74703">
        <ele>544.6</ele>
        <time>2022-02-28T15:42:13Z</time>
      </trkpt>
      <trkpt lat="46.57388" lon="5.74704">
        <ele>544.6</ele>
        <time>2022-02-28T15:42:14Z</time>
      </trkpt>
      <trkpt lat="46.57388" lon="5.74704">
        <ele>544.2</ele>
        <time>2022-02-28T15:42:15Z</time>
      </trkpt>
      <trkpt lat="46.57388" lon="5.74705">
        <ele>544.2</ele>
        <time>2022-02-28T15:42:16Z</time>
      </trkpt>
      <trkpt lat="46.57388" lon="5.74705">
        <ele>544</ele>
        <time>2022-02-28T15:42:17Z</time>
      </trkpt>
      <trkpt lat="46.57388" lon="5.74709">
        <ele>544</ele>
        <time>2022-02-28T15:42:18Z</time>
      </trkpt>
      <trkpt lat="46.57389" lon="5.74713">
        <ele>543.8</ele>
        <time>2022-02-28T15:42:19Z</time>
      </trkpt>
      <trkpt lat="46.57391" lon="5.74716">
        <ele>543.8</ele>
        <time>2022-02-28T15:42:20Z</time>
      </trkpt>
      <trkpt lat="46.57393" lon="5.7472">
        <ele>543.8</ele>
        <time>2022-02-28T15:42:21Z</time>
      </trkpt>
      <trkpt lat="46.57396" lon="5.74723">
        <ele>543.8</ele>
        <time>2022-02-28T15:42:22Z</time>
      </trkpt>
      <trkpt lat="46.57398" lon="5.74727">
        <ele>543.6</ele>
        <time>2022-02-28T15:42:23Z</time>
      </trkpt>
      <trkpt lat="46.57401" lon="5.74732">
        <ele>543.6</ele>
        <time>2022-02-28T15:42:24Z</time>
      </trkpt>
      <trkpt lat="46.57403" lon="5.74737">
        <ele>543.6</ele>
        <time>2022-02-28T15:42:25Z</time>
      </trkpt>
      <trkpt lat="46.57404" lon="5.74742">
        <ele>543.4</ele>
        <time>2022-02-28T15:42:26Z</time>
      </trkpt>
      <trkpt lat="46.57406" lon="5.74748">
        <ele>543.4</ele>
        <time>2022-02-28T15:42:27Z</time>
      </trkpt>
      <trkpt lat="46.57408" lon="5.74754">
        <ele>543.4</ele>
        <time>2022-02-28T15:42:28Z</time>
      </trkpt>
      <trkpt lat="46.5741" lon="5.74759">
        <ele>543.4</ele>
        <time>2022-02-28T15:42:29Z</time>
      </trkpt>
      <trkpt lat="46.57413" lon="5.74763">
        <ele>543.4</ele>
        <time>2022-02-28T15:42:30Z</time>
      </trkpt>
      <trkpt lat="46.57417" lon="5.74765">
        <ele>543.4</ele>
        <time>2022-02-28T15:42:31Z</time>
      </trkpt>
      <trkpt lat="46.57421" lon="5.74764">
        <ele>543.4</ele>
        <time>2022-02-28T15:42:32Z</time>
      </trkpt>
      <trkpt lat="46.57424" lon="5.74763">
        <ele>543.6</ele>
        <time>2022-02-28T15:42:33Z</time>
      </trkpt>
      <trkpt lat="46.57428" lon="5.7476">
        <ele>543.6</ele>
        <time>2022-02-28T15:42:34Z</time>
      </trkpt>
      <trkpt lat="46.57431" lon="5.74756">
        <ele>543.6</ele>
        <time>2022-02-28T15:42:35Z</time>
      </trkpt>
      <trkpt lat="46.57435" lon="5.74753">
        <ele>543.8</ele>
        <time>2022-02-28T15:42:36Z</time>
      </trkpt>
      <trkpt lat="46.5744" lon="5.74751">
        <ele>543.8</ele>
        <time>2022-02-28T15:42:37Z</time>
      </trkpt>
      <trkpt lat="46.57445" lon="5.74751">
        <ele>544.2</ele>
        <time>2022-02-28T15:42:38Z</time>
      </trkpt>
      <trkpt lat="46.57449" lon="5.74751">
        <ele>544.4</ele>
        <time>2022-02-28T15:42:39Z</time>
      </trkpt>
      <trkpt lat="46.57454" lon="5.74751">
        <ele>544.6</ele>
        <time>2022-02-28T15:42:40Z</time>
      </trkpt>
      <trkpt lat="46.57458" lon="5.74751">
        <ele>544.6</ele>
        <time>2022-02-28T15:42:41Z</time>
      </trkpt>
      <trkpt lat="46.57463" lon="5.74751">
        <ele>545</ele>
        <time>2022-02-28T15:42:42Z</time>
      </trkpt>
      <trkpt lat="46.57468" lon="5.7475">
        <ele>545.2</ele>
        <time>2022-02-28T15:42:43Z</time>
      </trkpt>
      <trkpt lat="46.57473" lon="5.7475">
        <ele>545.4</ele>
        <time>2022-02-28T15:42:44Z</time>
      </trkpt>
      <trkpt lat="46.57478" lon="5.74749">
        <ele>545.4</ele>
        <time>2022-02-28T15:42:45Z</time>
      </trkpt>
      <trkpt lat="46.57483" lon="5.74748">
        <ele>545.8</ele>
        <time>2022-02-28T15:42:46Z</time>
      </trkpt>
      <trkpt lat="46.57487" lon="5.74747">
        <ele>545.8</ele>
        <time>2022-02-28T15:42:47Z</time>
      </trkpt>
      <trkpt lat="46.57492" lon="5.74746">
        <ele>546</ele>
        <time>2022-02-28T15:42:48Z</time>
      </trkpt>
      <trkpt lat="46.57496" lon="5.74745">
        <ele>546</ele>
        <time>2022-02-28T15:42:49Z</time>
      </trkpt>
      <trkpt lat="46.575" lon="5.74743">
        <ele>546.4</ele>
        <time>2022-02-28T15:42:50Z</time>
      </trkpt>
      <trkpt lat="46.57504" lon="5.74742">
        <ele>546.4</ele>
        <time>2022-02-28T15:42:51Z</time>
      </trkpt>
      <trkpt lat="46.57508" lon="5.74741">
        <ele>546.6</ele>
        <time>2022-02-28T15:42:52Z</time>
      </trkpt>
      <trkpt lat="46.57513" lon="5.74741">
        <ele>546.6</ele>
        <time>2022-02-28T15:42:53Z</time>
      </trkpt>
      <trkpt lat="46.57517" lon="5.7474">
        <ele>547</ele>
        <time>2022-02-28T15:42:54Z</time>
      </trkpt>
      <trkpt lat="46.57521" lon="5.74738">
        <ele>547</ele>
        <time>2022-02-28T15:42:55Z</time>
      </trkpt>
      <trkpt lat="46.57526" lon="5.74737">
        <ele>547.2</ele>
        <time>2022-02-28T15:42:56Z</time>
      </trkpt>
      <trkpt lat="46.57531" lon="5.74736">
        <ele>547.2</ele>
        <time>2022-02-28T15:42:57Z</time>
      </trkpt>
      <trkpt lat="46.57536" lon="5.74735">
        <ele>547.6</ele>
        <time>2022-02-28T15:42:58Z</time>
      </trkpt>
      <trkpt lat="46.57542" lon="5.74733">
        <ele>547.6</ele>
        <time>2022-02-28T15:42:59Z</time>
      </trkpt>
      <trkpt lat="46.57547" lon="5.74732">
        <ele>548</ele>
        <time>2022-02-28T15:43:00Z</time>
      </trkpt>
      <trkpt lat="46.57553" lon="5.7473">
        <ele>548</ele>
        <time>2022-02-28T15:43:01Z</time>
      </trkpt>
      <trkpt lat="46.57558" lon="5.74729">
        <ele>548.4</ele>
        <time>2022-02-28T15:43:02Z</time>
      </trkpt>
      <trkpt lat="46.57564" lon="5.74729">
        <ele>548.4</ele>
        <time>2022-02-28T15:43:03Z</time>
      </trkpt>
      <trkpt lat="46.57568" lon="5.74729">
        <ele>548.8</ele>
        <time>2022-02-28T15:43:04Z</time>
      </trkpt>
      <trkpt lat="46.57572" lon="5.74728">
        <ele>548.8</ele>
        <time>2022-02-28T15:43:05Z</time>
      </trkpt>
      <trkpt lat="46.57577" lon="5.74727">
        <ele>549</ele>
        <time>2022-02-28T15:43:06Z</time>
      </trkpt>
      <trkpt lat="46.57581" lon="5.74725">
        <ele>549.4</ele>
        <time>2022-02-28T15:43:07Z</time>
      </trkpt>
      <trkpt lat="46.57585" lon="5.74724">
        <ele>549.6</ele>
        <time>2022-02-28T15:43:08Z</time>
      </trkpt>
      <trkpt lat="46.57589" lon="5.74723">
        <ele>549.8</ele>
        <time>2022-02-28T15:43:09Z</time>
      </trkpt>
      <trkpt lat="46.57593" lon="5.74722">
        <ele>549.8</ele>
        <time>2022-02-28T15:43:10Z</time>
      </trkpt>
      <trkpt lat="46.57597" lon="5.7472">
        <ele>549.6</ele>
        <time>2022-02-28T15:43:11Z</time>
      </trkpt>
      <trkpt lat="46.57601" lon="5.74719">
        <ele>549.6</ele>
        <time>2022-02-28T15:43:12Z</time>
      </trkpt>
      <trkpt lat="46.57605" lon="5.74718">
        <ele>549.6</ele>
        <time>2022-02-28T15:43:13Z</time>
      </trkpt>
      <trkpt lat="46.57609" lon="5.74716">
        <ele>549.6</ele>
        <time>2022-02-28T15:43:14Z</time>
      </trkpt>
      <trkpt lat="46.57613" lon="5.74716">
        <ele>549.8</ele>
        <time>2022-02-28T15:43:15Z</time>
      </trkpt>
      <trkpt lat="46.57618" lon="5.74715">
        <ele>549.8</ele>
        <time>2022-02-28T15:43:16Z</time>
      </trkpt>
      <trkpt lat="46.57622" lon="5.74714">
        <ele>549.8</ele>
        <time>2022-02-28T15:43:17Z</time>
      </trkpt>
      <trkpt lat="46.57627" lon="5.74714">
        <ele>549.6</ele>
        <time>2022-02-28T15:43:18Z</time>
      </trkpt>
      <trkpt lat="46.57632" lon="5.74714">
        <ele>549.6</ele>
        <time>2022-02-28T15:43:19Z</time>
      </trkpt>
      <trkpt lat="46.57638" lon="5.74714">
        <ele>549.6</ele>
        <time>2022-02-28T15:43:20Z</time>
      </trkpt>
      <trkpt lat="46.57643" lon="5.74714">
        <ele>549.6</ele>
        <time>2022-02-28T15:43:21Z</time>
      </trkpt>
      <trkpt lat="46.57648" lon="5.74714">
        <ele>549.6</ele>
        <time>2022-02-28T15:43:22Z</time>
      </trkpt>
      <trkpt lat="46.57654" lon="5.74715">
        <ele>549.6</ele>
        <time>2022-02-28T15:43:23Z</time>
      </trkpt>
      <trkpt lat="46.5766" lon="5.74716">
        <ele>549.6</ele>
        <time>2022-02-28T15:43:24Z</time>
      </trkpt>
      <trkpt lat="46.57665" lon="5.74716">
        <ele>549.6</ele>
        <time>2022-02-28T15:43:25Z</time>
      </trkpt>
      <trkpt lat="46.57671" lon="5.74717">
        <ele>549.4</ele>
        <time>2022-02-28T15:43:26Z</time>
      </trkpt>
      <trkpt lat="46.57676" lon="5.74717">
        <ele>549.4</ele>
        <time>2022-02-28T15:43:27Z</time>
      </trkpt>
      <trkpt lat="46.57682" lon="5.74718">
        <ele>549.4</ele>
        <time>2022-02-28T15:43:28Z</time>
      </trkpt>
      <trkpt lat="46.57688" lon="5.74719">
        <ele>549.4</ele>
        <time>2022-02-28T15:43:29Z</time>
      </trkpt>
      <trkpt lat="46.57693" lon="5.7472">
        <ele>549.4</ele>
        <time>2022-02-28T15:43:30Z</time>
      </trkpt>
      <trkpt lat="46.57698" lon="5.7472">
        <ele>549.4</ele>
        <time>2022-02-28T15:43:31Z</time>
      </trkpt>
      <trkpt lat="46.57704" lon="5.74721">
        <ele>549.4</ele>
        <time>2022-02-28T15:43:32Z</time>
      </trkpt>
      <trkpt lat="46.57709" lon="5.74721">
        <ele>549.4</ele>
        <time>2022-02-28T15:43:33Z</time>
      </trkpt>
      <trkpt lat="46.57715" lon="5.74722">
        <ele>549.4</ele>
        <time>2022-02-28T15:43:34Z</time>
      </trkpt>
      <trkpt lat="46.5772" lon="5.74723">
        <ele>549.4</ele>
        <time>2022-02-28T15:43:35Z</time>
      </trkpt>
    </trkseg>
  </trk>
</gpx>